<?xml version="1.0" encoding="UTF-8" standalone="no" ?>
<gpx xmlns="http://www.topografix.com/GPX/1/1" xmlns:xsi="http://www.w3.org/2001/XMLSchema-instance" xsi:schemaLocation="http://www.topografix.com/GPX/1/1 http://www.topografix.com/GPX/1/1/gpx.xsd" version="1.1" creator="VisuGPX - https://www.visugpx.com">
  <metadata>
    <name>2021 11 19 08:32 Crête Nord du Mounier</name>
    <desc><![CDATA[Crête Nord du Mounier par le Rio blanc et la Burenta.
Arrêt forcé car trop de neige...]]></desc>
  </metadata>
  <trk>
    <name><![CDATA[2021 11 19 08:32 Crête Nord du Mounier]]></name>
    <trkseg>
      <trkpt lat="44.19795" lon="6.95302">
        <ele>1365.2081930526</ele>
        <time>2021-11-18T07:32:52Z</time>
      </trkpt>
      <trkpt lat="44.19795" lon="6.95302">
        <ele>1365.2081930526</ele>
        <time>2021-11-18T07:32:54Z</time>
      </trkpt>
      <trkpt lat="44.19801" lon="6.95303">
        <ele>1350.207954336</ele>
        <time>2021-11-18T07:32:56Z</time>
      </trkpt>
      <trkpt lat="44.19805" lon="6.95301">
        <ele>1343.2078180462</ele>
        <time>2021-11-18T07:32:57Z</time>
      </trkpt>
      <trkpt lat="44.19805" lon="6.953">
        <ele>1339.2078151964</ele>
        <time>2021-11-18T07:32:58Z</time>
      </trkpt>
      <trkpt lat="44.19805" lon="6.953">
        <ele>1339.2078120112</ele>
        <time>2021-11-18T07:33:07Z</time>
      </trkpt>
      <trkpt lat="44.19803" lon="6.953">
        <ele>1341.2078782283</ele>
        <time>2021-11-18T07:33:08Z</time>
      </trkpt>
      <trkpt lat="44.19802" lon="6.953">
        <ele>1341.2079105824</ele>
        <time>2021-11-18T07:33:09Z</time>
      </trkpt>
      <trkpt lat="44.19802" lon="6.95301">
        <ele>1340.2079266757</ele>
        <time>2021-11-18T07:33:10Z</time>
      </trkpt>
      <trkpt lat="44.19801" lon="6.95301">
        <ele>1341.2079731114</ele>
        <time>2021-11-18T07:33:11Z</time>
      </trkpt>
      <trkpt lat="44.198" lon="6.953">
        <ele>1341.207989037</ele>
        <time>2021-11-18T07:33:25Z</time>
      </trkpt>
      <trkpt lat="44.19801" lon="6.95299">
        <ele>1340.2079759613</ele>
        <time>2021-11-18T07:33:26Z</time>
      </trkpt>
      <trkpt lat="44.198" lon="6.95299">
        <ele>1340.2079903781</ele>
        <time>2021-11-18T07:33:30Z</time>
      </trkpt>
      <trkpt lat="44.198" lon="6.95299">
        <ele>1341.2080148533</ele>
        <time>2021-11-18T07:33:44Z</time>
      </trkpt>
      <trkpt lat="44.19799" lon="6.95299">
        <ele>1342.2080487162</ele>
        <time>2021-11-18T07:34:05Z</time>
      </trkpt>
      <trkpt lat="44.19798" lon="6.95299">
        <ele>1341.2080758736</ele>
        <time>2021-11-18T07:34:07Z</time>
      </trkpt>
      <trkpt lat="44.19797" lon="6.95299">
        <ele>1342.2081099041</ele>
        <time>2021-11-18T07:34:08Z</time>
      </trkpt>
      <trkpt lat="44.19797" lon="6.95299">
        <ele>1341.2081305236</ele>
        <time>2021-11-18T07:34:50Z</time>
      </trkpt>
      <trkpt lat="44.19795" lon="6.95298">
        <ele>1340.2081880234</ele>
        <time>2021-11-18T07:34:51Z</time>
      </trkpt>
      <trkpt lat="44.19795" lon="6.95298">
        <ele>1340.2081970759</ele>
        <time>2021-11-18T07:37:28Z</time>
      </trkpt>
      <trkpt lat="44.19797" lon="6.95298">
        <ele>1340.2081400789</ele>
        <time>2021-11-18T07:37:29Z</time>
      </trkpt>
      <trkpt lat="44.19797" lon="6.95299">
        <ele>1341.208134044</ele>
        <time>2021-11-18T07:37:31Z</time>
      </trkpt>
      <trkpt lat="44.19797" lon="6.95299">
        <ele>1341.2081345469</ele>
        <time>2021-11-18T07:37:38Z</time>
      </trkpt>
      <trkpt lat="44.19797" lon="6.95302">
        <ele>1339.2081265002</ele>
        <time>2021-11-18T07:37:39Z</time>
      </trkpt>
      <trkpt lat="44.19797" lon="6.95302">
        <ele>1339.2081181183</ele>
        <time>2021-11-18T07:37:44Z</time>
      </trkpt>
      <trkpt lat="44.19797" lon="6.95301">
        <ele>1341.2081404142</ele>
        <time>2021-11-18T07:37:45Z</time>
      </trkpt>
      <trkpt lat="44.19797" lon="6.953">
        <ele>1341.2081333734</ele>
        <time>2021-11-18T07:37:46Z</time>
      </trkpt>
      <trkpt lat="44.19797" lon="6.95299">
        <ele>1342.2081216387</ele>
        <time>2021-11-18T07:37:48Z</time>
      </trkpt>
      <trkpt lat="44.19797" lon="6.95299">
        <ele>1342.2081216387</ele>
        <time>2021-11-18T07:37:50Z</time>
      </trkpt>
      <trkpt lat="44.19799" lon="6.95296">
        <ele>1340.2080559246</ele>
        <time>2021-11-18T07:37:52Z</time>
      </trkpt>
      <trkpt lat="44.19799" lon="6.95297">
        <ele>1339.2080270909</ele>
        <time>2021-11-18T07:38:25Z</time>
      </trkpt>
      <trkpt lat="44.19799" lon="6.95296">
        <ele>1339.208022397</ele>
        <time>2021-11-18T07:38:33Z</time>
      </trkpt>
      <trkpt lat="44.19799" lon="6.95298">
        <ele>1338.2080247439</ele>
        <time>2021-11-18T07:38:34Z</time>
      </trkpt>
      <trkpt lat="44.19799" lon="6.95298">
        <ele>1338.208047878</ele>
        <time>2021-11-18T07:38:36Z</time>
      </trkpt>
      <trkpt lat="44.19798" lon="6.95298">
        <ele>1338.2080758736</ele>
        <time>2021-11-18T07:38:37Z</time>
      </trkpt>
      <trkpt lat="44.19798" lon="6.95298">
        <ele>1338.2080939785</ele>
        <time>2021-11-18T07:38:39Z</time>
      </trkpt>
      <trkpt lat="44.19797" lon="6.95298">
        <ele>1338.2081105746</ele>
        <time>2021-11-18T07:38:42Z</time>
      </trkpt>
      <trkpt lat="44.19798" lon="6.95298">
        <ele>1336.2080688328</ele>
        <time>2021-11-18T07:38:43Z</time>
      </trkpt>
      <trkpt lat="44.19799" lon="6.95299">
        <ele>1336.2080589421</ele>
        <time>2021-11-18T07:38:55Z</time>
      </trkpt>
      <trkpt lat="44.19798" lon="6.953">
        <ele>1336.2080758736</ele>
        <time>2021-11-18T07:38:56Z</time>
      </trkpt>
      <trkpt lat="44.19797" lon="6.953">
        <ele>1337.2081204653</ele>
        <time>2021-11-18T07:38:57Z</time>
      </trkpt>
      <trkpt lat="44.19796" lon="6.95301">
        <ele>1336.2081544958</ele>
        <time>2021-11-18T07:38:58Z</time>
      </trkpt>
      <trkpt lat="44.19795" lon="6.95302">
        <ele>1337.2081945613</ele>
        <time>2021-11-18T07:38:59Z</time>
      </trkpt>
      <trkpt lat="44.19794" lon="6.95303">
        <ele>1337.2082301006</ele>
        <time>2021-11-18T07:39:00Z</time>
      </trkpt>
      <trkpt lat="44.19795" lon="6.95303">
        <ele>1338.2082026079</ele>
        <time>2021-11-18T07:39:08Z</time>
      </trkpt>
      <trkpt lat="44.19797" lon="6.95303">
        <ele>1338.2081072219</ele>
        <time>2021-11-18T07:39:09Z</time>
      </trkpt>
      <trkpt lat="44.19798" lon="6.95302">
        <ele>1339.2080726884</ele>
        <time>2021-11-18T07:39:15Z</time>
      </trkpt>
      <trkpt lat="44.19799" lon="6.95302">
        <ele>1339.2080602832</ele>
        <time>2021-11-18T07:39:32Z</time>
      </trkpt>
      <trkpt lat="44.19797" lon="6.95304">
        <ele>1341.2081137598</ele>
        <time>2021-11-18T07:39:33Z</time>
      </trkpt>
      <trkpt lat="44.19796" lon="6.95305">
        <ele>1341.2081736065</ele>
        <time>2021-11-18T07:39:34Z</time>
      </trkpt>
      <trkpt lat="44.19795" lon="6.95307">
        <ele>1342.2082061283</ele>
        <time>2021-11-18T07:39:35Z</time>
      </trkpt>
      <trkpt lat="44.19795" lon="6.95308">
        <ele>1342.2082185335</ele>
        <time>2021-11-18T07:39:36Z</time>
      </trkpt>
      <trkpt lat="44.19794" lon="6.9531">
        <ele>1342.2082260773</ele>
        <time>2021-11-18T07:39:37Z</time>
      </trkpt>
      <trkpt lat="44.19794" lon="6.95312">
        <ele>1342.2082438469</ele>
        <time>2021-11-18T07:39:38Z</time>
      </trkpt>
      <trkpt lat="44.19793" lon="6.95314">
        <ele>1342.2082726806</ele>
        <time>2021-11-18T07:39:39Z</time>
      </trkpt>
      <trkpt lat="44.19793" lon="6.95316">
        <ele>1342.2082802244</ele>
        <time>2021-11-18T07:39:40Z</time>
      </trkpt>
      <trkpt lat="44.19793" lon="6.95317">
        <ele>1341.2082797214</ele>
        <time>2021-11-18T07:39:41Z</time>
      </trkpt>
      <trkpt lat="44.19793" lon="6.95319">
        <ele>1341.208272513</ele>
        <time>2021-11-18T07:39:42Z</time>
      </trkpt>
      <trkpt lat="44.19794" lon="6.9532">
        <ele>1341.2082619518</ele>
        <time>2021-11-18T07:39:43Z</time>
      </trkpt>
      <trkpt lat="44.19794" lon="6.95322">
        <ele>1341.2082396559</ele>
        <time>2021-11-18T07:39:44Z</time>
      </trkpt>
      <trkpt lat="44.19794" lon="6.95323">
        <ele>1341.2082254067</ele>
        <time>2021-11-18T07:39:45Z</time>
      </trkpt>
      <trkpt lat="44.19794" lon="6.95325">
        <ele>1341.2082368061</ele>
        <time>2021-11-18T07:39:46Z</time>
      </trkpt>
      <trkpt lat="44.19794" lon="6.95326">
        <ele>1341.2082473673</ele>
        <time>2021-11-18T07:39:47Z</time>
      </trkpt>
      <trkpt lat="44.19794" lon="6.95327">
        <ele>1341.2082471997</ele>
        <time>2021-11-18T07:39:48Z</time>
      </trkpt>
      <trkpt lat="44.19794" lon="6.95328">
        <ele>1342.2082428411</ele>
        <time>2021-11-18T07:39:49Z</time>
      </trkpt>
      <trkpt lat="44.19794" lon="6.9533">
        <ele>1342.2082415</ele>
        <time>2021-11-18T07:39:50Z</time>
      </trkpt>
      <trkpt lat="44.19794" lon="6.95331">
        <ele>1342.2082326151</ele>
        <time>2021-11-18T07:39:51Z</time>
      </trkpt>
      <trkpt lat="44.19794" lon="6.95333">
        <ele>1342.2082259096</ele>
        <time>2021-11-18T07:39:52Z</time>
      </trkpt>
      <trkpt lat="44.19794" lon="6.95334">
        <ele>1343.2082222216</ele>
        <time>2021-11-18T07:39:53Z</time>
      </trkpt>
      <trkpt lat="44.19794" lon="6.95334">
        <ele>1343.2082222216</ele>
        <time>2021-11-18T07:39:55Z</time>
      </trkpt>
      <trkpt lat="44.19794" lon="6.95337">
        <ele>1343.208239153</ele>
        <time>2021-11-18T07:39:56Z</time>
      </trkpt>
      <trkpt lat="44.19794" lon="6.95339">
        <ele>1343.2082445174</ele>
        <time>2021-11-18T07:39:57Z</time>
      </trkpt>
      <trkpt lat="44.19794" lon="6.9534">
        <ele>1343.2082539052</ele>
        <time>2021-11-18T07:39:58Z</time>
      </trkpt>
      <trkpt lat="44.19793" lon="6.95342">
        <ele>1344.2082683221</ele>
        <time>2021-11-18T07:39:59Z</time>
      </trkpt>
      <trkpt lat="44.19793" lon="6.95343">
        <ele>1344.2082783803</ele>
        <time>2021-11-18T07:40:00Z</time>
      </trkpt>
      <trkpt lat="44.19793" lon="6.95344">
        <ele>1344.2082658075</ele>
        <time>2021-11-18T07:40:01Z</time>
      </trkpt>
      <trkpt lat="44.19793" lon="6.95345">
        <ele>1344.2082845829</ele>
        <time>2021-11-18T07:40:08Z</time>
      </trkpt>
      <trkpt lat="44.19791" lon="6.95347">
        <ele>1343.2083541527</ele>
        <time>2021-11-18T07:40:09Z</time>
      </trkpt>
      <trkpt lat="44.19791" lon="6.95346">
        <ele>1342.2083722576</ele>
        <time>2021-11-18T07:40:10Z</time>
      </trkpt>
      <trkpt lat="44.19791" lon="6.95345">
        <ele>1341.2083759457</ele>
        <time>2021-11-18T07:40:11Z</time>
      </trkpt>
      <trkpt lat="44.1979" lon="6.95344">
        <ele>1340.208397571</ele>
        <time>2021-11-18T07:40:14Z</time>
      </trkpt>
      <trkpt lat="44.19789" lon="6.95339">
        <ele>1338.2084356248</ele>
        <time>2021-11-18T07:40:15Z</time>
      </trkpt>
      <trkpt lat="44.19789" lon="6.95336">
        <ele>1337.2084458508</ele>
        <time>2021-11-18T07:40:16Z</time>
      </trkpt>
      <trkpt lat="44.19789" lon="6.95334">
        <ele>1336.208454065</ele>
        <time>2021-11-18T07:40:17Z</time>
      </trkpt>
      <trkpt lat="44.19788" lon="6.95333">
        <ele>1336.2084736787</ele>
        <time>2021-11-18T07:40:18Z</time>
      </trkpt>
      <trkpt lat="44.19788" lon="6.95331">
        <ele>1335.2084820606</ele>
        <time>2021-11-18T07:40:19Z</time>
      </trkpt>
      <trkpt lat="44.19787" lon="6.95329">
        <ele>1335.2085021771</ele>
        <time>2021-11-18T07:40:20Z</time>
      </trkpt>
      <trkpt lat="44.19787" lon="6.95328">
        <ele>1335.208518941</ele>
        <time>2021-11-18T07:40:21Z</time>
      </trkpt>
      <trkpt lat="44.19786" lon="6.95326">
        <ele>1334.2085440867</ele>
        <time>2021-11-18T07:40:22Z</time>
      </trkpt>
      <trkpt lat="44.19786" lon="6.95324">
        <ele>1334.2085705735</ele>
        <time>2021-11-18T07:40:23Z</time>
      </trkpt>
      <trkpt lat="44.19785" lon="6.95322">
        <ele>1334.2085881755</ele>
        <time>2021-11-18T07:40:24Z</time>
      </trkpt>
      <trkpt lat="44.19785" lon="6.9532">
        <ele>1334.2086025923</ele>
        <time>2021-11-18T07:40:25Z</time>
      </trkpt>
      <trkpt lat="44.19785" lon="6.95319">
        <ele>1334.2086178474</ele>
        <time>2021-11-18T07:40:26Z</time>
      </trkpt>
      <trkpt lat="44.19784" lon="6.95317">
        <ele>1334.2086268999</ele>
        <time>2021-11-18T07:40:27Z</time>
      </trkpt>
      <trkpt lat="44.19784" lon="6.95316">
        <ele>1335.2086512074</ele>
        <time>2021-11-18T07:40:28Z</time>
      </trkpt>
      <trkpt lat="44.19784" lon="6.95314">
        <ele>1334.2086617686</ele>
        <time>2021-11-18T07:40:29Z</time>
      </trkpt>
      <trkpt lat="44.19783" lon="6.95313">
        <ele>1334.2086728327</ele>
        <time>2021-11-18T07:40:30Z</time>
      </trkpt>
      <trkpt lat="44.19783" lon="6.95311">
        <ele>1334.2086830586</ele>
        <time>2021-11-18T07:40:31Z</time>
      </trkpt>
      <trkpt lat="44.19783" lon="6.9531">
        <ele>1333.2086921111</ele>
        <time>2021-11-18T07:40:33Z</time>
      </trkpt>
      <trkpt lat="44.19782" lon="6.95309">
        <ele>1332.2087085396</ele>
        <time>2021-11-18T07:40:34Z</time>
      </trkpt>
      <trkpt lat="44.19782" lon="6.95307">
        <ele>1332.2087237947</ele>
        <time>2021-11-18T07:40:35Z</time>
      </trkpt>
      <trkpt lat="44.19782" lon="6.95306">
        <ele>1332.2087281533</ele>
        <time>2021-11-18T07:40:36Z</time>
      </trkpt>
      <trkpt lat="44.19782" lon="6.95305">
        <ele>1332.2087274827</ele>
        <time>2021-11-18T07:40:44Z</time>
      </trkpt>
      <trkpt lat="44.1978" lon="6.95303">
        <ele>1330.2088040933</ele>
        <time>2021-11-18T07:40:45Z</time>
      </trkpt>
      <trkpt lat="44.1978" lon="6.95303">
        <ele>1330.2088203542</ele>
        <time>2021-11-18T07:40:46Z</time>
      </trkpt>
      <trkpt lat="44.19779" lon="6.95303">
        <ele>1330.2088369504</ele>
        <time>2021-11-18T07:40:47Z</time>
      </trkpt>
      <trkpt lat="44.19779" lon="6.95302">
        <ele>1330.2088470086</ele>
        <time>2021-11-18T07:40:48Z</time>
      </trkpt>
      <trkpt lat="44.19779" lon="6.95302">
        <ele>1330.2088470086</ele>
        <time>2021-11-18T07:40:50Z</time>
      </trkpt>
      <trkpt lat="44.19778" lon="6.95299">
        <ele>1331.2088766806</ele>
        <time>2021-11-18T07:40:51Z</time>
      </trkpt>
      <trkpt lat="44.19777" lon="6.95299">
        <ele>1333.2089038379</ele>
        <time>2021-11-18T07:40:53Z</time>
      </trkpt>
      <trkpt lat="44.19777" lon="6.95299">
        <ele>1333.2089338452</ele>
        <time>2021-11-18T07:40:56Z</time>
      </trkpt>
      <trkpt lat="44.19775" lon="6.95298">
        <ele>1334.209013138</ele>
        <time>2021-11-18T07:40:57Z</time>
      </trkpt>
      <trkpt lat="44.19774" lon="6.95297">
        <ele>1334.2090458274</ele>
        <time>2021-11-18T07:40:58Z</time>
      </trkpt>
      <trkpt lat="44.19773" lon="6.95297">
        <ele>1334.2090627588</ele>
        <time>2021-11-18T07:40:59Z</time>
      </trkpt>
      <trkpt lat="44.19773" lon="6.95296">
        <ele>1335.2090771757</ele>
        <time>2021-11-18T07:41:00Z</time>
      </trkpt>
      <trkpt lat="44.19773" lon="6.95295">
        <ele>1335.2090941072</ele>
        <time>2021-11-18T07:41:01Z</time>
      </trkpt>
      <trkpt lat="44.19773" lon="6.95294">
        <ele>1335.2091011479</ele>
        <time>2021-11-18T07:41:02Z</time>
      </trkpt>
      <trkpt lat="44.19772" lon="6.95294">
        <ele>1335.2091202587</ele>
        <time>2021-11-18T07:41:03Z</time>
      </trkpt>
      <trkpt lat="44.19771" lon="6.95293">
        <ele>1336.2091499306</ele>
        <time>2021-11-18T07:41:04Z</time>
      </trkpt>
      <trkpt lat="44.19771" lon="6.95292">
        <ele>1336.2091551274</ele>
        <time>2021-11-18T07:41:05Z</time>
      </trkpt>
      <trkpt lat="44.19771" lon="6.95291">
        <ele>1336.2091608271</ele>
        <time>2021-11-18T07:41:06Z</time>
      </trkpt>
      <trkpt lat="44.19771" lon="6.95291">
        <ele>1336.2091608271</ele>
        <time>2021-11-18T07:41:08Z</time>
      </trkpt>
      <trkpt lat="44.19769" lon="6.95288">
        <ele>1335.2092337497</ele>
        <time>2021-11-18T07:41:09Z</time>
      </trkpt>
      <trkpt lat="44.19769" lon="6.95287">
        <ele>1336.2092548721</ele>
        <time>2021-11-18T07:41:10Z</time>
      </trkpt>
      <trkpt lat="44.19769" lon="6.95286">
        <ele>1336.2092550397</ele>
        <time>2021-11-18T07:41:11Z</time>
      </trkpt>
      <trkpt lat="44.19768" lon="6.95285">
        <ele>1335.2092731446</ele>
        <time>2021-11-18T07:41:12Z</time>
      </trkpt>
      <trkpt lat="44.19768" lon="6.95284">
        <ele>1335.2092902437</ele>
        <time>2021-11-18T07:41:15Z</time>
      </trkpt>
      <trkpt lat="44.19766" lon="6.95282">
        <ele>1334.2093521021</ele>
        <time>2021-11-18T07:41:16Z</time>
      </trkpt>
      <trkpt lat="44.19766" lon="6.95282">
        <ele>1334.209364675</ele>
        <time>2021-11-18T07:41:17Z</time>
      </trkpt>
      <trkpt lat="44.19766" lon="6.95281">
        <ele>1335.209378086</ele>
        <time>2021-11-18T07:41:18Z</time>
      </trkpt>
      <trkpt lat="44.19765" lon="6.95281">
        <ele>1334.2093997113</ele>
        <time>2021-11-18T07:41:19Z</time>
      </trkpt>
      <trkpt lat="44.19764" lon="6.95281">
        <ele>1334.209429048</ele>
        <time>2021-11-18T07:41:20Z</time>
      </trkpt>
      <trkpt lat="44.19763" lon="6.9528">
        <ele>1334.2094692811</ele>
        <time>2021-11-18T07:41:21Z</time>
      </trkpt>
      <trkpt lat="44.19763" lon="6.9528">
        <ele>1333.2094888948</ele>
        <time>2021-11-18T07:41:23Z</time>
      </trkpt>
      <trkpt lat="44.19762" lon="6.9528">
        <ele>1333.2095157169</ele>
        <time>2021-11-18T07:41:26Z</time>
      </trkpt>
      <trkpt lat="44.1976" lon="6.95282">
        <ele>1332.2096045651</ele>
        <time>2021-11-18T07:41:27Z</time>
      </trkpt>
      <trkpt lat="44.19759" lon="6.95281">
        <ele>1332.2096432894</ele>
        <time>2021-11-18T07:41:28Z</time>
      </trkpt>
      <trkpt lat="44.19758" lon="6.95281">
        <ele>1332.2096848637</ele>
        <time>2021-11-18T07:41:29Z</time>
      </trkpt>
      <trkpt lat="44.19757" lon="6.95281">
        <ele>1332.2097339816</ele>
        <time>2021-11-18T07:41:30Z</time>
      </trkpt>
      <trkpt lat="44.19757" lon="6.95281">
        <ele>1332.2097339816</ele>
        <time>2021-11-18T07:41:32Z</time>
      </trkpt>
      <trkpt lat="44.19754" lon="6.95283">
        <ele>1331.2098266855</ele>
        <time>2021-11-18T07:41:33Z</time>
      </trkpt>
      <trkpt lat="44.19754" lon="6.95284">
        <ele>1331.2098548487</ele>
        <time>2021-11-18T07:41:34Z</time>
      </trkpt>
      <trkpt lat="44.19753" lon="6.95285">
        <ele>1331.209889885</ele>
        <time>2021-11-18T07:41:35Z</time>
      </trkpt>
      <trkpt lat="44.19752" lon="6.95286">
        <ele>1331.2099265978</ele>
        <time>2021-11-18T07:41:36Z</time>
      </trkpt>
      <trkpt lat="44.19751" lon="6.95287">
        <ele>1331.2099623047</ele>
        <time>2021-11-18T07:41:37Z</time>
      </trkpt>
      <trkpt lat="44.1975" lon="6.95288">
        <ele>1330.2099949941</ele>
        <time>2021-11-18T07:41:38Z</time>
      </trkpt>
      <trkpt lat="44.19749" lon="6.95289">
        <ele>1330.2100335509</ele>
        <time>2021-11-18T07:41:39Z</time>
      </trkpt>
      <trkpt lat="44.19749" lon="6.9529">
        <ele>1329.2100513205</ele>
        <time>2021-11-18T07:41:40Z</time>
      </trkpt>
      <trkpt lat="44.19748" lon="6.95291">
        <ele>1329.2100648992</ele>
        <time>2021-11-18T07:41:41Z</time>
      </trkpt>
      <trkpt lat="44.19748" lon="6.95293">
        <ele>1328.210101109</ele>
        <time>2021-11-18T07:41:42Z</time>
      </trkpt>
      <trkpt lat="44.19747" lon="6.95294">
        <ele>1327.2101353072</ele>
        <time>2021-11-18T07:41:43Z</time>
      </trkpt>
      <trkpt lat="44.19746" lon="6.95295">
        <ele>1326.2101468742</ele>
        <time>2021-11-18T07:41:44Z</time>
      </trkpt>
      <trkpt lat="44.19746" lon="6.95296">
        <ele>1326.2101473771</ele>
        <time>2021-11-18T07:41:45Z</time>
      </trkpt>
      <trkpt lat="44.19747" lon="6.95298">
        <ele>1326.2101279311</ele>
        <time>2021-11-18T07:41:46Z</time>
      </trkpt>
      <trkpt lat="44.19747" lon="6.95298">
        <ele>1326.2101279311</ele>
        <time>2021-11-18T07:41:48Z</time>
      </trkpt>
      <trkpt lat="44.19748" lon="6.95301">
        <ele>1326.210087195</ele>
        <time>2021-11-18T07:41:49Z</time>
      </trkpt>
      <trkpt lat="44.19748" lon="6.95302">
        <ele>1326.2100786455</ele>
        <time>2021-11-18T07:41:50Z</time>
      </trkpt>
      <trkpt lat="44.19749" lon="6.95304">
        <ele>1325.2100607082</ele>
        <time>2021-11-18T07:41:51Z</time>
      </trkpt>
      <trkpt lat="44.19749" lon="6.95305">
        <ele>1325.2100529969</ele>
        <time>2021-11-18T07:41:52Z</time>
      </trkpt>
      <trkpt lat="44.19749" lon="6.95306">
        <ele>1325.2100489736</ele>
        <time>2021-11-18T07:41:53Z</time>
      </trkpt>
      <trkpt lat="44.19749" lon="6.95308">
        <ele>1325.2100370713</ele>
        <time>2021-11-18T07:41:54Z</time>
      </trkpt>
      <trkpt lat="44.19749" lon="6.95308">
        <ele>1325.2100370713</ele>
        <time>2021-11-18T07:41:56Z</time>
      </trkpt>
      <trkpt lat="44.19749" lon="6.95311">
        <ele>1323.2100503147</ele>
        <time>2021-11-18T07:41:57Z</time>
      </trkpt>
      <trkpt lat="44.19748" lon="6.95312">
        <ele>1323.2100665756</ele>
        <time>2021-11-18T07:41:58Z</time>
      </trkpt>
      <trkpt lat="44.19748" lon="6.95314">
        <ele>1324.2100922242</ele>
        <time>2021-11-18T07:41:59Z</time>
      </trkpt>
      <trkpt lat="44.19747" lon="6.95315">
        <ele>1324.2101146877</ele>
        <time>2021-11-18T07:42:00Z</time>
      </trkpt>
      <trkpt lat="44.19747" lon="6.95316">
        <ele>1325.2101411745</ele>
        <time>2021-11-18T07:42:01Z</time>
      </trkpt>
      <trkpt lat="44.19746" lon="6.95316">
        <ele>1325.2101577707</ele>
        <time>2021-11-18T07:42:02Z</time>
      </trkpt>
      <trkpt lat="44.19746" lon="6.95317">
        <ele>1325.2101790607</ele>
        <time>2021-11-18T07:42:03Z</time>
      </trkpt>
      <trkpt lat="44.19745" lon="6.95318">
        <ele>1325.2101990096</ele>
        <time>2021-11-18T07:42:04Z</time>
      </trkpt>
      <trkpt lat="44.19744" lon="6.95318">
        <ele>1326.2102384046</ele>
        <time>2021-11-18T07:42:05Z</time>
      </trkpt>
      <trkpt lat="44.19744" lon="6.95319">
        <ele>1326.2102583535</ele>
        <time>2021-11-18T07:42:09Z</time>
      </trkpt>
      <trkpt lat="44.19742" lon="6.9532">
        <ele>1326.2103113271</ele>
        <time>2021-11-18T07:42:10Z</time>
      </trkpt>
      <trkpt lat="44.19742" lon="6.95321">
        <ele>1326.2103364728</ele>
        <time>2021-11-18T07:42:11Z</time>
      </trkpt>
      <trkpt lat="44.19741" lon="6.95322">
        <ele>1326.2103458606</ele>
        <time>2021-11-18T07:42:12Z</time>
      </trkpt>
      <trkpt lat="44.19741" lon="6.95324">
        <ele>1325.2103492133</ele>
        <time>2021-11-18T07:42:13Z</time>
      </trkpt>
      <trkpt lat="44.19741" lon="6.95324">
        <ele>1325.2103492133</ele>
        <time>2021-11-18T07:42:14Z</time>
      </trkpt>
      <trkpt lat="44.19741" lon="6.95326">
        <ele>1325.2103694975</ele>
        <time>2021-11-18T07:42:15Z</time>
      </trkpt>
      <trkpt lat="44.19741" lon="6.95327">
        <ele>1324.2103614509</ele>
        <time>2021-11-18T07:42:17Z</time>
      </trkpt>
      <trkpt lat="44.19741" lon="6.95328">
        <ele>1324.2103508897</ele>
        <time>2021-11-18T07:42:27Z</time>
      </trkpt>
      <trkpt lat="44.1974" lon="6.95333">
        <ele>1324.210384082</ele>
        <time>2021-11-18T07:42:28Z</time>
      </trkpt>
      <trkpt lat="44.1974" lon="6.95335">
        <ele>1325.2103983313</ele>
        <time>2021-11-18T07:42:29Z</time>
      </trkpt>
      <trkpt lat="44.1974" lon="6.95337">
        <ele>1324.210419789</ele>
        <time>2021-11-18T07:42:30Z</time>
      </trkpt>
      <trkpt lat="44.19739" lon="6.95339">
        <ele>1325.2104432583</ele>
        <time>2021-11-18T07:42:31Z</time>
      </trkpt>
      <trkpt lat="44.19738" lon="6.9534">
        <ele>1325.2104643807</ele>
        <time>2021-11-18T07:42:32Z</time>
      </trkpt>
      <trkpt lat="44.19738" lon="6.95341">
        <ele>1325.2104699127</ele>
        <time>2021-11-18T07:42:33Z</time>
      </trkpt>
      <trkpt lat="44.19738" lon="6.95343">
        <ele>1325.2104756124</ele>
        <time>2021-11-18T07:42:34Z</time>
      </trkpt>
      <trkpt lat="44.19738" lon="6.95344">
        <ele>1326.2104808092</ele>
        <time>2021-11-18T07:42:35Z</time>
      </trkpt>
      <trkpt lat="44.19738" lon="6.95346">
        <ele>1325.210486006</ele>
        <time>2021-11-18T07:42:36Z</time>
      </trkpt>
      <trkpt lat="44.19738" lon="6.95348">
        <ele>1325.210486006</ele>
        <time>2021-11-18T07:42:37Z</time>
      </trkpt>
      <trkpt lat="44.19738" lon="6.95349">
        <ele>1325.2104960643</ele>
        <time>2021-11-18T07:42:40Z</time>
      </trkpt>
      <trkpt lat="44.19737" lon="6.95352">
        <ele>1325.2105329446</ele>
        <time>2021-11-18T07:42:41Z</time>
      </trkpt>
      <trkpt lat="44.19736" lon="6.95353">
        <ele>1325.2105433382</ele>
        <time>2021-11-18T07:42:42Z</time>
      </trkpt>
      <trkpt lat="44.19736" lon="6.95355">
        <ele>1325.2105559111</ele>
        <time>2021-11-18T07:42:43Z</time>
      </trkpt>
      <trkpt lat="44.19736" lon="6.95356">
        <ele>1325.2105701603</ele>
        <time>2021-11-18T07:42:44Z</time>
      </trkpt>
      <trkpt lat="44.19736" lon="6.95356">
        <ele>1325.2105701603</ele>
        <time>2021-11-18T07:42:46Z</time>
      </trkpt>
      <trkpt lat="44.19735" lon="6.95359">
        <ele>1326.2105948031</ele>
        <time>2021-11-18T07:42:47Z</time>
      </trkpt>
      <trkpt lat="44.19736" lon="6.9536">
        <ele>1326.2105773687</ele>
        <time>2021-11-18T07:42:48Z</time>
      </trkpt>
      <trkpt lat="44.19736" lon="6.9536">
        <ele>1326.2105552405</ele>
        <time>2021-11-18T07:42:49Z</time>
      </trkpt>
      <trkpt lat="44.19736" lon="6.95361">
        <ele>1326.2105572522</ele>
        <time>2021-11-18T07:42:51Z</time>
      </trkpt>
      <trkpt lat="44.19736" lon="6.95363">
        <ele>1326.2105730101</ele>
        <time>2021-11-18T07:42:52Z</time>
      </trkpt>
      <trkpt lat="44.19735" lon="6.95365">
        <ele>1327.2106026821</ele>
        <time>2021-11-18T07:42:53Z</time>
      </trkpt>
      <trkpt lat="44.19735" lon="6.95367">
        <ele>1327.2106191106</ele>
        <time>2021-11-18T07:42:54Z</time>
      </trkpt>
      <trkpt lat="44.19735" lon="6.95368">
        <ele>1327.2106035203</ele>
        <time>2021-11-18T07:42:55Z</time>
      </trkpt>
      <trkpt lat="44.19735" lon="6.95369">
        <ele>1327.2106073759</ele>
        <time>2021-11-18T07:42:56Z</time>
      </trkpt>
      <trkpt lat="44.19735" lon="6.9537">
        <ele>1327.2106162608</ele>
        <time>2021-11-18T07:42:57Z</time>
      </trkpt>
      <trkpt lat="44.19734" lon="6.95372">
        <ele>1327.2106269896</ele>
        <time>2021-11-18T07:42:58Z</time>
      </trkpt>
      <trkpt lat="44.19735" lon="6.95373">
        <ele>1328.2106145844</ele>
        <time>2021-11-18T07:42:59Z</time>
      </trkpt>
      <trkpt lat="44.19734" lon="6.95375">
        <ele>1328.2106224634</ele>
        <time>2021-11-18T07:43:00Z</time>
      </trkpt>
      <trkpt lat="44.19735" lon="6.95377">
        <ele>1328.2106169313</ele>
        <time>2021-11-18T07:43:01Z</time>
      </trkpt>
      <trkpt lat="44.19734" lon="6.95378">
        <ele>1328.2106284983</ele>
        <time>2021-11-18T07:43:02Z</time>
      </trkpt>
      <trkpt lat="44.19734" lon="6.9538">
        <ele>1328.210640233</ele>
        <time>2021-11-18T07:43:03Z</time>
      </trkpt>
      <trkpt lat="44.19734" lon="6.95381">
        <ele>1328.2106479444</ele>
        <time>2021-11-18T07:43:04Z</time>
      </trkpt>
      <trkpt lat="44.19734" lon="6.95382">
        <ele>1328.2106546499</ele>
        <time>2021-11-18T07:43:05Z</time>
      </trkpt>
      <trkpt lat="44.19734" lon="6.95384">
        <ele>1328.2106306776</ele>
        <time>2021-11-18T07:43:06Z</time>
      </trkpt>
      <trkpt lat="44.19734" lon="6.95385">
        <ele>1328.2106326893</ele>
        <time>2021-11-18T07:43:07Z</time>
      </trkpt>
      <trkpt lat="44.19735" lon="6.95387">
        <ele>1329.2106103934</ele>
        <time>2021-11-18T07:43:08Z</time>
      </trkpt>
      <trkpt lat="44.19735" lon="6.95388">
        <ele>1329.2106036879</ele>
        <time>2021-11-18T07:43:09Z</time>
      </trkpt>
      <trkpt lat="44.19735" lon="6.9539">
        <ele>1329.2105840743</ele>
        <time>2021-11-18T07:43:10Z</time>
      </trkpt>
      <trkpt lat="44.19736" lon="6.95391">
        <ele>1329.2105441764</ele>
        <time>2021-11-18T07:43:11Z</time>
      </trkpt>
      <trkpt lat="44.19737" lon="6.95392">
        <ele>1330.2105124928</ele>
        <time>2021-11-18T07:43:12Z</time>
      </trkpt>
      <trkpt lat="44.19737" lon="6.95394">
        <ele>1330.2105062902</ele>
        <time>2021-11-18T07:43:13Z</time>
      </trkpt>
      <trkpt lat="44.19738" lon="6.95395">
        <ele>1330.2104945555</ele>
        <time>2021-11-18T07:43:14Z</time>
      </trkpt>
      <trkpt lat="44.19738" lon="6.95396">
        <ele>1329.210497573</ele>
        <time>2021-11-18T07:43:15Z</time>
      </trkpt>
      <trkpt lat="44.19738" lon="6.95397">
        <ele>1330.2104952261</ele>
        <time>2021-11-18T07:43:17Z</time>
      </trkpt>
      <trkpt lat="44.19737" lon="6.95399">
        <ele>1331.2105383091</ele>
        <time>2021-11-18T07:43:18Z</time>
      </trkpt>
      <trkpt lat="44.19736" lon="6.954">
        <ele>1331.2105659693</ele>
        <time>2021-11-18T07:43:19Z</time>
      </trkpt>
      <trkpt lat="44.19736" lon="6.95401">
        <ele>1331.2105622813</ele>
        <time>2021-11-18T07:43:20Z</time>
      </trkpt>
      <trkpt lat="44.19736" lon="6.95402">
        <ele>1331.2105736807</ele>
        <time>2021-11-18T07:43:21Z</time>
      </trkpt>
      <trkpt lat="44.19736" lon="6.95403">
        <ele>1332.2105523907</ele>
        <time>2021-11-18T07:43:22Z</time>
      </trkpt>
      <trkpt lat="44.19736" lon="6.95405">
        <ele>1332.2105498761</ele>
        <time>2021-11-18T07:43:23Z</time>
      </trkpt>
      <trkpt lat="44.19737" lon="6.95406">
        <ele>1333.2105334476</ele>
        <time>2021-11-18T07:43:24Z</time>
      </trkpt>
      <trkpt lat="44.19737" lon="6.95407">
        <ele>1333.2105287537</ele>
        <time>2021-11-18T07:43:25Z</time>
      </trkpt>
      <trkpt lat="44.19737" lon="6.95409">
        <ele>1333.2105393149</ele>
        <time>2021-11-18T07:43:26Z</time>
      </trkpt>
      <trkpt lat="44.19736" lon="6.9541">
        <ele>1333.2105604373</ele>
        <time>2021-11-18T07:43:27Z</time>
      </trkpt>
      <trkpt lat="44.19735" lon="6.95411">
        <ele>1333.2105886005</ele>
        <time>2021-11-18T07:43:28Z</time>
      </trkpt>
      <trkpt lat="44.19735" lon="6.95413">
        <ele>1333.2105968148</ele>
        <time>2021-11-18T07:43:29Z</time>
      </trkpt>
      <trkpt lat="44.19735" lon="6.95414">
        <ele>1333.2105924562</ele>
        <time>2021-11-18T07:43:30Z</time>
      </trkpt>
      <trkpt lat="44.19735" lon="6.95415">
        <ele>1332.2105845772</ele>
        <time>2021-11-18T07:43:31Z</time>
      </trkpt>
      <trkpt lat="44.19736" lon="6.95417">
        <ele>1332.2105810568</ele>
        <time>2021-11-18T07:43:32Z</time>
      </trkpt>
      <trkpt lat="44.19736" lon="6.95417">
        <ele>1332.2105810568</ele>
        <time>2021-11-18T07:43:34Z</time>
      </trkpt>
      <trkpt lat="44.19735" lon="6.95419">
        <ele>1332.2106043585</ele>
        <time>2021-11-18T07:43:35Z</time>
      </trkpt>
      <trkpt lat="44.19735" lon="6.95421">
        <ele>1332.2105906121</ele>
        <time>2021-11-18T07:43:36Z</time>
      </trkpt>
      <trkpt lat="44.19736" lon="6.95421">
        <ele>1331.210561946</ele>
        <time>2021-11-18T07:43:37Z</time>
      </trkpt>
      <trkpt lat="44.19736" lon="6.95422">
        <ele>1331.2105580904</ele>
        <time>2021-11-18T07:43:40Z</time>
      </trkpt>
      <trkpt lat="44.19736" lon="6.95426">
        <ele>1332.2105607726</ele>
        <time>2021-11-18T07:43:41Z</time>
      </trkpt>
      <trkpt lat="44.19736" lon="6.95427">
        <ele>1332.2105555758</ele>
        <time>2021-11-18T07:43:42Z</time>
      </trkpt>
      <trkpt lat="44.19736" lon="6.95428">
        <ele>1333.2105473615</ele>
        <time>2021-11-18T07:43:43Z</time>
      </trkpt>
      <trkpt lat="44.19736" lon="6.95429">
        <ele>1333.2105720043</ele>
        <time>2021-11-18T07:43:44Z</time>
      </trkpt>
      <trkpt lat="44.19736" lon="6.95431">
        <ele>1333.2105629519</ele>
        <time>2021-11-18T07:43:45Z</time>
      </trkpt>
      <trkpt lat="44.19736" lon="6.95432">
        <ele>1333.2105549052</ele>
        <time>2021-11-18T07:43:47Z</time>
      </trkpt>
      <trkpt lat="44.19736" lon="6.95433">
        <ele>1333.2105800509</ele>
        <time>2021-11-18T07:43:48Z</time>
      </trkpt>
      <trkpt lat="44.19736" lon="6.95433">
        <ele>1333.2105800509</ele>
        <time>2021-11-18T07:43:50Z</time>
      </trkpt>
      <trkpt lat="44.19736" lon="6.95438">
        <ele>1333.210572172</ele>
        <time>2021-11-18T07:43:51Z</time>
      </trkpt>
      <trkpt lat="44.19736" lon="6.95439">
        <ele>1333.2105557434</ele>
        <time>2021-11-18T07:43:52Z</time>
      </trkpt>
      <trkpt lat="44.19736" lon="6.95441">
        <ele>1333.2105647959</ele>
        <time>2021-11-18T07:43:53Z</time>
      </trkpt>
      <trkpt lat="44.19735" lon="6.95443">
        <ele>1333.2105964795</ele>
        <time>2021-11-18T07:43:54Z</time>
      </trkpt>
      <trkpt lat="44.19734" lon="6.95445">
        <ele>1332.2106263191</ele>
        <time>2021-11-18T07:43:55Z</time>
      </trkpt>
      <trkpt lat="44.19734" lon="6.95447">
        <ele>1332.2106368802</ele>
        <time>2021-11-18T07:43:56Z</time>
      </trkpt>
      <trkpt lat="44.19734" lon="6.95449">
        <ele>1332.2106491178</ele>
        <time>2021-11-18T07:43:57Z</time>
      </trkpt>
      <trkpt lat="44.19734" lon="6.9545">
        <ele>1332.2106316835</ele>
        <time>2021-11-18T07:43:58Z</time>
      </trkpt>
      <trkpt lat="44.19734" lon="6.95451">
        <ele>1332.2106273249</ele>
        <time>2021-11-18T07:43:59Z</time>
      </trkpt>
      <trkpt lat="44.19734" lon="6.95452">
        <ele>1333.2106484473</ele>
        <time>2021-11-18T07:44:00Z</time>
      </trkpt>
      <trkpt lat="44.19733" lon="6.95453">
        <ele>1333.2106720842</ele>
        <time>2021-11-18T07:44:01Z</time>
      </trkpt>
      <trkpt lat="44.19733" lon="6.95455">
        <ele>1333.2106688991</ele>
        <time>2021-11-18T07:44:02Z</time>
      </trkpt>
      <trkpt lat="44.19733" lon="6.95456">
        <ele>1333.2106739283</ele>
        <time>2021-11-18T07:44:03Z</time>
      </trkpt>
      <trkpt lat="44.19733" lon="6.95458">
        <ele>1333.2106947154</ele>
        <time>2021-11-18T07:44:04Z</time>
      </trkpt>
      <trkpt lat="44.19733" lon="6.9546">
        <ele>1333.2106922008</ele>
        <time>2021-11-18T07:44:05Z</time>
      </trkpt>
      <trkpt lat="44.19733" lon="6.95462">
        <ele>1333.2106819749</ele>
        <time>2021-11-18T07:44:06Z</time>
      </trkpt>
      <trkpt lat="44.19733" lon="6.95464">
        <ele>1333.210694883</ele>
        <time>2021-11-18T07:44:07Z</time>
      </trkpt>
      <trkpt lat="44.19733" lon="6.95466">
        <ele>1333.2106895186</ele>
        <time>2021-11-18T07:44:08Z</time>
      </trkpt>
      <trkpt lat="44.19733" lon="6.95468">
        <ele>1333.2106849924</ele>
        <time>2021-11-18T07:44:09Z</time>
      </trkpt>
      <trkpt lat="44.19733" lon="6.95469">
        <ele>1333.2106844895</ele>
        <time>2021-11-18T07:44:10Z</time>
      </trkpt>
      <trkpt lat="44.19733" lon="6.9547">
        <ele>1333.2106975652</ele>
        <time>2021-11-18T07:44:11Z</time>
      </trkpt>
      <trkpt lat="44.19732" lon="6.95472">
        <ele>1333.2107128203</ele>
        <time>2021-11-18T07:44:12Z</time>
      </trkpt>
      <trkpt lat="44.19732" lon="6.95474">
        <ele>1333.2107146643</ele>
        <time>2021-11-18T07:44:13Z</time>
      </trkpt>
      <trkpt lat="44.19732" lon="6.95477">
        <ele>1334.2107128203</ele>
        <time>2021-11-18T07:44:15Z</time>
      </trkpt>
      <trkpt lat="44.19732" lon="6.95478">
        <ele>1334.2107312605</ele>
        <time>2021-11-18T07:44:16Z</time>
      </trkpt>
      <trkpt lat="44.19732" lon="6.9548">
        <ele>1334.210730087</ele>
        <time>2021-11-18T07:44:17Z</time>
      </trkpt>
      <trkpt lat="44.19732" lon="6.95482">
        <ele>1333.2107401453</ele>
        <time>2021-11-18T07:44:19Z</time>
      </trkpt>
      <trkpt lat="44.19731" lon="6.95484">
        <ele>1333.2107468508</ele>
        <time>2021-11-18T07:44:20Z</time>
      </trkpt>
      <trkpt lat="44.19731" lon="6.95486">
        <ele>1333.2107512094</ele>
        <time>2021-11-18T07:44:21Z</time>
      </trkpt>
      <trkpt lat="44.19732" lon="6.95489">
        <ele>1333.2107351162</ele>
        <time>2021-11-18T07:44:23Z</time>
      </trkpt>
      <trkpt lat="44.19733" lon="6.95492">
        <ele>1334.2106734253</ele>
        <time>2021-11-18T07:44:25Z</time>
      </trkpt>
      <trkpt lat="44.19734" lon="6.95493">
        <ele>1335.2106227987</ele>
        <time>2021-11-18T07:44:26Z</time>
      </trkpt>
      <trkpt lat="44.19736" lon="6.95494">
        <ele>1335.2105807215</ele>
        <time>2021-11-18T07:44:27Z</time>
      </trkpt>
      <trkpt lat="44.19736" lon="6.95495">
        <ele>1335.2105622813</ele>
        <time>2021-11-18T07:44:28Z</time>
      </trkpt>
      <trkpt lat="44.19737" lon="6.95498">
        <ele>1335.2105262391</ele>
        <time>2021-11-18T07:44:30Z</time>
      </trkpt>
      <trkpt lat="44.19737" lon="6.955">
        <ele>1335.210503608</ele>
        <time>2021-11-18T07:44:31Z</time>
      </trkpt>
      <trkpt lat="44.19738" lon="6.95502">
        <ele>1335.2104819827</ele>
        <time>2021-11-18T07:44:32Z</time>
      </trkpt>
      <trkpt lat="44.19738" lon="6.95503">
        <ele>1336.2104736008</ele>
        <time>2021-11-18T07:44:33Z</time>
      </trkpt>
      <trkpt lat="44.19738" lon="6.95505">
        <ele>1336.2104848325</ele>
        <time>2021-11-18T07:44:34Z</time>
      </trkpt>
      <trkpt lat="44.19738" lon="6.95507">
        <ele>1336.2104930468</ele>
        <time>2021-11-18T07:44:35Z</time>
      </trkpt>
      <trkpt lat="44.19738" lon="6.95509">
        <ele>1336.2104863413</ele>
        <time>2021-11-18T07:44:36Z</time>
      </trkpt>
      <trkpt lat="44.19738" lon="6.95511">
        <ele>1336.2104712538</ele>
        <time>2021-11-18T07:44:37Z</time>
      </trkpt>
      <trkpt lat="44.19739" lon="6.95513">
        <ele>1336.2104315236</ele>
        <time>2021-11-18T07:44:39Z</time>
      </trkpt>
      <trkpt lat="44.1974" lon="6.95515">
        <ele>1337.2104072161</ele>
        <time>2021-11-18T07:44:40Z</time>
      </trkpt>
      <trkpt lat="44.1974" lon="6.95516">
        <ele>1337.2103964873</ele>
        <time>2021-11-18T07:44:41Z</time>
      </trkpt>
      <trkpt lat="44.1974" lon="6.95517">
        <ele>1337.2104157656</ele>
        <time>2021-11-18T07:44:42Z</time>
      </trkpt>
      <trkpt lat="44.1974" lon="6.95518">
        <ele>1337.2104093954</ele>
        <time>2021-11-18T07:44:43Z</time>
      </trkpt>
      <trkpt lat="44.1974" lon="6.9552">
        <ele>1338.210384585</ele>
        <time>2021-11-18T07:44:45Z</time>
      </trkpt>
      <trkpt lat="44.19741" lon="6.95522">
        <ele>1338.2103770413</ele>
        <time>2021-11-18T07:44:46Z</time>
      </trkpt>
      <trkpt lat="44.1974" lon="6.95523">
        <ele>1338.2103825733</ele>
        <time>2021-11-18T07:44:47Z</time>
      </trkpt>
      <trkpt lat="44.19741" lon="6.95524">
        <ele>1338.2103668153</ele>
        <time>2021-11-18T07:44:48Z</time>
      </trkpt>
      <trkpt lat="44.19742" lon="6.95527">
        <ele>1338.2103368081</ele>
        <time>2021-11-18T07:44:50Z</time>
      </trkpt>
      <trkpt lat="44.19742" lon="6.95528">
        <ele>1338.2103213854</ele>
        <time>2021-11-18T07:44:51Z</time>
      </trkpt>
      <trkpt lat="44.19742" lon="6.95529">
        <ele>1338.2103176974</ele>
        <time>2021-11-18T07:44:52Z</time>
      </trkpt>
      <trkpt lat="44.19742" lon="6.9553">
        <ele>1337.2103119977</ele>
        <time>2021-11-18T07:44:53Z</time>
      </trkpt>
      <trkpt lat="44.19742" lon="6.95533">
        <ele>1337.2103054598</ele>
        <time>2021-11-18T07:44:55Z</time>
      </trkpt>
      <trkpt lat="44.19742" lon="6.95535">
        <ele>1337.2103322819</ele>
        <time>2021-11-18T07:44:56Z</time>
      </trkpt>
      <trkpt lat="44.19741" lon="6.95536">
        <ele>1338.210347034</ele>
        <time>2021-11-18T07:44:57Z</time>
      </trkpt>
      <trkpt lat="44.19741" lon="6.95539">
        <ele>1338.210368827</ele>
        <time>2021-11-18T07:44:59Z</time>
      </trkpt>
      <trkpt lat="44.19741" lon="6.9554">
        <ele>1338.2103788853</ele>
        <time>2021-11-18T07:45:00Z</time>
      </trkpt>
      <trkpt lat="44.19741" lon="6.95542">
        <ele>1339.2103793882</ele>
        <time>2021-11-18T07:45:01Z</time>
      </trkpt>
      <trkpt lat="44.19741" lon="6.95543">
        <ele>1339.2103817351</ele>
        <time>2021-11-18T07:45:02Z</time>
      </trkpt>
      <trkpt lat="44.19741" lon="6.95544">
        <ele>1339.2103733532</ele>
        <time>2021-11-18T07:45:03Z</time>
      </trkpt>
      <trkpt lat="44.19741" lon="6.95545">
        <ele>1339.2103711739</ele>
        <time>2021-11-18T07:45:04Z</time>
      </trkpt>
      <trkpt lat="44.19741" lon="6.95546">
        <ele>1339.2103463635</ele>
        <time>2021-11-18T07:45:05Z</time>
      </trkpt>
      <trkpt lat="44.19742" lon="6.95547">
        <ele>1339.2103166915</ele>
        <time>2021-11-18T07:45:06Z</time>
      </trkpt>
      <trkpt lat="44.19742" lon="6.95548">
        <ele>1339.2103259116</ele>
        <time>2021-11-18T07:45:08Z</time>
      </trkpt>
      <trkpt lat="44.19742" lon="6.95551">
        <ele>1340.2103041187</ele>
        <time>2021-11-18T07:45:10Z</time>
      </trkpt>
      <trkpt lat="44.19742" lon="6.95552">
        <ele>1340.2103150152</ele>
        <time>2021-11-18T07:45:11Z</time>
      </trkpt>
      <trkpt lat="44.19742" lon="6.95554">
        <ele>1340.2103302702</ele>
        <time>2021-11-18T07:45:12Z</time>
      </trkpt>
      <trkpt lat="44.19742" lon="6.95555">
        <ele>1340.2103416696</ele>
        <time>2021-11-18T07:45:13Z</time>
      </trkpt>
      <trkpt lat="44.19741" lon="6.95557">
        <ele>1339.2103431784</ele>
        <time>2021-11-18T07:45:14Z</time>
      </trkpt>
      <trkpt lat="44.19741" lon="6.95559">
        <ele>1339.2103527337</ele>
        <time>2021-11-18T07:45:15Z</time>
      </trkpt>
      <trkpt lat="44.19741" lon="6.9556">
        <ele>1340.2103629597</ele>
        <time>2021-11-18T07:45:16Z</time>
      </trkpt>
      <trkpt lat="44.19741" lon="6.95561">
        <ele>1340.2103751972</ele>
        <time>2021-11-18T07:45:17Z</time>
      </trkpt>
      <trkpt lat="44.19741" lon="6.95564">
        <ele>1339.2103808969</ele>
        <time>2021-11-18T07:45:19Z</time>
      </trkpt>
      <trkpt lat="44.19741" lon="6.95564">
        <ele>1339.2103641331</ele>
        <time>2021-11-18T07:45:20Z</time>
      </trkpt>
      <trkpt lat="44.19741" lon="6.95566">
        <ele>1339.2103733532</ele>
        <time>2021-11-18T07:45:21Z</time>
      </trkpt>
      <trkpt lat="44.19741" lon="6.95567">
        <ele>1339.2103703357</ele>
        <time>2021-11-18T07:45:22Z</time>
      </trkpt>
      <trkpt lat="44.1974" lon="6.95568">
        <ele>1339.2104065455</ele>
        <time>2021-11-18T07:45:23Z</time>
      </trkpt>
      <trkpt lat="44.1974" lon="6.95569">
        <ele>1339.2104169391</ele>
        <time>2021-11-18T07:45:24Z</time>
      </trkpt>
      <trkpt lat="44.1974" lon="6.9557">
        <ele>1339.2104207948</ele>
        <time>2021-11-18T07:45:25Z</time>
      </trkpt>
      <trkpt lat="44.19739" lon="6.95571">
        <ele>1339.210425321</ele>
        <time>2021-11-18T07:45:26Z</time>
      </trkpt>
      <trkpt lat="44.19739" lon="6.95572">
        <ele>1339.2104496285</ele>
        <time>2021-11-18T07:45:27Z</time>
      </trkpt>
      <trkpt lat="44.19739" lon="6.95574">
        <ele>1339.2104616985</ele>
        <time>2021-11-18T07:45:29Z</time>
      </trkpt>
      <trkpt lat="44.19738" lon="6.95575">
        <ele>1339.2104675658</ele>
        <time>2021-11-18T07:45:30Z</time>
      </trkpt>
      <trkpt lat="44.19738" lon="6.95576">
        <ele>1340.210482318</ele>
        <time>2021-11-18T07:45:31Z</time>
      </trkpt>
      <trkpt lat="44.19737" lon="6.95577">
        <ele>1340.2105109841</ele>
        <time>2021-11-18T07:45:32Z</time>
      </trkpt>
      <trkpt lat="44.19737" lon="6.95579">
        <ele>1339.2105379738</ele>
        <time>2021-11-18T07:45:34Z</time>
      </trkpt>
      <trkpt lat="44.19737" lon="6.95579">
        <ele>1339.2105379738</ele>
        <time>2021-11-18T07:45:38Z</time>
      </trkpt>
      <trkpt lat="44.19735" lon="6.95582">
        <ele>1340.2105840743</ele>
        <time>2021-11-18T07:45:39Z</time>
      </trkpt>
      <trkpt lat="44.19735" lon="6.95583">
        <ele>1340.2106033526</ele>
        <time>2021-11-18T07:45:40Z</time>
      </trkpt>
      <trkpt lat="44.19735" lon="6.95584">
        <ele>1340.2106025144</ele>
        <time>2021-11-18T07:45:41Z</time>
      </trkpt>
      <trkpt lat="44.19735" lon="6.95585">
        <ele>1340.2106139138</ele>
        <time>2021-11-18T07:45:42Z</time>
      </trkpt>
      <trkpt lat="44.19734" lon="6.95586">
        <ele>1340.2106464356</ele>
        <time>2021-11-18T07:45:43Z</time>
      </trkpt>
      <trkpt lat="44.19734" lon="6.95586">
        <ele>1340.2106464356</ele>
        <time>2021-11-18T07:45:44Z</time>
      </trkpt>
      <trkpt lat="44.19733" lon="6.95587">
        <ele>1340.2106868364</ele>
        <time>2021-11-18T07:45:45Z</time>
      </trkpt>
      <trkpt lat="44.19732" lon="6.95589">
        <ele>1340.2107066177</ele>
        <time>2021-11-18T07:45:46Z</time>
      </trkpt>
      <trkpt lat="44.19732" lon="6.95591">
        <ele>1339.2107248902</ele>
        <time>2021-11-18T07:45:47Z</time>
      </trkpt>
      <trkpt lat="44.19731" lon="6.95593">
        <ele>1339.2107473537</ele>
        <time>2021-11-18T07:45:48Z</time>
      </trkpt>
      <trkpt lat="44.19731" lon="6.95595">
        <ele>1339.2107481919</ele>
        <time>2021-11-18T07:45:49Z</time>
      </trkpt>
      <trkpt lat="44.19731" lon="6.95596">
        <ele>1338.2107611001</ele>
        <time>2021-11-18T07:45:50Z</time>
      </trkpt>
      <trkpt lat="44.1973" lon="6.95597">
        <ele>1339.2107842341</ele>
        <time>2021-11-18T07:45:51Z</time>
      </trkpt>
      <trkpt lat="44.1973" lon="6.95599">
        <ele>1339.2107946277</ele>
        <time>2021-11-18T07:45:52Z</time>
      </trkpt>
      <trkpt lat="44.1973" lon="6.95601">
        <ele>1339.2108060271</ele>
        <time>2021-11-18T07:45:53Z</time>
      </trkpt>
      <trkpt lat="44.1973" lon="6.95603">
        <ele>1340.2108077034</ele>
        <time>2021-11-18T07:45:54Z</time>
      </trkpt>
      <trkpt lat="44.1973" lon="6.95604">
        <ele>1339.2108191028</ele>
        <time>2021-11-18T07:45:55Z</time>
      </trkpt>
      <trkpt lat="44.1973" lon="6.95606">
        <ele>1339.2108110562</ele>
        <time>2021-11-18T07:45:56Z</time>
      </trkpt>
      <trkpt lat="44.19729" lon="6.95608">
        <ele>1339.2108274847</ele>
        <time>2021-11-18T07:45:57Z</time>
      </trkpt>
      <trkpt lat="44.1973" lon="6.95609">
        <ele>1339.2108182646</ele>
        <time>2021-11-18T07:45:58Z</time>
      </trkpt>
      <trkpt lat="44.1973" lon="6.95611">
        <ele>1340.2108009979</ele>
        <time>2021-11-18T07:46:00Z</time>
      </trkpt>
      <trkpt lat="44.1973" lon="6.95612">
        <ele>1340.2107981481</ele>
        <time>2021-11-18T07:46:01Z</time>
      </trkpt>
      <trkpt lat="44.1973" lon="6.95614">
        <ele>1340.2107978128</ele>
        <time>2021-11-18T07:46:02Z</time>
      </trkpt>
      <trkpt lat="44.19729" lon="6.95618">
        <ele>1340.2108333521</ele>
        <time>2021-11-18T07:46:04Z</time>
      </trkpt>
      <trkpt lat="44.19729" lon="6.95619">
        <ele>1340.2108467631</ele>
        <time>2021-11-18T07:46:05Z</time>
      </trkpt>
      <trkpt lat="44.19728" lon="6.95621">
        <ele>1340.2108926959</ele>
        <time>2021-11-18T07:46:06Z</time>
      </trkpt>
      <trkpt lat="44.19726" lon="6.95622">
        <ele>1340.2109512016</ele>
        <time>2021-11-18T07:46:08Z</time>
      </trkpt>
      <trkpt lat="44.19725" lon="6.95625">
        <ele>1341.2109921053</ele>
        <time>2021-11-18T07:46:10Z</time>
      </trkpt>
      <trkpt lat="44.19725" lon="6.95626">
        <ele>1341.2110206038</ele>
        <time>2021-11-18T07:46:11Z</time>
      </trkpt>
      <trkpt lat="44.19724" lon="6.95628">
        <ele>1341.2110380381</ele>
        <time>2021-11-18T07:46:12Z</time>
      </trkpt>
      <trkpt lat="44.19723" lon="6.95629">
        <ele>1341.2110772654</ele>
        <time>2021-11-18T07:46:13Z</time>
      </trkpt>
      <trkpt lat="44.19721" lon="6.95632">
        <ele>1341.2111565582</ele>
        <time>2021-11-18T07:46:15Z</time>
      </trkpt>
      <trkpt lat="44.19721" lon="6.95633">
        <ele>1341.21116779</ele>
        <time>2021-11-18T07:46:16Z</time>
      </trkpt>
      <trkpt lat="44.19721" lon="6.95634">
        <ele>1342.211181704</ele>
        <time>2021-11-18T07:46:17Z</time>
      </trkpt>
      <trkpt lat="44.1972" lon="6.95634">
        <ele>1342.2112107053</ele>
        <time>2021-11-18T07:46:18Z</time>
      </trkpt>
      <trkpt lat="44.19719" lon="6.95635">
        <ele>1342.2112502679</ele>
        <time>2021-11-18T07:46:19Z</time>
      </trkpt>
      <trkpt lat="44.19718" lon="6.95636">
        <ele>1342.2112940215</ele>
        <time>2021-11-18T07:46:20Z</time>
      </trkpt>
      <trkpt lat="44.19717" lon="6.95637">
        <ele>1342.2113307342</ele>
        <time>2021-11-18T07:46:21Z</time>
      </trkpt>
      <trkpt lat="44.19716" lon="6.95638">
        <ele>1343.211368788</ele>
        <time>2021-11-18T07:46:22Z</time>
      </trkpt>
      <trkpt lat="44.19714" lon="6.95639">
        <ele>1343.2114346698</ele>
        <time>2021-11-18T07:46:24Z</time>
      </trkpt>
      <trkpt lat="44.19713" lon="6.9564">
        <ele>1343.2114737295</ele>
        <time>2021-11-18T07:46:25Z</time>
      </trkpt>
      <trkpt lat="44.19713" lon="6.95641">
        <ele>1344.211490158</ele>
        <time>2021-11-18T07:46:26Z</time>
      </trkpt>
      <trkpt lat="44.19712" lon="6.95644">
        <ele>1344.2115082629</ele>
        <time>2021-11-18T07:46:28Z</time>
      </trkpt>
      <trkpt lat="44.19711" lon="6.95646">
        <ele>1343.2115716301</ele>
        <time>2021-11-18T07:46:30Z</time>
      </trkpt>
      <trkpt lat="44.19709" lon="6.95647">
        <ele>1344.2116244361</ele>
        <time>2021-11-18T07:46:31Z</time>
      </trkpt>
      <trkpt lat="44.19709" lon="6.95648">
        <ele>1344.2116246037</ele>
        <time>2021-11-18T07:46:32Z</time>
      </trkpt>
      <trkpt lat="44.19709" lon="6.95649">
        <ele>1344.2116351649</ele>
        <time>2021-11-18T07:46:33Z</time>
      </trkpt>
      <trkpt lat="44.19709" lon="6.9565">
        <ele>1344.2116430439</ele>
        <time>2021-11-18T07:46:34Z</time>
      </trkpt>
      <trkpt lat="44.19708" lon="6.95651">
        <ele>1344.2116696984</ele>
        <time>2021-11-18T07:46:35Z</time>
      </trkpt>
      <trkpt lat="44.19708" lon="6.95653">
        <ele>1345.2116785832</ele>
        <time>2021-11-18T07:46:36Z</time>
      </trkpt>
      <trkpt lat="44.19708" lon="6.95656">
        <ele>1346.2116733864</ele>
        <time>2021-11-18T07:46:38Z</time>
      </trkpt>
      <trkpt lat="44.19709" lon="6.95658">
        <ele>1346.2116586342</ele>
        <time>2021-11-18T07:46:40Z</time>
      </trkpt>
      <trkpt lat="44.19709" lon="6.95659">
        <ele>1346.211658299</ele>
        <time>2021-11-18T07:46:41Z</time>
      </trkpt>
      <trkpt lat="44.19709" lon="6.9566">
        <ele>1346.2116477378</ele>
        <time>2021-11-18T07:46:42Z</time>
      </trkpt>
      <trkpt lat="44.19709" lon="6.95662">
        <ele>1346.2116428763</ele>
        <time>2021-11-18T07:46:43Z</time>
      </trkpt>
      <trkpt lat="44.19708" lon="6.95663">
        <ele>1346.2116634957</ele>
        <time>2021-11-18T07:46:44Z</time>
      </trkpt>
      <trkpt lat="44.19708" lon="6.95664">
        <ele>1346.2116804272</ele>
        <time>2021-11-18T07:46:45Z</time>
      </trkpt>
      <trkpt lat="44.19708" lon="6.95666">
        <ele>1346.2116847858</ele>
        <time>2021-11-18T07:46:46Z</time>
      </trkpt>
      <trkpt lat="44.19708" lon="6.95667">
        <ele>1347.211669866</ele>
        <time>2021-11-18T07:46:47Z</time>
      </trkpt>
      <trkpt lat="44.19708" lon="6.95667">
        <ele>1347.211669866</ele>
        <time>2021-11-18T07:46:49Z</time>
      </trkpt>
      <trkpt lat="44.1971" lon="6.95671">
        <ele>1348.2116014697</ele>
        <time>2021-11-18T07:46:50Z</time>
      </trkpt>
      <trkpt lat="44.1971" lon="6.95672">
        <ele>1348.2115959376</ele>
        <time>2021-11-18T07:46:51Z</time>
      </trkpt>
      <trkpt lat="44.19711" lon="6.95674">
        <ele>1348.2115783356</ele>
        <time>2021-11-18T07:46:52Z</time>
      </trkpt>
      <trkpt lat="44.19711" lon="6.95675">
        <ele>1348.2115691155</ele>
        <time>2021-11-18T07:46:53Z</time>
      </trkpt>
      <trkpt lat="44.19711" lon="6.95675">
        <ele>1348.2115691155</ele>
        <time>2021-11-18T07:46:55Z</time>
      </trkpt>
      <trkpt lat="44.19713" lon="6.95679">
        <ele>1350.2114951871</ele>
        <time>2021-11-18T07:46:56Z</time>
      </trkpt>
      <trkpt lat="44.19713" lon="6.95681">
        <ele>1350.2114868052</ele>
        <time>2021-11-18T07:46:57Z</time>
      </trkpt>
      <trkpt lat="44.19714" lon="6.95683">
        <ele>1350.211451266</ele>
        <time>2021-11-18T07:46:59Z</time>
      </trkpt>
      <trkpt lat="44.19714" lon="6.95684">
        <ele>1350.2114546187</ele>
        <time>2021-11-18T07:47:00Z</time>
      </trkpt>
      <trkpt lat="44.19713" lon="6.95686">
        <ele>1351.2114623301</ele>
        <time>2021-11-18T07:47:01Z</time>
      </trkpt>
      <trkpt lat="44.19714" lon="6.95687">
        <ele>1351.2114554569</ele>
        <time>2021-11-18T07:47:02Z</time>
      </trkpt>
      <trkpt lat="44.19714" lon="6.95688">
        <ele>1351.2114247791</ele>
        <time>2021-11-18T07:47:03Z</time>
      </trkpt>
      <trkpt lat="44.19715" lon="6.9569">
        <ele>1351.2113979571</ele>
        <time>2021-11-18T07:47:05Z</time>
      </trkpt>
      <trkpt lat="44.19716" lon="6.95691">
        <ele>1351.2113622501</ele>
        <time>2021-11-18T07:47:06Z</time>
      </trkpt>
      <trkpt lat="44.19717" lon="6.95692">
        <ele>1351.2113402896</ele>
        <time>2021-11-18T07:47:09Z</time>
      </trkpt>
      <trkpt lat="44.19717" lon="6.95694">
        <ele>1351.2113404572</ele>
        <time>2021-11-18T07:47:10Z</time>
      </trkpt>
      <trkpt lat="44.19716" lon="6.95696">
        <ele>1351.211349342</ele>
        <time>2021-11-18T07:47:11Z</time>
      </trkpt>
      <trkpt lat="44.19716" lon="6.95699">
        <ele>1350.2113756612</ele>
        <time>2021-11-18T07:47:13Z</time>
      </trkpt>
      <trkpt lat="44.19715" lon="6.95701">
        <ele>1350.2114029862</ele>
        <time>2021-11-18T07:47:15Z</time>
      </trkpt>
      <trkpt lat="44.19716" lon="6.95703">
        <ele>1350.2113778405</ele>
        <time>2021-11-18T07:47:16Z</time>
      </trkpt>
      <trkpt lat="44.19716" lon="6.95703">
        <ele>1351.2113501802</ele>
        <time>2021-11-18T07:47:17Z</time>
      </trkpt>
      <trkpt lat="44.19717" lon="6.95704">
        <ele>1351.2113314047</ele>
        <time>2021-11-18T07:47:18Z</time>
      </trkpt>
      <trkpt lat="44.19717" lon="6.95705">
        <ele>1351.2113257051</ele>
        <time>2021-11-18T07:47:19Z</time>
      </trkpt>
      <trkpt lat="44.19717" lon="6.95705">
        <ele>1352.2113076001</ele>
        <time>2021-11-18T07:47:20Z</time>
      </trkpt>
      <trkpt lat="44.19718" lon="6.95707">
        <ele>1353.2112779282</ele>
        <time>2021-11-18T07:47:21Z</time>
      </trkpt>
      <trkpt lat="44.19719" lon="6.95708">
        <ele>1354.2112484239</ele>
        <time>2021-11-18T07:47:22Z</time>
      </trkpt>
      <trkpt lat="44.19718" lon="6.95711">
        <ele>1354.2112933509</ele>
        <time>2021-11-18T07:47:24Z</time>
      </trkpt>
      <trkpt lat="44.19718" lon="6.95712">
        <ele>1354.2112884894</ele>
        <time>2021-11-18T07:47:25Z</time>
      </trkpt>
      <trkpt lat="44.19718" lon="6.95713">
        <ele>1354.21127709</ele>
        <time>2021-11-18T07:47:27Z</time>
      </trkpt>
      <trkpt lat="44.19719" lon="6.95715">
        <ele>1354.2112390362</ele>
        <time>2021-11-18T07:47:28Z</time>
      </trkpt>
      <trkpt lat="44.19719" lon="6.95717">
        <ele>1355.21124373</ele>
        <time>2021-11-18T07:47:29Z</time>
      </trkpt>
      <trkpt lat="44.19719" lon="6.95718">
        <ele>1355.2112544589</ele>
        <time>2021-11-18T07:47:30Z</time>
      </trkpt>
      <trkpt lat="44.19719" lon="6.9572">
        <ele>1356.2112380303</ele>
        <time>2021-11-18T07:47:31Z</time>
      </trkpt>
      <trkpt lat="44.19719" lon="6.95721">
        <ele>1356.2112283073</ele>
        <time>2021-11-18T07:47:32Z</time>
      </trkpt>
      <trkpt lat="44.19719" lon="6.95723">
        <ele>1357.2112264633</ele>
        <time>2021-11-18T07:47:34Z</time>
      </trkpt>
      <trkpt lat="44.1972" lon="6.95725">
        <ele>1357.2112150639</ele>
        <time>2021-11-18T07:47:35Z</time>
      </trkpt>
      <trkpt lat="44.1972" lon="6.95725">
        <ele>1357.2112150639</ele>
        <time>2021-11-18T07:47:36Z</time>
      </trkpt>
      <trkpt lat="44.19719" lon="6.95726">
        <ele>1357.2112611644</ele>
        <time>2021-11-18T07:47:37Z</time>
      </trkpt>
      <trkpt lat="44.19719" lon="6.95728">
        <ele>1357.2112489268</ele>
        <time>2021-11-18T07:47:39Z</time>
      </trkpt>
      <trkpt lat="44.19719" lon="6.9573">
        <ele>1357.2112385333</ele>
        <time>2021-11-18T07:47:40Z</time>
      </trkpt>
      <trkpt lat="44.19719" lon="6.95731">
        <ele>1358.2112584822</ele>
        <time>2021-11-18T07:47:41Z</time>
      </trkpt>
      <trkpt lat="44.19718" lon="6.95733">
        <ele>1358.2113017328</ele>
        <time>2021-11-18T07:47:43Z</time>
      </trkpt>
      <trkpt lat="44.19718" lon="6.95734">
        <ele>1358.2112935185</ele>
        <time>2021-11-18T07:47:45Z</time>
      </trkpt>
      <trkpt lat="44.19718" lon="6.95734">
        <ele>1358.2112881541</ele>
        <time>2021-11-18T07:47:47Z</time>
      </trkpt>
      <trkpt lat="44.19718" lon="6.95737">
        <ele>1359.2112893276</ele>
        <time>2021-11-18T07:47:48Z</time>
      </trkpt>
      <trkpt lat="44.19717" lon="6.95738">
        <ele>1359.2113131322</ele>
        <time>2021-11-18T07:47:49Z</time>
      </trkpt>
      <trkpt lat="44.19717" lon="6.95739">
        <ele>1359.2113022357</ele>
        <time>2021-11-18T07:47:50Z</time>
      </trkpt>
      <trkpt lat="44.19718" lon="6.9574">
        <ele>1359.211291004</ele>
        <time>2021-11-18T07:47:51Z</time>
      </trkpt>
      <trkpt lat="44.19718" lon="6.95741">
        <ele>1359.2112930156</ele>
        <time>2021-11-18T07:47:52Z</time>
      </trkpt>
      <trkpt lat="44.19718" lon="6.95742">
        <ele>1359.2112759165</ele>
        <time>2021-11-18T07:47:54Z</time>
      </trkpt>
      <trkpt lat="44.19717" lon="6.95745">
        <ele>1359.2113030739</ele>
        <time>2021-11-18T07:47:55Z</time>
      </trkpt>
      <trkpt lat="44.19717" lon="6.95746">
        <ele>1360.2113260403</ele>
        <time>2021-11-18T07:47:56Z</time>
      </trkpt>
      <trkpt lat="44.19716" lon="6.95747">
        <ele>1360.2113634236</ele>
        <time>2021-11-18T07:47:57Z</time>
      </trkpt>
      <trkpt lat="44.19715" lon="6.95747">
        <ele>1361.2114078477</ele>
        <time>2021-11-18T07:47:58Z</time>
      </trkpt>
      <trkpt lat="44.19714" lon="6.95748">
        <ele>1361.211435508</ele>
        <time>2021-11-18T07:47:59Z</time>
      </trkpt>
      <trkpt lat="44.19714" lon="6.95749">
        <ele>1361.2114413753</ele>
        <time>2021-11-18T07:48:00Z</time>
      </trkpt>
      <trkpt lat="44.19713" lon="6.95749">
        <ele>1361.2114775851</ele>
        <time>2021-11-18T07:48:01Z</time>
      </trkpt>
      <trkpt lat="44.19713" lon="6.95751">
        <ele>1361.2114878111</ele>
        <time>2021-11-18T07:48:03Z</time>
      </trkpt>
      <trkpt lat="44.19713" lon="6.95752">
        <ele>1361.2114982046</ele>
        <time>2021-11-18T07:48:06Z</time>
      </trkpt>
      <trkpt lat="44.19712" lon="6.95756">
        <ele>1361.2115412876</ele>
        <time>2021-11-18T07:48:07Z</time>
      </trkpt>
      <trkpt lat="44.19712" lon="6.95757">
        <ele>1362.2115419582</ele>
        <time>2021-11-18T07:48:08Z</time>
      </trkpt>
      <trkpt lat="44.19711" lon="6.9576">
        <ele>1362.2115540281</ele>
        <time>2021-11-18T07:48:10Z</time>
      </trkpt>
      <trkpt lat="44.19711" lon="6.95762">
        <ele>1361.2115776651</ele>
        <time>2021-11-18T07:48:11Z</time>
      </trkpt>
      <trkpt lat="44.19711" lon="6.95763">
        <ele>1361.2115729712</ele>
        <time>2021-11-18T07:48:12Z</time>
      </trkpt>
      <trkpt lat="44.19711" lon="6.95765">
        <ele>1361.2115706243</ele>
        <time>2021-11-18T07:48:14Z</time>
      </trkpt>
      <trkpt lat="44.19711" lon="6.95766">
        <ele>1361.2115669362</ele>
        <time>2021-11-18T07:48:15Z</time>
      </trkpt>
      <trkpt lat="44.19711" lon="6.95768">
        <ele>1362.211554531</ele>
        <time>2021-11-18T07:48:16Z</time>
      </trkpt>
      <trkpt lat="44.19712" lon="6.95768">
        <ele>1362.2115412876</ele>
        <time>2021-11-18T07:48:17Z</time>
      </trkpt>
      <trkpt lat="44.19712" lon="6.95769">
        <ele>1362.2115318999</ele>
        <time>2021-11-18T07:48:20Z</time>
      </trkpt>
      <trkpt lat="44.19711" lon="6.95773">
        <ele>1362.211550843</ele>
        <time>2021-11-18T07:48:21Z</time>
      </trkpt>
      <trkpt lat="44.19711" lon="6.95775">
        <ele>1362.2115771621</ele>
        <time>2021-11-18T07:48:22Z</time>
      </trkpt>
      <trkpt lat="44.1971" lon="6.95777">
        <ele>1362.21161706</ele>
        <time>2021-11-18T07:48:23Z</time>
      </trkpt>
      <trkpt lat="44.19709" lon="6.95779">
        <ele>1362.2116584666</ele>
        <time>2021-11-18T07:48:24Z</time>
      </trkpt>
      <trkpt lat="44.19708" lon="6.9578">
        <ele>1362.2116629928</ele>
        <time>2021-11-18T07:48:25Z</time>
      </trkpt>
      <trkpt lat="44.19708" lon="6.95781">
        <ele>1362.2116839476</ele>
        <time>2021-11-18T07:48:26Z</time>
      </trkpt>
      <trkpt lat="44.19707" lon="6.95783">
        <ele>1363.2117052376</ele>
        <time>2021-11-18T07:48:27Z</time>
      </trkpt>
      <trkpt lat="44.19707" lon="6.95784">
        <ele>1362.2117141224</ele>
        <time>2021-11-18T07:48:28Z</time>
      </trkpt>
      <trkpt lat="44.19707" lon="6.95785">
        <ele>1362.2117233425</ele>
        <time>2021-11-18T07:48:29Z</time>
      </trkpt>
      <trkpt lat="44.19707" lon="6.95786">
        <ele>1363.2117248513</ele>
        <time>2021-11-18T07:48:30Z</time>
      </trkpt>
      <trkpt lat="44.19707" lon="6.95788">
        <ele>1363.2117345743</ele>
        <time>2021-11-18T07:48:31Z</time>
      </trkpt>
      <trkpt lat="44.19707" lon="6.9579">
        <ele>1363.2117313892</ele>
        <time>2021-11-18T07:48:32Z</time>
      </trkpt>
      <trkpt lat="44.19707" lon="6.9579">
        <ele>1365.2117409445</ele>
        <time>2021-11-18T07:48:43Z</time>
      </trkpt>
      <trkpt lat="44.19707" lon="6.95792">
        <ele>1365.2117396034</ele>
        <time>2021-11-18T07:48:45Z</time>
      </trkpt>
      <trkpt lat="44.19706" lon="6.95793">
        <ele>1365.2117513381</ele>
        <time>2021-11-18T07:48:46Z</time>
      </trkpt>
      <trkpt lat="44.19706" lon="6.95794">
        <ele>1365.2117818482</ele>
        <time>2021-11-18T07:48:47Z</time>
      </trkpt>
      <trkpt lat="44.19705" lon="6.95794">
        <ele>1365.2118076645</ele>
        <time>2021-11-18T07:48:48Z</time>
      </trkpt>
      <trkpt lat="44.19704" lon="6.95797">
        <ele>1366.2118616439</ele>
        <time>2021-11-18T07:48:50Z</time>
      </trkpt>
      <trkpt lat="44.19703" lon="6.95799">
        <ele>1366.2118785754</ele>
        <time>2021-11-18T07:48:51Z</time>
      </trkpt>
      <trkpt lat="44.19703" lon="6.958">
        <ele>1366.2118936628</ele>
        <time>2021-11-18T07:48:52Z</time>
      </trkpt>
      <trkpt lat="44.19702" lon="6.95801">
        <ele>1366.2119152881</ele>
        <time>2021-11-18T07:48:53Z</time>
      </trkpt>
      <trkpt lat="44.19702" lon="6.95801">
        <ele>1366.2119365782</ele>
        <time>2021-11-18T07:48:54Z</time>
      </trkpt>
      <trkpt lat="44.197" lon="6.95802">
        <ele>1367.2119868696</ele>
        <time>2021-11-18T07:48:55Z</time>
      </trkpt>
      <trkpt lat="44.19699" lon="6.95803">
        <ele>1367.2120296173</ele>
        <time>2021-11-18T07:48:56Z</time>
      </trkpt>
      <trkpt lat="44.19698" lon="6.95804">
        <ele>1366.2120710239</ele>
        <time>2021-11-18T07:48:57Z</time>
      </trkpt>
      <trkpt lat="44.19697" lon="6.95806">
        <ele>1367.2121127658</ele>
        <time>2021-11-18T07:48:59Z</time>
      </trkpt>
      <trkpt lat="44.19697" lon="6.95808">
        <ele>1367.212128859</ele>
        <time>2021-11-18T07:49:00Z</time>
      </trkpt>
      <trkpt lat="44.19696" lon="6.9581">
        <ele>1367.2121570222</ele>
        <time>2021-11-18T07:49:01Z</time>
      </trkpt>
      <trkpt lat="44.19696" lon="6.95811">
        <ele>1367.2121643983</ele>
        <time>2021-11-18T07:49:02Z</time>
      </trkpt>
      <trkpt lat="44.19696" lon="6.95812">
        <ele>1367.2121570222</ele>
        <time>2021-11-18T07:49:03Z</time>
      </trkpt>
      <trkpt lat="44.19696" lon="6.95814">
        <ele>1367.2121757977</ele>
        <time>2021-11-18T07:49:04Z</time>
      </trkpt>
      <trkpt lat="44.19695" lon="6.95814">
        <ele>1367.2122148573</ele>
        <time>2021-11-18T07:49:05Z</time>
      </trkpt>
      <trkpt lat="44.19694" lon="6.95815">
        <ele>1367.2122445293</ele>
        <time>2021-11-18T07:49:06Z</time>
      </trkpt>
      <trkpt lat="44.19693" lon="6.95815">
        <ele>1367.2122755423</ele>
        <time>2021-11-18T07:49:07Z</time>
      </trkpt>
      <trkpt lat="44.19692" lon="6.95817">
        <ele>1366.2123171166</ele>
        <time>2021-11-18T07:49:09Z</time>
      </trkpt>
      <trkpt lat="44.19692" lon="6.95818">
        <ele>1367.2123315334</ele>
        <time>2021-11-18T07:49:10Z</time>
      </trkpt>
      <trkpt lat="44.19692" lon="6.95818">
        <ele>1368.2123290189</ele>
        <time>2021-11-18T07:49:11Z</time>
      </trkpt>
      <trkpt lat="44.19692" lon="6.95819">
        <ele>1369.2123387419</ele>
        <time>2021-11-18T07:49:14Z</time>
      </trkpt>
      <trkpt lat="44.19691" lon="6.95821">
        <ele>1369.2123610377</ele>
        <time>2021-11-18T07:49:15Z</time>
      </trkpt>
      <trkpt lat="44.19691" lon="6.95822">
        <ele>1369.2123697549</ele>
        <time>2021-11-18T07:49:16Z</time>
      </trkpt>
      <trkpt lat="44.1969" lon="6.95823">
        <ele>1369.2123843394</ele>
        <time>2021-11-18T07:49:17Z</time>
      </trkpt>
      <trkpt lat="44.1969" lon="6.95825">
        <ele>1369.2124098204</ele>
        <time>2021-11-18T07:49:19Z</time>
      </trkpt>
      <trkpt lat="44.19689" lon="6.95826">
        <ele>1369.2124321163</ele>
        <time>2021-11-18T07:49:20Z</time>
      </trkpt>
      <trkpt lat="44.19689" lon="6.95828">
        <ele>1369.2124545798</ele>
        <time>2021-11-18T07:49:21Z</time>
      </trkpt>
      <trkpt lat="44.19688" lon="6.95829">
        <ele>1370.212465141</ele>
        <time>2021-11-18T07:49:22Z</time>
      </trkpt>
      <trkpt lat="44.19688" lon="6.9583">
        <ele>1370.2124745287</ele>
        <time>2021-11-18T07:49:23Z</time>
      </trkpt>
      <trkpt lat="44.19688" lon="6.9583">
        <ele>1370.2124917954</ele>
        <time>2021-11-18T07:49:24Z</time>
      </trkpt>
      <trkpt lat="44.19687" lon="6.95831">
        <ele>1369.2125218026</ele>
        <time>2021-11-18T07:49:25Z</time>
      </trkpt>
      <trkpt lat="44.19687" lon="6.95831">
        <ele>1369.2125218026</ele>
        <time>2021-11-18T07:49:27Z</time>
      </trkpt>
      <trkpt lat="44.19685" lon="6.95834">
        <ele>1370.2126111537</ele>
        <time>2021-11-18T07:49:28Z</time>
      </trkpt>
      <trkpt lat="44.19684" lon="6.95837">
        <ele>1370.2126295939</ele>
        <time>2021-11-18T07:49:29Z</time>
      </trkpt>
      <trkpt lat="44.19684" lon="6.95839">
        <ele>1371.2126401551</ele>
        <time>2021-11-18T07:49:30Z</time>
      </trkpt>
      <trkpt lat="44.19683" lon="6.9584">
        <ele>1371.2126644626</ele>
        <time>2021-11-18T07:49:31Z</time>
      </trkpt>
      <trkpt lat="44.19683" lon="6.9584">
        <ele>1371.2126991637</ele>
        <time>2021-11-18T07:49:32Z</time>
      </trkpt>
      <trkpt lat="44.19682" lon="6.95841">
        <ele>1371.2127367146</ele>
        <time>2021-11-18T07:49:34Z</time>
      </trkpt>
      <trkpt lat="44.1968" lon="6.95842">
        <ele>1371.2127856649</ele>
        <time>2021-11-18T07:49:35Z</time>
      </trkpt>
      <trkpt lat="44.19679" lon="6.95842">
        <ele>1371.212842159</ele>
        <time>2021-11-18T07:49:36Z</time>
      </trkpt>
      <trkpt lat="44.19678" lon="6.95843">
        <ele>1371.2128678076</ele>
        <time>2021-11-18T07:49:37Z</time>
      </trkpt>
      <trkpt lat="44.19678" lon="6.95845">
        <ele>1371.2128917798</ele>
        <time>2021-11-18T07:49:39Z</time>
      </trkpt>
      <trkpt lat="44.19677" lon="6.95846">
        <ele>1370.2129132375</ele>
        <time>2021-11-18T07:49:40Z</time>
      </trkpt>
      <trkpt lat="44.19677" lon="6.95847">
        <ele>1370.2129258104</ele>
        <time>2021-11-18T07:49:41Z</time>
      </trkpt>
      <trkpt lat="44.19677" lon="6.95849">
        <ele>1370.2129400596</ele>
        <time>2021-11-18T07:49:43Z</time>
      </trkpt>
      <trkpt lat="44.19675" lon="6.95853">
        <ele>1370.2129828073</ele>
        <time>2021-11-18T07:49:45Z</time>
      </trkpt>
      <trkpt lat="44.19675" lon="6.95854">
        <ele>1370.2130039297</ele>
        <time>2021-11-18T07:49:46Z</time>
      </trkpt>
      <trkpt lat="44.19674" lon="6.95856">
        <ele>1370.213029746</ele>
        <time>2021-11-18T07:49:47Z</time>
      </trkpt>
      <trkpt lat="44.19674" lon="6.95859">
        <ele>1370.2130377926</ele>
        <time>2021-11-18T07:49:49Z</time>
      </trkpt>
      <trkpt lat="44.19674" lon="6.9586">
        <ele>1370.2130540535</ele>
        <time>2021-11-18T07:49:50Z</time>
      </trkpt>
      <trkpt lat="44.19673" lon="6.95861">
        <ele>1370.2130639441</ele>
        <time>2021-11-18T07:49:51Z</time>
      </trkpt>
      <trkpt lat="44.19673" lon="6.95863">
        <ele>1370.2130900957</ele>
        <time>2021-11-18T07:49:52Z</time>
      </trkpt>
      <trkpt lat="44.19672" lon="6.95864">
        <ele>1369.2131211087</ele>
        <time>2021-11-18T07:49:54Z</time>
      </trkpt>
      <trkpt lat="44.19672" lon="6.95865">
        <ele>1369.2131343521</ele>
        <time>2021-11-18T07:49:55Z</time>
      </trkpt>
      <trkpt lat="44.19671" lon="6.95867">
        <ele>1368.2131608389</ele>
        <time>2021-11-18T07:49:56Z</time>
      </trkpt>
      <trkpt lat="44.19671" lon="6.95869">
        <ele>1368.2131769322</ele>
        <time>2021-11-18T07:49:57Z</time>
      </trkpt>
      <trkpt lat="44.1967" lon="6.95871">
        <ele>1368.213219177</ele>
        <time>2021-11-18T07:49:59Z</time>
      </trkpt>
      <trkpt lat="44.19669" lon="6.95871">
        <ele>1368.2132459991</ele>
        <time>2021-11-18T07:50:00Z</time>
      </trkpt>
      <trkpt lat="44.19668" lon="6.95872">
        <ele>1369.2132937759</ele>
        <time>2021-11-18T07:50:01Z</time>
      </trkpt>
      <trkpt lat="44.19667" lon="6.95872">
        <ele>1369.2133226097</ele>
        <time>2021-11-18T07:50:02Z</time>
      </trkpt>
      <trkpt lat="44.19666" lon="6.95873">
        <ele>1369.2133593224</ele>
        <time>2021-11-18T07:50:03Z</time>
      </trkpt>
      <trkpt lat="44.19665" lon="6.95873">
        <ele>1369.2133918442</ele>
        <time>2021-11-18T07:50:04Z</time>
      </trkpt>
      <trkpt lat="44.19665" lon="6.95874">
        <ele>1369.2134082727</ele>
        <time>2021-11-18T07:50:05Z</time>
      </trkpt>
      <trkpt lat="44.19664" lon="6.95875">
        <ele>1369.2134228572</ele>
        <time>2021-11-18T07:50:06Z</time>
      </trkpt>
      <trkpt lat="44.19663" lon="6.95876">
        <ele>1368.2134624198</ele>
        <time>2021-11-18T07:50:07Z</time>
      </trkpt>
      <trkpt lat="44.19663" lon="6.95877">
        <ele>1369.2134936005</ele>
        <time>2021-11-18T07:50:08Z</time>
      </trkpt>
      <trkpt lat="44.19662" lon="6.95879">
        <ele>1368.213522099</ele>
        <time>2021-11-18T07:50:09Z</time>
      </trkpt>
      <trkpt lat="44.19661" lon="6.95881">
        <ele>1369.2135487534</ele>
        <time>2021-11-18T07:50:10Z</time>
      </trkpt>
      <trkpt lat="44.19661" lon="6.95883">
        <ele>1368.2135799341</ele>
        <time>2021-11-18T07:50:11Z</time>
      </trkpt>
      <trkpt lat="44.1966" lon="6.95885">
        <ele>1368.2136062533</ele>
        <time>2021-11-18T07:50:12Z</time>
      </trkpt>
      <trkpt lat="44.19659" lon="6.95886">
        <ele>1368.2136233523</ele>
        <time>2021-11-18T07:50:13Z</time>
      </trkpt>
      <trkpt lat="44.19659" lon="6.95888">
        <ele>1368.2136609033</ele>
        <time>2021-11-18T07:50:15Z</time>
      </trkpt>
      <trkpt lat="44.19658" lon="6.95889">
        <ele>1368.2136741467</ele>
        <time>2021-11-18T07:50:16Z</time>
      </trkpt>
      <trkpt lat="44.19658" lon="6.9589">
        <ele>1368.2136793435</ele>
        <time>2021-11-18T07:50:17Z</time>
      </trkpt>
      <trkpt lat="44.19658" lon="6.9589">
        <ele>1368.2136934251</ele>
        <time>2021-11-18T07:50:18Z</time>
      </trkpt>
      <trkpt lat="44.19657" lon="6.95891">
        <ele>1368.2137190737</ele>
        <time>2021-11-18T07:50:21Z</time>
      </trkpt>
      <trkpt lat="44.19656" lon="6.95895">
        <ele>1367.2137807645</ele>
        <time>2021-11-18T07:50:22Z</time>
      </trkpt>
      <trkpt lat="44.19655" lon="6.95896">
        <ele>1367.2137827761</ele>
        <time>2021-11-18T07:50:23Z</time>
      </trkpt>
      <trkpt lat="44.19655" lon="6.95898">
        <ele>1367.2138018869</ele>
        <time>2021-11-18T07:50:25Z</time>
      </trkpt>
      <trkpt lat="44.19655" lon="6.95898">
        <ele>1367.2138018869</ele>
        <time>2021-11-18T07:50:27Z</time>
      </trkpt>
      <trkpt lat="44.19654" lon="6.95901">
        <ele>1367.2138617337</ele>
        <time>2021-11-18T07:50:29Z</time>
      </trkpt>
      <trkpt lat="44.19653" lon="6.95902">
        <ele>1367.2138778269</ele>
        <time>2021-11-18T07:50:30Z</time>
      </trkpt>
      <trkpt lat="44.19652" lon="6.95904">
        <ele>1367.2139048167</ele>
        <time>2021-11-18T07:50:31Z</time>
      </trkpt>
      <trkpt lat="44.19651" lon="6.95907">
        <ele>1366.2139561139</ele>
        <time>2021-11-18T07:50:33Z</time>
      </trkpt>
      <trkpt lat="44.19651" lon="6.95909">
        <ele>1366.2139680162</ele>
        <time>2021-11-18T07:50:35Z</time>
      </trkpt>
      <trkpt lat="44.19651" lon="6.95909">
        <ele>1365.2139517553</ele>
        <time>2021-11-18T07:50:36Z</time>
      </trkpt>
      <trkpt lat="44.19651" lon="6.95911">
        <ele>1366.2139421999</ele>
        <time>2021-11-18T07:50:37Z</time>
      </trkpt>
      <trkpt lat="44.19652" lon="6.95913">
        <ele>1366.2139249332</ele>
        <time>2021-11-18T07:50:39Z</time>
      </trkpt>
      <trkpt lat="44.19652" lon="6.95914">
        <ele>1366.2139281183</ele>
        <time>2021-11-18T07:50:40Z</time>
      </trkpt>
      <trkpt lat="44.19651" lon="6.95915">
        <ele>1366.2139547728</ele>
        <time>2021-11-18T07:50:41Z</time>
      </trkpt>
      <trkpt lat="44.19649" lon="6.95918">
        <ele>1366.2140387595</ele>
        <time>2021-11-18T07:50:43Z</time>
      </trkpt>
      <trkpt lat="44.19648" lon="6.95921">
        <ele>1366.2140957564</ele>
        <time>2021-11-18T07:50:45Z</time>
      </trkpt>
      <trkpt lat="44.19647" lon="6.95922">
        <ele>1366.2141296193</ele>
        <time>2021-11-18T07:50:46Z</time>
      </trkpt>
      <trkpt lat="44.19646" lon="6.95923">
        <ele>1365.2141688466</ele>
        <time>2021-11-18T07:50:47Z</time>
      </trkpt>
      <trkpt lat="44.19645" lon="6.95923">
        <ele>1365.2141928189</ele>
        <time>2021-11-18T07:50:48Z</time>
      </trkpt>
      <trkpt lat="44.19645" lon="6.95926">
        <ele>1366.2142092474</ele>
        <time>2021-11-18T07:50:50Z</time>
      </trkpt>
      <trkpt lat="44.19645" lon="6.95926">
        <ele>1366.2142156176</ele>
        <time>2021-11-18T07:50:51Z</time>
      </trkpt>
      <trkpt lat="44.19644" lon="6.95928">
        <ele>1366.2142266817</ele>
        <time>2021-11-18T07:50:52Z</time>
      </trkpt>
      <trkpt lat="44.19642" lon="6.9593">
        <ele>1366.2143217325</ele>
        <time>2021-11-18T07:50:54Z</time>
      </trkpt>
      <trkpt lat="44.19641" lon="6.95931">
        <ele>1365.2143530808</ele>
        <time>2021-11-18T07:50:55Z</time>
      </trkpt>
      <trkpt lat="44.19641" lon="6.95932">
        <ele>1366.2143773884</ele>
        <time>2021-11-18T07:50:56Z</time>
      </trkpt>
      <trkpt lat="44.1964" lon="6.95932">
        <ele>1365.2143954933</ele>
        <time>2021-11-18T07:50:57Z</time>
      </trkpt>
      <trkpt lat="44.1964" lon="6.95936">
        <ele>1365.2144142687</ele>
        <time>2021-11-18T07:50:59Z</time>
      </trkpt>
      <trkpt lat="44.19639" lon="6.95938">
        <ele>1365.2144312002</ele>
        <time>2021-11-18T07:51:00Z</time>
      </trkpt>
      <trkpt lat="44.19639" lon="6.9594">
        <ele>1365.214435894</ele>
        <time>2021-11-18T07:51:01Z</time>
      </trkpt>
      <trkpt lat="44.19638" lon="6.95941">
        <ele>1365.2144741155</ele>
        <time>2021-11-18T07:51:03Z</time>
      </trkpt>
      <trkpt lat="44.19637" lon="6.95943">
        <ele>1366.214504458</ele>
        <time>2021-11-18T07:51:04Z</time>
      </trkpt>
      <trkpt lat="44.19638" lon="6.95945">
        <ele>1366.2144930586</ele>
        <time>2021-11-18T07:51:05Z</time>
      </trkpt>
      <trkpt lat="44.19638" lon="6.95947">
        <ele>1366.2144907117</ele>
        <time>2021-11-18T07:51:06Z</time>
      </trkpt>
      <trkpt lat="44.19637" lon="6.95948">
        <ele>1366.2145393267</ele>
        <time>2021-11-18T07:51:07Z</time>
      </trkpt>
      <trkpt lat="44.19636" lon="6.9595">
        <ele>1366.2145597786</ele>
        <time>2021-11-18T07:51:08Z</time>
      </trkpt>
      <trkpt lat="44.19636" lon="6.9595">
        <ele>1367.2145606168</ele>
        <time>2021-11-18T07:51:09Z</time>
      </trkpt>
      <trkpt lat="44.19635" lon="6.95951">
        <ele>1367.2146065496</ele>
        <time>2021-11-18T07:51:10Z</time>
      </trkpt>
      <trkpt lat="44.19635" lon="6.95952">
        <ele>1368.2146174461</ele>
        <time>2021-11-18T07:51:11Z</time>
      </trkpt>
      <trkpt lat="44.19634" lon="6.95953">
        <ele>1368.2146511413</ele>
        <time>2021-11-18T07:51:12Z</time>
      </trkpt>
      <trkpt lat="44.19634" lon="6.95953">
        <ele>1368.2146511413</ele>
        <time>2021-11-18T07:51:14Z</time>
      </trkpt>
      <trkpt lat="44.19633" lon="6.95955">
        <ele>1369.2146868482</ele>
        <time>2021-11-18T07:51:15Z</time>
      </trkpt>
      <trkpt lat="44.19632" lon="6.95957">
        <ele>1369.2147317752</ele>
        <time>2021-11-18T07:51:16Z</time>
      </trkpt>
      <trkpt lat="44.19631" lon="6.95957">
        <ele>1369.2147579268</ele>
        <time>2021-11-18T07:51:17Z</time>
      </trkpt>
      <trkpt lat="44.19631" lon="6.95958">
        <ele>1370.2147651352</ele>
        <time>2021-11-18T07:51:18Z</time>
      </trkpt>
      <trkpt lat="44.19629" lon="6.95959">
        <ele>1370.2148222998</ele>
        <time>2021-11-18T07:51:20Z</time>
      </trkpt>
      <trkpt lat="44.19629" lon="6.95959">
        <ele>1370.2148222998</ele>
        <time>2021-11-18T07:51:22Z</time>
      </trkpt>
      <trkpt lat="44.19628" lon="6.95961">
        <ele>1370.214879632</ele>
        <time>2021-11-18T07:51:23Z</time>
      </trkpt>
      <trkpt lat="44.19627" lon="6.95964">
        <ele>1370.2149161771</ele>
        <time>2021-11-18T07:51:25Z</time>
      </trkpt>
      <trkpt lat="44.19627" lon="6.95965">
        <ele>1371.214914836</ele>
        <time>2021-11-18T07:51:26Z</time>
      </trkpt>
      <trkpt lat="44.19627" lon="6.95966">
        <ele>1371.2149084657</ele>
        <time>2021-11-18T07:51:27Z</time>
      </trkpt>
      <trkpt lat="44.19627" lon="6.95967">
        <ele>1372.2149243914</ele>
        <time>2021-11-18T07:51:29Z</time>
      </trkpt>
      <trkpt lat="44.19627" lon="6.95968">
        <ele>1372.2149196975</ele>
        <time>2021-11-18T07:51:30Z</time>
      </trkpt>
      <trkpt lat="44.19627" lon="6.95969">
        <ele>1372.214914836</ele>
        <time>2021-11-18T07:51:31Z</time>
      </trkpt>
      <trkpt lat="44.19626" lon="6.9597">
        <ele>1372.2149471901</ele>
        <time>2021-11-18T07:51:32Z</time>
      </trkpt>
      <trkpt lat="44.19624" lon="6.95971">
        <ele>1373.2150467671</ele>
        <time>2021-11-18T07:51:34Z</time>
      </trkpt>
      <trkpt lat="44.19624" lon="6.95972">
        <ele>1375.2150482759</ele>
        <time>2021-11-18T07:51:35Z</time>
      </trkpt>
      <trkpt lat="44.19624" lon="6.95975">
        <ele>1375.2150457613</ele>
        <time>2021-11-18T07:51:36Z</time>
      </trkpt>
      <trkpt lat="44.19624" lon="6.95976">
        <ele>1375.2150595076</ele>
        <time>2021-11-18T07:51:37Z</time>
      </trkpt>
      <trkpt lat="44.19622" lon="6.95977">
        <ele>1377.2151154988</ele>
        <time>2021-11-18T07:51:39Z</time>
      </trkpt>
      <trkpt lat="44.19621" lon="6.95978">
        <ele>1377.2151520438</ele>
        <time>2021-11-18T07:51:40Z</time>
      </trkpt>
      <trkpt lat="44.1962" lon="6.95979">
        <ele>1378.2151907682</ele>
        <time>2021-11-18T07:51:41Z</time>
      </trkpt>
      <trkpt lat="44.1962" lon="6.9598">
        <ele>1378.2152093761</ele>
        <time>2021-11-18T07:51:42Z</time>
      </trkpt>
      <trkpt lat="44.19619" lon="6.95981">
        <ele>1378.2152593322</ele>
        <time>2021-11-18T07:51:44Z</time>
      </trkpt>
      <trkpt lat="44.19617" lon="6.95982">
        <ele>1377.2153121382</ele>
        <time>2021-11-18T07:51:45Z</time>
      </trkpt>
      <trkpt lat="44.19617" lon="6.95983">
        <ele>1377.2153364457</ele>
        <time>2021-11-18T07:51:46Z</time>
      </trkpt>
      <trkpt lat="44.19616" lon="6.95984">
        <ele>1378.2153518684</ele>
        <time>2021-11-18T07:51:47Z</time>
      </trkpt>
      <trkpt lat="44.19616" lon="6.95985">
        <ele>1379.2153585739</ele>
        <time>2021-11-18T07:51:49Z</time>
      </trkpt>
      <trkpt lat="44.19616" lon="6.95985">
        <ele>1379.2153585739</ele>
        <time>2021-11-18T07:51:50Z</time>
      </trkpt>
      <trkpt lat="44.19616" lon="6.95988">
        <ele>1380.2153693028</ele>
        <time>2021-11-18T07:51:51Z</time>
      </trkpt>
      <trkpt lat="44.19615" lon="6.95988">
        <ele>1381.2153967954</ele>
        <time>2021-11-18T07:51:53Z</time>
      </trkpt>
      <trkpt lat="44.19613" lon="6.95988">
        <ele>1382.215467371</ele>
        <time>2021-11-18T07:51:55Z</time>
      </trkpt>
      <trkpt lat="44.19612" lon="6.95989">
        <ele>1382.2155141421</ele>
        <time>2021-11-18T07:51:56Z</time>
      </trkpt>
      <trkpt lat="44.19611" lon="6.95989">
        <ele>1383.2155518606</ele>
        <time>2021-11-18T07:51:57Z</time>
      </trkpt>
      <trkpt lat="44.1961" lon="6.95988">
        <ele>1384.2155932672</ele>
        <time>2021-11-18T07:51:58Z</time>
      </trkpt>
      <trkpt lat="44.19609" lon="6.95988">
        <ele>1384.2156278007</ele>
        <time>2021-11-18T07:51:59Z</time>
      </trkpt>
      <trkpt lat="44.19609" lon="6.95989">
        <ele>1384.2156599872</ele>
        <time>2021-11-18T07:52:00Z</time>
      </trkpt>
      <trkpt lat="44.19608" lon="6.9599">
        <ele>1384.2156918384</ele>
        <time>2021-11-18T07:52:01Z</time>
      </trkpt>
      <trkpt lat="44.19608" lon="6.9599">
        <ele>1384.2156906649</ele>
        <time>2021-11-18T07:52:02Z</time>
      </trkpt>
      <trkpt lat="44.19607" lon="6.9599">
        <ele>1385.2157293893</ele>
        <time>2021-11-18T07:52:04Z</time>
      </trkpt>
      <trkpt lat="44.19607" lon="6.9599">
        <ele>1385.2157293893</ele>
        <time>2021-11-18T07:52:06Z</time>
      </trkpt>
      <trkpt lat="44.19605" lon="6.95991">
        <ele>1386.2158162259</ele>
        <time>2021-11-18T07:52:07Z</time>
      </trkpt>
      <trkpt lat="44.19604" lon="6.95992">
        <ele>1386.2158604823</ele>
        <time>2021-11-18T07:52:09Z</time>
      </trkpt>
      <trkpt lat="44.19603" lon="6.95993">
        <ele>1386.215874061</ele>
        <time>2021-11-18T07:52:11Z</time>
      </trkpt>
      <trkpt lat="44.19603" lon="6.95993">
        <ele>1385.2158834487</ele>
        <time>2021-11-18T07:52:12Z</time>
      </trkpt>
      <trkpt lat="44.19602" lon="6.95994">
        <ele>1386.215906918</ele>
        <time>2021-11-18T07:52:15Z</time>
      </trkpt>
      <trkpt lat="44.19601" lon="6.95997">
        <ele>1387.2159598917</ele>
        <time>2021-11-18T07:52:16Z</time>
      </trkpt>
      <trkpt lat="44.196" lon="6.95998">
        <ele>1387.2159873843</ele>
        <time>2021-11-18T07:52:17Z</time>
      </trkpt>
      <trkpt lat="44.19601" lon="6.95999">
        <ele>1387.2159771584</ele>
        <time>2021-11-18T07:52:18Z</time>
      </trkpt>
      <trkpt lat="44.19601" lon="6.96">
        <ele>1387.2159644179</ele>
        <time>2021-11-18T07:52:19Z</time>
      </trkpt>
      <trkpt lat="44.19601" lon="6.96">
        <ele>1387.2159637474</ele>
        <time>2021-11-18T07:52:20Z</time>
      </trkpt>
      <trkpt lat="44.19601" lon="6.96001">
        <ele>1388.215969447</ele>
        <time>2021-11-18T07:52:21Z</time>
      </trkpt>
      <trkpt lat="44.196" lon="6.96001">
        <ele>1388.2160126977</ele>
        <time>2021-11-18T07:52:22Z</time>
      </trkpt>
      <trkpt lat="44.19599" lon="6.96001">
        <ele>1388.2160291262</ele>
        <time>2021-11-18T07:52:23Z</time>
      </trkpt>
      <trkpt lat="44.19599" lon="6.96002">
        <ele>1388.2160509191</ele>
        <time>2021-11-18T07:52:24Z</time>
      </trkpt>
      <trkpt lat="44.19598" lon="6.96002">
        <ele>1388.2160639949</ele>
        <time>2021-11-18T07:52:25Z</time>
      </trkpt>
      <trkpt lat="44.19597" lon="6.96002">
        <ele>1388.2161107659</ele>
        <time>2021-11-18T07:52:26Z</time>
      </trkpt>
      <trkpt lat="44.19595" lon="6.96003">
        <ele>1389.2161893882</ele>
        <time>2021-11-18T07:52:28Z</time>
      </trkpt>
      <trkpt lat="44.19594" lon="6.96005">
        <ele>1389.2162400149</ele>
        <time>2021-11-18T07:52:30Z</time>
      </trkpt>
      <trkpt lat="44.19594" lon="6.96006">
        <ele>1389.2162619755</ele>
        <time>2021-11-18T07:52:31Z</time>
      </trkpt>
      <trkpt lat="44.19593" lon="6.96007">
        <ele>1390.2162847742</ele>
        <time>2021-11-18T07:52:32Z</time>
      </trkpt>
      <trkpt lat="44.19593" lon="6.96008">
        <ele>1390.2162946649</ele>
        <time>2021-11-18T07:52:33Z</time>
      </trkpt>
      <trkpt lat="44.19592" lon="6.96008">
        <ele>1390.2163412683</ele>
        <time>2021-11-18T07:52:35Z</time>
      </trkpt>
      <trkpt lat="44.19591" lon="6.96009">
        <ele>1391.2163493149</ele>
        <time>2021-11-18T07:52:36Z</time>
      </trkpt>
      <trkpt lat="44.19591" lon="6.9601">
        <ele>1391.2163695991</ele>
        <time>2021-11-18T07:52:37Z</time>
      </trkpt>
      <trkpt lat="44.1959" lon="6.96012">
        <ele>1391.216401618</ele>
        <time>2021-11-18T07:52:39Z</time>
      </trkpt>
      <trkpt lat="44.19589" lon="6.96012">
        <ele>1391.2164406776</ele>
        <time>2021-11-18T07:52:40Z</time>
      </trkpt>
      <trkpt lat="44.19588" lon="6.96013">
        <ele>1391.2164683379</ele>
        <time>2021-11-18T07:52:41Z</time>
      </trkpt>
      <trkpt lat="44.19587" lon="6.96014">
        <ele>1392.2165342197</ele>
        <time>2021-11-18T07:52:43Z</time>
      </trkpt>
      <trkpt lat="44.19585" lon="6.96015">
        <ele>1393.2165933959</ele>
        <time>2021-11-18T07:52:45Z</time>
      </trkpt>
      <trkpt lat="44.19583" lon="6.96014">
        <ele>1394.2166668214</ele>
        <time>2021-11-18T07:52:46Z</time>
      </trkpt>
      <trkpt lat="44.19583" lon="6.96015">
        <ele>1395.2166907936</ele>
        <time>2021-11-18T07:52:47Z</time>
      </trkpt>
      <trkpt lat="44.19582" lon="6.96014">
        <ele>1396.2167412527</ele>
        <time>2021-11-18T07:52:49Z</time>
      </trkpt>
      <trkpt lat="44.19581" lon="6.96013">
        <ele>1396.2167694159</ele>
        <time>2021-11-18T07:52:50Z</time>
      </trkpt>
      <trkpt lat="44.1958" lon="6.96013">
        <ele>1396.2167975791</ele>
        <time>2021-11-18T07:52:52Z</time>
      </trkpt>
      <trkpt lat="44.19579" lon="6.96011">
        <ele>1397.2168280892</ele>
        <time>2021-11-18T07:52:53Z</time>
      </trkpt>
      <trkpt lat="44.19579" lon="6.9601">
        <ele>1397.2168381475</ele>
        <time>2021-11-18T07:52:54Z</time>
      </trkpt>
      <trkpt lat="44.19579" lon="6.96009">
        <ele>1397.2168445177</ele>
        <time>2021-11-18T07:52:55Z</time>
      </trkpt>
      <trkpt lat="44.19578" lon="6.96008">
        <ele>1397.2168629579</ele>
        <time>2021-11-18T07:52:56Z</time>
      </trkpt>
      <trkpt lat="44.19579" lon="6.96006">
        <ele>1398.2168611139</ele>
        <time>2021-11-18T07:52:57Z</time>
      </trkpt>
      <trkpt lat="44.19578" lon="6.96004">
        <ele>1398.2168668136</ele>
        <time>2021-11-18T07:52:59Z</time>
      </trkpt>
      <trkpt lat="44.19578" lon="6.96004">
        <ele>1399.216864299</ele>
        <time>2021-11-18T07:53:01Z</time>
      </trkpt>
      <trkpt lat="44.19578" lon="6.96003">
        <ele>1399.2168978266</ele>
        <time>2021-11-18T07:53:02Z</time>
      </trkpt>
      <trkpt lat="44.19577" lon="6.96003">
        <ele>1399.2169320248</ele>
        <time>2021-11-18T07:53:04Z</time>
      </trkpt>
      <trkpt lat="44.19576" lon="6.96003">
        <ele>1400.216948621</ele>
        <time>2021-11-18T07:53:05Z</time>
      </trkpt>
      <trkpt lat="44.19575" lon="6.96001">
        <ele>1400.2169979066</ele>
        <time>2021-11-18T07:53:06Z</time>
      </trkpt>
      <trkpt lat="44.19574" lon="6.96001">
        <ele>1400.2170456834</ele>
        <time>2021-11-18T07:53:07Z</time>
      </trkpt>
      <trkpt lat="44.19573" lon="6.96003">
        <ele>1400.2170636207</ele>
        <time>2021-11-18T07:53:08Z</time>
      </trkpt>
      <trkpt lat="44.19574" lon="6.96005">
        <ele>1399.2170614414</ele>
        <time>2021-11-18T07:53:10Z</time>
      </trkpt>
      <trkpt lat="44.19574" lon="6.96006">
        <ele>1399.2170465216</ele>
        <time>2021-11-18T07:53:11Z</time>
      </trkpt>
      <trkpt lat="44.19574" lon="6.96007">
        <ele>1399.2170344517</ele>
        <time>2021-11-18T07:53:12Z</time>
      </trkpt>
      <trkpt lat="44.19574" lon="6.96008">
        <ele>1400.2170322724</ele>
        <time>2021-11-18T07:53:15Z</time>
      </trkpt>
      <trkpt lat="44.19573" lon="6.9601">
        <ele>1400.2170621119</ele>
        <time>2021-11-18T07:53:16Z</time>
      </trkpt>
      <trkpt lat="44.19573" lon="6.9601">
        <ele>1401.2170877606</ele>
        <time>2021-11-18T07:53:18Z</time>
      </trkpt>
      <trkpt lat="44.19573" lon="6.96011">
        <ele>1402.2170691527</ele>
        <time>2021-11-18T07:53:20Z</time>
      </trkpt>
      <trkpt lat="44.19573" lon="6.96012">
        <ele>1402.2170805521</ele>
        <time>2021-11-18T07:53:21Z</time>
      </trkpt>
      <trkpt lat="44.19573" lon="6.96012">
        <ele>1402.2170963101</ele>
        <time>2021-11-18T07:53:22Z</time>
      </trkpt>
      <trkpt lat="44.19572" lon="6.96012">
        <ele>1403.2171253115</ele>
        <time>2021-11-18T07:53:24Z</time>
      </trkpt>
      <trkpt lat="44.19572" lon="6.96013">
        <ele>1404.2171419077</ele>
        <time>2021-11-18T07:53:25Z</time>
      </trkpt>
      <trkpt lat="44.19571" lon="6.96013">
        <ele>1404.2171517983</ele>
        <time>2021-11-18T07:53:26Z</time>
      </trkpt>
      <trkpt lat="44.19571" lon="6.96014">
        <ele>1404.2171571627</ele>
        <time>2021-11-18T07:53:27Z</time>
      </trkpt>
      <trkpt lat="44.19569" lon="6.96014">
        <ele>1404.2172275707</ele>
        <time>2021-11-18T07:53:29Z</time>
      </trkpt>
      <trkpt lat="44.19568" lon="6.96015">
        <ele>1405.2172733359</ele>
        <time>2021-11-18T07:53:30Z</time>
      </trkpt>
      <trkpt lat="44.19568" lon="6.96016">
        <ele>1404.2172892615</ele>
        <time>2021-11-18T07:53:31Z</time>
      </trkpt>
      <trkpt lat="44.19568" lon="6.96018">
        <ele>1404.2172884233</ele>
        <time>2021-11-18T07:53:33Z</time>
      </trkpt>
      <trkpt lat="44.19568" lon="6.96019">
        <ele>1404.2172926143</ele>
        <time>2021-11-18T07:53:35Z</time>
      </trkpt>
      <trkpt lat="44.19568" lon="6.96019">
        <ele>1404.2172926143</ele>
        <time>2021-11-18T07:53:39Z</time>
      </trkpt>
      <trkpt lat="44.19565" lon="6.9602">
        <ele>1405.2173876651</ele>
        <time>2021-11-18T07:53:40Z</time>
      </trkpt>
      <trkpt lat="44.19565" lon="6.96021">
        <ele>1405.2173848152</ele>
        <time>2021-11-18T07:53:41Z</time>
      </trkpt>
      <trkpt lat="44.19566" lon="6.96022">
        <ele>1405.2173755951</ele>
        <time>2021-11-18T07:53:42Z</time>
      </trkpt>
      <trkpt lat="44.19565" lon="6.96024">
        <ele>1405.2173888385</ele>
        <time>2021-11-18T07:53:44Z</time>
      </trkpt>
      <trkpt lat="44.19565" lon="6.96025">
        <ele>1405.217388168</ele>
        <time>2021-11-18T07:53:45Z</time>
      </trkpt>
      <trkpt lat="44.19565" lon="6.96026">
        <ele>1405.2174097933</ele>
        <time>2021-11-18T07:53:48Z</time>
      </trkpt>
      <trkpt lat="44.19564" lon="6.9603">
        <ele>1406.217444662</ele>
        <time>2021-11-18T07:53:50Z</time>
      </trkpt>
      <trkpt lat="44.19563" lon="6.96031">
        <ele>1406.2174631022</ele>
        <time>2021-11-18T07:53:51Z</time>
      </trkpt>
      <trkpt lat="44.19563" lon="6.96032">
        <ele>1406.2174693048</ele>
        <time>2021-11-18T07:53:52Z</time>
      </trkpt>
      <trkpt lat="44.19563" lon="6.96034">
        <ele>1406.2174724899</ele>
        <time>2021-11-18T07:53:54Z</time>
      </trkpt>
      <trkpt lat="44.19563" lon="6.96034">
        <ele>1406.2174724899</ele>
        <time>2021-11-18T07:53:58Z</time>
      </trkpt>
      <trkpt lat="44.19564" lon="6.96037">
        <ele>1407.2174404711</ele>
        <time>2021-11-18T07:53:59Z</time>
      </trkpt>
      <trkpt lat="44.19564" lon="6.96038">
        <ele>1406.2174460031</ele>
        <time>2021-11-18T07:54:00Z</time>
      </trkpt>
      <trkpt lat="44.19564" lon="6.96039">
        <ele>1407.2174547203</ele>
        <time>2021-11-18T07:54:01Z</time>
      </trkpt>
      <trkpt lat="44.19563" lon="6.9604">
        <ele>1407.2174718194</ele>
        <time>2021-11-18T07:54:02Z</time>
      </trkpt>
      <trkpt lat="44.19563" lon="6.9604">
        <ele>1407.2174718194</ele>
        <time>2021-11-18T07:54:03Z</time>
      </trkpt>
      <trkpt lat="44.19562" lon="6.96041">
        <ele>1408.2175316662</ele>
        <time>2021-11-18T07:54:05Z</time>
      </trkpt>
      <trkpt lat="44.19561" lon="6.96041">
        <ele>1409.2175522856</ele>
        <time>2021-11-18T07:54:07Z</time>
      </trkpt>
      <trkpt lat="44.19561" lon="6.96042">
        <ele>1410.217566032</ele>
        <time>2021-11-18T07:54:08Z</time>
      </trkpt>
      <trkpt lat="44.1956" lon="6.96041">
        <ele>1410.2176002301</ele>
        <time>2021-11-18T07:54:09Z</time>
      </trkpt>
      <trkpt lat="44.1956" lon="6.96041">
        <ele>1411.2176117972</ele>
        <time>2021-11-18T07:54:10Z</time>
      </trkpt>
      <trkpt lat="44.1956" lon="6.9604">
        <ele>1411.2176205143</ele>
        <time>2021-11-18T07:54:11Z</time>
      </trkpt>
      <trkpt lat="44.19559" lon="6.9604">
        <ele>1411.2176379487</ele>
        <time>2021-11-18T07:54:14Z</time>
      </trkpt>
      <trkpt lat="44.19558" lon="6.9604">
        <ele>1411.2176894136</ele>
        <time>2021-11-18T07:54:15Z</time>
      </trkpt>
      <trkpt lat="44.19558" lon="6.96041">
        <ele>1412.2176793553</ele>
        <time>2021-11-18T07:54:16Z</time>
      </trkpt>
      <trkpt lat="44.19558" lon="6.96042">
        <ele>1413.2176949456</ele>
        <time>2021-11-18T07:54:17Z</time>
      </trkpt>
      <trkpt lat="44.19558" lon="6.96043">
        <ele>1413.2176974602</ele>
        <time>2021-11-18T07:54:18Z</time>
      </trkpt>
      <trkpt lat="44.19557" lon="6.96044">
        <ele>1413.2177051716</ele>
        <time>2021-11-18T07:54:21Z</time>
      </trkpt>
      <trkpt lat="44.19557" lon="6.96045">
        <ele>1414.2177405432</ele>
        <time>2021-11-18T07:54:22Z</time>
      </trkpt>
      <trkpt lat="44.19556" lon="6.96046">
        <ele>1414.2177666947</ele>
        <time>2021-11-18T07:54:23Z</time>
      </trkpt>
      <trkpt lat="44.19556" lon="6.96047">
        <ele>1414.2177814469</ele>
        <time>2021-11-18T07:54:24Z</time>
      </trkpt>
      <trkpt lat="44.19556" lon="6.96047">
        <ele>1415.217778597</ele>
        <time>2021-11-18T07:54:27Z</time>
      </trkpt>
      <trkpt lat="44.19555" lon="6.96048">
        <ele>1417.2178132981</ele>
        <time>2021-11-18T07:54:28Z</time>
      </trkpt>
      <trkpt lat="44.19554" lon="6.96048">
        <ele>1417.2178270444</ele>
        <time>2021-11-18T07:54:29Z</time>
      </trkpt>
      <trkpt lat="44.19554" lon="6.96048">
        <ele>1417.2178491727</ele>
        <time>2021-11-18T07:54:30Z</time>
      </trkpt>
      <trkpt lat="44.19553" lon="6.96049">
        <ele>1417.217866607</ele>
        <time>2021-11-18T07:54:33Z</time>
      </trkpt>
      <trkpt lat="44.19552" lon="6.96051">
        <ele>1419.2179076783</ele>
        <time>2021-11-18T07:54:34Z</time>
      </trkpt>
      <trkpt lat="44.19552" lon="6.96052">
        <ele>1419.2179150544</ele>
        <time>2021-11-18T07:54:35Z</time>
      </trkpt>
      <trkpt lat="44.19552" lon="6.96053">
        <ele>1420.2179021463</ele>
        <time>2021-11-18T07:54:36Z</time>
      </trkpt>
      <trkpt lat="44.19553" lon="6.96054">
        <ele>1420.2179011405</ele>
        <time>2021-11-18T07:54:37Z</time>
      </trkpt>
      <trkpt lat="44.19553" lon="6.96055">
        <ele>1420.2179001346</ele>
        <time>2021-11-18T07:54:38Z</time>
      </trkpt>
      <trkpt lat="44.19553" lon="6.96057">
        <ele>1419.2178917527</ele>
        <time>2021-11-18T07:54:39Z</time>
      </trkpt>
      <trkpt lat="44.19553" lon="6.96058">
        <ele>1419.2178925909</ele>
        <time>2021-11-18T07:54:40Z</time>
      </trkpt>
      <trkpt lat="44.19552" lon="6.96059">
        <ele>1419.2179029845</ele>
        <time>2021-11-18T07:54:41Z</time>
      </trkpt>
      <trkpt lat="44.19552" lon="6.9606">
        <ele>1419.2179076783</ele>
        <time>2021-11-18T07:54:42Z</time>
      </trkpt>
      <trkpt lat="44.19552" lon="6.96061">
        <ele>1419.2179338299</ele>
        <time>2021-11-18T07:54:43Z</time>
      </trkpt>
      <trkpt lat="44.1955" lon="6.96063">
        <ele>1418.2179982029</ele>
        <time>2021-11-18T07:54:45Z</time>
      </trkpt>
      <trkpt lat="44.19549" lon="6.96064">
        <ele>1419.2180256955</ele>
        <time>2021-11-18T07:54:46Z</time>
      </trkpt>
      <trkpt lat="44.19549" lon="6.96065">
        <ele>1419.2180471532</ele>
        <time>2021-11-18T07:54:47Z</time>
      </trkpt>
      <trkpt lat="44.19549" lon="6.96065">
        <ele>1419.2180515118</ele>
        <time>2021-11-18T07:54:48Z</time>
      </trkpt>
      <trkpt lat="44.19548" lon="6.96065">
        <ele>1420.2180902362</ele>
        <time>2021-11-18T07:54:49Z</time>
      </trkpt>
      <trkpt lat="44.19547" lon="6.96066">
        <ele>1420.2181091793</ele>
        <time>2021-11-18T07:54:50Z</time>
      </trkpt>
      <trkpt lat="44.19546" lon="6.96066">
        <ele>1421.2181438804</ele>
        <time>2021-11-18T07:54:51Z</time>
      </trkpt>
      <trkpt lat="44.19546" lon="6.96067">
        <ele>1421.2181594707</ele>
        <time>2021-11-18T07:54:53Z</time>
      </trkpt>
      <trkpt lat="44.19546" lon="6.96069">
        <ele>1420.218171373</ele>
        <time>2021-11-18T07:54:55Z</time>
      </trkpt>
      <trkpt lat="44.19546" lon="6.96069">
        <ele>1420.218171373</ele>
        <time>2021-11-18T07:54:58Z</time>
      </trkpt>
      <trkpt lat="44.19544" lon="6.96067">
        <ele>1421.218257539</ele>
        <time>2021-11-18T07:55:00Z</time>
      </trkpt>
      <trkpt lat="44.19543" lon="6.96066">
        <ele>1421.2182914019</ele>
        <time>2021-11-18T07:55:01Z</time>
      </trkpt>
      <trkpt lat="44.19542" lon="6.96064">
        <ele>1421.2183115184</ele>
        <time>2021-11-18T07:55:02Z</time>
      </trkpt>
      <trkpt lat="44.19541" lon="6.96063">
        <ele>1421.218366839</ele>
        <time>2021-11-18T07:55:04Z</time>
      </trkpt>
      <trkpt lat="44.19541" lon="6.9606">
        <ele>1421.2183770649</ele>
        <time>2021-11-18T07:55:05Z</time>
      </trkpt>
      <trkpt lat="44.1954" lon="6.9606">
        <ele>1421.2184032165</ele>
        <time>2021-11-18T07:55:07Z</time>
      </trkpt>
      <trkpt lat="44.19538" lon="6.96062">
        <ele>1420.218472451</ele>
        <time>2021-11-18T07:55:09Z</time>
      </trkpt>
      <trkpt lat="44.19538" lon="6.96062">
        <ele>1420.218472451</ele>
        <time>2021-11-18T07:55:11Z</time>
      </trkpt>
      <trkpt lat="44.19538" lon="6.96064">
        <ele>1421.2184734568</ele>
        <time>2021-11-18T07:55:12Z</time>
      </trkpt>
      <trkpt lat="44.19539" lon="6.96067">
        <ele>1421.2184456289</ele>
        <time>2021-11-18T07:55:14Z</time>
      </trkpt>
      <trkpt lat="44.19539" lon="6.96068">
        <ele>1421.2184452936</ele>
        <time>2021-11-18T07:55:15Z</time>
      </trkpt>
      <trkpt lat="44.19539" lon="6.96069">
        <ele>1421.2184556872</ele>
        <time>2021-11-18T07:55:16Z</time>
      </trkpt>
      <trkpt lat="44.19539" lon="6.9607">
        <ele>1421.2184563577</ele>
        <time>2021-11-18T07:55:17Z</time>
      </trkpt>
      <trkpt lat="44.19539" lon="6.96072">
        <ele>1421.2184602134</ele>
        <time>2021-11-18T07:55:18Z</time>
      </trkpt>
      <trkpt lat="44.19538" lon="6.96074">
        <ele>1421.2184620574</ele>
        <time>2021-11-18T07:55:20Z</time>
      </trkpt>
      <trkpt lat="44.19539" lon="6.96075">
        <ele>1422.2184546813</ele>
        <time>2021-11-18T07:55:22Z</time>
      </trkpt>
      <trkpt lat="44.1954" lon="6.96076">
        <ele>1422.2184186392</ele>
        <time>2021-11-18T07:55:24Z</time>
      </trkpt>
      <trkpt lat="44.19539" lon="6.96076">
        <ele>1423.2184375823</ele>
        <time>2021-11-18T07:55:25Z</time>
      </trkpt>
      <trkpt lat="44.19539" lon="6.96077">
        <ele>1423.2184541784</ele>
        <time>2021-11-18T07:55:26Z</time>
      </trkpt>
      <trkpt lat="44.19538" lon="6.96078">
        <ele>1424.2184763066</ele>
        <time>2021-11-18T07:55:28Z</time>
      </trkpt>
      <trkpt lat="44.19537" lon="6.96078">
        <ele>1425.2185282744</ele>
        <time>2021-11-18T07:55:29Z</time>
      </trkpt>
      <trkpt lat="44.19536" lon="6.96079">
        <ele>1425.218546547</ele>
        <time>2021-11-18T07:55:30Z</time>
      </trkpt>
      <trkpt lat="44.19536" lon="6.96081">
        <ele>1424.2185443677</ele>
        <time>2021-11-18T07:55:31Z</time>
      </trkpt>
      <trkpt lat="44.19536" lon="6.96082">
        <ele>1425.2185512409</ele>
        <time>2021-11-18T07:55:32Z</time>
      </trkpt>
      <trkpt lat="44.19535" lon="6.96085">
        <ele>1424.2186028734</ele>
        <time>2021-11-18T07:55:34Z</time>
      </trkpt>
      <trkpt lat="44.19534" lon="6.96086">
        <ele>1424.2186459564</ele>
        <time>2021-11-18T07:55:35Z</time>
      </trkpt>
      <trkpt lat="44.19533" lon="6.96087">
        <ele>1425.2186622173</ele>
        <time>2021-11-18T07:55:36Z</time>
      </trkpt>
      <trkpt lat="44.19533" lon="6.96088">
        <ele>1425.2186814956</ele>
        <time>2021-11-18T07:55:37Z</time>
      </trkpt>
      <trkpt lat="44.19532" lon="6.96089">
        <ele>1425.2187091559</ele>
        <time>2021-11-18T07:55:38Z</time>
      </trkpt>
      <trkpt lat="44.19531" lon="6.96089">
        <ele>1424.2187539153</ele>
        <time>2021-11-18T07:55:39Z</time>
      </trkpt>
      <trkpt lat="44.19531" lon="6.9609">
        <ele>1424.2187817432</ele>
        <time>2021-11-18T07:55:40Z</time>
      </trkpt>
      <trkpt lat="44.1953" lon="6.96091">
        <ele>1424.2187933102</ele>
        <time>2021-11-18T07:55:41Z</time>
      </trkpt>
      <trkpt lat="44.1953" lon="6.96092">
        <ele>1424.2187995128</ele>
        <time>2021-11-18T07:55:43Z</time>
      </trkpt>
      <trkpt lat="44.1953" lon="6.96094">
        <ele>1424.2187931426</ele>
        <time>2021-11-18T07:55:45Z</time>
      </trkpt>
      <trkpt lat="44.1953" lon="6.96095">
        <ele>1424.2187959924</ele>
        <time>2021-11-18T07:55:46Z</time>
      </trkpt>
      <trkpt lat="44.1953" lon="6.96097">
        <ele>1424.2188011892</ele>
        <time>2021-11-18T07:55:47Z</time>
      </trkpt>
      <trkpt lat="44.1953" lon="6.96097">
        <ele>1424.2188011892</ele>
        <time>2021-11-18T07:55:49Z</time>
      </trkpt>
      <trkpt lat="44.1953" lon="6.961">
        <ele>1424.2188089006</ele>
        <time>2021-11-18T07:55:50Z</time>
      </trkpt>
      <trkpt lat="44.1953" lon="6.96101">
        <ele>1424.2188028656</ele>
        <time>2021-11-18T07:55:51Z</time>
      </trkpt>
      <trkpt lat="44.1953" lon="6.96103">
        <ele>1424.2187926397</ele>
        <time>2021-11-18T07:55:53Z</time>
      </trkpt>
      <trkpt lat="44.19529" lon="6.96105">
        <ele>1424.2188229822</ele>
        <time>2021-11-18T07:55:55Z</time>
      </trkpt>
      <trkpt lat="44.19529" lon="6.96105">
        <ele>1425.2188553363</ele>
        <time>2021-11-18T07:55:56Z</time>
      </trkpt>
      <trkpt lat="44.19528" lon="6.96107">
        <ele>1425.218868915</ele>
        <time>2021-11-18T07:55:57Z</time>
      </trkpt>
      <trkpt lat="44.19528" lon="6.96108">
        <ele>1425.2188972458</ele>
        <time>2021-11-18T07:55:58Z</time>
      </trkpt>
      <trkpt lat="44.19527" lon="6.96109">
        <ele>1425.2189099863</ele>
        <time>2021-11-18T07:56:00Z</time>
      </trkpt>
      <trkpt lat="44.19527" lon="6.96109">
        <ele>1425.2189151831</ele>
        <time>2021-11-18T07:56:02Z</time>
      </trkpt>
      <trkpt lat="44.19526" lon="6.96109">
        <ele>1425.2189529017</ele>
        <time>2021-11-18T07:56:04Z</time>
      </trkpt>
      <trkpt lat="44.19526" lon="6.9611">
        <ele>1425.2189787179</ele>
        <time>2021-11-18T07:56:05Z</time>
      </trkpt>
      <trkpt lat="44.19525" lon="6.9611">
        <ele>1425.2190117426</ele>
        <time>2021-11-18T07:56:17Z</time>
      </trkpt>
      <trkpt lat="44.19522" lon="6.96111">
        <ele>1426.2191072963</ele>
        <time>2021-11-18T07:56:19Z</time>
      </trkpt>
      <trkpt lat="44.19522" lon="6.96112">
        <ele>1427.2191188633</ele>
        <time>2021-11-18T07:56:20Z</time>
      </trkpt>
      <trkpt lat="44.19522" lon="6.96112">
        <ele>1427.2191272452</ele>
        <time>2021-11-18T07:56:21Z</time>
      </trkpt>
      <trkpt lat="44.19521" lon="6.96113">
        <ele>1427.2191485353</ele>
        <time>2021-11-18T07:56:23Z</time>
      </trkpt>
      <trkpt lat="44.1952" lon="6.96115">
        <ele>1428.2192102261</ele>
        <time>2021-11-18T07:56:25Z</time>
      </trkpt>
      <trkpt lat="44.19519" lon="6.96116">
        <ele>1428.2192392275</ele>
        <time>2021-11-18T07:56:26Z</time>
      </trkpt>
      <trkpt lat="44.19518" lon="6.96116">
        <ele>1428.2192813046</ele>
        <time>2021-11-18T07:56:27Z</time>
      </trkpt>
      <trkpt lat="44.19516" lon="6.96118">
        <ele>1429.2193614356</ele>
        <time>2021-11-18T07:56:29Z</time>
      </trkpt>
      <trkpt lat="44.19514" lon="6.96117">
        <ele>1430.2194455899</ele>
        <time>2021-11-18T07:56:31Z</time>
      </trkpt>
      <trkpt lat="44.19513" lon="6.96117">
        <ele>1431.2194796205</ele>
        <time>2021-11-18T07:56:32Z</time>
      </trkpt>
      <trkpt lat="44.19512" lon="6.96117">
        <ele>1431.2195113041</ele>
        <time>2021-11-18T07:56:33Z</time>
      </trkpt>
      <trkpt lat="44.1951" lon="6.96116">
        <ele>1432.2195823826</ele>
        <time>2021-11-18T07:56:35Z</time>
      </trkpt>
      <trkpt lat="44.19509" lon="6.96115">
        <ele>1432.2196288183</ele>
        <time>2021-11-18T07:56:36Z</time>
      </trkpt>
      <trkpt lat="44.19508" lon="6.96115">
        <ele>1433.2196705602</ele>
        <time>2021-11-18T07:56:37Z</time>
      </trkpt>
      <trkpt lat="44.19508" lon="6.96114">
        <ele>1434.2196926884</ele>
        <time>2021-11-18T07:56:40Z</time>
      </trkpt>
      <trkpt lat="44.19506" lon="6.96115">
        <ele>1435.2197515294</ele>
        <time>2021-11-18T07:56:41Z</time>
      </trkpt>
      <trkpt lat="44.19505" lon="6.96115">
        <ele>1436.2197820395</ele>
        <time>2021-11-18T07:56:43Z</time>
      </trkpt>
      <trkpt lat="44.19505" lon="6.96115">
        <ele>1436.2198061794</ele>
        <time>2021-11-18T07:56:46Z</time>
      </trkpt>
      <trkpt lat="44.19506" lon="6.96117">
        <ele>1438.2197815366</ele>
        <time>2021-11-18T07:56:47Z</time>
      </trkpt>
      <trkpt lat="44.19505" lon="6.96117">
        <ele>1439.2197998092</ele>
        <time>2021-11-18T07:56:52Z</time>
      </trkpt>
      <trkpt lat="44.19503" lon="6.96118">
        <ele>1439.2198866457</ele>
        <time>2021-11-18T07:56:54Z</time>
      </trkpt>
      <trkpt lat="44.19503" lon="6.96118">
        <ele>1439.2198990509</ele>
        <time>2021-11-18T07:56:55Z</time>
      </trkpt>
      <trkpt lat="44.19502" lon="6.9612">
        <ele>1438.2199087739</ele>
        <time>2021-11-18T07:56:56Z</time>
      </trkpt>
      <trkpt lat="44.19502" lon="6.9612">
        <ele>1438.2199044153</ele>
        <time>2021-11-18T07:56:58Z</time>
      </trkpt>
      <trkpt lat="44.19503" lon="6.96121">
        <ele>1439.219880946</ele>
        <time>2021-11-18T07:57:00Z</time>
      </trkpt>
      <trkpt lat="44.19504" lon="6.96121">
        <ele>1440.2198551297</ele>
        <time>2021-11-18T07:57:03Z</time>
      </trkpt>
      <trkpt lat="44.19505" lon="6.96122">
        <ele>1439.2198085263</ele>
        <time>2021-11-18T07:57:05Z</time>
      </trkpt>
      <trkpt lat="44.19505" lon="6.96121">
        <ele>1439.2197912596</ele>
        <time>2021-11-18T07:57:10Z</time>
      </trkpt>
      <trkpt lat="44.19504" lon="6.96123">
        <ele>1439.2198524475</ele>
        <time>2021-11-18T07:57:11Z</time>
      </trkpt>
      <trkpt lat="44.19503" lon="6.96124">
        <ele>1438.2198842987</ele>
        <time>2021-11-18T07:57:13Z</time>
      </trkpt>
      <trkpt lat="44.19502" lon="6.96124">
        <ele>1439.2199055888</ele>
        <time>2021-11-18T07:57:15Z</time>
      </trkpt>
      <trkpt lat="44.19501" lon="6.96124">
        <ele>1439.219949007</ele>
        <time>2021-11-18T07:57:16Z</time>
      </trkpt>
      <trkpt lat="44.19501" lon="6.96124">
        <ele>1440.2199811935</ele>
        <time>2021-11-18T07:57:17Z</time>
      </trkpt>
      <trkpt lat="44.195" lon="6.96123">
        <ele>1440.2200165652</ele>
        <time>2021-11-18T07:57:19Z</time>
      </trkpt>
      <trkpt lat="44.19498" lon="6.96123">
        <ele>1442.2200770825</ele>
        <time>2021-11-18T07:57:21Z</time>
      </trkpt>
      <trkpt lat="44.19497" lon="6.96124">
        <ele>1443.2201049104</ele>
        <time>2021-11-18T07:57:22Z</time>
      </trkpt>
      <trkpt lat="44.19497" lon="6.96124">
        <ele>1443.2201280445</ele>
        <time>2021-11-18T07:57:23Z</time>
      </trkpt>
      <trkpt lat="44.19496" lon="6.96125">
        <ele>1443.2201479934</ele>
        <time>2021-11-18T07:57:27Z</time>
      </trkpt>
      <trkpt lat="44.19495" lon="6.96127">
        <ele>1445.220199123</ele>
        <time>2021-11-18T07:57:28Z</time>
      </trkpt>
      <trkpt lat="44.19494" lon="6.96128">
        <ele>1445.2202398591</ele>
        <time>2021-11-18T07:57:30Z</time>
      </trkpt>
      <trkpt lat="44.19494" lon="6.96129">
        <ele>1445.2202415355</ele>
        <time>2021-11-18T07:57:35Z</time>
      </trkpt>
      <trkpt lat="44.19495" lon="6.9613">
        <ele>1444.220208846</ele>
        <time>2021-11-18T07:57:36Z</time>
      </trkpt>
      <trkpt lat="44.19494" lon="6.96131">
        <ele>1444.220228795</ele>
        <time>2021-11-18T07:57:38Z</time>
      </trkpt>
      <trkpt lat="44.19494" lon="6.96132">
        <ele>1445.2202613167</ele>
        <time>2021-11-18T07:57:40Z</time>
      </trkpt>
      <trkpt lat="44.19494" lon="6.96133">
        <ele>1446.2202614844</ele>
        <time>2021-11-18T07:57:44Z</time>
      </trkpt>
      <trkpt lat="44.19492" lon="6.96134">
        <ele>1447.2203045674</ele>
        <time>2021-11-18T07:57:45Z</time>
      </trkpt>
      <trkpt lat="44.19492" lon="6.96134">
        <ele>1448.2203146257</ele>
        <time>2021-11-18T07:57:46Z</time>
      </trkpt>
      <trkpt lat="44.19491" lon="6.96134">
        <ele>1449.2203469798</ele>
        <time>2021-11-18T07:57:48Z</time>
      </trkpt>
      <trkpt lat="44.19491" lon="6.96134">
        <ele>1449.2203749754</ele>
        <time>2021-11-18T07:57:49Z</time>
      </trkpt>
      <trkpt lat="44.1949" lon="6.96134">
        <ele>1450.2203957625</ele>
        <time>2021-11-18T07:57:53Z</time>
      </trkpt>
      <trkpt lat="44.19489" lon="6.96136">
        <ele>1449.2204494067</ele>
        <time>2021-11-18T07:57:55Z</time>
      </trkpt>
      <trkpt lat="44.19488" lon="6.96137">
        <ele>1449.2204695232</ele>
        <time>2021-11-18T07:57:56Z</time>
      </trkpt>
      <trkpt lat="44.19487" lon="6.96139">
        <ele>1448.220515959</ele>
        <time>2021-11-18T07:57:57Z</time>
      </trkpt>
      <trkpt lat="44.19486" lon="6.9614">
        <ele>1447.2205494866</ele>
        <time>2021-11-18T07:57:58Z</time>
      </trkpt>
      <trkpt lat="44.19486" lon="6.9614">
        <ele>1447.2205494866</ele>
        <time>2021-11-18T07:58:00Z</time>
      </trkpt>
      <trkpt lat="44.19485" lon="6.96142">
        <ele>1446.2205947489</ele>
        <time>2021-11-18T07:58:01Z</time>
      </trkpt>
      <trkpt lat="44.19483" lon="6.96143">
        <ele>1446.2206851058</ele>
        <time>2021-11-18T07:58:03Z</time>
      </trkpt>
      <trkpt lat="44.19482" lon="6.96143">
        <ele>1446.2207342237</ele>
        <time>2021-11-18T07:58:04Z</time>
      </trkpt>
      <trkpt lat="44.19482" lon="6.96143">
        <ele>1446.2207342237</ele>
        <time>2021-11-18T07:58:06Z</time>
      </trkpt>
      <trkpt lat="44.19482" lon="6.96145">
        <ele>1447.2207273506</ele>
        <time>2021-11-18T07:58:07Z</time>
      </trkpt>
      <trkpt lat="44.19482" lon="6.96146">
        <ele>1447.2207167894</ele>
        <time>2021-11-18T07:58:08Z</time>
      </trkpt>
      <trkpt lat="44.19483" lon="6.96147">
        <ele>1447.2206946611</ele>
        <time>2021-11-18T07:58:09Z</time>
      </trkpt>
      <trkpt lat="44.19483" lon="6.96148">
        <ele>1447.220685944</ele>
        <time>2021-11-18T07:58:10Z</time>
      </trkpt>
      <trkpt lat="44.19483" lon="6.96148">
        <ele>1447.2206748798</ele>
        <time>2021-11-18T07:58:13Z</time>
      </trkpt>
      <trkpt lat="44.19484" lon="6.9615">
        <ele>1448.2206274383</ele>
        <time>2021-11-18T07:58:14Z</time>
      </trkpt>
      <trkpt lat="44.19485" lon="6.96151">
        <ele>1448.220611345</ele>
        <time>2021-11-18T07:58:17Z</time>
      </trkpt>
      <trkpt lat="44.19485" lon="6.96152">
        <ele>1448.2206032984</ele>
        <time>2021-11-18T07:58:18Z</time>
      </trkpt>
      <trkpt lat="44.19485" lon="6.96153">
        <ele>1449.220615536</ele>
        <time>2021-11-18T07:58:19Z</time>
      </trkpt>
      <trkpt lat="44.19485" lon="6.96154">
        <ele>1449.22061738</ele>
        <time>2021-11-18T07:58:20Z</time>
      </trkpt>
      <trkpt lat="44.19484" lon="6.96154">
        <ele>1448.2206294499</ele>
        <time>2021-11-18T07:58:21Z</time>
      </trkpt>
      <trkpt lat="44.19483" lon="6.96155">
        <ele>1448.2206678391</ele>
        <time>2021-11-18T07:58:22Z</time>
      </trkpt>
      <trkpt lat="44.19483" lon="6.96155">
        <ele>1448.2206678391</ele>
        <time>2021-11-18T07:58:24Z</time>
      </trkpt>
      <trkpt lat="44.1948" lon="6.96157">
        <ele>1449.2208027877</ele>
        <time>2021-11-18T07:58:26Z</time>
      </trkpt>
      <trkpt lat="44.19479" lon="6.96158">
        <ele>1450.2208421826</ele>
        <time>2021-11-18T07:58:27Z</time>
      </trkpt>
      <trkpt lat="44.19478" lon="6.96158">
        <ele>1451.2208847627</ele>
        <time>2021-11-18T07:58:28Z</time>
      </trkpt>
      <trkpt lat="44.19476" lon="6.96157">
        <ele>1452.2209618762</ele>
        <time>2021-11-18T07:58:30Z</time>
      </trkpt>
      <trkpt lat="44.19475" lon="6.96157">
        <ele>1452.2209856808</ele>
        <time>2021-11-18T07:58:32Z</time>
      </trkpt>
      <trkpt lat="44.19473" lon="6.96157">
        <ele>1453.2210775465</ele>
        <time>2021-11-18T07:58:34Z</time>
      </trkpt>
      <trkpt lat="44.19472" lon="6.96158">
        <ele>1453.2211171091</ele>
        <time>2021-11-18T07:58:35Z</time>
      </trkpt>
      <trkpt lat="44.19472" lon="6.96158">
        <ele>1453.2211358845</ele>
        <time>2021-11-18T07:58:36Z</time>
      </trkpt>
      <trkpt lat="44.19471" lon="6.96159">
        <ele>1453.2211476192</ele>
        <time>2021-11-18T07:58:40Z</time>
      </trkpt>
      <trkpt lat="44.1947" lon="6.96159">
        <ele>1454.2211937197</ele>
        <time>2021-11-18T07:58:41Z</time>
      </trkpt>
      <trkpt lat="44.1947" lon="6.96159">
        <ele>1454.2212183625</ele>
        <time>2021-11-18T07:58:42Z</time>
      </trkpt>
      <trkpt lat="44.19468" lon="6.96159">
        <ele>1453.2212641276</ele>
        <time>2021-11-18T07:58:44Z</time>
      </trkpt>
      <trkpt lat="44.19468" lon="6.96159">
        <ele>1454.2212969847</ele>
        <time>2021-11-18T07:58:45Z</time>
      </trkpt>
      <trkpt lat="44.19467" lon="6.96159">
        <ele>1455.2213241421</ele>
        <time>2021-11-18T07:58:46Z</time>
      </trkpt>
      <trkpt lat="44.19466" lon="6.9616">
        <ele>1455.2213529758</ele>
        <time>2021-11-18T07:58:47Z</time>
      </trkpt>
      <trkpt lat="44.19466" lon="6.96161">
        <ele>1455.2213705778</ele>
        <time>2021-11-18T07:58:48Z</time>
      </trkpt>
      <trkpt lat="44.19466" lon="6.96162">
        <ele>1455.2213772833</ele>
        <time>2021-11-18T07:58:51Z</time>
      </trkpt>
      <trkpt lat="44.19467" lon="6.96166">
        <ele>1454.2213192806</ele>
        <time>2021-11-18T07:58:52Z</time>
      </trkpt>
      <trkpt lat="44.19467" lon="6.96167">
        <ele>1454.2213189453</ele>
        <time>2021-11-18T07:58:53Z</time>
      </trkpt>
      <trkpt lat="44.19467" lon="6.96167">
        <ele>1455.2213152573</ele>
        <time>2021-11-18T07:58:57Z</time>
      </trkpt>
      <trkpt lat="44.19468" lon="6.9617">
        <ele>1454.2212666422</ele>
        <time>2021-11-18T07:58:58Z</time>
      </trkpt>
      <trkpt lat="44.19469" lon="6.9617">
        <ele>1453.2212381437</ele>
        <time>2021-11-18T07:59:00Z</time>
      </trkpt>
      <trkpt lat="44.19469" lon="6.9617">
        <ele>1453.2212339528</ele>
        <time>2021-11-18T07:59:02Z</time>
      </trkpt>
      <trkpt lat="44.19469" lon="6.96172">
        <ele>1453.2212562487</ele>
        <time>2021-11-18T07:59:04Z</time>
      </trkpt>
      <trkpt lat="44.19467" lon="6.96172">
        <ele>1454.2213050313</ele>
        <time>2021-11-18T07:59:06Z</time>
      </trkpt>
      <trkpt lat="44.19467" lon="6.96173">
        <ele>1454.2213075459</ele>
        <time>2021-11-18T07:59:08Z</time>
      </trkpt>
      <trkpt lat="44.19467" lon="6.96174">
        <ele>1453.2213358767</ele>
        <time>2021-11-18T07:59:10Z</time>
      </trkpt>
      <trkpt lat="44.19466" lon="6.96175">
        <ele>1453.2213512994</ele>
        <time>2021-11-18T07:59:12Z</time>
      </trkpt>
      <trkpt lat="44.19466" lon="6.96175">
        <ele>1454.2213640399</ele>
        <time>2021-11-18T07:59:13Z</time>
      </trkpt>
      <trkpt lat="44.19464" lon="6.96175">
        <ele>1455.221451547</ele>
        <time>2021-11-18T07:59:15Z</time>
      </trkpt>
      <trkpt lat="44.19463" lon="6.96176">
        <ele>1455.2214890979</ele>
        <time>2021-11-18T07:59:16Z</time>
      </trkpt>
      <trkpt lat="44.19462" lon="6.96176">
        <ele>1455.2215321809</ele>
        <time>2021-11-18T07:59:17Z</time>
      </trkpt>
      <trkpt lat="44.1946" lon="6.96178">
        <ele>1455.2215823047</ele>
        <time>2021-11-18T07:59:19Z</time>
      </trkpt>
      <trkpt lat="44.19461" lon="6.96178">
        <ele>1457.2215611823</ele>
        <time>2021-11-18T07:59:26Z</time>
      </trkpt>
      <trkpt lat="44.19462" lon="6.96179">
        <ele>1458.221512232</ele>
        <time>2021-11-18T07:59:27Z</time>
      </trkpt>
      <trkpt lat="44.19463" lon="6.9618">
        <ele>1457.2214944623</ele>
        <time>2021-11-18T07:59:28Z</time>
      </trkpt>
      <trkpt lat="44.19464" lon="6.9618">
        <ele>1457.2214485295</ele>
        <time>2021-11-18T07:59:30Z</time>
      </trkpt>
      <trkpt lat="44.19465" lon="6.96179">
        <ele>1457.2214155048</ele>
        <time>2021-11-18T07:59:31Z</time>
      </trkpt>
      <trkpt lat="44.19465" lon="6.96179">
        <ele>1456.2213886827</ele>
        <time>2021-11-18T07:59:32Z</time>
      </trkpt>
      <trkpt lat="44.19466" lon="6.96179">
        <ele>1456.2213626988</ele>
        <time>2021-11-18T07:59:36Z</time>
      </trkpt>
      <trkpt lat="44.19468" lon="6.9618">
        <ele>1457.2212989964</ele>
        <time>2021-11-18T07:59:37Z</time>
      </trkpt>
      <trkpt lat="44.19469" lon="6.9618">
        <ele>1457.2212557457</ele>
        <time>2021-11-18T07:59:39Z</time>
      </trkpt>
      <trkpt lat="44.19471" lon="6.9618">
        <ele>1458.2211772911</ele>
        <time>2021-11-18T07:59:41Z</time>
      </trkpt>
      <trkpt lat="44.19471" lon="6.9618">
        <ele>1458.2211772911</ele>
        <time>2021-11-18T07:59:43Z</time>
      </trkpt>
      <trkpt lat="44.19471" lon="6.96182">
        <ele>1460.2211432606</ele>
        <time>2021-11-18T07:59:45Z</time>
      </trkpt>
      <trkpt lat="44.19471" lon="6.96183">
        <ele>1462.2211570069</ele>
        <time>2021-11-18T07:59:47Z</time>
      </trkpt>
      <trkpt lat="44.19471" lon="6.96184">
        <ele>1463.2211677358</ele>
        <time>2021-11-18T07:59:48Z</time>
      </trkpt>
      <trkpt lat="44.19471" lon="6.96185">
        <ele>1464.2211751118</ele>
        <time>2021-11-18T07:59:51Z</time>
      </trkpt>
      <trkpt lat="44.19472" lon="6.96188">
        <ele>1465.2211412489</ele>
        <time>2021-11-18T07:59:52Z</time>
      </trkpt>
      <trkpt lat="44.19472" lon="6.96189">
        <ele>1465.2211308554</ele>
        <time>2021-11-18T07:59:53Z</time>
      </trkpt>
      <trkpt lat="44.19471" lon="6.9619">
        <ele>1466.2211484574</ele>
        <time>2021-11-18T07:59:57Z</time>
      </trkpt>
      <trkpt lat="44.19472" lon="6.96193">
        <ele>1467.2211362198</ele>
        <time>2021-11-18T07:59:58Z</time>
      </trkpt>
      <trkpt lat="44.19471" lon="6.96194">
        <ele>1467.2211435959</ele>
        <time>2021-11-18T08:00:00Z</time>
      </trkpt>
      <trkpt lat="44.19471" lon="6.96195">
        <ele>1467.2211558335</ele>
        <time>2021-11-18T08:00:03Z</time>
      </trkpt>
      <trkpt lat="44.1947" lon="6.96196">
        <ele>1468.2212046161</ele>
        <time>2021-11-18T08:00:04Z</time>
      </trkpt>
      <trkpt lat="44.19469" lon="6.96196">
        <ele>1468.2212282531</ele>
        <time>2021-11-18T08:00:05Z</time>
      </trkpt>
      <trkpt lat="44.19469" lon="6.96197">
        <ele>1469.2212577574</ele>
        <time>2021-11-18T08:00:06Z</time>
      </trkpt>
      <trkpt lat="44.19467" lon="6.96197">
        <ele>1469.2213177718</ele>
        <time>2021-11-18T08:00:07Z</time>
      </trkpt>
      <trkpt lat="44.19467" lon="6.96197">
        <ele>1469.2213177718</ele>
        <time>2021-11-18T08:00:09Z</time>
      </trkpt>
      <trkpt lat="44.19466" lon="6.96198">
        <ele>1471.2213668898</ele>
        <time>2021-11-18T08:00:10Z</time>
      </trkpt>
      <trkpt lat="44.19465" lon="6.96198">
        <ele>1472.2213970646</ele>
        <time>2021-11-18T08:00:11Z</time>
      </trkpt>
      <trkpt lat="44.19464" lon="6.96199">
        <ele>1472.2214289159</ele>
        <time>2021-11-18T08:00:12Z</time>
      </trkpt>
      <trkpt lat="44.19464" lon="6.962">
        <ele>1472.2214488648</ele>
        <time>2021-11-18T08:00:13Z</time>
      </trkpt>
      <trkpt lat="44.19463" lon="6.96203">
        <ele>1473.2214984857</ele>
        <time>2021-11-18T08:00:15Z</time>
      </trkpt>
      <trkpt lat="44.19462" lon="6.96204">
        <ele>1473.2215271518</ele>
        <time>2021-11-18T08:00:16Z</time>
      </trkpt>
      <trkpt lat="44.19461" lon="6.96205">
        <ele>1473.2215757668</ele>
        <time>2021-11-18T08:00:17Z</time>
      </trkpt>
      <trkpt lat="44.1946" lon="6.96204">
        <ele>1473.2215864956</ele>
        <time>2021-11-18T08:00:18Z</time>
      </trkpt>
      <trkpt lat="44.1946" lon="6.96205">
        <ele>1474.2216198556</ele>
        <time>2021-11-18T08:00:22Z</time>
      </trkpt>
      <trkpt lat="44.19457" lon="6.96206">
        <ele>1475.2217058539</ele>
        <time>2021-11-18T08:00:23Z</time>
      </trkpt>
      <trkpt lat="44.19456" lon="6.96206">
        <ele>1476.2217781059</ele>
        <time>2021-11-18T08:00:25Z</time>
      </trkpt>
      <trkpt lat="44.19455" lon="6.96207">
        <ele>1477.2218094543</ele>
        <time>2021-11-18T08:00:26Z</time>
      </trkpt>
      <trkpt lat="44.19455" lon="6.96207">
        <ele>1477.2218094543</ele>
        <time>2021-11-18T08:00:27Z</time>
      </trkpt>
      <trkpt lat="44.19453" lon="6.96208">
        <ele>1477.2218684629</ele>
        <time>2021-11-18T08:00:29Z</time>
      </trkpt>
      <trkpt lat="44.19453" lon="6.9621">
        <ele>1477.221885059</ele>
        <time>2021-11-18T08:00:30Z</time>
      </trkpt>
      <trkpt lat="44.19452" lon="6.96212">
        <ele>1475.2219177485</ele>
        <time>2021-11-18T08:00:31Z</time>
      </trkpt>
      <trkpt lat="44.19451" lon="6.96213">
        <ele>1476.221949935</ele>
        <time>2021-11-18T08:00:33Z</time>
      </trkpt>
      <trkpt lat="44.19451" lon="6.96215">
        <ele>1477.2219678722</ele>
        <time>2021-11-18T08:00:35Z</time>
      </trkpt>
      <trkpt lat="44.19451" lon="6.96216">
        <ele>1477.221969381</ele>
        <time>2021-11-18T08:00:36Z</time>
      </trkpt>
      <trkpt lat="44.1945" lon="6.96216">
        <ele>1478.2219876535</ele>
        <time>2021-11-18T08:00:37Z</time>
      </trkpt>
      <trkpt lat="44.1945" lon="6.96218">
        <ele>1478.2220158167</ele>
        <time>2021-11-18T08:00:38Z</time>
      </trkpt>
      <trkpt lat="44.19448" lon="6.96219">
        <ele>1477.2220679522</ele>
        <time>2021-11-18T08:00:39Z</time>
      </trkpt>
      <trkpt lat="44.19448" lon="6.96221">
        <ele>1476.222096283</ele>
        <time>2021-11-18T08:00:41Z</time>
      </trkpt>
      <trkpt lat="44.19447" lon="6.96222">
        <ele>1475.2221076824</ele>
        <time>2021-11-18T08:00:42Z</time>
      </trkpt>
      <trkpt lat="44.19447" lon="6.96223">
        <ele>1474.2221355103</ele>
        <time>2021-11-18T08:00:43Z</time>
      </trkpt>
      <trkpt lat="44.19445" lon="6.96226">
        <ele>1474.2222012244</ele>
        <time>2021-11-18T08:00:45Z</time>
      </trkpt>
      <trkpt lat="44.19445" lon="6.96228">
        <ele>1474.2222154737</ele>
        <time>2021-11-18T08:00:46Z</time>
      </trkpt>
      <trkpt lat="44.19444" lon="6.9623">
        <ele>1474.2222270407</ele>
        <time>2021-11-18T08:00:47Z</time>
      </trkpt>
      <trkpt lat="44.19443" lon="6.96232">
        <ele>1475.2222640887</ele>
        <time>2021-11-18T08:00:49Z</time>
      </trkpt>
      <trkpt lat="44.19443" lon="6.96233">
        <ele>1475.2222952694</ele>
        <time>2021-11-18T08:00:50Z</time>
      </trkpt>
      <trkpt lat="44.19442" lon="6.96235">
        <ele>1475.2223262824</ele>
        <time>2021-11-18T08:00:51Z</time>
      </trkpt>
      <trkpt lat="44.19442" lon="6.96237">
        <ele>1476.2223415375</ele>
        <time>2021-11-18T08:00:53Z</time>
      </trkpt>
      <trkpt lat="44.19441" lon="6.96239">
        <ele>1476.2223666832</ele>
        <time>2021-11-18T08:00:55Z</time>
      </trkpt>
      <trkpt lat="44.19441" lon="6.9624">
        <ele>1477.2223686948</ele>
        <time>2021-11-18T08:00:58Z</time>
      </trkpt>
      <trkpt lat="44.19441" lon="6.9624">
        <ele>1477.2223665155</ele>
        <time>2021-11-18T08:00:59Z</time>
      </trkpt>
      <trkpt lat="44.19441" lon="6.96241">
        <ele>1477.2223470695</ele>
        <time>2021-11-18T08:01:00Z</time>
      </trkpt>
      <trkpt lat="44.19441" lon="6.96242">
        <ele>1478.2223648392</ele>
        <time>2021-11-18T08:01:01Z</time>
      </trkpt>
      <trkpt lat="44.1944" lon="6.96243">
        <ele>1478.2223995402</ele>
        <time>2021-11-18T08:01:02Z</time>
      </trkpt>
      <trkpt lat="44.19439" lon="6.96243">
        <ele>1479.2224243507</ele>
        <time>2021-11-18T08:01:03Z</time>
      </trkpt>
      <trkpt lat="44.19439" lon="6.96243">
        <ele>1480.2224560343</ele>
        <time>2021-11-18T08:01:06Z</time>
      </trkpt>
      <trkpt lat="44.19436" lon="6.96244">
        <ele>1481.2225584611</ele>
        <time>2021-11-18T08:01:07Z</time>
      </trkpt>
      <trkpt lat="44.19435" lon="6.96245">
        <ele>1481.2226045616</ele>
        <time>2021-11-18T08:01:08Z</time>
      </trkpt>
      <trkpt lat="44.19434" lon="6.96246">
        <ele>1483.2226593792</ele>
        <time>2021-11-18T08:01:10Z</time>
      </trkpt>
      <trkpt lat="44.19433" lon="6.96247">
        <ele>1483.2226813398</ele>
        <time>2021-11-18T08:01:11Z</time>
      </trkpt>
      <trkpt lat="44.19433" lon="6.96247">
        <ele>1484.2226996124</ele>
        <time>2021-11-18T08:01:12Z</time>
      </trkpt>
      <trkpt lat="44.19432" lon="6.96248">
        <ele>1484.2227034681</ele>
        <time>2021-11-18T08:01:13Z</time>
      </trkpt>
      <trkpt lat="44.19433" lon="6.9625">
        <ele>1485.2226907276</ele>
        <time>2021-11-18T08:01:14Z</time>
      </trkpt>
      <trkpt lat="44.19433" lon="6.96251">
        <ele>1486.2226932421</ele>
        <time>2021-11-18T08:01:15Z</time>
      </trkpt>
      <trkpt lat="44.19433" lon="6.96252">
        <ele>1486.2226826809</ele>
        <time>2021-11-18T08:01:18Z</time>
      </trkpt>
      <trkpt lat="44.19432" lon="6.96253">
        <ele>1487.2227180526</ele>
        <time>2021-11-18T08:01:19Z</time>
      </trkpt>
      <trkpt lat="44.19431" lon="6.96253">
        <ele>1487.2227643207</ele>
        <time>2021-11-18T08:01:21Z</time>
      </trkpt>
      <trkpt lat="44.19429" lon="6.96253">
        <ele>1487.2228432782</ele>
        <time>2021-11-18T08:01:23Z</time>
      </trkpt>
      <trkpt lat="44.19428" lon="6.96254">
        <ele>1488.2228685915</ele>
        <time>2021-11-18T08:01:25Z</time>
      </trkpt>
      <trkpt lat="44.19428" lon="6.96255">
        <ele>1488.2228675857</ele>
        <time>2021-11-18T08:01:26Z</time>
      </trkpt>
      <trkpt lat="44.19428" lon="6.96256">
        <ele>1488.2228974253</ele>
        <time>2021-11-18T08:01:27Z</time>
      </trkpt>
      <trkpt lat="44.19426" lon="6.96257">
        <ele>1487.2229514048</ele>
        <time>2021-11-18T08:01:29Z</time>
      </trkpt>
      <trkpt lat="44.19425" lon="6.96257">
        <ele>1488.222989291</ele>
        <time>2021-11-18T08:01:31Z</time>
      </trkpt>
      <trkpt lat="44.19425" lon="6.96257">
        <ele>1488.223016616</ele>
        <time>2021-11-18T08:01:32Z</time>
      </trkpt>
      <trkpt lat="44.19424" lon="6.96258">
        <ele>1489.223030027</ele>
        <time>2021-11-18T08:01:33Z</time>
      </trkpt>
      <trkpt lat="44.19424" lon="6.96258">
        <ele>1489.2230545022</ele>
        <time>2021-11-18T08:01:37Z</time>
      </trkpt>
      <trkpt lat="44.19422" lon="6.96258">
        <ele>1489.2231401652</ele>
        <time>2021-11-18T08:01:39Z</time>
      </trkpt>
      <trkpt lat="44.19421" lon="6.96259">
        <ele>1490.2231653109</ele>
        <time>2021-11-18T08:01:40Z</time>
      </trkpt>
      <trkpt lat="44.1942" lon="6.96258">
        <ele>1490.2232216373</ele>
        <time>2021-11-18T08:01:41Z</time>
      </trkpt>
      <trkpt lat="44.19418" lon="6.96259">
        <ele>1491.2232796401</ele>
        <time>2021-11-18T08:01:43Z</time>
      </trkpt>
      <trkpt lat="44.19418" lon="6.9626">
        <ele>1491.2232808135</ele>
        <time>2021-11-18T08:01:45Z</time>
      </trkpt>
      <trkpt lat="44.19418" lon="6.96261">
        <ele>1491.2232943922</ele>
        <time>2021-11-18T08:01:46Z</time>
      </trkpt>
      <trkpt lat="44.19417" lon="6.96262">
        <ele>1491.2233034447</ele>
        <time>2021-11-18T08:01:49Z</time>
      </trkpt>
      <trkpt lat="44.19417" lon="6.96263">
        <ele>1491.2233049534</ele>
        <time>2021-11-18T08:01:50Z</time>
      </trkpt>
      <trkpt lat="44.19418" lon="6.96265">
        <ele>1492.223281987</ele>
        <time>2021-11-18T08:01:51Z</time>
      </trkpt>
      <trkpt lat="44.19418" lon="6.96266">
        <ele>1493.2232918777</ele>
        <time>2021-11-18T08:01:52Z</time>
      </trkpt>
      <trkpt lat="44.19417" lon="6.96267">
        <ele>1493.2233202085</ele>
        <time>2021-11-18T08:01:54Z</time>
      </trkpt>
      <trkpt lat="44.19417" lon="6.96268">
        <ele>1493.2233051211</ele>
        <time>2021-11-18T08:01:56Z</time>
      </trkpt>
      <trkpt lat="44.19417" lon="6.96269">
        <ele>1493.2233227231</ele>
        <time>2021-11-18T08:01:57Z</time>
      </trkpt>
      <trkpt lat="44.19417" lon="6.9627">
        <ele>1493.2233081385</ele>
        <time>2021-11-18T08:01:58Z</time>
      </trkpt>
      <trkpt lat="44.19417" lon="6.96271">
        <ele>1493.2233267464</ele>
        <time>2021-11-18T08:02:00Z</time>
      </trkpt>
      <trkpt lat="44.19417" lon="6.96272">
        <ele>1494.2233118266</ele>
        <time>2021-11-18T08:02:01Z</time>
      </trkpt>
      <trkpt lat="44.19417" lon="6.96271">
        <ele>1494.2233411632</ele>
        <time>2021-11-18T08:02:02Z</time>
      </trkpt>
      <trkpt lat="44.19416" lon="6.96271">
        <ele>1494.2233738527</ele>
        <time>2021-11-18T08:02:04Z</time>
      </trkpt>
      <trkpt lat="44.19415" lon="6.96271">
        <ele>1495.223407045</ele>
        <time>2021-11-18T08:02:05Z</time>
      </trkpt>
      <trkpt lat="44.19415" lon="6.96272">
        <ele>1494.2234164327</ele>
        <time>2021-11-18T08:02:06Z</time>
      </trkpt>
      <trkpt lat="44.19414" lon="6.96271">
        <ele>1495.2234571688</ele>
        <time>2021-11-18T08:02:07Z</time>
      </trkpt>
      <trkpt lat="44.19413" lon="6.96271">
        <ele>1495.2234849967</ele>
        <time>2021-11-18T08:02:08Z</time>
      </trkpt>
      <trkpt lat="44.19412" lon="6.9627">
        <ele>1495.223533947</ele>
        <time>2021-11-18T08:02:09Z</time>
      </trkpt>
      <trkpt lat="44.19411" lon="6.96269">
        <ele>1496.2235696539</ele>
        <time>2021-11-18T08:02:10Z</time>
      </trkpt>
      <trkpt lat="44.1941" lon="6.96268">
        <ele>1495.2235844061</ele>
        <time>2021-11-18T08:02:15Z</time>
      </trkpt>
      <trkpt lat="44.1941" lon="6.96269">
        <ele>1496.223604355</ele>
        <time>2021-11-18T08:02:16Z</time>
      </trkpt>
      <trkpt lat="44.19409" lon="6.96269">
        <ele>1496.2236293331</ele>
        <time>2021-11-18T08:02:17Z</time>
      </trkpt>
      <trkpt lat="44.19409" lon="6.96269">
        <ele>1497.2236422412</ele>
        <time>2021-11-18T08:02:18Z</time>
      </trkpt>
      <trkpt lat="44.19407" lon="6.96269">
        <ele>1498.2237069495</ele>
        <time>2021-11-18T08:02:20Z</time>
      </trkpt>
      <trkpt lat="44.19406" lon="6.96268">
        <ele>1498.2237783633</ele>
        <time>2021-11-18T08:02:21Z</time>
      </trkpt>
      <trkpt lat="44.19404" lon="6.96268">
        <ele>1499.2238261402</ele>
        <time>2021-11-18T08:02:23Z</time>
      </trkpt>
      <trkpt lat="44.19402" lon="6.96269">
        <ele>1499.2239148207</ele>
        <time>2021-11-18T08:02:25Z</time>
      </trkpt>
      <trkpt lat="44.19402" lon="6.96271">
        <ele>1499.2239198498</ele>
        <time>2021-11-18T08:02:26Z</time>
      </trkpt>
      <trkpt lat="44.19402" lon="6.96272">
        <ele>1498.22393829</ele>
        <time>2021-11-18T08:02:27Z</time>
      </trkpt>
      <trkpt lat="44.19401" lon="6.96273">
        <ele>1498.2239567302</ele>
        <time>2021-11-18T08:02:28Z</time>
      </trkpt>
      <trkpt lat="44.194" lon="6.96275">
        <ele>1499.2240164094</ele>
        <time>2021-11-18T08:02:30Z</time>
      </trkpt>
      <trkpt lat="44.19399" lon="6.96275">
        <ele>1499.2240407169</ele>
        <time>2021-11-18T08:02:31Z</time>
      </trkpt>
      <trkpt lat="44.19398" lon="6.96275">
        <ele>1499.2240700535</ele>
        <time>2021-11-18T08:02:32Z</time>
      </trkpt>
      <trkpt lat="44.19397" lon="6.96275">
        <ele>1499.2241069339</ele>
        <time>2021-11-18T08:02:33Z</time>
      </trkpt>
      <trkpt lat="44.19396" lon="6.96275">
        <ele>1500.2241459936</ele>
        <time>2021-11-18T08:02:35Z</time>
      </trkpt>
      <trkpt lat="44.19396" lon="6.96275">
        <ele>1501.2241612487</ele>
        <time>2021-11-18T08:02:38Z</time>
      </trkpt>
      <trkpt lat="44.19394" lon="6.96277">
        <ele>1500.2242269628</ele>
        <time>2021-11-18T08:02:40Z</time>
      </trkpt>
      <trkpt lat="44.19394" lon="6.96278">
        <ele>1500.2242484204</ele>
        <time>2021-11-18T08:02:41Z</time>
      </trkpt>
      <trkpt lat="44.19393" lon="6.96278">
        <ele>1500.2242863066</ele>
        <time>2021-11-18T08:02:42Z</time>
      </trkpt>
      <trkpt lat="44.19392" lon="6.96278">
        <ele>1500.2243027352</ele>
        <time>2021-11-18T08:02:43Z</time>
      </trkpt>
      <trkpt lat="44.19392" lon="6.9628">
        <ele>1500.2243357599</ele>
        <time>2021-11-18T08:02:45Z</time>
      </trkpt>
      <trkpt lat="44.19392" lon="6.96282">
        <ele>1501.2243171521</ele>
        <time>2021-11-18T08:02:46Z</time>
      </trkpt>
      <trkpt lat="44.19392" lon="6.96283">
        <ele>1501.2243257016</ele>
        <time>2021-11-18T08:02:47Z</time>
      </trkpt>
      <trkpt lat="44.19392" lon="6.96283">
        <ele>1500.2243396156</ele>
        <time>2021-11-18T08:02:48Z</time>
      </trkpt>
      <trkpt lat="44.19391" lon="6.96284">
        <ele>1500.224356547</ele>
        <time>2021-11-18T08:02:50Z</time>
      </trkpt>
      <trkpt lat="44.19391" lon="6.96285">
        <ele>1501.2243714668</ele>
        <time>2021-11-18T08:02:52Z</time>
      </trkpt>
      <trkpt lat="44.1939" lon="6.96285">
        <ele>1501.2243878953</ele>
        <time>2021-11-18T08:02:53Z</time>
      </trkpt>
      <trkpt lat="44.19388" lon="6.96286">
        <ele>1500.224464003</ele>
        <time>2021-11-18T08:02:55Z</time>
      </trkpt>
      <trkpt lat="44.19388" lon="6.96287">
        <ele>1500.2244966924</ele>
        <time>2021-11-18T08:02:56Z</time>
      </trkpt>
      <trkpt lat="44.19388" lon="6.96288">
        <ele>1500.2244878076</ele>
        <time>2021-11-18T08:02:57Z</time>
      </trkpt>
      <trkpt lat="44.19387" lon="6.96288">
        <ele>1499.2245303877</ele>
        <time>2021-11-18T08:02:59Z</time>
      </trkpt>
      <trkpt lat="44.19387" lon="6.9629">
        <ele>1502.2245230116</ele>
        <time>2021-11-18T08:03:03Z</time>
      </trkpt>
      <trkpt lat="44.19387" lon="6.96292">
        <ele>1502.2245359197</ele>
        <time>2021-11-18T08:03:05Z</time>
      </trkpt>
      <trkpt lat="44.19386" lon="6.96292">
        <ele>1503.2245541923</ele>
        <time>2021-11-18T08:03:06Z</time>
      </trkpt>
      <trkpt lat="44.19386" lon="6.96293">
        <ele>1503.2245744765</ele>
        <time>2021-11-18T08:03:07Z</time>
      </trkpt>
      <trkpt lat="44.19386" lon="6.96295">
        <ele>1505.2245644182</ele>
        <time>2021-11-18T08:03:09Z</time>
      </trkpt>
      <trkpt lat="44.19386" lon="6.96296">
        <ele>1505.2245741412</ele>
        <time>2021-11-18T08:03:10Z</time>
      </trkpt>
      <trkpt lat="44.19385" lon="6.96297">
        <ele>1505.2245920785</ele>
        <time>2021-11-18T08:03:11Z</time>
      </trkpt>
      <trkpt lat="44.19385" lon="6.96298">
        <ele>1505.2246068306</ele>
        <time>2021-11-18T08:03:12Z</time>
      </trkpt>
      <trkpt lat="44.19385" lon="6.96298">
        <ele>1505.2246064954</ele>
        <time>2021-11-18T08:03:13Z</time>
      </trkpt>
      <trkpt lat="44.19384" lon="6.96299">
        <ele>1505.2246294618</ele>
        <time>2021-11-18T08:03:16Z</time>
      </trkpt>
      <trkpt lat="44.19384" lon="6.96302">
        <ele>1508.224647399</ele>
        <time>2021-11-18T08:03:17Z</time>
      </trkpt>
      <trkpt lat="44.19383" lon="6.96303">
        <ele>1509.2246690243</ele>
        <time>2021-11-18T08:03:20Z</time>
      </trkpt>
      <trkpt lat="44.19383" lon="6.96303">
        <ele>1509.2246841118</ele>
        <time>2021-11-18T08:03:21Z</time>
      </trkpt>
      <trkpt lat="44.19382" lon="6.96303">
        <ele>1510.2247040607</ele>
        <time>2021-11-18T08:03:22Z</time>
      </trkpt>
      <trkpt lat="44.19382" lon="6.96305">
        <ele>1511.2247047313</ele>
        <time>2021-11-18T08:03:23Z</time>
      </trkpt>
      <trkpt lat="44.19382" lon="6.96306">
        <ele>1511.2247174717</ele>
        <time>2021-11-18T08:03:25Z</time>
      </trkpt>
      <trkpt lat="44.19382" lon="6.96307">
        <ele>1511.2247092575</ele>
        <time>2021-11-18T08:03:26Z</time>
      </trkpt>
      <trkpt lat="44.19382" lon="6.96308">
        <ele>1511.224709928</ele>
        <time>2021-11-18T08:03:27Z</time>
      </trkpt>
      <trkpt lat="44.19382" lon="6.9631">
        <ele>1512.2247297093</ele>
        <time>2021-11-18T08:03:29Z</time>
      </trkpt>
      <trkpt lat="44.19382" lon="6.96312">
        <ele>1514.2247214951</ele>
        <time>2021-11-18T08:03:31Z</time>
      </trkpt>
      <trkpt lat="44.19382" lon="6.96314">
        <ele>1515.2247164659</ele>
        <time>2021-11-18T08:03:32Z</time>
      </trkpt>
      <trkpt lat="44.19382" lon="6.96314">
        <ele>1515.2247164659</ele>
        <time>2021-11-18T08:03:33Z</time>
      </trkpt>
      <trkpt lat="44.19382" lon="6.96315">
        <ele>1515.224735409</ele>
        <time>2021-11-18T08:03:35Z</time>
      </trkpt>
      <trkpt lat="44.19381" lon="6.96316">
        <ele>1516.2247431204</ele>
        <time>2021-11-18T08:03:36Z</time>
      </trkpt>
      <trkpt lat="44.19381" lon="6.96318">
        <ele>1516.224757202</ele>
        <time>2021-11-18T08:03:37Z</time>
      </trkpt>
      <trkpt lat="44.19379" lon="6.96318">
        <ele>1517.224823419</ele>
        <time>2021-11-18T08:03:39Z</time>
      </trkpt>
      <trkpt lat="44.19379" lon="6.96318">
        <ele>1517.2248458825</ele>
        <time>2021-11-18T08:03:43Z</time>
      </trkpt>
      <trkpt lat="44.19377" lon="6.96319">
        <ele>1519.2249112613</ele>
        <time>2021-11-18T08:03:45Z</time>
      </trkpt>
      <trkpt lat="44.19376" lon="6.9632">
        <ele>1519.2249457948</ele>
        <time>2021-11-18T08:03:46Z</time>
      </trkpt>
      <trkpt lat="44.19376" lon="6.96321">
        <ele>1519.2249680907</ele>
        <time>2021-11-18T08:03:48Z</time>
      </trkpt>
      <trkpt lat="44.19375" lon="6.96322">
        <ele>1520.2250126824</ele>
        <time>2021-11-18T08:03:50Z</time>
      </trkpt>
      <trkpt lat="44.19374" lon="6.96322">
        <ele>1521.2250581123</ele>
        <time>2021-11-18T08:03:51Z</time>
      </trkpt>
      <trkpt lat="44.19373" lon="6.96323">
        <ele>1521.2250804082</ele>
        <time>2021-11-18T08:03:52Z</time>
      </trkpt>
      <trkpt lat="44.19373" lon="6.96325">
        <ele>1521.2250797376</ele>
        <time>2021-11-18T08:03:53Z</time>
      </trkpt>
      <trkpt lat="44.19374" lon="6.96325">
        <ele>1519.2250530832</ele>
        <time>2021-11-18T08:04:03Z</time>
      </trkpt>
      <trkpt lat="44.19374" lon="6.96326">
        <ele>1519.2250239141</ele>
        <time>2021-11-18T08:04:04Z</time>
      </trkpt>
      <trkpt lat="44.19375" lon="6.96326">
        <ele>1519.225007318</ele>
        <time>2021-11-18T08:04:05Z</time>
      </trkpt>
      <trkpt lat="44.19375" lon="6.96326">
        <ele>1519.2249828428</ele>
        <time>2021-11-18T08:04:06Z</time>
      </trkpt>
      <trkpt lat="44.19376" lon="6.96326">
        <ele>1519.2249556854</ele>
        <time>2021-11-18T08:04:07Z</time>
      </trkpt>
      <trkpt lat="44.19377" lon="6.96326">
        <ele>1519.2249335572</ele>
        <time>2021-11-18T08:04:08Z</time>
      </trkpt>
      <trkpt lat="44.19377" lon="6.96327">
        <ele>1518.224932719</ele>
        <time>2021-11-18T08:04:10Z</time>
      </trkpt>
      <trkpt lat="44.19376" lon="6.96328">
        <ele>1520.2249582</ele>
        <time>2021-11-18T08:04:13Z</time>
      </trkpt>
      <trkpt lat="44.19376" lon="6.96328">
        <ele>1520.2249746285</ele>
        <time>2021-11-18T08:04:17Z</time>
      </trkpt>
      <trkpt lat="44.19375" lon="6.96329">
        <ele>1522.2250183821</ele>
        <time>2021-11-18T08:04:18Z</time>
      </trkpt>
      <trkpt lat="44.19374" lon="6.96328">
        <ele>1522.2250272669</ele>
        <time>2021-11-18T08:04:19Z</time>
      </trkpt>
      <trkpt lat="44.19374" lon="6.96328">
        <ele>1522.2250403427</ele>
        <time>2021-11-18T08:04:20Z</time>
      </trkpt>
      <trkpt lat="44.19374" lon="6.96327">
        <ele>1522.225049898</ele>
        <time>2021-11-18T08:04:23Z</time>
      </trkpt>
      <trkpt lat="44.19372" lon="6.96326">
        <ele>1522.2251104154</ele>
        <time>2021-11-18T08:04:24Z</time>
      </trkpt>
      <trkpt lat="44.19372" lon="6.96326">
        <ele>1523.2251402549</ele>
        <time>2021-11-18T08:04:25Z</time>
      </trkpt>
      <trkpt lat="44.19371" lon="6.96326">
        <ele>1523.2251788117</ele>
        <time>2021-11-18T08:04:26Z</time>
      </trkpt>
      <trkpt lat="44.1937" lon="6.96326">
        <ele>1525.2252135128</ele>
        <time>2021-11-18T08:04:29Z</time>
      </trkpt>
      <trkpt lat="44.19367" lon="6.96327">
        <ele>1526.2253166102</ele>
        <time>2021-11-18T08:04:31Z</time>
      </trkpt>
      <trkpt lat="44.19367" lon="6.96327">
        <ele>1526.2253335416</ele>
        <time>2021-11-18T08:04:32Z</time>
      </trkpt>
      <trkpt lat="44.19366" lon="6.96327">
        <ele>1526.2253560051</ele>
        <time>2021-11-18T08:04:35Z</time>
      </trkpt>
      <trkpt lat="44.19364" lon="6.96328">
        <ele>1525.225434795</ele>
        <time>2021-11-18T08:04:36Z</time>
      </trkpt>
      <trkpt lat="44.19364" lon="6.96327">
        <ele>1526.2254409976</ele>
        <time>2021-11-18T08:04:38Z</time>
      </trkpt>
      <trkpt lat="44.19364" lon="6.96329">
        <ele>1526.2254388183</ele>
        <time>2021-11-18T08:04:40Z</time>
      </trkpt>
      <trkpt lat="44.19364" lon="6.9633">
        <ele>1526.2254482061</ele>
        <time>2021-11-18T08:04:41Z</time>
      </trkpt>
      <trkpt lat="44.19363" lon="6.96331">
        <ele>1527.2254632935</ele>
        <time>2021-11-18T08:04:42Z</time>
      </trkpt>
      <trkpt lat="44.19363" lon="6.96332">
        <ele>1527.2254782133</ele>
        <time>2021-11-18T08:04:43Z</time>
      </trkpt>
      <trkpt lat="44.19362" lon="6.96333">
        <ele>1527.2255219668</ele>
        <time>2021-11-18T08:04:45Z</time>
      </trkpt>
      <trkpt lat="44.19361" lon="6.96334">
        <ele>1527.2255645469</ele>
        <time>2021-11-18T08:04:46Z</time>
      </trkpt>
      <trkpt lat="44.1936" lon="6.96335">
        <ele>1527.2255982421</ele>
        <time>2021-11-18T08:04:47Z</time>
      </trkpt>
      <trkpt lat="44.19359" lon="6.96335">
        <ele>1528.2256282493</ele>
        <time>2021-11-18T08:04:50Z</time>
      </trkpt>
      <trkpt lat="44.19358" lon="6.96337">
        <ele>1527.2256879285</ele>
        <time>2021-11-18T08:04:51Z</time>
      </trkpt>
      <trkpt lat="44.19356" lon="6.96338">
        <ele>1529.2257538103</ele>
        <time>2021-11-18T08:04:53Z</time>
      </trkpt>
      <trkpt lat="44.19354" lon="6.96338">
        <ele>1529.2258235477</ele>
        <time>2021-11-18T08:04:55Z</time>
      </trkpt>
      <trkpt lat="44.19354" lon="6.96338">
        <ele>1529.2258436643</ele>
        <time>2021-11-18T08:04:56Z</time>
      </trkpt>
      <trkpt lat="44.19354" lon="6.96339">
        <ele>1530.225845173</ele>
        <time>2021-11-18T08:04:58Z</time>
      </trkpt>
      <trkpt lat="44.19353" lon="6.96339">
        <ele>1531.2258711569</ele>
        <time>2021-11-18T08:05:01Z</time>
      </trkpt>
      <trkpt lat="44.19351" lon="6.9634">
        <ele>1532.225942906</ele>
        <time>2021-11-18T08:05:02Z</time>
      </trkpt>
      <trkpt lat="44.19351" lon="6.9634">
        <ele>1532.2259645313</ele>
        <time>2021-11-18T08:05:03Z</time>
      </trkpt>
      <trkpt lat="44.1935" lon="6.96342">
        <ele>1533.2260129787</ele>
        <time>2021-11-18T08:05:05Z</time>
      </trkpt>
      <trkpt lat="44.1935" lon="6.96342">
        <ele>1533.2260129787</ele>
        <time>2021-11-18T08:05:07Z</time>
      </trkpt>
      <trkpt lat="44.19348" lon="6.96342">
        <ele>1534.2260912657</ele>
        <time>2021-11-18T08:05:08Z</time>
      </trkpt>
      <trkpt lat="44.19347" lon="6.96342">
        <ele>1535.2261237875</ele>
        <time>2021-11-18T08:05:09Z</time>
      </trkpt>
      <trkpt lat="44.19346" lon="6.96342">
        <ele>1536.2261648588</ele>
        <time>2021-11-18T08:05:10Z</time>
      </trkpt>
      <trkpt lat="44.19345" lon="6.96342">
        <ele>1538.2261963747</ele>
        <time>2021-11-18T08:05:17Z</time>
      </trkpt>
      <trkpt lat="44.19343" lon="6.96341">
        <ele>1540.2262654416</ele>
        <time>2021-11-18T08:05:18Z</time>
      </trkpt>
      <trkpt lat="44.19342" lon="6.9634">
        <ele>1540.2263066806</ele>
        <time>2021-11-18T08:05:20Z</time>
      </trkpt>
      <trkpt lat="44.19342" lon="6.9634">
        <ele>1540.2263210975</ele>
        <time>2021-11-18T08:05:21Z</time>
      </trkpt>
      <trkpt lat="44.19341" lon="6.96339">
        <ele>1541.2263459079</ele>
        <time>2021-11-18T08:05:22Z</time>
      </trkpt>
      <trkpt lat="44.1934" lon="6.9634">
        <ele>1543.2264003903</ele>
        <time>2021-11-18T08:05:24Z</time>
      </trkpt>
      <trkpt lat="44.19339" lon="6.96341">
        <ele>1544.2264339179</ele>
        <time>2021-11-18T08:05:26Z</time>
      </trkpt>
      <trkpt lat="44.19339" lon="6.96341">
        <ele>1544.2264339179</ele>
        <time>2021-11-18T08:05:29Z</time>
      </trkpt>
      <trkpt lat="44.19337" lon="6.96341">
        <ele>1545.2265212573</ele>
        <time>2021-11-18T08:05:30Z</time>
      </trkpt>
      <trkpt lat="44.19336" lon="6.96341">
        <ele>1545.22655797</ele>
        <time>2021-11-18T08:05:31Z</time>
      </trkpt>
      <trkpt lat="44.19335" lon="6.96341">
        <ele>1545.2265899889</ele>
        <time>2021-11-18T08:05:33Z</time>
      </trkpt>
      <trkpt lat="44.19335" lon="6.96342">
        <ele>1546.2266116142</ele>
        <time>2021-11-18T08:05:34Z</time>
      </trkpt>
      <trkpt lat="44.19335" lon="6.96343">
        <ele>1545.2266163081</ele>
        <time>2021-11-18T08:05:35Z</time>
      </trkpt>
      <trkpt lat="44.19334" lon="6.96344">
        <ele>1546.2266387716</ele>
        <time>2021-11-18T08:05:38Z</time>
      </trkpt>
      <trkpt lat="44.19334" lon="6.96345">
        <ele>1546.2266506739</ele>
        <time>2021-11-18T08:05:39Z</time>
      </trkpt>
      <trkpt lat="44.19333" lon="6.96345">
        <ele>1546.2266741432</ele>
        <time>2021-11-18T08:05:40Z</time>
      </trkpt>
      <trkpt lat="44.19333" lon="6.96345">
        <ele>1547.2266999595</ele>
        <time>2021-11-18T08:05:41Z</time>
      </trkpt>
      <trkpt lat="44.19332" lon="6.96344">
        <ele>1547.2267140411</ele>
        <time>2021-11-18T08:05:42Z</time>
      </trkpt>
      <trkpt lat="44.19332" lon="6.96344">
        <ele>1547.2267353311</ele>
        <time>2021-11-18T08:05:43Z</time>
      </trkpt>
      <trkpt lat="44.19331" lon="6.96343">
        <ele>1546.2267517596</ele>
        <time>2021-11-18T08:05:45Z</time>
      </trkpt>
      <trkpt lat="44.19331" lon="6.96344">
        <ele>1546.2267619856</ele>
        <time>2021-11-18T08:05:47Z</time>
      </trkpt>
      <trkpt lat="44.19331" lon="6.96345">
        <ele>1546.2267546095</ele>
        <time>2021-11-18T08:05:48Z</time>
      </trkpt>
      <trkpt lat="44.19332" lon="6.96347">
        <ele>1545.2267324813</ele>
        <time>2021-11-18T08:05:50Z</time>
      </trkpt>
      <trkpt lat="44.19332" lon="6.96347">
        <ele>1545.2267324813</ele>
        <time>2021-11-18T08:05:52Z</time>
      </trkpt>
      <trkpt lat="44.19332" lon="6.9635">
        <ele>1545.2267344929</ele>
        <time>2021-11-18T08:05:54Z</time>
      </trkpt>
      <trkpt lat="44.19331" lon="6.9635">
        <ele>1546.2267802581</ele>
        <time>2021-11-18T08:05:56Z</time>
      </trkpt>
      <trkpt lat="44.1933" lon="6.9635">
        <ele>1546.2267993689</ele>
        <time>2021-11-18T08:05:57Z</time>
      </trkpt>
      <trkpt lat="44.1933" lon="6.9635">
        <ele>1546.2268169709</ele>
        <time>2021-11-18T08:06:00Z</time>
      </trkpt>
      <trkpt lat="44.19328" lon="6.9635">
        <ele>1546.2268674299</ele>
        <time>2021-11-18T08:06:01Z</time>
      </trkpt>
      <trkpt lat="44.19328" lon="6.9635">
        <ele>1546.2268922403</ele>
        <time>2021-11-18T08:06:02Z</time>
      </trkpt>
      <trkpt lat="44.19327" lon="6.96351">
        <ele>1546.2269284502</ele>
        <time>2021-11-18T08:06:03Z</time>
      </trkpt>
      <trkpt lat="44.19326" lon="6.96351">
        <ele>1546.2269616425</ele>
        <time>2021-11-18T08:06:04Z</time>
      </trkpt>
      <trkpt lat="44.19325" lon="6.96351">
        <ele>1547.226991985</ele>
        <time>2021-11-18T08:06:06Z</time>
      </trkpt>
      <trkpt lat="44.19325" lon="6.96351">
        <ele>1549.2270164602</ele>
        <time>2021-11-18T08:06:07Z</time>
      </trkpt>
      <trkpt lat="44.19324" lon="6.9635">
        <ele>1549.2270411029</ele>
        <time>2021-11-18T08:06:08Z</time>
      </trkpt>
      <trkpt lat="44.19323" lon="6.9635">
        <ele>1549.2270632312</ele>
        <time>2021-11-18T08:06:09Z</time>
      </trkpt>
      <trkpt lat="44.19322" lon="6.96349">
        <ele>1551.2271126844</ele>
        <time>2021-11-18T08:06:11Z</time>
      </trkpt>
      <trkpt lat="44.19322" lon="6.96349">
        <ele>1551.2271126844</ele>
        <time>2021-11-18T08:06:13Z</time>
      </trkpt>
      <trkpt lat="44.19321" lon="6.96347">
        <ele>1553.2271797396</ele>
        <time>2021-11-18T08:06:14Z</time>
      </trkpt>
      <trkpt lat="44.1932" lon="6.96346">
        <ele>1553.227206897</ele>
        <time>2021-11-18T08:06:16Z</time>
      </trkpt>
      <trkpt lat="44.19319" lon="6.96345">
        <ele>1554.2272266783</ele>
        <time>2021-11-18T08:06:17Z</time>
      </trkpt>
      <trkpt lat="44.19319" lon="6.96344">
        <ele>1553.2272506505</ele>
        <time>2021-11-18T08:06:18Z</time>
      </trkpt>
      <trkpt lat="44.19318" lon="6.96344">
        <ele>1553.227267582</ele>
        <time>2021-11-18T08:06:19Z</time>
      </trkpt>
      <trkpt lat="44.19317" lon="6.96344">
        <ele>1554.2273148559</ele>
        <time>2021-11-18T08:06:20Z</time>
      </trkpt>
      <trkpt lat="44.19316" lon="6.96343">
        <ele>1554.2273425162</ele>
        <time>2021-11-18T08:06:21Z</time>
      </trkpt>
      <trkpt lat="44.19316" lon="6.96342">
        <ele>1555.227362968</ele>
        <time>2021-11-18T08:06:22Z</time>
      </trkpt>
      <trkpt lat="44.19315" lon="6.96342">
        <ele>1556.2273943163</ele>
        <time>2021-11-18T08:06:23Z</time>
      </trkpt>
      <trkpt lat="44.19314" lon="6.96342">
        <ele>1555.2274244912</ele>
        <time>2021-11-18T08:06:26Z</time>
      </trkpt>
      <trkpt lat="44.19313" lon="6.96339">
        <ele>1556.2274771295</ele>
        <time>2021-11-18T08:06:27Z</time>
      </trkpt>
      <trkpt lat="44.19312" lon="6.96338">
        <ele>1556.2275059633</ele>
        <time>2021-11-18T08:06:28Z</time>
      </trkpt>
      <trkpt lat="44.19311" lon="6.96336">
        <ele>1556.2275706716</ele>
        <time>2021-11-18T08:06:30Z</time>
      </trkpt>
      <trkpt lat="44.1931" lon="6.96336">
        <ele>1557.2275958173</ele>
        <time>2021-11-18T08:06:31Z</time>
      </trkpt>
      <trkpt lat="44.1931" lon="6.96336">
        <ele>1557.2276204601</ele>
        <time>2021-11-18T08:06:34Z</time>
      </trkpt>
      <trkpt lat="44.19307" lon="6.96336">
        <ele>1558.2277042791</ele>
        <time>2021-11-18T08:06:35Z</time>
      </trkpt>
      <trkpt lat="44.19306" lon="6.96336">
        <ele>1558.2277554087</ele>
        <time>2021-11-18T08:06:36Z</time>
      </trkpt>
      <trkpt lat="44.19305" lon="6.96336">
        <ele>1559.2278060354</ele>
        <time>2021-11-18T08:06:37Z</time>
      </trkpt>
      <trkpt lat="44.19303" lon="6.96336">
        <ele>1560.2278657146</ele>
        <time>2021-11-18T08:06:38Z</time>
      </trkpt>
      <trkpt lat="44.19302" lon="6.96336">
        <ele>1560.2279119827</ele>
        <time>2021-11-18T08:06:39Z</time>
      </trkpt>
      <trkpt lat="44.19301" lon="6.96336">
        <ele>1561.2279582508</ele>
        <time>2021-11-18T08:06:40Z</time>
      </trkpt>
      <trkpt lat="44.193" lon="6.96335">
        <ele>1561.2279862463</ele>
        <time>2021-11-18T08:06:41Z</time>
      </trkpt>
      <trkpt lat="44.193" lon="6.96335">
        <ele>1561.2280006632</ele>
        <time>2021-11-18T08:06:42Z</time>
      </trkpt>
      <trkpt lat="44.19299" lon="6.96335">
        <ele>1561.2280330174</ele>
        <time>2021-11-18T08:06:44Z</time>
      </trkpt>
      <trkpt lat="44.19299" lon="6.96335">
        <ele>1561.2280583307</ele>
        <time>2021-11-18T08:06:45Z</time>
      </trkpt>
      <trkpt lat="44.19298" lon="6.96335">
        <ele>1561.2280776091</ele>
        <time>2021-11-18T08:06:47Z</time>
      </trkpt>
      <trkpt lat="44.19298" lon="6.96336">
        <ele>1560.2280965522</ele>
        <time>2021-11-18T08:06:48Z</time>
      </trkpt>
      <trkpt lat="44.19298" lon="6.96338">
        <ele>1559.2280838117</ele>
        <time>2021-11-18T08:06:49Z</time>
      </trkpt>
      <trkpt lat="44.19299" lon="6.9634">
        <ele>1558.2280588336</ele>
        <time>2021-11-18T08:06:51Z</time>
      </trkpt>
      <trkpt lat="44.19299" lon="6.96341">
        <ele>1558.2280571572</ele>
        <time>2021-11-18T08:06:52Z</time>
      </trkpt>
      <trkpt lat="44.19298" lon="6.96342">
        <ele>1557.2280871645</ele>
        <time>2021-11-18T08:06:53Z</time>
      </trkpt>
      <trkpt lat="44.19298" lon="6.96343">
        <ele>1557.2280945405</ele>
        <time>2021-11-18T08:06:54Z</time>
      </trkpt>
      <trkpt lat="44.19298" lon="6.96345">
        <ele>1557.2280918583</ele>
        <time>2021-11-18T08:06:56Z</time>
      </trkpt>
      <trkpt lat="44.19298" lon="6.96347">
        <ele>1557.2280933671</ele>
        <time>2021-11-18T08:06:57Z</time>
      </trkpt>
      <trkpt lat="44.19298" lon="6.96348">
        <ele>1557.2280980609</ele>
        <time>2021-11-18T08:06:58Z</time>
      </trkpt>
      <trkpt lat="44.19298" lon="6.96349">
        <ele>1557.2281019166</ele>
        <time>2021-11-18T08:06:59Z</time>
      </trkpt>
      <trkpt lat="44.19297" lon="6.9635">
        <ele>1557.2281277329</ele>
        <time>2021-11-18T08:07:02Z</time>
      </trkpt>
      <trkpt lat="44.19294" lon="6.9635">
        <ele>1555.2282335125</ele>
        <time>2021-11-18T08:07:04Z</time>
      </trkpt>
      <trkpt lat="44.19292" lon="6.96351">
        <ele>1555.2283159904</ele>
        <time>2021-11-18T08:07:06Z</time>
      </trkpt>
      <trkpt lat="44.19291" lon="6.9635">
        <ele>1554.2283622585</ele>
        <time>2021-11-18T08:07:07Z</time>
      </trkpt>
      <trkpt lat="44.19291" lon="6.96349">
        <ele>1555.2283716463</ele>
        <time>2021-11-18T08:07:08Z</time>
      </trkpt>
      <trkpt lat="44.1929" lon="6.96348">
        <ele>1555.2283914275</ele>
        <time>2021-11-18T08:07:09Z</time>
      </trkpt>
      <trkpt lat="44.19289" lon="6.96349">
        <ele>1555.2284234464</ele>
        <time>2021-11-18T08:07:12Z</time>
      </trkpt>
      <trkpt lat="44.1929" lon="6.9635">
        <ele>1555.2284006476</ele>
        <time>2021-11-18T08:07:13Z</time>
      </trkpt>
      <trkpt lat="44.1929" lon="6.96352">
        <ele>1554.2283962891</ele>
        <time>2021-11-18T08:07:14Z</time>
      </trkpt>
      <trkpt lat="44.19291" lon="6.96353">
        <ele>1554.2283763401</ele>
        <time>2021-11-18T08:07:15Z</time>
      </trkpt>
      <trkpt lat="44.19291" lon="6.96354">
        <ele>1554.228368964</ele>
        <time>2021-11-18T08:07:16Z</time>
      </trkpt>
      <trkpt lat="44.19291" lon="6.96355">
        <ele>1553.2283773459</ele>
        <time>2021-11-18T08:07:17Z</time>
      </trkpt>
      <trkpt lat="44.1929" lon="6.96356">
        <ele>1553.2283959538</ele>
        <time>2021-11-18T08:07:19Z</time>
      </trkpt>
      <trkpt lat="44.19289" lon="6.96355">
        <ele>1552.2284507714</ele>
        <time>2021-11-18T08:07:21Z</time>
      </trkpt>
      <trkpt lat="44.19288" lon="6.96355">
        <ele>1552.2284663618</ele>
        <time>2021-11-18T08:07:22Z</time>
      </trkpt>
      <trkpt lat="44.19288" lon="6.96356">
        <ele>1553.2284958661</ele>
        <time>2021-11-18T08:07:24Z</time>
      </trkpt>
      <trkpt lat="44.19287" lon="6.96356">
        <ele>1553.2285161503</ele>
        <time>2021-11-18T08:07:25Z</time>
      </trkpt>
      <trkpt lat="44.19286" lon="6.96357">
        <ele>1553.2285518572</ele>
        <time>2021-11-18T08:07:26Z</time>
      </trkpt>
      <trkpt lat="44.19285" lon="6.96357">
        <ele>1553.2285897434</ele>
        <time>2021-11-18T08:07:27Z</time>
      </trkpt>
      <trkpt lat="44.19284" lon="6.96356">
        <ele>1553.2286254503</ele>
        <time>2021-11-18T08:07:28Z</time>
      </trkpt>
      <trkpt lat="44.19284" lon="6.96357">
        <ele>1552.2286522724</ele>
        <time>2021-11-18T08:07:30Z</time>
      </trkpt>
      <trkpt lat="44.19283" lon="6.96356">
        <ele>1553.2286666892</ele>
        <time>2021-11-18T08:07:31Z</time>
      </trkpt>
      <trkpt lat="44.19283" lon="6.96355">
        <ele>1554.2286856323</ele>
        <time>2021-11-18T08:07:32Z</time>
      </trkpt>
      <trkpt lat="44.19281" lon="6.96354">
        <ele>1554.2287436351</ele>
        <time>2021-11-18T08:07:34Z</time>
      </trkpt>
      <trkpt lat="44.19281" lon="6.96354">
        <ele>1555.228781186</ele>
        <time>2021-11-18T08:07:36Z</time>
      </trkpt>
      <trkpt lat="44.19281" lon="6.96354">
        <ele>1555.228781186</ele>
        <time>2021-11-18T08:07:38Z</time>
      </trkpt>
      <trkpt lat="44.19278" lon="6.96353">
        <ele>1555.2288759016</ele>
        <time>2021-11-18T08:07:40Z</time>
      </trkpt>
      <trkpt lat="44.19277" lon="6.96354">
        <ele>1555.228934072</ele>
        <time>2021-11-18T08:07:41Z</time>
      </trkpt>
      <trkpt lat="44.19276" lon="6.96354">
        <ele>1556.228980843</ele>
        <time>2021-11-18T08:07:42Z</time>
      </trkpt>
      <trkpt lat="44.19275" lon="6.96355">
        <ele>1557.2289959304</ele>
        <time>2021-11-18T08:07:43Z</time>
      </trkpt>
      <trkpt lat="44.19274" lon="6.96354">
        <ele>1557.2290254347</ele>
        <time>2021-11-18T08:07:44Z</time>
      </trkpt>
      <trkpt lat="44.19274" lon="6.96354">
        <ele>1558.2290618122</ele>
        <time>2021-11-18T08:07:45Z</time>
      </trkpt>
      <trkpt lat="44.19273" lon="6.96355">
        <ele>1559.229076229</ele>
        <time>2021-11-18T08:07:46Z</time>
      </trkpt>
      <trkpt lat="44.19273" lon="6.96356">
        <ele>1560.2290886343</ele>
        <time>2021-11-18T08:07:48Z</time>
      </trkpt>
      <trkpt lat="44.19273" lon="6.96357">
        <ele>1559.229098022</ele>
        <time>2021-11-18T08:07:50Z</time>
      </trkpt>
      <trkpt lat="44.19273" lon="6.96358">
        <ele>1560.22906835</ele>
        <time>2021-11-18T08:07:51Z</time>
      </trkpt>
      <trkpt lat="44.19274" lon="6.9636">
        <ele>1559.2290589623</ele>
        <time>2021-11-18T08:07:52Z</time>
      </trkpt>
      <trkpt lat="44.19274" lon="6.9636">
        <ele>1559.2290589623</ele>
        <time>2021-11-18T08:07:54Z</time>
      </trkpt>
      <trkpt lat="44.19272" lon="6.96363">
        <ele>1560.2291224971</ele>
        <time>2021-11-18T08:07:56Z</time>
      </trkpt>
      <trkpt lat="44.19272" lon="6.96365">
        <ele>1560.2291258499</ele>
        <time>2021-11-18T08:07:57Z</time>
      </trkpt>
      <trkpt lat="44.19271" lon="6.96367">
        <ele>1561.2291498221</ele>
        <time>2021-11-18T08:07:58Z</time>
      </trkpt>
      <trkpt lat="44.19271" lon="6.96368">
        <ele>1561.2291553542</ele>
        <time>2021-11-18T08:07:59Z</time>
      </trkpt>
      <trkpt lat="44.19271" lon="6.96368">
        <ele>1561.2291731238</ele>
        <time>2021-11-18T08:08:00Z</time>
      </trkpt>
      <trkpt lat="44.1927" lon="6.96369">
        <ele>1562.229220733</ele>
        <time>2021-11-18T08:08:01Z</time>
      </trkpt>
      <trkpt lat="44.19268" lon="6.96369">
        <ele>1561.2292668335</ele>
        <time>2021-11-18T08:08:02Z</time>
      </trkpt>
      <trkpt lat="44.19268" lon="6.96371">
        <ele>1562.2292939909</ele>
        <time>2021-11-18T08:08:03Z</time>
      </trkpt>
      <trkpt lat="44.19268" lon="6.96372">
        <ele>1562.22927773</ele>
        <time>2021-11-18T08:08:04Z</time>
      </trkpt>
      <trkpt lat="44.19268" lon="6.96375">
        <ele>1563.2292626426</ele>
        <time>2021-11-18T08:08:06Z</time>
      </trkpt>
      <trkpt lat="44.19269" lon="6.96376">
        <ele>1563.2292591222</ele>
        <time>2021-11-18T08:08:07Z</time>
      </trkpt>
      <trkpt lat="44.19269" lon="6.96377">
        <ele>1562.2292515785</ele>
        <time>2021-11-18T08:08:09Z</time>
      </trkpt>
      <trkpt lat="44.19269" lon="6.96378">
        <ele>1561.2292363234</ele>
        <time>2021-11-18T08:08:11Z</time>
      </trkpt>
      <trkpt lat="44.1927" lon="6.96379">
        <ele>1560.2292116806</ele>
        <time>2021-11-18T08:08:13Z</time>
      </trkpt>
      <trkpt lat="44.1927" lon="6.9638">
        <ele>1560.22921101</ele>
        <time>2021-11-18T08:08:16Z</time>
      </trkpt>
      <trkpt lat="44.19271" lon="6.96382">
        <ele>1559.2291742973</ele>
        <time>2021-11-18T08:08:17Z</time>
      </trkpt>
      <trkpt lat="44.19271" lon="6.96383">
        <ele>1559.2291622274</ele>
        <time>2021-11-18T08:08:18Z</time>
      </trkpt>
      <trkpt lat="44.19272" lon="6.96383">
        <ele>1559.2291345671</ele>
        <time>2021-11-18T08:08:19Z</time>
      </trkpt>
      <trkpt lat="44.19273" lon="6.96384">
        <ele>1559.2290834375</ele>
        <time>2021-11-18T08:08:21Z</time>
      </trkpt>
      <trkpt lat="44.19274" lon="6.96384">
        <ele>1559.2290477306</ele>
        <time>2021-11-18T08:08:23Z</time>
      </trkpt>
      <trkpt lat="44.19276" lon="6.96384">
        <ele>1559.2289620675</ele>
        <time>2021-11-18T08:08:25Z</time>
      </trkpt>
      <trkpt lat="44.19277" lon="6.96384">
        <ele>1559.2289292105</ele>
        <time>2021-11-18T08:08:26Z</time>
      </trkpt>
      <trkpt lat="44.19277" lon="6.96384">
        <ele>1559.2289049029</ele>
        <time>2021-11-18T08:08:27Z</time>
      </trkpt>
      <trkpt lat="44.19278" lon="6.96386">
        <ele>1559.2288670167</ele>
        <time>2021-11-18T08:08:29Z</time>
      </trkpt>
      <trkpt lat="44.19279" lon="6.96386">
        <ele>1559.2288338244</ele>
        <time>2021-11-18T08:08:30Z</time>
      </trkpt>
      <trkpt lat="44.1928" lon="6.96386">
        <ele>1560.2288148813</ele>
        <time>2021-11-18T08:08:31Z</time>
      </trkpt>
      <trkpt lat="44.1928" lon="6.96387">
        <ele>1560.2287981175</ele>
        <time>2021-11-18T08:08:34Z</time>
      </trkpt>
      <trkpt lat="44.19282" lon="6.96388">
        <ele>1559.2287313975</ele>
        <time>2021-11-18T08:08:35Z</time>
      </trkpt>
      <trkpt lat="44.19283" lon="6.96388">
        <ele>1558.2287008874</ele>
        <time>2021-11-18T08:08:36Z</time>
      </trkpt>
      <trkpt lat="44.19283" lon="6.96389">
        <ele>1558.2286789268</ele>
        <time>2021-11-18T08:08:37Z</time>
      </trkpt>
      <trkpt lat="44.19284" lon="6.9639">
        <ele>1558.2286571339</ele>
        <time>2021-11-18T08:08:38Z</time>
      </trkpt>
      <trkpt lat="44.19285" lon="6.96391">
        <ele>1557.2285987958</ele>
        <time>2021-11-18T08:08:40Z</time>
      </trkpt>
      <trkpt lat="44.19286" lon="6.96392">
        <ele>1557.2285697944</ele>
        <time>2021-11-18T08:08:42Z</time>
      </trkpt>
      <trkpt lat="44.19287" lon="6.96393">
        <ele>1557.2285340875</ele>
        <time>2021-11-18T08:08:44Z</time>
      </trkpt>
      <trkpt lat="44.19287" lon="6.96394">
        <ele>1557.2285077684</ele>
        <time>2021-11-18T08:08:45Z</time>
      </trkpt>
      <trkpt lat="44.19288" lon="6.96395">
        <ele>1558.2284889929</ele>
        <time>2021-11-18T08:08:46Z</time>
      </trkpt>
      <trkpt lat="44.19288" lon="6.96395">
        <ele>1558.228484299</ele>
        <time>2021-11-18T08:08:47Z</time>
      </trkpt>
      <trkpt lat="44.19289" lon="6.96396">
        <ele>1558.2284395397</ele>
        <time>2021-11-18T08:08:49Z</time>
      </trkpt>
      <trkpt lat="44.1929" lon="6.96397">
        <ele>1557.2284219377</ele>
        <time>2021-11-18T08:08:52Z</time>
      </trkpt>
      <trkpt lat="44.1929" lon="6.96398">
        <ele>1557.228412047</ele>
        <time>2021-11-18T08:08:54Z</time>
      </trkpt>
      <trkpt lat="44.1929" lon="6.96399">
        <ele>1559.2284153998</ele>
        <time>2021-11-18T08:08:58Z</time>
      </trkpt>
      <trkpt lat="44.1929" lon="6.96402">
        <ele>1558.2283996418</ele>
        <time>2021-11-18T08:08:59Z</time>
      </trkpt>
      <trkpt lat="44.19291" lon="6.96402">
        <ele>1557.2283790223</ele>
        <time>2021-11-18T08:09:00Z</time>
      </trkpt>
      <trkpt lat="44.19292" lon="6.96403">
        <ele>1557.2283344306</ele>
        <time>2021-11-18T08:09:01Z</time>
      </trkpt>
      <trkpt lat="44.19292" lon="6.96405">
        <ele>1557.2283071056</ele>
        <time>2021-11-18T08:09:02Z</time>
      </trkpt>
      <trkpt lat="44.19293" lon="6.96405">
        <ele>1558.2282769307</ele>
        <time>2021-11-18T08:09:03Z</time>
      </trkpt>
      <trkpt lat="44.19294" lon="6.96407">
        <ele>1558.2282358594</ele>
        <time>2021-11-18T08:09:04Z</time>
      </trkpt>
      <trkpt lat="44.19295" lon="6.96407">
        <ele>1558.2281973027</ele>
        <time>2021-11-18T08:09:05Z</time>
      </trkpt>
      <trkpt lat="44.19296" lon="6.96409">
        <ele>1557.2281491905</ele>
        <time>2021-11-18T08:09:06Z</time>
      </trkpt>
      <trkpt lat="44.19297" lon="6.96409">
        <ele>1557.2281258889</ele>
        <time>2021-11-18T08:09:07Z</time>
      </trkpt>
      <trkpt lat="44.19297" lon="6.96411">
        <ele>1557.2281047665</ele>
        <time>2021-11-18T08:09:08Z</time>
      </trkpt>
      <trkpt lat="44.19298" lon="6.96412">
        <ele>1557.2280777767</ele>
        <time>2021-11-18T08:09:09Z</time>
      </trkpt>
      <trkpt lat="44.19298" lon="6.96414">
        <ele>1556.2280715741</ele>
        <time>2021-11-18T08:09:10Z</time>
      </trkpt>
      <trkpt lat="44.19299" lon="6.96414">
        <ele>1557.2280591689</ele>
        <time>2021-11-18T08:09:11Z</time>
      </trkpt>
      <trkpt lat="44.19299" lon="6.96415">
        <ele>1557.2280355319</ele>
        <time>2021-11-18T08:09:12Z</time>
      </trkpt>
      <trkpt lat="44.193" lon="6.96415">
        <ele>1557.2280004956</ele>
        <time>2021-11-18T08:09:13Z</time>
      </trkpt>
      <trkpt lat="44.193" lon="6.96415">
        <ele>1557.2279847376</ele>
        <time>2021-11-18T08:09:16Z</time>
      </trkpt>
      <trkpt lat="44.19301" lon="6.96418">
        <ele>1558.2279792055</ele>
        <time>2021-11-18T08:09:17Z</time>
      </trkpt>
      <trkpt lat="44.19301" lon="6.96419">
        <ele>1558.2279719971</ele>
        <time>2021-11-18T08:09:18Z</time>
      </trkpt>
      <trkpt lat="44.19301" lon="6.96419">
        <ele>1559.227966968</ele>
        <time>2021-11-18T08:09:19Z</time>
      </trkpt>
      <trkpt lat="44.19302" lon="6.9642">
        <ele>1559.2279381342</ele>
        <time>2021-11-18T08:09:20Z</time>
      </trkpt>
      <trkpt lat="44.19301" lon="6.96421">
        <ele>1559.2279564068</ele>
        <time>2021-11-18T08:09:22Z</time>
      </trkpt>
      <trkpt lat="44.19301" lon="6.96421">
        <ele>1560.2279776968</ele>
        <time>2021-11-18T08:09:23Z</time>
      </trkpt>
      <trkpt lat="44.193" lon="6.96421">
        <ele>1560.227988258</ele>
        <time>2021-11-18T08:09:24Z</time>
      </trkpt>
      <trkpt lat="44.193" lon="6.96422">
        <ele>1560.2280145772</ele>
        <time>2021-11-18T08:09:25Z</time>
      </trkpt>
      <trkpt lat="44.19299" lon="6.96422">
        <ele>1560.2280613482</ele>
        <time>2021-11-18T08:09:26Z</time>
      </trkpt>
      <trkpt lat="44.19297" lon="6.96422">
        <ele>1559.2281235419</ele>
        <time>2021-11-18T08:09:27Z</time>
      </trkpt>
      <trkpt lat="44.19296" lon="6.96421">
        <ele>1560.228154555</ele>
        <time>2021-11-18T08:09:28Z</time>
      </trkpt>
      <trkpt lat="44.19295" lon="6.96421">
        <ele>1561.2281865738</ele>
        <time>2021-11-18T08:09:31Z</time>
      </trkpt>
      <trkpt lat="44.19293" lon="6.96421">
        <ele>1563.2282623462</ele>
        <time>2021-11-18T08:09:32Z</time>
      </trkpt>
      <trkpt lat="44.19293" lon="6.96421">
        <ele>1563.2282819599</ele>
        <time>2021-11-18T08:09:33Z</time>
      </trkpt>
      <trkpt lat="44.19292" lon="6.96421">
        <ele>1563.2283210196</ele>
        <time>2021-11-18T08:09:34Z</time>
      </trkpt>
      <trkpt lat="44.19292" lon="6.9642">
        <ele>1564.2283386216</ele>
        <time>2021-11-18T08:09:38Z</time>
      </trkpt>
      <trkpt lat="44.1929" lon="6.9642">
        <ele>1566.2284135558</ele>
        <time>2021-11-18T08:09:40Z</time>
      </trkpt>
      <trkpt lat="44.19289" lon="6.96421">
        <ele>1567.2284509391</ele>
        <time>2021-11-18T08:09:41Z</time>
      </trkpt>
      <trkpt lat="44.19288" lon="6.96422">
        <ele>1567.2284665294</ele>
        <time>2021-11-18T08:09:42Z</time>
      </trkpt>
      <trkpt lat="44.19288" lon="6.96422">
        <ele>1567.2284990512</ele>
        <time>2021-11-18T08:09:43Z</time>
      </trkpt>
      <trkpt lat="44.19285" lon="6.96422">
        <ele>1568.2285946049</ele>
        <time>2021-11-18T08:09:45Z</time>
      </trkpt>
      <trkpt lat="44.19284" lon="6.96421">
        <ele>1569.2286338322</ele>
        <time>2021-11-18T08:09:46Z</time>
      </trkpt>
      <trkpt lat="44.19284" lon="6.96421">
        <ele>1569.2286509313</ele>
        <time>2021-11-18T08:09:47Z</time>
      </trkpt>
      <trkpt lat="44.19283" lon="6.9642">
        <ele>1569.2286775857</ele>
        <time>2021-11-18T08:09:48Z</time>
      </trkpt>
      <trkpt lat="44.19283" lon="6.96418">
        <ele>1570.2286841236</ele>
        <time>2021-11-18T08:09:49Z</time>
      </trkpt>
      <trkpt lat="44.19282" lon="6.96418">
        <ele>1571.2287188247</ele>
        <time>2021-11-18T08:09:51Z</time>
      </trkpt>
      <trkpt lat="44.19281" lon="6.96418">
        <ele>1572.2287540287</ele>
        <time>2021-11-18T08:09:52Z</time>
      </trkpt>
      <trkpt lat="44.19281" lon="6.96417">
        <ele>1573.2287761569</ele>
        <time>2021-11-18T08:09:54Z</time>
      </trkpt>
      <trkpt lat="44.1928" lon="6.96416">
        <ele>1572.2288018055</ele>
        <time>2021-11-18T08:09:56Z</time>
      </trkpt>
      <trkpt lat="44.19279" lon="6.96416">
        <ele>1572.2288334891</ele>
        <time>2021-11-18T08:09:57Z</time>
      </trkpt>
      <trkpt lat="44.19279" lon="6.96416">
        <ele>1572.2288591377</ele>
        <time>2021-11-18T08:09:58Z</time>
      </trkpt>
      <trkpt lat="44.19278" lon="6.96416">
        <ele>1573.2288869657</ele>
        <time>2021-11-18T08:10:00Z</time>
      </trkpt>
      <trkpt lat="44.19277" lon="6.96416">
        <ele>1575.2289416157</ele>
        <time>2021-11-18T08:10:01Z</time>
      </trkpt>
      <trkpt lat="44.19276" lon="6.96416">
        <ele>1575.2289741375</ele>
        <time>2021-11-18T08:10:02Z</time>
      </trkpt>
      <trkpt lat="44.19275" lon="6.96416">
        <ele>1575.229006324</ele>
        <time>2021-11-18T08:10:03Z</time>
      </trkpt>
      <trkpt lat="44.19274" lon="6.96416">
        <ele>1576.2290420309</ele>
        <time>2021-11-18T08:10:04Z</time>
      </trkpt>
      <trkpt lat="44.19273" lon="6.96416">
        <ele>1576.2290753908</ele>
        <time>2021-11-18T08:10:07Z</time>
      </trkpt>
      <trkpt lat="44.19272" lon="6.96413">
        <ele>1576.2291404344</ele>
        <time>2021-11-18T08:10:08Z</time>
      </trkpt>
      <trkpt lat="44.19271" lon="6.96413">
        <ele>1576.2291560248</ele>
        <time>2021-11-18T08:10:09Z</time>
      </trkpt>
      <trkpt lat="44.19271" lon="6.96412">
        <ele>1577.2291692682</ele>
        <time>2021-11-18T08:10:10Z</time>
      </trkpt>
      <trkpt lat="44.1927" lon="6.96411">
        <ele>1578.2291932404</ele>
        <time>2021-11-18T08:10:11Z</time>
      </trkpt>
      <trkpt lat="44.1927" lon="6.96411">
        <ele>1578.2291932404</ele>
        <time>2021-11-18T08:10:13Z</time>
      </trkpt>
      <trkpt lat="44.19268" lon="6.96408">
        <ele>1581.2292882912</ele>
        <time>2021-11-18T08:10:14Z</time>
      </trkpt>
      <trkpt lat="44.19267" lon="6.96406">
        <ele>1580.229340259</ele>
        <time>2021-11-18T08:10:16Z</time>
      </trkpt>
      <trkpt lat="44.19266" lon="6.96405">
        <ele>1580.2293608785</ele>
        <time>2021-11-18T08:10:18Z</time>
      </trkpt>
      <trkpt lat="44.19266" lon="6.96405">
        <ele>1581.2293766364</ele>
        <time>2021-11-18T08:10:19Z</time>
      </trkpt>
      <trkpt lat="44.19265" lon="6.96404">
        <ele>1581.2294104993</ele>
        <time>2021-11-18T08:10:21Z</time>
      </trkpt>
      <trkpt lat="44.19264" lon="6.96403">
        <ele>1581.229439836</ele>
        <time>2021-11-18T08:10:22Z</time>
      </trkpt>
      <trkpt lat="44.19263" lon="6.96403">
        <ele>1581.2294788957</ele>
        <time>2021-11-18T08:10:23Z</time>
      </trkpt>
      <trkpt lat="44.19262" lon="6.96404">
        <ele>1581.2295115851</ele>
        <time>2021-11-18T08:10:24Z</time>
      </trkpt>
      <trkpt lat="44.1926" lon="6.96403">
        <ele>1583.2296131738</ele>
        <time>2021-11-18T08:10:26Z</time>
      </trkpt>
      <trkpt lat="44.19259" lon="6.96403">
        <ele>1584.2296569273</ele>
        <time>2021-11-18T08:10:27Z</time>
      </trkpt>
      <trkpt lat="44.19258" lon="6.96403">
        <ele>1585.2296757028</ele>
        <time>2021-11-18T08:10:28Z</time>
      </trkpt>
      <trkpt lat="44.19258" lon="6.96403">
        <ele>1585.2296985015</ele>
        <time>2021-11-18T08:10:29Z</time>
      </trkpt>
      <trkpt lat="44.19256" lon="6.96403">
        <ele>1584.2297457755</ele>
        <time>2021-11-18T08:10:31Z</time>
      </trkpt>
      <trkpt lat="44.19256" lon="6.96402">
        <ele>1585.2297615334</ele>
        <time>2021-11-18T08:10:34Z</time>
      </trkpt>
      <trkpt lat="44.19254" lon="6.96399">
        <ele>1584.2298352942</ele>
        <time>2021-11-18T08:10:35Z</time>
      </trkpt>
      <trkpt lat="44.19253" lon="6.96398">
        <ele>1584.2298720069</ele>
        <time>2021-11-18T08:10:36Z</time>
      </trkpt>
      <trkpt lat="44.19252" lon="6.96396">
        <ele>1584.2299256511</ele>
        <time>2021-11-18T08:10:37Z</time>
      </trkpt>
      <trkpt lat="44.19251" lon="6.96396">
        <ele>1584.2299623638</ele>
        <time>2021-11-18T08:10:38Z</time>
      </trkpt>
      <trkpt lat="44.1925" lon="6.96395">
        <ele>1583.2299990766</ele>
        <time>2021-11-18T08:10:39Z</time>
      </trkpt>
      <trkpt lat="44.19249" lon="6.96395">
        <ele>1583.2300401479</ele>
        <time>2021-11-18T08:10:40Z</time>
      </trkpt>
      <trkpt lat="44.19248" lon="6.96394">
        <ele>1583.2300909422</ele>
        <time>2021-11-18T08:10:41Z</time>
      </trkpt>
      <trkpt lat="44.19247" lon="6.96395">
        <ele>1583.2301169261</ele>
        <time>2021-11-18T08:10:42Z</time>
      </trkpt>
      <trkpt lat="44.19246" lon="6.96395">
        <ele>1582.2301425748</ele>
        <time>2021-11-18T08:10:45Z</time>
      </trkpt>
      <trkpt lat="44.19245" lon="6.96396">
        <ele>1583.2301937044</ele>
        <time>2021-11-18T08:10:46Z</time>
      </trkpt>
      <trkpt lat="44.19245" lon="6.96396">
        <ele>1584.2302134857</ele>
        <time>2021-11-18T08:10:47Z</time>
      </trkpt>
      <trkpt lat="44.19244" lon="6.96397">
        <ele>1584.2302275673</ele>
        <time>2021-11-18T08:10:48Z</time>
      </trkpt>
      <trkpt lat="44.19244" lon="6.96398">
        <ele>1584.2302393019</ele>
        <time>2021-11-18T08:10:50Z</time>
      </trkpt>
      <trkpt lat="44.19243" lon="6.964">
        <ele>1585.2302890904</ele>
        <time>2021-11-18T08:10:51Z</time>
      </trkpt>
      <trkpt lat="44.19242" lon="6.964">
        <ele>1585.2303216122</ele>
        <time>2021-11-18T08:10:53Z</time>
      </trkpt>
      <trkpt lat="44.19241" lon="6.964">
        <ele>1586.2303464226</ele>
        <time>2021-11-18T08:10:54Z</time>
      </trkpt>
      <trkpt lat="44.19239" lon="6.964">
        <ele>1585.2304260507</ele>
        <time>2021-11-18T08:10:56Z</time>
      </trkpt>
      <trkpt lat="44.19239" lon="6.96401">
        <ele>1585.2304535434</ele>
        <time>2021-11-18T08:10:57Z</time>
      </trkpt>
      <trkpt lat="44.19238" lon="6.96401">
        <ele>1586.2304941118</ele>
        <time>2021-11-18T08:10:58Z</time>
      </trkpt>
      <trkpt lat="44.19237" lon="6.96401">
        <ele>1585.2305306569</ele>
        <time>2021-11-18T08:10:59Z</time>
      </trkpt>
      <trkpt lat="44.19236" lon="6.96402">
        <ele>1585.23057089</ele>
        <time>2021-11-18T08:11:00Z</time>
      </trkpt>
      <trkpt lat="44.19235" lon="6.96403">
        <ele>1585.2306153141</ele>
        <time>2021-11-18T08:11:01Z</time>
      </trkpt>
      <trkpt lat="44.19235" lon="6.96403">
        <ele>1585.2306153141</ele>
        <time>2021-11-18T08:11:03Z</time>
      </trkpt>
      <trkpt lat="44.19233" lon="6.96405">
        <ele>1584.2306991331</ele>
        <time>2021-11-18T08:11:04Z</time>
      </trkpt>
      <trkpt lat="44.19232" lon="6.96406">
        <ele>1584.2307033241</ele>
        <time>2021-11-18T08:11:05Z</time>
      </trkpt>
      <trkpt lat="44.19232" lon="6.96406">
        <ele>1584.2307200879</ele>
        <time>2021-11-18T08:11:06Z</time>
      </trkpt>
      <trkpt lat="44.19231" lon="6.96407">
        <ele>1584.2307556272</ele>
        <time>2021-11-18T08:11:07Z</time>
      </trkpt>
      <trkpt lat="44.19231" lon="6.96407">
        <ele>1584.2307556272</ele>
        <time>2021-11-18T08:11:09Z</time>
      </trkpt>
      <trkpt lat="44.1923" lon="6.96411">
        <ele>1586.2308122888</ele>
        <time>2021-11-18T08:11:10Z</time>
      </trkpt>
      <trkpt lat="44.19229" lon="6.96412">
        <ele>1587.2308350876</ele>
        <time>2021-11-18T08:11:11Z</time>
      </trkpt>
      <trkpt lat="44.19229" lon="6.96414">
        <ele>1587.2308429666</ele>
        <time>2021-11-18T08:11:12Z</time>
      </trkpt>
      <trkpt lat="44.19229" lon="6.96414">
        <ele>1587.2308583893</ele>
        <time>2021-11-18T08:11:13Z</time>
      </trkpt>
      <trkpt lat="44.19228" lon="6.96416">
        <ele>1588.2308679447</ele>
        <time>2021-11-18T08:11:14Z</time>
      </trkpt>
      <trkpt lat="44.19228" lon="6.96416">
        <ele>1589.230887223</ele>
        <time>2021-11-18T08:11:17Z</time>
      </trkpt>
      <trkpt lat="44.19227" lon="6.96418">
        <ele>1591.2309120335</ele>
        <time>2021-11-18T08:11:18Z</time>
      </trkpt>
      <trkpt lat="44.19227" lon="6.96419">
        <ele>1591.2309185714</ele>
        <time>2021-11-18T08:11:19Z</time>
      </trkpt>
      <trkpt lat="44.19227" lon="6.96421">
        <ele>1591.2309279591</ele>
        <time>2021-11-18T08:11:21Z</time>
      </trkpt>
      <trkpt lat="44.19226" lon="6.96422">
        <ele>1591.2309579663</ele>
        <time>2021-11-18T08:11:22Z</time>
      </trkpt>
      <trkpt lat="44.19226" lon="6.96422">
        <ele>1591.2309769094</ele>
        <time>2021-11-18T08:11:23Z</time>
      </trkpt>
      <trkpt lat="44.19225" lon="6.96423">
        <ele>1591.2309924997</ele>
        <time>2021-11-18T08:11:24Z</time>
      </trkpt>
      <trkpt lat="44.19224" lon="6.96423">
        <ele>1592.2310407795</ele>
        <time>2021-11-18T08:11:26Z</time>
      </trkpt>
      <trkpt lat="44.19224" lon="6.96424">
        <ele>1592.2310468145</ele>
        <time>2021-11-18T08:11:28Z</time>
      </trkpt>
      <trkpt lat="44.19222" lon="6.96425">
        <ele>1592.2311034761</ele>
        <time>2021-11-18T08:11:30Z</time>
      </trkpt>
      <trkpt lat="44.19221" lon="6.96426">
        <ele>1592.2311467268</ele>
        <time>2021-11-18T08:11:31Z</time>
      </trkpt>
      <trkpt lat="44.19221" lon="6.96427">
        <ele>1592.2311747223</ele>
        <time>2021-11-18T08:11:32Z</time>
      </trkpt>
      <trkpt lat="44.19219" lon="6.96427">
        <ele>1593.2312352397</ele>
        <time>2021-11-18T08:11:34Z</time>
      </trkpt>
      <trkpt lat="44.19218" lon="6.96428">
        <ele>1594.2312808372</ele>
        <time>2021-11-18T08:11:36Z</time>
      </trkpt>
      <trkpt lat="44.19218" lon="6.96428">
        <ele>1594.2312997803</ele>
        <time>2021-11-18T08:11:37Z</time>
      </trkpt>
      <trkpt lat="44.19217" lon="6.9643">
        <ele>1594.2313125208</ele>
        <time>2021-11-18T08:11:38Z</time>
      </trkpt>
      <trkpt lat="44.19217" lon="6.9643">
        <ele>1594.2313287817</ele>
        <time>2021-11-18T08:11:39Z</time>
      </trkpt>
      <trkpt lat="44.19216" lon="6.96433">
        <ele>1594.2313659973</ele>
        <time>2021-11-18T08:11:41Z</time>
      </trkpt>
      <trkpt lat="44.19216" lon="6.96434">
        <ele>1594.2313785702</ele>
        <time>2021-11-18T08:11:42Z</time>
      </trkpt>
      <trkpt lat="44.19216" lon="6.96434">
        <ele>1594.231379576</ele>
        <time>2021-11-18T08:11:43Z</time>
      </trkpt>
      <trkpt lat="44.19215" lon="6.96436">
        <ele>1594.2313968427</ele>
        <time>2021-11-18T08:11:45Z</time>
      </trkpt>
      <trkpt lat="44.19215" lon="6.96436">
        <ele>1594.2313968427</ele>
        <time>2021-11-18T08:11:46Z</time>
      </trkpt>
      <trkpt lat="44.19213" lon="6.96438">
        <ele>1595.2314682566</ele>
        <time>2021-11-18T08:11:47Z</time>
      </trkpt>
      <trkpt lat="44.19213" lon="6.96439">
        <ele>1596.2314871997</ele>
        <time>2021-11-18T08:11:49Z</time>
      </trkpt>
      <trkpt lat="44.19212" lon="6.96439">
        <ele>1596.231520392</ele>
        <time>2021-11-18T08:11:50Z</time>
      </trkpt>
      <trkpt lat="44.19211" lon="6.9644">
        <ele>1596.2315462083</ele>
        <time>2021-11-18T08:11:54Z</time>
      </trkpt>
      <trkpt lat="44.19211" lon="6.96443">
        <ele>1598.2315747067</ele>
        <time>2021-11-18T08:11:56Z</time>
      </trkpt>
      <trkpt lat="44.1921" lon="6.96444">
        <ele>1598.2316033728</ele>
        <time>2021-11-18T08:11:57Z</time>
      </trkpt>
      <trkpt lat="44.1921" lon="6.96445">
        <ele>1598.2316142693</ele>
        <time>2021-11-18T08:11:58Z</time>
      </trkpt>
      <trkpt lat="44.19209" lon="6.96446">
        <ele>1598.2316281833</ele>
        <time>2021-11-18T08:12:04Z</time>
      </trkpt>
      <trkpt lat="44.19209" lon="6.96449">
        <ele>1597.2316590287</ele>
        <time>2021-11-18T08:12:06Z</time>
      </trkpt>
      <trkpt lat="44.19208" lon="6.9645">
        <ele>1597.2316841744</ele>
        <time>2021-11-18T08:12:07Z</time>
      </trkpt>
      <trkpt lat="44.19208" lon="6.9645">
        <ele>1597.2316970825</ele>
        <time>2021-11-18T08:12:08Z</time>
      </trkpt>
      <trkpt lat="44.19207" lon="6.96451">
        <ele>1596.231709823</ele>
        <time>2021-11-18T08:12:11Z</time>
      </trkpt>
      <trkpt lat="44.19207" lon="6.96452">
        <ele>1596.2317344658</ele>
        <time>2021-11-18T08:12:12Z</time>
      </trkpt>
      <trkpt lat="44.19206" lon="6.96453">
        <ele>1596.2317577675</ele>
        <time>2021-11-18T08:12:13Z</time>
      </trkpt>
      <trkpt lat="44.19206" lon="6.96454">
        <ele>1597.2317614555</ele>
        <time>2021-11-18T08:12:14Z</time>
      </trkpt>
      <trkpt lat="44.19206" lon="6.96455">
        <ele>1597.2317542471</ele>
        <time>2021-11-18T08:12:15Z</time>
      </trkpt>
      <trkpt lat="44.19207" lon="6.96454">
        <ele>1597.2317304425</ele>
        <time>2021-11-18T08:12:19Z</time>
      </trkpt>
      <trkpt lat="44.19207" lon="6.96453">
        <ele>1597.2317153551</ele>
        <time>2021-11-18T08:12:20Z</time>
      </trkpt>
      <trkpt lat="44.19208" lon="6.96452">
        <ele>1596.2316848449</ele>
        <time>2021-11-18T08:12:21Z</time>
      </trkpt>
      <trkpt lat="44.19208" lon="6.96452">
        <ele>1596.2316684164</ele>
        <time>2021-11-18T08:12:22Z</time>
      </trkpt>
      <trkpt lat="44.19209" lon="6.96451">
        <ele>1596.2316555083</ele>
        <time>2021-11-18T08:12:23Z</time>
      </trkpt>
      <trkpt lat="44.19209" lon="6.9645">
        <ele>1595.2316591963</ele>
        <time>2021-11-18T08:12:24Z</time>
      </trkpt>
      <trkpt lat="44.1921" lon="6.96449">
        <ele>1595.2315857708</ele>
        <time>2021-11-18T08:12:26Z</time>
      </trkpt>
      <trkpt lat="44.19211" lon="6.96449">
        <ele>1594.2315524109</ele>
        <time>2021-11-18T08:12:28Z</time>
      </trkpt>
      <trkpt lat="44.19212" lon="6.96449">
        <ele>1594.2315411791</ele>
        <time>2021-11-18T08:12:31Z</time>
      </trkpt>
      <trkpt lat="44.19212" lon="6.96449">
        <ele>1594.2315032929</ele>
        <time>2021-11-18T08:12:32Z</time>
      </trkpt>
      <trkpt lat="44.19214" lon="6.96449">
        <ele>1594.231457863</ele>
        <time>2021-11-18T08:12:34Z</time>
      </trkpt>
      <trkpt lat="44.19214" lon="6.96449">
        <ele>1595.2314359024</ele>
        <time>2021-11-18T08:12:37Z</time>
      </trkpt>
      <trkpt lat="44.19214" lon="6.9645">
        <ele>1596.2314229943</ele>
        <time>2021-11-18T08:12:38Z</time>
      </trkpt>
      <trkpt lat="44.19213" lon="6.96454">
        <ele>1596.2314684242</ele>
        <time>2021-11-18T08:12:40Z</time>
      </trkpt>
      <trkpt lat="44.19212" lon="6.96455">
        <ele>1595.2315078191</ele>
        <time>2021-11-18T08:12:41Z</time>
      </trkpt>
      <trkpt lat="44.19212" lon="6.96456">
        <ele>1596.2315286063</ele>
        <time>2021-11-18T08:12:42Z</time>
      </trkpt>
      <trkpt lat="44.19211" lon="6.96456">
        <ele>1595.2315465435</ele>
        <time>2021-11-18T08:12:46Z</time>
      </trkpt>
      <trkpt lat="44.1921" lon="6.96457">
        <ele>1597.2315862738</ele>
        <time>2021-11-18T08:12:47Z</time>
      </trkpt>
      <trkpt lat="44.1921" lon="6.96458">
        <ele>1597.2316035405</ele>
        <time>2021-11-18T08:12:48Z</time>
      </trkpt>
      <trkpt lat="44.19209" lon="6.96459">
        <ele>1599.2316268422</ele>
        <time>2021-11-18T08:12:50Z</time>
      </trkpt>
      <trkpt lat="44.19209" lon="6.96459">
        <ele>1599.231653329</ele>
        <time>2021-11-18T08:12:51Z</time>
      </trkpt>
      <trkpt lat="44.19208" lon="6.96461">
        <ele>1599.2316875271</ele>
        <time>2021-11-18T08:12:52Z</time>
      </trkpt>
      <trkpt lat="44.19207" lon="6.96462">
        <ele>1599.2317203842</ele>
        <time>2021-11-18T08:12:54Z</time>
      </trkpt>
      <trkpt lat="44.19206" lon="6.96462">
        <ele>1601.2317591086</ele>
        <time>2021-11-18T08:12:56Z</time>
      </trkpt>
      <trkpt lat="44.19206" lon="6.96462">
        <ele>1602.2317676581</ele>
        <time>2021-11-18T08:12:57Z</time>
      </trkpt>
      <trkpt lat="44.19205" lon="6.96462">
        <ele>1602.2318025269</ele>
        <time>2021-11-18T08:12:59Z</time>
      </trkpt>
      <trkpt lat="44.19204" lon="6.96462">
        <ele>1603.2318340428</ele>
        <time>2021-11-18T08:13:01Z</time>
      </trkpt>
      <trkpt lat="44.19204" lon="6.96462">
        <ele>1603.2318340428</ele>
        <time>2021-11-18T08:13:02Z</time>
      </trkpt>
      <trkpt lat="44.19203" lon="6.96464">
        <ele>1604.2318950631</ele>
        <time>2021-11-18T08:13:03Z</time>
      </trkpt>
      <trkpt lat="44.19202" lon="6.96465">
        <ele>1604.2319067977</ele>
        <time>2021-11-18T08:13:04Z</time>
      </trkpt>
      <trkpt lat="44.19203" lon="6.96466">
        <ele>1605.2319012657</ele>
        <time>2021-11-18T08:13:05Z</time>
      </trkpt>
      <trkpt lat="44.19202" lon="6.96467">
        <ele>1605.2319061272</ele>
        <time>2021-11-18T08:13:07Z</time>
      </trkpt>
      <trkpt lat="44.19202" lon="6.96469">
        <ele>1606.2319401577</ele>
        <time>2021-11-18T08:13:08Z</time>
      </trkpt>
      <trkpt lat="44.192" lon="6.96472">
        <ele>1606.2319830731</ele>
        <time>2021-11-18T08:13:10Z</time>
      </trkpt>
      <trkpt lat="44.19199" lon="6.96472">
        <ele>1606.2320263237</ele>
        <time>2021-11-18T08:13:11Z</time>
      </trkpt>
      <trkpt lat="44.19198" lon="6.96473">
        <ele>1606.2320685685</ele>
        <time>2021-11-18T08:13:12Z</time>
      </trkpt>
      <trkpt lat="44.19197" lon="6.96475">
        <ele>1606.2321354561</ele>
        <time>2021-11-18T08:13:14Z</time>
      </trkpt>
      <trkpt lat="44.19196" lon="6.96476">
        <ele>1606.2321611047</ele>
        <time>2021-11-18T08:13:15Z</time>
      </trkpt>
      <trkpt lat="44.19195" lon="6.96477">
        <ele>1607.2321855798</ele>
        <time>2021-11-18T08:13:18Z</time>
      </trkpt>
      <trkpt lat="44.19195" lon="6.96477">
        <ele>1607.2322199456</ele>
        <time>2021-11-18T08:13:19Z</time>
      </trkpt>
      <trkpt lat="44.19194" lon="6.96476">
        <ele>1607.2322407328</ele>
        <time>2021-11-18T08:13:20Z</time>
      </trkpt>
      <trkpt lat="44.19193" lon="6.96476">
        <ele>1607.2322620228</ele>
        <time>2021-11-18T08:13:23Z</time>
      </trkpt>
      <trkpt lat="44.19192" lon="6.96478">
        <ele>1608.2323331013</ele>
        <time>2021-11-18T08:13:24Z</time>
      </trkpt>
      <trkpt lat="44.19191" lon="6.96479">
        <ele>1608.2323719934</ele>
        <time>2021-11-18T08:13:25Z</time>
      </trkpt>
      <trkpt lat="44.1919" lon="6.96479">
        <ele>1608.2324117236</ele>
        <time>2021-11-18T08:13:26Z</time>
      </trkpt>
      <trkpt lat="44.19189" lon="6.9648">
        <ele>1608.2324467599</ele>
        <time>2021-11-18T08:13:27Z</time>
      </trkpt>
      <trkpt lat="44.19189" lon="6.9648">
        <ele>1608.2324467599</ele>
        <time>2021-11-18T08:13:28Z</time>
      </trkpt>
      <trkpt lat="44.19188" lon="6.96482">
        <ele>1609.2324797846</ele>
        <time>2021-11-18T08:13:30Z</time>
      </trkpt>
      <trkpt lat="44.19188" lon="6.96482">
        <ele>1609.2324881665</ele>
        <time>2021-11-18T08:13:31Z</time>
      </trkpt>
      <trkpt lat="44.19188" lon="6.96484">
        <ele>1608.2324861549</ele>
        <time>2021-11-18T08:13:32Z</time>
      </trkpt>
      <trkpt lat="44.19188" lon="6.96485">
        <ele>1609.2324839756</ele>
        <time>2021-11-18T08:13:33Z</time>
      </trkpt>
      <trkpt lat="44.19187" lon="6.96486">
        <ele>1608.2325116359</ele>
        <time>2021-11-18T08:13:34Z</time>
      </trkpt>
      <trkpt lat="44.19186" lon="6.96488">
        <ele>1608.2325659506</ele>
        <time>2021-11-18T08:13:36Z</time>
      </trkpt>
      <trkpt lat="44.19186" lon="6.96489">
        <ele>1608.2325781882</ele>
        <time>2021-11-18T08:13:40Z</time>
      </trkpt>
      <trkpt lat="44.19185" lon="6.9649">
        <ele>1608.2325974666</ele>
        <time>2021-11-18T08:13:41Z</time>
      </trkpt>
      <trkpt lat="44.19185" lon="6.96491">
        <ele>1608.23261071</ele>
        <time>2021-11-18T08:13:42Z</time>
      </trkpt>
      <trkpt lat="44.19185" lon="6.96491">
        <ele>1608.2326217741</ele>
        <time>2021-11-18T08:13:43Z</time>
      </trkpt>
      <trkpt lat="44.19184" lon="6.96491">
        <ele>1609.2326467521</ele>
        <time>2021-11-18T08:13:44Z</time>
      </trkpt>
      <trkpt lat="44.19183" lon="6.96492">
        <ele>1609.2326631807</ele>
        <time>2021-11-18T08:13:45Z</time>
      </trkpt>
      <trkpt lat="44.19183" lon="6.96492">
        <ele>1609.2326891646</ele>
        <time>2021-11-18T08:13:46Z</time>
      </trkpt>
      <trkpt lat="44.19182" lon="6.96493">
        <ele>1611.2327133045</ele>
        <time>2021-11-18T08:13:47Z</time>
      </trkpt>
      <trkpt lat="44.19181" lon="6.96493">
        <ele>1610.2327436469</ele>
        <time>2021-11-18T08:13:48Z</time>
      </trkpt>
      <trkpt lat="44.1918" lon="6.96494">
        <ele>1611.2328011468</ele>
        <time>2021-11-18T08:13:50Z</time>
      </trkpt>
      <trkpt lat="44.1918" lon="6.96495">
        <ele>1612.2328112051</ele>
        <time>2021-11-18T08:13:52Z</time>
      </trkpt>
      <trkpt lat="44.19179" lon="6.96497">
        <ele>1612.2328363508</ele>
        <time>2021-11-18T08:13:54Z</time>
      </trkpt>
      <trkpt lat="44.19178" lon="6.96498">
        <ele>1612.2328740694</ele>
        <time>2021-11-18T08:13:56Z</time>
      </trkpt>
      <trkpt lat="44.19179" lon="6.96498">
        <ele>1612.2328393683</ele>
        <time>2021-11-18T08:13:58Z</time>
      </trkpt>
      <trkpt lat="44.19179" lon="6.965">
        <ele>1612.2328581437</ele>
        <time>2021-11-18T08:13:59Z</time>
      </trkpt>
      <trkpt lat="44.19179" lon="6.96501">
        <ele>1612.2328438945</ele>
        <time>2021-11-18T08:14:01Z</time>
      </trkpt>
      <trkpt lat="44.1918" lon="6.96499">
        <ele>1611.2327917591</ele>
        <time>2021-11-18T08:14:02Z</time>
      </trkpt>
      <trkpt lat="44.19181" lon="6.96499">
        <ele>1611.2327699661</ele>
        <time>2021-11-18T08:14:03Z</time>
      </trkpt>
      <trkpt lat="44.19181" lon="6.965">
        <ele>1611.2327553816</ele>
        <time>2021-11-18T08:14:05Z</time>
      </trkpt>
      <trkpt lat="44.19182" lon="6.96499">
        <ele>1611.2327257097</ele>
        <time>2021-11-18T08:14:06Z</time>
      </trkpt>
      <trkpt lat="44.19182" lon="6.96499">
        <ele>1610.232717663</ele>
        <time>2021-11-18T08:14:07Z</time>
      </trkpt>
      <trkpt lat="44.19183" lon="6.96499">
        <ele>1609.2326749153</ele>
        <time>2021-11-18T08:14:09Z</time>
      </trkpt>
      <trkpt lat="44.19185" lon="6.96499">
        <ele>1608.2326041721</ele>
        <time>2021-11-18T08:14:11Z</time>
      </trkpt>
      <trkpt lat="44.19186" lon="6.96499">
        <ele>1608.2325778529</ele>
        <time>2021-11-18T08:14:13Z</time>
      </trkpt>
      <trkpt lat="44.19186" lon="6.96499">
        <ele>1607.2325646095</ele>
        <time>2021-11-18T08:14:14Z</time>
      </trkpt>
      <trkpt lat="44.19187" lon="6.96499">
        <ele>1608.2325196825</ele>
        <time>2021-11-18T08:14:16Z</time>
      </trkpt>
      <trkpt lat="44.19188" lon="6.965">
        <ele>1608.2324836403</ele>
        <time>2021-11-18T08:14:17Z</time>
      </trkpt>
      <trkpt lat="44.19189" lon="6.96499">
        <ele>1607.2324413955</ele>
        <time>2021-11-18T08:14:18Z</time>
      </trkpt>
      <trkpt lat="44.1919" lon="6.96499">
        <ele>1607.2324154116</ele>
        <time>2021-11-18T08:14:22Z</time>
      </trkpt>
      <trkpt lat="44.1919" lon="6.96501">
        <ele>1608.2323974743</ele>
        <time>2021-11-18T08:14:23Z</time>
      </trkpt>
      <trkpt lat="44.1919" lon="6.96502">
        <ele>1609.2324142382</ele>
        <time>2021-11-18T08:14:24Z</time>
      </trkpt>
      <trkpt lat="44.1919" lon="6.96503">
        <ele>1610.2324080355</ele>
        <time>2021-11-18T08:14:25Z</time>
      </trkpt>
      <trkpt lat="44.19189" lon="6.96504">
        <ele>1610.2324241288</ele>
        <time>2021-11-18T08:14:26Z</time>
      </trkpt>
      <trkpt lat="44.19189" lon="6.96505">
        <ele>1610.2324316725</ele>
        <time>2021-11-18T08:14:27Z</time>
      </trkpt>
      <trkpt lat="44.19189" lon="6.96507">
        <ele>1610.2324492745</ele>
        <time>2021-11-18T08:14:28Z</time>
      </trkpt>
      <trkpt lat="44.19188" lon="6.96508">
        <ele>1611.2324829698</ele>
        <time>2021-11-18T08:14:29Z</time>
      </trkpt>
      <trkpt lat="44.19188" lon="6.96509">
        <ele>1611.2324958779</ele>
        <time>2021-11-18T08:14:30Z</time>
      </trkpt>
      <trkpt lat="44.19187" lon="6.96511">
        <ele>1612.2325186767</ele>
        <time>2021-11-18T08:14:31Z</time>
      </trkpt>
      <trkpt lat="44.19186" lon="6.96511">
        <ele>1613.2325473428</ele>
        <time>2021-11-18T08:14:32Z</time>
      </trkpt>
      <trkpt lat="44.19186" lon="6.96511">
        <ele>1613.2325659506</ele>
        <time>2021-11-18T08:14:34Z</time>
      </trkpt>
      <trkpt lat="44.19185" lon="6.96512">
        <ele>1614.2326160744</ele>
        <time>2021-11-18T08:14:36Z</time>
      </trkpt>
      <trkpt lat="44.19184" lon="6.96513">
        <ele>1613.2326428965</ele>
        <time>2021-11-18T08:14:37Z</time>
      </trkpt>
      <trkpt lat="44.19184" lon="6.96513">
        <ele>1613.2326428965</ele>
        <time>2021-11-18T08:14:39Z</time>
      </trkpt>
      <trkpt lat="44.19182" lon="6.96516">
        <ele>1614.2327329181</ele>
        <time>2021-11-18T08:14:41Z</time>
      </trkpt>
      <trkpt lat="44.19181" lon="6.96516">
        <ele>1614.2327506877</ele>
        <time>2021-11-18T08:14:42Z</time>
      </trkpt>
      <trkpt lat="44.19181" lon="6.96517">
        <ele>1614.2327778451</ele>
        <time>2021-11-18T08:14:43Z</time>
      </trkpt>
      <trkpt lat="44.1918" lon="6.96517">
        <ele>1614.2327939384</ele>
        <time>2021-11-18T08:14:44Z</time>
      </trkpt>
      <trkpt lat="44.19179" lon="6.96518">
        <ele>1614.2328452356</ele>
        <time>2021-11-18T08:14:46Z</time>
      </trkpt>
      <trkpt lat="44.19178" lon="6.96519">
        <ele>1615.2328824513</ele>
        <time>2021-11-18T08:14:47Z</time>
      </trkpt>
      <trkpt lat="44.19177" lon="6.9652">
        <ele>1615.2329267077</ele>
        <time>2021-11-18T08:14:48Z</time>
      </trkpt>
      <trkpt lat="44.19176" lon="6.96521">
        <ele>1615.232978005</ele>
        <time>2021-11-18T08:14:50Z</time>
      </trkpt>
      <trkpt lat="44.19175" lon="6.96521">
        <ele>1616.2329889014</ele>
        <time>2021-11-18T08:14:51Z</time>
      </trkpt>
      <trkpt lat="44.19175" lon="6.96522">
        <ele>1616.2330073416</ele>
        <time>2021-11-18T08:14:52Z</time>
      </trkpt>
      <trkpt lat="44.19174" lon="6.96523">
        <ele>1618.2330408692</ele>
        <time>2021-11-18T08:14:53Z</time>
      </trkpt>
      <trkpt lat="44.19174" lon="6.96523">
        <ele>1618.2330579683</ele>
        <time>2021-11-18T08:14:54Z</time>
      </trkpt>
      <trkpt lat="44.19173" lon="6.96525">
        <ele>1618.2330683619</ele>
        <time>2021-11-18T08:14:56Z</time>
      </trkpt>
      <trkpt lat="44.19173" lon="6.96526">
        <ele>1619.2330857962</ele>
        <time>2021-11-18T08:14:57Z</time>
      </trkpt>
      <trkpt lat="44.19172" lon="6.96527">
        <ele>1618.2331142947</ele>
        <time>2021-11-18T08:14:58Z</time>
      </trkpt>
      <trkpt lat="44.19171" lon="6.96528">
        <ele>1618.2331686094</ele>
        <time>2021-11-18T08:15:00Z</time>
      </trkpt>
      <trkpt lat="44.1917" lon="6.96529">
        <ele>1619.233186882</ele>
        <time>2021-11-18T08:15:01Z</time>
      </trkpt>
      <trkpt lat="44.1917" lon="6.96531">
        <ele>1620.2331852056</ele>
        <time>2021-11-18T08:15:02Z</time>
      </trkpt>
      <trkpt lat="44.19171" lon="6.96535">
        <ele>1622.2331796736</ele>
        <time>2021-11-18T08:15:04Z</time>
      </trkpt>
      <trkpt lat="44.19171" lon="6.96538">
        <ele>1622.2331783324</ele>
        <time>2021-11-18T08:15:06Z</time>
      </trkpt>
      <trkpt lat="44.19171" lon="6.9654">
        <ele>1622.2331795059</ele>
        <time>2021-11-18T08:15:07Z</time>
      </trkpt>
      <trkpt lat="44.1917" lon="6.96542">
        <ele>1623.233188726</ele>
        <time>2021-11-18T08:15:08Z</time>
      </trkpt>
      <trkpt lat="44.1917" lon="6.96543">
        <ele>1623.2332073338</ele>
        <time>2021-11-18T08:15:09Z</time>
      </trkpt>
      <trkpt lat="44.19169" lon="6.96544">
        <ele>1625.2332445495</ele>
        <time>2021-11-18T08:15:11Z</time>
      </trkpt>
      <trkpt lat="44.19169" lon="6.96544">
        <ele>1625.2332445495</ele>
        <time>2021-11-18T08:15:12Z</time>
      </trkpt>
      <trkpt lat="44.19169" lon="6.96548">
        <ele>1626.233259134</ele>
        <time>2021-11-18T08:15:13Z</time>
      </trkpt>
      <trkpt lat="44.19168" lon="6.96551">
        <ele>1627.2332769036</ele>
        <time>2021-11-18T08:15:15Z</time>
      </trkpt>
      <trkpt lat="44.19168" lon="6.96553">
        <ele>1627.2332742214</ele>
        <time>2021-11-18T08:15:16Z</time>
      </trkpt>
      <trkpt lat="44.19168" lon="6.96556">
        <ele>1627.2332636602</ele>
        <time>2021-11-18T08:15:17Z</time>
      </trkpt>
      <trkpt lat="44.19169" lon="6.96557">
        <ele>1627.2332534343</ele>
        <time>2021-11-18T08:15:18Z</time>
      </trkpt>
      <trkpt lat="44.19169" lon="6.96559">
        <ele>1627.2332616486</ele>
        <time>2021-11-18T08:15:20Z</time>
      </trkpt>
      <trkpt lat="44.19169" lon="6.9656">
        <ele>1628.2332502492</ele>
        <time>2021-11-18T08:15:21Z</time>
      </trkpt>
      <trkpt lat="44.19168" lon="6.96562">
        <ele>1629.2332671806</ele>
        <time>2021-11-18T08:15:22Z</time>
      </trkpt>
      <trkpt lat="44.19168" lon="6.96563">
        <ele>1629.2332876325</ele>
        <time>2021-11-18T08:15:23Z</time>
      </trkpt>
      <trkpt lat="44.19167" lon="6.96566">
        <ele>1628.2333342358</ele>
        <time>2021-11-18T08:15:25Z</time>
      </trkpt>
      <trkpt lat="44.19167" lon="6.96567">
        <ele>1628.2333352417</ele>
        <time>2021-11-18T08:15:26Z</time>
      </trkpt>
      <trkpt lat="44.19167" lon="6.96568">
        <ele>1628.2333226688</ele>
        <time>2021-11-18T08:15:27Z</time>
      </trkpt>
      <trkpt lat="44.19167" lon="6.96571">
        <ele>1628.2333191484</ele>
        <time>2021-11-18T08:15:29Z</time>
      </trkpt>
      <trkpt lat="44.19167" lon="6.96572">
        <ele>1629.2333290391</ele>
        <time>2021-11-18T08:15:31Z</time>
      </trkpt>
      <trkpt lat="44.19167" lon="6.96572">
        <ele>1629.2333402708</ele>
        <time>2021-11-18T08:15:33Z</time>
      </trkpt>
      <trkpt lat="44.19166" lon="6.96575">
        <ele>1630.2333660871</ele>
        <time>2021-11-18T08:15:35Z</time>
      </trkpt>
      <trkpt lat="44.19166" lon="6.96576">
        <ele>1630.2333639078</ele>
        <time>2021-11-18T08:15:36Z</time>
      </trkpt>
      <trkpt lat="44.19165" lon="6.96577">
        <ele>1630.233382348</ele>
        <time>2021-11-18T08:15:37Z</time>
      </trkpt>
      <trkpt lat="44.19165" lon="6.96578">
        <ele>1631.2333868742</ele>
        <time>2021-11-18T08:15:39Z</time>
      </trkpt>
      <trkpt lat="44.19165" lon="6.96579">
        <ele>1631.2333821803</ele>
        <time>2021-11-18T08:15:40Z</time>
      </trkpt>
      <trkpt lat="44.19166" lon="6.96581">
        <ele>1633.2333798334</ele>
        <time>2021-11-18T08:15:41Z</time>
      </trkpt>
      <trkpt lat="44.19166" lon="6.96583">
        <ele>1633.2333818451</ele>
        <time>2021-11-18T08:15:42Z</time>
      </trkpt>
      <trkpt lat="44.19166" lon="6.96584">
        <ele>1633.2333593816</ele>
        <time>2021-11-18T08:15:43Z</time>
      </trkpt>
      <trkpt lat="44.19166" lon="6.96585">
        <ele>1634.2333439589</ele>
        <time>2021-11-18T08:15:44Z</time>
      </trkpt>
      <trkpt lat="44.19166" lon="6.96585">
        <ele>1634.2333439589</ele>
        <time>2021-11-18T08:15:45Z</time>
      </trkpt>
      <trkpt lat="44.19166" lon="6.96587">
        <ele>1635.2333441265</ele>
        <time>2021-11-18T08:15:46Z</time>
      </trkpt>
      <trkpt lat="44.19166" lon="6.96587">
        <ele>1634.2333719544</ele>
        <time>2021-11-18T08:15:48Z</time>
      </trkpt>
      <trkpt lat="44.19165" lon="6.96588">
        <ele>1634.2333875448</ele>
        <time>2021-11-18T08:15:50Z</time>
      </trkpt>
      <trkpt lat="44.19164" lon="6.96589">
        <ele>1634.2334302925</ele>
        <time>2021-11-18T08:15:51Z</time>
      </trkpt>
      <trkpt lat="44.19164" lon="6.9659">
        <ele>1633.233446721</ele>
        <time>2021-11-18T08:15:52Z</time>
      </trkpt>
      <trkpt lat="44.19163" lon="6.9659">
        <ele>1633.2334666699</ele>
        <time>2021-11-18T08:15:53Z</time>
      </trkpt>
      <trkpt lat="44.19163" lon="6.96592">
        <ele>1633.2334846072</ele>
        <time>2021-11-18T08:15:54Z</time>
      </trkpt>
      <trkpt lat="44.19163" lon="6.96593">
        <ele>1633.2334884629</ele>
        <time>2021-11-18T08:15:55Z</time>
      </trkpt>
      <trkpt lat="44.19163" lon="6.96593">
        <ele>1633.2334784046</ele>
        <time>2021-11-18T08:16:01Z</time>
      </trkpt>
      <trkpt lat="44.19164" lon="6.96595">
        <ele>1633.2334405184</ele>
        <time>2021-11-18T08:16:02Z</time>
      </trkpt>
      <trkpt lat="44.19164" lon="6.96597">
        <ele>1632.2334245928</ele>
        <time>2021-11-18T08:16:03Z</time>
      </trkpt>
      <trkpt lat="44.19165" lon="6.96599">
        <ele>1632.2334138639</ele>
        <time>2021-11-18T08:16:04Z</time>
      </trkpt>
      <trkpt lat="44.19165" lon="6.966">
        <ele>1633.2334167138</ele>
        <time>2021-11-18T08:16:05Z</time>
      </trkpt>
      <trkpt lat="44.19164" lon="6.96601">
        <ele>1633.2334297895</ele>
        <time>2021-11-18T08:16:06Z</time>
      </trkpt>
      <trkpt lat="44.19163" lon="6.96603">
        <ele>1634.2334623113</ele>
        <time>2021-11-18T08:16:07Z</time>
      </trkpt>
      <trkpt lat="44.19163" lon="6.96604">
        <ele>1634.2334893011</ele>
        <time>2021-11-18T08:16:08Z</time>
      </trkpt>
      <trkpt lat="44.19162" lon="6.96606">
        <ele>1635.2335069031</ele>
        <time>2021-11-18T08:16:09Z</time>
      </trkpt>
      <trkpt lat="44.19162" lon="6.96607">
        <ele>1635.2335229963</ele>
        <time>2021-11-18T08:16:10Z</time>
      </trkpt>
      <trkpt lat="44.19162" lon="6.96609">
        <ele>1635.2335310429</ele>
        <time>2021-11-18T08:16:11Z</time>
      </trkpt>
      <trkpt lat="44.19162" lon="6.9661">
        <ele>1635.2335251756</ele>
        <time>2021-11-18T08:16:12Z</time>
      </trkpt>
      <trkpt lat="44.19162" lon="6.96612">
        <ele>1635.2335139439</ele>
        <time>2021-11-18T08:16:13Z</time>
      </trkpt>
      <trkpt lat="44.19162" lon="6.96614">
        <ele>1635.2335137762</ele>
        <time>2021-11-18T08:16:14Z</time>
      </trkpt>
      <trkpt lat="44.19162" lon="6.96617">
        <ele>1636.2335380837</ele>
        <time>2021-11-18T08:16:16Z</time>
      </trkpt>
      <trkpt lat="44.19162" lon="6.96618">
        <ele>1637.2335404307</ele>
        <time>2021-11-18T08:16:17Z</time>
      </trkpt>
      <trkpt lat="44.19161" lon="6.96619">
        <ele>1638.2335573621</ele>
        <time>2021-11-18T08:16:18Z</time>
      </trkpt>
      <trkpt lat="44.19161" lon="6.9662">
        <ele>1638.2335689291</ele>
        <time>2021-11-18T08:16:19Z</time>
      </trkpt>
      <trkpt lat="44.19159" lon="6.96623">
        <ele>1638.2336229086</ele>
        <time>2021-11-18T08:16:21Z</time>
      </trkpt>
      <trkpt lat="44.19159" lon="6.96623">
        <ele>1638.2336410135</ele>
        <time>2021-11-18T08:16:22Z</time>
      </trkpt>
      <trkpt lat="44.19159" lon="6.96624">
        <ele>1638.2336614653</ele>
        <time>2021-11-18T08:16:23Z</time>
      </trkpt>
      <trkpt lat="44.19158" lon="6.96625">
        <ele>1638.2336958311</ele>
        <time>2021-11-18T08:16:24Z</time>
      </trkpt>
      <trkpt lat="44.19157" lon="6.96625">
        <ele>1638.2337256707</ele>
        <time>2021-11-18T08:16:25Z</time>
      </trkpt>
      <trkpt lat="44.19156" lon="6.96625">
        <ele>1639.2337540016</ele>
        <time>2021-11-18T08:16:26Z</time>
      </trkpt>
      <trkpt lat="44.19156" lon="6.96626">
        <ele>1639.2337793149</ele>
        <time>2021-11-18T08:16:27Z</time>
      </trkpt>
      <trkpt lat="44.19154" lon="6.96628">
        <ele>1639.233823739</ele>
        <time>2021-11-18T08:16:29Z</time>
      </trkpt>
      <trkpt lat="44.19154" lon="6.96628">
        <ele>1639.2338519022</ele>
        <time>2021-11-18T08:16:30Z</time>
      </trkpt>
      <trkpt lat="44.19153" lon="6.96628">
        <ele>1639.2338871062</ele>
        <time>2021-11-18T08:16:31Z</time>
      </trkpt>
      <trkpt lat="44.19152" lon="6.96628">
        <ele>1639.233911749</ele>
        <time>2021-11-18T08:16:32Z</time>
      </trkpt>
      <trkpt lat="44.19152" lon="6.96629">
        <ele>1640.233929351</ele>
        <time>2021-11-18T08:16:34Z</time>
      </trkpt>
      <trkpt lat="44.19152" lon="6.9663">
        <ele>1640.2339156047</ele>
        <time>2021-11-18T08:16:35Z</time>
      </trkpt>
      <trkpt lat="44.19152" lon="6.96631">
        <ele>1640.2339058816</ele>
        <time>2021-11-18T08:16:36Z</time>
      </trkpt>
      <trkpt lat="44.19153" lon="6.96632">
        <ele>1640.2338944823</ele>
        <time>2021-11-18T08:16:37Z</time>
      </trkpt>
      <trkpt lat="44.19152" lon="6.96632">
        <ele>1640.2339035347</ele>
        <time>2021-11-18T08:16:38Z</time>
      </trkpt>
      <trkpt lat="44.19152" lon="6.96633">
        <ele>1640.2339253277</ele>
        <time>2021-11-18T08:16:39Z</time>
      </trkpt>
      <trkpt lat="44.19152" lon="6.96634">
        <ele>1640.2339343801</ele>
        <time>2021-11-18T08:16:40Z</time>
      </trkpt>
      <trkpt lat="44.19151" lon="6.96635">
        <ele>1640.2339598611</ele>
        <time>2021-11-18T08:16:41Z</time>
      </trkpt>
      <trkpt lat="44.1915" lon="6.96636">
        <ele>1641.2339823246</ele>
        <time>2021-11-18T08:16:42Z</time>
      </trkpt>
      <trkpt lat="44.1915" lon="6.96637">
        <ele>1641.2340079732</ele>
        <time>2021-11-18T08:16:45Z</time>
      </trkpt>
      <trkpt lat="44.1915" lon="6.96639">
        <ele>1641.234017361</ele>
        <time>2021-11-18T08:16:46Z</time>
      </trkpt>
      <trkpt lat="44.19149" lon="6.9664">
        <ele>1642.234024737</ele>
        <time>2021-11-18T08:16:47Z</time>
      </trkpt>
      <trkpt lat="44.19149" lon="6.96641">
        <ele>1642.234056253</ele>
        <time>2021-11-18T08:16:49Z</time>
      </trkpt>
      <trkpt lat="44.19148" lon="6.96641">
        <ele>1642.2340979949</ele>
        <time>2021-11-18T08:16:51Z</time>
      </trkpt>
      <trkpt lat="44.19146" lon="6.96642">
        <ele>1643.2341556624</ele>
        <time>2021-11-18T08:16:52Z</time>
      </trkpt>
      <trkpt lat="44.19145" lon="6.96643">
        <ele>1643.2341826521</ele>
        <time>2021-11-18T08:16:53Z</time>
      </trkpt>
      <trkpt lat="44.19145" lon="6.96644">
        <ele>1643.2341967337</ele>
        <time>2021-11-18T08:16:54Z</time>
      </trkpt>
      <trkpt lat="44.19145" lon="6.96646">
        <ele>1644.2342059538</ele>
        <time>2021-11-18T08:16:55Z</time>
      </trkpt>
      <trkpt lat="44.19145" lon="6.96647">
        <ele>1644.2342160121</ele>
        <time>2021-11-18T08:16:56Z</time>
      </trkpt>
      <trkpt lat="44.19144" lon="6.96648">
        <ele>1644.2342310995</ele>
        <time>2021-11-18T08:16:57Z</time>
      </trkpt>
      <trkpt lat="44.19143" lon="6.96651">
        <ele>1644.2342725061</ele>
        <time>2021-11-18T08:16:59Z</time>
      </trkpt>
      <trkpt lat="44.19142" lon="6.96651">
        <ele>1644.2343058661</ele>
        <time>2021-11-18T08:17:01Z</time>
      </trkpt>
      <trkpt lat="44.19142" lon="6.96651">
        <ele>1644.2343325205</ele>
        <time>2021-11-18T08:17:02Z</time>
      </trkpt>
      <trkpt lat="44.19141" lon="6.96651">
        <ele>1644.2343660481</ele>
        <time>2021-11-18T08:17:05Z</time>
      </trkpt>
      <trkpt lat="44.19141" lon="6.96652">
        <ele>1645.2343680598</ele>
        <time>2021-11-18T08:17:06Z</time>
      </trkpt>
      <trkpt lat="44.1914" lon="6.96652">
        <ele>1646.2343885116</ele>
        <time>2021-11-18T08:17:07Z</time>
      </trkpt>
      <trkpt lat="44.1914" lon="6.96653">
        <ele>1646.2343995757</ele>
        <time>2021-11-18T08:17:08Z</time>
      </trkpt>
      <trkpt lat="44.1914" lon="6.96654">
        <ele>1646.2344141603</ele>
        <time>2021-11-18T08:17:09Z</time>
      </trkpt>
      <trkpt lat="44.19139" lon="6.96655">
        <ele>1646.2344528846</ele>
        <time>2021-11-18T08:17:11Z</time>
      </trkpt>
      <trkpt lat="44.19138" lon="6.96655">
        <ele>1647.2344797067</ele>
        <time>2021-11-18T08:17:12Z</time>
      </trkpt>
      <trkpt lat="44.19138" lon="6.96655">
        <ele>1647.2344959676</ele>
        <time>2021-11-18T08:17:14Z</time>
      </trkpt>
      <trkpt lat="44.19137" lon="6.96657">
        <ele>1646.2345335186</ele>
        <time>2021-11-18T08:17:15Z</time>
      </trkpt>
      <trkpt lat="44.19136" lon="6.96657">
        <ele>1647.2345605083</ele>
        <time>2021-11-18T08:17:16Z</time>
      </trkpt>
      <trkpt lat="44.19135" lon="6.96657">
        <ele>1647.2345994003</ele>
        <time>2021-11-18T08:17:17Z</time>
      </trkpt>
      <trkpt lat="44.19134" lon="6.96657">
        <ele>1647.2346220315</ele>
        <time>2021-11-18T08:17:18Z</time>
      </trkpt>
      <trkpt lat="44.19132" lon="6.96655">
        <ele>1648.2347112149</ele>
        <time>2021-11-18T08:17:20Z</time>
      </trkpt>
      <trkpt lat="44.19131" lon="6.96655">
        <ele>1648.2347444072</ele>
        <time>2021-11-18T08:17:22Z</time>
      </trkpt>
      <trkpt lat="44.1913" lon="6.96654">
        <ele>1649.2348009013</ele>
        <time>2021-11-18T08:17:24Z</time>
      </trkpt>
      <trkpt lat="44.19128" lon="6.96655">
        <ele>1648.234866783</ele>
        <time>2021-11-18T08:17:26Z</time>
      </trkpt>
      <trkpt lat="44.19127" lon="6.96656">
        <ele>1648.2349179126</ele>
        <time>2021-11-18T08:17:27Z</time>
      </trkpt>
      <trkpt lat="44.19126" lon="6.96656">
        <ele>1648.2349594869</ele>
        <time>2021-11-18T08:17:28Z</time>
      </trkpt>
      <trkpt lat="44.19126" lon="6.96657">
        <ele>1648.2349792682</ele>
        <time>2021-11-18T08:17:29Z</time>
      </trkpt>
      <trkpt lat="44.19124" lon="6.96658">
        <ele>1649.2350360975</ele>
        <time>2021-11-18T08:17:30Z</time>
      </trkpt>
      <trkpt lat="44.19123" lon="6.96658">
        <ele>1649.2350882329</ele>
        <time>2021-11-18T08:17:31Z</time>
      </trkpt>
      <trkpt lat="44.19121" lon="6.96658">
        <ele>1649.2351437211</ele>
        <time>2021-11-18T08:17:32Z</time>
      </trkpt>
      <trkpt lat="44.1912" lon="6.96658">
        <ele>1650.2351926714</ele>
        <time>2021-11-18T08:17:33Z</time>
      </trkpt>
      <trkpt lat="44.19119" lon="6.96659">
        <ele>1649.2352387719</ele>
        <time>2021-11-18T08:17:35Z</time>
      </trkpt>
      <trkpt lat="44.19118" lon="6.9666">
        <ele>1649.2352810167</ele>
        <time>2021-11-18T08:17:36Z</time>
      </trkpt>
      <trkpt lat="44.19118" lon="6.96661">
        <ele>1649.2352994569</ele>
        <time>2021-11-18T08:17:37Z</time>
      </trkpt>
      <trkpt lat="44.19117" lon="6.96661">
        <ele>1649.2353370078</ele>
        <time>2021-11-18T08:17:38Z</time>
      </trkpt>
      <trkpt lat="44.19116" lon="6.96662">
        <ele>1651.2353769056</ele>
        <time>2021-11-18T08:17:39Z</time>
      </trkpt>
      <trkpt lat="44.19116" lon="6.96662">
        <ele>1651.2353769056</ele>
        <time>2021-11-18T08:17:41Z</time>
      </trkpt>
      <trkpt lat="44.19114" lon="6.96663">
        <ele>1652.2354525104</ele>
        <time>2021-11-18T08:17:42Z</time>
      </trkpt>
      <trkpt lat="44.19113" lon="6.96664">
        <ele>1652.2354855351</ele>
        <time>2021-11-18T08:17:43Z</time>
      </trkpt>
      <trkpt lat="44.19113" lon="6.96664">
        <ele>1652.2355011255</ele>
        <time>2021-11-18T08:17:44Z</time>
      </trkpt>
      <trkpt lat="44.19111" lon="6.96664">
        <ele>1652.2355608046</ele>
        <time>2021-11-18T08:17:46Z</time>
      </trkpt>
      <trkpt lat="44.1911" lon="6.96663">
        <ele>1653.2356017083</ele>
        <time>2021-11-18T08:17:47Z</time>
      </trkpt>
      <trkpt lat="44.19109" lon="6.96662">
        <ele>1653.2356325537</ele>
        <time>2021-11-18T08:17:48Z</time>
      </trkpt>
      <trkpt lat="44.19108" lon="6.96661">
        <ele>1652.2356903888</ele>
        <time>2021-11-18T08:17:50Z</time>
      </trkpt>
      <trkpt lat="44.19107" lon="6.96661">
        <ele>1652.2357188873</ele>
        <time>2021-11-18T08:17:51Z</time>
      </trkpt>
      <trkpt lat="44.19106" lon="6.96661">
        <ele>1653.2357457094</ele>
        <time>2021-11-18T08:17:52Z</time>
      </trkpt>
      <trkpt lat="44.19105" lon="6.96661">
        <ele>1655.235808406</ele>
        <time>2021-11-18T08:17:54Z</time>
      </trkpt>
      <trkpt lat="44.19102" lon="6.96662">
        <ele>1655.2359128445</ele>
        <time>2021-11-18T08:17:56Z</time>
      </trkpt>
      <trkpt lat="44.19101" lon="6.96662">
        <ele>1654.2359782234</ele>
        <time>2021-11-18T08:17:57Z</time>
      </trkpt>
      <trkpt lat="44.191" lon="6.96662">
        <ele>1654.2360144332</ele>
        <time>2021-11-18T08:17:58Z</time>
      </trkpt>
      <trkpt lat="44.19097" lon="6.96662">
        <ele>1653.2361042872</ele>
        <time>2021-11-18T08:18:00Z</time>
      </trkpt>
      <trkpt lat="44.19096" lon="6.96662">
        <ele>1654.2361674868</ele>
        <time>2021-11-18T08:18:01Z</time>
      </trkpt>
      <trkpt lat="44.19095" lon="6.96662">
        <ele>1655.2362135872</ele>
        <time>2021-11-18T08:18:02Z</time>
      </trkpt>
      <trkpt lat="44.19093" lon="6.96664">
        <ele>1657.2362957299</ele>
        <time>2021-11-18T08:18:04Z</time>
      </trkpt>
      <trkpt lat="44.19091" lon="6.96664">
        <ele>1657.2363668084</ele>
        <time>2021-11-18T08:18:06Z</time>
      </trkpt>
      <trkpt lat="44.19089" lon="6.96664">
        <ele>1657.2364347018</ele>
        <time>2021-11-18T08:18:07Z</time>
      </trkpt>
      <trkpt lat="44.19088" lon="6.96663">
        <ele>1657.2364829816</ele>
        <time>2021-11-18T08:18:08Z</time>
      </trkpt>
      <trkpt lat="44.19087" lon="6.96659">
        <ele>1658.236510139</ele>
        <time>2021-11-18T08:18:10Z</time>
      </trkpt>
      <trkpt lat="44.19087" lon="6.96659">
        <ele>1658.236510139</ele>
        <time>2021-11-18T08:18:12Z</time>
      </trkpt>
      <trkpt lat="44.19085" lon="6.96657">
        <ele>1659.2365922816</ele>
        <time>2021-11-18T08:18:13Z</time>
      </trkpt>
      <trkpt lat="44.19085" lon="6.96655">
        <ele>1659.2366072014</ele>
        <time>2021-11-18T08:18:14Z</time>
      </trkpt>
      <trkpt lat="44.19084" lon="6.96654">
        <ele>1658.2366491109</ele>
        <time>2021-11-18T08:18:15Z</time>
      </trkpt>
      <trkpt lat="44.19083" lon="6.96652">
        <ele>1658.2366754301</ele>
        <time>2021-11-18T08:18:16Z</time>
      </trkpt>
      <trkpt lat="44.19083" lon="6.9665">
        <ele>1657.2367005758</ele>
        <time>2021-11-18T08:18:17Z</time>
      </trkpt>
      <trkpt lat="44.1908" lon="6.96648">
        <ele>1657.2367880829</ele>
        <time>2021-11-18T08:18:19Z</time>
      </trkpt>
      <trkpt lat="44.19079" lon="6.96647">
        <ele>1657.236824628</ele>
        <time>2021-11-18T08:18:20Z</time>
      </trkpt>
      <trkpt lat="44.19078" lon="6.96646">
        <ele>1657.2368765958</ele>
        <time>2021-11-18T08:18:21Z</time>
      </trkpt>
      <trkpt lat="44.19077" lon="6.96645">
        <ele>1658.236916326</ele>
        <time>2021-11-18T08:18:22Z</time>
      </trkpt>
      <trkpt lat="44.19076" lon="6.96645">
        <ele>1658.2369441539</ele>
        <time>2021-11-18T08:18:23Z</time>
      </trkpt>
      <trkpt lat="44.19076" lon="6.96644">
        <ele>1658.2369676232</ele>
        <time>2021-11-18T08:18:24Z</time>
      </trkpt>
      <trkpt lat="44.19075" lon="6.96643">
        <ele>1659.236996457</ele>
        <time>2021-11-18T08:18:26Z</time>
      </trkpt>
      <trkpt lat="44.19075" lon="6.96641">
        <ele>1659.2370187528</ele>
        <time>2021-11-18T08:18:27Z</time>
      </trkpt>
      <trkpt lat="44.19074" lon="6.9664">
        <ele>1659.2370613329</ele>
        <time>2021-11-18T08:18:28Z</time>
      </trkpt>
      <trkpt lat="44.19072" lon="6.96638">
        <ele>1659.2371221855</ele>
        <time>2021-11-18T08:18:30Z</time>
      </trkpt>
      <trkpt lat="44.1907" lon="6.96636">
        <ele>1659.2371889055</ele>
        <time>2021-11-18T08:18:31Z</time>
      </trkpt>
      <trkpt lat="44.1907" lon="6.96634">
        <ele>1658.2372165658</ele>
        <time>2021-11-18T08:18:32Z</time>
      </trkpt>
      <trkpt lat="44.19068" lon="6.96632">
        <ele>1658.2372722216</ele>
        <time>2021-11-18T08:18:34Z</time>
      </trkpt>
      <trkpt lat="44.19065" lon="6.96631">
        <ele>1658.2373882271</ele>
        <time>2021-11-18T08:18:36Z</time>
      </trkpt>
      <trkpt lat="44.19065" lon="6.9663">
        <ele>1657.2374071702</ele>
        <time>2021-11-18T08:18:37Z</time>
      </trkpt>
      <trkpt lat="44.19064" lon="6.96629">
        <ele>1658.2374490798</ele>
        <time>2021-11-18T08:18:38Z</time>
      </trkpt>
      <trkpt lat="44.19063" lon="6.96629">
        <ele>1658.2374666817</ele>
        <time>2021-11-18T08:18:40Z</time>
      </trkpt>
      <trkpt lat="44.19062" lon="6.96628">
        <ele>1658.2375030592</ele>
        <time>2021-11-18T08:18:41Z</time>
      </trkpt>
      <trkpt lat="44.19062" lon="6.96627">
        <ele>1658.2375176437</ele>
        <time>2021-11-18T08:18:42Z</time>
      </trkpt>
      <trkpt lat="44.19061" lon="6.96627">
        <ele>1658.2375488244</ele>
        <time>2021-11-18T08:18:43Z</time>
      </trkpt>
      <trkpt lat="44.19061" lon="6.96626">
        <ele>1658.2375743054</ele>
        <time>2021-11-18T08:18:44Z</time>
      </trkpt>
      <trkpt lat="44.1906" lon="6.96626">
        <ele>1657.2376024686</ele>
        <time>2021-11-18T08:18:46Z</time>
      </trkpt>
      <trkpt lat="44.19058" lon="6.96626">
        <ele>1657.237666674</ele>
        <time>2021-11-18T08:18:47Z</time>
      </trkpt>
      <trkpt lat="44.19057" lon="6.96626">
        <ele>1657.2377072424</ele>
        <time>2021-11-18T08:18:48Z</time>
      </trkpt>
      <trkpt lat="44.19057" lon="6.96625">
        <ele>1656.2377317175</ele>
        <time>2021-11-18T08:18:49Z</time>
      </trkpt>
      <trkpt lat="44.19055" lon="6.96624">
        <ele>1657.2377820089</ele>
        <time>2021-11-18T08:18:50Z</time>
      </trkpt>
      <trkpt lat="44.19055" lon="6.96623">
        <ele>1657.2378143631</ele>
        <time>2021-11-18T08:18:51Z</time>
      </trkpt>
      <trkpt lat="44.19054" lon="6.96623">
        <ele>1657.2378455438</ele>
        <time>2021-11-18T08:18:52Z</time>
      </trkpt>
      <trkpt lat="44.19053" lon="6.96623">
        <ele>1657.237875551</ele>
        <time>2021-11-18T08:18:53Z</time>
      </trkpt>
      <trkpt lat="44.19052" lon="6.96623">
        <ele>1658.2379228249</ele>
        <time>2021-11-18T08:18:54Z</time>
      </trkpt>
      <trkpt lat="44.19051" lon="6.96623">
        <ele>1657.2379818335</ele>
        <time>2021-11-18T08:18:56Z</time>
      </trkpt>
      <trkpt lat="44.19051" lon="6.96623">
        <ele>1657.2379796542</ele>
        <time>2021-11-18T08:18:57Z</time>
      </trkpt>
      <trkpt lat="44.1905" lon="6.96624">
        <ele>1658.2379980944</ele>
        <time>2021-11-18T08:18:58Z</time>
      </trkpt>
      <trkpt lat="44.19049" lon="6.96624">
        <ele>1658.2380341366</ele>
        <time>2021-11-18T08:18:59Z</time>
      </trkpt>
      <trkpt lat="44.19048" lon="6.96624">
        <ele>1658.2380656525</ele>
        <time>2021-11-18T08:19:01Z</time>
      </trkpt>
      <trkpt lat="44.19048" lon="6.96624">
        <ele>1658.2380832545</ele>
        <time>2021-11-18T08:19:02Z</time>
      </trkpt>
      <trkpt lat="44.19047" lon="6.96624">
        <ele>1659.2381119207</ele>
        <time>2021-11-18T08:19:03Z</time>
      </trkpt>
      <trkpt lat="44.19046" lon="6.96624">
        <ele>1659.2381618768</ele>
        <time>2021-11-18T08:19:05Z</time>
      </trkpt>
      <trkpt lat="44.19046" lon="6.96624">
        <ele>1659.2381727733</ele>
        <time>2021-11-18T08:19:06Z</time>
      </trkpt>
      <trkpt lat="44.19045" lon="6.96624">
        <ele>1660.2381970808</ele>
        <time>2021-11-18T08:19:07Z</time>
      </trkpt>
      <trkpt lat="44.19043" lon="6.96623">
        <ele>1660.238281738</ele>
        <time>2021-11-18T08:19:09Z</time>
      </trkpt>
      <trkpt lat="44.19041" lon="6.96624">
        <ele>1659.2383513078</ele>
        <time>2021-11-18T08:19:11Z</time>
      </trkpt>
      <trkpt lat="44.19041" lon="6.96624">
        <ele>1660.2383732684</ele>
        <time>2021-11-18T08:19:12Z</time>
      </trkpt>
      <trkpt lat="44.1904" lon="6.96624">
        <ele>1661.238404952</ele>
        <time>2021-11-18T08:19:13Z</time>
      </trkpt>
      <trkpt lat="44.19039" lon="6.96623">
        <ele>1661.2384404913</ele>
        <time>2021-11-18T08:19:14Z</time>
      </trkpt>
      <trkpt lat="44.19037" lon="6.96623">
        <ele>1662.238523975</ele>
        <time>2021-11-18T08:19:16Z</time>
      </trkpt>
      <trkpt lat="44.19036" lon="6.96623">
        <ele>1662.2385513</ele>
        <time>2021-11-18T08:19:17Z</time>
      </trkpt>
      <trkpt lat="44.19036" lon="6.96623">
        <ele>1663.2385776192</ele>
        <time>2021-11-18T08:19:18Z</time>
      </trkpt>
      <trkpt lat="44.19034" lon="6.96623">
        <ele>1663.2386401482</ele>
        <time>2021-11-18T08:19:20Z</time>
      </trkpt>
      <trkpt lat="44.19033" lon="6.96622">
        <ele>1663.2386822253</ele>
        <time>2021-11-18T08:19:22Z</time>
      </trkpt>
      <trkpt lat="44.19032" lon="6.96621">
        <ele>1662.2387073711</ele>
        <time>2021-11-18T08:19:24Z</time>
      </trkpt>
      <trkpt lat="44.19031" lon="6.9662">
        <ele>1661.23876068</ele>
        <time>2021-11-18T08:19:26Z</time>
      </trkpt>
      <trkpt lat="44.1903" lon="6.96619">
        <ele>1661.238793537</ele>
        <time>2021-11-18T08:19:27Z</time>
      </trkpt>
      <trkpt lat="44.1903" lon="6.96619">
        <ele>1662.2388113067</ele>
        <time>2021-11-18T08:19:28Z</time>
      </trkpt>
      <trkpt lat="44.19029" lon="6.96619">
        <ele>1663.2388569042</ele>
        <time>2021-11-18T08:19:30Z</time>
      </trkpt>
      <trkpt lat="44.19028" lon="6.96621">
        <ele>1663.2388822176</ele>
        <time>2021-11-18T08:19:32Z</time>
      </trkpt>
      <trkpt lat="44.19027" lon="6.9662">
        <ele>1663.23890334</ele>
        <time>2021-11-18T08:19:33Z</time>
      </trkpt>
      <trkpt lat="44.19027" lon="6.96621">
        <ele>1663.238938041</ele>
        <time>2021-11-18T08:19:34Z</time>
      </trkpt>
      <trkpt lat="44.19026" lon="6.96623">
        <ele>1662.2389658689</ele>
        <time>2021-11-18T08:19:36Z</time>
      </trkpt>
      <trkpt lat="44.19025" lon="6.96624">
        <ele>1662.2389910147</ele>
        <time>2021-11-18T08:19:37Z</time>
      </trkpt>
      <trkpt lat="44.19025" lon="6.96624">
        <ele>1662.239014484</ele>
        <time>2021-11-18T08:19:38Z</time>
      </trkpt>
      <trkpt lat="44.19024" lon="6.96625">
        <ele>1662.2390354387</ele>
        <time>2021-11-18T08:19:39Z</time>
      </trkpt>
      <trkpt lat="44.19024" lon="6.96627">
        <ele>1662.2390510291</ele>
        <time>2021-11-18T08:19:41Z</time>
      </trkpt>
      <trkpt lat="44.19024" lon="6.96627">
        <ele>1661.239039965</ele>
        <time>2021-11-18T08:19:42Z</time>
      </trkpt>
      <trkpt lat="44.19024" lon="6.96628">
        <ele>1661.2390265539</ele>
        <time>2021-11-18T08:19:43Z</time>
      </trkpt>
      <trkpt lat="44.19024" lon="6.9663">
        <ele>1660.2390528731</ele>
        <time>2021-11-18T08:19:45Z</time>
      </trkpt>
      <trkpt lat="44.19024" lon="6.96631">
        <ele>1660.239032086</ele>
        <time>2021-11-18T08:19:46Z</time>
      </trkpt>
      <trkpt lat="44.19025" lon="6.96631">
        <ele>1659.2389978878</ele>
        <time>2021-11-18T08:19:47Z</time>
      </trkpt>
      <trkpt lat="44.19026" lon="6.9663">
        <ele>1659.238947764</ele>
        <time>2021-11-18T08:19:48Z</time>
      </trkpt>
      <trkpt lat="44.19027" lon="6.9663">
        <ele>1658.23891256</ele>
        <time>2021-11-18T08:19:51Z</time>
      </trkpt>
      <trkpt lat="44.19028" lon="6.9663">
        <ele>1658.2388721593</ele>
        <time>2021-11-18T08:19:52Z</time>
      </trkpt>
      <trkpt lat="44.19029" lon="6.96629">
        <ele>1658.2388501987</ele>
        <time>2021-11-18T08:19:55Z</time>
      </trkpt>
      <trkpt lat="44.19031" lon="6.9663">
        <ele>1658.2387766056</ele>
        <time>2021-11-18T08:19:56Z</time>
      </trkpt>
      <trkpt lat="44.19031" lon="6.9663">
        <ele>1658.238750957</ele>
        <time>2021-11-18T08:19:57Z</time>
      </trkpt>
      <trkpt lat="44.19032" lon="6.96631">
        <ele>1658.2387279905</ele>
        <time>2021-11-18T08:19:58Z</time>
      </trkpt>
      <trkpt lat="44.19032" lon="6.96631">
        <ele>1657.2387093827</ele>
        <time>2021-11-18T08:20:01Z</time>
      </trkpt>
      <trkpt lat="44.19033" lon="6.96632">
        <ele>1658.2386889309</ele>
        <time>2021-11-18T08:20:02Z</time>
      </trkpt>
      <trkpt lat="44.19033" lon="6.96633">
        <ele>1658.2386678085</ele>
        <time>2021-11-18T08:20:03Z</time>
      </trkpt>
      <trkpt lat="44.19034" lon="6.96633">
        <ele>1658.2386389747</ele>
        <time>2021-11-18T08:20:04Z</time>
      </trkpt>
      <trkpt lat="44.19034" lon="6.96635">
        <ele>1657.2386265695</ele>
        <time>2021-11-18T08:20:06Z</time>
      </trkpt>
      <trkpt lat="44.19035" lon="6.96636">
        <ele>1657.2385977358</ele>
        <time>2021-11-18T08:20:09Z</time>
      </trkpt>
      <trkpt lat="44.19037" lon="6.96637">
        <ele>1657.2385043614</ele>
        <time>2021-11-18T08:20:10Z</time>
      </trkpt>
      <trkpt lat="44.19038" lon="6.96637">
        <ele>1657.238467481</ele>
        <time>2021-11-18T08:20:11Z</time>
      </trkpt>
      <trkpt lat="44.19039" lon="6.96638">
        <ele>1658.2384574227</ele>
        <time>2021-11-18T08:20:12Z</time>
      </trkpt>
      <trkpt lat="44.19039" lon="6.9664">
        <ele>1658.2384347916</ele>
        <time>2021-11-18T08:20:14Z</time>
      </trkpt>
      <trkpt lat="44.19038" lon="6.9664">
        <ele>1662.2384637929</ele>
        <time>2021-11-18T08:20:17Z</time>
      </trkpt>
      <trkpt lat="44.19038" lon="6.9664">
        <ele>1663.2384756953</ele>
        <time>2021-11-18T08:20:18Z</time>
      </trkpt>
      <trkpt lat="44.19037" lon="6.96639">
        <ele>1665.2385244779</ele>
        <time>2021-11-18T08:20:20Z</time>
      </trkpt>
      <trkpt lat="44.19037" lon="6.96639">
        <ele>1665.2385244779</ele>
        <time>2021-11-18T08:20:22Z</time>
      </trkpt>
      <trkpt lat="44.19034" lon="6.9664">
        <ele>1667.2386359572</ele>
        <time>2021-11-18T08:20:24Z</time>
      </trkpt>
      <trkpt lat="44.19033" lon="6.96641">
        <ele>1667.2386773638</ele>
        <time>2021-11-18T08:20:26Z</time>
      </trkpt>
      <trkpt lat="44.19032" lon="6.96641">
        <ele>1667.2387098856</ele>
        <time>2021-11-18T08:20:27Z</time>
      </trkpt>
      <trkpt lat="44.19031" lon="6.96641">
        <ele>1668.2387482747</ele>
        <time>2021-11-18T08:20:28Z</time>
      </trkpt>
      <trkpt lat="44.1903" lon="6.96643">
        <ele>1667.2387869991</ele>
        <time>2021-11-18T08:20:30Z</time>
      </trkpt>
      <trkpt lat="44.19029" lon="6.96643">
        <ele>1666.238840308</ele>
        <time>2021-11-18T08:20:32Z</time>
      </trkpt>
      <trkpt lat="44.19029" lon="6.96642">
        <ele>1666.2388552278</ele>
        <time>2021-11-18T08:20:33Z</time>
      </trkpt>
      <trkpt lat="44.19028" lon="6.96642">
        <ele>1666.2388693094</ele>
        <time>2021-11-18T08:20:34Z</time>
      </trkpt>
      <trkpt lat="44.19028" lon="6.96641">
        <ele>1667.238877859</ele>
        <time>2021-11-18T08:20:36Z</time>
      </trkpt>
      <trkpt lat="44.19027" lon="6.96641">
        <ele>1668.2389128953</ele>
        <time>2021-11-18T08:20:37Z</time>
      </trkpt>
      <trkpt lat="44.19026" lon="6.96641">
        <ele>1670.2389678806</ele>
        <time>2021-11-18T08:20:39Z</time>
      </trkpt>
      <trkpt lat="44.19025" lon="6.9664">
        <ele>1670.2389967144</ele>
        <time>2021-11-18T08:20:40Z</time>
      </trkpt>
      <trkpt lat="44.19023" lon="6.96639">
        <ele>1670.2390791923</ele>
        <time>2021-11-18T08:20:42Z</time>
      </trkpt>
      <trkpt lat="44.19022" lon="6.96639">
        <ele>1670.2391400449</ele>
        <time>2021-11-18T08:20:43Z</time>
      </trkpt>
      <trkpt lat="44.19021" lon="6.96638">
        <ele>1670.2391816191</ele>
        <time>2021-11-18T08:20:44Z</time>
      </trkpt>
      <trkpt lat="44.19019" lon="6.96637">
        <ele>1670.2392399572</ele>
        <time>2021-11-18T08:20:46Z</time>
      </trkpt>
      <trkpt lat="44.19019" lon="6.96638">
        <ele>1671.2392577268</ele>
        <time>2021-11-18T08:20:47Z</time>
      </trkpt>
      <trkpt lat="44.19018" lon="6.96638">
        <ele>1670.2392863929</ele>
        <time>2021-11-18T08:20:50Z</time>
      </trkpt>
      <trkpt lat="44.19016" lon="6.96637">
        <ele>1672.2393747382</ele>
        <time>2021-11-18T08:20:52Z</time>
      </trkpt>
      <trkpt lat="44.19015" lon="6.96638">
        <ele>1671.239414636</ele>
        <time>2021-11-18T08:20:53Z</time>
      </trkpt>
      <trkpt lat="44.19014" lon="6.96638">
        <ele>1671.2394369319</ele>
        <time>2021-11-18T08:20:56Z</time>
      </trkpt>
      <trkpt lat="44.19012" lon="6.96639">
        <ele>1671.2395388559</ele>
        <time>2021-11-18T08:20:57Z</time>
      </trkpt>
      <trkpt lat="44.1901" lon="6.9664">
        <ele>1671.2395864651</ele>
        <time>2021-11-18T08:20:58Z</time>
      </trkpt>
      <trkpt lat="44.19009" lon="6.9664">
        <ele>1671.2396287099</ele>
        <time>2021-11-18T08:20:59Z</time>
      </trkpt>
      <trkpt lat="44.19009" lon="6.96641">
        <ele>1671.2396567054</ele>
        <time>2021-11-18T08:21:00Z</time>
      </trkpt>
      <trkpt lat="44.19008" lon="6.96641">
        <ele>1671.2396850362</ele>
        <time>2021-11-18T08:21:03Z</time>
      </trkpt>
      <trkpt lat="44.19006" lon="6.96641">
        <ele>1671.2397758961</ele>
        <time>2021-11-18T08:21:04Z</time>
      </trkpt>
      <trkpt lat="44.19005" lon="6.96641">
        <ele>1671.2398069091</ele>
        <time>2021-11-18T08:21:05Z</time>
      </trkpt>
      <trkpt lat="44.19004" lon="6.96642">
        <ele>1670.2398246787</ele>
        <time>2021-11-18T08:21:06Z</time>
      </trkpt>
      <trkpt lat="44.19004" lon="6.96642">
        <ele>1670.239850495</ele>
        <time>2021-11-18T08:21:07Z</time>
      </trkpt>
      <trkpt lat="44.19003" lon="6.96642">
        <ele>1670.2398714498</ele>
        <time>2021-11-18T08:21:08Z</time>
      </trkpt>
      <trkpt lat="44.19003" lon="6.96642">
        <ele>1670.2398851961</ele>
        <time>2021-11-18T08:21:09Z</time>
      </trkpt>
      <trkpt lat="44.19002" lon="6.96643">
        <ele>1670.2399292849</ele>
        <time>2021-11-18T08:21:10Z</time>
      </trkpt>
      <trkpt lat="44.19001" lon="6.96644">
        <ele>1670.2399502397</ele>
        <time>2021-11-18T08:21:11Z</time>
      </trkpt>
      <trkpt lat="44.19" lon="6.96645">
        <ele>1671.2399872877</ele>
        <time>2021-11-18T08:21:12Z</time>
      </trkpt>
      <trkpt lat="44.19" lon="6.96645">
        <ele>1671.2400206476</ele>
        <time>2021-11-18T08:21:13Z</time>
      </trkpt>
      <trkpt lat="44.18999" lon="6.96646">
        <ele>1671.2400553487</ele>
        <time>2021-11-18T08:21:14Z</time>
      </trkpt>
      <trkpt lat="44.18998" lon="6.96647">
        <ele>1672.2400759682</ele>
        <time>2021-11-18T08:21:17Z</time>
      </trkpt>
      <trkpt lat="44.18997" lon="6.96649">
        <ele>1672.2401240803</ele>
        <time>2021-11-18T08:21:18Z</time>
      </trkpt>
      <trkpt lat="44.18996" lon="6.9665">
        <ele>1672.2401460409</ele>
        <time>2021-11-18T08:21:19Z</time>
      </trkpt>
      <trkpt lat="44.18996" lon="6.96652">
        <ele>1673.2401621342</ele>
        <time>2021-11-18T08:21:20Z</time>
      </trkpt>
      <trkpt lat="44.18995" lon="6.96653">
        <ele>1672.2402058877</ele>
        <time>2021-11-18T08:21:21Z</time>
      </trkpt>
      <trkpt lat="44.18994" lon="6.96653">
        <ele>1673.2402474619</ele>
        <time>2021-11-18T08:21:22Z</time>
      </trkpt>
      <trkpt lat="44.18993" lon="6.96653">
        <ele>1672.2402831689</ele>
        <time>2021-11-18T08:21:23Z</time>
      </trkpt>
      <trkpt lat="44.18992" lon="6.96654">
        <ele>1674.2403148524</ele>
        <time>2021-11-18T08:21:24Z</time>
      </trkpt>
      <trkpt lat="44.18991" lon="6.96655">
        <ele>1673.2403572649</ele>
        <time>2021-11-18T08:21:25Z</time>
      </trkpt>
      <trkpt lat="44.1899" lon="6.96656">
        <ele>1674.2404177822</ele>
        <time>2021-11-18T08:21:26Z</time>
      </trkpt>
      <trkpt lat="44.18988" lon="6.96656">
        <ele>1674.2404712588</ele>
        <time>2021-11-18T08:21:27Z</time>
      </trkpt>
      <trkpt lat="44.18987" lon="6.96656">
        <ele>1674.2405311055</ele>
        <time>2021-11-18T08:21:28Z</time>
      </trkpt>
      <trkpt lat="44.18986" lon="6.96657">
        <ele>1675.2405725121</ele>
        <time>2021-11-18T08:21:29Z</time>
      </trkpt>
      <trkpt lat="44.18985" lon="6.96658">
        <ele>1676.2406155951</ele>
        <time>2021-11-18T08:21:30Z</time>
      </trkpt>
      <trkpt lat="44.18983" lon="6.96658">
        <ele>1676.240663372</ele>
        <time>2021-11-18T08:21:31Z</time>
      </trkpt>
      <trkpt lat="44.18983" lon="6.96659">
        <ele>1676.2406928763</ele>
        <time>2021-11-18T08:21:32Z</time>
      </trkpt>
      <trkpt lat="44.18982" lon="6.96659">
        <ele>1676.2407319359</ele>
        <time>2021-11-18T08:21:33Z</time>
      </trkpt>
      <trkpt lat="44.18981" lon="6.9666">
        <ele>1676.240759261</ele>
        <time>2021-11-18T08:21:34Z</time>
      </trkpt>
      <trkpt lat="44.1898" lon="6.96661">
        <ele>1675.2407840714</ele>
        <time>2021-11-18T08:21:35Z</time>
      </trkpt>
      <trkpt lat="44.18979" lon="6.96662">
        <ele>1676.2408279926</ele>
        <time>2021-11-18T08:21:36Z</time>
      </trkpt>
      <trkpt lat="44.18978" lon="6.96663">
        <ele>1677.2408756018</ele>
        <time>2021-11-18T08:21:37Z</time>
      </trkpt>
      <trkpt lat="44.18977" lon="6.96664">
        <ele>1678.2409357838</ele>
        <time>2021-11-18T08:21:38Z</time>
      </trkpt>
      <trkpt lat="44.18975" lon="6.96665">
        <ele>1678.2409852371</ele>
        <time>2021-11-18T08:21:39Z</time>
      </trkpt>
      <trkpt lat="44.18975" lon="6.96666">
        <ele>1678.2410169207</ele>
        <time>2021-11-18T08:21:40Z</time>
      </trkpt>
      <trkpt lat="44.18974" lon="6.96667">
        <ele>1678.2410497777</ele>
        <time>2021-11-18T08:21:41Z</time>
      </trkpt>
      <trkpt lat="44.18973" lon="6.96668">
        <ele>1678.2410796173</ele>
        <time>2021-11-18T08:21:42Z</time>
      </trkpt>
      <trkpt lat="44.18972" lon="6.96669">
        <ele>1679.2411203533</ele>
        <time>2021-11-18T08:21:43Z</time>
      </trkpt>
      <trkpt lat="44.18971" lon="6.9667">
        <ele>1679.2411657833</ele>
        <time>2021-11-18T08:21:44Z</time>
      </trkpt>
      <trkpt lat="44.1897" lon="6.96671">
        <ele>1679.241202496</ele>
        <time>2021-11-18T08:21:45Z</time>
      </trkpt>
      <trkpt lat="44.18969" lon="6.96672">
        <ele>1681.2412445731</ele>
        <time>2021-11-18T08:21:46Z</time>
      </trkpt>
      <trkpt lat="44.18968" lon="6.96672">
        <ele>1680.2412781008</ele>
        <time>2021-11-18T08:21:47Z</time>
      </trkpt>
      <trkpt lat="44.18967" lon="6.96672">
        <ele>1680.241311796</ele>
        <time>2021-11-18T08:21:48Z</time>
      </trkpt>
      <trkpt lat="44.18966" lon="6.96673">
        <ele>1681.2413644344</ele>
        <time>2021-11-18T08:21:49Z</time>
      </trkpt>
      <trkpt lat="44.18965" lon="6.96673">
        <ele>1681.2413879037</ele>
        <time>2021-11-18T08:21:50Z</time>
      </trkpt>
      <trkpt lat="44.18965" lon="6.96674">
        <ele>1682.2414167374</ele>
        <time>2021-11-18T08:21:51Z</time>
      </trkpt>
      <trkpt lat="44.18964" lon="6.96675">
        <ele>1682.2414606586</ele>
        <time>2021-11-18T08:21:52Z</time>
      </trkpt>
      <trkpt lat="44.18963" lon="6.96675">
        <ele>1682.2414985448</ele>
        <time>2021-11-18T08:21:53Z</time>
      </trkpt>
      <trkpt lat="44.18962" lon="6.96676">
        <ele>1682.2415287197</ele>
        <time>2021-11-18T08:21:54Z</time>
      </trkpt>
      <trkpt lat="44.18961" lon="6.96675">
        <ele>1682.2415513508</ele>
        <time>2021-11-18T08:21:55Z</time>
      </trkpt>
      <trkpt lat="44.1896" lon="6.96674">
        <ele>1682.2415840402</ele>
        <time>2021-11-18T08:21:56Z</time>
      </trkpt>
      <trkpt lat="44.1896" lon="6.96673">
        <ele>1681.2416200824</ele>
        <time>2021-11-18T08:21:57Z</time>
      </trkpt>
      <trkpt lat="44.18959" lon="6.96673">
        <ele>1681.2416561246</ele>
        <time>2021-11-18T08:21:58Z</time>
      </trkpt>
      <trkpt lat="44.18958" lon="6.96673">
        <ele>1682.2416931726</ele>
        <time>2021-11-18T08:21:59Z</time>
      </trkpt>
      <trkpt lat="44.18957" lon="6.96673">
        <ele>1683.2417159714</ele>
        <time>2021-11-18T08:22:00Z</time>
      </trkpt>
      <trkpt lat="44.18957" lon="6.96674">
        <ele>1683.2417399436</ele>
        <time>2021-11-18T08:22:01Z</time>
      </trkpt>
      <trkpt lat="44.18956" lon="6.96675">
        <ele>1683.2417617366</ele>
        <time>2021-11-18T08:22:02Z</time>
      </trkpt>
      <trkpt lat="44.18956" lon="6.96675">
        <ele>1683.2417530194</ele>
        <time>2021-11-18T08:22:03Z</time>
      </trkpt>
      <trkpt lat="44.18957" lon="6.96676">
        <ele>1682.2417364232</ele>
        <time>2021-11-18T08:22:04Z</time>
      </trkpt>
      <trkpt lat="44.18957" lon="6.96676">
        <ele>1681.2417092659</ele>
        <time>2021-11-18T08:22:05Z</time>
      </trkpt>
      <trkpt lat="44.18958" lon="6.96677">
        <ele>1681.2416941784</ele>
        <time>2021-11-18T08:22:06Z</time>
      </trkpt>
      <trkpt lat="44.18958" lon="6.96678">
        <ele>1680.2416725531</ele>
        <time>2021-11-18T08:22:07Z</time>
      </trkpt>
      <trkpt lat="44.18959" lon="6.96677">
        <ele>1679.2416474074</ele>
        <time>2021-11-18T08:22:08Z</time>
      </trkpt>
      <trkpt lat="44.18959" lon="6.96677">
        <ele>1679.2416289672</ele>
        <time>2021-11-18T08:22:09Z</time>
      </trkpt>
      <trkpt lat="44.1896" lon="6.96677">
        <ele>1679.2415987924</ele>
        <time>2021-11-18T08:22:12Z</time>
      </trkpt>
      <trkpt lat="44.18961" lon="6.9668">
        <ele>1678.2415744849</ele>
        <time>2021-11-18T08:22:13Z</time>
      </trkpt>
      <trkpt lat="44.1896" lon="6.96681">
        <ele>1678.2416098565</ele>
        <time>2021-11-18T08:22:14Z</time>
      </trkpt>
      <trkpt lat="44.18958" lon="6.96682">
        <ele>1678.2416683622</ele>
        <time>2021-11-18T08:22:15Z</time>
      </trkpt>
      <trkpt lat="44.18957" lon="6.96682">
        <ele>1679.2417085953</ele>
        <time>2021-11-18T08:22:16Z</time>
      </trkpt>
      <trkpt lat="44.18956" lon="6.96682">
        <ele>1679.2417489961</ele>
        <time>2021-11-18T08:22:17Z</time>
      </trkpt>
      <trkpt lat="44.18956" lon="6.96683">
        <ele>1680.2417813502</ele>
        <time>2021-11-18T08:22:18Z</time>
      </trkpt>
      <trkpt lat="44.18955" lon="6.96685">
        <ele>1681.2417910732</ele>
        <time>2021-11-18T08:22:19Z</time>
      </trkpt>
      <trkpt lat="44.18955" lon="6.96686">
        <ele>1681.2418063283</ele>
        <time>2021-11-18T08:22:20Z</time>
      </trkpt>
      <trkpt lat="44.18955" lon="6.96687">
        <ele>1681.2418054901</ele>
        <time>2021-11-18T08:22:21Z</time>
      </trkpt>
      <trkpt lat="44.18955" lon="6.96688">
        <ele>1682.2418160513</ele>
        <time>2021-11-18T08:22:26Z</time>
      </trkpt>
      <trkpt lat="44.18956" lon="6.96691">
        <ele>1681.2417684421</ele>
        <time>2021-11-18T08:22:27Z</time>
      </trkpt>
      <trkpt lat="44.18956" lon="6.96692">
        <ele>1681.2417702861</ele>
        <time>2021-11-18T08:22:28Z</time>
      </trkpt>
      <trkpt lat="44.18955" lon="6.96693">
        <ele>1681.2417885587</ele>
        <time>2021-11-18T08:22:29Z</time>
      </trkpt>
      <trkpt lat="44.18955" lon="6.96694">
        <ele>1682.2417949289</ele>
        <time>2021-11-18T08:22:31Z</time>
      </trkpt>
      <trkpt lat="44.18955" lon="6.96694">
        <ele>1683.2418046519</ele>
        <time>2021-11-18T08:22:32Z</time>
      </trkpt>
      <trkpt lat="44.18955" lon="6.96696">
        <ele>1682.2417991199</ele>
        <time>2021-11-18T08:22:33Z</time>
      </trkpt>
      <trkpt lat="44.18955" lon="6.96696">
        <ele>1681.2417950965</ele>
        <time>2021-11-18T08:22:36Z</time>
      </trkpt>
      <trkpt lat="44.18955" lon="6.96698">
        <ele>1683.2418090105</ele>
        <time>2021-11-18T08:22:37Z</time>
      </trkpt>
      <trkpt lat="44.18954" lon="6.96698">
        <ele>1683.241835162</ele>
        <time>2021-11-18T08:22:38Z</time>
      </trkpt>
      <trkpt lat="44.18954" lon="6.96698">
        <ele>1683.241847232</ele>
        <time>2021-11-18T08:22:39Z</time>
      </trkpt>
      <trkpt lat="44.18953" lon="6.96698">
        <ele>1683.2418784127</ele>
        <time>2021-11-18T08:22:42Z</time>
      </trkpt>
      <trkpt lat="44.18951" lon="6.96699">
        <ele>1684.24196022</ele>
        <time>2021-11-18T08:22:43Z</time>
      </trkpt>
      <trkpt lat="44.1895" lon="6.96698">
        <ele>1683.2419939153</ele>
        <time>2021-11-18T08:22:44Z</time>
      </trkpt>
      <trkpt lat="44.18949" lon="6.96698">
        <ele>1684.2420262694</ele>
        <time>2021-11-18T08:22:45Z</time>
      </trkpt>
      <trkpt lat="44.18948" lon="6.96697">
        <ele>1684.2420690171</ele>
        <time>2021-11-18T08:22:46Z</time>
      </trkpt>
      <trkpt lat="44.18947" lon="6.96697">
        <ele>1685.2421053946</ele>
        <time>2021-11-18T08:22:47Z</time>
      </trkpt>
      <trkpt lat="44.18947" lon="6.96697">
        <ele>1685.2421377487</ele>
        <time>2021-11-18T08:22:48Z</time>
      </trkpt>
      <trkpt lat="44.18945" lon="6.96697">
        <ele>1685.2421841845</ele>
        <time>2021-11-18T08:22:49Z</time>
      </trkpt>
      <trkpt lat="44.18945" lon="6.96696">
        <ele>1686.2422131859</ele>
        <time>2021-11-18T08:22:50Z</time>
      </trkpt>
      <trkpt lat="44.18944" lon="6.96696">
        <ele>1686.2422532514</ele>
        <time>2021-11-18T08:22:51Z</time>
      </trkpt>
      <trkpt lat="44.18942" lon="6.96696">
        <ele>1686.2423027046</ele>
        <time>2021-11-18T08:22:52Z</time>
      </trkpt>
      <trkpt lat="44.18942" lon="6.96697">
        <ele>1687.2423400879</ele>
        <time>2021-11-18T08:22:53Z</time>
      </trkpt>
      <trkpt lat="44.18941" lon="6.96697">
        <ele>1687.2423628867</ele>
        <time>2021-11-18T08:22:54Z</time>
      </trkpt>
      <trkpt lat="44.1894" lon="6.96698">
        <ele>1687.2423902117</ele>
        <time>2021-11-18T08:22:55Z</time>
      </trkpt>
      <trkpt lat="44.18939" lon="6.96698">
        <ele>1688.2424289361</ele>
        <time>2021-11-18T08:22:56Z</time>
      </trkpt>
      <trkpt lat="44.18939" lon="6.96699">
        <ele>1689.2424565963</ele>
        <time>2021-11-18T08:22:57Z</time>
      </trkpt>
      <trkpt lat="44.18938" lon="6.96699">
        <ele>1690.242482245</ele>
        <time>2021-11-18T08:22:58Z</time>
      </trkpt>
      <trkpt lat="44.18937" lon="6.96699">
        <ele>1690.2425090671</ele>
        <time>2021-11-18T08:22:59Z</time>
      </trkpt>
      <trkpt lat="44.18937" lon="6.96699">
        <ele>1690.2425291836</ele>
        <time>2021-11-18T08:23:00Z</time>
      </trkpt>
      <trkpt lat="44.18936" lon="6.96698">
        <ele>1690.2425467856</ele>
        <time>2021-11-18T08:23:01Z</time>
      </trkpt>
      <trkpt lat="44.18936" lon="6.96698">
        <ele>1690.2425726019</ele>
        <time>2021-11-18T08:23:02Z</time>
      </trkpt>
      <trkpt lat="44.18935" lon="6.96697">
        <ele>1690.2426138408</ele>
        <time>2021-11-18T08:23:03Z</time>
      </trkpt>
      <trkpt lat="44.18934" lon="6.96697">
        <ele>1690.2426513918</ele>
        <time>2021-11-18T08:23:04Z</time>
      </trkpt>
      <trkpt lat="44.18933" lon="6.96697">
        <ele>1690.2426956482</ele>
        <time>2021-11-18T08:23:05Z</time>
      </trkpt>
      <trkpt lat="44.18932" lon="6.96697">
        <ele>1691.2427155972</ele>
        <time>2021-11-18T08:23:06Z</time>
      </trkpt>
      <trkpt lat="44.18932" lon="6.96697">
        <ele>1691.2427347079</ele>
        <time>2021-11-18T08:23:07Z</time>
      </trkpt>
      <trkpt lat="44.18931" lon="6.96697">
        <ele>1691.2427603565</ele>
        <time>2021-11-18T08:23:10Z</time>
      </trkpt>
      <trkpt lat="44.1893" lon="6.96699">
        <ele>1692.2428193651</ele>
        <time>2021-11-18T08:23:11Z</time>
      </trkpt>
      <trkpt lat="44.18928" lon="6.967">
        <ele>1693.2428698242</ele>
        <time>2021-11-18T08:23:12Z</time>
      </trkpt>
      <trkpt lat="44.18927" lon="6.967">
        <ele>1692.2429033518</ele>
        <time>2021-11-18T08:23:14Z</time>
      </trkpt>
      <trkpt lat="44.18926" lon="6.967">
        <ele>1694.24295884</ele>
        <time>2021-11-18T08:23:16Z</time>
      </trkpt>
      <trkpt lat="44.18925" lon="6.96701">
        <ele>1695.2429833151</ele>
        <time>2021-11-18T08:23:17Z</time>
      </trkpt>
      <trkpt lat="44.18925" lon="6.96701">
        <ele>1695.2430175133</ele>
        <time>2021-11-18T08:23:18Z</time>
      </trkpt>
      <trkpt lat="44.18922" lon="6.96702">
        <ele>1695.2431056909</ele>
        <time>2021-11-18T08:23:20Z</time>
      </trkpt>
      <trkpt lat="44.18921" lon="6.96702">
        <ele>1696.2431457564</ele>
        <time>2021-11-18T08:23:21Z</time>
      </trkpt>
      <trkpt lat="44.1892" lon="6.96702">
        <ele>1697.2432042621</ele>
        <time>2021-11-18T08:23:22Z</time>
      </trkpt>
      <trkpt lat="44.18919" lon="6.96701">
        <ele>1698.2432438247</ele>
        <time>2021-11-18T08:23:23Z</time>
      </trkpt>
      <trkpt lat="44.18918" lon="6.96699">
        <ele>1698.2432835549</ele>
        <time>2021-11-18T08:23:24Z</time>
      </trkpt>
      <trkpt lat="44.18917" lon="6.96698">
        <ele>1698.2433266379</ele>
        <time>2021-11-18T08:23:25Z</time>
      </trkpt>
      <trkpt lat="44.18916" lon="6.967">
        <ele>1698.2433735766</ele>
        <time>2021-11-18T08:23:27Z</time>
      </trkpt>
      <trkpt lat="44.18915" lon="6.96702">
        <ele>1698.2433915138</ele>
        <time>2021-11-18T08:23:28Z</time>
      </trkpt>
      <trkpt lat="44.18915" lon="6.96703">
        <ele>1698.2434163243</ele>
        <time>2021-11-18T08:23:29Z</time>
      </trkpt>
      <trkpt lat="44.18914" lon="6.96704">
        <ele>1698.2434344292</ele>
        <time>2021-11-18T08:23:30Z</time>
      </trkpt>
      <trkpt lat="44.18913" lon="6.96705">
        <ele>1699.2434654422</ele>
        <time>2021-11-18T08:23:31Z</time>
      </trkpt>
      <trkpt lat="44.18912" lon="6.96705">
        <ele>1699.2435309887</ele>
        <time>2021-11-18T08:23:32Z</time>
      </trkpt>
      <trkpt lat="44.1891" lon="6.96705">
        <ele>1700.2435925119</ele>
        <time>2021-11-18T08:23:33Z</time>
      </trkpt>
      <trkpt lat="44.18908" lon="6.96706">
        <ele>1702.2436868921</ele>
        <time>2021-11-18T08:23:35Z</time>
      </trkpt>
      <trkpt lat="44.18906" lon="6.96704">
        <ele>1703.2437584735</ele>
        <time>2021-11-18T08:23:37Z</time>
      </trkpt>
      <trkpt lat="44.18906" lon="6.96704">
        <ele>1704.2437784225</ele>
        <time>2021-11-18T08:23:38Z</time>
      </trkpt>
      <trkpt lat="44.18905" lon="6.96703">
        <ele>1703.2438062504</ele>
        <time>2021-11-18T08:23:39Z</time>
      </trkpt>
      <trkpt lat="44.18903" lon="6.96703">
        <ele>1702.2438912429</ele>
        <time>2021-11-18T08:23:41Z</time>
      </trkpt>
      <trkpt lat="44.18902" lon="6.96703">
        <ele>1702.243910186</ele>
        <time>2021-11-18T08:23:42Z</time>
      </trkpt>
      <trkpt lat="44.18902" lon="6.96704">
        <ele>1702.2439380139</ele>
        <time>2021-11-18T08:23:44Z</time>
      </trkpt>
      <trkpt lat="44.18901" lon="6.96704">
        <ele>1703.243978247</ele>
        <time>2021-11-18T08:23:46Z</time>
      </trkpt>
      <trkpt lat="44.189" lon="6.96704">
        <ele>1703.244007919</ele>
        <time>2021-11-18T08:23:47Z</time>
      </trkpt>
      <trkpt lat="44.18898" lon="6.96704">
        <ele>1703.2440726273</ele>
        <time>2021-11-18T08:23:49Z</time>
      </trkpt>
      <trkpt lat="44.18896" lon="6.96704">
        <ele>1703.2441688515</ele>
        <time>2021-11-18T08:23:51Z</time>
      </trkpt>
      <trkpt lat="44.18895" lon="6.96704">
        <ele>1703.2442092523</ele>
        <time>2021-11-18T08:23:52Z</time>
      </trkpt>
      <trkpt lat="44.18894" lon="6.96703">
        <ele>1704.2442271896</ele>
        <time>2021-11-18T08:23:53Z</time>
      </trkpt>
      <trkpt lat="44.18893" lon="6.96703">
        <ele>1704.2442674227</ele>
        <time>2021-11-18T08:23:54Z</time>
      </trkpt>
      <trkpt lat="44.18892" lon="6.96702">
        <ele>1704.2443385012</ele>
        <time>2021-11-18T08:23:56Z</time>
      </trkpt>
      <trkpt lat="44.1889" lon="6.96702">
        <ele>1703.2443948276</ele>
        <time>2021-11-18T08:23:57Z</time>
      </trkpt>
      <trkpt lat="44.18889" lon="6.96702">
        <ele>1703.2444389164</ele>
        <time>2021-11-18T08:23:58Z</time>
      </trkpt>
      <trkpt lat="44.18888" lon="6.96701">
        <ele>1703.2444945723</ele>
        <time>2021-11-18T08:24:00Z</time>
      </trkpt>
      <trkpt lat="44.18887" lon="6.96702">
        <ele>1703.2445212267</ele>
        <time>2021-11-18T08:24:01Z</time>
      </trkpt>
      <trkpt lat="44.18887" lon="6.96703">
        <ele>1703.2445230708</ele>
        <time>2021-11-18T08:24:02Z</time>
      </trkpt>
      <trkpt lat="44.18887" lon="6.96704">
        <ele>1703.2445384935</ele>
        <time>2021-11-18T08:24:03Z</time>
      </trkpt>
      <trkpt lat="44.18885" lon="6.96705">
        <ele>1702.2446104102</ele>
        <time>2021-11-18T08:24:05Z</time>
      </trkpt>
      <trkpt lat="44.18883" lon="6.96705">
        <ele>1702.2446627133</ele>
        <time>2021-11-18T08:24:07Z</time>
      </trkpt>
      <trkpt lat="44.18883" lon="6.96705">
        <ele>1703.2446895353</ele>
        <time>2021-11-18T08:24:08Z</time>
      </trkpt>
      <trkpt lat="44.18882" lon="6.96705">
        <ele>1703.2447037846</ele>
        <time>2021-11-18T08:24:09Z</time>
      </trkpt>
      <trkpt lat="44.18881" lon="6.96707">
        <ele>1705.2447493821</ele>
        <time>2021-11-18T08:24:11Z</time>
      </trkpt>
      <trkpt lat="44.18881" lon="6.96707">
        <ele>1705.2447629608</ele>
        <time>2021-11-18T08:24:12Z</time>
      </trkpt>
      <trkpt lat="44.1888" lon="6.96708">
        <ele>1706.2447882742</ele>
        <time>2021-11-18T08:24:13Z</time>
      </trkpt>
      <trkpt lat="44.18878" lon="6.96707">
        <ele>1704.2448670641</ele>
        <time>2021-11-18T08:24:15Z</time>
      </trkpt>
      <trkpt lat="44.18877" lon="6.96707">
        <ele>1704.2449129969</ele>
        <time>2021-11-18T08:24:16Z</time>
      </trkpt>
      <trkpt lat="44.18876" lon="6.96706">
        <ele>1705.244955577</ele>
        <time>2021-11-18T08:24:17Z</time>
      </trkpt>
      <trkpt lat="44.18875" lon="6.96704">
        <ele>1704.2450040244</ele>
        <time>2021-11-18T08:24:19Z</time>
      </trkpt>
      <trkpt lat="44.18874" lon="6.96704">
        <ele>1704.2450238056</ele>
        <time>2021-11-18T08:24:22Z</time>
      </trkpt>
      <trkpt lat="44.18874" lon="6.96705">
        <ele>1706.2450541481</ele>
        <time>2021-11-18T08:24:23Z</time>
      </trkpt>
      <trkpt lat="44.18874" lon="6.96706">
        <ele>1705.2450427487</ele>
        <time>2021-11-18T08:24:25Z</time>
      </trkpt>
      <trkpt lat="44.18874" lon="6.96707">
        <ele>1704.2450271584</ele>
        <time>2021-11-18T08:24:28Z</time>
      </trkpt>
      <trkpt lat="44.18875" lon="6.96708">
        <ele>1703.2449948043</ele>
        <time>2021-11-18T08:24:29Z</time>
      </trkpt>
      <trkpt lat="44.18876" lon="6.96708">
        <ele>1702.2449490391</ele>
        <time>2021-11-18T08:24:30Z</time>
      </trkpt>
      <trkpt lat="44.18877" lon="6.96707">
        <ele>1702.244925905</ele>
        <time>2021-11-18T08:24:31Z</time>
      </trkpt>
      <trkpt lat="44.18878" lon="6.96708">
        <ele>1702.2448922098</ele>
        <time>2021-11-18T08:24:34Z</time>
      </trkpt>
      <trkpt lat="44.18878" lon="6.96709">
        <ele>1702.2448680699</ele>
        <time>2021-11-18T08:24:35Z</time>
      </trkpt>
      <trkpt lat="44.18878" lon="6.96711">
        <ele>1702.2448658906</ele>
        <time>2021-11-18T08:24:36Z</time>
      </trkpt>
      <trkpt lat="44.18878" lon="6.96711">
        <ele>1702.2448798046</ele>
        <time>2021-11-18T08:24:37Z</time>
      </trkpt>
      <trkpt lat="44.18878" lon="6.96712">
        <ele>1702.2448928803</ele>
        <time>2021-11-18T08:24:39Z</time>
      </trkpt>
      <trkpt lat="44.18877" lon="6.96713">
        <ele>1703.244910147</ele>
        <time>2021-11-18T08:24:41Z</time>
      </trkpt>
      <trkpt lat="44.18878" lon="6.96714">
        <ele>1703.244896736</ele>
        <time>2021-11-18T08:24:42Z</time>
      </trkpt>
      <trkpt lat="44.18878" lon="6.96714">
        <ele>1704.2448782958</ele>
        <time>2021-11-18T08:24:43Z</time>
      </trkpt>
      <trkpt lat="44.18877" lon="6.96716">
        <ele>1704.2449150085</ele>
        <time>2021-11-18T08:24:45Z</time>
      </trkpt>
      <trkpt lat="44.18877" lon="6.96717">
        <ele>1704.2449228875</ele>
        <time>2021-11-18T08:24:46Z</time>
      </trkpt>
      <trkpt lat="44.18877" lon="6.96718">
        <ele>1704.2449247316</ele>
        <time>2021-11-18T08:24:47Z</time>
      </trkpt>
      <trkpt lat="44.18876" lon="6.96719">
        <ele>1704.244955074</ele>
        <time>2021-11-18T08:24:49Z</time>
      </trkpt>
      <trkpt lat="44.18874" lon="6.96721">
        <ele>1703.2450347021</ele>
        <time>2021-11-18T08:24:51Z</time>
      </trkpt>
      <trkpt lat="44.18873" lon="6.96721">
        <ele>1704.245072756</ele>
        <time>2021-11-18T08:24:52Z</time>
      </trkpt>
      <trkpt lat="44.18873" lon="6.96722">
        <ele>1704.2450930402</ele>
        <time>2021-11-18T08:24:53Z</time>
      </trkpt>
      <trkpt lat="44.18871" lon="6.96722">
        <ele>1705.2451445051</ele>
        <time>2021-11-18T08:24:55Z</time>
      </trkpt>
      <trkpt lat="44.1887" lon="6.96721">
        <ele>1705.2452212833</ele>
        <time>2021-11-18T08:24:57Z</time>
      </trkpt>
      <trkpt lat="44.18868" lon="6.96721">
        <ele>1705.2452734187</ele>
        <time>2021-11-18T08:24:58Z</time>
      </trkpt>
      <trkpt lat="44.18867" lon="6.96721">
        <ele>1706.2453066111</ele>
        <time>2021-11-18T08:24:59Z</time>
      </trkpt>
      <trkpt lat="44.18866" lon="6.96721">
        <ele>1706.2453498617</ele>
        <time>2021-11-18T08:25:01Z</time>
      </trkpt>
      <trkpt lat="44.18866" lon="6.96721">
        <ele>1706.2453498617</ele>
        <time>2021-11-18T08:25:02Z</time>
      </trkpt>
      <trkpt lat="44.18865" lon="6.96722">
        <ele>1707.2454135641</ele>
        <time>2021-11-18T08:25:03Z</time>
      </trkpt>
      <trkpt lat="44.18864" lon="6.96723">
        <ele>1707.2454603352</ele>
        <time>2021-11-18T08:25:04Z</time>
      </trkpt>
      <trkpt lat="44.18863" lon="6.96724">
        <ele>1707.2454943657</ele>
        <time>2021-11-18T08:25:05Z</time>
      </trkpt>
      <trkpt lat="44.18862" lon="6.96724">
        <ele>1707.2455164939</ele>
        <time>2021-11-18T08:25:07Z</time>
      </trkpt>
      <trkpt lat="44.18862" lon="6.96725">
        <ele>1707.245537281</ele>
        <time>2021-11-18T08:25:09Z</time>
      </trkpt>
      <trkpt lat="44.1886" lon="6.96726">
        <ele>1708.2456199266</ele>
        <time>2021-11-18T08:25:11Z</time>
      </trkpt>
      <trkpt lat="44.18859" lon="6.96726">
        <ele>1710.2456459105</ele>
        <time>2021-11-18T08:25:16Z</time>
      </trkpt>
      <trkpt lat="44.18857" lon="6.96727">
        <ele>1711.2457057573</ele>
        <time>2021-11-18T08:25:17Z</time>
      </trkpt>
      <trkpt lat="44.18857" lon="6.96728">
        <ele>1711.2457265444</ele>
        <time>2021-11-18T08:25:19Z</time>
      </trkpt>
      <trkpt lat="44.18856" lon="6.96728">
        <ele>1710.245746661</ele>
        <time>2021-11-18T08:25:20Z</time>
      </trkpt>
      <trkpt lat="44.18856" lon="6.96728">
        <ele>1710.2457724772</ele>
        <time>2021-11-18T08:25:21Z</time>
      </trkpt>
      <trkpt lat="44.18855" lon="6.96728">
        <ele>1710.2458163984</ele>
        <time>2021-11-18T08:25:22Z</time>
      </trkpt>
      <trkpt lat="44.18854" lon="6.96728">
        <ele>1711.2458464056</ele>
        <time>2021-11-18T08:25:23Z</time>
      </trkpt>
      <trkpt lat="44.18853" lon="6.96728">
        <ele>1711.2458780892</ele>
        <time>2021-11-18T08:25:24Z</time>
      </trkpt>
      <trkpt lat="44.18852" lon="6.9673">
        <ele>1712.2459399477</ele>
        <time>2021-11-18T08:25:26Z</time>
      </trkpt>
      <trkpt lat="44.18851" lon="6.9673">
        <ele>1712.245957382</ele>
        <time>2021-11-18T08:25:27Z</time>
      </trkpt>
      <trkpt lat="44.18851" lon="6.96732">
        <ele>1712.2459714636</ele>
        <time>2021-11-18T08:25:28Z</time>
      </trkpt>
      <trkpt lat="44.1885" lon="6.96734">
        <ele>1711.2459956035</ele>
        <time>2021-11-18T08:25:30Z</time>
      </trkpt>
      <trkpt lat="44.18851" lon="6.96734">
        <ele>1711.2459657639</ele>
        <time>2021-11-18T08:25:31Z</time>
      </trkpt>
      <trkpt lat="44.18852" lon="6.96734">
        <ele>1711.245937936</ele>
        <time>2021-11-18T08:25:33Z</time>
      </trkpt>
      <trkpt lat="44.18853" lon="6.96734">
        <ele>1712.2458906621</ele>
        <time>2021-11-18T08:25:34Z</time>
      </trkpt>
      <trkpt lat="44.18854" lon="6.96734">
        <ele>1713.2458350062</ele>
        <time>2021-11-18T08:25:35Z</time>
      </trkpt>
      <trkpt lat="44.18853" lon="6.96735">
        <ele>1712.2458777539</ele>
        <time>2021-11-18T08:25:37Z</time>
      </trkpt>
      <trkpt lat="44.18853" lon="6.96736">
        <ele>1711.2458665222</ele>
        <time>2021-11-18T08:25:39Z</time>
      </trkpt>
      <trkpt lat="44.18854" lon="6.96736">
        <ele>1710.2458484173</ele>
        <time>2021-11-18T08:25:40Z</time>
      </trkpt>
      <trkpt lat="44.18854" lon="6.96738">
        <ele>1710.2458257861</ele>
        <time>2021-11-18T08:25:42Z</time>
      </trkpt>
      <trkpt lat="44.18855" lon="6.96737">
        <ele>1710.2458214276</ele>
        <time>2021-11-18T08:25:43Z</time>
      </trkpt>
      <trkpt lat="44.18856" lon="6.96737">
        <ele>1710.2457728125</ele>
        <time>2021-11-18T08:25:45Z</time>
      </trkpt>
      <trkpt lat="44.18856" lon="6.96737">
        <ele>1711.2457780093</ele>
        <time>2021-11-18T08:25:49Z</time>
      </trkpt>
      <trkpt lat="44.18857" lon="6.96739">
        <ele>1710.2457086071</ele>
        <time>2021-11-18T08:25:51Z</time>
      </trkpt>
      <trkpt lat="44.18858" lon="6.96739">
        <ele>1710.2456782646</ele>
        <time>2021-11-18T08:25:52Z</time>
      </trkpt>
      <trkpt lat="44.18859" lon="6.9674">
        <ele>1711.2456323318</ele>
        <time>2021-11-18T08:25:53Z</time>
      </trkpt>
      <trkpt lat="44.1886" lon="6.96741">
        <ele>1711.2456070185</ele>
        <time>2021-11-18T08:25:54Z</time>
      </trkpt>
      <trkpt lat="44.18861" lon="6.96741">
        <ele>1711.2455438189</ele>
        <time>2021-11-18T08:25:56Z</time>
      </trkpt>
      <trkpt lat="44.18862" lon="6.96741">
        <ele>1711.2455050945</ele>
        <time>2021-11-18T08:25:57Z</time>
      </trkpt>
      <trkpt lat="44.18863" lon="6.96741">
        <ele>1711.2454760931</ele>
        <time>2021-11-18T08:25:58Z</time>
      </trkpt>
      <trkpt lat="44.18864" lon="6.96741">
        <ele>1711.2454363629</ele>
        <time>2021-11-18T08:25:59Z</time>
      </trkpt>
      <trkpt lat="44.18866" lon="6.96741">
        <ele>1712.2453553937</ele>
        <time>2021-11-18T08:26:01Z</time>
      </trkpt>
      <trkpt lat="44.18867" lon="6.96741">
        <ele>1712.2453113049</ele>
        <time>2021-11-18T08:26:02Z</time>
      </trkpt>
      <trkpt lat="44.18868" lon="6.96742">
        <ele>1714.2452767715</ele>
        <time>2021-11-18T08:26:04Z</time>
      </trkpt>
      <trkpt lat="44.1887" lon="6.96743">
        <ele>1714.2452122308</ele>
        <time>2021-11-18T08:26:06Z</time>
      </trkpt>
      <trkpt lat="44.1887" lon="6.96745">
        <ele>1715.2451859117</ele>
        <time>2021-11-18T08:26:07Z</time>
      </trkpt>
      <trkpt lat="44.18871" lon="6.96745">
        <ele>1717.2451574132</ele>
        <time>2021-11-18T08:26:12Z</time>
      </trkpt>
      <trkpt lat="44.18872" lon="6.96748">
        <ele>1717.2451146655</ele>
        <time>2021-11-18T08:26:13Z</time>
      </trkpt>
      <trkpt lat="44.18873" lon="6.9675">
        <ele>1718.2450799644</ele>
        <time>2021-11-18T08:26:15Z</time>
      </trkpt>
      <trkpt lat="44.18874" lon="6.96752">
        <ele>1718.2450536452</ele>
        <time>2021-11-18T08:26:16Z</time>
      </trkpt>
      <trkpt lat="44.18874" lon="6.96752">
        <ele>1718.2450536452</ele>
        <time>2021-11-18T08:26:18Z</time>
      </trkpt>
      <trkpt lat="44.18876" lon="6.96755">
        <ele>1717.2449813932</ele>
        <time>2021-11-18T08:26:20Z</time>
      </trkpt>
      <trkpt lat="44.18876" lon="6.96755">
        <ele>1718.2449683174</ele>
        <time>2021-11-18T08:26:21Z</time>
      </trkpt>
      <trkpt lat="44.18877" lon="6.96755">
        <ele>1717.2449399866</ele>
        <time>2021-11-18T08:26:22Z</time>
      </trkpt>
      <trkpt lat="44.18877" lon="6.96756">
        <ele>1717.2449185289</ele>
        <time>2021-11-18T08:26:27Z</time>
      </trkpt>
      <trkpt lat="44.1888" lon="6.96756">
        <ele>1718.244814761</ele>
        <time>2021-11-18T08:26:28Z</time>
      </trkpt>
      <trkpt lat="44.1888" lon="6.96757">
        <ele>1718.2448080555</ele>
        <time>2021-11-18T08:26:30Z</time>
      </trkpt>
      <trkpt lat="44.1888" lon="6.96758">
        <ele>1719.2448110729</ele>
        <time>2021-11-18T08:26:31Z</time>
      </trkpt>
      <trkpt lat="44.1888" lon="6.96759">
        <ele>1719.2448033616</ele>
        <time>2021-11-18T08:26:32Z</time>
      </trkpt>
      <trkpt lat="44.1888" lon="6.96759">
        <ele>1719.2448033616</ele>
        <time>2021-11-18T08:26:34Z</time>
      </trkpt>
      <trkpt lat="44.18879" lon="6.96761">
        <ele>1720.2448489591</ele>
        <time>2021-11-18T08:26:35Z</time>
      </trkpt>
      <trkpt lat="44.18878" lon="6.96761">
        <ele>1720.2448831573</ele>
        <time>2021-11-18T08:26:36Z</time>
      </trkpt>
      <trkpt lat="44.18877" lon="6.96761">
        <ele>1720.2449093089</ele>
        <time>2021-11-18T08:26:40Z</time>
      </trkpt>
      <trkpt lat="44.18876" lon="6.96762">
        <ele>1721.2449614443</ele>
        <time>2021-11-18T08:26:41Z</time>
      </trkpt>
      <trkpt lat="44.18876" lon="6.96763">
        <ele>1721.2449751906</ele>
        <time>2021-11-18T08:26:42Z</time>
      </trkpt>
      <trkpt lat="44.18875" lon="6.96764">
        <ele>1722.2450045273</ele>
        <time>2021-11-18T08:26:44Z</time>
      </trkpt>
      <trkpt lat="44.18875" lon="6.96764">
        <ele>1723.2450149208</ele>
        <time>2021-11-18T08:26:48Z</time>
      </trkpt>
      <trkpt lat="44.18873" lon="6.96764">
        <ele>1723.245082479</ele>
        <time>2021-11-18T08:26:49Z</time>
      </trkpt>
      <trkpt lat="44.18872" lon="6.96763">
        <ele>1723.2451099716</ele>
        <time>2021-11-18T08:26:50Z</time>
      </trkpt>
      <trkpt lat="44.18871" lon="6.96762">
        <ele>1723.2451631129</ele>
        <time>2021-11-18T08:26:52Z</time>
      </trkpt>
      <trkpt lat="44.1887" lon="6.96761">
        <ele>1724.2451874204</ele>
        <time>2021-11-18T08:26:53Z</time>
      </trkpt>
      <trkpt lat="44.18869" lon="6.96762">
        <ele>1724.2452243008</ele>
        <time>2021-11-18T08:26:54Z</time>
      </trkpt>
      <trkpt lat="44.18868" lon="6.96762">
        <ele>1726.2452653721</ele>
        <time>2021-11-18T08:26:56Z</time>
      </trkpt>
      <trkpt lat="44.18868" lon="6.96763">
        <ele>1727.2452848181</ele>
        <time>2021-11-18T08:26:57Z</time>
      </trkpt>
      <trkpt lat="44.18867" lon="6.96764">
        <ele>1727.2453057729</ele>
        <time>2021-11-18T08:26:58Z</time>
      </trkpt>
      <trkpt lat="44.18867" lon="6.96765">
        <ele>1728.2453067787</ele>
        <time>2021-11-18T08:26:59Z</time>
      </trkpt>
      <trkpt lat="44.18867" lon="6.96766">
        <ele>1728.2453188486</ele>
        <time>2021-11-18T08:27:00Z</time>
      </trkpt>
      <trkpt lat="44.18868" lon="6.96766">
        <ele>1727.2452831417</ele>
        <time>2021-11-18T08:27:02Z</time>
      </trkpt>
      <trkpt lat="44.18869" lon="6.96765">
        <ele>1727.245252464</ele>
        <time>2021-11-18T08:27:03Z</time>
      </trkpt>
      <trkpt lat="44.1887" lon="6.96765">
        <ele>1726.2452182658</ele>
        <time>2021-11-18T08:27:04Z</time>
      </trkpt>
      <trkpt lat="44.1887" lon="6.96765">
        <ele>1726.2452098839</ele>
        <time>2021-11-18T08:27:05Z</time>
      </trkpt>
      <trkpt lat="44.18871" lon="6.96765">
        <ele>1726.2451792061</ele>
        <time>2021-11-18T08:27:06Z</time>
      </trkpt>
      <trkpt lat="44.18871" lon="6.96765">
        <ele>1725.2451525517</ele>
        <time>2021-11-18T08:27:07Z</time>
      </trkpt>
      <trkpt lat="44.18872" lon="6.96766">
        <ele>1725.2451309264</ele>
        <time>2021-11-18T08:27:08Z</time>
      </trkpt>
      <trkpt lat="44.18872" lon="6.96767">
        <ele>1724.2451223768</ele>
        <time>2021-11-18T08:27:09Z</time>
      </trkpt>
      <trkpt lat="44.18872" lon="6.96768">
        <ele>1723.2451119833</ele>
        <time>2021-11-18T08:27:11Z</time>
      </trkpt>
      <trkpt lat="44.18872" lon="6.96769">
        <ele>1723.2451042719</ele>
        <time>2021-11-18T08:27:12Z</time>
      </trkpt>
      <trkpt lat="44.18873" lon="6.9677">
        <ele>1722.2450747676</ele>
        <time>2021-11-18T08:27:13Z</time>
      </trkpt>
      <trkpt lat="44.18873" lon="6.96771">
        <ele>1722.2450633682</ele>
        <time>2021-11-18T08:27:16Z</time>
      </trkpt>
      <trkpt lat="44.18874" lon="6.96772">
        <ele>1722.2450295053</ele>
        <time>2021-11-18T08:27:17Z</time>
      </trkpt>
      <trkpt lat="44.18875" lon="6.96773">
        <ele>1723.2450147532</ele>
        <time>2021-11-18T08:27:18Z</time>
      </trkpt>
      <trkpt lat="44.18875" lon="6.96774">
        <ele>1723.245010227</ele>
        <time>2021-11-18T08:27:19Z</time>
      </trkpt>
      <trkpt lat="44.18875" lon="6.96776">
        <ele>1724.2449897751</ele>
        <time>2021-11-18T08:27:21Z</time>
      </trkpt>
      <trkpt lat="44.18876" lon="6.96776">
        <ele>1724.2449746877</ele>
        <time>2021-11-18T08:27:23Z</time>
      </trkpt>
      <trkpt lat="44.18877" lon="6.96777">
        <ele>1724.2449123263</ele>
        <time>2021-11-18T08:27:24Z</time>
      </trkpt>
      <trkpt lat="44.1888" lon="6.96778">
        <ele>1724.2448114082</ele>
        <time>2021-11-18T08:27:26Z</time>
      </trkpt>
      <trkpt lat="44.18881" lon="6.96778">
        <ele>1724.2447554171</ele>
        <time>2021-11-18T08:27:27Z</time>
      </trkpt>
      <trkpt lat="44.18882" lon="6.96778">
        <ele>1724.2447088137</ele>
        <time>2021-11-18T08:27:28Z</time>
      </trkpt>
      <trkpt lat="44.18884" lon="6.96778">
        <ele>1724.2446384057</ele>
        <time>2021-11-18T08:27:30Z</time>
      </trkpt>
      <trkpt lat="44.18885" lon="6.96779">
        <ele>1725.2445844263</ele>
        <time>2021-11-18T08:27:32Z</time>
      </trkpt>
      <trkpt lat="44.18886" lon="6.96778">
        <ele>1725.2445440255</ele>
        <time>2021-11-18T08:27:33Z</time>
      </trkpt>
      <trkpt lat="44.18887" lon="6.96778">
        <ele>1725.2445101626</ele>
        <time>2021-11-18T08:27:34Z</time>
      </trkpt>
      <trkpt lat="44.18889" lon="6.96779">
        <ele>1724.2444563508</ele>
        <time>2021-11-18T08:27:36Z</time>
      </trkpt>
      <trkpt lat="44.18888" lon="6.96779">
        <ele>1726.2444761321</ele>
        <time>2021-11-18T08:27:38Z</time>
      </trkpt>
      <trkpt lat="44.18887" lon="6.96781">
        <ele>1727.244525753</ele>
        <time>2021-11-18T08:27:40Z</time>
      </trkpt>
      <trkpt lat="44.18887" lon="6.96782">
        <ele>1728.2445153594</ele>
        <time>2021-11-18T08:27:41Z</time>
      </trkpt>
      <trkpt lat="44.18886" lon="6.96783">
        <ele>1729.2445425168</ele>
        <time>2021-11-18T08:27:42Z</time>
      </trkpt>
      <trkpt lat="44.18886" lon="6.96784">
        <ele>1730.2445757091</ele>
        <time>2021-11-18T08:27:43Z</time>
      </trkpt>
      <trkpt lat="44.18885" lon="6.96785">
        <ele>1731.2446006872</ele>
        <time>2021-11-18T08:27:44Z</time>
      </trkpt>
      <trkpt lat="44.18884" lon="6.96785">
        <ele>1732.2446261682</ele>
        <time>2021-11-18T08:27:45Z</time>
      </trkpt>
      <trkpt lat="44.18883" lon="6.96785">
        <ele>1732.2446712628</ele>
        <time>2021-11-18T08:27:46Z</time>
      </trkpt>
      <trkpt lat="44.18882" lon="6.96785">
        <ele>1732.2447279245</ele>
        <time>2021-11-18T08:27:47Z</time>
      </trkpt>
      <trkpt lat="44.18881" lon="6.96786">
        <ele>1732.2447614521</ele>
        <time>2021-11-18T08:27:48Z</time>
      </trkpt>
      <trkpt lat="44.18881" lon="6.96785">
        <ele>1733.2447778806</ele>
        <time>2021-11-18T08:27:49Z</time>
      </trkpt>
      <trkpt lat="44.1888" lon="6.96784">
        <ele>1733.2448006794</ele>
        <time>2021-11-18T08:27:50Z</time>
      </trkpt>
      <trkpt lat="44.18879" lon="6.96784">
        <ele>1732.2448246516</ele>
        <time>2021-11-18T08:27:51Z</time>
      </trkpt>
      <trkpt lat="44.18878" lon="6.96783">
        <ele>1732.2448662259</ele>
        <time>2021-11-18T08:27:52Z</time>
      </trkpt>
      <trkpt lat="44.18877" lon="6.96782">
        <ele>1732.2449057885</ele>
        <time>2021-11-18T08:27:53Z</time>
      </trkpt>
      <trkpt lat="44.18877" lon="6.96782">
        <ele>1732.2449351251</ele>
        <time>2021-11-18T08:27:54Z</time>
      </trkpt>
      <trkpt lat="44.18876" lon="6.96782">
        <ele>1732.2449627854</ele>
        <time>2021-11-18T08:27:55Z</time>
      </trkpt>
      <trkpt lat="44.18875" lon="6.96782">
        <ele>1733.2449904457</ele>
        <time>2021-11-18T08:27:56Z</time>
      </trkpt>
      <trkpt lat="44.18874" lon="6.96781">
        <ele>1734.2450345345</ele>
        <time>2021-11-18T08:27:57Z</time>
      </trkpt>
      <trkpt lat="44.18873" lon="6.96781">
        <ele>1734.2450838201</ele>
        <time>2021-11-18T08:27:58Z</time>
      </trkpt>
      <trkpt lat="44.18872" lon="6.96782">
        <ele>1735.2451285794</ele>
        <time>2021-11-18T08:27:59Z</time>
      </trkpt>
      <trkpt lat="44.18871" lon="6.96782">
        <ele>1736.2451611012</ele>
        <time>2021-11-18T08:28:00Z</time>
      </trkpt>
      <trkpt lat="44.1887" lon="6.96782">
        <ele>1736.2452004962</ele>
        <time>2021-11-18T08:28:01Z</time>
      </trkpt>
      <trkpt lat="44.18869" lon="6.96781">
        <ele>1736.2452455908</ele>
        <time>2021-11-18T08:28:02Z</time>
      </trkpt>
      <trkpt lat="44.18868" lon="6.96781">
        <ele>1736.2452734187</ele>
        <time>2021-11-18T08:28:03Z</time>
      </trkpt>
      <trkpt lat="44.18868" lon="6.96781">
        <ele>1736.2452838123</ele>
        <time>2021-11-18T08:28:04Z</time>
      </trkpt>
      <trkpt lat="44.18867" lon="6.96782">
        <ele>1737.2453359477</ele>
        <time>2021-11-18T08:28:06Z</time>
      </trkpt>
      <trkpt lat="44.18866" lon="6.96783">
        <ele>1737.2453503646</ele>
        <time>2021-11-18T08:28:07Z</time>
      </trkpt>
      <trkpt lat="44.18866" lon="6.96783">
        <ele>1738.2453723252</ele>
        <time>2021-11-18T08:28:08Z</time>
      </trkpt>
      <trkpt lat="44.18865" lon="6.96783">
        <ele>1738.2454184256</ele>
        <time>2021-11-18T08:28:10Z</time>
      </trkpt>
      <trkpt lat="44.18864" lon="6.96783">
        <ele>1739.2454366982</ele>
        <time>2021-11-18T08:28:11Z</time>
      </trkpt>
      <trkpt lat="44.18864" lon="6.96783">
        <ele>1739.2454584911</ele>
        <time>2021-11-18T08:28:12Z</time>
      </trkpt>
      <trkpt lat="44.18863" lon="6.96784">
        <ele>1739.245482631</ele>
        <time>2021-11-18T08:28:13Z</time>
      </trkpt>
      <trkpt lat="44.18861" lon="6.96786">
        <ele>1739.2455463335</ele>
        <time>2021-11-18T08:28:15Z</time>
      </trkpt>
      <trkpt lat="44.18861" lon="6.96787">
        <ele>1738.2455701381</ele>
        <time>2021-11-18T08:28:17Z</time>
      </trkpt>
      <trkpt lat="44.1886" lon="6.96788">
        <ele>1738.2455929369</ele>
        <time>2021-11-18T08:28:18Z</time>
      </trkpt>
      <trkpt lat="44.1886" lon="6.96788">
        <ele>1738.2456169091</ele>
        <time>2021-11-18T08:28:19Z</time>
      </trkpt>
      <trkpt lat="44.18859" lon="6.96789">
        <ele>1738.2456457429</ele>
        <time>2021-11-18T08:28:20Z</time>
      </trkpt>
      <trkpt lat="44.18858" lon="6.9679">
        <ele>1739.2456739061</ele>
        <time>2021-11-18T08:28:21Z</time>
      </trkpt>
      <trkpt lat="44.18857" lon="6.9679">
        <ele>1740.2457029074</ele>
        <time>2021-11-18T08:28:22Z</time>
      </trkpt>
      <trkpt lat="44.18857" lon="6.96791">
        <ele>1740.2457352616</ele>
        <time>2021-11-18T08:28:23Z</time>
      </trkpt>
      <trkpt lat="44.18856" lon="6.96791">
        <ele>1741.2457531989</ele>
        <time>2021-11-18T08:28:24Z</time>
      </trkpt>
      <trkpt lat="44.18855" lon="6.96792">
        <ele>1742.2457941025</ele>
        <time>2021-11-18T08:28:26Z</time>
      </trkpt>
      <trkpt lat="44.18854" lon="6.96793">
        <ele>1743.2458236068</ele>
        <time>2021-11-18T08:28:27Z</time>
      </trkpt>
      <trkpt lat="44.18854" lon="6.96793">
        <ele>1743.2458236068</ele>
        <time>2021-11-18T08:28:30Z</time>
      </trkpt>
      <trkpt lat="44.18852" lon="6.96793">
        <ele>1743.2459144667</ele>
        <time>2021-11-18T08:28:32Z</time>
      </trkpt>
      <trkpt lat="44.18852" lon="6.96794">
        <ele>1743.2459223457</ele>
        <time>2021-11-18T08:28:33Z</time>
      </trkpt>
      <trkpt lat="44.18851" lon="6.96794">
        <ele>1744.2459587231</ele>
        <time>2021-11-18T08:28:34Z</time>
      </trkpt>
      <trkpt lat="44.18851" lon="6.96794">
        <ele>1744.2459587231</ele>
        <time>2021-11-18T08:28:36Z</time>
      </trkpt>
      <trkpt lat="44.1885" lon="6.96793">
        <ele>1745.2460070029</ele>
        <time>2021-11-18T08:28:37Z</time>
      </trkpt>
      <trkpt lat="44.18849" lon="6.96793">
        <ele>1745.2460308075</ele>
        <time>2021-11-18T08:28:38Z</time>
      </trkpt>
      <trkpt lat="44.18849" lon="6.96794">
        <ele>1745.246059306</ele>
        <time>2021-11-18T08:28:39Z</time>
      </trkpt>
      <trkpt lat="44.18848" lon="6.96794">
        <ele>1745.2460790873</ele>
        <time>2021-11-18T08:28:42Z</time>
      </trkpt>
      <trkpt lat="44.18846" lon="6.96795">
        <ele>1745.2461508363</ele>
        <time>2021-11-18T08:28:43Z</time>
      </trkpt>
      <trkpt lat="44.18846" lon="6.96795">
        <ele>1745.2461732998</ele>
        <time>2021-11-18T08:28:44Z</time>
      </trkpt>
      <trkpt lat="44.18845" lon="6.96795">
        <ele>1744.2462016307</ele>
        <time>2021-11-18T08:28:45Z</time>
      </trkpt>
      <trkpt lat="44.18844" lon="6.96794">
        <ele>1745.2462256029</ele>
        <time>2021-11-18T08:28:48Z</time>
      </trkpt>
      <trkpt lat="44.18843" lon="6.96795">
        <ele>1746.2462886348</ele>
        <time>2021-11-18T08:28:49Z</time>
      </trkpt>
      <trkpt lat="44.18842" lon="6.96796">
        <ele>1746.2463189773</ele>
        <time>2021-11-18T08:28:50Z</time>
      </trkpt>
      <trkpt lat="44.18842" lon="6.96796">
        <ele>1746.2463417761</ele>
        <time>2021-11-18T08:28:51Z</time>
      </trkpt>
      <trkpt lat="44.18841" lon="6.96796">
        <ele>1745.2463761419</ele>
        <time>2021-11-18T08:28:52Z</time>
      </trkpt>
      <trkpt lat="44.1884" lon="6.96796">
        <ele>1745.2464153692</ele>
        <time>2021-11-18T08:28:53Z</time>
      </trkpt>
      <trkpt lat="44.18839" lon="6.96796">
        <ele>1745.2464490645</ele>
        <time>2021-11-18T08:28:54Z</time>
      </trkpt>
      <trkpt lat="44.18838" lon="6.96795">
        <ele>1746.2464748807</ele>
        <time>2021-11-18T08:28:57Z</time>
      </trkpt>
      <trkpt lat="44.18837" lon="6.96795">
        <ele>1746.2465347275</ele>
        <time>2021-11-18T08:28:58Z</time>
      </trkpt>
      <trkpt lat="44.18836" lon="6.96796">
        <ele>1746.2465514913</ele>
        <time>2021-11-18T08:28:59Z</time>
      </trkpt>
      <trkpt lat="44.18835" lon="6.96797">
        <ele>1748.2466146909</ele>
        <time>2021-11-18T08:29:01Z</time>
      </trkpt>
      <trkpt lat="44.18834" lon="6.96797">
        <ele>1748.2466482185</ele>
        <time>2021-11-18T08:29:02Z</time>
      </trkpt>
      <trkpt lat="44.18833" lon="6.96798">
        <ele>1749.246691972</ele>
        <time>2021-11-18T08:29:03Z</time>
      </trkpt>
      <trkpt lat="44.18832" lon="6.96798">
        <ele>1749.2467159443</ele>
        <time>2021-11-18T08:29:05Z</time>
      </trkpt>
      <trkpt lat="44.18831" lon="6.96798">
        <ele>1750.2467741147</ele>
        <time>2021-11-18T08:29:07Z</time>
      </trkpt>
      <trkpt lat="44.1883" lon="6.96799">
        <ele>1750.2467940636</ele>
        <time>2021-11-18T08:29:08Z</time>
      </trkpt>
      <trkpt lat="44.18829" lon="6.968">
        <ele>1749.2468289323</ele>
        <time>2021-11-18T08:29:09Z</time>
      </trkpt>
      <trkpt lat="44.18829" lon="6.968">
        <ele>1749.246855922</ele>
        <time>2021-11-18T08:29:10Z</time>
      </trkpt>
      <trkpt lat="44.18828" lon="6.968">
        <ele>1749.2468976639</ele>
        <time>2021-11-18T08:29:12Z</time>
      </trkpt>
      <trkpt lat="44.18827" lon="6.96801">
        <ele>1749.2469224744</ele>
        <time>2021-11-18T08:29:13Z</time>
      </trkpt>
      <trkpt lat="44.18826" lon="6.96802">
        <ele>1749.2469516434</ele>
        <time>2021-11-18T08:29:14Z</time>
      </trkpt>
      <trkpt lat="44.18825" lon="6.96802">
        <ele>1748.2469831593</ele>
        <time>2021-11-18T08:29:16Z</time>
      </trkpt>
      <trkpt lat="44.18824" lon="6.96802">
        <ele>1749.2470252365</ele>
        <time>2021-11-18T08:29:17Z</time>
      </trkpt>
      <trkpt lat="44.18824" lon="6.96802">
        <ele>1748.247041665</ele>
        <time>2021-11-18T08:29:18Z</time>
      </trkpt>
      <trkpt lat="44.18823" lon="6.96803">
        <ele>1748.2470979914</ele>
        <time>2021-11-18T08:29:20Z</time>
      </trkpt>
      <trkpt lat="44.18822" lon="6.96804">
        <ele>1749.2471390627</ele>
        <time>2021-11-18T08:29:22Z</time>
      </trkpt>
      <trkpt lat="44.18821" lon="6.96805">
        <ele>1749.2471613586</ele>
        <time>2021-11-18T08:29:23Z</time>
      </trkpt>
      <trkpt lat="44.1882" lon="6.96805">
        <ele>1748.2471979037</ele>
        <time>2021-11-18T08:29:24Z</time>
      </trkpt>
      <trkpt lat="44.18818" lon="6.96807">
        <ele>1748.2472775318</ele>
        <time>2021-11-18T08:29:26Z</time>
      </trkpt>
      <trkpt lat="44.18818" lon="6.96807">
        <ele>1748.2472981513</ele>
        <time>2021-11-18T08:29:27Z</time>
      </trkpt>
      <trkpt lat="44.18817" lon="6.96807">
        <ele>1748.247313071</ele>
        <time>2021-11-18T08:29:28Z</time>
      </trkpt>
      <trkpt lat="44.18816" lon="6.96808">
        <ele>1749.2473660447</ele>
        <time>2021-11-18T08:29:30Z</time>
      </trkpt>
      <trkpt lat="44.18814" lon="6.96809">
        <ele>1750.2474359497</ele>
        <time>2021-11-18T08:29:32Z</time>
      </trkpt>
      <trkpt lat="44.18813" lon="6.96809">
        <ele>1751.2474686392</ele>
        <time>2021-11-18T08:29:33Z</time>
      </trkpt>
      <trkpt lat="44.18812" lon="6.96809">
        <ele>1751.2475043461</ele>
        <time>2021-11-18T08:29:34Z</time>
      </trkpt>
      <trkpt lat="44.18812" lon="6.96808">
        <ele>1752.2475383766</ele>
        <time>2021-11-18T08:29:36Z</time>
      </trkpt>
      <trkpt lat="44.18811" lon="6.96809">
        <ele>1752.2475588284</ele>
        <time>2021-11-18T08:29:38Z</time>
      </trkpt>
      <trkpt lat="44.18811" lon="6.96809">
        <ele>1752.2475735806</ele>
        <time>2021-11-18T08:29:42Z</time>
      </trkpt>
      <trkpt lat="44.18809" lon="6.9681">
        <ele>1752.2476223633</ele>
        <time>2021-11-18T08:29:43Z</time>
      </trkpt>
      <trkpt lat="44.18808" lon="6.96809">
        <ele>1752.2476693019</ele>
        <time>2021-11-18T08:29:44Z</time>
      </trkpt>
      <trkpt lat="44.18808" lon="6.96811">
        <ele>1752.247698471</ele>
        <time>2021-11-18T08:29:46Z</time>
      </trkpt>
      <trkpt lat="44.18808" lon="6.96812">
        <ele>1752.2476972975</ele>
        <time>2021-11-18T08:29:47Z</time>
      </trkpt>
      <trkpt lat="44.18807" lon="6.96812">
        <ele>1751.2477164082</ele>
        <time>2021-11-18T08:29:48Z</time>
      </trkpt>
      <trkpt lat="44.18806" lon="6.96813">
        <ele>1752.247756809</ele>
        <time>2021-11-18T08:29:50Z</time>
      </trkpt>
      <trkpt lat="44.18806" lon="6.96813">
        <ele>1752.247774411</ele>
        <time>2021-11-18T08:29:51Z</time>
      </trkpt>
      <trkpt lat="44.18805" lon="6.96814">
        <ele>1753.2478074357</ele>
        <time>2021-11-18T08:29:52Z</time>
      </trkpt>
      <trkpt lat="44.18805" lon="6.96814">
        <ele>1753.2478074357</ele>
        <time>2021-11-18T08:29:54Z</time>
      </trkpt>
      <trkpt lat="44.18803" lon="6.96814">
        <ele>1753.2478743233</ele>
        <time>2021-11-18T08:29:55Z</time>
      </trkpt>
      <trkpt lat="44.18802" lon="6.96814">
        <ele>1753.2479061745</ele>
        <time>2021-11-18T08:29:56Z</time>
      </trkpt>
      <trkpt lat="44.18802" lon="6.96815">
        <ele>1753.2479175739</ele>
        <time>2021-11-18T08:29:57Z</time>
      </trkpt>
      <trkpt lat="44.18802" lon="6.96815">
        <ele>1753.2479361817</ele>
        <time>2021-11-18T08:30:00Z</time>
      </trkpt>
      <trkpt lat="44.188" lon="6.96815">
        <ele>1754.2479985431</ele>
        <time>2021-11-18T08:30:01Z</time>
      </trkpt>
      <trkpt lat="44.188" lon="6.96815">
        <ele>1755.2480188273</ele>
        <time>2021-11-18T08:30:03Z</time>
      </trkpt>
      <trkpt lat="44.18799" lon="6.96815">
        <ele>1758.2480503432</ele>
        <time>2021-11-18T08:30:07Z</time>
      </trkpt>
      <trkpt lat="44.18799" lon="6.96816">
        <ele>1758.2480545342</ele>
        <time>2021-11-18T08:30:08Z</time>
      </trkpt>
      <trkpt lat="44.18798" lon="6.96817">
        <ele>1759.2480635867</ele>
        <time>2021-11-18T08:30:09Z</time>
      </trkpt>
      <trkpt lat="44.18798" lon="6.96817">
        <ele>1759.2480892353</ele>
        <time>2021-11-18T08:30:12Z</time>
      </trkpt>
      <trkpt lat="44.18796" lon="6.96817">
        <ele>1759.2481462322</ele>
        <time>2021-11-18T08:30:13Z</time>
      </trkpt>
      <trkpt lat="44.18796" lon="6.96817">
        <ele>1759.2481772453</ele>
        <time>2021-11-18T08:30:14Z</time>
      </trkpt>
      <trkpt lat="44.18795" lon="6.96817">
        <ele>1759.2482116111</ele>
        <time>2021-11-18T08:30:16Z</time>
      </trkpt>
      <trkpt lat="44.18794" lon="6.96818">
        <ele>1760.2482489944</ele>
        <time>2021-11-18T08:30:17Z</time>
      </trkpt>
      <trkpt lat="44.18793" lon="6.96819">
        <ele>1761.2482868806</ele>
        <time>2021-11-18T08:30:18Z</time>
      </trkpt>
      <trkpt lat="44.18791" lon="6.9682">
        <ele>1761.2483477332</ele>
        <time>2021-11-18T08:30:20Z</time>
      </trkpt>
      <trkpt lat="44.18791" lon="6.9682">
        <ele>1762.2483735494</ele>
        <time>2021-11-18T08:30:22Z</time>
      </trkpt>
      <trkpt lat="44.1879" lon="6.96819">
        <ele>1763.2484050654</ele>
        <time>2021-11-18T08:30:23Z</time>
      </trkpt>
      <trkpt lat="44.18789" lon="6.96819">
        <ele>1763.2484226674</ele>
        <time>2021-11-18T08:30:24Z</time>
      </trkpt>
      <trkpt lat="44.18789" lon="6.96821">
        <ele>1763.2484555244</ele>
        <time>2021-11-18T08:30:26Z</time>
      </trkpt>
      <trkpt lat="44.18788" lon="6.96821">
        <ele>1763.2484711148</ele>
        <time>2021-11-18T08:30:27Z</time>
      </trkpt>
      <trkpt lat="44.18788" lon="6.96821">
        <ele>1764.2484917343</ele>
        <time>2021-11-18T08:30:28Z</time>
      </trkpt>
      <trkpt lat="44.18787" lon="6.96821">
        <ele>1764.2485147007</ele>
        <time>2021-11-18T08:30:30Z</time>
      </trkpt>
      <trkpt lat="44.18785" lon="6.9682">
        <ele>1764.2485926524</ele>
        <time>2021-11-18T08:30:32Z</time>
      </trkpt>
      <trkpt lat="44.18784" lon="6.9682">
        <ele>1765.2486291975</ele>
        <time>2021-11-18T08:30:33Z</time>
      </trkpt>
      <trkpt lat="44.18784" lon="6.96819">
        <ele>1766.2486605458</ele>
        <time>2021-11-18T08:30:34Z</time>
      </trkpt>
      <trkpt lat="44.18783" lon="6.96819">
        <ele>1765.2486714423</ele>
        <time>2021-11-18T08:30:35Z</time>
      </trkpt>
      <trkpt lat="44.18783" lon="6.96815">
        <ele>1766.2486776449</ele>
        <time>2021-11-18T08:30:37Z</time>
      </trkpt>
      <trkpt lat="44.18782" lon="6.96814">
        <ele>1766.248706311</ele>
        <time>2021-11-18T08:30:38Z</time>
      </trkpt>
      <trkpt lat="44.18782" lon="6.96812">
        <ele>1765.248725757</ele>
        <time>2021-11-18T08:30:39Z</time>
      </trkpt>
      <trkpt lat="44.18782" lon="6.96811">
        <ele>1765.2487339713</ele>
        <time>2021-11-18T08:30:40Z</time>
      </trkpt>
      <trkpt lat="44.1878" lon="6.96809">
        <ele>1765.2487857714</ele>
        <time>2021-11-18T08:30:42Z</time>
      </trkpt>
      <trkpt lat="44.1878" lon="6.96809">
        <ele>1765.2487857714</ele>
        <time>2021-11-18T08:30:44Z</time>
      </trkpt>
      <trkpt lat="44.18779" lon="6.96807">
        <ele>1765.2488451153</ele>
        <time>2021-11-18T08:30:45Z</time>
      </trkpt>
      <trkpt lat="44.18778" lon="6.96806">
        <ele>1766.248870261</ele>
        <time>2021-11-18T08:30:46Z</time>
      </trkpt>
      <trkpt lat="44.18778" lon="6.96805">
        <ele>1766.2488875277</ele>
        <time>2021-11-18T08:30:47Z</time>
      </trkpt>
      <trkpt lat="44.18778" lon="6.96804">
        <ele>1767.248893898</ele>
        <time>2021-11-18T08:30:49Z</time>
      </trkpt>
      <trkpt lat="44.18777" lon="6.96804">
        <ele>1768.2489140145</ele>
        <time>2021-11-18T08:30:52Z</time>
      </trkpt>
      <trkpt lat="44.18776" lon="6.96803">
        <ele>1768.2489455305</ele>
        <time>2021-11-18T08:30:57Z</time>
      </trkpt>
      <trkpt lat="44.18776" lon="6.96802">
        <ele>1768.2489809021</ele>
        <time>2021-11-18T08:30:58Z</time>
      </trkpt>
      <trkpt lat="44.18775" lon="6.96801">
        <ele>1768.2490003482</ele>
        <time>2021-11-18T08:30:59Z</time>
      </trkpt>
      <trkpt lat="44.18774" lon="6.968">
        <ele>1767.2490325347</ele>
        <time>2021-11-18T08:31:00Z</time>
      </trkpt>
      <trkpt lat="44.18774" lon="6.96799">
        <ele>1767.2490606979</ele>
        <time>2021-11-18T08:31:01Z</time>
      </trkpt>
      <trkpt lat="44.18774" lon="6.96798">
        <ele>1767.2490605302</ele>
        <time>2021-11-18T08:31:04Z</time>
      </trkpt>
      <trkpt lat="44.18773" lon="6.96799">
        <ele>1767.2490834966</ele>
        <time>2021-11-18T08:31:05Z</time>
      </trkpt>
      <trkpt lat="44.18772" lon="6.968">
        <ele>1768.2491093129</ele>
        <time>2021-11-18T08:31:06Z</time>
      </trkpt>
      <trkpt lat="44.18772" lon="6.968">
        <ele>1767.2491193712</ele>
        <time>2021-11-18T08:31:09Z</time>
      </trkpt>
      <trkpt lat="44.18771" lon="6.96802">
        <ele>1767.2491591014</ele>
        <time>2021-11-18T08:31:10Z</time>
      </trkpt>
      <trkpt lat="44.18771" lon="6.96802">
        <ele>1767.2491770387</ele>
        <time>2021-11-18T08:31:11Z</time>
      </trkpt>
      <trkpt lat="44.18771" lon="6.96803">
        <ele>1767.2491808943</ele>
        <time>2021-11-18T08:31:12Z</time>
      </trkpt>
      <trkpt lat="44.1877" lon="6.96804">
        <ele>1767.2491927966</ele>
        <time>2021-11-18T08:31:15Z</time>
      </trkpt>
      <trkpt lat="44.1877" lon="6.96807">
        <ele>1765.2491941378</ele>
        <time>2021-11-18T08:31:16Z</time>
      </trkpt>
      <trkpt lat="44.1877" lon="6.96808">
        <ele>1765.2492087223</ele>
        <time>2021-11-18T08:31:17Z</time>
      </trkpt>
      <trkpt lat="44.18769" lon="6.96809">
        <ele>1765.2492288388</ele>
        <time>2021-11-18T08:31:18Z</time>
      </trkpt>
      <trkpt lat="44.18769" lon="6.96809">
        <ele>1766.2492523082</ele>
        <time>2021-11-18T08:31:19Z</time>
      </trkpt>
      <trkpt lat="44.18768" lon="6.96809">
        <ele>1766.2492699102</ele>
        <time>2021-11-18T08:31:20Z</time>
      </trkpt>
      <trkpt lat="44.18767" lon="6.96808">
        <ele>1767.2493285835</ele>
        <time>2021-11-18T08:31:22Z</time>
      </trkpt>
      <trkpt lat="44.18767" lon="6.96808">
        <ele>1768.249338977</ele>
        <time>2021-11-18T08:31:23Z</time>
      </trkpt>
      <trkpt lat="44.18766" lon="6.96807">
        <ele>1769.2493498735</ele>
        <time>2021-11-18T08:31:24Z</time>
      </trkpt>
      <trkpt lat="44.18766" lon="6.96807">
        <ele>1771.2493714988</ele>
        <time>2021-11-18T08:31:25Z</time>
      </trkpt>
      <trkpt lat="44.18764" lon="6.96806">
        <ele>1771.2494403981</ele>
        <time>2021-11-18T08:31:27Z</time>
      </trkpt>
      <trkpt lat="44.18763" lon="6.96806">
        <ele>1772.249466382</ele>
        <time>2021-11-18T08:31:28Z</time>
      </trkpt>
      <trkpt lat="44.18763" lon="6.96806">
        <ele>1772.2494893484</ele>
        <time>2021-11-18T08:31:29Z</time>
      </trkpt>
      <trkpt lat="44.18762" lon="6.96806">
        <ele>1772.2495077886</ele>
        <time>2021-11-18T08:31:30Z</time>
      </trkpt>
      <trkpt lat="44.18761" lon="6.96805">
        <ele>1773.2495808788</ele>
        <time>2021-11-18T08:31:32Z</time>
      </trkpt>
      <trkpt lat="44.1876" lon="6.96804">
        <ele>1774.249609042</ele>
        <time>2021-11-18T08:31:33Z</time>
      </trkpt>
      <trkpt lat="44.18759" lon="6.96803">
        <ele>1774.2496373728</ele>
        <time>2021-11-18T08:31:34Z</time>
      </trkpt>
      <trkpt lat="44.18758" lon="6.96803">
        <ele>1775.2496885024</ele>
        <time>2021-11-18T08:31:36Z</time>
      </trkpt>
      <trkpt lat="44.18758" lon="6.96802">
        <ele>1775.2496958785</ele>
        <time>2021-11-18T08:31:37Z</time>
      </trkpt>
      <trkpt lat="44.18757" lon="6.96801">
        <ele>1776.2497278973</ele>
        <time>2021-11-18T08:31:38Z</time>
      </trkpt>
      <trkpt lat="44.18755" lon="6.96801">
        <ele>1776.2498061843</ele>
        <time>2021-11-18T08:31:40Z</time>
      </trkpt>
      <trkpt lat="44.18754" lon="6.96801">
        <ele>1777.2498591579</ele>
        <time>2021-11-18T08:31:42Z</time>
      </trkpt>
      <trkpt lat="44.18753" lon="6.968">
        <ele>1777.249890171</ele>
        <time>2021-11-18T08:31:43Z</time>
      </trkpt>
      <trkpt lat="44.18752" lon="6.968">
        <ele>1777.2499205135</ele>
        <time>2021-11-18T08:31:45Z</time>
      </trkpt>
      <trkpt lat="44.18751" lon="6.968">
        <ele>1778.249950856</ele>
        <time>2021-11-18T08:31:46Z</time>
      </trkpt>
      <trkpt lat="44.18751" lon="6.96799">
        <ele>1778.2499796897</ele>
        <time>2021-11-18T08:31:47Z</time>
      </trkpt>
      <trkpt lat="44.1875" lon="6.96799">
        <ele>1779.2499988005</ele>
        <time>2021-11-18T08:31:48Z</time>
      </trkpt>
      <trkpt lat="44.18749" lon="6.96799">
        <ele>1779.2500336692</ele>
        <time>2021-11-18T08:31:49Z</time>
      </trkpt>
      <trkpt lat="44.18749" lon="6.96798">
        <ele>1780.2500457391</ele>
        <time>2021-11-18T08:31:50Z</time>
      </trkpt>
      <trkpt lat="44.18748" lon="6.96796">
        <ele>1780.250085637</ele>
        <time>2021-11-18T08:31:52Z</time>
      </trkpt>
      <trkpt lat="44.18747" lon="6.96796">
        <ele>1780.2501136325</ele>
        <time>2021-11-18T08:31:53Z</time>
      </trkpt>
      <trkpt lat="44.18746" lon="6.96795">
        <ele>1780.2501451485</ele>
        <time>2021-11-18T08:31:54Z</time>
      </trkpt>
      <trkpt lat="44.18745" lon="6.96795">
        <ele>1780.2501821965</ele>
        <time>2021-11-18T08:31:55Z</time>
      </trkpt>
      <trkpt lat="44.18743" lon="6.96794">
        <ele>1780.2502636686</ele>
        <time>2021-11-18T08:31:57Z</time>
      </trkpt>
      <trkpt lat="44.18743" lon="6.96794">
        <ele>1781.2502965257</ele>
        <time>2021-11-18T08:31:58Z</time>
      </trkpt>
      <trkpt lat="44.18742" lon="6.96793">
        <ele>1782.2503251918</ele>
        <time>2021-11-18T08:31:59Z</time>
      </trkpt>
      <trkpt lat="44.18741" lon="6.96791">
        <ele>1782.2503531873</ele>
        <time>2021-11-18T08:32:01Z</time>
      </trkpt>
      <trkpt lat="44.18741" lon="6.9679">
        <ele>1782.2503679395</ele>
        <time>2021-11-18T08:32:02Z</time>
      </trkpt>
      <trkpt lat="44.1874" lon="6.9679">
        <ele>1781.2503883913</ele>
        <time>2021-11-18T08:32:03Z</time>
      </trkpt>
      <trkpt lat="44.1874" lon="6.9679">
        <ele>1782.2503992878</ele>
        <time>2021-11-18T08:32:04Z</time>
      </trkpt>
      <trkpt lat="44.18739" lon="6.9679">
        <ele>1782.2504400238</ele>
        <time>2021-11-18T08:32:06Z</time>
      </trkpt>
      <trkpt lat="44.18738" lon="6.96789">
        <ele>1782.2504680194</ele>
        <time>2021-11-18T08:32:07Z</time>
      </trkpt>
      <trkpt lat="44.18737" lon="6.96789">
        <ele>1783.2505045645</ele>
        <time>2021-11-18T08:32:08Z</time>
      </trkpt>
      <trkpt lat="44.18735" lon="6.96787">
        <ele>1783.2505855337</ele>
        <time>2021-11-18T08:32:10Z</time>
      </trkpt>
      <trkpt lat="44.18735" lon="6.96786">
        <ele>1784.2505969331</ele>
        <time>2021-11-18T08:32:11Z</time>
      </trkpt>
      <trkpt lat="44.18734" lon="6.96787">
        <ele>1784.2506356575</ele>
        <time>2021-11-18T08:32:13Z</time>
      </trkpt>
      <trkpt lat="44.18733" lon="6.96787">
        <ele>1784.2506639883</ele>
        <time>2021-11-18T08:32:14Z</time>
      </trkpt>
      <trkpt lat="44.18733" lon="6.96786">
        <ele>1784.2506799139</ele>
        <time>2021-11-18T08:32:15Z</time>
      </trkpt>
      <trkpt lat="44.18732" lon="6.96786">
        <ele>1785.2507037185</ele>
        <time>2021-11-18T08:32:16Z</time>
      </trkpt>
      <trkpt lat="44.18732" lon="6.96785">
        <ele>1786.2507298701</ele>
        <time>2021-11-18T08:32:17Z</time>
      </trkpt>
      <trkpt lat="44.18731" lon="6.96785">
        <ele>1786.250747975</ele>
        <time>2021-11-18T08:32:18Z</time>
      </trkpt>
      <trkpt lat="44.18731" lon="6.96785">
        <ele>1787.2507764734</ele>
        <time>2021-11-18T08:32:19Z</time>
      </trkpt>
      <trkpt lat="44.1873" lon="6.96784">
        <ele>1787.2507939078</ele>
        <time>2021-11-18T08:32:21Z</time>
      </trkpt>
      <trkpt lat="44.1873" lon="6.96784">
        <ele>1786.250810001</ele>
        <time>2021-11-18T08:32:22Z</time>
      </trkpt>
      <trkpt lat="44.18729" lon="6.96784">
        <ele>1786.2508559339</ele>
        <time>2021-11-18T08:32:23Z</time>
      </trkpt>
      <trkpt lat="44.18728" lon="6.96784">
        <ele>1785.250880409</ele>
        <time>2021-11-18T08:32:24Z</time>
      </trkpt>
      <trkpt lat="44.18726" lon="6.96784">
        <ele>1785.2509467937</ele>
        <time>2021-11-18T08:32:26Z</time>
      </trkpt>
      <trkpt lat="44.18725" lon="6.96783">
        <ele>1786.2509910502</ele>
        <time>2021-11-18T08:32:27Z</time>
      </trkpt>
      <trkpt lat="44.18724" lon="6.96783">
        <ele>1786.2510349713</ele>
        <time>2021-11-18T08:32:28Z</time>
      </trkpt>
      <trkpt lat="44.18723" lon="6.96781">
        <ele>1786.2510941476</ele>
        <time>2021-11-18T08:32:30Z</time>
      </trkpt>
      <trkpt lat="44.18722" lon="6.96781">
        <ele>1786.2511380687</ele>
        <time>2021-11-18T08:32:32Z</time>
      </trkpt>
      <trkpt lat="44.18721" lon="6.9678">
        <ele>1786.2511801459</ele>
        <time>2021-11-18T08:32:33Z</time>
      </trkpt>
      <trkpt lat="44.1872" lon="6.96781">
        <ele>1786.2512041181</ele>
        <time>2021-11-18T08:32:34Z</time>
      </trkpt>
      <trkpt lat="44.18718" lon="6.9678">
        <ele>1786.251273185</ele>
        <time>2021-11-18T08:32:36Z</time>
      </trkpt>
      <trkpt lat="44.18717" lon="6.9678">
        <ele>1787.2513104007</ele>
        <time>2021-11-18T08:32:37Z</time>
      </trkpt>
      <trkpt lat="44.18716" lon="6.9678">
        <ele>1788.2513605244</ele>
        <time>2021-11-18T08:32:38Z</time>
      </trkpt>
      <trkpt lat="44.18714" lon="6.96779">
        <ele>1787.2514461875</ele>
        <time>2021-11-18T08:32:40Z</time>
      </trkpt>
      <trkpt lat="44.18712" lon="6.9678">
        <ele>1788.2515308447</ele>
        <time>2021-11-18T08:32:42Z</time>
      </trkpt>
      <trkpt lat="44.18711" lon="6.96781">
        <ele>1788.2515818067</ele>
        <time>2021-11-18T08:32:43Z</time>
      </trkpt>
      <trkpt lat="44.1871" lon="6.96781">
        <ele>1788.2516215369</ele>
        <time>2021-11-18T08:32:44Z</time>
      </trkpt>
      <trkpt lat="44.18708" lon="6.9678">
        <ele>1788.2516785339</ele>
        <time>2021-11-18T08:32:45Z</time>
      </trkpt>
      <trkpt lat="44.18707" lon="6.9678">
        <ele>1788.2517375425</ele>
        <time>2021-11-18T08:32:47Z</time>
      </trkpt>
      <trkpt lat="44.18706" lon="6.9678">
        <ele>1788.2517682202</ele>
        <time>2021-11-18T08:32:48Z</time>
      </trkpt>
      <trkpt lat="44.18705" lon="6.9678">
        <ele>1788.2517931983</ele>
        <time>2021-11-18T08:32:49Z</time>
      </trkpt>
      <trkpt lat="44.18703" lon="6.96781">
        <ele>1788.2518620975</ele>
        <time>2021-11-18T08:32:51Z</time>
      </trkpt>
      <trkpt lat="44.18703" lon="6.9678">
        <ele>1788.251877185</ele>
        <time>2021-11-18T08:32:52Z</time>
      </trkpt>
      <trkpt lat="44.18702" lon="6.96781">
        <ele>1788.2519061863</ele>
        <time>2021-11-18T08:32:53Z</time>
      </trkpt>
      <trkpt lat="44.18701" lon="6.96781">
        <ele>1788.2519742474</ele>
        <time>2021-11-18T08:32:55Z</time>
      </trkpt>
      <trkpt lat="44.18699" lon="6.96781">
        <ele>1787.2520535402</ele>
        <time>2021-11-18T08:32:57Z</time>
      </trkpt>
      <trkpt lat="44.18698" lon="6.96781">
        <ele>1788.2520786859</ele>
        <time>2021-11-18T08:32:58Z</time>
      </trkpt>
      <trkpt lat="44.18697" lon="6.96782">
        <ele>1788.2521050051</ele>
        <time>2021-11-18T08:32:59Z</time>
      </trkpt>
      <trkpt lat="44.18697" lon="6.96782">
        <ele>1789.252132833</ele>
        <time>2021-11-18T08:33:00Z</time>
      </trkpt>
      <trkpt lat="44.18696" lon="6.96783">
        <ele>1789.2521609962</ele>
        <time>2021-11-18T08:33:01Z</time>
      </trkpt>
      <trkpt lat="44.18695" lon="6.96783">
        <ele>1789.2522017322</ele>
        <time>2021-11-18T08:33:02Z</time>
      </trkpt>
      <trkpt lat="44.18695" lon="6.96783">
        <ele>1790.2522203401</ele>
        <time>2021-11-18T08:33:03Z</time>
      </trkpt>
      <trkpt lat="44.18694" lon="6.96784">
        <ele>1791.2522386126</ele>
        <time>2021-11-18T08:33:05Z</time>
      </trkpt>
      <trkpt lat="44.18693" lon="6.96784">
        <ele>1792.2522932626</ele>
        <time>2021-11-18T08:33:07Z</time>
      </trkpt>
      <trkpt lat="44.18692" lon="6.96784">
        <ele>1792.2523318194</ele>
        <time>2021-11-18T08:33:08Z</time>
      </trkpt>
      <trkpt lat="44.18691" lon="6.96783">
        <ele>1793.2523557916</ele>
        <time>2021-11-18T08:33:09Z</time>
      </trkpt>
      <trkpt lat="44.1869" lon="6.96783">
        <ele>1794.2523824461</ele>
        <time>2021-11-18T08:33:10Z</time>
      </trkpt>
      <trkpt lat="44.18689" lon="6.96783">
        <ele>1794.2524402812</ele>
        <time>2021-11-18T08:33:12Z</time>
      </trkpt>
      <trkpt lat="44.18688" lon="6.96783">
        <ele>1794.2524660975</ele>
        <time>2021-11-18T08:33:13Z</time>
      </trkpt>
      <trkpt lat="44.18688" lon="6.96783">
        <ele>1795.252494093</ele>
        <time>2021-11-18T08:33:14Z</time>
      </trkpt>
      <trkpt lat="44.18687" lon="6.96783">
        <ele>1795.2525251061</ele>
        <time>2021-11-18T08:33:15Z</time>
      </trkpt>
      <trkpt lat="44.18685" lon="6.96784">
        <ele>1795.2526203245</ele>
        <time>2021-11-18T08:33:17Z</time>
      </trkpt>
      <trkpt lat="44.18684" lon="6.96784">
        <ele>1796.252644632</ele>
        <time>2021-11-18T08:33:18Z</time>
      </trkpt>
      <trkpt lat="44.18683" lon="6.96784">
        <ele>1796.2526878826</ele>
        <time>2021-11-18T08:33:19Z</time>
      </trkpt>
      <trkpt lat="44.18682" lon="6.96783">
        <ele>1796.2527388446</ele>
        <time>2021-11-18T08:33:20Z</time>
      </trkpt>
      <trkpt lat="44.1868" lon="6.96783">
        <ele>1796.2527844422</ele>
        <time>2021-11-18T08:33:21Z</time>
      </trkpt>
      <trkpt lat="44.1868" lon="6.96782">
        <ele>1797.2528064027</ele>
        <time>2021-11-18T08:33:22Z</time>
      </trkpt>
      <trkpt lat="44.18679" lon="6.96782">
        <ele>1798.252838254</ele>
        <time>2021-11-18T08:33:23Z</time>
      </trkpt>
      <trkpt lat="44.18679" lon="6.96782">
        <ele>1799.2528530061</ele>
        <time>2021-11-18T08:33:24Z</time>
      </trkpt>
      <trkpt lat="44.18678" lon="6.96782">
        <ele>1798.2528997771</ele>
        <time>2021-11-18T08:33:25Z</time>
      </trkpt>
      <trkpt lat="44.18677" lon="6.96782">
        <ele>1798.2529235817</ele>
        <time>2021-11-18T08:33:26Z</time>
      </trkpt>
      <trkpt lat="44.18676" lon="6.96781">
        <ele>1797.2529483922</ele>
        <time>2021-11-18T08:33:28Z</time>
      </trkpt>
      <trkpt lat="44.18676" lon="6.9678">
        <ele>1797.2529683411</ele>
        <time>2021-11-18T08:33:29Z</time>
      </trkpt>
      <trkpt lat="44.18675" lon="6.9678">
        <ele>1796.2529891282</ele>
        <time>2021-11-18T08:33:30Z</time>
      </trkpt>
      <trkpt lat="44.18675" lon="6.9678">
        <ele>1796.2530075684</ele>
        <time>2021-11-18T08:33:31Z</time>
      </trkpt>
      <trkpt lat="44.18674" lon="6.96779">
        <ele>1796.2530390844</ele>
        <time>2021-11-18T08:33:32Z</time>
      </trkpt>
      <trkpt lat="44.18673" lon="6.96779">
        <ele>1796.2530687563</ele>
        <time>2021-11-18T08:33:33Z</time>
      </trkpt>
      <trkpt lat="44.18673" lon="6.96779">
        <ele>1796.2530908845</ele>
        <time>2021-11-18T08:33:34Z</time>
      </trkpt>
      <trkpt lat="44.18672" lon="6.96779">
        <ele>1796.2531327941</ele>
        <time>2021-11-18T08:33:36Z</time>
      </trkpt>
      <trkpt lat="44.18671" lon="6.96779">
        <ele>1796.2531507313</ele>
        <time>2021-11-18T08:33:37Z</time>
      </trkpt>
      <trkpt lat="44.18671" lon="6.96779">
        <ele>1797.2531747036</ele>
        <time>2021-11-18T08:33:38Z</time>
      </trkpt>
      <trkpt lat="44.1867" lon="6.96779">
        <ele>1797.2531951554</ele>
        <time>2021-11-18T08:33:39Z</time>
      </trkpt>
      <trkpt lat="44.18669" lon="6.96779">
        <ele>1797.2532229833</ele>
        <time>2021-11-18T08:33:40Z</time>
      </trkpt>
      <trkpt lat="44.18668" lon="6.96778">
        <ele>1796.2532818243</ele>
        <time>2021-11-18T08:33:42Z</time>
      </trkpt>
      <trkpt lat="44.18667" lon="6.96777">
        <ele>1796.2533037849</ele>
        <time>2021-11-18T08:33:43Z</time>
      </trkpt>
      <trkpt lat="44.18667" lon="6.96777">
        <ele>1795.2533341274</ele>
        <time>2021-11-18T08:33:44Z</time>
      </trkpt>
      <trkpt lat="44.18666" lon="6.96776">
        <ele>1796.253367655</ele>
        <time>2021-11-18T08:33:45Z</time>
      </trkpt>
      <trkpt lat="44.18665" lon="6.96776">
        <ele>1796.2534166053</ele>
        <time>2021-11-18T08:33:46Z</time>
      </trkpt>
      <trkpt lat="44.18664" lon="6.96776">
        <ele>1797.2534375601</ele>
        <time>2021-11-18T08:33:47Z</time>
      </trkpt>
      <trkpt lat="44.18663" lon="6.96776">
        <ele>1797.2534700818</ele>
        <time>2021-11-18T08:33:48Z</time>
      </trkpt>
      <trkpt lat="44.18663" lon="6.96776">
        <ele>1796.2534969039</ele>
        <time>2021-11-18T08:33:49Z</time>
      </trkpt>
      <trkpt lat="44.18661" lon="6.96775">
        <ele>1795.2535606064</ele>
        <time>2021-11-18T08:33:51Z</time>
      </trkpt>
      <trkpt lat="44.1866" lon="6.96774">
        <ele>1795.2536008395</ele>
        <time>2021-11-18T08:33:52Z</time>
      </trkpt>
      <trkpt lat="44.18659" lon="6.96775">
        <ele>1796.25362565</ele>
        <time>2021-11-18T08:33:53Z</time>
      </trkpt>
      <trkpt lat="44.18658" lon="6.96775">
        <ele>1795.2536942139</ele>
        <time>2021-11-18T08:33:55Z</time>
      </trkpt>
      <trkpt lat="44.18656" lon="6.96776">
        <ele>1796.2537589222</ele>
        <time>2021-11-18T08:33:57Z</time>
      </trkpt>
      <trkpt lat="44.18656" lon="6.96777">
        <ele>1797.2537706569</ele>
        <time>2021-11-18T08:33:58Z</time>
      </trkpt>
      <trkpt lat="44.18655" lon="6.96776">
        <ele>1797.2537968084</ele>
        <time>2021-11-18T08:33:59Z</time>
      </trkpt>
      <trkpt lat="44.18653" lon="6.96776">
        <ele>1796.2538628578</ele>
        <time>2021-11-18T08:34:01Z</time>
      </trkpt>
      <trkpt lat="44.18653" lon="6.96775">
        <ele>1796.2538826391</ele>
        <time>2021-11-18T08:34:02Z</time>
      </trkpt>
      <trkpt lat="44.18653" lon="6.96775">
        <ele>1795.2538987324</ele>
        <time>2021-11-18T08:34:03Z</time>
      </trkpt>
      <trkpt lat="44.18651" lon="6.96774">
        <ele>1797.2539483532</ele>
        <time>2021-11-18T08:34:05Z</time>
      </trkpt>
      <trkpt lat="44.18649" lon="6.96775">
        <ele>1796.2540387101</ele>
        <time>2021-11-18T08:34:07Z</time>
      </trkpt>
      <trkpt lat="44.18648" lon="6.96776">
        <ele>1797.2540682144</ele>
        <time>2021-11-18T08:34:08Z</time>
      </trkpt>
      <trkpt lat="44.18648" lon="6.96777">
        <ele>1797.2540920191</ele>
        <time>2021-11-18T08:34:09Z</time>
      </trkpt>
      <trkpt lat="44.18647" lon="6.96777">
        <ele>1797.2541168295</ele>
        <time>2021-11-18T08:34:10Z</time>
      </trkpt>
      <trkpt lat="44.18646" lon="6.96777">
        <ele>1798.2541756704</ele>
        <time>2021-11-18T08:34:12Z</time>
      </trkpt>
      <trkpt lat="44.18645" lon="6.96778">
        <ele>1799.2542060129</ele>
        <time>2021-11-18T08:34:14Z</time>
      </trkpt>
      <trkpt lat="44.18644" lon="6.96779">
        <ele>1799.2542376965</ele>
        <time>2021-11-18T08:34:16Z</time>
      </trkpt>
      <trkpt lat="44.18644" lon="6.96778">
        <ele>1800.25426016</ele>
        <time>2021-11-18T08:34:17Z</time>
      </trkpt>
      <trkpt lat="44.18643" lon="6.96777">
        <ele>1800.2542868145</ele>
        <time>2021-11-18T08:34:18Z</time>
      </trkpt>
      <trkpt lat="44.18642" lon="6.96778">
        <ele>1799.254324533</ele>
        <time>2021-11-18T08:34:19Z</time>
      </trkpt>
      <trkpt lat="44.1864" lon="6.96778">
        <ele>1800.2543868944</ele>
        <time>2021-11-18T08:34:21Z</time>
      </trkpt>
      <trkpt lat="44.1864" lon="6.96778">
        <ele>1801.2544085197</ele>
        <time>2021-11-18T08:34:22Z</time>
      </trkpt>
      <trkpt lat="44.18639" lon="6.96778">
        <ele>1800.2544371858</ele>
        <time>2021-11-18T08:34:24Z</time>
      </trkpt>
      <trkpt lat="44.18639" lon="6.96778">
        <ele>1801.2544542849</ele>
        <time>2021-11-18T08:34:25Z</time>
      </trkpt>
      <trkpt lat="44.18638" lon="6.96778">
        <ele>1803.2544956915</ele>
        <time>2021-11-18T08:34:26Z</time>
      </trkpt>
      <trkpt lat="44.18637" lon="6.96778">
        <ele>1804.254537601</ele>
        <time>2021-11-18T08:34:27Z</time>
      </trkpt>
      <trkpt lat="44.18636" lon="6.96779">
        <ele>1804.2545702904</ele>
        <time>2021-11-18T08:34:28Z</time>
      </trkpt>
      <trkpt lat="44.18635" lon="6.9678">
        <ele>1804.2545927539</ele>
        <time>2021-11-18T08:34:29Z</time>
      </trkpt>
      <trkpt lat="44.18634" lon="6.9678">
        <ele>1804.2546262816</ele>
        <time>2021-11-18T08:34:31Z</time>
      </trkpt>
      <trkpt lat="44.18634" lon="6.9678">
        <ele>1804.2546489127</ele>
        <time>2021-11-18T08:34:32Z</time>
      </trkpt>
      <trkpt lat="44.18634" lon="6.96781">
        <ele>1804.2546614856</ele>
        <time>2021-11-18T08:34:33Z</time>
      </trkpt>
      <trkpt lat="44.18633" lon="6.96782">
        <ele>1805.254674226</ele>
        <time>2021-11-18T08:34:34Z</time>
      </trkpt>
      <trkpt lat="44.18632" lon="6.96782">
        <ele>1807.2547206618</ele>
        <time>2021-11-18T08:34:36Z</time>
      </trkpt>
      <trkpt lat="44.18631" lon="6.96783">
        <ele>1808.2547448017</ele>
        <time>2021-11-18T08:34:37Z</time>
      </trkpt>
      <trkpt lat="44.18631" lon="6.96783">
        <ele>1809.2547650859</ele>
        <time>2021-11-18T08:34:38Z</time>
      </trkpt>
      <trkpt lat="44.1863" lon="6.96784">
        <ele>1809.254785873</ele>
        <time>2021-11-18T08:34:39Z</time>
      </trkpt>
      <trkpt lat="44.18629" lon="6.96784">
        <ele>1807.2548272796</ele>
        <time>2021-11-18T08:34:41Z</time>
      </trkpt>
      <trkpt lat="44.18628" lon="6.96783">
        <ele>1808.2548638247</ele>
        <time>2021-11-18T08:34:42Z</time>
      </trkpt>
      <trkpt lat="44.18628" lon="6.96782">
        <ele>1808.2548886351</ele>
        <time>2021-11-18T08:34:43Z</time>
      </trkpt>
      <trkpt lat="44.18626" lon="6.96782">
        <ele>1807.2549561933</ele>
        <time>2021-11-18T08:34:45Z</time>
      </trkpt>
      <trkpt lat="44.18625" lon="6.96781">
        <ele>1806.2550078258</ele>
        <time>2021-11-18T08:34:47Z</time>
      </trkpt>
      <trkpt lat="44.18624" lon="6.96781">
        <ele>1806.2550542615</ele>
        <time>2021-11-18T08:34:48Z</time>
      </trkpt>
      <trkpt lat="44.18623" lon="6.9678">
        <ele>1806.2550666668</ele>
        <time>2021-11-18T08:34:49Z</time>
      </trkpt>
      <trkpt lat="44.18623" lon="6.96779">
        <ele>1806.2550844364</ele>
        <time>2021-11-18T08:34:50Z</time>
      </trkpt>
      <trkpt lat="44.18621" lon="6.96779">
        <ele>1806.2551528327</ele>
        <time>2021-11-18T08:34:52Z</time>
      </trkpt>
      <trkpt lat="44.18621" lon="6.96778">
        <ele>1806.255176805</ele>
        <time>2021-11-18T08:34:53Z</time>
      </trkpt>
      <trkpt lat="44.1862" lon="6.96778">
        <ele>1806.2551887073</ele>
        <time>2021-11-18T08:34:54Z</time>
      </trkpt>
      <trkpt lat="44.18619" lon="6.96777">
        <ele>1808.2552237436</ele>
        <time>2021-11-18T08:34:56Z</time>
      </trkpt>
      <trkpt lat="44.18619" lon="6.96777">
        <ele>1808.2552507333</ele>
        <time>2021-11-18T08:34:57Z</time>
      </trkpt>
      <trkpt lat="44.18618" lon="6.96777">
        <ele>1809.2552731968</ele>
        <time>2021-11-18T08:34:58Z</time>
      </trkpt>
      <trkpt lat="44.18617" lon="6.96777">
        <ele>1808.2553261705</ele>
        <time>2021-11-18T08:35:00Z</time>
      </trkpt>
      <trkpt lat="44.18616" lon="6.96776">
        <ele>1809.2553493045</ele>
        <time>2021-11-18T08:35:01Z</time>
      </trkpt>
      <trkpt lat="44.18616" lon="6.96775">
        <ele>1810.2553677447</ele>
        <time>2021-11-18T08:35:02Z</time>
      </trkpt>
      <trkpt lat="44.18615" lon="6.96776">
        <ele>1809.2553925551</ele>
        <time>2021-11-18T08:35:03Z</time>
      </trkpt>
      <trkpt lat="44.18614" lon="6.96776">
        <ele>1808.2554513961</ele>
        <time>2021-11-18T08:35:05Z</time>
      </trkpt>
      <trkpt lat="44.18613" lon="6.96776">
        <ele>1807.2555003464</ele>
        <time>2021-11-18T08:35:07Z</time>
      </trkpt>
      <trkpt lat="44.18612" lon="6.96776">
        <ele>1807.2555414177</ele>
        <time>2021-11-18T08:35:08Z</time>
      </trkpt>
      <trkpt lat="44.18611" lon="6.96776">
        <ele>1807.2555734366</ele>
        <time>2021-11-18T08:35:09Z</time>
      </trkpt>
      <trkpt lat="44.18609" lon="6.96776">
        <ele>1807.2556341216</ele>
        <time>2021-11-18T08:35:11Z</time>
      </trkpt>
      <trkpt lat="44.18608" lon="6.96776">
        <ele>1808.255680725</ele>
        <time>2021-11-18T08:35:12Z</time>
      </trkpt>
      <trkpt lat="44.18607" lon="6.96776">
        <ele>1808.2557303458</ele>
        <time>2021-11-18T08:35:13Z</time>
      </trkpt>
      <trkpt lat="44.18605" lon="6.96775">
        <ele>1808.255803939</ele>
        <time>2021-11-18T08:35:15Z</time>
      </trkpt>
      <trkpt lat="44.18603" lon="6.96774">
        <ele>1808.2558797114</ele>
        <time>2021-11-18T08:35:17Z</time>
      </trkpt>
      <trkpt lat="44.18602" lon="6.96775">
        <ele>1809.2559129037</ele>
        <time>2021-11-18T08:35:18Z</time>
      </trkpt>
      <trkpt lat="44.18602" lon="6.96775">
        <ele>1809.2559372112</ele>
        <time>2021-11-18T08:35:19Z</time>
      </trkpt>
      <trkpt lat="44.18601" lon="6.96775">
        <ele>1810.2559710741</ele>
        <time>2021-11-18T08:35:20Z</time>
      </trkpt>
      <trkpt lat="44.186" lon="6.96776">
        <ele>1810.2560097985</ele>
        <time>2021-11-18T08:35:21Z</time>
      </trkpt>
      <trkpt lat="44.18599" lon="6.96776">
        <ele>1811.2560384646</ele>
        <time>2021-11-18T08:35:26Z</time>
      </trkpt>
      <trkpt lat="44.18598" lon="6.96774">
        <ele>1810.2560810447</ele>
        <time>2021-11-18T08:35:27Z</time>
      </trkpt>
      <trkpt lat="44.18597" lon="6.96774">
        <ele>1809.2561201043</ele>
        <time>2021-11-18T08:35:28Z</time>
      </trkpt>
      <trkpt lat="44.18596" lon="6.96774">
        <ele>1809.2561452501</ele>
        <time>2021-11-18T08:35:29Z</time>
      </trkpt>
      <trkpt lat="44.18596" lon="6.96774">
        <ele>1809.2561702281</ele>
        <time>2021-11-18T08:35:30Z</time>
      </trkpt>
      <trkpt lat="44.18595" lon="6.96774">
        <ele>1809.256207779</ele>
        <time>2021-11-18T08:35:31Z</time>
      </trkpt>
      <trkpt lat="44.18594" lon="6.96774">
        <ele>1809.2562382892</ele>
        <time>2021-11-18T08:35:32Z</time>
      </trkpt>
      <trkpt lat="44.18593" lon="6.96774">
        <ele>1809.2562897541</ele>
        <time>2021-11-18T08:35:33Z</time>
      </trkpt>
      <trkpt lat="44.18592" lon="6.96774">
        <ele>1808.2563264668</ele>
        <time>2021-11-18T08:35:34Z</time>
      </trkpt>
      <trkpt lat="44.18591" lon="6.96775">
        <ele>1808.2563817874</ele>
        <time>2021-11-18T08:35:35Z</time>
      </trkpt>
      <trkpt lat="44.1859" lon="6.96774">
        <ele>1809.2564198412</ele>
        <time>2021-11-18T08:35:36Z</time>
      </trkpt>
      <trkpt lat="44.18588" lon="6.96774">
        <ele>1809.2564656064</ele>
        <time>2021-11-18T08:35:37Z</time>
      </trkpt>
      <trkpt lat="44.18587" lon="6.96774">
        <ele>1809.2565046661</ele>
        <time>2021-11-18T08:35:38Z</time>
      </trkpt>
      <trkpt lat="44.18586" lon="6.96774">
        <ele>1810.2565526105</ele>
        <time>2021-11-18T08:35:39Z</time>
      </trkpt>
      <trkpt lat="44.18585" lon="6.96775">
        <ele>1810.2565985434</ele>
        <time>2021-11-18T08:35:40Z</time>
      </trkpt>
      <trkpt lat="44.18584" lon="6.96775">
        <ele>1810.2566429675</ele>
        <time>2021-11-18T08:35:41Z</time>
      </trkpt>
      <trkpt lat="44.18584" lon="6.96775">
        <ele>1810.2566590607</ele>
        <time>2021-11-18T08:35:42Z</time>
      </trkpt>
      <trkpt lat="44.18583" lon="6.96775">
        <ele>1810.2566734776</ele>
        <time>2021-11-18T08:35:43Z</time>
      </trkpt>
      <trkpt lat="44.18582" lon="6.96776">
        <ele>1812.2567029819</ele>
        <time>2021-11-18T08:35:44Z</time>
      </trkpt>
      <trkpt lat="44.18582" lon="6.96776">
        <ele>1812.2567393593</ele>
        <time>2021-11-18T08:35:45Z</time>
      </trkpt>
      <trkpt lat="44.18581" lon="6.96776">
        <ele>1813.2567785867</ele>
        <time>2021-11-18T08:35:46Z</time>
      </trkpt>
      <trkpt lat="44.1858" lon="6.96775">
        <ele>1814.2568189874</ele>
        <time>2021-11-18T08:35:47Z</time>
      </trkpt>
      <trkpt lat="44.18578" lon="6.96775">
        <ele>1814.2568694465</ele>
        <time>2021-11-18T08:35:48Z</time>
      </trkpt>
      <trkpt lat="44.18577" lon="6.96775">
        <ele>1813.2569058239</ele>
        <time>2021-11-18T08:35:49Z</time>
      </trkpt>
      <trkpt lat="44.18576" lon="6.96776">
        <ele>1813.2569472305</ele>
        <time>2021-11-18T08:35:50Z</time>
      </trkpt>
      <trkpt lat="44.18575" lon="6.96776">
        <ele>1811.2569864579</ele>
        <time>2021-11-18T08:35:51Z</time>
      </trkpt>
      <trkpt lat="44.18574" lon="6.96776">
        <ele>1811.2570263557</ele>
        <time>2021-11-18T08:35:52Z</time>
      </trkpt>
      <trkpt lat="44.18573" lon="6.96776">
        <ele>1811.2570629008</ele>
        <time>2021-11-18T08:35:53Z</time>
      </trkpt>
      <trkpt lat="44.18572" lon="6.96776">
        <ele>1811.2571078278</ele>
        <time>2021-11-18T08:35:54Z</time>
      </trkpt>
      <trkpt lat="44.18571" lon="6.96777">
        <ele>1811.2571547665</ele>
        <time>2021-11-18T08:35:55Z</time>
      </trkpt>
      <trkpt lat="44.1857" lon="6.96777">
        <ele>1811.2572057284</ele>
        <time>2021-11-18T08:35:56Z</time>
      </trkpt>
      <trkpt lat="44.18569" lon="6.96778">
        <ele>1812.2572581992</ele>
        <time>2021-11-18T08:35:57Z</time>
      </trkpt>
      <trkpt lat="44.18568" lon="6.96778">
        <ele>1813.2572954148</ele>
        <time>2021-11-18T08:35:58Z</time>
      </trkpt>
      <trkpt lat="44.18567" lon="6.96778">
        <ele>1812.2573299482</ele>
        <time>2021-11-18T08:35:59Z</time>
      </trkpt>
      <trkpt lat="44.18566" lon="6.96778">
        <ele>1812.2573696785</ele>
        <time>2021-11-18T08:36:00Z</time>
      </trkpt>
      <trkpt lat="44.18565" lon="6.96778">
        <ele>1812.2574047148</ele>
        <time>2021-11-18T08:36:01Z</time>
      </trkpt>
      <trkpt lat="44.18564" lon="6.96779">
        <ele>1812.2574434392</ele>
        <time>2021-11-18T08:36:02Z</time>
      </trkpt>
      <trkpt lat="44.18563" lon="6.9678">
        <ele>1812.2574751228</ele>
        <time>2021-11-18T08:36:03Z</time>
      </trkpt>
      <trkpt lat="44.18563" lon="6.96781">
        <ele>1812.2574949041</ele>
        <time>2021-11-18T08:36:04Z</time>
      </trkpt>
      <trkpt lat="44.18561" lon="6.96784">
        <ele>1811.2575721852</ele>
        <time>2021-11-18T08:36:06Z</time>
      </trkpt>
      <trkpt lat="44.18559" lon="6.96785">
        <ele>1812.2576278411</ele>
        <time>2021-11-18T08:36:07Z</time>
      </trkpt>
      <trkpt lat="44.18558" lon="6.96785">
        <ele>1812.2576640509</ele>
        <time>2021-11-18T08:36:08Z</time>
      </trkpt>
      <trkpt lat="44.18558" lon="6.96786">
        <ele>1812.2577019371</ele>
        <time>2021-11-18T08:36:09Z</time>
      </trkpt>
      <trkpt lat="44.18556" lon="6.96788">
        <ele>1812.2577616163</ele>
        <time>2021-11-18T08:36:11Z</time>
      </trkpt>
      <trkpt lat="44.18555" lon="6.96788">
        <ele>1813.2577892765</ele>
        <time>2021-11-18T08:36:12Z</time>
      </trkpt>
      <trkpt lat="44.18555" lon="6.96788">
        <ele>1813.2578182779</ele>
        <time>2021-11-18T08:36:13Z</time>
      </trkpt>
      <trkpt lat="44.18554" lon="6.96789">
        <ele>1812.2578429207</ele>
        <time>2021-11-18T08:36:14Z</time>
      </trkpt>
      <trkpt lat="44.18553" lon="6.9679">
        <ele>1813.257868737</ele>
        <time>2021-11-18T08:36:16Z</time>
      </trkpt>
      <trkpt lat="44.18553" lon="6.96792">
        <ele>1813.2578915358</ele>
        <time>2021-11-18T08:36:17Z</time>
      </trkpt>
      <trkpt lat="44.18552" lon="6.96792">
        <ele>1814.2579168491</ele>
        <time>2021-11-18T08:36:18Z</time>
      </trkpt>
      <trkpt lat="44.18551" lon="6.96792">
        <ele>1815.2579513825</ele>
        <time>2021-11-18T08:36:20Z</time>
      </trkpt>
      <trkpt lat="44.18549" lon="6.96794">
        <ele>1815.2580227964</ele>
        <time>2021-11-18T08:36:22Z</time>
      </trkpt>
      <trkpt lat="44.18549" lon="6.96795">
        <ele>1816.2580507919</ele>
        <time>2021-11-18T08:36:23Z</time>
      </trkpt>
      <trkpt lat="44.18548" lon="6.96795">
        <ele>1817.2580787875</ele>
        <time>2021-11-18T08:36:24Z</time>
      </trkpt>
      <trkpt lat="44.18547" lon="6.96796">
        <ele>1817.2581186853</ele>
        <time>2021-11-18T08:36:26Z</time>
      </trkpt>
      <trkpt lat="44.18546" lon="6.96796">
        <ele>1817.2581592537</ele>
        <time>2021-11-18T08:36:27Z</time>
      </trkpt>
      <trkpt lat="44.18546" lon="6.96795">
        <ele>1817.2581730001</ele>
        <time>2021-11-18T08:36:28Z</time>
      </trkpt>
      <trkpt lat="44.18545" lon="6.96797">
        <ele>1818.2582011633</ele>
        <time>2021-11-18T08:36:30Z</time>
      </trkpt>
      <trkpt lat="44.18544" lon="6.96797">
        <ele>1819.2582279854</ele>
        <time>2021-11-18T08:36:31Z</time>
      </trkpt>
      <trkpt lat="44.18543" lon="6.96798">
        <ele>1820.2582784444</ele>
        <time>2021-11-18T08:36:32Z</time>
      </trkpt>
      <trkpt lat="44.18543" lon="6.96799">
        <ele>1821.2582973875</ele>
        <time>2021-11-18T08:36:33Z</time>
      </trkpt>
      <trkpt lat="44.18542" lon="6.96799">
        <ele>1821.258321695</ele>
        <time>2021-11-18T08:36:34Z</time>
      </trkpt>
      <trkpt lat="44.18541" lon="6.968">
        <ele>1821.258355055</ele>
        <time>2021-11-18T08:36:35Z</time>
      </trkpt>
      <trkpt lat="44.1854" lon="6.96801">
        <ele>1820.2584122196</ele>
        <time>2021-11-18T08:36:37Z</time>
      </trkpt>
      <trkpt lat="44.1854" lon="6.96802">
        <ele>1821.258419428</ele>
        <time>2021-11-18T08:36:38Z</time>
      </trkpt>
      <trkpt lat="44.18539" lon="6.96803">
        <ele>1820.2584377006</ele>
        <time>2021-11-18T08:36:39Z</time>
      </trkpt>
      <trkpt lat="44.18539" lon="6.96804">
        <ele>1820.2584464177</ele>
        <time>2021-11-18T08:36:40Z</time>
      </trkpt>
      <trkpt lat="44.18538" lon="6.96805">
        <ele>1820.258462511</ele>
        <time>2021-11-18T08:36:41Z</time>
      </trkpt>
      <trkpt lat="44.18538" lon="6.96805">
        <ele>1820.2584774308</ele>
        <time>2021-11-18T08:36:42Z</time>
      </trkpt>
      <trkpt lat="44.18537" lon="6.96805">
        <ele>1820.2585039176</ele>
        <time>2021-11-18T08:36:43Z</time>
      </trkpt>
      <trkpt lat="44.18537" lon="6.96805">
        <ele>1820.2585327514</ele>
        <time>2021-11-18T08:36:44Z</time>
      </trkpt>
      <trkpt lat="44.18536" lon="6.96806">
        <ele>1820.2585627586</ele>
        <time>2021-11-18T08:36:45Z</time>
      </trkpt>
      <trkpt lat="44.18536" lon="6.96806">
        <ele>1820.258577846</ele>
        <time>2021-11-18T08:36:46Z</time>
      </trkpt>
      <trkpt lat="44.18535" lon="6.96807">
        <ele>1820.2586001419</ele>
        <time>2021-11-18T08:36:47Z</time>
      </trkpt>
      <trkpt lat="44.18534" lon="6.96808">
        <ele>1820.2586221024</ele>
        <time>2021-11-18T08:36:48Z</time>
      </trkpt>
      <trkpt lat="44.18534" lon="6.96808">
        <ele>1821.2586594857</ele>
        <time>2021-11-18T08:36:49Z</time>
      </trkpt>
      <trkpt lat="44.18532" lon="6.96808">
        <ele>1821.2587138005</ele>
        <time>2021-11-18T08:36:50Z</time>
      </trkpt>
      <trkpt lat="44.18531" lon="6.96808">
        <ele>1821.2587573864</ele>
        <time>2021-11-18T08:36:51Z</time>
      </trkpt>
      <trkpt lat="44.1853" lon="6.96809">
        <ele>1821.2588086836</ele>
        <time>2021-11-18T08:36:52Z</time>
      </trkpt>
      <trkpt lat="44.18529" lon="6.96809">
        <ele>1821.2588487491</ele>
        <time>2021-11-18T08:36:53Z</time>
      </trkpt>
      <trkpt lat="44.18528" lon="6.96809">
        <ele>1822.2588993758</ele>
        <time>2021-11-18T08:36:54Z</time>
      </trkpt>
      <trkpt lat="44.18527" lon="6.96809">
        <ele>1823.2589347474</ele>
        <time>2021-11-18T08:36:55Z</time>
      </trkpt>
      <trkpt lat="44.18526" lon="6.9681">
        <ele>1823.2589689456</ele>
        <time>2021-11-18T08:36:56Z</time>
      </trkpt>
      <trkpt lat="44.18525" lon="6.9681">
        <ele>1823.2590012997</ele>
        <time>2021-11-18T08:36:57Z</time>
      </trkpt>
      <trkpt lat="44.18524" lon="6.96811">
        <ele>1823.2590353303</ele>
        <time>2021-11-18T08:36:58Z</time>
      </trkpt>
      <trkpt lat="44.18523" lon="6.96811">
        <ele>1824.2590717077</ele>
        <time>2021-11-18T08:36:59Z</time>
      </trkpt>
      <trkpt lat="44.18522" lon="6.96811">
        <ele>1823.2591055706</ele>
        <time>2021-11-18T08:37:00Z</time>
      </trkpt>
      <trkpt lat="44.18522" lon="6.96811">
        <ele>1823.2591339014</ele>
        <time>2021-11-18T08:37:05Z</time>
      </trkpt>
      <trkpt lat="44.18521" lon="6.96811">
        <ele>1823.2591640763</ele>
        <time>2021-11-18T08:37:06Z</time>
      </trkpt>
      <trkpt lat="44.1852" lon="6.96812">
        <ele>1823.2592056505</ele>
        <time>2021-11-18T08:37:07Z</time>
      </trkpt>
      <trkpt lat="44.18519" lon="6.96812">
        <ele>1825.2592388429</ele>
        <time>2021-11-18T08:37:08Z</time>
      </trkpt>
      <trkpt lat="44.18517" lon="6.96812">
        <ele>1825.2593181357</ele>
        <time>2021-11-18T08:37:10Z</time>
      </trkpt>
      <trkpt lat="44.18517" lon="6.96811">
        <ele>1825.259336073</ele>
        <time>2021-11-18T08:37:11Z</time>
      </trkpt>
      <trkpt lat="44.18516" lon="6.96812">
        <ele>1825.2593662478</ele>
        <time>2021-11-18T08:37:12Z</time>
      </trkpt>
      <trkpt lat="44.18515" lon="6.96812">
        <ele>1825.2593991049</ele>
        <time>2021-11-18T08:37:13Z</time>
      </trkpt>
      <trkpt lat="44.18513" lon="6.96813">
        <ele>1826.2594768889</ele>
        <time>2021-11-18T08:37:15Z</time>
      </trkpt>
      <trkpt lat="44.18512" lon="6.96813">
        <ele>1827.2595201395</ele>
        <time>2021-11-18T08:37:17Z</time>
      </trkpt>
      <trkpt lat="44.18511" lon="6.96813">
        <ele>1827.2595689222</ele>
        <time>2021-11-18T08:37:18Z</time>
      </trkpt>
      <trkpt lat="44.1851" lon="6.96813">
        <ele>1826.2596166991</ele>
        <time>2021-11-18T08:37:19Z</time>
      </trkpt>
      <trkpt lat="44.18508" lon="6.96815">
        <ele>1827.2596820779</ele>
        <time>2021-11-18T08:37:21Z</time>
      </trkpt>
      <trkpt lat="44.18507" lon="6.96815">
        <ele>1826.259712588</ele>
        <time>2021-11-18T08:37:22Z</time>
      </trkpt>
      <trkpt lat="44.18507" lon="6.96815">
        <ele>1826.2597392425</ele>
        <time>2021-11-18T08:37:23Z</time>
      </trkpt>
      <trkpt lat="44.18505" lon="6.96817">
        <ele>1826.2597913779</ele>
        <time>2021-11-18T08:37:25Z</time>
      </trkpt>
      <trkpt lat="44.18504" lon="6.96818">
        <ele>1826.2598425075</ele>
        <time>2021-11-18T08:37:27Z</time>
      </trkpt>
      <trkpt lat="44.18503" lon="6.96818">
        <ele>1825.2598882727</ele>
        <time>2021-11-18T08:37:28Z</time>
      </trkpt>
      <trkpt lat="44.18502" lon="6.96819">
        <ele>1825.2599300146</ele>
        <time>2021-11-18T08:37:29Z</time>
      </trkpt>
      <trkpt lat="44.18501" lon="6.96819">
        <ele>1825.2599751092</ele>
        <time>2021-11-18T08:37:30Z</time>
      </trkpt>
      <trkpt lat="44.185" lon="6.96819">
        <ele>1826.2600101456</ele>
        <time>2021-11-18T08:37:31Z</time>
      </trkpt>
      <trkpt lat="44.18499" lon="6.9682">
        <ele>1826.2600411586</ele>
        <time>2021-11-18T08:37:32Z</time>
      </trkpt>
      <trkpt lat="44.18499" lon="6.9682">
        <ele>1826.2600611076</ele>
        <time>2021-11-18T08:37:33Z</time>
      </trkpt>
      <trkpt lat="44.18498" lon="6.96821">
        <ele>1826.2600808889</ele>
        <time>2021-11-18T08:37:34Z</time>
      </trkpt>
      <trkpt lat="44.18497" lon="6.96822">
        <ele>1826.2601251453</ele>
        <time>2021-11-18T08:37:35Z</time>
      </trkpt>
      <trkpt lat="44.18495" lon="6.96822">
        <ele>1828.2602000795</ele>
        <time>2021-11-18T08:37:37Z</time>
      </trkpt>
      <trkpt lat="44.18495" lon="6.96822">
        <ele>1828.2602208667</ele>
        <time>2021-11-18T08:37:38Z</time>
      </trkpt>
      <trkpt lat="44.18494" lon="6.96823">
        <ele>1828.2602374628</ele>
        <time>2021-11-18T08:37:40Z</time>
      </trkpt>
      <trkpt lat="44.18493" lon="6.96825">
        <ele>1829.2602999918</ele>
        <time>2021-11-18T08:37:42Z</time>
      </trkpt>
      <trkpt lat="44.18492" lon="6.96825">
        <ele>1829.260339722</ele>
        <time>2021-11-18T08:37:43Z</time>
      </trkpt>
      <trkpt lat="44.1849" lon="6.96826">
        <ele>1830.2603885047</ele>
        <time>2021-11-18T08:37:44Z</time>
      </trkpt>
      <trkpt lat="44.18489" lon="6.96826">
        <ele>1831.2604357786</ele>
        <time>2021-11-18T08:37:45Z</time>
      </trkpt>
      <trkpt lat="44.18488" lon="6.96827">
        <ele>1831.2604778558</ele>
        <time>2021-11-18T08:37:46Z</time>
      </trkpt>
      <trkpt lat="44.18487" lon="6.96828">
        <ele>1831.2605113834</ele>
        <time>2021-11-18T08:37:47Z</time>
      </trkpt>
      <trkpt lat="44.18486" lon="6.96828">
        <ele>1832.260549102</ele>
        <time>2021-11-18T08:37:48Z</time>
      </trkpt>
      <trkpt lat="44.18485" lon="6.96829">
        <ele>1832.2605926879</ele>
        <time>2021-11-18T08:37:49Z</time>
      </trkpt>
      <trkpt lat="44.18484" lon="6.96829">
        <ele>1833.2606226951</ele>
        <time>2021-11-18T08:37:50Z</time>
      </trkpt>
      <trkpt lat="44.18483" lon="6.9683">
        <ele>1833.2606635988</ele>
        <time>2021-11-18T08:37:51Z</time>
      </trkpt>
      <trkpt lat="44.18482" lon="6.9683">
        <ele>1833.2607045025</ele>
        <time>2021-11-18T08:37:52Z</time>
      </trkpt>
      <trkpt lat="44.18481" lon="6.9683">
        <ele>1835.2607499324</ele>
        <time>2021-11-18T08:37:53Z</time>
      </trkpt>
      <trkpt lat="44.1848" lon="6.9683">
        <ele>1835.2607851364</ele>
        <time>2021-11-18T08:37:54Z</time>
      </trkpt>
      <trkpt lat="44.18479" lon="6.96831">
        <ele>1836.260836266</ele>
        <time>2021-11-18T08:37:55Z</time>
      </trkpt>
      <trkpt lat="44.18478" lon="6.96832">
        <ele>1836.2608766668</ele>
        <time>2021-11-18T08:37:56Z</time>
      </trkpt>
      <trkpt lat="44.18477" lon="6.96833">
        <ele>1837.2609033212</ele>
        <time>2021-11-18T08:37:57Z</time>
      </trkpt>
      <trkpt lat="44.18477" lon="6.96833">
        <ele>1837.2609239407</ele>
        <time>2021-11-18T08:37:58Z</time>
      </trkpt>
      <trkpt lat="44.18476" lon="6.96833">
        <ele>1837.2609500922</ele>
        <time>2021-11-18T08:37:59Z</time>
      </trkpt>
      <trkpt lat="44.18474" lon="6.96835">
        <ele>1837.2610300556</ele>
        <time>2021-11-18T08:38:01Z</time>
      </trkpt>
      <trkpt lat="44.18474" lon="6.96836">
        <ele>1838.261053022</ele>
        <time>2021-11-18T08:38:02Z</time>
      </trkpt>
      <trkpt lat="44.18472" lon="6.96837">
        <ele>1837.2611023076</ele>
        <time>2021-11-18T08:38:03Z</time>
      </trkpt>
      <trkpt lat="44.18471" lon="6.96838">
        <ele>1837.2611532696</ele>
        <time>2021-11-18T08:38:04Z</time>
      </trkpt>
      <trkpt lat="44.18469" lon="6.96839">
        <ele>1837.261229042</ele>
        <time>2021-11-18T08:38:05Z</time>
      </trkpt>
      <trkpt lat="44.18468" lon="6.96839">
        <ele>1838.261277657</ele>
        <time>2021-11-18T08:38:06Z</time>
      </trkpt>
      <trkpt lat="44.18467" lon="6.9684">
        <ele>1838.2613200694</ele>
        <time>2021-11-18T08:38:07Z</time>
      </trkpt>
      <trkpt lat="44.18466" lon="6.9684">
        <ele>1838.2613680139</ele>
        <time>2021-11-18T08:38:08Z</time>
      </trkpt>
      <trkpt lat="44.18465" lon="6.9684">
        <ele>1838.2614183053</ele>
        <time>2021-11-18T08:38:09Z</time>
      </trkpt>
      <trkpt lat="44.18463" lon="6.9684">
        <ele>1839.2614711113</ele>
        <time>2021-11-18T08:38:10Z</time>
      </trkpt>
      <trkpt lat="44.18461" lon="6.96841">
        <ele>1840.2615725324</ele>
        <time>2021-11-18T08:38:12Z</time>
      </trkpt>
      <trkpt lat="44.1846" lon="6.96841">
        <ele>1841.2616199739</ele>
        <time>2021-11-18T08:38:13Z</time>
      </trkpt>
      <trkpt lat="44.18458" lon="6.96841">
        <ele>1842.2616628893</ele>
        <time>2021-11-18T08:38:14Z</time>
      </trkpt>
      <trkpt lat="44.18457" lon="6.96841">
        <ele>1842.2617260888</ele>
        <time>2021-11-18T08:38:16Z</time>
      </trkpt>
      <trkpt lat="44.18456" lon="6.96841">
        <ele>1842.2617634721</ele>
        <time>2021-11-18T08:38:17Z</time>
      </trkpt>
      <trkpt lat="44.18455" lon="6.96841">
        <ele>1842.2617969997</ele>
        <time>2021-11-18T08:38:18Z</time>
      </trkpt>
      <trkpt lat="44.18453" lon="6.96841">
        <ele>1843.2618816569</ele>
        <time>2021-11-18T08:38:20Z</time>
      </trkpt>
      <trkpt lat="44.18452" lon="6.96842">
        <ele>1843.261941839</ele>
        <time>2021-11-18T08:38:22Z</time>
      </trkpt>
      <trkpt lat="44.18451" lon="6.96842">
        <ele>1843.2619703375</ele>
        <time>2021-11-18T08:38:23Z</time>
      </trkpt>
      <trkpt lat="44.1845" lon="6.96843">
        <ele>1843.2619978301</ele>
        <time>2021-11-18T08:38:24Z</time>
      </trkpt>
      <trkpt lat="44.18449" lon="6.96843">
        <ele>1843.2620546594</ele>
        <time>2021-11-18T08:38:26Z</time>
      </trkpt>
      <trkpt lat="44.18448" lon="6.96843">
        <ele>1843.2620818168</ele>
        <time>2021-11-18T08:38:27Z</time>
      </trkpt>
      <trkpt lat="44.18447" lon="6.96843">
        <ele>1843.2621037774</ele>
        <time>2021-11-18T08:38:28Z</time>
      </trkpt>
      <trkpt lat="44.18446" lon="6.96844">
        <ele>1843.2621703297</ele>
        <time>2021-11-18T08:38:30Z</time>
      </trkpt>
      <trkpt lat="44.18445" lon="6.96843">
        <ele>1843.2622080483</ele>
        <time>2021-11-18T08:38:32Z</time>
      </trkpt>
      <trkpt lat="44.18443" lon="6.96843">
        <ele>1843.262266051</ele>
        <time>2021-11-18T08:38:33Z</time>
      </trkpt>
      <trkpt lat="44.18442" lon="6.96843">
        <ele>1843.2623223774</ele>
        <time>2021-11-18T08:38:34Z</time>
      </trkpt>
      <trkpt lat="44.18441" lon="6.96843">
        <ele>1843.2623817213</ele>
        <time>2021-11-18T08:38:36Z</time>
      </trkpt>
      <trkpt lat="44.18439" lon="6.96843">
        <ele>1842.2624249719</ele>
        <time>2021-11-18T08:38:37Z</time>
      </trkpt>
      <trkpt lat="44.18438" lon="6.96843">
        <ele>1841.2624715753</ele>
        <time>2021-11-18T08:38:38Z</time>
      </trkpt>
      <trkpt lat="44.18437" lon="6.96843">
        <ele>1842.2625393011</ele>
        <time>2021-11-18T08:38:40Z</time>
      </trkpt>
      <trkpt lat="44.18435" lon="6.96845">
        <ele>1842.262600489</ele>
        <time>2021-11-18T08:38:42Z</time>
      </trkpt>
      <trkpt lat="44.18434" lon="6.96845">
        <ele>1842.262623623</ele>
        <time>2021-11-18T08:38:43Z</time>
      </trkpt>
      <trkpt lat="44.18433" lon="6.96845">
        <ele>1842.2626668736</ele>
        <time>2021-11-18T08:38:44Z</time>
      </trkpt>
      <trkpt lat="44.18432" lon="6.96845">
        <ele>1842.2627071068</ele>
        <time>2021-11-18T08:38:45Z</time>
      </trkpt>
      <trkpt lat="44.18432" lon="6.96845">
        <ele>1842.2627339289</ele>
        <time>2021-11-18T08:38:46Z</time>
      </trkpt>
      <trkpt lat="44.1843" lon="6.96846">
        <ele>1842.2627827115</ele>
        <time>2021-11-18T08:38:47Z</time>
      </trkpt>
      <trkpt lat="44.1843" lon="6.96847">
        <ele>1842.2628202625</ele>
        <time>2021-11-18T08:38:48Z</time>
      </trkpt>
      <trkpt lat="44.18428" lon="6.96847">
        <ele>1842.2628643513</ele>
        <time>2021-11-18T08:38:49Z</time>
      </trkpt>
      <trkpt lat="44.18427" lon="6.96848">
        <ele>1841.2629148103</ele>
        <time>2021-11-18T08:38:50Z</time>
      </trkpt>
      <trkpt lat="44.18426" lon="6.96849">
        <ele>1841.262961749</ele>
        <time>2021-11-18T08:38:52Z</time>
      </trkpt>
      <trkpt lat="44.18425" lon="6.96849">
        <ele>1841.2629919238</ele>
        <time>2021-11-18T08:38:53Z</time>
      </trkpt>
      <trkpt lat="44.18425" lon="6.96848">
        <ele>1841.263016399</ele>
        <time>2021-11-18T08:38:54Z</time>
      </trkpt>
      <trkpt lat="44.18424" lon="6.96848">
        <ele>1841.2630537823</ele>
        <time>2021-11-18T08:38:55Z</time>
      </trkpt>
      <trkpt lat="44.18423" lon="6.96848">
        <ele>1842.2630836219</ele>
        <time>2021-11-18T08:38:56Z</time>
      </trkpt>
      <trkpt lat="44.18422" lon="6.96848">
        <ele>1842.2631163113</ele>
        <time>2021-11-18T08:38:57Z</time>
      </trkpt>
      <trkpt lat="44.18421" lon="6.96848">
        <ele>1842.2631422952</ele>
        <time>2021-11-18T08:38:59Z</time>
      </trkpt>
      <trkpt lat="44.18421" lon="6.96848">
        <ele>1842.2631634176</ele>
        <time>2021-11-18T08:39:00Z</time>
      </trkpt>
      <trkpt lat="44.1842" lon="6.96847">
        <ele>1842.2631929219</ele>
        <time>2021-11-18T08:39:01Z</time>
      </trkpt>
      <trkpt lat="44.18419" lon="6.96847">
        <ele>1842.2632256113</ele>
        <time>2021-11-18T08:39:02Z</time>
      </trkpt>
      <trkpt lat="44.18419" lon="6.96848">
        <ele>1842.2632608153</ele>
        <time>2021-11-18T08:39:03Z</time>
      </trkpt>
      <trkpt lat="44.18417" lon="6.96848">
        <ele>1842.2633025572</ele>
        <time>2021-11-18T08:39:04Z</time>
      </trkpt>
      <trkpt lat="44.18417" lon="6.96849">
        <ele>1842.2633303851</ele>
        <time>2021-11-18T08:39:05Z</time>
      </trkpt>
      <trkpt lat="44.18416" lon="6.96848">
        <ele>1843.2633716241</ele>
        <time>2021-11-18T08:39:06Z</time>
      </trkpt>
      <trkpt lat="44.18416" lon="6.96848">
        <ele>1843.2633716241</ele>
        <time>2021-11-18T08:39:07Z</time>
      </trkpt>
      <trkpt lat="44.18414" lon="6.96848">
        <ele>1843.263430465</ele>
        <time>2021-11-18T08:39:08Z</time>
      </trkpt>
      <trkpt lat="44.18413" lon="6.96849">
        <ele>1844.2634629868</ele>
        <time>2021-11-18T08:39:09Z</time>
      </trkpt>
      <trkpt lat="44.18413" lon="6.9685">
        <ele>1844.2634862885</ele>
        <time>2021-11-18T08:39:10Z</time>
      </trkpt>
      <trkpt lat="44.18412" lon="6.96851">
        <ele>1844.2635121047</ele>
        <time>2021-11-18T08:39:11Z</time>
      </trkpt>
      <trkpt lat="44.18411" lon="6.96852">
        <ele>1844.2635541819</ele>
        <time>2021-11-18T08:39:12Z</time>
      </trkpt>
      <trkpt lat="44.18411" lon="6.96851">
        <ele>1844.2635751367</ele>
        <time>2021-11-18T08:39:13Z</time>
      </trkpt>
      <trkpt lat="44.1841" lon="6.96851">
        <ele>1844.2636038028</ele>
        <time>2021-11-18T08:39:14Z</time>
      </trkpt>
      <trkpt lat="44.18409" lon="6.96851">
        <ele>1844.2636418566</ele>
        <time>2021-11-18T08:39:15Z</time>
      </trkpt>
      <trkpt lat="44.18408" lon="6.96852">
        <ele>1844.2636869512</ele>
        <time>2021-11-18T08:39:16Z</time>
      </trkpt>
      <trkpt lat="44.18407" lon="6.96852">
        <ele>1845.263712097</ele>
        <time>2021-11-18T08:39:19Z</time>
      </trkpt>
      <trkpt lat="44.18406" lon="6.96853">
        <ele>1846.2637752965</ele>
        <time>2021-11-18T08:39:20Z</time>
      </trkpt>
      <trkpt lat="44.18405" lon="6.96852">
        <ele>1846.2637950778</ele>
        <time>2021-11-18T08:39:21Z</time>
      </trkpt>
      <trkpt lat="44.18404" lon="6.96852">
        <ele>1846.2638301142</ele>
        <time>2021-11-18T08:39:22Z</time>
      </trkpt>
      <trkpt lat="44.18403" lon="6.96852">
        <ele>1846.263862133</ele>
        <time>2021-11-18T08:39:25Z</time>
      </trkpt>
      <trkpt lat="44.18402" lon="6.96853">
        <ele>1846.2639328763</ele>
        <time>2021-11-18T08:39:26Z</time>
      </trkpt>
      <trkpt lat="44.18401" lon="6.96853">
        <ele>1845.2639637217</ele>
        <time>2021-11-18T08:39:27Z</time>
      </trkpt>
      <trkpt lat="44.184" lon="6.96853">
        <ele>1845.2640022784</ele>
        <time>2021-11-18T08:39:28Z</time>
      </trkpt>
      <trkpt lat="44.18399" lon="6.96853">
        <ele>1846.264039997</ele>
        <time>2021-11-18T08:39:29Z</time>
      </trkpt>
      <trkpt lat="44.18398" lon="6.96853">
        <ele>1845.2640763745</ele>
        <time>2021-11-18T08:39:30Z</time>
      </trkpt>
      <trkpt lat="44.18397" lon="6.96852">
        <ele>1846.264114093</ele>
        <time>2021-11-18T08:39:31Z</time>
      </trkpt>
      <trkpt lat="44.18396" lon="6.96852">
        <ele>1845.2641427591</ele>
        <time>2021-11-18T08:39:32Z</time>
      </trkpt>
      <trkpt lat="44.18396" lon="6.96852">
        <ele>1845.2641719282</ele>
        <time>2021-11-18T08:39:33Z</time>
      </trkpt>
      <trkpt lat="44.18395" lon="6.96852">
        <ele>1846.264214173</ele>
        <time>2021-11-18T08:39:34Z</time>
      </trkpt>
      <trkpt lat="44.18394" lon="6.96852">
        <ele>1847.2642347924</ele>
        <time>2021-11-18T08:39:35Z</time>
      </trkpt>
      <trkpt lat="44.18393" lon="6.96853">
        <ele>1847.2642824017</ele>
        <time>2021-11-18T08:39:36Z</time>
      </trkpt>
      <trkpt lat="44.18392" lon="6.96853">
        <ele>1847.2643090561</ele>
        <time>2021-11-18T08:39:37Z</time>
      </trkpt>
      <trkpt lat="44.18392" lon="6.96854">
        <ele>1847.2643315196</ele>
        <time>2021-11-18T08:39:38Z</time>
      </trkpt>
      <trkpt lat="44.18391" lon="6.96854">
        <ele>1847.2643719204</ele>
        <time>2021-11-18T08:39:39Z</time>
      </trkpt>
      <trkpt lat="44.18391" lon="6.96854">
        <ele>1847.2643719204</ele>
        <time>2021-11-18T08:39:41Z</time>
      </trkpt>
      <trkpt lat="44.18389" lon="6.96854">
        <ele>1847.2644535601</ele>
        <time>2021-11-18T08:39:42Z</time>
      </trkpt>
      <trkpt lat="44.18388" lon="6.96855">
        <ele>1847.2644974813</ele>
        <time>2021-11-18T08:39:43Z</time>
      </trkpt>
      <trkpt lat="44.18387" lon="6.96855">
        <ele>1847.2645301707</ele>
        <time>2021-11-18T08:39:44Z</time>
      </trkpt>
      <trkpt lat="44.18386" lon="6.96855">
        <ele>1847.2645605132</ele>
        <time>2021-11-18T08:39:45Z</time>
      </trkpt>
      <trkpt lat="44.18385" lon="6.96855">
        <ele>1848.2645973936</ele>
        <time>2021-11-18T08:39:46Z</time>
      </trkpt>
      <trkpt lat="44.18385" lon="6.96856">
        <ele>1848.2646188512</ele>
        <time>2021-11-18T08:39:47Z</time>
      </trkpt>
      <trkpt lat="44.18384" lon="6.96857">
        <ele>1848.2646388002</ele>
        <time>2021-11-18T08:39:48Z</time>
      </trkpt>
      <trkpt lat="44.18383" lon="6.96858">
        <ele>1848.264682889</ele>
        <time>2021-11-18T08:39:49Z</time>
      </trkpt>
      <trkpt lat="44.18382" lon="6.96858">
        <ele>1849.2647117227</ele>
        <time>2021-11-18T08:39:50Z</time>
      </trkpt>
      <trkpt lat="44.18381" lon="6.96858">
        <ele>1849.2647420652</ele>
        <time>2021-11-18T08:39:51Z</time>
      </trkpt>
      <trkpt lat="44.18381" lon="6.96858">
        <ele>1848.2647608407</ele>
        <time>2021-11-18T08:39:52Z</time>
      </trkpt>
      <trkpt lat="44.1838" lon="6.96859">
        <ele>1848.2647851482</ele>
        <time>2021-11-18T08:39:53Z</time>
      </trkpt>
      <trkpt lat="44.1838" lon="6.96858">
        <ele>1848.2648188435</ele>
        <time>2021-11-18T08:39:54Z</time>
      </trkpt>
      <trkpt lat="44.18379" lon="6.96858">
        <ele>1847.2648475096</ele>
        <time>2021-11-18T08:39:55Z</time>
      </trkpt>
      <trkpt lat="44.18378" lon="6.96858">
        <ele>1846.2648964599</ele>
        <time>2021-11-18T08:39:57Z</time>
      </trkpt>
      <trkpt lat="44.18377" lon="6.96858">
        <ele>1845.264930658</ele>
        <time>2021-11-18T08:39:58Z</time>
      </trkpt>
      <trkpt lat="44.18376" lon="6.96859">
        <ele>1845.264954295</ele>
        <time>2021-11-18T08:39:59Z</time>
      </trkpt>
      <trkpt lat="44.18375" lon="6.96859">
        <ele>1845.2649884932</ele>
        <time>2021-11-18T08:40:00Z</time>
      </trkpt>
      <trkpt lat="44.18374" lon="6.96859">
        <ele>1845.2650394551</ele>
        <time>2021-11-18T08:40:01Z</time>
      </trkpt>
      <trkpt lat="44.18373" lon="6.96859">
        <ele>1846.2650754973</ele>
        <time>2021-11-18T08:40:02Z</time>
      </trkpt>
      <trkpt lat="44.18372" lon="6.96859">
        <ele>1846.265112713</ele>
        <time>2021-11-18T08:40:03Z</time>
      </trkpt>
      <trkpt lat="44.18372" lon="6.9686">
        <ele>1846.2651368529</ele>
        <time>2021-11-18T08:40:04Z</time>
      </trkpt>
      <trkpt lat="44.18371" lon="6.96861">
        <ele>1846.2651593164</ele>
        <time>2021-11-18T08:40:05Z</time>
      </trkpt>
      <trkpt lat="44.18371" lon="6.96861">
        <ele>1847.2651732303</ele>
        <time>2021-11-18T08:40:06Z</time>
      </trkpt>
      <trkpt lat="44.1837" lon="6.96862">
        <ele>1847.2651894912</ele>
        <time>2021-11-18T08:40:07Z</time>
      </trkpt>
      <trkpt lat="44.18369" lon="6.96863">
        <ele>1848.2652221806</ele>
        <time>2021-11-18T08:40:10Z</time>
      </trkpt>
      <trkpt lat="44.18368" lon="6.96864">
        <ele>1848.2652904093</ele>
        <time>2021-11-18T08:40:11Z</time>
      </trkpt>
      <trkpt lat="44.18367" lon="6.96864">
        <ele>1848.2653023116</ele>
        <time>2021-11-18T08:40:12Z</time>
      </trkpt>
      <trkpt lat="44.18367" lon="6.96864">
        <ele>1848.2653356716</ele>
        <time>2021-11-18T08:40:13Z</time>
      </trkpt>
      <trkpt lat="44.18366" lon="6.96864">
        <ele>1848.2653599791</ele>
        <time>2021-11-18T08:40:14Z</time>
      </trkpt>
      <trkpt lat="44.18365" lon="6.96864">
        <ele>1848.2653961889</ele>
        <time>2021-11-18T08:40:15Z</time>
      </trkpt>
      <trkpt lat="44.18364" lon="6.96864">
        <ele>1847.2654238492</ele>
        <time>2021-11-18T08:40:16Z</time>
      </trkpt>
      <trkpt lat="44.18364" lon="6.96864">
        <ele>1848.2654478215</ele>
        <time>2021-11-18T08:40:17Z</time>
      </trkpt>
      <trkpt lat="44.18363" lon="6.96863">
        <ele>1849.265475817</ele>
        <time>2021-11-18T08:40:18Z</time>
      </trkpt>
      <trkpt lat="44.18362" lon="6.96863">
        <ele>1849.2655150443</ele>
        <time>2021-11-18T08:40:19Z</time>
      </trkpt>
      <trkpt lat="44.18361" lon="6.96864">
        <ele>1850.2655765675</ele>
        <time>2021-11-18T08:40:21Z</time>
      </trkpt>
      <trkpt lat="44.1836" lon="6.96864">
        <ele>1850.2656033896</ele>
        <time>2021-11-18T08:40:22Z</time>
      </trkpt>
      <trkpt lat="44.18359" lon="6.96865">
        <ele>1851.2656260207</ele>
        <time>2021-11-18T08:40:23Z</time>
      </trkpt>
      <trkpt lat="44.18359" lon="6.96865">
        <ele>1851.2656501606</ele>
        <time>2021-11-18T08:40:24Z</time>
      </trkpt>
      <trkpt lat="44.18357" lon="6.96867">
        <ele>1850.2657255977</ele>
        <time>2021-11-18T08:40:26Z</time>
      </trkpt>
      <trkpt lat="44.18356" lon="6.96868">
        <ele>1850.2657643221</ele>
        <time>2021-11-18T08:40:27Z</time>
      </trkpt>
      <trkpt lat="44.18355" lon="6.96869">
        <ele>1850.2657998614</ele>
        <time>2021-11-18T08:40:28Z</time>
      </trkpt>
      <trkpt lat="44.18354" lon="6.96869">
        <ele>1851.2658452913</ele>
        <time>2021-11-18T08:40:29Z</time>
      </trkpt>
      <trkpt lat="44.18353" lon="6.96869">
        <ele>1851.2658773102</ele>
        <time>2021-11-18T08:40:30Z</time>
      </trkpt>
      <trkpt lat="44.18351" lon="6.9687">
        <ele>1852.2659448683</ele>
        <time>2021-11-18T08:40:32Z</time>
      </trkpt>
      <trkpt lat="44.18351" lon="6.96871">
        <ele>1853.2659748755</ele>
        <time>2021-11-18T08:40:33Z</time>
      </trkpt>
      <trkpt lat="44.1835" lon="6.96872">
        <ele>1853.2660055533</ele>
        <time>2021-11-18T08:40:34Z</time>
      </trkpt>
      <trkpt lat="44.1835" lon="6.96873">
        <ele>1853.2660141028</ele>
        <time>2021-11-18T08:40:35Z</time>
      </trkpt>
      <trkpt lat="44.18349" lon="6.96873">
        <ele>1853.2660424337</ele>
        <time>2021-11-18T08:40:37Z</time>
      </trkpt>
      <trkpt lat="44.18348" lon="6.96874">
        <ele>1853.2660685852</ele>
        <time>2021-11-18T08:40:38Z</time>
      </trkpt>
      <trkpt lat="44.18347" lon="6.96875">
        <ele>1853.2661103271</ele>
        <time>2021-11-18T08:40:39Z</time>
      </trkpt>
      <trkpt lat="44.18346" lon="6.96875">
        <ele>1853.2661760412</ele>
        <time>2021-11-18T08:40:41Z</time>
      </trkpt>
      <trkpt lat="44.18346" lon="6.96875">
        <ele>1853.2661760412</ele>
        <time>2021-11-18T08:40:43Z</time>
      </trkpt>
      <trkpt lat="44.18343" lon="6.96876">
        <ele>1854.2662980817</ele>
        <time>2021-11-18T08:40:45Z</time>
      </trkpt>
      <trkpt lat="44.18341" lon="6.96877">
        <ele>1855.2663622871</ele>
        <time>2021-11-18T08:40:47Z</time>
      </trkpt>
      <trkpt lat="44.1834" lon="6.96877">
        <ele>1855.266394306</ele>
        <time>2021-11-18T08:40:48Z</time>
      </trkpt>
      <trkpt lat="44.1834" lon="6.96878">
        <ele>1855.2664122432</ele>
        <time>2021-11-18T08:40:49Z</time>
      </trkpt>
      <trkpt lat="44.18339" lon="6.9688">
        <ele>1856.2664603554</ele>
        <time>2021-11-18T08:40:51Z</time>
      </trkpt>
      <trkpt lat="44.18338" lon="6.9688">
        <ele>1856.2664890215</ele>
        <time>2021-11-18T08:40:52Z</time>
      </trkpt>
      <trkpt lat="44.18338" lon="6.9688">
        <ele>1856.2664890215</ele>
        <time>2021-11-18T08:40:53Z</time>
      </trkpt>
      <trkpt lat="44.18337" lon="6.96881">
        <ele>1855.2665220462</ele>
        <time>2021-11-18T08:40:55Z</time>
      </trkpt>
      <trkpt lat="44.18337" lon="6.96882">
        <ele>1855.2665378042</ele>
        <time>2021-11-18T08:40:56Z</time>
      </trkpt>
      <trkpt lat="44.18336" lon="6.96882">
        <ele>1855.2665763609</ele>
        <time>2021-11-18T08:40:57Z</time>
      </trkpt>
      <trkpt lat="44.18335" lon="6.96882">
        <ele>1855.2666065358</ele>
        <time>2021-11-18T08:40:58Z</time>
      </trkpt>
      <trkpt lat="44.18333" lon="6.96882">
        <ele>1856.2666678913</ele>
        <time>2021-11-18T08:41:00Z</time>
      </trkpt>
      <trkpt lat="44.18333" lon="6.96882">
        <ele>1857.266699072</ele>
        <time>2021-11-18T08:41:04Z</time>
      </trkpt>
      <trkpt lat="44.1833" lon="6.96884">
        <ele>1858.2668009959</ele>
        <time>2021-11-18T08:41:06Z</time>
      </trkpt>
      <trkpt lat="44.18329" lon="6.96885">
        <ele>1858.2668475993</ele>
        <time>2021-11-18T08:41:07Z</time>
      </trkpt>
      <trkpt lat="44.18328" lon="6.96886">
        <ele>1859.2668752596</ele>
        <time>2021-11-18T08:41:08Z</time>
      </trkpt>
      <trkpt lat="44.18327" lon="6.96887">
        <ele>1859.2669045962</ele>
        <time>2021-11-18T08:41:09Z</time>
      </trkpt>
      <trkpt lat="44.18327" lon="6.96888">
        <ele>1859.2669242099</ele>
        <time>2021-11-18T08:41:10Z</time>
      </trkpt>
      <trkpt lat="44.18326" lon="6.96888">
        <ele>1859.2669475116</ele>
        <time>2021-11-18T08:41:15Z</time>
      </trkpt>
      <trkpt lat="44.18325" lon="6.96889">
        <ele>1858.2670150697</ele>
        <time>2021-11-18T08:41:16Z</time>
      </trkpt>
      <trkpt lat="44.18324" lon="6.9689">
        <ele>1858.2670351863</ele>
        <time>2021-11-18T08:41:17Z</time>
      </trkpt>
      <trkpt lat="44.18324" lon="6.96891">
        <ele>1859.2670581527</ele>
        <time>2021-11-18T08:41:18Z</time>
      </trkpt>
      <trkpt lat="44.18323" lon="6.96892">
        <ele>1859.2670933567</ele>
        <time>2021-11-18T08:41:19Z</time>
      </trkpt>
      <trkpt lat="44.18322" lon="6.96892">
        <ele>1859.267128896</ele>
        <time>2021-11-18T08:41:20Z</time>
      </trkpt>
      <trkpt lat="44.18321" lon="6.96893">
        <ele>1859.267179355</ele>
        <time>2021-11-18T08:41:22Z</time>
      </trkpt>
      <trkpt lat="44.1832" lon="6.96894">
        <ele>1859.2672076859</ele>
        <time>2021-11-18T08:41:23Z</time>
      </trkpt>
      <trkpt lat="44.1832" lon="6.96894">
        <ele>1859.2672133856</ele>
        <time>2021-11-18T08:41:26Z</time>
      </trkpt>
      <trkpt lat="44.18318" lon="6.96895">
        <ele>1860.2672739029</ele>
        <time>2021-11-18T08:41:27Z</time>
      </trkpt>
      <trkpt lat="44.18317" lon="6.96895">
        <ele>1859.26730676</ele>
        <time>2021-11-18T08:41:29Z</time>
      </trkpt>
      <trkpt lat="44.18316" lon="6.96896">
        <ele>1859.2673458196</ele>
        <time>2021-11-18T08:41:31Z</time>
      </trkpt>
      <trkpt lat="44.18316" lon="6.96896">
        <ele>1860.2673652656</ele>
        <time>2021-11-18T08:41:32Z</time>
      </trkpt>
      <trkpt lat="44.18315" lon="6.96897">
        <ele>1859.2673897408</ele>
        <time>2021-11-18T08:41:33Z</time>
      </trkpt>
      <trkpt lat="44.18314" lon="6.96898">
        <ele>1859.2674277946</ele>
        <time>2021-11-18T08:41:34Z</time>
      </trkpt>
      <trkpt lat="44.18313" lon="6.96899">
        <ele>1860.2674749009</ele>
        <time>2021-11-18T08:41:36Z</time>
      </trkpt>
      <trkpt lat="44.18312" lon="6.969">
        <ele>1859.2675049081</ele>
        <time>2021-11-18T08:41:37Z</time>
      </trkpt>
      <trkpt lat="44.18312" lon="6.969">
        <ele>1860.2675287127</ele>
        <time>2021-11-18T08:41:40Z</time>
      </trkpt>
      <trkpt lat="44.18311" lon="6.96903">
        <ele>1861.2675810158</ele>
        <time>2021-11-18T08:41:42Z</time>
      </trkpt>
      <trkpt lat="44.1831" lon="6.96903">
        <ele>1861.2675937563</ele>
        <time>2021-11-18T08:41:43Z</time>
      </trkpt>
      <trkpt lat="44.1831" lon="6.96903">
        <ele>1861.2676180638</ele>
        <time>2021-11-18T08:41:44Z</time>
      </trkpt>
      <trkpt lat="44.18308" lon="6.96904">
        <ele>1861.2676712051</ele>
        <time>2021-11-18T08:41:46Z</time>
      </trkpt>
      <trkpt lat="44.18308" lon="6.96905">
        <ele>1861.2676948421</ele>
        <time>2021-11-18T08:41:47Z</time>
      </trkpt>
      <trkpt lat="44.18307" lon="6.96906">
        <ele>1861.2677134499</ele>
        <time>2021-11-18T08:41:48Z</time>
      </trkpt>
      <trkpt lat="44.18306" lon="6.96907">
        <ele>1862.2677682675</ele>
        <time>2021-11-18T08:41:50Z</time>
      </trkpt>
      <trkpt lat="44.18305" lon="6.96908">
        <ele>1862.2678031363</ele>
        <time>2021-11-18T08:41:52Z</time>
      </trkpt>
      <trkpt lat="44.18304" lon="6.96908">
        <ele>1862.267824091</ele>
        <time>2021-11-18T08:41:54Z</time>
      </trkpt>
      <trkpt lat="44.18303" lon="6.96909">
        <ele>1862.267876897</ele>
        <time>2021-11-18T08:41:56Z</time>
      </trkpt>
      <trkpt lat="44.18303" lon="6.9691">
        <ele>1862.267890811</ele>
        <time>2021-11-18T08:41:57Z</time>
      </trkpt>
      <trkpt lat="44.18302" lon="6.96911">
        <ele>1862.2679214887</ele>
        <time>2021-11-18T08:41:58Z</time>
      </trkpt>
      <trkpt lat="44.18301" lon="6.96911">
        <ele>1862.2679583691</ele>
        <time>2021-11-18T08:41:59Z</time>
      </trkpt>
      <trkpt lat="44.183" lon="6.96911">
        <ele>1863.2680041343</ele>
        <time>2021-11-18T08:42:00Z</time>
      </trkpt>
      <trkpt lat="44.18299" lon="6.96912">
        <ele>1863.2680369914</ele>
        <time>2021-11-18T08:42:01Z</time>
      </trkpt>
      <trkpt lat="44.18298" lon="6.96912">
        <ele>1862.2680621371</ele>
        <time>2021-11-18T08:42:03Z</time>
      </trkpt>
      <trkpt lat="44.18298" lon="6.96912">
        <ele>1861.2680775598</ele>
        <time>2021-11-18T08:42:06Z</time>
      </trkpt>
      <trkpt lat="44.18297" lon="6.96913">
        <ele>1862.2681340538</ele>
        <time>2021-11-18T08:42:08Z</time>
      </trkpt>
      <trkpt lat="44.18296" lon="6.96914">
        <ele>1861.2681504823</ele>
        <time>2021-11-18T08:42:09Z</time>
      </trkpt>
      <trkpt lat="44.18296" lon="6.96914">
        <ele>1861.2681732811</ele>
        <time>2021-11-18T08:42:12Z</time>
      </trkpt>
      <trkpt lat="44.18294" lon="6.96914">
        <ele>1860.2682327926</ele>
        <time>2021-11-18T08:42:13Z</time>
      </trkpt>
      <trkpt lat="44.18294" lon="6.96914">
        <ele>1860.2682495564</ele>
        <time>2021-11-18T08:42:14Z</time>
      </trkpt>
      <trkpt lat="44.18293" lon="6.96915">
        <ele>1861.2682693377</ele>
        <time>2021-11-18T08:42:15Z</time>
      </trkpt>
      <trkpt lat="44.18293" lon="6.96916">
        <ele>1860.2682809047</ele>
        <time>2021-11-18T08:42:18Z</time>
      </trkpt>
      <trkpt lat="44.18292" lon="6.96916">
        <ele>1862.2683154382</ele>
        <time>2021-11-18T08:42:20Z</time>
      </trkpt>
      <trkpt lat="44.18292" lon="6.96915">
        <ele>1862.2683343813</ele>
        <time>2021-11-18T08:42:21Z</time>
      </trkpt>
      <trkpt lat="44.18292" lon="6.96914">
        <ele>1862.268337734</ele>
        <time>2021-11-18T08:42:25Z</time>
      </trkpt>
      <trkpt lat="44.18291" lon="6.96915">
        <ele>1864.2683741115</ele>
        <time>2021-11-18T08:42:26Z</time>
      </trkpt>
      <trkpt lat="44.1829" lon="6.96915">
        <ele>1864.2684054598</ele>
        <time>2021-11-18T08:42:32Z</time>
      </trkpt>
      <trkpt lat="44.18288" lon="6.96916">
        <ele>1864.2684916258</ele>
        <time>2021-11-18T08:42:33Z</time>
      </trkpt>
      <trkpt lat="44.18287" lon="6.96917">
        <ele>1864.2685345411</ele>
        <time>2021-11-18T08:42:34Z</time>
      </trkpt>
      <trkpt lat="44.18286" lon="6.96918">
        <ele>1864.2685637102</ele>
        <time>2021-11-18T08:42:35Z</time>
      </trkpt>
      <trkpt lat="44.18285" lon="6.96918">
        <ele>1864.2685908675</ele>
        <time>2021-11-18T08:42:38Z</time>
      </trkpt>
      <trkpt lat="44.18285" lon="6.96918">
        <ele>1865.2686176896</ele>
        <time>2021-11-18T08:42:39Z</time>
      </trkpt>
      <trkpt lat="44.18284" lon="6.96918">
        <ele>1865.2686440088</ele>
        <time>2021-11-18T08:42:40Z</time>
      </trkpt>
      <trkpt lat="44.18283" lon="6.96918">
        <ele>1865.2686775364</ele>
        <time>2021-11-18T08:42:42Z</time>
      </trkpt>
      <trkpt lat="44.18283" lon="6.96918">
        <ele>1865.2686775364</ele>
        <time>2021-11-18T08:42:45Z</time>
      </trkpt>
      <trkpt lat="44.18281" lon="6.96919">
        <ele>1865.2687593438</ele>
        <time>2021-11-18T08:42:47Z</time>
      </trkpt>
      <trkpt lat="44.1828" lon="6.96919">
        <ele>1866.2687982358</ele>
        <time>2021-11-18T08:42:48Z</time>
      </trkpt>
      <trkpt lat="44.18279" lon="6.96919">
        <ele>1866.2688307576</ele>
        <time>2021-11-18T08:42:50Z</time>
      </trkpt>
      <trkpt lat="44.18278" lon="6.96917">
        <ele>1866.2688872516</ele>
        <time>2021-11-18T08:42:52Z</time>
      </trkpt>
      <trkpt lat="44.18277" lon="6.96916">
        <ele>1866.2689031772</ele>
        <time>2021-11-18T08:42:53Z</time>
      </trkpt>
      <trkpt lat="44.18276" lon="6.96915">
        <ele>1867.2689652033</ele>
        <time>2021-11-18T08:42:55Z</time>
      </trkpt>
      <trkpt lat="44.18276" lon="6.96915">
        <ele>1867.2689652033</ele>
        <time>2021-11-18T08:42:57Z</time>
      </trkpt>
      <trkpt lat="44.18275" lon="6.96915">
        <ele>1867.2690123096</ele>
        <time>2021-11-18T08:42:58Z</time>
      </trkpt>
      <trkpt lat="44.18274" lon="6.96915">
        <ele>1867.2690354437</ele>
        <time>2021-11-18T08:42:59Z</time>
      </trkpt>
      <trkpt lat="44.18273" lon="6.96914">
        <ele>1867.2690733299</ele>
        <time>2021-11-18T08:43:01Z</time>
      </trkpt>
      <trkpt lat="44.18273" lon="6.96914">
        <ele>1867.2690733299</ele>
        <time>2021-11-18T08:43:05Z</time>
      </trkpt>
      <trkpt lat="44.18271" lon="6.96913">
        <ele>1868.2691425644</ele>
        <time>2021-11-18T08:43:06Z</time>
      </trkpt>
      <trkpt lat="44.18271" lon="6.96913">
        <ele>1869.2691678777</ele>
        <time>2021-11-18T08:43:08Z</time>
      </trkpt>
      <trkpt lat="44.1827" lon="6.96913">
        <ele>1869.2691960409</ele>
        <time>2021-11-18T08:43:10Z</time>
      </trkpt>
      <trkpt lat="44.18269" lon="6.96911">
        <ele>1869.2692381181</ele>
        <time>2021-11-18T08:43:12Z</time>
      </trkpt>
      <trkpt lat="44.18269" lon="6.9691">
        <ele>1868.2692448236</ele>
        <time>2021-11-18T08:43:13Z</time>
      </trkpt>
      <trkpt lat="44.18269" lon="6.96909">
        <ele>1869.2692418061</ele>
        <time>2021-11-18T08:43:14Z</time>
      </trkpt>
      <trkpt lat="44.18268" lon="6.96908">
        <ele>1869.269271981</ele>
        <time>2021-11-18T08:43:17Z</time>
      </trkpt>
      <trkpt lat="44.18267" lon="6.96907">
        <ele>1871.2693153992</ele>
        <time>2021-11-18T08:43:18Z</time>
      </trkpt>
      <trkpt lat="44.18267" lon="6.96907">
        <ele>1871.2693408802</ele>
        <time>2021-11-18T08:43:19Z</time>
      </trkpt>
      <trkpt lat="44.18266" lon="6.96906">
        <ele>1871.269377593</ele>
        <time>2021-11-18T08:43:20Z</time>
      </trkpt>
      <trkpt lat="44.18265" lon="6.96906">
        <ele>1871.2694017328</ele>
        <time>2021-11-18T08:43:23Z</time>
      </trkpt>
      <trkpt lat="44.18263" lon="6.96905">
        <ele>1872.2694929279</ele>
        <time>2021-11-18T08:43:24Z</time>
      </trkpt>
      <trkpt lat="44.18262" lon="6.96904">
        <ele>1872.269525785</ele>
        <time>2021-11-18T08:43:25Z</time>
      </trkpt>
      <trkpt lat="44.18261" lon="6.96904">
        <ele>1872.2695536129</ele>
        <time>2021-11-18T08:43:26Z</time>
      </trkpt>
      <trkpt lat="44.18261" lon="6.96903">
        <ele>1873.2695772499</ele>
        <time>2021-11-18T08:43:27Z</time>
      </trkpt>
      <trkpt lat="44.1826" lon="6.96903">
        <ele>1873.2695950195</ele>
        <time>2021-11-18T08:43:28Z</time>
      </trkpt>
      <trkpt lat="44.1826" lon="6.96903">
        <ele>1874.2696181536</ele>
        <time>2021-11-18T08:43:31Z</time>
      </trkpt>
      <trkpt lat="44.18258" lon="6.96902">
        <ele>1874.2696723007</ele>
        <time>2021-11-18T08:43:32Z</time>
      </trkpt>
      <trkpt lat="44.18257" lon="6.96902">
        <ele>1875.2697046548</ele>
        <time>2021-11-18T08:43:33Z</time>
      </trkpt>
      <trkpt lat="44.18257" lon="6.96901">
        <ele>1875.2697405294</ele>
        <time>2021-11-18T08:43:34Z</time>
      </trkpt>
      <trkpt lat="44.18256" lon="6.96902">
        <ele>1875.2697547786</ele>
        <time>2021-11-18T08:43:35Z</time>
      </trkpt>
      <trkpt lat="44.18255" lon="6.96902">
        <ele>1875.2698047347</ele>
        <time>2021-11-18T08:43:37Z</time>
      </trkpt>
      <trkpt lat="44.18254" lon="6.96902">
        <ele>1876.2698255219</ele>
        <time>2021-11-18T08:43:38Z</time>
      </trkpt>
      <trkpt lat="44.18254" lon="6.96902">
        <ele>1876.2698548585</ele>
        <time>2021-11-18T08:43:39Z</time>
      </trkpt>
      <trkpt lat="44.18253" lon="6.96902">
        <ele>1877.2698835246</ele>
        <time>2021-11-18T08:43:40Z</time>
      </trkpt>
      <trkpt lat="44.18252" lon="6.96903">
        <ele>1877.269920405</ele>
        <time>2021-11-18T08:43:41Z</time>
      </trkpt>
      <trkpt lat="44.18252" lon="6.96903">
        <ele>1877.2699386775</ele>
        <time>2021-11-18T08:43:43Z</time>
      </trkpt>
      <trkpt lat="44.1825" lon="6.96903">
        <ele>1877.2700017095</ele>
        <time>2021-11-18T08:43:44Z</time>
      </trkpt>
      <trkpt lat="44.18249" lon="6.96904">
        <ele>1878.2700521685</ele>
        <time>2021-11-18T08:43:45Z</time>
      </trkpt>
      <trkpt lat="44.18247" lon="6.96904">
        <ele>1880.2701153681</ele>
        <time>2021-11-18T08:43:47Z</time>
      </trkpt>
      <trkpt lat="44.18247" lon="6.96904">
        <ele>1880.2701388374</ele>
        <time>2021-11-18T08:43:48Z</time>
      </trkpt>
      <trkpt lat="44.18246" lon="6.96904">
        <ele>1880.2701639831</ele>
        <time>2021-11-18T08:43:49Z</time>
      </trkpt>
      <trkpt lat="44.18245" lon="6.96904">
        <ele>1880.270188123</ele>
        <time>2021-11-18T08:43:50Z</time>
      </trkpt>
      <trkpt lat="44.18244" lon="6.96905">
        <ele>1880.2702588663</ele>
        <time>2021-11-18T08:43:52Z</time>
      </trkpt>
      <trkpt lat="44.18243" lon="6.96906">
        <ele>1880.2702804916</ele>
        <time>2021-11-18T08:43:53Z</time>
      </trkpt>
      <trkpt lat="44.18242" lon="6.96906">
        <ele>1880.2703151926</ele>
        <time>2021-11-18T08:43:54Z</time>
      </trkpt>
      <trkpt lat="44.18241" lon="6.96907">
        <ele>1880.2703809068</ele>
        <time>2021-11-18T08:43:56Z</time>
      </trkpt>
      <trkpt lat="44.1824" lon="6.96908">
        <ele>1879.2704107463</ele>
        <time>2021-11-18T08:43:57Z</time>
      </trkpt>
      <trkpt lat="44.18239" lon="6.96908">
        <ele>1879.2704342157</ele>
        <time>2021-11-18T08:43:58Z</time>
      </trkpt>
      <trkpt lat="44.18238" lon="6.96909">
        <ele>1879.2704878598</ele>
        <time>2021-11-18T08:44:00Z</time>
      </trkpt>
      <trkpt lat="44.18237" lon="6.96909">
        <ele>1879.270531781</ele>
        <time>2021-11-18T08:44:01Z</time>
      </trkpt>
      <trkpt lat="44.18236" lon="6.96909">
        <ele>1879.2705741934</ele>
        <time>2021-11-18T08:44:02Z</time>
      </trkpt>
      <trkpt lat="44.18235" lon="6.96909">
        <ele>1878.2706201263</ele>
        <time>2021-11-18T08:44:03Z</time>
      </trkpt>
      <trkpt lat="44.18234" lon="6.96909">
        <ele>1879.2706546597</ele>
        <time>2021-11-18T08:44:05Z</time>
      </trkpt>
      <trkpt lat="44.18232" lon="6.9691">
        <ele>1878.270717524</ele>
        <time>2021-11-18T08:44:07Z</time>
      </trkpt>
      <trkpt lat="44.18232" lon="6.9691">
        <ele>1878.2707396522</ele>
        <time>2021-11-18T08:44:08Z</time>
      </trkpt>
      <trkpt lat="44.18231" lon="6.9691">
        <ele>1878.2707637921</ele>
        <time>2021-11-18T08:44:13Z</time>
      </trkpt>
      <trkpt lat="44.1823" lon="6.9691">
        <ele>1877.2708196156</ele>
        <time>2021-11-18T08:44:14Z</time>
      </trkpt>
      <trkpt lat="44.18229" lon="6.9691">
        <ele>1877.2708534785</ele>
        <time>2021-11-18T08:44:15Z</time>
      </trkpt>
      <trkpt lat="44.18228" lon="6.9691">
        <ele>1877.2708839886</ele>
        <time>2021-11-18T08:44:16Z</time>
      </trkpt>
      <trkpt lat="44.18227" lon="6.96911">
        <ele>1877.2709155045</ele>
        <time>2021-11-18T08:44:17Z</time>
      </trkpt>
      <trkpt lat="44.18226" lon="6.96911">
        <ele>1877.2709535584</ele>
        <time>2021-11-18T08:44:18Z</time>
      </trkpt>
      <trkpt lat="44.18225" lon="6.96912">
        <ele>1877.2709979825</ele>
        <time>2021-11-18T08:44:19Z</time>
      </trkpt>
      <trkpt lat="44.18224" lon="6.96912">
        <ele>1877.2710360363</ele>
        <time>2021-11-18T08:44:20Z</time>
      </trkpt>
      <trkpt lat="44.18223" lon="6.96913">
        <ele>1877.2710702345</ele>
        <time>2021-11-18T08:44:22Z</time>
      </trkpt>
      <trkpt lat="44.18223" lon="6.96913">
        <ele>1877.2710702345</ele>
        <time>2021-11-18T08:44:24Z</time>
      </trkpt>
      <trkpt lat="44.18221" lon="6.96913">
        <ele>1877.2711677998</ele>
        <time>2021-11-18T08:44:26Z</time>
      </trkpt>
      <trkpt lat="44.1822" lon="6.96912">
        <ele>1877.2711979747</ele>
        <time>2021-11-18T08:44:33Z</time>
      </trkpt>
      <trkpt lat="44.18218" lon="6.96912">
        <ele>1878.2712769322</ele>
        <time>2021-11-18T08:44:34Z</time>
      </trkpt>
      <trkpt lat="44.18217" lon="6.96911">
        <ele>1878.2713092864</ele>
        <time>2021-11-18T08:44:35Z</time>
      </trkpt>
      <trkpt lat="44.18217" lon="6.96912">
        <ele>1878.271340467</ele>
        <time>2021-11-18T08:44:36Z</time>
      </trkpt>
      <trkpt lat="44.18216" lon="6.96911">
        <ele>1878.271373827</ele>
        <time>2021-11-18T08:44:38Z</time>
      </trkpt>
      <trkpt lat="44.18215" lon="6.96911">
        <ele>1878.2714040019</ele>
        <time>2021-11-18T08:44:39Z</time>
      </trkpt>
      <trkpt lat="44.18214" lon="6.96911">
        <ele>1878.271440044</ele>
        <time>2021-11-18T08:44:40Z</time>
      </trkpt>
      <trkpt lat="44.18213" lon="6.96912">
        <ele>1879.2714900002</ele>
        <time>2021-11-18T08:44:42Z</time>
      </trkpt>
      <trkpt lat="44.18212" lon="6.96912">
        <ele>1880.2715213485</ele>
        <time>2021-11-18T08:44:46Z</time>
      </trkpt>
      <trkpt lat="44.18211" lon="6.96913">
        <ele>1880.2715736516</ele>
        <time>2021-11-18T08:44:47Z</time>
      </trkpt>
      <trkpt lat="44.1821" lon="6.96913">
        <ele>1880.2715952769</ele>
        <time>2021-11-18T08:44:49Z</time>
      </trkpt>
      <trkpt lat="44.1821" lon="6.96914">
        <ele>1880.2716172375</ele>
        <time>2021-11-18T08:44:52Z</time>
      </trkpt>
      <trkpt lat="44.18208" lon="6.96914">
        <ele>1881.2716824487</ele>
        <time>2021-11-18T08:44:53Z</time>
      </trkpt>
      <trkpt lat="44.18207" lon="6.96914">
        <ele>1882.2717255317</ele>
        <time>2021-11-18T08:44:55Z</time>
      </trkpt>
      <trkpt lat="44.18206" lon="6.96915">
        <ele>1882.2717443071</ele>
        <time>2021-11-18T08:44:58Z</time>
      </trkpt>
      <trkpt lat="44.18205" lon="6.96915">
        <ele>1882.2717992924</ele>
        <time>2021-11-18T08:44:59Z</time>
      </trkpt>
      <trkpt lat="44.18204" lon="6.96916">
        <ele>1882.2718274556</ele>
        <time>2021-11-18T08:45:01Z</time>
      </trkpt>
      <trkpt lat="44.18204" lon="6.96916">
        <ele>1883.2718507573</ele>
        <time>2021-11-18T08:45:03Z</time>
      </trkpt>
      <trkpt lat="44.18203" lon="6.96916">
        <ele>1882.2718676887</ele>
        <time>2021-11-18T08:45:05Z</time>
      </trkpt>
      <trkpt lat="44.18204" lon="6.96919">
        <ele>1882.2718611509</ele>
        <time>2021-11-18T08:45:07Z</time>
      </trkpt>
      <trkpt lat="44.18204" lon="6.9692">
        <ele>1882.2718594745</ele>
        <time>2021-11-18T08:45:08Z</time>
      </trkpt>
      <trkpt lat="44.18204" lon="6.96921">
        <ele>1881.2718589716</ele>
        <time>2021-11-18T08:45:09Z</time>
      </trkpt>
      <trkpt lat="44.18204" lon="6.96922">
        <ele>1881.2718604803</ele>
        <time>2021-11-18T08:45:10Z</time>
      </trkpt>
      <trkpt lat="44.18203" lon="6.96923">
        <ele>1882.2718683593</ele>
        <time>2021-11-18T08:45:11Z</time>
      </trkpt>
      <trkpt lat="44.18203" lon="6.96923">
        <ele>1881.2718730532</ele>
        <time>2021-11-18T08:45:15Z</time>
      </trkpt>
      <trkpt lat="44.18203" lon="6.96926">
        <ele>1882.2718878053</ele>
        <time>2021-11-18T08:45:17Z</time>
      </trkpt>
      <trkpt lat="44.18203" lon="6.96926">
        <ele>1882.2718958519</ele>
        <time>2021-11-18T08:45:18Z</time>
      </trkpt>
      <trkpt lat="44.18203" lon="6.96927">
        <ele>1883.2718834467</ele>
        <time>2021-11-18T08:45:19Z</time>
      </trkpt>
      <trkpt lat="44.18203" lon="6.96928">
        <ele>1883.2718752325</ele>
        <time>2021-11-18T08:45:20Z</time>
      </trkpt>
      <trkpt lat="44.18203" lon="6.96929">
        <ele>1883.271869868</ele>
        <time>2021-11-18T08:45:23Z</time>
      </trkpt>
      <trkpt lat="44.18205" lon="6.96929">
        <ele>1883.2718210854</ele>
        <time>2021-11-18T08:45:24Z</time>
      </trkpt>
      <trkpt lat="44.18205" lon="6.9693">
        <ele>1883.2717971131</ele>
        <time>2021-11-18T08:45:25Z</time>
      </trkpt>
      <trkpt lat="44.18206" lon="6.96931">
        <ele>1884.2717808522</ele>
        <time>2021-11-18T08:45:29Z</time>
      </trkpt>
      <trkpt lat="44.18207" lon="6.96931">
        <ele>1883.2717230171</ele>
        <time>2021-11-18T08:45:30Z</time>
      </trkpt>
      <trkpt lat="44.18208" lon="6.96931">
        <ele>1882.271700386</ele>
        <time>2021-11-18T08:45:31Z</time>
      </trkpt>
      <trkpt lat="44.18209" lon="6.96931">
        <ele>1882.2716613263</ele>
        <time>2021-11-18T08:45:32Z</time>
      </trkpt>
      <trkpt lat="44.18209" lon="6.96931">
        <ele>1882.2716459036</ele>
        <time>2021-11-18T08:45:34Z</time>
      </trkpt>
      <trkpt lat="44.1821" lon="6.96931">
        <ele>1881.2716023177</ele>
        <time>2021-11-18T08:45:35Z</time>
      </trkpt>
      <trkpt lat="44.18211" lon="6.96931">
        <ele>1881.2715681195</ele>
        <time>2021-11-18T08:45:36Z</time>
      </trkpt>
      <trkpt lat="44.18212" lon="6.96931">
        <ele>1881.2715376094</ele>
        <time>2021-11-18T08:45:37Z</time>
      </trkpt>
      <trkpt lat="44.18212" lon="6.96932">
        <ele>1881.2715099491</ele>
        <time>2021-11-18T08:45:41Z</time>
      </trkpt>
      <trkpt lat="44.18214" lon="6.96933">
        <ele>1882.2714413851</ele>
        <time>2021-11-18T08:45:42Z</time>
      </trkpt>
      <trkpt lat="44.18215" lon="6.96933">
        <ele>1882.2714013197</ele>
        <time>2021-11-18T08:45:43Z</time>
      </trkpt>
      <trkpt lat="44.18216" lon="6.96933">
        <ele>1882.2713681273</ele>
        <time>2021-11-18T08:45:44Z</time>
      </trkpt>
      <trkpt lat="44.18217" lon="6.96933">
        <ele>1883.2713030837</ele>
        <time>2021-11-18T08:45:46Z</time>
      </trkpt>
      <trkpt lat="44.18218" lon="6.96934">
        <ele>1884.2713019103</ele>
        <time>2021-11-18T08:45:47Z</time>
      </trkpt>
      <trkpt lat="44.18217" lon="6.96935">
        <ele>1883.2713163272</ele>
        <time>2021-11-18T08:45:48Z</time>
      </trkpt>
      <trkpt lat="44.18217" lon="6.96936">
        <ele>1884.2713297382</ele>
        <time>2021-11-18T08:45:49Z</time>
      </trkpt>
      <trkpt lat="44.18216" lon="6.96936">
        <ele>1884.2713585719</ele>
        <time>2021-11-18T08:45:50Z</time>
      </trkpt>
      <trkpt lat="44.18216" lon="6.96937">
        <ele>1886.2713614218</ele>
        <time>2021-11-18T08:45:53Z</time>
      </trkpt>
      <trkpt lat="44.18215" lon="6.96938">
        <ele>1886.2713828795</ele>
        <time>2021-11-18T08:45:55Z</time>
      </trkpt>
      <trkpt lat="44.18214" lon="6.96939">
        <ele>1887.2714311592</ele>
        <time>2021-11-18T08:45:57Z</time>
      </trkpt>
      <trkpt lat="44.18214" lon="6.96939">
        <ele>1888.271461837</ele>
        <time>2021-11-18T08:45:58Z</time>
      </trkpt>
      <trkpt lat="44.18213" lon="6.96939">
        <ele>1888.2714920118</ele>
        <time>2021-11-18T08:45:59Z</time>
      </trkpt>
      <trkpt lat="44.18212" lon="6.9694">
        <ele>1889.271510452</ele>
        <time>2021-11-18T08:46:00Z</time>
      </trkpt>
      <trkpt lat="44.18211" lon="6.9694">
        <ele>1889.2715578936</ele>
        <time>2021-11-18T08:46:02Z</time>
      </trkpt>
      <trkpt lat="44.18211" lon="6.9694">
        <ele>1890.2715806924</ele>
        <time>2021-11-18T08:46:03Z</time>
      </trkpt>
      <trkpt lat="44.1821" lon="6.96941">
        <ele>1889.2715957798</ele>
        <time>2021-11-18T08:46:06Z</time>
      </trkpt>
      <trkpt lat="44.18208" lon="6.96943">
        <ele>1890.2716745697</ele>
        <time>2021-11-18T08:46:08Z</time>
      </trkpt>
      <trkpt lat="44.18207" lon="6.96944">
        <ele>1890.2717023976</ele>
        <time>2021-11-18T08:46:09Z</time>
      </trkpt>
      <trkpt lat="44.18207" lon="6.96944">
        <ele>1890.2717320696</ele>
        <time>2021-11-18T08:46:10Z</time>
      </trkpt>
      <trkpt lat="44.18205" lon="6.96944">
        <ele>1890.2718049921</ele>
        <time>2021-11-18T08:46:12Z</time>
      </trkpt>
      <trkpt lat="44.18204" lon="6.96944">
        <ele>1890.2718380168</ele>
        <time>2021-11-18T08:46:13Z</time>
      </trkpt>
      <trkpt lat="44.18203" lon="6.96945">
        <ele>1891.2718651742</ele>
        <time>2021-11-18T08:46:16Z</time>
      </trkpt>
      <trkpt lat="44.18202" lon="6.96946">
        <ele>1891.2719278708</ele>
        <time>2021-11-18T08:46:18Z</time>
      </trkpt>
      <trkpt lat="44.18201" lon="6.96947">
        <ele>1891.2719439641</ele>
        <time>2021-11-18T08:46:19Z</time>
      </trkpt>
      <trkpt lat="44.18201" lon="6.96948">
        <ele>1891.2719644159</ele>
        <time>2021-11-18T08:46:22Z</time>
      </trkpt>
      <trkpt lat="44.182" lon="6.96947">
        <ele>1892.2720068283</ele>
        <time>2021-11-18T08:46:23Z</time>
      </trkpt>
      <trkpt lat="44.18199" lon="6.96946">
        <ele>1892.2720306329</ele>
        <time>2021-11-18T08:46:24Z</time>
      </trkpt>
      <trkpt lat="44.18199" lon="6.96947">
        <ele>1892.2720587961</ele>
        <time>2021-11-18T08:46:28Z</time>
      </trkpt>
      <trkpt lat="44.18197" lon="6.96947">
        <ele>1893.2721255161</ele>
        <time>2021-11-18T08:46:29Z</time>
      </trkpt>
      <trkpt lat="44.18196" lon="6.96947">
        <ele>1893.2721595466</ele>
        <time>2021-11-18T08:46:31Z</time>
      </trkpt>
      <trkpt lat="44.18196" lon="6.96948">
        <ele>1893.2721784897</ele>
        <time>2021-11-18T08:46:32Z</time>
      </trkpt>
      <trkpt lat="44.18195" lon="6.96948">
        <ele>1893.2721996121</ele>
        <time>2021-11-18T08:46:33Z</time>
      </trkpt>
      <trkpt lat="44.18195" lon="6.96949">
        <ele>1894.2721952535</ele>
        <time>2021-11-18T08:46:39Z</time>
      </trkpt>
      <trkpt lat="44.18195" lon="6.96953">
        <ele>1893.2722026296</ele>
        <time>2021-11-18T08:46:40Z</time>
      </trkpt>
      <trkpt lat="44.18195" lon="6.96954">
        <ele>1893.2721989416</ele>
        <time>2021-11-18T08:46:45Z</time>
      </trkpt>
      <trkpt lat="44.18195" lon="6.96956">
        <ele>1894.2722034678</ele>
        <time>2021-11-18T08:46:46Z</time>
      </trkpt>
      <trkpt lat="44.18195" lon="6.96957">
        <ele>1894.272192236</ele>
        <time>2021-11-18T08:46:47Z</time>
      </trkpt>
      <trkpt lat="44.18196" lon="6.96958">
        <ele>1894.2721815072</ele>
        <time>2021-11-18T08:46:51Z</time>
      </trkpt>
      <trkpt lat="44.18196" lon="6.9696">
        <ele>1895.2721761428</ele>
        <time>2021-11-18T08:46:52Z</time>
      </trkpt>
      <trkpt lat="44.18195" lon="6.9696">
        <ele>1895.2721915655</ele>
        <time>2021-11-18T08:47:03Z</time>
      </trkpt>
      <trkpt lat="44.18192" lon="6.96962">
        <ele>1897.2723186351</ele>
        <time>2021-11-18T08:47:04Z</time>
      </trkpt>
      <trkpt lat="44.18191" lon="6.96962">
        <ele>1897.2723667473</ele>
        <time>2021-11-18T08:47:06Z</time>
      </trkpt>
      <trkpt lat="44.1819" lon="6.96962">
        <ele>1898.2723977603</ele>
        <time>2021-11-18T08:47:08Z</time>
      </trkpt>
      <trkpt lat="44.1819" lon="6.96962">
        <ele>1899.2724207267</ele>
        <time>2021-11-18T08:47:10Z</time>
      </trkpt>
      <trkpt lat="44.18189" lon="6.96963">
        <ele>1899.2724503987</ele>
        <time>2021-11-18T08:47:13Z</time>
      </trkpt>
      <trkpt lat="44.18188" lon="6.96963">
        <ele>1899.2724748738</ele>
        <time>2021-11-18T08:47:14Z</time>
      </trkpt>
      <trkpt lat="44.18188" lon="6.96964">
        <ele>1899.2725010253</ele>
        <time>2021-11-18T08:47:15Z</time>
      </trkpt>
      <trkpt lat="44.18187" lon="6.96965">
        <ele>1900.2725347206</ele>
        <time>2021-11-18T08:47:17Z</time>
      </trkpt>
      <trkpt lat="44.18186" lon="6.96965">
        <ele>1900.2725523226</ele>
        <time>2021-11-18T08:47:18Z</time>
      </trkpt>
      <trkpt lat="44.18185" lon="6.96965">
        <ele>1900.2725833356</ele>
        <time>2021-11-18T08:47:19Z</time>
      </trkpt>
      <trkpt lat="44.18184" lon="6.96966">
        <ele>1900.2726255804</ele>
        <time>2021-11-18T08:47:21Z</time>
      </trkpt>
      <trkpt lat="44.18184" lon="6.96966">
        <ele>1900.2726460323</ele>
        <time>2021-11-18T08:47:24Z</time>
      </trkpt>
      <trkpt lat="44.18182" lon="6.96965">
        <ele>1901.2727368921</ele>
        <time>2021-11-18T08:47:26Z</time>
      </trkpt>
      <trkpt lat="44.18181" lon="6.96965">
        <ele>1901.272751309</ele>
        <time>2021-11-18T08:47:27Z</time>
      </trkpt>
      <trkpt lat="44.18181" lon="6.96966">
        <ele>1901.2727741078</ele>
        <time>2021-11-18T08:47:28Z</time>
      </trkpt>
      <trkpt lat="44.1818" lon="6.96966">
        <ele>1900.2727910392</ele>
        <time>2021-11-18T08:47:29Z</time>
      </trkpt>
      <trkpt lat="44.1818" lon="6.96966">
        <ele>1901.2728180289</ele>
        <time>2021-11-18T08:47:30Z</time>
      </trkpt>
      <trkpt lat="44.18179" lon="6.96967">
        <ele>1901.2728287578</ele>
        <time>2021-11-18T08:47:31Z</time>
      </trkpt>
      <trkpt lat="44.18179" lon="6.96967">
        <ele>1901.2728513889</ele>
        <time>2021-11-18T08:47:33Z</time>
      </trkpt>
      <trkpt lat="44.18177" lon="6.96966">
        <ele>1900.2729301788</ele>
        <time>2021-11-18T08:47:35Z</time>
      </trkpt>
      <trkpt lat="44.18176" lon="6.96967">
        <ele>1900.2729447633</ele>
        <time>2021-11-18T08:47:36Z</time>
      </trkpt>
      <trkpt lat="44.18176" lon="6.96967">
        <ele>1901.2729714178</ele>
        <time>2021-11-18T08:47:37Z</time>
      </trkpt>
      <trkpt lat="44.18175" lon="6.96966">
        <ele>1901.273006957</ele>
        <time>2021-11-18T08:47:38Z</time>
      </trkpt>
      <trkpt lat="44.18175" lon="6.96966">
        <ele>1901.273006957</ele>
        <time>2021-11-18T08:47:40Z</time>
      </trkpt>
      <trkpt lat="44.18173" lon="6.96966">
        <ele>1901.2730663009</ele>
        <time>2021-11-18T08:47:41Z</time>
      </trkpt>
      <trkpt lat="44.18173" lon="6.96967">
        <ele>1902.2730807178</ele>
        <time>2021-11-18T08:47:42Z</time>
      </trkpt>
      <trkpt lat="44.18173" lon="6.96968">
        <ele>1902.2730892673</ele>
        <time>2021-11-18T08:47:46Z</time>
      </trkpt>
      <trkpt lat="44.18172" lon="6.96969">
        <ele>1903.2731373794</ele>
        <time>2021-11-18T08:47:47Z</time>
      </trkpt>
      <trkpt lat="44.18171" lon="6.9697">
        <ele>1903.2731647044</ele>
        <time>2021-11-18T08:47:48Z</time>
      </trkpt>
      <trkpt lat="44.1817" lon="6.9697">
        <ele>1903.2731916942</ele>
        <time>2021-11-18T08:47:49Z</time>
      </trkpt>
      <trkpt lat="44.1817" lon="6.96971">
        <ele>1903.2732056081</ele>
        <time>2021-11-18T08:47:52Z</time>
      </trkpt>
      <trkpt lat="44.18169" lon="6.96973">
        <ele>1903.2732354477</ele>
        <time>2021-11-18T08:47:53Z</time>
      </trkpt>
      <trkpt lat="44.18169" lon="6.96974">
        <ele>1903.2732377946</ele>
        <time>2021-11-18T08:47:54Z</time>
      </trkpt>
      <trkpt lat="44.18169" lon="6.96975">
        <ele>1904.2732230425</ele>
        <time>2021-11-18T08:47:55Z</time>
      </trkpt>
      <trkpt lat="44.18169" lon="6.96977">
        <ele>1904.2732292451</ele>
        <time>2021-11-18T08:47:56Z</time>
      </trkpt>
      <trkpt lat="44.18169" lon="6.96977">
        <ele>1904.2732518762</ele>
        <time>2021-11-18T08:47:57Z</time>
      </trkpt>
      <trkpt lat="44.18168" lon="6.96978">
        <ele>1905.2732813805</ele>
        <time>2021-11-18T08:47:58Z</time>
      </trkpt>
      <trkpt lat="44.18167" lon="6.96978">
        <ele>1905.2733071968</ele>
        <time>2021-11-18T08:47:59Z</time>
      </trkpt>
      <trkpt lat="44.18167" lon="6.96979">
        <ele>1905.2733351924</ele>
        <time>2021-11-18T08:48:00Z</time>
      </trkpt>
      <trkpt lat="44.18166" lon="6.96979">
        <ele>1905.2733459212</ele>
        <time>2021-11-18T08:48:01Z</time>
      </trkpt>
      <trkpt lat="44.18166" lon="6.9698">
        <ele>1905.2733588293</ele>
        <time>2021-11-18T08:48:02Z</time>
      </trkpt>
      <trkpt lat="44.18165" lon="6.9698">
        <ele>1905.2733928598</ele>
        <time>2021-11-18T08:48:03Z</time>
      </trkpt>
      <trkpt lat="44.18165" lon="6.96981">
        <ele>1905.2734148204</ele>
        <time>2021-11-18T08:48:04Z</time>
      </trkpt>
      <trkpt lat="44.18164" lon="6.96981">
        <ele>1905.2734434865</ele>
        <time>2021-11-18T08:48:05Z</time>
      </trkpt>
      <trkpt lat="44.18163" lon="6.96981">
        <ele>1906.2734741643</ele>
        <time>2021-11-18T08:48:06Z</time>
      </trkpt>
      <trkpt lat="44.18163" lon="6.96982">
        <ele>1906.2734976336</ele>
        <time>2021-11-18T08:48:07Z</time>
      </trkpt>
      <trkpt lat="44.18162" lon="6.96983">
        <ele>1906.2735137269</ele>
        <time>2021-11-18T08:48:08Z</time>
      </trkpt>
      <trkpt lat="44.18161" lon="6.96984">
        <ele>1906.2735439017</ele>
        <time>2021-11-18T08:48:09Z</time>
      </trkpt>
      <trkpt lat="44.1816" lon="6.96984">
        <ele>1907.27358732</ele>
        <time>2021-11-18T08:48:10Z</time>
      </trkpt>
      <trkpt lat="44.1816" lon="6.96985">
        <ele>1907.2736121304</ele>
        <time>2021-11-18T08:48:11Z</time>
      </trkpt>
      <trkpt lat="44.1816" lon="6.96986">
        <ele>1907.2736198418</ele>
        <time>2021-11-18T08:48:12Z</time>
      </trkpt>
      <trkpt lat="44.18159" lon="6.96986">
        <ele>1907.2736334205</ele>
        <time>2021-11-18T08:48:13Z</time>
      </trkpt>
      <trkpt lat="44.18159" lon="6.96987">
        <ele>1907.2736444846</ele>
        <time>2021-11-18T08:48:14Z</time>
      </trkpt>
      <trkpt lat="44.18158" lon="6.96988">
        <ele>1906.2736664452</ele>
        <time>2021-11-18T08:48:15Z</time>
      </trkpt>
      <trkpt lat="44.18158" lon="6.96989">
        <ele>1906.273673486</ele>
        <time>2021-11-18T08:48:16Z</time>
      </trkpt>
      <trkpt lat="44.18157" lon="6.9699">
        <ele>1906.2737043314</ele>
        <time>2021-11-18T08:48:17Z</time>
      </trkpt>
      <trkpt lat="44.18157" lon="6.9699">
        <ele>1907.2737291418</ele>
        <time>2021-11-18T08:48:18Z</time>
      </trkpt>
      <trkpt lat="44.18156" lon="6.96992">
        <ele>1907.2737812772</ele>
        <time>2021-11-18T08:48:20Z</time>
      </trkpt>
      <trkpt lat="44.18155" lon="6.96993">
        <ele>1907.2737956941</ele>
        <time>2021-11-18T08:48:21Z</time>
      </trkpt>
      <trkpt lat="44.18155" lon="6.96995">
        <ele>1907.2738074288</ele>
        <time>2021-11-18T08:48:22Z</time>
      </trkpt>
      <trkpt lat="44.18155" lon="6.96996">
        <ele>1908.2738206722</ele>
        <time>2021-11-18T08:48:23Z</time>
      </trkpt>
      <trkpt lat="44.18154" lon="6.96996">
        <ele>1908.2738441415</ele>
        <time>2021-11-18T08:48:24Z</time>
      </trkpt>
      <trkpt lat="44.18154" lon="6.96997">
        <ele>1909.273855038</ele>
        <time>2021-11-18T08:48:25Z</time>
      </trkpt>
      <trkpt lat="44.18154" lon="6.96998">
        <ele>1909.2738614082</ele>
        <time>2021-11-18T08:48:26Z</time>
      </trkpt>
      <trkpt lat="44.18154" lon="6.96999">
        <ele>1909.2738617435</ele>
        <time>2021-11-18T08:48:27Z</time>
      </trkpt>
      <trkpt lat="44.18153" lon="6.97">
        <ele>1910.2738736458</ele>
        <time>2021-11-18T08:48:35Z</time>
      </trkpt>
      <trkpt lat="44.18152" lon="6.97002">
        <ele>1910.2739098556</ele>
        <time>2021-11-18T08:48:36Z</time>
      </trkpt>
      <trkpt lat="44.18152" lon="6.97003">
        <ele>1910.2739234343</ele>
        <time>2021-11-18T08:48:37Z</time>
      </trkpt>
      <trkpt lat="44.18152" lon="6.97004">
        <ele>1910.2739408687</ele>
        <time>2021-11-18T08:48:38Z</time>
      </trkpt>
      <trkpt lat="44.18151" lon="6.97004">
        <ele>1910.2739618234</ele>
        <time>2021-11-18T08:48:40Z</time>
      </trkpt>
      <trkpt lat="44.1815" lon="6.97007">
        <ele>1911.2740023918</ele>
        <time>2021-11-18T08:48:42Z</time>
      </trkpt>
      <trkpt lat="44.1815" lon="6.97008">
        <ele>1911.2740203291</ele>
        <time>2021-11-18T08:48:43Z</time>
      </trkpt>
      <trkpt lat="44.18149" lon="6.97009">
        <ele>1911.2740543596</ele>
        <time>2021-11-18T08:48:44Z</time>
      </trkpt>
      <trkpt lat="44.18148" lon="6.9701">
        <ele>1910.274079673</ele>
        <time>2021-11-18T08:48:45Z</time>
      </trkpt>
      <trkpt lat="44.18147" lon="6.97011">
        <ele>1910.2741158828</ele>
        <time>2021-11-18T08:48:46Z</time>
      </trkpt>
      <trkpt lat="44.18147" lon="6.97012">
        <ele>1911.2741284557</ele>
        <time>2021-11-18T08:48:47Z</time>
      </trkpt>
      <trkpt lat="44.18146" lon="6.97014">
        <ele>1911.2741445489</ele>
        <time>2021-11-18T08:48:48Z</time>
      </trkpt>
      <trkpt lat="44.18146" lon="6.97014">
        <ele>1912.2741619833</ele>
        <time>2021-11-18T08:48:49Z</time>
      </trkpt>
      <trkpt lat="44.18146" lon="6.97015">
        <ele>1912.2741742209</ele>
        <time>2021-11-18T08:48:50Z</time>
      </trkpt>
      <trkpt lat="44.18146" lon="6.97016">
        <ele>1912.2741758972</ele>
        <time>2021-11-18T08:48:51Z</time>
      </trkpt>
      <trkpt lat="44.18145" lon="6.97017">
        <ele>1912.2741851173</ele>
        <time>2021-11-18T08:48:52Z</time>
      </trkpt>
      <trkpt lat="44.18145" lon="6.97018">
        <ele>1912.2741973549</ele>
        <time>2021-11-18T08:48:53Z</time>
      </trkpt>
      <trkpt lat="44.18145" lon="6.97018">
        <ele>1913.2742164657</ele>
        <time>2021-11-18T08:48:54Z</time>
      </trkpt>
      <trkpt lat="44.18144" lon="6.97019">
        <ele>1913.2742315531</ele>
        <time>2021-11-18T08:48:55Z</time>
      </trkpt>
      <trkpt lat="44.18144" lon="6.9702">
        <ele>1912.2742588781</ele>
        <time>2021-11-18T08:48:57Z</time>
      </trkpt>
      <trkpt lat="44.18143" lon="6.97021">
        <ele>1912.2742635719</ele>
        <time>2021-11-18T08:48:58Z</time>
      </trkpt>
      <trkpt lat="44.18143" lon="6.97022">
        <ele>1912.274294585</ele>
        <time>2021-11-18T08:48:59Z</time>
      </trkpt>
      <trkpt lat="44.18142" lon="6.97024">
        <ele>1912.2743105106</ele>
        <time>2021-11-18T08:49:00Z</time>
      </trkpt>
      <trkpt lat="44.18141" lon="6.97026">
        <ele>1913.2743438706</ele>
        <time>2021-11-18T08:49:02Z</time>
      </trkpt>
      <trkpt lat="44.18141" lon="6.97027">
        <ele>1913.2743432</ele>
        <time>2021-11-18T08:49:03Z</time>
      </trkpt>
      <trkpt lat="44.18141" lon="6.97028">
        <ele>1914.2743426971</ele>
        <time>2021-11-18T08:49:04Z</time>
      </trkpt>
      <trkpt lat="44.18141" lon="6.9703">
        <ele>1914.2743628137</ele>
        <time>2021-11-18T08:49:05Z</time>
      </trkpt>
      <trkpt lat="44.18141" lon="6.97031">
        <ele>1914.2743773982</ele>
        <time>2021-11-18T08:49:06Z</time>
      </trkpt>
      <trkpt lat="44.1814" lon="6.97032">
        <ele>1914.274382595</ele>
        <time>2021-11-18T08:49:07Z</time>
      </trkpt>
      <trkpt lat="44.18141" lon="6.97034">
        <ele>1914.2743777335</ele>
        <time>2021-11-18T08:49:08Z</time>
      </trkpt>
      <trkpt lat="44.18141" lon="6.97035">
        <ele>1914.2743809186</ele>
        <time>2021-11-18T08:49:09Z</time>
      </trkpt>
      <trkpt lat="44.1814" lon="6.97037">
        <ele>1914.2743970118</ele>
        <time>2021-11-18T08:49:10Z</time>
      </trkpt>
      <trkpt lat="44.18139" lon="6.97039">
        <ele>1915.2744231634</ele>
        <time>2021-11-18T08:49:12Z</time>
      </trkpt>
      <trkpt lat="44.18139" lon="6.9704">
        <ele>1915.2744416036</ele>
        <time>2021-11-18T08:49:13Z</time>
      </trkpt>
      <trkpt lat="44.18139" lon="6.97042">
        <ele>1915.2744493149</ele>
        <time>2021-11-18T08:49:14Z</time>
      </trkpt>
      <trkpt lat="44.18139" lon="6.97043">
        <ele>1915.2744456269</ele>
        <time>2021-11-18T08:49:15Z</time>
      </trkpt>
      <trkpt lat="44.1814" lon="6.97046">
        <ele>1914.2744188048</ele>
        <time>2021-11-18T08:49:17Z</time>
      </trkpt>
      <trkpt lat="44.1814" lon="6.97047">
        <ele>1913.274407573</ele>
        <time>2021-11-18T08:49:18Z</time>
      </trkpt>
      <trkpt lat="44.1814" lon="6.97048">
        <ele>1913.2743921503</ele>
        <time>2021-11-18T08:49:19Z</time>
      </trkpt>
      <trkpt lat="44.18141" lon="6.97051">
        <ele>1913.2743718661</ele>
        <time>2021-11-18T08:49:21Z</time>
      </trkpt>
      <trkpt lat="44.18141" lon="6.97053">
        <ele>1913.2743648253</ele>
        <time>2021-11-18T08:49:22Z</time>
      </trkpt>
      <trkpt lat="44.18141" lon="6.97055">
        <ele>1913.2743760571</ele>
        <time>2021-11-18T08:49:23Z</time>
      </trkpt>
      <trkpt lat="44.18141" lon="6.97056">
        <ele>1913.2743815891</ele>
        <time>2021-11-18T08:49:24Z</time>
      </trkpt>
      <trkpt lat="44.1814" lon="6.97057">
        <ele>1913.2744042203</ele>
        <time>2021-11-18T08:49:25Z</time>
      </trkpt>
      <trkpt lat="44.1814" lon="6.97058">
        <ele>1912.2744146138</ele>
        <time>2021-11-18T08:49:26Z</time>
      </trkpt>
      <trkpt lat="44.1814" lon="6.97059">
        <ele>1912.2744120993</ele>
        <time>2021-11-18T08:49:27Z</time>
      </trkpt>
      <trkpt lat="44.1814" lon="6.9706">
        <ele>1912.2743998617</ele>
        <time>2021-11-18T08:49:28Z</time>
      </trkpt>
      <trkpt lat="44.1814" lon="6.97062">
        <ele>1912.2744092494</ele>
        <time>2021-11-18T08:49:29Z</time>
      </trkpt>
      <trkpt lat="44.1814" lon="6.97063">
        <ele>1912.2744100876</ele>
        <time>2021-11-18T08:49:30Z</time>
      </trkpt>
      <trkpt lat="44.1814" lon="6.97064">
        <ele>1912.2744102553</ele>
        <time>2021-11-18T08:49:31Z</time>
      </trkpt>
      <trkpt lat="44.1814" lon="6.97066">
        <ele>1912.2744050585</ele>
        <time>2021-11-18T08:49:32Z</time>
      </trkpt>
      <trkpt lat="44.1814" lon="6.97067">
        <ele>1912.2744124345</ele>
        <time>2021-11-18T08:49:33Z</time>
      </trkpt>
      <trkpt lat="44.18139" lon="6.97068">
        <ele>1912.2744246721</ele>
        <time>2021-11-18T08:49:34Z</time>
      </trkpt>
      <trkpt lat="44.18139" lon="6.9707">
        <ele>1912.2744416036</ele>
        <time>2021-11-18T08:49:35Z</time>
      </trkpt>
      <trkpt lat="44.18138" lon="6.97073">
        <ele>1912.2744721137</ele>
        <time>2021-11-18T08:49:37Z</time>
      </trkpt>
      <trkpt lat="44.18138" lon="6.97075">
        <ele>1912.2744912244</ele>
        <time>2021-11-18T08:49:38Z</time>
      </trkpt>
      <trkpt lat="44.18138" lon="6.97076">
        <ele>1913.2744954154</ele>
        <time>2021-11-18T08:49:39Z</time>
      </trkpt>
      <trkpt lat="44.18138" lon="6.97077">
        <ele>1913.2744977623</ele>
        <time>2021-11-18T08:49:40Z</time>
      </trkpt>
      <trkpt lat="44.18137" lon="6.9708">
        <ele>1912.274525255</ele>
        <time>2021-11-18T08:49:42Z</time>
      </trkpt>
      <trkpt lat="44.18137" lon="6.97082">
        <ele>1912.2745245844</ele>
        <time>2021-11-18T08:49:43Z</time>
      </trkpt>
      <trkpt lat="44.18137" lon="6.97083">
        <ele>1912.2745183818</ele>
        <time>2021-11-18T08:49:44Z</time>
      </trkpt>
      <trkpt lat="44.18137" lon="6.97084">
        <ele>1913.274503462</ele>
        <time>2021-11-18T08:49:45Z</time>
      </trkpt>
      <trkpt lat="44.18137" lon="6.97086">
        <ele>1913.2745059766</ele>
        <time>2021-11-18T08:49:46Z</time>
      </trkpt>
      <trkpt lat="44.18138" lon="6.97088">
        <ele>1913.2745014504</ele>
        <time>2021-11-18T08:49:47Z</time>
      </trkpt>
      <trkpt lat="44.18138" lon="6.97088">
        <ele>1912.2744888775</ele>
        <time>2021-11-18T08:49:48Z</time>
      </trkpt>
      <trkpt lat="44.18138" lon="6.9709">
        <ele>1912.274487704</ele>
        <time>2021-11-18T08:49:49Z</time>
      </trkpt>
      <trkpt lat="44.18138" lon="6.97092">
        <ele>1912.2744982652</ele>
        <time>2021-11-18T08:49:50Z</time>
      </trkpt>
      <trkpt lat="44.18137" lon="6.97094">
        <ele>1911.274513185</ele>
        <time>2021-11-18T08:49:51Z</time>
      </trkpt>
      <trkpt lat="44.18137" lon="6.97095">
        <ele>1911.2745185494</ele>
        <time>2021-11-18T08:49:52Z</time>
      </trkpt>
      <trkpt lat="44.18137" lon="6.97097">
        <ele>1911.2745212317</ele>
        <time>2021-11-18T08:49:53Z</time>
      </trkpt>
      <trkpt lat="44.18137" lon="6.97098">
        <ele>1911.2745115086</ele>
        <time>2021-11-18T08:49:54Z</time>
      </trkpt>
      <trkpt lat="44.18137" lon="6.971">
        <ele>1911.2745180465</ele>
        <time>2021-11-18T08:49:55Z</time>
      </trkpt>
      <trkpt lat="44.18137" lon="6.97102">
        <ele>1911.2745356485</ele>
        <time>2021-11-18T08:49:56Z</time>
      </trkpt>
      <trkpt lat="44.18136" lon="6.97103">
        <ele>1911.2745473832</ele>
        <time>2021-11-18T08:49:57Z</time>
      </trkpt>
      <trkpt lat="44.18137" lon="6.97105">
        <ele>1911.274538666</ele>
        <time>2021-11-18T08:49:58Z</time>
      </trkpt>
      <trkpt lat="44.18137" lon="6.97108">
        <ele>1911.2745398395</ele>
        <time>2021-11-18T08:49:59Z</time>
      </trkpt>
      <trkpt lat="44.18137" lon="6.9711">
        <ele>1911.2745366544</ele>
        <time>2021-11-18T08:50:00Z</time>
      </trkpt>
      <trkpt lat="44.18137" lon="6.97112">
        <ele>1911.2745391689</ele>
        <time>2021-11-18T08:50:01Z</time>
      </trkpt>
      <trkpt lat="44.18136" lon="6.97114">
        <ele>1910.274548389</ele>
        <time>2021-11-18T08:50:02Z</time>
      </trkpt>
      <trkpt lat="44.18136" lon="6.97115">
        <ele>1911.2745624706</ele>
        <time>2021-11-18T08:50:03Z</time>
      </trkpt>
      <trkpt lat="44.18135" lon="6.97116">
        <ele>1911.2745889574</ele>
        <time>2021-11-18T08:50:04Z</time>
      </trkpt>
      <trkpt lat="44.18135" lon="6.97118">
        <ele>1910.2746022008</ele>
        <time>2021-11-18T08:50:05Z</time>
      </trkpt>
      <trkpt lat="44.18135" lon="6.97118">
        <ele>1910.274609074</ele>
        <time>2021-11-18T08:50:06Z</time>
      </trkpt>
      <trkpt lat="44.18134" lon="6.97121">
        <ele>1910.2746317051</ele>
        <time>2021-11-18T08:50:08Z</time>
      </trkpt>
      <trkpt lat="44.18134" lon="6.97123">
        <ele>1910.2746575214</ele>
        <time>2021-11-18T08:50:09Z</time>
      </trkpt>
      <trkpt lat="44.18133" lon="6.97125">
        <ele>1911.2746806554</ele>
        <time>2021-11-18T08:50:10Z</time>
      </trkpt>
      <trkpt lat="44.18132" lon="6.97127">
        <ele>1910.2747073099</ele>
        <time>2021-11-18T08:50:12Z</time>
      </trkpt>
      <trkpt lat="44.18132" lon="6.97128">
        <ele>1909.2747297734</ele>
        <time>2021-11-18T08:50:13Z</time>
      </trkpt>
      <trkpt lat="44.18131" lon="6.9713">
        <ele>1909.2747634687</ele>
        <time>2021-11-18T08:50:14Z</time>
      </trkpt>
      <trkpt lat="44.18131" lon="6.97131">
        <ele>1908.2747750357</ele>
        <time>2021-11-18T08:50:15Z</time>
      </trkpt>
      <trkpt lat="44.18131" lon="6.97132">
        <ele>1908.2747815736</ele>
        <time>2021-11-18T08:50:16Z</time>
      </trkpt>
      <trkpt lat="44.1813" lon="6.97134">
        <ele>1908.2748125866</ele>
        <time>2021-11-18T08:50:18Z</time>
      </trkpt>
      <trkpt lat="44.18129" lon="6.97136">
        <ele>1909.274822142</ele>
        <time>2021-11-18T08:50:19Z</time>
      </trkpt>
      <trkpt lat="44.18129" lon="6.97138">
        <ele>1909.2748338766</ele>
        <time>2021-11-18T08:50:20Z</time>
      </trkpt>
      <trkpt lat="44.18129" lon="6.97139">
        <ele>1909.2748561725</ele>
        <time>2021-11-18T08:50:21Z</time>
      </trkpt>
      <trkpt lat="44.18128" lon="6.97141">
        <ele>1909.2748893648</ele>
        <time>2021-11-18T08:50:22Z</time>
      </trkpt>
      <trkpt lat="44.18127" lon="6.97143">
        <ele>1909.2749046199</ele>
        <time>2021-11-18T08:50:23Z</time>
      </trkpt>
      <trkpt lat="44.18127" lon="6.97145">
        <ele>1910.274925407</ele>
        <time>2021-11-18T08:50:24Z</time>
      </trkpt>
      <trkpt lat="44.18127" lon="6.97147">
        <ele>1910.2749302685</ele>
        <time>2021-11-18T08:50:25Z</time>
      </trkpt>
      <trkpt lat="44.18126" lon="6.97151">
        <ele>1910.2749515586</ele>
        <time>2021-11-18T08:50:27Z</time>
      </trkpt>
      <trkpt lat="44.18126" lon="6.97152">
        <ele>1910.2749679871</ele>
        <time>2021-11-18T08:50:28Z</time>
      </trkpt>
      <trkpt lat="44.18125" lon="6.97154">
        <ele>1910.2749922946</ele>
        <time>2021-11-18T08:50:29Z</time>
      </trkpt>
      <trkpt lat="44.18125" lon="6.97156">
        <ele>1910.2750214636</ele>
        <time>2021-11-18T08:50:30Z</time>
      </trkpt>
      <trkpt lat="44.18123" lon="6.97159">
        <ele>1910.2750799693</ele>
        <time>2021-11-18T08:50:32Z</time>
      </trkpt>
      <trkpt lat="44.18122" lon="6.97162">
        <ele>1911.2751036063</ele>
        <time>2021-11-18T08:50:33Z</time>
      </trkpt>
      <trkpt lat="44.18122" lon="6.97163">
        <ele>1911.2751253992</ele>
        <time>2021-11-18T08:50:34Z</time>
      </trkpt>
      <trkpt lat="44.18121" lon="6.97166">
        <ele>1912.2751510479</ele>
        <time>2021-11-18T08:50:36Z</time>
      </trkpt>
      <trkpt lat="44.18121" lon="6.97167">
        <ele>1912.2751765288</ele>
        <time>2021-11-18T08:50:37Z</time>
      </trkpt>
      <trkpt lat="44.1812" lon="6.97168">
        <ele>1912.2751988247</ele>
        <time>2021-11-18T08:50:38Z</time>
      </trkpt>
      <trkpt lat="44.1812" lon="6.97169">
        <ele>1912.2752202824</ele>
        <time>2021-11-18T08:50:39Z</time>
      </trkpt>
      <trkpt lat="44.18119" lon="6.97172">
        <ele>1911.2752412371</ele>
        <time>2021-11-18T08:50:41Z</time>
      </trkpt>
      <trkpt lat="44.18119" lon="6.97174">
        <ele>1911.2752564922</ele>
        <time>2021-11-18T08:50:42Z</time>
      </trkpt>
      <trkpt lat="44.18118" lon="6.97176">
        <ele>1911.2752729207</ele>
        <time>2021-11-18T08:50:43Z</time>
      </trkpt>
      <trkpt lat="44.18118" lon="6.97178">
        <ele>1911.2752861641</ele>
        <time>2021-11-18T08:50:44Z</time>
      </trkpt>
      <trkpt lat="44.18117" lon="6.97178">
        <ele>1911.2753096335</ele>
        <time>2021-11-18T08:50:45Z</time>
      </trkpt>
      <trkpt lat="44.18117" lon="6.9718">
        <ele>1911.27534182</ele>
        <time>2021-11-18T08:50:46Z</time>
      </trkpt>
      <trkpt lat="44.18115" lon="6.97183">
        <ele>1912.2753986493</ele>
        <time>2021-11-18T08:50:48Z</time>
      </trkpt>
      <trkpt lat="44.18115" lon="6.97184">
        <ele>1912.2754179277</ele>
        <time>2021-11-18T08:50:49Z</time>
      </trkpt>
      <trkpt lat="44.18115" lon="6.97186">
        <ele>1911.2754206099</ele>
        <time>2021-11-18T08:50:50Z</time>
      </trkpt>
      <trkpt lat="44.18114" lon="6.97186">
        <ele>1912.2754464261</ele>
        <time>2021-11-18T08:50:51Z</time>
      </trkpt>
      <trkpt lat="44.18112" lon="6.97189">
        <ele>1911.2755164988</ele>
        <time>2021-11-18T08:50:53Z</time>
      </trkpt>
      <trkpt lat="44.18112" lon="6.9719">
        <ele>1911.2755406387</ele>
        <time>2021-11-18T08:50:54Z</time>
      </trkpt>
      <trkpt lat="44.18111" lon="6.97192">
        <ele>1911.2755610906</ele>
        <time>2021-11-18T08:50:55Z</time>
      </trkpt>
      <trkpt lat="44.1811" lon="6.97193">
        <ele>1911.2755910978</ele>
        <time>2021-11-18T08:50:56Z</time>
      </trkpt>
      <trkpt lat="44.1811" lon="6.97195">
        <ele>1911.2756157406</ele>
        <time>2021-11-18T08:50:57Z</time>
      </trkpt>
      <trkpt lat="44.18109" lon="6.97197">
        <ele>1911.2756358571</ele>
        <time>2021-11-18T08:50:58Z</time>
      </trkpt>
      <trkpt lat="44.18108" lon="6.97198">
        <ele>1912.2756708935</ele>
        <time>2021-11-18T08:50:59Z</time>
      </trkpt>
      <trkpt lat="44.18108" lon="6.97199">
        <ele>1912.2756987214</ele>
        <time>2021-11-18T08:51:00Z</time>
      </trkpt>
      <trkpt lat="44.18107" lon="6.97201">
        <ele>1912.275716994</ele>
        <time>2021-11-18T08:51:01Z</time>
      </trkpt>
      <trkpt lat="44.18107" lon="6.97203">
        <ele>1912.275730405</ele>
        <time>2021-11-18T08:51:02Z</time>
      </trkpt>
      <trkpt lat="44.18107" lon="6.97204">
        <ele>1912.2757369429</ele>
        <time>2021-11-18T08:51:03Z</time>
      </trkpt>
      <trkpt lat="44.18106" lon="6.97206">
        <ele>1912.2757704705</ele>
        <time>2021-11-18T08:51:04Z</time>
      </trkpt>
      <trkpt lat="44.18105" lon="6.97208">
        <ele>1912.2758016512</ele>
        <time>2021-11-18T08:51:05Z</time>
      </trkpt>
      <trkpt lat="44.18105" lon="6.97209">
        <ele>1913.2758132182</ele>
        <time>2021-11-18T08:51:06Z</time>
      </trkpt>
      <trkpt lat="44.18104" lon="6.97212">
        <ele>1913.2758480869</ele>
        <time>2021-11-18T08:51:08Z</time>
      </trkpt>
      <trkpt lat="44.18103" lon="6.97213">
        <ele>1913.2758734003</ele>
        <time>2021-11-18T08:51:09Z</time>
      </trkpt>
      <trkpt lat="44.18103" lon="6.97215">
        <ele>1912.2758868113</ele>
        <time>2021-11-18T08:51:10Z</time>
      </trkpt>
      <trkpt lat="44.18103" lon="6.97216">
        <ele>1912.2758946903</ele>
        <time>2021-11-18T08:51:11Z</time>
      </trkpt>
      <trkpt lat="44.18102" lon="6.97217">
        <ele>1911.2759146392</ele>
        <time>2021-11-18T08:51:12Z</time>
      </trkpt>
      <trkpt lat="44.18102" lon="6.97219">
        <ele>1911.2759158127</ele>
        <time>2021-11-18T08:51:13Z</time>
      </trkpt>
      <trkpt lat="44.18102" lon="6.9722">
        <ele>1911.2759255357</ele>
        <time>2021-11-18T08:51:14Z</time>
      </trkpt>
      <trkpt lat="44.18101" lon="6.97222">
        <ele>1911.2759468257</ele>
        <time>2021-11-18T08:51:15Z</time>
      </trkpt>
      <trkpt lat="44.18101" lon="6.97224">
        <ele>1911.2759605721</ele>
        <time>2021-11-18T08:51:16Z</time>
      </trkpt>
      <trkpt lat="44.181" lon="6.97227">
        <ele>1911.2759867236</ele>
        <time>2021-11-18T08:51:18Z</time>
      </trkpt>
      <trkpt lat="44.181" lon="6.97228">
        <ele>1911.2759972848</ele>
        <time>2021-11-18T08:51:19Z</time>
      </trkpt>
      <trkpt lat="44.181" lon="6.9723">
        <ele>1910.2759959437</ele>
        <time>2021-11-18T08:51:20Z</time>
      </trkpt>
      <trkpt lat="44.181" lon="6.97231">
        <ele>1910.2759997994</ele>
        <time>2021-11-18T08:51:21Z</time>
      </trkpt>
      <trkpt lat="44.181" lon="6.97235">
        <ele>1910.276017569</ele>
        <time>2021-11-18T08:51:23Z</time>
      </trkpt>
      <trkpt lat="44.18099" lon="6.97237">
        <ele>1910.2760277949</ele>
        <time>2021-11-18T08:51:24Z</time>
      </trkpt>
      <trkpt lat="44.18099" lon="6.97239">
        <ele>1910.2760360092</ele>
        <time>2021-11-18T08:51:25Z</time>
      </trkpt>
      <trkpt lat="44.18098" lon="6.97242">
        <ele>1911.2760660164</ele>
        <time>2021-11-18T08:51:27Z</time>
      </trkpt>
      <trkpt lat="44.18098" lon="6.97244">
        <ele>1911.2760852948</ele>
        <time>2021-11-18T08:51:28Z</time>
      </trkpt>
      <trkpt lat="44.18098" lon="6.97245">
        <ele>1911.2760990411</ele>
        <time>2021-11-18T08:51:29Z</time>
      </trkpt>
      <trkpt lat="44.18097" lon="6.97247">
        <ele>1911.2761101052</ele>
        <time>2021-11-18T08:51:30Z</time>
      </trkpt>
      <trkpt lat="44.18097" lon="6.97248">
        <ele>1911.2761220075</ele>
        <time>2021-11-18T08:51:31Z</time>
      </trkpt>
      <trkpt lat="44.18097" lon="6.9725">
        <ele>1911.2761102729</ele>
        <time>2021-11-18T08:51:32Z</time>
      </trkpt>
      <trkpt lat="44.18097" lon="6.97251">
        <ele>1911.2761047408</ele>
        <time>2021-11-18T08:51:33Z</time>
      </trkpt>
      <trkpt lat="44.18097" lon="6.97253">
        <ele>1911.276111111</ele>
        <time>2021-11-18T08:51:34Z</time>
      </trkpt>
      <trkpt lat="44.18097" lon="6.97255">
        <ele>1912.2761181518</ele>
        <time>2021-11-18T08:51:35Z</time>
      </trkpt>
      <trkpt lat="44.18097" lon="6.97256">
        <ele>1911.2761178166</ele>
        <time>2021-11-18T08:51:36Z</time>
      </trkpt>
      <trkpt lat="44.18097" lon="6.9726">
        <ele>1911.2761084288</ele>
        <time>2021-11-18T08:51:38Z</time>
      </trkpt>
      <trkpt lat="44.18097" lon="6.97261">
        <ele>1911.2761067525</ele>
        <time>2021-11-18T08:51:39Z</time>
      </trkpt>
      <trkpt lat="44.18097" lon="6.97263">
        <ele>1911.2761057466</ele>
        <time>2021-11-18T08:51:40Z</time>
      </trkpt>
      <trkpt lat="44.18097" lon="6.97267">
        <ele>1911.2761104405</ele>
        <time>2021-11-18T08:51:42Z</time>
      </trkpt>
      <trkpt lat="44.18097" lon="6.97268">
        <ele>1911.2761220075</ele>
        <time>2021-11-18T08:51:43Z</time>
      </trkpt>
      <trkpt lat="44.18097" lon="6.9727">
        <ele>1911.2761243545</ele>
        <time>2021-11-18T08:51:44Z</time>
      </trkpt>
      <trkpt lat="44.18097" lon="6.97272">
        <ele>1911.276132904</ele>
        <time>2021-11-18T08:51:45Z</time>
      </trkpt>
      <trkpt lat="44.18097" lon="6.97273">
        <ele>1911.2761283778</ele>
        <time>2021-11-18T08:51:46Z</time>
      </trkpt>
      <trkpt lat="44.18097" lon="6.97275">
        <ele>1912.2761193253</ele>
        <time>2021-11-18T08:51:47Z</time>
      </trkpt>
      <trkpt lat="44.18097" lon="6.97277">
        <ele>1912.2761282101</ele>
        <time>2021-11-18T08:51:48Z</time>
      </trkpt>
      <trkpt lat="44.18097" lon="6.97278">
        <ele>1912.2761322334</ele>
        <time>2021-11-18T08:51:49Z</time>
      </trkpt>
      <trkpt lat="44.18097" lon="6.9728">
        <ele>1912.2761401124</ele>
        <time>2021-11-18T08:51:50Z</time>
      </trkpt>
      <trkpt lat="44.18096" lon="6.97281">
        <ele>1912.2761568762</ele>
        <time>2021-11-18T08:51:51Z</time>
      </trkpt>
      <trkpt lat="44.18096" lon="6.97283">
        <ele>1912.2761506736</ele>
        <time>2021-11-18T08:51:52Z</time>
      </trkpt>
      <trkpt lat="44.18096" lon="6.97284">
        <ele>1912.2761453092</ele>
        <time>2021-11-18T08:51:53Z</time>
      </trkpt>
      <trkpt lat="44.18096" lon="6.97286">
        <ele>1912.276144471</ele>
        <time>2021-11-18T08:51:54Z</time>
      </trkpt>
      <trkpt lat="44.18096" lon="6.97289">
        <ele>1912.2761614025</ele>
        <time>2021-11-18T08:51:56Z</time>
      </trkpt>
      <trkpt lat="44.18096" lon="6.9729">
        <ele>1912.2761696167</ele>
        <time>2021-11-18T08:51:57Z</time>
      </trkpt>
      <trkpt lat="44.18096" lon="6.97292">
        <ele>1911.2761548646</ele>
        <time>2021-11-18T08:51:58Z</time>
      </trkpt>
      <trkpt lat="44.18096" lon="6.97293">
        <ele>1911.2761531882</ele>
        <time>2021-11-18T08:51:59Z</time>
      </trkpt>
      <trkpt lat="44.18096" lon="6.97295">
        <ele>1911.2761684433</ele>
        <time>2021-11-18T08:52:00Z</time>
      </trkpt>
      <trkpt lat="44.18095" lon="6.97296">
        <ele>1911.2761840336</ele>
        <time>2021-11-18T08:52:01Z</time>
      </trkpt>
      <trkpt lat="44.18095" lon="6.97298">
        <ele>1911.2762006298</ele>
        <time>2021-11-18T08:52:02Z</time>
      </trkpt>
      <trkpt lat="44.18095" lon="6.97299">
        <ele>1911.2762046531</ele>
        <time>2021-11-18T08:52:03Z</time>
      </trkpt>
      <trkpt lat="44.18095" lon="6.97301">
        <ele>1911.2762178965</ele>
        <time>2021-11-18T08:52:04Z</time>
      </trkpt>
      <trkpt lat="44.18094" lon="6.97302">
        <ele>1911.2762229256</ele>
        <time>2021-11-18T08:52:05Z</time>
      </trkpt>
      <trkpt lat="44.18094" lon="6.97303">
        <ele>1911.2762354985</ele>
        <time>2021-11-18T08:52:06Z</time>
      </trkpt>
      <trkpt lat="44.18094" lon="6.97305">
        <ele>1911.2762470655</ele>
        <time>2021-11-18T08:52:07Z</time>
      </trkpt>
      <trkpt lat="44.18094" lon="6.97306">
        <ele>1911.2762509212</ele>
        <time>2021-11-18T08:52:08Z</time>
      </trkpt>
      <trkpt lat="44.18094" lon="6.97307">
        <ele>1912.2762475684</ele>
        <time>2021-11-18T08:52:09Z</time>
      </trkpt>
      <trkpt lat="44.18094" lon="6.97309">
        <ele>1912.2762524299</ele>
        <time>2021-11-18T08:52:10Z</time>
      </trkpt>
      <trkpt lat="44.18094" lon="6.9731">
        <ele>1913.2762527652</ele>
        <time>2021-11-18T08:52:11Z</time>
      </trkpt>
      <trkpt lat="44.18094" lon="6.97311">
        <ele>1913.2762425393</ele>
        <time>2021-11-18T08:52:13Z</time>
      </trkpt>
      <trkpt lat="44.18095" lon="6.97311">
        <ele>1912.2762165554</ele>
        <time>2021-11-18T08:52:14Z</time>
      </trkpt>
      <trkpt lat="44.18095" lon="6.97311">
        <ele>1911.2761920802</ele>
        <time>2021-11-18T08:52:15Z</time>
      </trkpt>
      <trkpt lat="44.18096" lon="6.97311">
        <ele>1912.2761786692</ele>
        <time>2021-11-18T08:52:16Z</time>
      </trkpt>
      <trkpt lat="44.18096" lon="6.97312">
        <ele>1912.2761597261</ele>
        <time>2021-11-18T08:52:21Z</time>
      </trkpt>
      <trkpt lat="44.18097" lon="6.97312">
        <ele>1911.2761255279</ele>
        <time>2021-11-18T08:52:23Z</time>
      </trkpt>
      <trkpt lat="44.18097" lon="6.97312">
        <ele>1911.2761039026</ele>
        <time>2021-11-18T08:52:26Z</time>
      </trkpt>
      <trkpt lat="44.18097" lon="6.97315">
        <ele>1912.2761126198</ele>
        <time>2021-11-18T08:52:28Z</time>
      </trkpt>
      <trkpt lat="44.18097" lon="6.97316">
        <ele>1912.2761216722</ele>
        <time>2021-11-18T08:52:29Z</time>
      </trkpt>
      <trkpt lat="44.18097" lon="6.97318">
        <ele>1912.276129216</ele>
        <time>2021-11-18T08:52:30Z</time>
      </trkpt>
      <trkpt lat="44.18097" lon="6.9732">
        <ele>1912.276138939</ele>
        <time>2021-11-18T08:52:32Z</time>
      </trkpt>
      <trkpt lat="44.18097" lon="6.97321">
        <ele>1912.276138436</ele>
        <time>2021-11-18T08:52:33Z</time>
      </trkpt>
      <trkpt lat="44.18097" lon="6.97322">
        <ele>1912.2761401124</ele>
        <time>2021-11-18T08:52:34Z</time>
      </trkpt>
      <trkpt lat="44.18096" lon="6.97325">
        <ele>1912.2761503384</ele>
        <time>2021-11-18T08:52:36Z</time>
      </trkpt>
      <trkpt lat="44.18096" lon="6.97326">
        <ele>1913.2761473209</ele>
        <time>2021-11-18T08:52:37Z</time>
      </trkpt>
      <trkpt lat="44.18097" lon="6.97327">
        <ele>1912.2761369273</ele>
        <time>2021-11-18T08:52:38Z</time>
      </trkpt>
      <trkpt lat="44.18097" lon="6.97328">
        <ele>1912.2761256956</ele>
        <time>2021-11-18T08:52:39Z</time>
      </trkpt>
      <trkpt lat="44.18098" lon="6.97331">
        <ele>1911.2760951854</ele>
        <time>2021-11-18T08:52:41Z</time>
      </trkpt>
      <trkpt lat="44.18097" lon="6.97332">
        <ele>1911.2761050761</ele>
        <time>2021-11-18T08:52:42Z</time>
      </trkpt>
      <trkpt lat="44.18098" lon="6.97333">
        <ele>1910.2761008851</ele>
        <time>2021-11-18T08:52:43Z</time>
      </trkpt>
      <trkpt lat="44.18097" lon="6.97334">
        <ele>1911.276105579</ele>
        <time>2021-11-18T08:52:44Z</time>
      </trkpt>
      <trkpt lat="44.18098" lon="6.97335">
        <ele>1911.2760987058</ele>
        <time>2021-11-18T08:52:45Z</time>
      </trkpt>
      <trkpt lat="44.18098" lon="6.97336">
        <ele>1911.2760888152</ele>
        <time>2021-11-18T08:53:03Z</time>
      </trkpt>
      <trkpt lat="44.18098" lon="6.97337">
        <ele>1911.2760859653</ele>
        <time>2021-11-18T08:53:04Z</time>
      </trkpt>
      <trkpt lat="44.18098" lon="6.97338">
        <ele>1912.276095856</ele>
        <time>2021-11-18T08:53:08Z</time>
      </trkpt>
      <trkpt lat="44.18097" lon="6.97339">
        <ele>1912.2761317305</ele>
        <time>2021-11-18T08:53:09Z</time>
      </trkpt>
      <trkpt lat="44.18096" lon="6.9734">
        <ele>1913.2761582173</ele>
        <time>2021-11-18T08:53:10Z</time>
      </trkpt>
      <trkpt lat="44.18096" lon="6.97339">
        <ele>1916.2761614025</ele>
        <time>2021-11-18T08:53:30Z</time>
      </trkpt>
      <trkpt lat="44.18096" lon="6.97339">
        <ele>1916.2761612348</ele>
        <time>2021-11-18T08:53:46Z</time>
      </trkpt>
      <trkpt lat="44.18096" lon="6.97337">
        <ele>1917.2761525176</ele>
        <time>2021-11-18T08:53:48Z</time>
      </trkpt>
      <trkpt lat="44.18096" lon="6.97337">
        <ele>1917.276144471</ele>
        <time>2021-11-18T08:53:49Z</time>
      </trkpt>
      <trkpt lat="44.18096" lon="6.97336">
        <ele>1918.2761535235</ele>
        <time>2021-11-18T08:54:16Z</time>
      </trkpt>
      <trkpt lat="44.18096" lon="6.97338">
        <ele>1918.2761672698</ele>
        <time>2021-11-18T08:54:17Z</time>
      </trkpt>
      <trkpt lat="44.18096" lon="6.97338">
        <ele>1918.2761677727</ele>
        <time>2021-11-18T08:54:37Z</time>
      </trkpt>
      <trkpt lat="44.18097" lon="6.97338">
        <ele>1917.2761349156</ele>
        <time>2021-11-18T08:54:52Z</time>
      </trkpt>
      <trkpt lat="44.18097" lon="6.97337">
        <ele>1917.2761186548</ele>
        <time>2021-11-18T08:59:00Z</time>
      </trkpt>
      <trkpt lat="44.18098" lon="6.97337">
        <ele>1916.2760852948</ele>
        <time>2021-11-18T08:59:50Z</time>
      </trkpt>
      <trkpt lat="44.18097" lon="6.97338">
        <ele>1913.2761139609</ele>
        <time>2021-11-18T09:00:06Z</time>
      </trkpt>
      <trkpt lat="44.18096" lon="6.97338">
        <ele>1913.27615235</ele>
        <time>2021-11-18T09:00:07Z</time>
      </trkpt>
      <trkpt lat="44.18096" lon="6.97338">
        <ele>1913.2761739753</ele>
        <time>2021-11-18T09:00:08Z</time>
      </trkpt>
      <trkpt lat="44.18095" lon="6.97338">
        <ele>1912.2761920802</ele>
        <time>2021-11-18T09:00:09Z</time>
      </trkpt>
      <trkpt lat="44.18094" lon="6.97338">
        <ele>1912.2762291282</ele>
        <time>2021-11-18T09:00:10Z</time>
      </trkpt>
      <trkpt lat="44.18093" lon="6.97338">
        <ele>1912.2762733847</ele>
        <time>2021-11-18T09:00:11Z</time>
      </trkpt>
      <trkpt lat="44.18093" lon="6.97338">
        <ele>1912.2762988657</ele>
        <time>2021-11-18T09:00:12Z</time>
      </trkpt>
      <trkpt lat="44.18092" lon="6.97338">
        <ele>1913.2763317227</ele>
        <time>2021-11-18T09:00:13Z</time>
      </trkpt>
      <trkpt lat="44.18091" lon="6.97339">
        <ele>1913.2763707824</ele>
        <time>2021-11-18T09:00:14Z</time>
      </trkpt>
      <trkpt lat="44.1809" lon="6.97339">
        <ele>1913.2764133625</ele>
        <time>2021-11-18T09:00:15Z</time>
      </trkpt>
      <trkpt lat="44.18089" lon="6.9734">
        <ele>1913.2764525898</ele>
        <time>2021-11-18T09:00:16Z</time>
      </trkpt>
      <trkpt lat="44.18087" lon="6.9734">
        <ele>1913.2765327208</ele>
        <time>2021-11-18T09:00:18Z</time>
      </trkpt>
      <trkpt lat="44.18086" lon="6.9734">
        <ele>1913.2765583694</ele>
        <time>2021-11-18T09:00:19Z</time>
      </trkpt>
      <trkpt lat="44.18085" lon="6.9734">
        <ele>1913.2766089961</ele>
        <time>2021-11-18T09:00:20Z</time>
      </trkpt>
      <trkpt lat="44.18084" lon="6.9734">
        <ele>1913.276641015</ele>
        <time>2021-11-18T09:00:21Z</time>
      </trkpt>
      <trkpt lat="44.18083" lon="6.9734">
        <ele>1914.2766710222</ele>
        <time>2021-11-18T09:00:22Z</time>
      </trkpt>
      <trkpt lat="44.18082" lon="6.9734">
        <ele>1914.2767159492</ele>
        <time>2021-11-18T09:00:23Z</time>
      </trkpt>
      <trkpt lat="44.18081" lon="6.97341">
        <ele>1914.2767667435</ele>
        <time>2021-11-18T09:00:24Z</time>
      </trkpt>
      <trkpt lat="44.1808" lon="6.97342">
        <ele>1914.2768106647</ele>
        <time>2021-11-18T09:00:25Z</time>
      </trkpt>
      <trkpt lat="44.18079" lon="6.97343">
        <ele>1915.2768525742</ele>
        <time>2021-11-18T09:00:26Z</time>
      </trkpt>
      <trkpt lat="44.18078" lon="6.97343">
        <ele>1915.276888784</ele>
        <time>2021-11-18T09:00:27Z</time>
      </trkpt>
      <trkpt lat="44.18077" lon="6.97344">
        <ele>1915.2769201323</ele>
        <time>2021-11-18T09:00:28Z</time>
      </trkpt>
      <trkpt lat="44.18076" lon="6.97345">
        <ele>1915.27696288</ele>
        <time>2021-11-18T09:00:29Z</time>
      </trkpt>
      <trkpt lat="44.18076" lon="6.97345">
        <ele>1915.2769751176</ele>
        <time>2021-11-18T09:00:30Z</time>
      </trkpt>
      <trkpt lat="44.18075" lon="6.97346">
        <ele>1916.2770113274</ele>
        <time>2021-11-18T09:00:31Z</time>
      </trkpt>
      <trkpt lat="44.18074" lon="6.97346">
        <ele>1916.277043514</ele>
        <time>2021-11-18T09:00:32Z</time>
      </trkpt>
      <trkpt lat="44.18073" lon="6.97346">
        <ele>1916.2770654745</ele>
        <time>2021-11-18T09:00:33Z</time>
      </trkpt>
      <trkpt lat="44.18073" lon="6.97346">
        <ele>1916.2770946436</ele>
        <time>2021-11-18T09:00:34Z</time>
      </trkpt>
      <trkpt lat="44.18072" lon="6.97347">
        <ele>1917.2771367207</ele>
        <time>2021-11-18T09:00:35Z</time>
      </trkpt>
      <trkpt lat="44.18071" lon="6.97347">
        <ele>1917.2771796361</ele>
        <time>2021-11-18T09:00:36Z</time>
      </trkpt>
      <trkpt lat="44.1807" lon="6.97347">
        <ele>1917.2772104815</ele>
        <time>2021-11-18T09:00:37Z</time>
      </trkpt>
      <trkpt lat="44.18069" lon="6.97347">
        <ele>1917.2772428356</ele>
        <time>2021-11-18T09:00:38Z</time>
      </trkpt>
      <trkpt lat="44.18068" lon="6.97347">
        <ele>1917.2772751898</ele>
        <time>2021-11-18T09:00:39Z</time>
      </trkpt>
      <trkpt lat="44.18067" lon="6.97347">
        <ele>1918.2773075439</ele>
        <time>2021-11-18T09:00:40Z</time>
      </trkpt>
      <trkpt lat="44.18066" lon="6.97348">
        <ele>1918.2773621939</ele>
        <time>2021-11-18T09:00:41Z</time>
      </trkpt>
      <trkpt lat="44.18065" lon="6.97348">
        <ele>1917.27740293</ele>
        <time>2021-11-18T09:00:42Z</time>
      </trkpt>
      <trkpt lat="44.18064" lon="6.97347">
        <ele>1918.2774548978</ele>
        <time>2021-11-18T09:00:43Z</time>
      </trkpt>
      <trkpt lat="44.18063" lon="6.97348">
        <ele>1918.2774988189</ele>
        <time>2021-11-18T09:00:44Z</time>
      </trkpt>
      <trkpt lat="44.18062" lon="6.97347">
        <ele>1918.2775253057</ele>
        <time>2021-11-18T09:00:45Z</time>
      </trkpt>
      <trkpt lat="44.18061" lon="6.97348">
        <ele>1918.277565036</ele>
        <time>2021-11-18T09:00:46Z</time>
      </trkpt>
      <trkpt lat="44.1806" lon="6.97348">
        <ele>1918.2775972225</ele>
        <time>2021-11-18T09:00:47Z</time>
      </trkpt>
      <trkpt lat="44.18059" lon="6.97348">
        <ele>1918.2776325941</ele>
        <time>2021-11-18T09:00:48Z</time>
      </trkpt>
      <trkpt lat="44.18058" lon="6.97348">
        <ele>1918.2776641101</ele>
        <time>2021-11-18T09:00:49Z</time>
      </trkpt>
      <trkpt lat="44.18057" lon="6.97348">
        <ele>1917.2777100429</ele>
        <time>2021-11-18T09:00:50Z</time>
      </trkpt>
      <trkpt lat="44.18056" lon="6.97348">
        <ele>1917.2777573168</ele>
        <time>2021-11-18T09:00:51Z</time>
      </trkpt>
      <trkpt lat="44.18055" lon="6.97348">
        <ele>1917.2777988911</ele>
        <time>2021-11-18T09:00:52Z</time>
      </trkpt>
      <trkpt lat="44.18054" lon="6.97348">
        <ele>1917.2778287306</ele>
        <time>2021-11-18T09:00:53Z</time>
      </trkpt>
      <trkpt lat="44.18053" lon="6.97348">
        <ele>1917.2778684609</ele>
        <time>2021-11-18T09:00:54Z</time>
      </trkpt>
      <trkpt lat="44.18052" lon="6.97348">
        <ele>1917.2779107057</ele>
        <time>2021-11-18T09:00:55Z</time>
      </trkpt>
      <trkpt lat="44.18052" lon="6.97348">
        <ele>1916.2779210992</ele>
        <time>2021-11-18T09:00:56Z</time>
      </trkpt>
      <trkpt lat="44.18051" lon="6.97347">
        <ele>1916.2779506035</ele>
        <time>2021-11-18T09:00:57Z</time>
      </trkpt>
      <trkpt lat="44.18051" lon="6.97347">
        <ele>1916.2779799402</ele>
        <time>2021-11-18T09:00:58Z</time>
      </trkpt>
      <trkpt lat="44.1805" lon="6.97347">
        <ele>1917.2780166529</ele>
        <time>2021-11-18T09:00:59Z</time>
      </trkpt>
      <trkpt lat="44.18049" lon="6.97346">
        <ele>1917.2780525275</ele>
        <time>2021-11-18T09:01:00Z</time>
      </trkpt>
      <trkpt lat="44.18048" lon="6.97346">
        <ele>1917.2780785114</ele>
        <time>2021-11-18T09:01:01Z</time>
      </trkpt>
      <trkpt lat="44.18047" lon="6.97346">
        <ele>1917.2781122066</ele>
        <time>2021-11-18T09:01:02Z</time>
      </trkpt>
      <trkpt lat="44.18046" lon="6.97346">
        <ele>1918.2781723887</ele>
        <time>2021-11-18T09:01:03Z</time>
      </trkpt>
      <trkpt lat="44.18045" lon="6.97346">
        <ele>1918.2782067545</ele>
        <time>2021-11-18T09:01:04Z</time>
      </trkpt>
      <trkpt lat="44.18044" lon="6.97346">
        <ele>1918.2782488316</ele>
        <time>2021-11-18T09:01:05Z</time>
      </trkpt>
      <trkpt lat="44.18043" lon="6.97345">
        <ele>1918.2782862149</ele>
        <time>2021-11-18T09:01:06Z</time>
      </trkpt>
      <trkpt lat="44.18041" lon="6.97344">
        <ele>1918.2783541083</ele>
        <time>2021-11-18T09:01:08Z</time>
      </trkpt>
      <trkpt lat="44.18041" lon="6.97344">
        <ele>1917.2783757336</ele>
        <time>2021-11-18T09:01:10Z</time>
      </trkpt>
      <trkpt lat="44.18039" lon="6.97345">
        <ele>1917.2784345746</ele>
        <time>2021-11-18T09:01:12Z</time>
      </trkpt>
      <trkpt lat="44.18038" lon="6.97345">
        <ele>1917.278469108</ele>
        <time>2021-11-18T09:01:13Z</time>
      </trkpt>
      <trkpt lat="44.18037" lon="6.97344">
        <ele>1917.2785041444</ele>
        <time>2021-11-18T09:01:14Z</time>
      </trkpt>
      <trkpt lat="44.18036" lon="6.97343">
        <ele>1917.2785427012</ele>
        <time>2021-11-18T09:01:15Z</time>
      </trkpt>
      <trkpt lat="44.18036" lon="6.97343">
        <ele>1917.2785616443</ele>
        <time>2021-11-18T09:01:16Z</time>
      </trkpt>
      <trkpt lat="44.18035" lon="6.97343">
        <ele>1916.2786003686</ele>
        <time>2021-11-18T09:01:17Z</time>
      </trkpt>
      <trkpt lat="44.18034" lon="6.97343">
        <ele>1916.2786561921</ele>
        <time>2021-11-18T09:01:18Z</time>
      </trkpt>
      <trkpt lat="44.18033" lon="6.97344">
        <ele>1917.2786908932</ele>
        <time>2021-11-18T09:01:19Z</time>
      </trkpt>
      <trkpt lat="44.18032" lon="6.97344">
        <ele>1917.2787255943</ele>
        <time>2021-11-18T09:01:20Z</time>
      </trkpt>
      <trkpt lat="44.18031" lon="6.97344">
        <ele>1917.2787624747</ele>
        <time>2021-11-18T09:01:21Z</time>
      </trkpt>
      <trkpt lat="44.1803" lon="6.97344">
        <ele>1917.2787951641</ele>
        <time>2021-11-18T09:01:23Z</time>
      </trkpt>
      <trkpt lat="44.1803" lon="6.97343">
        <ele>1917.2788075693</ele>
        <time>2021-11-18T09:01:24Z</time>
      </trkpt>
      <trkpt lat="44.18029" lon="6.97344">
        <ele>1918.2788427733</ele>
        <time>2021-11-18T09:01:25Z</time>
      </trkpt>
      <trkpt lat="44.18028" lon="6.97343">
        <ele>1918.278895244</ele>
        <time>2021-11-18T09:01:27Z</time>
      </trkpt>
      <trkpt lat="44.18027" lon="6.97343">
        <ele>1918.2789274305</ele>
        <time>2021-11-18T09:01:28Z</time>
      </trkpt>
      <trkpt lat="44.18026" lon="6.97344">
        <ele>1918.2789497264</ele>
        <time>2021-11-18T09:01:29Z</time>
      </trkpt>
      <trkpt lat="44.18026" lon="6.97344">
        <ele>1918.2789817452</ele>
        <time>2021-11-18T09:01:30Z</time>
      </trkpt>
      <trkpt lat="44.18024" lon="6.97344">
        <ele>1918.2790347189</ele>
        <time>2021-11-18T09:01:32Z</time>
      </trkpt>
      <trkpt lat="44.18024" lon="6.97344">
        <ele>1918.2790347189</ele>
        <time>2021-11-18T09:01:34Z</time>
      </trkpt>
      <trkpt lat="44.18022" lon="6.97344">
        <ele>1920.2791171968</ele>
        <time>2021-11-18T09:01:35Z</time>
      </trkpt>
      <trkpt lat="44.18021" lon="6.97345">
        <ele>1921.279153239</ele>
        <time>2021-11-18T09:01:36Z</time>
      </trkpt>
      <trkpt lat="44.18019" lon="6.97345">
        <ele>1921.2792316936</ele>
        <time>2021-11-18T09:01:38Z</time>
      </trkpt>
      <trkpt lat="44.18018" lon="6.97345">
        <ele>1922.2792647183</ele>
        <time>2021-11-18T09:01:39Z</time>
      </trkpt>
      <trkpt lat="44.18018" lon="6.97345">
        <ele>1921.2792789675</ele>
        <time>2021-11-18T09:01:42Z</time>
      </trkpt>
      <trkpt lat="44.18017" lon="6.97345">
        <ele>1921.2793401554</ele>
        <time>2021-11-18T09:01:43Z</time>
      </trkpt>
      <trkpt lat="44.18017" lon="6.97345">
        <ele>1922.2793419994</ele>
        <time>2021-11-18T09:01:44Z</time>
      </trkpt>
      <trkpt lat="44.18015" lon="6.97347">
        <ele>1922.2793922909</ele>
        <time>2021-11-18T09:01:45Z</time>
      </trkpt>
      <trkpt lat="44.18014" lon="6.97347">
        <ele>1922.2794425823</ele>
        <time>2021-11-18T09:01:46Z</time>
      </trkpt>
      <trkpt lat="44.18013" lon="6.97348">
        <ele>1921.2794683985</ele>
        <time>2021-11-18T09:01:47Z</time>
      </trkpt>
      <trkpt lat="44.18013" lon="6.97348">
        <ele>1921.2794935443</ele>
        <time>2021-11-18T09:01:49Z</time>
      </trkpt>
      <trkpt lat="44.1801" lon="6.97346">
        <ele>1923.2795984857</ele>
        <time>2021-11-18T09:01:51Z</time>
      </trkpt>
      <trkpt lat="44.18009" lon="6.97346">
        <ele>1923.2796315104</ele>
        <time>2021-11-18T09:01:52Z</time>
      </trkpt>
      <trkpt lat="44.18009" lon="6.97345">
        <ele>1924.2796549797</ele>
        <time>2021-11-18T09:01:53Z</time>
      </trkpt>
      <trkpt lat="44.18008" lon="6.97345">
        <ele>1924.2796792872</ele>
        <time>2021-11-18T09:01:57Z</time>
      </trkpt>
      <trkpt lat="44.18008" lon="6.97348">
        <ele>1926.2796997391</ele>
        <time>2021-11-18T09:01:58Z</time>
      </trkpt>
      <trkpt lat="44.18007" lon="6.97348">
        <ele>1926.2797106355</ele>
        <time>2021-11-18T09:01:59Z</time>
      </trkpt>
      <trkpt lat="44.18007" lon="6.97349">
        <ele>1925.2797367871</ele>
        <time>2021-11-18T09:02:00Z</time>
      </trkpt>
      <trkpt lat="44.18006" lon="6.9735">
        <ele>1925.2797607593</ele>
        <time>2021-11-18T09:02:01Z</time>
      </trkpt>
      <trkpt lat="44.18005" lon="6.97349">
        <ele>1925.2798028365</ele>
        <time>2021-11-18T09:02:03Z</time>
      </trkpt>
      <trkpt lat="44.18005" lon="6.97349">
        <ele>1925.2798209414</ele>
        <time>2021-11-18T09:02:04Z</time>
      </trkpt>
      <trkpt lat="44.18004" lon="6.97349">
        <ele>1925.2798541337</ele>
        <time>2021-11-18T09:02:05Z</time>
      </trkpt>
      <trkpt lat="44.18003" lon="6.97349">
        <ele>1925.2798829675</ele>
        <time>2021-11-18T09:02:06Z</time>
      </trkpt>
      <trkpt lat="44.18003" lon="6.97348">
        <ele>1925.2798928581</ele>
        <time>2021-11-18T09:02:07Z</time>
      </trkpt>
      <trkpt lat="44.18003" lon="6.97346">
        <ele>1924.2798732445</ele>
        <time>2021-11-18T09:02:08Z</time>
      </trkpt>
      <trkpt lat="44.18003" lon="6.97345">
        <ele>1924.2798762619</ele>
        <time>2021-11-18T09:02:09Z</time>
      </trkpt>
      <trkpt lat="44.18003" lon="6.97344">
        <ele>1924.279885482</ele>
        <time>2021-11-18T09:02:10Z</time>
      </trkpt>
      <trkpt lat="44.18002" lon="6.97341">
        <ele>1925.2799047604</ele>
        <time>2021-11-18T09:02:12Z</time>
      </trkpt>
      <trkpt lat="44.18002" lon="6.9734">
        <ele>1926.2799163274</ele>
        <time>2021-11-18T09:02:13Z</time>
      </trkpt>
      <trkpt lat="44.18002" lon="6.97338">
        <ele>1926.2799367793</ele>
        <time>2021-11-18T09:02:14Z</time>
      </trkpt>
      <trkpt lat="44.18002" lon="6.97336">
        <ele>1927.2799299061</ele>
        <time>2021-11-18T09:02:16Z</time>
      </trkpt>
      <trkpt lat="44.18002" lon="6.97334">
        <ele>1927.2799396291</ele>
        <time>2021-11-18T09:02:18Z</time>
      </trkpt>
      <trkpt lat="44.18001" lon="6.97333">
        <ele>1927.2799491845</ele>
        <time>2021-11-18T09:02:19Z</time>
      </trkpt>
      <trkpt lat="44.18001" lon="6.97333">
        <ele>1927.2799491845</ele>
        <time>2021-11-18T09:02:20Z</time>
      </trkpt>
      <trkpt lat="44.18" lon="6.97334">
        <ele>1926.2800085284</ele>
        <time>2021-11-18T09:02:22Z</time>
      </trkpt>
      <trkpt lat="44.17999" lon="6.97335">
        <ele>1926.2800254598</ele>
        <time>2021-11-18T09:02:23Z</time>
      </trkpt>
      <trkpt lat="44.17999" lon="6.97337">
        <ele>1926.2800487615</ele>
        <time>2021-11-18T09:02:24Z</time>
      </trkpt>
      <trkpt lat="44.17998" lon="6.97338">
        <ele>1926.280073069</ele>
        <time>2021-11-18T09:02:25Z</time>
      </trkpt>
      <trkpt lat="44.17998" lon="6.97339">
        <ele>1927.2800819539</ele>
        <time>2021-11-18T09:02:27Z</time>
      </trkpt>
      <trkpt lat="44.17997" lon="6.9734">
        <ele>1927.2801129669</ele>
        <time>2021-11-18T09:02:28Z</time>
      </trkpt>
      <trkpt lat="44.17997" lon="6.9734">
        <ele>1927.2801414654</ele>
        <time>2021-11-18T09:02:29Z</time>
      </trkpt>
      <trkpt lat="44.17996" lon="6.97341">
        <ele>1929.280163426</ele>
        <time>2021-11-18T09:02:30Z</time>
      </trkpt>
      <trkpt lat="44.17994" lon="6.97343">
        <ele>1928.2802418806</ele>
        <time>2021-11-18T09:02:32Z</time>
      </trkpt>
      <trkpt lat="44.17993" lon="6.97343">
        <ele>1928.2802737318</ele>
        <time>2021-11-18T09:02:33Z</time>
      </trkpt>
      <trkpt lat="44.17993" lon="6.97344">
        <ele>1929.2802983746</ele>
        <time>2021-11-18T09:02:34Z</time>
      </trkpt>
      <trkpt lat="44.17992" lon="6.97345">
        <ele>1929.2803360932</ele>
        <time>2021-11-18T09:02:35Z</time>
      </trkpt>
      <trkpt lat="44.1799" lon="6.97345">
        <ele>1929.2803833671</ele>
        <time>2021-11-18T09:02:36Z</time>
      </trkpt>
      <trkpt lat="44.1799" lon="6.97344">
        <ele>1929.2804160565</ele>
        <time>2021-11-18T09:02:37Z</time>
      </trkpt>
      <trkpt lat="44.17989" lon="6.97344">
        <ele>1929.280450087</ele>
        <time>2021-11-18T09:02:38Z</time>
      </trkpt>
      <trkpt lat="44.17988" lon="6.97343">
        <ele>1929.2804708742</ele>
        <time>2021-11-18T09:02:39Z</time>
      </trkpt>
      <trkpt lat="44.17988" lon="6.97342">
        <ele>1929.280487638</ele>
        <time>2021-11-18T09:02:40Z</time>
      </trkpt>
      <trkpt lat="44.17988" lon="6.9734">
        <ele>1930.2804883085</ele>
        <time>2021-11-18T09:02:42Z</time>
      </trkpt>
      <trkpt lat="44.17988" lon="6.97339">
        <ele>1930.2804883085</ele>
        <time>2021-11-18T09:02:43Z</time>
      </trkpt>
      <trkpt lat="44.17988" lon="6.97339">
        <ele>1930.2804819383</ele>
        <time>2021-11-18T09:02:45Z</time>
      </trkpt>
      <trkpt lat="44.17987" lon="6.97336">
        <ele>1930.2805037312</ele>
        <time>2021-11-18T09:02:46Z</time>
      </trkpt>
      <trkpt lat="44.17988" lon="6.97334">
        <ele>1930.2805008814</ele>
        <time>2021-11-18T09:02:47Z</time>
      </trkpt>
      <trkpt lat="44.17988" lon="6.97334">
        <ele>1929.2804893143</ele>
        <time>2021-11-18T09:02:48Z</time>
      </trkpt>
      <trkpt lat="44.17989" lon="6.97333">
        <ele>1929.2804609835</ele>
        <time>2021-11-18T09:02:49Z</time>
      </trkpt>
      <trkpt lat="44.17988" lon="6.97332">
        <ele>1928.2804685272</ele>
        <time>2021-11-18T09:02:50Z</time>
      </trkpt>
      <trkpt lat="44.17989" lon="6.97329">
        <ele>1927.2804606482</ele>
        <time>2021-11-18T09:02:52Z</time>
      </trkpt>
      <trkpt lat="44.17989" lon="6.97327">
        <ele>1927.2804546133</ele>
        <time>2021-11-18T09:02:53Z</time>
      </trkpt>
      <trkpt lat="44.17989" lon="6.97326">
        <ele>1927.280452434</ele>
        <time>2021-11-18T09:02:54Z</time>
      </trkpt>
      <trkpt lat="44.17989" lon="6.97324">
        <ele>1927.2804492489</ele>
        <time>2021-11-18T09:02:55Z</time>
      </trkpt>
      <trkpt lat="44.17989" lon="6.97323">
        <ele>1927.2804371789</ele>
        <time>2021-11-18T09:02:56Z</time>
      </trkpt>
      <trkpt lat="44.17989" lon="6.97323">
        <ele>1927.2804371789</ele>
        <time>2021-11-18T09:02:58Z</time>
      </trkpt>
      <trkpt lat="44.17989" lon="6.97321">
        <ele>1929.2804512605</ele>
        <time>2021-11-18T09:02:59Z</time>
      </trkpt>
      <trkpt lat="44.17988" lon="6.97321">
        <ele>1929.280468192</ele>
        <time>2021-11-18T09:03:00Z</time>
      </trkpt>
      <trkpt lat="44.17987" lon="6.97321">
        <ele>1929.2805102691</ele>
        <time>2021-11-18T09:03:01Z</time>
      </trkpt>
      <trkpt lat="44.17986" lon="6.97321">
        <ele>1930.2805565372</ele>
        <time>2021-11-18T09:03:03Z</time>
      </trkpt>
      <trkpt lat="44.17986" lon="6.97321">
        <ele>1930.2805813476</ele>
        <time>2021-11-18T09:03:04Z</time>
      </trkpt>
      <trkpt lat="44.17985" lon="6.97321">
        <ele>1931.2806090079</ele>
        <time>2021-11-18T09:03:05Z</time>
      </trkpt>
      <trkpt lat="44.17984" lon="6.97322">
        <ele>1931.2806329802</ele>
        <time>2021-11-18T09:03:06Z</time>
      </trkpt>
      <trkpt lat="44.17983" lon="6.97323">
        <ele>1931.2806847803</ele>
        <time>2021-11-18T09:03:08Z</time>
      </trkpt>
      <trkpt lat="44.17982" lon="6.97324">
        <ele>1931.2807338983</ele>
        <time>2021-11-18T09:03:09Z</time>
      </trkpt>
      <trkpt lat="44.17981" lon="6.97323">
        <ele>1931.2807602175</ele>
        <time>2021-11-18T09:03:10Z</time>
      </trkpt>
      <trkpt lat="44.1798" lon="6.97321">
        <ele>1931.2807858661</ele>
        <time>2021-11-18T09:03:12Z</time>
      </trkpt>
      <trkpt lat="44.1798" lon="6.9732">
        <ele>1931.2807919011</ele>
        <time>2021-11-18T09:03:13Z</time>
      </trkpt>
      <trkpt lat="44.1798" lon="6.9732">
        <ele>1931.2807830162</ele>
        <time>2021-11-18T09:03:14Z</time>
      </trkpt>
      <trkpt lat="44.17981" lon="6.97318">
        <ele>1931.2807764784</ele>
        <time>2021-11-18T09:03:16Z</time>
      </trkpt>
      <trkpt lat="44.17981" lon="6.97315">
        <ele>1932.2807498239</ele>
        <time>2021-11-18T09:03:18Z</time>
      </trkpt>
      <trkpt lat="44.17982" lon="6.97314">
        <ele>1932.2807417773</ele>
        <time>2021-11-18T09:03:19Z</time>
      </trkpt>
      <trkpt lat="44.17982" lon="6.97313">
        <ele>1933.2807416096</ele>
        <time>2021-11-18T09:03:20Z</time>
      </trkpt>
      <trkpt lat="44.17982" lon="6.97313">
        <ele>1933.2807265222</ele>
        <time>2021-11-18T09:03:22Z</time>
      </trkpt>
      <trkpt lat="44.17982" lon="6.97312">
        <ele>1933.2807300426</ele>
        <time>2021-11-18T09:03:23Z</time>
      </trkpt>
      <trkpt lat="44.17982" lon="6.97311">
        <ele>1933.2807406038</ele>
        <time>2021-11-18T09:03:25Z</time>
      </trkpt>
      <trkpt lat="44.17981" lon="6.97309">
        <ele>1933.2807737961</ele>
        <time>2021-11-18T09:03:26Z</time>
      </trkpt>
      <trkpt lat="44.1798" lon="6.97309">
        <ele>1933.2807919011</ele>
        <time>2021-11-18T09:03:27Z</time>
      </trkpt>
      <trkpt lat="44.1798" lon="6.97309">
        <ele>1933.2808081619</ele>
        <time>2021-11-18T09:03:28Z</time>
      </trkpt>
      <trkpt lat="44.17979" lon="6.97308">
        <ele>1932.2808361575</ele>
        <time>2021-11-18T09:03:29Z</time>
      </trkpt>
      <trkpt lat="44.17979" lon="6.97308">
        <ele>1932.2808514126</ele>
        <time>2021-11-18T09:03:30Z</time>
      </trkpt>
      <trkpt lat="44.17978" lon="6.97306">
        <ele>1932.2808723673</ele>
        <time>2021-11-18T09:03:32Z</time>
      </trkpt>
      <trkpt lat="44.17977" lon="6.97307">
        <ele>1932.280922994</ele>
        <time>2021-11-18T09:03:33Z</time>
      </trkpt>
      <trkpt lat="44.17977" lon="6.97305">
        <ele>1933.2809375785</ele>
        <time>2021-11-18T09:03:34Z</time>
      </trkpt>
      <trkpt lat="44.17976" lon="6.97305">
        <ele>1933.2809568569</ele>
        <time>2021-11-18T09:03:37Z</time>
      </trkpt>
      <trkpt lat="44.17976" lon="6.97303">
        <ele>1933.2809791528</ele>
        <time>2021-11-18T09:03:38Z</time>
      </trkpt>
      <trkpt lat="44.17976" lon="6.97302">
        <ele>1933.2809784822</ele>
        <time>2021-11-18T09:03:39Z</time>
      </trkpt>
      <trkpt lat="44.17976" lon="6.97301">
        <ele>1933.2809662446</ele>
        <time>2021-11-18T09:03:40Z</time>
      </trkpt>
      <trkpt lat="44.17976" lon="6.97301">
        <ele>1933.2809677534</ele>
        <time>2021-11-18T09:03:43Z</time>
      </trkpt>
      <trkpt lat="44.17976" lon="6.97299">
        <ele>1933.2809707709</ele>
        <time>2021-11-18T09:03:44Z</time>
      </trkpt>
      <trkpt lat="44.17976" lon="6.97298">
        <ele>1933.2809692621</ele>
        <time>2021-11-18T09:03:45Z</time>
      </trkpt>
      <trkpt lat="44.17976" lon="6.97296">
        <ele>1933.2809659094</ele>
        <time>2021-11-18T09:03:47Z</time>
      </trkpt>
      <trkpt lat="44.17976" lon="6.97296">
        <ele>1933.2809659094</ele>
        <time>2021-11-18T09:03:49Z</time>
      </trkpt>
      <trkpt lat="44.17976" lon="6.97294">
        <ele>1934.2809711061</ele>
        <time>2021-11-18T09:03:50Z</time>
      </trkpt>
      <trkpt lat="44.17975" lon="6.97293">
        <ele>1934.2809841819</ele>
        <time>2021-11-18T09:03:51Z</time>
      </trkpt>
      <trkpt lat="44.17976" lon="6.97293">
        <ele>1936.2809808291</ele>
        <time>2021-11-18T09:03:57Z</time>
      </trkpt>
      <trkpt lat="44.17974" lon="6.97296">
        <ele>1937.2810607925</ele>
        <time>2021-11-18T09:03:58Z</time>
      </trkpt>
      <trkpt lat="44.17973" lon="6.97297">
        <ele>1937.2810837589</ele>
        <time>2021-11-18T09:03:59Z</time>
      </trkpt>
      <trkpt lat="44.17972" lon="6.97297">
        <ele>1937.2811092399</ele>
        <time>2021-11-18T09:04:02Z</time>
      </trkpt>
      <trkpt lat="44.17971" lon="6.97296">
        <ele>1938.2811632194</ele>
        <time>2021-11-18T09:04:03Z</time>
      </trkpt>
      <trkpt lat="44.1797" lon="6.97296">
        <ele>1939.281188868</ele>
        <time>2021-11-18T09:04:04Z</time>
      </trkpt>
      <trkpt lat="44.1797" lon="6.97297">
        <ele>1940.2812163606</ele>
        <time>2021-11-18T09:04:05Z</time>
      </trkpt>
      <trkpt lat="44.17969" lon="6.97297">
        <ele>1941.2812490501</ele>
        <time>2021-11-18T09:04:07Z</time>
      </trkpt>
      <trkpt lat="44.17968" lon="6.97298">
        <ele>1941.2812668197</ele>
        <time>2021-11-18T09:04:08Z</time>
      </trkpt>
      <trkpt lat="44.17968" lon="6.97298">
        <ele>1941.2812886126</ele>
        <time>2021-11-18T09:04:09Z</time>
      </trkpt>
      <trkpt lat="44.17967" lon="6.97299">
        <ele>1941.2813043706</ele>
        <time>2021-11-18T09:04:10Z</time>
      </trkpt>
      <trkpt lat="44.17967" lon="6.973">
        <ele>1941.2813219726</ele>
        <time>2021-11-18T09:04:12Z</time>
      </trkpt>
      <trkpt lat="44.17966" lon="6.97301">
        <ele>1941.281372264</ele>
        <time>2021-11-18T09:04:13Z</time>
      </trkpt>
      <trkpt lat="44.17965" lon="6.97301">
        <ele>1942.2814073004</ele>
        <time>2021-11-18T09:04:14Z</time>
      </trkpt>
      <trkpt lat="44.17964" lon="6.97302">
        <ele>1942.2814483717</ele>
        <time>2021-11-18T09:04:15Z</time>
      </trkpt>
      <trkpt lat="44.17963" lon="6.97303">
        <ele>1943.2814725116</ele>
        <time>2021-11-18T09:04:16Z</time>
      </trkpt>
      <trkpt lat="44.17962" lon="6.97303">
        <ele>1943.2815204561</ele>
        <time>2021-11-18T09:04:18Z</time>
      </trkpt>
      <trkpt lat="44.17962" lon="6.97303">
        <ele>1943.2815204561</ele>
        <time>2021-11-18T09:04:21Z</time>
      </trkpt>
      <trkpt lat="44.17961" lon="6.97304">
        <ele>1943.281581644</ele>
        <time>2021-11-18T09:04:22Z</time>
      </trkpt>
      <trkpt lat="44.1796" lon="6.97303">
        <ele>1944.2816076279</ele>
        <time>2021-11-18T09:04:24Z</time>
      </trkpt>
      <trkpt lat="44.17959" lon="6.97304">
        <ele>1945.2816295885</ele>
        <time>2021-11-18T09:04:26Z</time>
      </trkpt>
      <trkpt lat="44.17958" lon="6.97303">
        <ele>1945.2816775329</ele>
        <time>2021-11-18T09:04:28Z</time>
      </trkpt>
      <trkpt lat="44.17958" lon="6.97303">
        <ele>1946.2816917822</ele>
        <time>2021-11-18T09:04:29Z</time>
      </trkpt>
      <trkpt lat="44.17957" lon="6.97302">
        <ele>1946.2817142457</ele>
        <time>2021-11-18T09:04:30Z</time>
      </trkpt>
      <trkpt lat="44.17957" lon="6.97302">
        <ele>1947.2817331888</ele>
        <time>2021-11-18T09:04:33Z</time>
      </trkpt>
      <trkpt lat="44.17956" lon="6.97303">
        <ele>1947.2817816362</ele>
        <time>2021-11-18T09:04:34Z</time>
      </trkpt>
      <trkpt lat="44.17954" lon="6.97302">
        <ele>1947.2818248868</ele>
        <time>2021-11-18T09:04:35Z</time>
      </trkpt>
      <trkpt lat="44.17954" lon="6.97302">
        <ele>1947.2818505354</ele>
        <time>2021-11-18T09:04:36Z</time>
      </trkpt>
      <trkpt lat="44.17953" lon="6.97302">
        <ele>1947.2818872482</ele>
        <time>2021-11-18T09:04:37Z</time>
      </trkpt>
      <trkpt lat="44.17952" lon="6.97301">
        <ele>1947.281911388</ele>
        <time>2021-11-18T09:04:38Z</time>
      </trkpt>
      <trkpt lat="44.17952" lon="6.97301">
        <ele>1948.281939216</ele>
        <time>2021-11-18T09:04:39Z</time>
      </trkpt>
      <trkpt lat="44.17951" lon="6.97302">
        <ele>1948.2819630206</ele>
        <time>2021-11-18T09:04:42Z</time>
      </trkpt>
      <trkpt lat="44.1795" lon="6.97302">
        <ele>1948.2820198499</ele>
        <time>2021-11-18T09:04:43Z</time>
      </trkpt>
      <trkpt lat="44.17949" lon="6.97301">
        <ele>1948.2820294052</ele>
        <time>2021-11-18T09:04:44Z</time>
      </trkpt>
      <trkpt lat="44.17949" lon="6.97301">
        <ele>1948.2820535451</ele>
        <time>2021-11-18T09:04:45Z</time>
      </trkpt>
      <trkpt lat="44.17948" lon="6.973">
        <ele>1949.2820967957</ele>
        <time>2021-11-18T09:04:47Z</time>
      </trkpt>
      <trkpt lat="44.17948" lon="6.97299">
        <ele>1950.2820921019</ele>
        <time>2021-11-18T09:04:48Z</time>
      </trkpt>
      <trkpt lat="44.17948" lon="6.97299">
        <ele>1950.2820750028</ele>
        <time>2021-11-18T09:04:49Z</time>
      </trkpt>
      <trkpt lat="44.17948" lon="6.97298">
        <ele>1950.282089252</ele>
        <time>2021-11-18T09:04:51Z</time>
      </trkpt>
      <trkpt lat="44.17947" lon="6.97298">
        <ele>1950.2821254618</ele>
        <time>2021-11-18T09:04:53Z</time>
      </trkpt>
      <trkpt lat="44.17946" lon="6.97297">
        <ele>1950.2821427286</ele>
        <time>2021-11-18T09:04:56Z</time>
      </trkpt>
      <trkpt lat="44.17946" lon="6.97298">
        <ele>1951.2821618393</ele>
        <time>2021-11-18T09:04:59Z</time>
      </trkpt>
      <trkpt lat="44.17945" lon="6.97298">
        <ele>1952.2822133042</ele>
        <time>2021-11-18T09:05:00Z</time>
      </trkpt>
      <trkpt lat="44.17944" lon="6.97298">
        <ele>1951.2822324149</ele>
        <time>2021-11-18T09:05:01Z</time>
      </trkpt>
      <trkpt lat="44.17944" lon="6.97296">
        <ele>1952.2822577283</ele>
        <time>2021-11-18T09:05:02Z</time>
      </trkpt>
      <trkpt lat="44.17944" lon="6.97295">
        <ele>1953.2822578959</ele>
        <time>2021-11-18T09:05:04Z</time>
      </trkpt>
      <trkpt lat="44.17944" lon="6.97295">
        <ele>1953.2822438143</ele>
        <time>2021-11-18T09:05:06Z</time>
      </trkpt>
      <trkpt lat="44.17944" lon="6.97294">
        <ele>1953.2822317444</ele>
        <time>2021-11-18T09:05:09Z</time>
      </trkpt>
      <trkpt lat="44.17944" lon="6.97291">
        <ele>1954.2822446525</ele>
        <time>2021-11-18T09:05:10Z</time>
      </trkpt>
      <trkpt lat="44.17945" lon="6.9729">
        <ele>1954.2822159864</ele>
        <time>2021-11-18T09:05:11Z</time>
      </trkpt>
      <trkpt lat="44.17945" lon="6.97289">
        <ele>1954.2821983844</ele>
        <time>2021-11-18T09:05:15Z</time>
      </trkpt>
      <trkpt lat="44.17945" lon="6.97287">
        <ele>1955.2822134718</ele>
        <time>2021-11-18T09:05:17Z</time>
      </trkpt>
      <trkpt lat="44.17945" lon="6.97286">
        <ele>1955.2822092809</ele>
        <time>2021-11-18T09:05:21Z</time>
      </trkpt>
      <trkpt lat="44.17944" lon="6.97283">
        <ele>1957.2822577283</ele>
        <time>2021-11-18T09:05:23Z</time>
      </trkpt>
      <trkpt lat="44.17943" lon="6.97283">
        <ele>1958.2822669484</ele>
        <time>2021-11-18T09:05:27Z</time>
      </trkpt>
      <trkpt lat="44.17942" lon="6.97284">
        <ele>1957.282318078</ele>
        <time>2021-11-18T09:05:28Z</time>
      </trkpt>
      <trkpt lat="44.17941" lon="6.97284">
        <ele>1957.2823511027</ele>
        <time>2021-11-18T09:05:30Z</time>
      </trkpt>
      <trkpt lat="44.17941" lon="6.97283">
        <ele>1957.2823687047</ele>
        <time>2021-11-18T09:05:33Z</time>
      </trkpt>
      <trkpt lat="44.17941" lon="6.97281">
        <ele>1957.2823769189</ele>
        <time>2021-11-18T09:05:34Z</time>
      </trkpt>
      <trkpt lat="44.17941" lon="6.97279">
        <ele>1958.2823737338</ele>
        <time>2021-11-18T09:05:36Z</time>
      </trkpt>
      <trkpt lat="44.17941" lon="6.97278">
        <ele>1958.2823485881</ele>
        <time>2021-11-18T09:05:38Z</time>
      </trkpt>
      <trkpt lat="44.17942" lon="6.97277">
        <ele>1958.282327801</ele>
        <time>2021-11-18T09:05:39Z</time>
      </trkpt>
      <trkpt lat="44.17942" lon="6.97277">
        <ele>1958.2823262922</ele>
        <time>2021-11-18T09:05:40Z</time>
      </trkpt>
      <trkpt lat="44.17942" lon="6.97276">
        <ele>1958.282339368</ele>
        <time>2021-11-18T09:05:42Z</time>
      </trkpt>
      <trkpt lat="44.17942" lon="6.97275">
        <ele>1959.2823298126</ele>
        <time>2021-11-18T09:05:43Z</time>
      </trkpt>
      <trkpt lat="44.17942" lon="6.97274">
        <ele>1959.2823073491</ele>
        <time>2021-11-18T09:05:44Z</time>
      </trkpt>
      <trkpt lat="44.17942" lon="6.97273">
        <ele>1959.282312043</ele>
        <time>2021-11-18T09:05:45Z</time>
      </trkpt>
      <trkpt lat="44.17942" lon="6.97272">
        <ele>1960.2823232748</ele>
        <time>2021-11-18T09:05:46Z</time>
      </trkpt>
      <trkpt lat="44.17943" lon="6.9727">
        <ele>1961.2822825387</ele>
        <time>2021-11-18T09:05:48Z</time>
      </trkpt>
      <trkpt lat="44.17943" lon="6.97269">
        <ele>1960.2822734863</ele>
        <time>2021-11-18T09:05:49Z</time>
      </trkpt>
      <trkpt lat="44.17944" lon="6.97268">
        <ele>1961.282255549</ele>
        <time>2021-11-18T09:05:55Z</time>
      </trkpt>
      <trkpt lat="44.17942" lon="6.97271">
        <ele>1959.2823313214</ele>
        <time>2021-11-18T09:05:57Z</time>
      </trkpt>
      <trkpt lat="44.17941" lon="6.97271">
        <ele>1959.2823445648</ele>
        <time>2021-11-18T09:05:58Z</time>
      </trkpt>
      <trkpt lat="44.17941" lon="6.97271">
        <ele>1959.2823740691</ele>
        <time>2021-11-18T09:06:01Z</time>
      </trkpt>
      <trkpt lat="44.17939" lon="6.9727">
        <ele>1959.2824327424</ele>
        <time>2021-11-18T09:06:02Z</time>
      </trkpt>
      <trkpt lat="44.17939" lon="6.97269">
        <ele>1959.2824473269</ele>
        <time>2021-11-18T09:06:03Z</time>
      </trkpt>
      <trkpt lat="44.17939" lon="6.97268">
        <ele>1959.2824567147</ele>
        <time>2021-11-18T09:06:04Z</time>
      </trkpt>
      <trkpt lat="44.17938" lon="6.97268">
        <ele>1959.2824709639</ele>
        <time>2021-11-18T09:06:07Z</time>
      </trkpt>
      <trkpt lat="44.17938" lon="6.97266">
        <ele>1959.2824858837</ele>
        <time>2021-11-18T09:06:08Z</time>
      </trkpt>
      <trkpt lat="44.17938" lon="6.97265">
        <ele>1960.282497786</ele>
        <time>2021-11-18T09:06:10Z</time>
      </trkpt>
      <trkpt lat="44.17937" lon="6.97265">
        <ele>1960.282511197</ele>
        <time>2021-11-18T09:06:11Z</time>
      </trkpt>
      <trkpt lat="44.17937" lon="6.97264">
        <ele>1961.2825373486</ele>
        <time>2021-11-18T09:06:12Z</time>
      </trkpt>
      <trkpt lat="44.17936" lon="6.97264">
        <ele>1961.2825666852</ele>
        <time>2021-11-18T09:06:18Z</time>
      </trkpt>
      <trkpt lat="44.17936" lon="6.97261">
        <ele>1961.2825521007</ele>
        <time>2021-11-18T09:06:19Z</time>
      </trkpt>
      <trkpt lat="44.17936" lon="6.9726">
        <ele>1960.2825428806</ele>
        <time>2021-11-18T09:06:20Z</time>
      </trkpt>
      <trkpt lat="44.17936" lon="6.97259">
        <ele>1960.2825588062</ele>
        <time>2021-11-18T09:06:21Z</time>
      </trkpt>
      <trkpt lat="44.17936" lon="6.97259">
        <ele>1960.282564003</ele>
        <time>2021-11-18T09:06:24Z</time>
      </trkpt>
      <trkpt lat="44.17935" lon="6.97258">
        <ele>1961.2825822756</ele>
        <time>2021-11-18T09:06:25Z</time>
      </trkpt>
      <trkpt lat="44.17935" lon="6.97257">
        <ele>1962.2826008834</ele>
        <time>2021-11-18T09:06:27Z</time>
      </trkpt>
      <trkpt lat="44.17935" lon="6.97256">
        <ele>1962.2826039009</ele>
        <time>2021-11-18T09:06:29Z</time>
      </trkpt>
      <trkpt lat="44.17935" lon="6.97254">
        <ele>1963.2826178148</ele>
        <time>2021-11-18T09:06:31Z</time>
      </trkpt>
      <trkpt lat="44.17934" lon="6.97254">
        <ele>1963.2826354168</ele>
        <time>2021-11-18T09:06:32Z</time>
      </trkpt>
      <trkpt lat="44.17934" lon="6.97254">
        <ele>1963.2826570421</ele>
        <time>2021-11-18T09:06:33Z</time>
      </trkpt>
      <trkpt lat="44.17933" lon="6.97254">
        <ele>1963.282681182</ele>
        <time>2021-11-18T09:06:35Z</time>
      </trkpt>
      <trkpt lat="44.17932" lon="6.97252">
        <ele>1963.2827229239</ele>
        <time>2021-11-18T09:06:37Z</time>
      </trkpt>
      <trkpt lat="44.17932" lon="6.9725">
        <ele>1964.2827155478</ele>
        <time>2021-11-18T09:06:38Z</time>
      </trkpt>
      <trkpt lat="44.17932" lon="6.97248">
        <ele>1964.2827034779</ele>
        <time>2021-11-18T09:06:39Z</time>
      </trkpt>
      <trkpt lat="44.17933" lon="6.97248">
        <ele>1964.282701131</ele>
        <time>2021-11-18T09:06:40Z</time>
      </trkpt>
      <trkpt lat="44.17933" lon="6.97247">
        <ele>1964.2826962695</ele>
        <time>2021-11-18T09:06:41Z</time>
      </trkpt>
      <trkpt lat="44.17933" lon="6.97246">
        <ele>1964.28267565</ele>
        <time>2021-11-18T09:06:42Z</time>
      </trkpt>
      <trkpt lat="44.17933" lon="6.97245">
        <ele>1965.2826749794</ele>
        <time>2021-11-18T09:06:44Z</time>
      </trkpt>
      <trkpt lat="44.17933" lon="6.97243">
        <ele>1965.2826704532</ele>
        <time>2021-11-18T09:06:46Z</time>
      </trkpt>
      <trkpt lat="44.17933" lon="6.97242">
        <ele>1966.2826701179</ele>
        <time>2021-11-18T09:06:49Z</time>
      </trkpt>
      <trkpt lat="44.17933" lon="6.97242">
        <ele>1966.2826671004</ele>
        <time>2021-11-18T09:06:50Z</time>
      </trkpt>
      <trkpt lat="44.17933" lon="6.97241">
        <ele>1966.2826665975</ele>
        <time>2021-11-18T09:06:53Z</time>
      </trkpt>
      <trkpt lat="44.17934" lon="6.97239">
        <ele>1968.2826540247</ele>
        <time>2021-11-18T09:06:54Z</time>
      </trkpt>
      <trkpt lat="44.17934" lon="6.97239">
        <ele>1968.2826567069</ele>
        <time>2021-11-18T09:06:55Z</time>
      </trkpt>
      <trkpt lat="44.17934" lon="6.97237">
        <ele>1969.2826416194</ele>
        <time>2021-11-18T09:06:57Z</time>
      </trkpt>
      <trkpt lat="44.17934" lon="6.97236">
        <ele>1969.2826367579</ele>
        <time>2021-11-18T09:06:58Z</time>
      </trkpt>
      <trkpt lat="44.17935" lon="6.97235">
        <ele>1969.282616809</ele>
        <time>2021-11-18T09:06:59Z</time>
      </trkpt>
      <trkpt lat="44.17935" lon="6.97235">
        <ele>1969.2825968601</ele>
        <time>2021-11-18T09:07:02Z</time>
      </trkpt>
      <trkpt lat="44.17936" lon="6.97232">
        <ele>1969.2825811021</ele>
        <time>2021-11-18T09:07:03Z</time>
      </trkpt>
      <trkpt lat="44.17936" lon="6.97231">
        <ele>1968.2825765759</ele>
        <time>2021-11-18T09:07:04Z</time>
      </trkpt>
      <trkpt lat="44.17935" lon="6.9723">
        <ele>1968.2825842872</ele>
        <time>2021-11-18T09:07:05Z</time>
      </trkpt>
      <trkpt lat="44.17935" lon="6.97228">
        <ele>1969.2825945131</ele>
        <time>2021-11-18T09:07:07Z</time>
      </trkpt>
      <trkpt lat="44.17935" lon="6.97228">
        <ele>1969.2825945131</ele>
        <time>2021-11-18T09:07:09Z</time>
      </trkpt>
      <trkpt lat="44.17936" lon="6.97226">
        <ele>1969.2825660147</ele>
        <time>2021-11-18T09:07:10Z</time>
      </trkpt>
      <trkpt lat="44.17937" lon="6.97224">
        <ele>1970.2825410366</ele>
        <time>2021-11-18T09:07:11Z</time>
      </trkpt>
      <trkpt lat="44.17937" lon="6.97223">
        <ele>1969.2825400308</ele>
        <time>2021-11-18T09:07:12Z</time>
      </trkpt>
      <trkpt lat="44.17936" lon="6.97223">
        <ele>1969.2825557888</ele>
        <time>2021-11-18T09:07:15Z</time>
      </trkpt>
      <trkpt lat="44.17934" lon="6.97223">
        <ele>1970.2826298848</ele>
        <time>2021-11-18T09:07:16Z</time>
      </trkpt>
      <trkpt lat="44.17934" lon="6.97224">
        <ele>1970.282653857</ele>
        <time>2021-11-18T09:07:17Z</time>
      </trkpt>
      <trkpt lat="44.17933" lon="6.97225">
        <ele>1969.2826791704</ele>
        <time>2021-11-18T09:07:18Z</time>
      </trkpt>
      <trkpt lat="44.17932" lon="6.97226">
        <ele>1969.2827147096</ele>
        <time>2021-11-18T09:07:19Z</time>
      </trkpt>
      <trkpt lat="44.17931" lon="6.97227">
        <ele>1969.2827450521</ele>
        <time>2021-11-18T09:07:20Z</time>
      </trkpt>
      <trkpt lat="44.17931" lon="6.97227">
        <ele>1969.282773383</ele>
        <time>2021-11-18T09:07:21Z</time>
      </trkpt>
      <trkpt lat="44.1793" lon="6.97227">
        <ele>1969.2827995345</ele>
        <time>2021-11-18T09:07:24Z</time>
      </trkpt>
      <trkpt lat="44.17929" lon="6.97228">
        <ele>1969.2828546874</ele>
        <time>2021-11-18T09:07:25Z</time>
      </trkpt>
      <trkpt lat="44.17928" lon="6.97229">
        <ele>1969.2828798331</ele>
        <time>2021-11-18T09:07:26Z</time>
      </trkpt>
      <trkpt lat="44.17927" lon="6.9723">
        <ele>1970.2829227485</ele>
        <time>2021-11-18T09:07:28Z</time>
      </trkpt>
      <trkpt lat="44.17926" lon="6.9723">
        <ele>1970.282950744</ele>
        <time>2021-11-18T09:07:29Z</time>
      </trkpt>
      <trkpt lat="44.17926" lon="6.9723">
        <ele>1970.282972537</ele>
        <time>2021-11-18T09:07:30Z</time>
      </trkpt>
      <trkpt lat="44.17925" lon="6.9723">
        <ele>1970.2830110937</ele>
        <time>2021-11-18T09:07:32Z</time>
      </trkpt>
      <trkpt lat="44.17925" lon="6.97231">
        <ele>1971.2830218226</ele>
        <time>2021-11-18T09:07:34Z</time>
      </trkpt>
      <trkpt lat="44.17924" lon="6.97232">
        <ele>1971.2830400951</ele>
        <time>2021-11-18T09:07:35Z</time>
      </trkpt>
      <trkpt lat="44.17923" lon="6.97233">
        <ele>1971.2830806635</ele>
        <time>2021-11-18T09:07:36Z</time>
      </trkpt>
      <trkpt lat="44.17922" lon="6.97233">
        <ele>1971.283109162</ele>
        <time>2021-11-18T09:07:37Z</time>
      </trkpt>
      <trkpt lat="44.17922" lon="6.97232">
        <ele>1971.2831301168</ele>
        <time>2021-11-18T09:07:38Z</time>
      </trkpt>
      <trkpt lat="44.17921" lon="6.97232">
        <ele>1971.2831641473</ele>
        <time>2021-11-18T09:07:39Z</time>
      </trkpt>
      <trkpt lat="44.1792" lon="6.97231">
        <ele>1971.2832000218</ele>
        <time>2021-11-18T09:07:40Z</time>
      </trkpt>
      <trkpt lat="44.17919" lon="6.9723">
        <ele>1972.283222653</ele>
        <time>2021-11-18T09:07:41Z</time>
      </trkpt>
      <trkpt lat="44.17919" lon="6.97229">
        <ele>1972.283228185</ele>
        <time>2021-11-18T09:07:42Z</time>
      </trkpt>
      <trkpt lat="44.17919" lon="6.97229">
        <ele>1972.2832365669</ele>
        <time>2021-11-18T09:07:43Z</time>
      </trkpt>
      <trkpt lat="44.17919" lon="6.97228">
        <ele>1972.2832370698</ele>
        <time>2021-11-18T09:07:44Z</time>
      </trkpt>
      <trkpt lat="44.17919" lon="6.97227">
        <ele>1972.2832369022</ele>
        <time>2021-11-18T09:07:46Z</time>
      </trkpt>
      <trkpt lat="44.1792" lon="6.97225">
        <ele>1972.2832214795</ele>
        <time>2021-11-18T09:07:48Z</time>
      </trkpt>
      <trkpt lat="44.17919" lon="6.97224">
        <ele>1973.2832290232</ele>
        <time>2021-11-18T09:07:49Z</time>
      </trkpt>
      <trkpt lat="44.17919" lon="6.97223">
        <ele>1973.2832429372</ele>
        <time>2021-11-18T09:07:50Z</time>
      </trkpt>
      <trkpt lat="44.17919" lon="6.97222">
        <ele>1974.2832486369</ele>
        <time>2021-11-18T09:07:53Z</time>
      </trkpt>
      <trkpt lat="44.17919" lon="6.97221">
        <ele>1974.2832585275</ele>
        <time>2021-11-18T09:07:54Z</time>
      </trkpt>
      <trkpt lat="44.17918" lon="6.9722">
        <ele>1976.2832768001</ele>
        <time>2021-11-18T09:07:59Z</time>
      </trkpt>
      <trkpt lat="44.17919" lon="6.97218">
        <ele>1976.2832496427</ele>
        <time>2021-11-18T09:08:00Z</time>
      </trkpt>
      <trkpt lat="44.17919" lon="6.97217">
        <ele>1976.2832414284</ele>
        <time>2021-11-18T09:08:01Z</time>
      </trkpt>
      <trkpt lat="44.17919" lon="6.97216">
        <ele>1976.2832422666</ele>
        <time>2021-11-18T09:08:02Z</time>
      </trkpt>
      <trkpt lat="44.17919" lon="6.97215">
        <ele>1977.2832534984</ele>
        <time>2021-11-18T09:08:05Z</time>
      </trkpt>
      <trkpt lat="44.17918" lon="6.97213">
        <ele>1977.2832632214</ele>
        <time>2021-11-18T09:08:06Z</time>
      </trkpt>
      <trkpt lat="44.17918" lon="6.97212">
        <ele>1977.2832650654</ele>
        <time>2021-11-18T09:08:07Z</time>
      </trkpt>
      <trkpt lat="44.17918" lon="6.97211">
        <ele>1976.2832747884</ele>
        <time>2021-11-18T09:08:08Z</time>
      </trkpt>
      <trkpt lat="44.17918" lon="6.9721">
        <ele>1977.2832799852</ele>
        <time>2021-11-18T09:08:11Z</time>
      </trkpt>
      <trkpt lat="44.17918" lon="6.97207">
        <ele>1977.2832920551</ele>
        <time>2021-11-18T09:08:12Z</time>
      </trkpt>
      <trkpt lat="44.17918" lon="6.97206">
        <ele>1978.2832746208</ele>
        <time>2021-11-18T09:08:14Z</time>
      </trkpt>
      <trkpt lat="44.17918" lon="6.97205">
        <ele>1978.283280991</ele>
        <time>2021-11-18T09:08:15Z</time>
      </trkpt>
      <trkpt lat="44.17918" lon="6.97205">
        <ele>1978.283280991</ele>
        <time>2021-11-18T09:08:17Z</time>
      </trkpt>
      <trkpt lat="44.17918" lon="6.97203">
        <ele>1978.2832776383</ele>
        <time>2021-11-18T09:08:18Z</time>
      </trkpt>
      <trkpt lat="44.17918" lon="6.97202">
        <ele>1977.2832737826</ele>
        <time>2021-11-18T09:08:19Z</time>
      </trkpt>
      <trkpt lat="44.17918" lon="6.972">
        <ele>1977.2832684182</ele>
        <time>2021-11-18T09:08:21Z</time>
      </trkpt>
      <trkpt lat="44.17918" lon="6.97199">
        <ele>1978.2832719386</ele>
        <time>2021-11-18T09:08:23Z</time>
      </trkpt>
      <trkpt lat="44.17918" lon="6.97198">
        <ele>1978.2832722738</ele>
        <time>2021-11-18T09:08:28Z</time>
      </trkpt>
      <trkpt lat="44.17917" lon="6.97197">
        <ele>1979.2833031192</ele>
        <time>2021-11-18T09:08:29Z</time>
      </trkpt>
      <trkpt lat="44.17918" lon="6.97197">
        <ele>1978.2832727768</ele>
        <time>2021-11-18T09:08:41Z</time>
      </trkpt>
      <trkpt lat="44.17918" lon="6.97195">
        <ele>1978.2832865231</ele>
        <time>2021-11-18T09:08:43Z</time>
      </trkpt>
      <trkpt lat="44.17918" lon="6.97195">
        <ele>1979.2832873613</ele>
        <time>2021-11-18T09:08:45Z</time>
      </trkpt>
      <trkpt lat="44.17917" lon="6.97195">
        <ele>1979.2833108306</ele>
        <time>2021-11-18T09:08:51Z</time>
      </trkpt>
      <trkpt lat="44.17917" lon="6.97197">
        <ele>1979.2833187096</ele>
        <time>2021-11-18T09:08:53Z</time>
      </trkpt>
      <trkpt lat="44.17917" lon="6.97198">
        <ele>1978.2833341323</ele>
        <time>2021-11-18T09:08:54Z</time>
      </trkpt>
      <trkpt lat="44.17916" lon="6.97198">
        <ele>1978.2833577693</ele>
        <time>2021-11-18T09:08:55Z</time>
      </trkpt>
      <trkpt lat="44.17915" lon="6.97198">
        <ele>1978.2834047079</ele>
        <time>2021-11-18T09:08:57Z</time>
      </trkpt>
      <trkpt lat="44.17914" lon="6.97198">
        <ele>1978.2834581845</ele>
        <time>2021-11-18T09:08:58Z</time>
      </trkpt>
      <trkpt lat="44.17913" lon="6.97196">
        <ele>1978.283463046</ele>
        <time>2021-11-18T09:08:59Z</time>
      </trkpt>
      <trkpt lat="44.17913" lon="6.97195">
        <ele>1979.2834642194</ele>
        <time>2021-11-18T09:09:00Z</time>
      </trkpt>
      <trkpt lat="44.17913" lon="6.97194">
        <ele>1979.2834717631</ele>
        <time>2021-11-18T09:09:01Z</time>
      </trkpt>
      <trkpt lat="44.17913" lon="6.97193">
        <ele>1979.2834885269</ele>
        <time>2021-11-18T09:09:03Z</time>
      </trkpt>
      <trkpt lat="44.17912" lon="6.97194">
        <ele>1979.2835118286</ele>
        <time>2021-11-18T09:09:04Z</time>
      </trkpt>
      <trkpt lat="44.17912" lon="6.97194">
        <ele>1979.2835022733</ele>
        <time>2021-11-18T09:09:05Z</time>
      </trkpt>
      <trkpt lat="44.17912" lon="6.97195">
        <ele>1979.2835208811</ele>
        <time>2021-11-18T09:09:06Z</time>
      </trkpt>
      <trkpt lat="44.17911" lon="6.97194">
        <ele>1980.2835495472</ele>
        <time>2021-11-18T09:09:08Z</time>
      </trkpt>
      <trkpt lat="44.17911" lon="6.97195">
        <ele>1980.2835763693</ele>
        <time>2021-11-18T09:09:10Z</time>
      </trkpt>
      <trkpt lat="44.17909" lon="6.97196">
        <ele>1980.2836357132</ele>
        <time>2021-11-18T09:09:12Z</time>
      </trkpt>
      <trkpt lat="44.17908" lon="6.97196">
        <ele>1980.2836678997</ele>
        <time>2021-11-18T09:09:13Z</time>
      </trkpt>
      <trkpt lat="44.17908" lon="6.97195">
        <ele>1981.2836947218</ele>
        <time>2021-11-18T09:09:14Z</time>
      </trkpt>
      <trkpt lat="44.17907" lon="6.97196">
        <ele>1981.283722382</ele>
        <time>2021-11-18T09:09:17Z</time>
      </trkpt>
      <trkpt lat="44.17905" lon="6.97196">
        <ele>1982.2837964781</ele>
        <time>2021-11-18T09:09:18Z</time>
      </trkpt>
      <trkpt lat="44.17905" lon="6.97197">
        <ele>1982.2838135771</ele>
        <time>2021-11-18T09:09:19Z</time>
      </trkpt>
      <trkpt lat="44.17904" lon="6.97197">
        <ele>1982.283830341</ele>
        <time>2021-11-18T09:09:20Z</time>
      </trkpt>
      <trkpt lat="44.17904" lon="6.97198">
        <ele>1983.2838445902</ele>
        <time>2021-11-18T09:09:23Z</time>
      </trkpt>
      <trkpt lat="44.17903" lon="6.97199">
        <ele>1983.2838761061</ele>
        <time>2021-11-18T09:09:24Z</time>
      </trkpt>
      <trkpt lat="44.17903" lon="6.97199">
        <ele>1983.2838950492</ele>
        <time>2021-11-18T09:09:25Z</time>
      </trkpt>
      <trkpt lat="44.17902" lon="6.97199">
        <ele>1983.2839265652</ele>
        <time>2021-11-18T09:09:28Z</time>
      </trkpt>
      <trkpt lat="44.17902" lon="6.97198">
        <ele>1984.2839329354</ele>
        <time>2021-11-18T09:09:31Z</time>
      </trkpt>
      <trkpt lat="44.17902" lon="6.97196">
        <ele>1983.2839240506</ele>
        <time>2021-11-18T09:09:32Z</time>
      </trkpt>
      <trkpt lat="44.17902" lon="6.97195">
        <ele>1984.2839270681</ele>
        <time>2021-11-18T09:09:35Z</time>
      </trkpt>
      <trkpt lat="44.17902" lon="6.97194">
        <ele>1984.2839066163</ele>
        <time>2021-11-18T09:09:38Z</time>
      </trkpt>
      <trkpt lat="44.17903" lon="6.97193">
        <ele>1985.2838875055</ele>
        <time>2021-11-18T09:09:39Z</time>
      </trkpt>
      <trkpt lat="44.17903" lon="6.97192">
        <ele>1985.2838880084</ele>
        <time>2021-11-18T09:09:40Z</time>
      </trkpt>
      <trkpt lat="44.17903" lon="6.9719">
        <ele>1985.2838975638</ele>
        <time>2021-11-18T09:09:42Z</time>
      </trkpt>
      <trkpt lat="44.17903" lon="6.9719">
        <ele>1985.2838975638</ele>
        <time>2021-11-18T09:09:44Z</time>
      </trkpt>
      <trkpt lat="44.17902" lon="6.97187">
        <ele>1985.2839076221</ele>
        <time>2021-11-18T09:09:45Z</time>
      </trkpt>
      <trkpt lat="44.17902" lon="6.97186">
        <ele>1985.2839111425</ele>
        <time>2021-11-18T09:09:46Z</time>
      </trkpt>
      <trkpt lat="44.17902" lon="6.97185">
        <ele>1985.2839297503</ele>
        <time>2021-11-18T09:09:48Z</time>
      </trkpt>
      <trkpt lat="44.17902" lon="6.97185">
        <ele>1985.2839297503</ele>
        <time>2021-11-18T09:09:50Z</time>
      </trkpt>
      <trkpt lat="44.17901" lon="6.97183">
        <ele>1986.2839701511</ele>
        <time>2021-11-18T09:09:51Z</time>
      </trkpt>
      <trkpt lat="44.179" lon="6.97184">
        <ele>1986.284009546</ele>
        <time>2021-11-18T09:09:53Z</time>
      </trkpt>
      <trkpt lat="44.17899" lon="6.97185">
        <ele>1985.2840266451</ele>
        <time>2021-11-18T09:09:54Z</time>
      </trkpt>
      <trkpt lat="44.17899" lon="6.97185">
        <ele>1986.2840336859</ele>
        <time>2021-11-18T09:09:55Z</time>
      </trkpt>
      <trkpt lat="44.17898" lon="6.97185">
        <ele>1987.2840766013</ele>
        <time>2021-11-18T09:09:56Z</time>
      </trkpt>
      <trkpt lat="44.17898" lon="6.97186">
        <ele>1987.2840992324</ele>
        <time>2021-11-18T09:09:57Z</time>
      </trkpt>
      <trkpt lat="44.17897" lon="6.97186">
        <ele>1986.2841344364</ele>
        <time>2021-11-18T09:09:59Z</time>
      </trkpt>
      <trkpt lat="44.17896" lon="6.97186">
        <ele>1986.2841540501</ele>
        <time>2021-11-18T09:10:01Z</time>
      </trkpt>
      <trkpt lat="44.17896" lon="6.97186">
        <ele>1986.2841688022</ele>
        <time>2021-11-18T09:10:02Z</time>
      </trkpt>
      <trkpt lat="44.17895" lon="6.97187">
        <ele>1986.2841984741</ele>
        <time>2021-11-18T09:10:03Z</time>
      </trkpt>
      <trkpt lat="44.17894" lon="6.97186">
        <ele>1986.2842276432</ele>
        <time>2021-11-18T09:10:04Z</time>
      </trkpt>
      <trkpt lat="44.17894" lon="6.97186">
        <ele>1986.2842395455</ele>
        <time>2021-11-18T09:10:05Z</time>
      </trkpt>
      <trkpt lat="44.17893" lon="6.97185">
        <ele>1987.284263853</ele>
        <time>2021-11-18T09:10:08Z</time>
      </trkpt>
      <trkpt lat="44.17893" lon="6.97186">
        <ele>1987.2842812873</ele>
        <time>2021-11-18T09:10:09Z</time>
      </trkpt>
      <trkpt lat="44.17893" lon="6.97186">
        <ele>1987.2842891663</ele>
        <time>2021-11-18T09:10:12Z</time>
      </trkpt>
      <trkpt lat="44.17891" lon="6.97185">
        <ele>1988.2843647711</ele>
        <time>2021-11-18T09:10:13Z</time>
      </trkpt>
      <trkpt lat="44.17891" lon="6.97185">
        <ele>1988.2843754999</ele>
        <time>2021-11-18T09:10:14Z</time>
      </trkpt>
      <trkpt lat="44.17891" lon="6.97184">
        <ele>1988.2843815349</ele>
        <time>2021-11-18T09:10:15Z</time>
      </trkpt>
      <trkpt lat="44.1789" lon="6.97184">
        <ele>1989.2844159007</ele>
        <time>2021-11-18T09:10:17Z</time>
      </trkpt>
      <trkpt lat="44.17889" lon="6.97181">
        <ele>1990.2844324969</ele>
        <time>2021-11-18T09:10:19Z</time>
      </trkpt>
      <trkpt lat="44.1789" lon="6.97179">
        <ele>1989.2844140567</ele>
        <time>2021-11-18T09:10:20Z</time>
      </trkpt>
      <trkpt lat="44.1789" lon="6.97178">
        <ele>1990.2844028249</ele>
        <time>2021-11-18T09:10:21Z</time>
      </trkpt>
      <trkpt lat="44.1789" lon="6.97176">
        <ele>1990.2844031602</ele>
        <time>2021-11-18T09:10:23Z</time>
      </trkpt>
      <trkpt lat="44.1789" lon="6.97176">
        <ele>1991.2844212651</ele>
        <time>2021-11-18T09:10:24Z</time>
      </trkpt>
      <trkpt lat="44.17889" lon="6.97175">
        <ele>1991.284441717</ele>
        <time>2021-11-18T09:10:26Z</time>
      </trkpt>
      <trkpt lat="44.17889" lon="6.97174">
        <ele>1991.2844603248</ele>
        <time>2021-11-18T09:10:27Z</time>
      </trkpt>
      <trkpt lat="44.17888" lon="6.97173">
        <ele>1991.2844775915</ele>
        <time>2021-11-18T09:10:28Z</time>
      </trkpt>
      <trkpt lat="44.17888" lon="6.97172">
        <ele>1991.284498211</ele>
        <time>2021-11-18T09:10:29Z</time>
      </trkpt>
      <trkpt lat="44.17887" lon="6.97172">
        <ele>1992.2845268771</ele>
        <time>2021-11-18T09:10:30Z</time>
      </trkpt>
      <trkpt lat="44.17886" lon="6.97171">
        <ele>1992.2845585607</ele>
        <time>2021-11-18T09:10:31Z</time>
      </trkpt>
      <trkpt lat="44.17885" lon="6.97171">
        <ele>1993.2845900767</ele>
        <time>2021-11-18T09:10:33Z</time>
      </trkpt>
      <trkpt lat="44.17885" lon="6.97171">
        <ele>1994.2845976204</ele>
        <time>2021-11-18T09:10:36Z</time>
      </trkpt>
      <trkpt lat="44.17884" lon="6.9717">
        <ele>1994.2846396975</ele>
        <time>2021-11-18T09:10:37Z</time>
      </trkpt>
      <trkpt lat="44.17884" lon="6.9717">
        <ele>1994.2846609876</ele>
        <time>2021-11-18T09:10:39Z</time>
      </trkpt>
      <trkpt lat="44.17883" lon="6.97169">
        <ele>1995.2846732251</ele>
        <time>2021-11-18T09:10:40Z</time>
      </trkpt>
      <trkpt lat="44.17882" lon="6.97169">
        <ele>1995.2847198285</ele>
        <time>2021-11-18T09:10:42Z</time>
      </trkpt>
      <trkpt lat="44.17882" lon="6.97169">
        <ele>1995.2847198285</ele>
        <time>2021-11-18T09:10:44Z</time>
      </trkpt>
      <trkpt lat="44.17881" lon="6.97168">
        <ele>1995.2847805135</ele>
        <time>2021-11-18T09:10:45Z</time>
      </trkpt>
      <trkpt lat="44.1788" lon="6.97168">
        <ele>1995.2848111913</ele>
        <time>2021-11-18T09:10:46Z</time>
      </trkpt>
      <trkpt lat="44.17879" lon="6.97167">
        <ele>1994.2848440483</ele>
        <time>2021-11-18T09:10:48Z</time>
      </trkpt>
      <trkpt lat="44.17878" lon="6.97167">
        <ele>1995.2848720439</ele>
        <time>2021-11-18T09:10:51Z</time>
      </trkpt>
      <trkpt lat="44.17877" lon="6.97167">
        <ele>1996.2849266939</ele>
        <time>2021-11-18T09:10:53Z</time>
      </trkpt>
      <trkpt lat="44.17876" lon="6.97166">
        <ele>1996.2849530131</ele>
        <time>2021-11-18T09:10:54Z</time>
      </trkpt>
      <trkpt lat="44.17876" lon="6.97165">
        <ele>1997.2849612273</ele>
        <time>2021-11-18T09:10:55Z</time>
      </trkpt>
      <trkpt lat="44.17875" lon="6.97165">
        <ele>1997.2849944197</ele>
        <time>2021-11-18T09:10:58Z</time>
      </trkpt>
      <trkpt lat="44.17875" lon="6.97166">
        <ele>1997.285011854</ele>
        <time>2021-11-18T09:11:00Z</time>
      </trkpt>
      <trkpt lat="44.17874" lon="6.97167">
        <ele>1997.2850269414</ele>
        <time>2021-11-18T09:11:02Z</time>
      </trkpt>
      <trkpt lat="44.17874" lon="6.97168">
        <ele>1997.2850401849</ele>
        <time>2021-11-18T09:11:03Z</time>
      </trkpt>
      <trkpt lat="44.17873" lon="6.97168">
        <ele>1997.2850690186</ele>
        <time>2021-11-18T09:11:04Z</time>
      </trkpt>
      <trkpt lat="44.17873" lon="6.97169">
        <ele>1997.285091985</ele>
        <time>2021-11-18T09:11:05Z</time>
      </trkpt>
      <trkpt lat="44.17872" lon="6.97169">
        <ele>1997.2851092517</ele>
        <time>2021-11-18T09:11:06Z</time>
      </trkpt>
      <trkpt lat="44.17872" lon="6.97168">
        <ele>1997.2851276919</ele>
        <time>2021-11-18T09:11:07Z</time>
      </trkpt>
      <trkpt lat="44.17871" lon="6.97168">
        <ele>1998.2851576991</ele>
        <time>2021-11-18T09:11:08Z</time>
      </trkpt>
      <trkpt lat="44.1787" lon="6.97167">
        <ele>1998.2851882093</ele>
        <time>2021-11-18T09:11:11Z</time>
      </trkpt>
      <trkpt lat="44.17869" lon="6.97167">
        <ele>1999.2852373272</ele>
        <time>2021-11-18T09:11:12Z</time>
      </trkpt>
      <trkpt lat="44.17868" lon="6.97166">
        <ele>1999.2852624729</ele>
        <time>2021-11-18T09:11:13Z</time>
      </trkpt>
      <trkpt lat="44.17868" lon="6.97165">
        <ele>1999.2852857746</ele>
        <time>2021-11-18T09:11:14Z</time>
      </trkpt>
      <trkpt lat="44.17867" lon="6.97164">
        <ele>2000.2853146084</ele>
        <time>2021-11-18T09:11:15Z</time>
      </trkpt>
      <trkpt lat="44.17866" lon="6.97164">
        <ele>2000.2853519917</ele>
        <time>2021-11-18T09:11:17Z</time>
      </trkpt>
      <trkpt lat="44.17865" lon="6.97163">
        <ele>2000.2853825018</ele>
        <time>2021-11-18T09:11:19Z</time>
      </trkpt>
      <trkpt lat="44.17865" lon="6.97163">
        <ele>2000.2854086533</ele>
        <time>2021-11-18T09:11:20Z</time>
      </trkpt>
      <trkpt lat="44.17864" lon="6.97162">
        <ele>2000.2854373194</ele>
        <time>2021-11-18T09:11:21Z</time>
      </trkpt>
      <trkpt lat="44.17863" lon="6.97162">
        <ele>2000.2854696736</ele>
        <time>2021-11-18T09:11:22Z</time>
      </trkpt>
      <trkpt lat="44.17863" lon="6.97161">
        <ele>2000.2854964957</ele>
        <time>2021-11-18T09:11:24Z</time>
      </trkpt>
      <trkpt lat="44.17863" lon="6.97159">
        <ele>2000.2854882814</ele>
        <time>2021-11-18T09:11:26Z</time>
      </trkpt>
      <trkpt lat="44.17864" lon="6.97158">
        <ele>2000.2854383253</ele>
        <time>2021-11-18T09:11:28Z</time>
      </trkpt>
      <trkpt lat="44.17864" lon="6.97157">
        <ele>2000.2854332961</ele>
        <time>2021-11-18T09:11:29Z</time>
      </trkpt>
      <trkpt lat="44.17864" lon="6.97156">
        <ele>2000.2854280993</ele>
        <time>2021-11-18T09:11:30Z</time>
      </trkpt>
      <trkpt lat="44.17864" lon="6.97155">
        <ele>2000.2854311168</ele>
        <time>2021-11-18T09:11:32Z</time>
      </trkpt>
      <trkpt lat="44.17864" lon="6.97154">
        <ele>2001.2854339667</ele>
        <time>2021-11-18T09:11:33Z</time>
      </trkpt>
      <trkpt lat="44.17864" lon="6.97154">
        <ele>2001.2854497246</ele>
        <time>2021-11-18T09:11:34Z</time>
      </trkpt>
      <trkpt lat="44.17863" lon="6.97154">
        <ele>2001.2854705118</ele>
        <time>2021-11-18T09:11:35Z</time>
      </trkpt>
      <trkpt lat="44.17863" lon="6.97154">
        <ele>2001.2854985073</ele>
        <time>2021-11-18T09:11:38Z</time>
      </trkpt>
      <trkpt lat="44.17861" lon="6.97155">
        <ele>2001.2855546661</ele>
        <time>2021-11-18T09:11:39Z</time>
      </trkpt>
      <trkpt lat="44.1786" lon="6.97156">
        <ele>2001.2855923846</ele>
        <time>2021-11-18T09:11:40Z</time>
      </trkpt>
      <trkpt lat="44.1786" lon="6.97155">
        <ele>2001.2856119983</ele>
        <time>2021-11-18T09:11:41Z</time>
      </trkpt>
      <trkpt lat="44.17859" lon="6.97155">
        <ele>2002.2856369764</ele>
        <time>2021-11-18T09:11:47Z</time>
      </trkpt>
      <trkpt lat="44.17858" lon="6.97154">
        <ele>2003.2856674865</ele>
        <time>2021-11-18T09:11:48Z</time>
      </trkpt>
      <trkpt lat="44.17858" lon="6.97154">
        <ele>2004.285688106</ele>
        <time>2021-11-18T09:11:49Z</time>
      </trkpt>
      <trkpt lat="44.17858" lon="6.97154">
        <ele>2003.2856629603</ele>
        <time>2021-11-18T09:11:56Z</time>
      </trkpt>
      <trkpt lat="44.17858" lon="6.97153">
        <ele>2003.2856649719</ele>
        <time>2021-11-18T09:12:06Z</time>
      </trkpt>
      <trkpt lat="44.17858" lon="6.97152">
        <ele>2003.2856849208</ele>
        <time>2021-11-18T09:12:08Z</time>
      </trkpt>
      <trkpt lat="44.17858" lon="6.97152">
        <ele>2004.2856929675</ele>
        <time>2021-11-18T09:12:10Z</time>
      </trkpt>
      <trkpt lat="44.17859" lon="6.97151">
        <ele>2003.2856508903</ele>
        <time>2021-11-18T09:12:12Z</time>
      </trkpt>
      <trkpt lat="44.17859" lon="6.97151">
        <ele>2003.2856448554</ele>
        <time>2021-11-18T09:12:21Z</time>
      </trkpt>
      <trkpt lat="44.17858" lon="6.97149">
        <ele>2004.2856775448</ele>
        <time>2021-11-18T09:12:23Z</time>
      </trkpt>
      <trkpt lat="44.17859" lon="6.97149">
        <ele>2002.2856601104</ele>
        <time>2021-11-18T09:12:48Z</time>
      </trkpt>
      <trkpt lat="44.17857" lon="6.9715">
        <ele>2001.2857305184</ele>
        <time>2021-11-18T09:12:49Z</time>
      </trkpt>
      <trkpt lat="44.17856" lon="6.97151">
        <ele>2001.2857491262</ele>
        <time>2021-11-18T09:13:06Z</time>
      </trkpt>
      <trkpt lat="44.17855" lon="6.97151">
        <ele>2000.285785839</ele>
        <time>2021-11-18T09:13:08Z</time>
      </trkpt>
      <trkpt lat="44.17855" lon="6.9715">
        <ele>2001.2857953943</ele>
        <time>2021-11-18T09:13:16Z</time>
      </trkpt>
      <trkpt lat="44.17855" lon="6.97149">
        <ele>2000.2858146727</ele>
        <time>2021-11-18T09:13:21Z</time>
      </trkpt>
      <trkpt lat="44.17855" lon="6.9715">
        <ele>2000.2858133316</ele>
        <time>2021-11-18T09:13:29Z</time>
      </trkpt>
      <trkpt lat="44.17855" lon="6.97151">
        <ele>2001.2857901976</ele>
        <time>2021-11-18T09:13:30Z</time>
      </trkpt>
      <trkpt lat="44.17856" lon="6.97152">
        <ele>2001.2857808098</ele>
        <time>2021-11-18T09:13:36Z</time>
      </trkpt>
      <trkpt lat="44.17855" lon="6.97153">
        <ele>2001.2857881859</ele>
        <time>2021-11-18T09:13:41Z</time>
      </trkpt>
      <trkpt lat="44.17855" lon="6.97153">
        <ele>2002.2857995853</ele>
        <time>2021-11-18T09:13:42Z</time>
      </trkpt>
      <trkpt lat="44.17855" lon="6.97154">
        <ele>2002.2858195342</ele>
        <time>2021-11-18T09:13:58Z</time>
      </trkpt>
      <trkpt lat="44.17855" lon="6.97155">
        <ele>2003.2858133316</ele>
        <time>2021-11-18T09:14:01Z</time>
      </trkpt>
      <trkpt lat="44.17855" lon="6.97157">
        <ele>2004.285813164</ele>
        <time>2021-11-18T09:14:03Z</time>
      </trkpt>
      <trkpt lat="44.17854" lon="6.97157">
        <ele>2003.285836298</ele>
        <time>2021-11-18T09:14:05Z</time>
      </trkpt>
      <trkpt lat="44.17854" lon="6.97156">
        <ele>2003.2858324423</ele>
        <time>2021-11-18T09:14:16Z</time>
      </trkpt>
      <trkpt lat="44.17854" lon="6.97156">
        <ele>2004.2858403213</ele>
        <time>2021-11-18T09:14:33Z</time>
      </trkpt>
      <trkpt lat="44.17854" lon="6.97155">
        <ele>2004.2858414948</ele>
        <time>2021-11-18T09:14:53Z</time>
      </trkpt>
      <trkpt lat="44.17854" lon="6.97154">
        <ele>2004.2858311012</ele>
        <time>2021-11-18T09:14:54Z</time>
      </trkpt>
      <trkpt lat="44.17855" lon="6.97153">
        <ele>2003.2858161815</ele>
        <time>2021-11-18T09:15:03Z</time>
      </trkpt>
      <trkpt lat="44.17854" lon="6.97153">
        <ele>2003.2858549058</ele>
        <time>2021-11-18T09:15:04Z</time>
      </trkpt>
      <trkpt lat="44.17853" lon="6.97151">
        <ele>2003.285879381</ele>
        <time>2021-11-18T09:15:05Z</time>
      </trkpt>
      <trkpt lat="44.17852" lon="6.97151">
        <ele>2003.285906706</ele>
        <time>2021-11-18T09:15:06Z</time>
      </trkpt>
      <trkpt lat="44.17852" lon="6.97149">
        <ele>2002.2859105617</ele>
        <time>2021-11-18T09:15:08Z</time>
      </trkpt>
      <trkpt lat="44.17851" lon="6.97149">
        <ele>2002.2859541476</ele>
        <time>2021-11-18T09:15:09Z</time>
      </trkpt>
      <trkpt lat="44.17851" lon="6.97149">
        <ele>2003.285973426</ele>
        <time>2021-11-18T09:15:10Z</time>
      </trkpt>
      <trkpt lat="44.1785" lon="6.97148">
        <ele>2003.2860084623</ele>
        <time>2021-11-18T09:15:13Z</time>
      </trkpt>
      <trkpt lat="44.17849" lon="6.97149">
        <ele>2002.2860460132</ele>
        <time>2021-11-18T09:15:14Z</time>
      </trkpt>
      <trkpt lat="44.17848" lon="6.97149">
        <ele>2002.2860770263</ele>
        <time>2021-11-18T09:15:15Z</time>
      </trkpt>
      <trkpt lat="44.17847" lon="6.97148">
        <ele>2003.2861382142</ele>
        <time>2021-11-18T09:15:17Z</time>
      </trkpt>
      <trkpt lat="44.17846" lon="6.97147">
        <ele>2003.2861581631</ele>
        <time>2021-11-18T09:15:18Z</time>
      </trkpt>
      <trkpt lat="44.17846" lon="6.97147">
        <ele>2002.2861819677</ele>
        <time>2021-11-18T09:15:19Z</time>
      </trkpt>
      <trkpt lat="44.17845" lon="6.97146">
        <ele>2002.286215663</ele>
        <time>2021-11-18T09:15:20Z</time>
      </trkpt>
      <trkpt lat="44.17844" lon="6.97145">
        <ele>2003.2862433232</ele>
        <time>2021-11-18T09:15:21Z</time>
      </trkpt>
      <trkpt lat="44.17844" lon="6.97144">
        <ele>2004.2862597518</ele>
        <time>2021-11-18T09:15:22Z</time>
      </trkpt>
      <trkpt lat="44.17843" lon="6.97143">
        <ele>2004.2862743363</ele>
        <time>2021-11-18T09:15:25Z</time>
      </trkpt>
      <trkpt lat="44.17843" lon="6.97142">
        <ele>2004.2862706482</ele>
        <time>2021-11-18T09:15:29Z</time>
      </trkpt>
      <trkpt lat="44.17842" lon="6.97141">
        <ele>2005.2863237895</ele>
        <time>2021-11-18T09:15:30Z</time>
      </trkpt>
      <trkpt lat="44.17841" lon="6.97141">
        <ele>2004.2863625139</ele>
        <time>2021-11-18T09:15:31Z</time>
      </trkpt>
      <trkpt lat="44.1784" lon="6.9714">
        <ele>2005.2864005677</ele>
        <time>2021-11-18T09:15:33Z</time>
      </trkpt>
      <trkpt lat="44.17839" lon="6.97139">
        <ele>2005.2864270546</ele>
        <time>2021-11-18T09:15:34Z</time>
      </trkpt>
      <trkpt lat="44.17838" lon="6.97139">
        <ele>2006.2864711434</ele>
        <time>2021-11-18T09:15:35Z</time>
      </trkpt>
      <trkpt lat="44.17837" lon="6.97139">
        <ele>2006.286506515</ele>
        <time>2021-11-18T09:15:36Z</time>
      </trkpt>
      <trkpt lat="44.17836" lon="6.97138">
        <ele>2006.2865628414</ele>
        <time>2021-11-18T09:15:38Z</time>
      </trkpt>
      <trkpt lat="44.17835" lon="6.97137">
        <ele>2006.2865931839</ele>
        <time>2021-11-18T09:15:41Z</time>
      </trkpt>
      <trkpt lat="44.17834" lon="6.97136">
        <ele>2007.286633417</ele>
        <time>2021-11-18T09:15:42Z</time>
      </trkpt>
      <trkpt lat="44.17833" lon="6.97135">
        <ele>2007.2866684534</ele>
        <time>2021-11-18T09:15:44Z</time>
      </trkpt>
      <trkpt lat="44.17832" lon="6.97135">
        <ele>2006.2867061719</ele>
        <time>2021-11-18T09:15:45Z</time>
      </trkpt>
      <trkpt lat="44.17832" lon="6.97134">
        <ele>2007.2867234387</ele>
        <time>2021-11-18T09:15:46Z</time>
      </trkpt>
      <trkpt lat="44.17832" lon="6.97133">
        <ele>2007.2867190801</ele>
        <time>2021-11-18T09:15:47Z</time>
      </trkpt>
      <trkpt lat="44.17832" lon="6.97132">
        <ele>2008.2867105305</ele>
        <time>2021-11-18T09:15:49Z</time>
      </trkpt>
      <trkpt lat="44.17833" lon="6.97131">
        <ele>2008.2866957784</ele>
        <time>2021-11-18T09:15:50Z</time>
      </trkpt>
      <trkpt lat="44.17833" lon="6.97131">
        <ele>2009.2866766676</ele>
        <time>2021-11-18T09:15:51Z</time>
      </trkpt>
      <trkpt lat="44.17834" lon="6.9713">
        <ele>2009.2866565511</ele>
        <time>2021-11-18T09:15:52Z</time>
      </trkpt>
      <trkpt lat="44.17834" lon="6.9713">
        <ele>2010.286627885</ele>
        <time>2021-11-18T09:15:54Z</time>
      </trkpt>
      <trkpt lat="44.17835" lon="6.9713">
        <ele>2011.2866035774</ele>
        <time>2021-11-18T09:15:55Z</time>
      </trkpt>
      <trkpt lat="44.17835" lon="6.9713">
        <ele>2011.2865928486</ele>
        <time>2021-11-18T09:15:56Z</time>
      </trkpt>
      <trkpt lat="44.17836" lon="6.97129">
        <ele>2012.2865742408</ele>
        <time>2021-11-18T09:15:57Z</time>
      </trkpt>
      <trkpt lat="44.17836" lon="6.97129">
        <ele>2012.2865537889</ele>
        <time>2021-11-18T09:16:03Z</time>
      </trkpt>
      <trkpt lat="44.17837" lon="6.97126">
        <ele>2013.2865390368</ele>
        <time>2021-11-18T09:16:04Z</time>
      </trkpt>
      <trkpt lat="44.17836" lon="6.97125">
        <ele>2013.2865547948</ele>
        <time>2021-11-18T09:16:06Z</time>
      </trkpt>
      <trkpt lat="44.17837" lon="6.97125">
        <ele>2013.2865408808</ele>
        <time>2021-11-18T09:16:09Z</time>
      </trkpt>
      <trkpt lat="44.17837" lon="6.97124">
        <ele>2016.2865254581</ele>
        <time>2021-11-18T09:16:11Z</time>
      </trkpt>
      <trkpt lat="44.17837" lon="6.97123">
        <ele>2016.2865189202</ele>
        <time>2021-11-18T09:16:18Z</time>
      </trkpt>
      <trkpt lat="44.17836" lon="6.9712">
        <ele>2017.2865734026</ele>
        <time>2021-11-18T09:16:19Z</time>
      </trkpt>
      <trkpt lat="44.17835" lon="6.9712">
        <ele>2017.2865983807</ele>
        <time>2021-11-18T09:16:21Z</time>
      </trkpt>
      <trkpt lat="44.17835" lon="6.97119">
        <ele>2017.2866070978</ele>
        <time>2021-11-18T09:16:28Z</time>
      </trkpt>
      <trkpt lat="44.17835" lon="6.97117">
        <ele>2018.2865859754</ele>
        <time>2021-11-18T09:16:29Z</time>
      </trkpt>
      <trkpt lat="44.17836" lon="6.97117">
        <ele>2018.2865772583</ele>
        <time>2021-11-18T09:16:30Z</time>
      </trkpt>
      <trkpt lat="44.17836" lon="6.97115">
        <ele>2018.2865457423</ele>
        <time>2021-11-18T09:16:32Z</time>
      </trkpt>
      <trkpt lat="44.17836" lon="6.97115">
        <ele>2018.2865457423</ele>
        <time>2021-11-18T09:16:35Z</time>
      </trkpt>
      <trkpt lat="44.17837" lon="6.97113">
        <ele>2019.2865167409</ele>
        <time>2021-11-18T09:16:36Z</time>
      </trkpt>
      <trkpt lat="44.17837" lon="6.97112">
        <ele>2019.2865212671</ele>
        <time>2021-11-18T09:16:39Z</time>
      </trkpt>
      <trkpt lat="44.17837" lon="6.97112">
        <ele>2019.2865254581</ele>
        <time>2021-11-18T09:16:40Z</time>
      </trkpt>
      <trkpt lat="44.17837" lon="6.9711">
        <ele>2020.2865195908</ele>
        <time>2021-11-18T09:16:44Z</time>
      </trkpt>
      <trkpt lat="44.17837" lon="6.97109">
        <ele>2020.2865216024</ele>
        <time>2021-11-18T09:16:45Z</time>
      </trkpt>
      <trkpt lat="44.17838" lon="6.97108">
        <ele>2021.2865009829</ele>
        <time>2021-11-18T09:16:47Z</time>
      </trkpt>
      <trkpt lat="44.17838" lon="6.97106">
        <ele>2022.286496792</ele>
        <time>2021-11-18T09:16:49Z</time>
      </trkpt>
      <trkpt lat="44.17837" lon="6.97105">
        <ele>2024.2865148969</ele>
        <time>2021-11-18T09:16:51Z</time>
      </trkpt>
      <trkpt lat="44.17837" lon="6.97105">
        <ele>2024.2865175791</ele>
        <time>2021-11-18T09:16:54Z</time>
      </trkpt>
      <trkpt lat="44.17836" lon="6.97104">
        <ele>2025.2865737379</ele>
        <time>2021-11-18T09:16:55Z</time>
      </trkpt>
      <trkpt lat="44.17835" lon="6.97103">
        <ele>2025.2865931839</ele>
        <time>2021-11-18T09:16:56Z</time>
      </trkpt>
      <trkpt lat="44.17835" lon="6.97102">
        <ele>2025.286617659</ele>
        <time>2021-11-18T09:16:57Z</time>
      </trkpt>
      <trkpt lat="44.17834" lon="6.97101">
        <ele>2025.2866364345</ele>
        <time>2021-11-18T09:16:58Z</time>
      </trkpt>
      <trkpt lat="44.17834" lon="6.971">
        <ele>2025.2866505161</ele>
        <time>2021-11-18T09:16:59Z</time>
      </trkpt>
      <trkpt lat="44.17834" lon="6.97099">
        <ele>2025.2866610773</ele>
        <time>2021-11-18T09:17:02Z</time>
      </trkpt>
      <trkpt lat="44.17833" lon="6.97098">
        <ele>2026.2866780087</ele>
        <time>2021-11-18T09:17:03Z</time>
      </trkpt>
      <trkpt lat="44.17833" lon="6.97098">
        <ele>2026.2866929285</ele>
        <time>2021-11-18T09:17:04Z</time>
      </trkpt>
      <trkpt lat="44.17832" lon="6.97097">
        <ele>2026.2867210917</ele>
        <time>2021-11-18T09:17:05Z</time>
      </trkpt>
      <trkpt lat="44.17832" lon="6.97097">
        <ele>2026.2867396995</ele>
        <time>2021-11-18T09:17:08Z</time>
      </trkpt>
      <trkpt lat="44.1783" lon="6.97096">
        <ele>2026.2867995463</ele>
        <time>2021-11-18T09:17:09Z</time>
      </trkpt>
      <trkpt lat="44.1783" lon="6.97095">
        <ele>2026.2868017256</ele>
        <time>2021-11-18T09:17:10Z</time>
      </trkpt>
      <trkpt lat="44.1783" lon="6.97094">
        <ele>2026.2868161425</ele>
        <time>2021-11-18T09:17:11Z</time>
      </trkpt>
      <trkpt lat="44.17829" lon="6.97094">
        <ele>2026.2868557051</ele>
        <time>2021-11-18T09:17:12Z</time>
      </trkpt>
      <trkpt lat="44.17829" lon="6.97094">
        <ele>2026.2868557051</ele>
        <time>2021-11-18T09:17:13Z</time>
      </trkpt>
      <trkpt lat="44.17827" lon="6.97094">
        <ele>2026.2869038172</ele>
        <time>2021-11-18T09:17:14Z</time>
      </trkpt>
      <trkpt lat="44.17827" lon="6.97094">
        <ele>2027.2869256102</ele>
        <time>2021-11-18T09:17:15Z</time>
      </trkpt>
      <trkpt lat="44.17826" lon="6.97094">
        <ele>2027.2869588025</ele>
        <time>2021-11-18T09:17:19Z</time>
      </trkpt>
      <trkpt lat="44.17824" lon="6.97094">
        <ele>2027.2870330662</ele>
        <time>2021-11-18T09:17:20Z</time>
      </trkpt>
      <trkpt lat="44.17823" lon="6.97093">
        <ele>2027.2870731317</ele>
        <time>2021-11-18T09:17:21Z</time>
      </trkpt>
      <trkpt lat="44.17823" lon="6.97092">
        <ele>2027.2870806754</ele>
        <time>2021-11-18T09:17:22Z</time>
      </trkpt>
      <trkpt lat="44.17823" lon="6.97092">
        <ele>2026.2870898955</ele>
        <time>2021-11-18T09:17:24Z</time>
      </trkpt>
      <trkpt lat="44.17823" lon="6.9709">
        <ele>2027.2870992832</ele>
        <time>2021-11-18T09:17:26Z</time>
      </trkpt>
      <trkpt lat="44.17822" lon="6.97091">
        <ele>2027.2871296257</ele>
        <time>2021-11-18T09:17:30Z</time>
      </trkpt>
      <trkpt lat="44.17821" lon="6.97092">
        <ele>2026.287172541</ele>
        <time>2021-11-18T09:17:31Z</time>
      </trkpt>
      <trkpt lat="44.1782" lon="6.97091">
        <ele>2026.2871938311</ele>
        <time>2021-11-18T09:17:32Z</time>
      </trkpt>
      <trkpt lat="44.17819" lon="6.97091">
        <ele>2026.2872266881</ele>
        <time>2021-11-18T09:17:36Z</time>
      </trkpt>
      <trkpt lat="44.17818" lon="6.9709">
        <ele>2027.2872877084</ele>
        <time>2021-11-18T09:17:38Z</time>
      </trkpt>
      <trkpt lat="44.17817" lon="6.97091">
        <ele>2027.2873163745</ele>
        <time>2021-11-18T09:17:39Z</time>
      </trkpt>
      <trkpt lat="44.17817" lon="6.97091">
        <ele>2027.2873400114</ele>
        <time>2021-11-18T09:17:40Z</time>
      </trkpt>
      <trkpt lat="44.17815" lon="6.97091">
        <ele>2027.2873820886</ele>
        <time>2021-11-18T09:17:42Z</time>
      </trkpt>
      <trkpt lat="44.17814" lon="6.97091">
        <ele>2027.2874255069</ele>
        <time>2021-11-18T09:17:44Z</time>
      </trkpt>
      <trkpt lat="44.17814" lon="6.9709">
        <ele>2027.2874437794</ele>
        <time>2021-11-18T09:17:46Z</time>
      </trkpt>
      <trkpt lat="44.17813" lon="6.9709">
        <ele>2027.2874843478</ele>
        <time>2021-11-18T09:17:48Z</time>
      </trkpt>
      <trkpt lat="44.17812" lon="6.97089">
        <ele>2027.2875115052</ele>
        <time>2021-11-18T09:17:49Z</time>
      </trkpt>
      <trkpt lat="44.17812" lon="6.97089">
        <ele>2028.2875260897</ele>
        <time>2021-11-18T09:17:50Z</time>
      </trkpt>
      <trkpt lat="44.1781" lon="6.97088">
        <ele>2029.2875882834</ele>
        <time>2021-11-18T09:17:52Z</time>
      </trkpt>
      <trkpt lat="44.17809" lon="6.97087">
        <ele>2030.287641257</ele>
        <time>2021-11-18T09:17:54Z</time>
      </trkpt>
      <trkpt lat="44.17809" lon="6.97087">
        <ele>2032.2876586914</ele>
        <time>2021-11-18T09:17:56Z</time>
      </trkpt>
      <trkpt lat="44.17808" lon="6.97086">
        <ele>2031.2876655646</ele>
        <time>2021-11-18T09:17:58Z</time>
      </trkpt>
      <trkpt lat="44.17809" lon="6.97085">
        <ele>2032.2876586914</ele>
        <time>2021-11-18T09:17:59Z</time>
      </trkpt>
      <trkpt lat="44.17808" lon="6.97084">
        <ele>2032.2876620442</ele>
        <time>2021-11-18T09:18:00Z</time>
      </trkpt>
      <trkpt lat="44.17808" lon="6.97083">
        <ele>2032.2876721025</ele>
        <time>2021-11-18T09:18:01Z</time>
      </trkpt>
      <trkpt lat="44.17808" lon="6.97081">
        <ele>2032.2876920514</ele>
        <time>2021-11-18T09:18:03Z</time>
      </trkpt>
      <trkpt lat="44.17807" lon="6.97081">
        <ele>2032.2877059653</ele>
        <time>2021-11-18T09:18:04Z</time>
      </trkpt>
      <trkpt lat="44.17807" lon="6.97079">
        <ele>2033.2877161913</ele>
        <time>2021-11-18T09:18:05Z</time>
      </trkpt>
      <trkpt lat="44.17807" lon="6.97078">
        <ele>2034.2877239026</ele>
        <time>2021-11-18T09:18:06Z</time>
      </trkpt>
      <trkpt lat="44.17807" lon="6.97078">
        <ele>2034.2877284288</ele>
        <time>2021-11-18T09:18:07Z</time>
      </trkpt>
      <trkpt lat="44.17807" lon="6.97077">
        <ele>2034.2877240703</ele>
        <time>2021-11-18T09:18:08Z</time>
      </trkpt>
      <trkpt lat="44.17807" lon="6.97076">
        <ele>2035.2877222262</ele>
        <time>2021-11-18T09:18:09Z</time>
      </trkpt>
      <trkpt lat="44.17807" lon="6.97075">
        <ele>2035.2877244055</ele>
        <time>2021-11-18T09:18:10Z</time>
      </trkpt>
      <trkpt lat="44.17806" lon="6.97074">
        <ele>2036.2877493836</ele>
        <time>2021-11-18T09:18:12Z</time>
      </trkpt>
      <trkpt lat="44.17806" lon="6.97073">
        <ele>2036.2877807319</ele>
        <time>2021-11-18T09:18:14Z</time>
      </trkpt>
      <trkpt lat="44.17805" lon="6.97071">
        <ele>2036.2878018543</ele>
        <time>2021-11-18T09:18:15Z</time>
      </trkpt>
      <trkpt lat="44.17805" lon="6.9707">
        <ele>2037.2878181152</ele>
        <time>2021-11-18T09:18:16Z</time>
      </trkpt>
      <trkpt lat="44.17804" lon="6.97069">
        <ele>2038.287825156</ele>
        <time>2021-11-18T09:18:17Z</time>
      </trkpt>
      <trkpt lat="44.17804" lon="6.97068">
        <ele>2038.2878226414</ele>
        <time>2021-11-18T09:18:18Z</time>
      </trkpt>
      <trkpt lat="44.17804" lon="6.97068">
        <ele>2038.2878432609</ele>
        <time>2021-11-18T09:18:21Z</time>
      </trkpt>
      <trkpt lat="44.17803" lon="6.97066">
        <ele>2037.287883494</ele>
        <time>2021-11-18T09:18:22Z</time>
      </trkpt>
      <trkpt lat="44.17802" lon="6.97066">
        <ele>2037.2879083045</ele>
        <time>2021-11-18T09:18:23Z</time>
      </trkpt>
      <trkpt lat="44.17801" lon="6.97065">
        <ele>2037.2879453525</ele>
        <time>2021-11-18T09:18:24Z</time>
      </trkpt>
      <trkpt lat="44.17801" lon="6.97065">
        <ele>2036.2879596017</ele>
        <time>2021-11-18T09:18:25Z</time>
      </trkpt>
      <trkpt lat="44.17801" lon="6.97064">
        <ele>2036.2879663073</ele>
        <time>2021-11-18T09:18:27Z</time>
      </trkpt>
      <trkpt lat="44.178" lon="6.97064">
        <ele>2035.287989106</ele>
        <time>2021-11-18T09:18:29Z</time>
      </trkpt>
      <trkpt lat="44.178" lon="6.97064">
        <ele>2035.2880140841</ele>
        <time>2021-11-18T09:18:30Z</time>
      </trkpt>
      <trkpt lat="44.17799" lon="6.97063">
        <ele>2035.2880350389</ele>
        <time>2021-11-18T09:18:31Z</time>
      </trkpt>
      <trkpt lat="44.17799" lon="6.97063">
        <ele>2036.2880593464</ele>
        <time>2021-11-18T09:18:35Z</time>
      </trkpt>
      <trkpt lat="44.17797" lon="6.97061">
        <ele>2036.2881066203</ele>
        <time>2021-11-18T09:18:36Z</time>
      </trkpt>
      <trkpt lat="44.17796" lon="6.97062">
        <ele>2037.2881654613</ele>
        <time>2021-11-18T09:18:38Z</time>
      </trkpt>
      <trkpt lat="44.17795" lon="6.97062">
        <ele>2038.2881941274</ele>
        <time>2021-11-18T09:18:39Z</time>
      </trkpt>
      <trkpt lat="44.17795" lon="6.97062">
        <ele>2038.2882201113</ele>
        <time>2021-11-18T09:18:40Z</time>
      </trkpt>
      <trkpt lat="44.17794" lon="6.97061">
        <ele>2037.2882504538</ele>
        <time>2021-11-18T09:18:42Z</time>
      </trkpt>
      <trkpt lat="44.17794" lon="6.97061">
        <ele>2037.2882504538</ele>
        <time>2021-11-18T09:18:44Z</time>
      </trkpt>
      <trkpt lat="44.17792" lon="6.97059">
        <ele>2038.2883056067</ele>
        <time>2021-11-18T09:18:45Z</time>
      </trkpt>
      <trkpt lat="44.17791" lon="6.97059">
        <ele>2038.2883483544</ele>
        <time>2021-11-18T09:18:46Z</time>
      </trkpt>
      <trkpt lat="44.17791" lon="6.97059">
        <ele>2038.2883572392</ele>
        <time>2021-11-18T09:18:47Z</time>
      </trkpt>
      <trkpt lat="44.17791" lon="6.97058">
        <ele>2039.2883817144</ele>
        <time>2021-11-18T09:18:49Z</time>
      </trkpt>
      <trkpt lat="44.1779" lon="6.97058">
        <ele>2039.2884155773</ele>
        <time>2021-11-18T09:18:50Z</time>
      </trkpt>
      <trkpt lat="44.17789" lon="6.97056">
        <ele>2039.2884491049</ele>
        <time>2021-11-18T09:18:51Z</time>
      </trkpt>
      <trkpt lat="44.17787" lon="6.97055">
        <ele>2039.2885099575</ele>
        <time>2021-11-18T09:18:53Z</time>
      </trkpt>
      <trkpt lat="44.17787" lon="6.97055">
        <ele>2038.2885312475</ele>
        <time>2021-11-18T09:18:54Z</time>
      </trkpt>
      <trkpt lat="44.17786" lon="6.97054">
        <ele>2038.2885622606</ele>
        <time>2021-11-18T09:18:55Z</time>
      </trkpt>
      <trkpt lat="44.17786" lon="6.97053">
        <ele>2038.2885743305</ele>
        <time>2021-11-18T09:18:57Z</time>
      </trkpt>
      <trkpt lat="44.17784" lon="6.97051">
        <ele>2037.2886268012</ele>
        <time>2021-11-18T09:18:59Z</time>
      </trkpt>
      <trkpt lat="44.17784" lon="6.9705">
        <ele>2038.2886549644</ele>
        <time>2021-11-18T09:19:00Z</time>
      </trkpt>
      <trkpt lat="44.17783" lon="6.9705">
        <ele>2037.2886762545</ele>
        <time>2021-11-18T09:19:01Z</time>
      </trkpt>
      <trkpt lat="44.17782" lon="6.97049">
        <ele>2037.2887263782</ele>
        <time>2021-11-18T09:19:03Z</time>
      </trkpt>
      <trkpt lat="44.17781" lon="6.97049">
        <ele>2039.2887629233</ele>
        <time>2021-11-18T09:19:04Z</time>
      </trkpt>
      <trkpt lat="44.1778" lon="6.97049">
        <ele>2039.2887894101</ele>
        <time>2021-11-18T09:19:05Z</time>
      </trkpt>
      <trkpt lat="44.1778" lon="6.97048">
        <ele>2039.2888132147</ele>
        <time>2021-11-18T09:19:06Z</time>
      </trkpt>
      <trkpt lat="44.17779" lon="6.97048">
        <ele>2039.2888420485</ele>
        <time>2021-11-18T09:19:07Z</time>
      </trkpt>
      <trkpt lat="44.17777" lon="6.97047">
        <ele>2039.2889096066</ele>
        <time>2021-11-18T09:19:09Z</time>
      </trkpt>
      <trkpt lat="44.17776" lon="6.97046">
        <ele>2040.2889459841</ele>
        <time>2021-11-18T09:19:10Z</time>
      </trkpt>
      <trkpt lat="44.17776" lon="6.97046">
        <ele>2040.288960401</ele>
        <time>2021-11-18T09:19:11Z</time>
      </trkpt>
      <trkpt lat="44.17775" lon="6.97044">
        <ele>2040.2889850438</ele>
        <time>2021-11-18T09:19:13Z</time>
      </trkpt>
      <trkpt lat="44.17775" lon="6.97044">
        <ele>2040.2889850438</ele>
        <time>2021-11-18T09:19:14Z</time>
      </trkpt>
      <trkpt lat="44.17774" lon="6.97043">
        <ele>2041.2890261151</ele>
        <time>2021-11-18T09:19:15Z</time>
      </trkpt>
      <trkpt lat="44.17773" lon="6.97043">
        <ele>2041.2890713774</ele>
        <time>2021-11-18T09:19:17Z</time>
      </trkpt>
      <trkpt lat="44.17772" lon="6.97042">
        <ele>2041.2891038992</ele>
        <time>2021-11-18T09:19:18Z</time>
      </trkpt>
      <trkpt lat="44.17772" lon="6.97042">
        <ele>2042.2891266979</ele>
        <time>2021-11-18T09:19:19Z</time>
      </trkpt>
      <trkpt lat="44.17771" lon="6.97042">
        <ele>2042.2891503349</ele>
        <time>2021-11-18T09:19:22Z</time>
      </trkpt>
      <trkpt lat="44.1777" lon="6.97043">
        <ele>2042.2892153785</ele>
        <time>2021-11-18T09:19:23Z</time>
      </trkpt>
      <trkpt lat="44.17769" lon="6.97043">
        <ele>2043.2892363332</ele>
        <time>2021-11-18T09:19:24Z</time>
      </trkpt>
      <trkpt lat="44.17769" lon="6.97043">
        <ele>2043.2892584614</ele>
        <time>2021-11-18T09:19:25Z</time>
      </trkpt>
      <trkpt lat="44.17768" lon="6.97044">
        <ele>2042.2892891392</ele>
        <time>2021-11-18T09:19:28Z</time>
      </trkpt>
      <trkpt lat="44.17766" lon="6.97044">
        <ele>2042.2893523388</ele>
        <time>2021-11-18T09:19:29Z</time>
      </trkpt>
      <trkpt lat="44.17766" lon="6.97044">
        <ele>2043.2893721201</ele>
        <time>2021-11-18T09:19:30Z</time>
      </trkpt>
      <trkpt lat="44.17765" lon="6.97045">
        <ele>2042.2894006185</ele>
        <time>2021-11-18T09:19:32Z</time>
      </trkpt>
      <trkpt lat="44.17764" lon="6.97046">
        <ele>2042.2894250937</ele>
        <time>2021-11-18T09:19:34Z</time>
      </trkpt>
      <trkpt lat="44.17764" lon="6.97046">
        <ele>2043.2894554362</ele>
        <time>2021-11-18T09:19:35Z</time>
      </trkpt>
      <trkpt lat="44.17762" lon="6.97046">
        <ele>2043.2895020396</ele>
        <time>2021-11-18T09:19:36Z</time>
      </trkpt>
      <trkpt lat="44.17762" lon="6.97046">
        <ele>2043.2895141095</ele>
        <time>2021-11-18T09:19:37Z</time>
      </trkpt>
      <trkpt lat="44.17762" lon="6.97047">
        <ele>2043.2895372435</ele>
        <time>2021-11-18T09:19:38Z</time>
      </trkpt>
      <trkpt lat="44.17761" lon="6.97047">
        <ele>2042.2895531692</ele>
        <time>2021-11-18T09:19:39Z</time>
      </trkpt>
      <trkpt lat="44.17761" lon="6.97047">
        <ele>2042.2895744592</ele>
        <time>2021-11-18T09:19:40Z</time>
      </trkpt>
      <trkpt lat="44.17759" lon="6.97047">
        <ele>2042.289632462</ele>
        <time>2021-11-18T09:19:42Z</time>
      </trkpt>
      <trkpt lat="44.17759" lon="6.97046">
        <ele>2042.2896448672</ele>
        <time>2021-11-18T09:19:45Z</time>
      </trkpt>
      <trkpt lat="44.17758" lon="6.97046">
        <ele>2042.289677389</ele>
        <time>2021-11-18T09:19:46Z</time>
      </trkpt>
      <trkpt lat="44.17757" lon="6.97046">
        <ele>2042.2897333801</ele>
        <time>2021-11-18T09:19:48Z</time>
      </trkpt>
      <trkpt lat="44.17756" lon="6.97046">
        <ele>2042.2897560112</ele>
        <time>2021-11-18T09:19:50Z</time>
      </trkpt>
      <trkpt lat="44.17755" lon="6.97044">
        <ele>2042.2898165286</ele>
        <time>2021-11-18T09:19:52Z</time>
      </trkpt>
      <trkpt lat="44.17753" lon="6.97043">
        <ele>2042.2898815721</ele>
        <time>2021-11-18T09:19:54Z</time>
      </trkpt>
      <trkpt lat="44.17752" lon="6.97042">
        <ele>2043.2899068855</ele>
        <time>2021-11-18T09:19:55Z</time>
      </trkpt>
      <trkpt lat="44.17752" lon="6.97041">
        <ele>2043.2899171114</ele>
        <time>2021-11-18T09:19:56Z</time>
      </trkpt>
      <trkpt lat="44.1775" lon="6.97042">
        <ele>2043.289990034</ele>
        <time>2021-11-18T09:19:58Z</time>
      </trkpt>
      <trkpt lat="44.1775" lon="6.97041">
        <ele>2043.2900029421</ele>
        <time>2021-11-18T09:19:59Z</time>
      </trkpt>
      <trkpt lat="44.1775" lon="6.9704">
        <ele>2044.2900133356</ele>
        <time>2021-11-18T09:20:00Z</time>
      </trkpt>
      <trkpt lat="44.17748" lon="6.97039">
        <ele>2046.2900763676</ele>
        <time>2021-11-18T09:20:02Z</time>
      </trkpt>
      <trkpt lat="44.17748" lon="6.97037">
        <ele>2046.2901018485</ele>
        <time>2021-11-18T09:20:04Z</time>
      </trkpt>
      <trkpt lat="44.17747" lon="6.97037">
        <ele>2048.2901021838</ele>
        <time>2021-11-18T09:20:07Z</time>
      </trkpt>
      <trkpt lat="44.17747" lon="6.97034">
        <ele>2048.2901402377</ele>
        <time>2021-11-18T09:20:08Z</time>
      </trkpt>
      <trkpt lat="44.17746" lon="6.97034">
        <ele>2048.2901645452</ele>
        <time>2021-11-18T09:20:09Z</time>
      </trkpt>
      <trkpt lat="44.17745" lon="6.97033">
        <ele>2048.2901834883</ele>
        <time>2021-11-18T09:20:10Z</time>
      </trkpt>
      <trkpt lat="44.17745" lon="6.97033">
        <ele>2049.2902131602</ele>
        <time>2021-11-18T09:20:11Z</time>
      </trkpt>
      <trkpt lat="44.17744" lon="6.97031">
        <ele>2050.2902505435</ele>
        <time>2021-11-18T09:20:13Z</time>
      </trkpt>
      <trkpt lat="44.17743" lon="6.97031">
        <ele>2050.2902652957</ele>
        <time>2021-11-18T09:20:14Z</time>
      </trkpt>
      <trkpt lat="44.17743" lon="6.9703">
        <ele>2049.2902852446</ele>
        <time>2021-11-18T09:20:15Z</time>
      </trkpt>
      <trkpt lat="44.17743" lon="6.97029">
        <ele>2049.2902953029</ele>
        <time>2021-11-18T09:20:16Z</time>
      </trkpt>
      <trkpt lat="44.17742" lon="6.97027">
        <ele>2050.290325813</ele>
        <time>2021-11-18T09:20:18Z</time>
      </trkpt>
      <trkpt lat="44.17741" lon="6.97026">
        <ele>2050.2903600112</ele>
        <time>2021-11-18T09:20:19Z</time>
      </trkpt>
      <trkpt lat="44.1774" lon="6.97025">
        <ele>2049.2903868333</ele>
        <time>2021-11-18T09:20:23Z</time>
      </trkpt>
      <trkpt lat="44.1774" lon="6.97025">
        <ele>2048.2904111408</ele>
        <time>2021-11-18T09:20:24Z</time>
      </trkpt>
      <trkpt lat="44.17739" lon="6.97024">
        <ele>2048.2904280722</ele>
        <time>2021-11-18T09:20:26Z</time>
      </trkpt>
      <trkpt lat="44.17739" lon="6.97024">
        <ele>2048.2904548943</ele>
        <time>2021-11-18T09:20:29Z</time>
      </trkpt>
      <trkpt lat="44.17738" lon="6.97023">
        <ele>2050.2904852368</ele>
        <time>2021-11-18T09:20:30Z</time>
      </trkpt>
      <trkpt lat="44.17738" lon="6.97023">
        <ele>2051.2904984802</ele>
        <time>2021-11-18T09:20:31Z</time>
      </trkpt>
      <trkpt lat="44.17737" lon="6.97022">
        <ele>2053.2905040123</ele>
        <time>2021-11-18T09:20:33Z</time>
      </trkpt>
      <trkpt lat="44.17738" lon="6.97021">
        <ele>2054.2904907688</ele>
        <time>2021-11-18T09:20:34Z</time>
      </trkpt>
      <trkpt lat="44.17738" lon="6.97021">
        <ele>2055.2904828899</ele>
        <time>2021-11-18T09:20:37Z</time>
      </trkpt>
      <trkpt lat="44.17738" lon="6.97018">
        <ele>2056.2904817164</ele>
        <time>2021-11-18T09:20:39Z</time>
      </trkpt>
      <trkpt lat="44.17738" lon="6.97017">
        <ele>2056.2904946245</ele>
        <time>2021-11-18T09:20:41Z</time>
      </trkpt>
      <trkpt lat="44.17738" lon="6.97017">
        <ele>2057.2905011624</ele>
        <time>2021-11-18T09:20:42Z</time>
      </trkpt>
      <trkpt lat="44.17737" lon="6.97016">
        <ele>2056.2905041799</ele>
        <time>2021-11-18T09:20:45Z</time>
      </trkpt>
      <trkpt lat="44.17737" lon="6.97015">
        <ele>2056.2905040123</ele>
        <time>2021-11-18T09:20:46Z</time>
      </trkpt>
      <trkpt lat="44.17738" lon="6.97014">
        <ele>2055.2904986478</ele>
        <time>2021-11-18T09:20:48Z</time>
      </trkpt>
      <trkpt lat="44.17737" lon="6.97013">
        <ele>2055.2905241288</ele>
        <time>2021-11-18T09:20:49Z</time>
      </trkpt>
      <trkpt lat="44.17737" lon="6.97012">
        <ele>2055.2905154116</ele>
        <time>2021-11-18T09:20:50Z</time>
      </trkpt>
      <trkpt lat="44.17737" lon="6.97011">
        <ele>2055.2905164175</ele>
        <time>2021-11-18T09:20:51Z</time>
      </trkpt>
      <trkpt lat="44.17737" lon="6.9701">
        <ele>2055.2905065268</ele>
        <time>2021-11-18T09:20:54Z</time>
      </trkpt>
      <trkpt lat="44.17737" lon="6.97008">
        <ele>2055.2905117236</ele>
        <time>2021-11-18T09:20:55Z</time>
      </trkpt>
      <trkpt lat="44.17737" lon="6.97008">
        <ele>2055.2905227877</ele>
        <time>2021-11-18T09:20:56Z</time>
      </trkpt>
      <trkpt lat="44.17737" lon="6.97007">
        <ele>2055.29053469</ele>
        <time>2021-11-18T09:20:57Z</time>
      </trkpt>
      <trkpt lat="44.17736" lon="6.97007">
        <ele>2055.2905479334</ele>
        <time>2021-11-18T09:21:01Z</time>
      </trkpt>
      <trkpt lat="44.17735" lon="6.97004">
        <ele>2056.2905836403</ele>
        <time>2021-11-18T09:21:02Z</time>
      </trkpt>
      <trkpt lat="44.17735" lon="6.97004">
        <ele>2056.2905879989</ele>
        <time>2021-11-18T09:21:03Z</time>
      </trkpt>
      <trkpt lat="44.17736" lon="6.97003">
        <ele>2057.2905734144</ele>
        <time>2021-11-18T09:21:04Z</time>
      </trkpt>
      <trkpt lat="44.17736" lon="6.97001">
        <ele>2057.2905719057</ele>
        <time>2021-11-18T09:21:05Z</time>
      </trkpt>
      <trkpt lat="44.17736" lon="6.97">
        <ele>2058.2905677147</ele>
        <time>2021-11-18T09:21:08Z</time>
      </trkpt>
      <trkpt lat="44.17736" lon="6.97">
        <ele>2058.2905715704</ele>
        <time>2021-11-18T09:21:09Z</time>
      </trkpt>
      <trkpt lat="44.17736" lon="6.96999">
        <ele>2058.2905752584</ele>
        <time>2021-11-18T09:21:10Z</time>
      </trkpt>
      <trkpt lat="44.17736" lon="6.96998">
        <ele>2058.2905652002</ele>
        <time>2021-11-18T09:21:13Z</time>
      </trkpt>
      <trkpt lat="44.17735" lon="6.96997">
        <ele>2058.290593531</ele>
        <time>2021-11-18T09:21:14Z</time>
      </trkpt>
      <trkpt lat="44.17734" lon="6.96997">
        <ele>2058.2906262204</ele>
        <time>2021-11-18T09:21:19Z</time>
      </trkpt>
      <trkpt lat="44.17734" lon="6.96997">
        <ele>2058.2906505279</ele>
        <time>2021-11-18T09:21:20Z</time>
      </trkpt>
      <trkpt lat="44.17733" lon="6.96997">
        <ele>2058.2906790264</ele>
        <time>2021-11-18T09:21:21Z</time>
      </trkpt>
      <trkpt lat="44.17732" lon="6.96998">
        <ele>2057.2907393761</ele>
        <time>2021-11-18T09:21:23Z</time>
      </trkpt>
      <trkpt lat="44.17731" lon="6.96997">
        <ele>2057.2907722332</ele>
        <time>2021-11-18T09:21:24Z</time>
      </trkpt>
      <trkpt lat="44.1773" lon="6.96997">
        <ele>2057.2907941937</ele>
        <time>2021-11-18T09:21:25Z</time>
      </trkpt>
      <trkpt lat="44.1773" lon="6.96997">
        <ele>2058.2908171602</ele>
        <time>2021-11-18T09:21:26Z</time>
      </trkpt>
      <trkpt lat="44.17729" lon="6.96997">
        <ele>2058.2908396237</ele>
        <time>2021-11-18T09:21:27Z</time>
      </trkpt>
      <trkpt lat="44.17728" lon="6.96995">
        <ele>2058.2908657752</ele>
        <time>2021-11-18T09:21:29Z</time>
      </trkpt>
      <trkpt lat="44.17728" lon="6.96996">
        <ele>2058.2908833772</ele>
        <time>2021-11-18T09:21:31Z</time>
      </trkpt>
      <trkpt lat="44.17725" lon="6.96995">
        <ele>2059.2909868099</ele>
        <time>2021-11-18T09:21:33Z</time>
      </trkpt>
      <trkpt lat="44.17725" lon="6.96995">
        <ele>2058.2910097763</ele>
        <time>2021-11-18T09:21:34Z</time>
      </trkpt>
      <trkpt lat="44.17724" lon="6.96995">
        <ele>2058.2910436392</ele>
        <time>2021-11-18T09:21:36Z</time>
      </trkpt>
      <trkpt lat="44.17724" lon="6.96995">
        <ele>2058.2910617441</ele>
        <time>2021-11-18T09:21:37Z</time>
      </trkpt>
      <trkpt lat="44.17722" lon="6.96996">
        <ele>2058.2911061682</ele>
        <time>2021-11-18T09:21:39Z</time>
      </trkpt>
      <trkpt lat="44.17722" lon="6.96995">
        <ele>2059.2911356725</ele>
        <time>2021-11-18T09:21:40Z</time>
      </trkpt>
      <trkpt lat="44.17721" lon="6.96995">
        <ele>2060.2911623269</ele>
        <time>2021-11-18T09:21:41Z</time>
      </trkpt>
      <trkpt lat="44.17721" lon="6.96995">
        <ele>2060.2911805995</ele>
        <time>2021-11-18T09:21:42Z</time>
      </trkpt>
      <trkpt lat="44.1772" lon="6.96996">
        <ele>2060.2912096009</ele>
        <time>2021-11-18T09:21:46Z</time>
      </trkpt>
      <trkpt lat="44.17718" lon="6.96997">
        <ele>2060.291279003</ele>
        <time>2021-11-18T09:21:47Z</time>
      </trkpt>
      <trkpt lat="44.17717" lon="6.96997">
        <ele>2060.2913036458</ele>
        <time>2021-11-18T09:21:52Z</time>
      </trkpt>
      <trkpt lat="44.17715" lon="6.96998">
        <ele>2060.2914060727</ele>
        <time>2021-11-18T09:21:54Z</time>
      </trkpt>
      <trkpt lat="44.17714" lon="6.96997">
        <ele>2060.2914307155</ele>
        <time>2021-11-18T09:21:55Z</time>
      </trkpt>
      <trkpt lat="44.17713" lon="6.96997">
        <ele>2060.2914704457</ele>
        <time>2021-11-18T09:21:57Z</time>
      </trkpt>
      <trkpt lat="44.17712" lon="6.96997">
        <ele>2060.2915024646</ele>
        <time>2021-11-18T09:21:59Z</time>
      </trkpt>
      <trkpt lat="44.17712" lon="6.96997">
        <ele>2060.2915160432</ele>
        <time>2021-11-18T09:22:04Z</time>
      </trkpt>
      <trkpt lat="44.17711" lon="6.96998">
        <ele>2060.2915546</ele>
        <time>2021-11-18T09:22:05Z</time>
      </trkpt>
      <trkpt lat="44.17711" lon="6.96997">
        <ele>2060.2915676758</ele>
        <time>2021-11-18T09:22:06Z</time>
      </trkpt>
      <trkpt lat="44.17711" lon="6.96997">
        <ele>2059.2915792428</ele>
        <time>2021-11-18T09:22:07Z</time>
      </trkpt>
      <trkpt lat="44.17709" lon="6.96997">
        <ele>2058.2916325517</ele>
        <time>2021-11-18T09:22:09Z</time>
      </trkpt>
      <trkpt lat="44.17709" lon="6.96996">
        <ele>2059.2916496508</ele>
        <time>2021-11-18T09:22:10Z</time>
      </trkpt>
      <trkpt lat="44.17709" lon="6.96996">
        <ele>2058.2916597091</ele>
        <time>2021-11-18T09:22:14Z</time>
      </trkpt>
      <trkpt lat="44.17708" lon="6.96994">
        <ele>2057.2916853577</ele>
        <time>2021-11-18T09:22:15Z</time>
      </trkpt>
      <trkpt lat="44.17707" lon="6.96994">
        <ele>2058.2917116769</ele>
        <time>2021-11-18T09:22:17Z</time>
      </trkpt>
      <trkpt lat="44.17707" lon="6.96993">
        <ele>2058.2917286083</ele>
        <time>2021-11-18T09:22:22Z</time>
      </trkpt>
      <trkpt lat="44.17705" lon="6.9699">
        <ele>2056.2918013632</ele>
        <time>2021-11-18T09:22:24Z</time>
      </trkpt>
      <trkpt lat="44.17704" lon="6.9699">
        <ele>2057.2918273471</ele>
        <time>2021-11-18T09:22:26Z</time>
      </trkpt>
      <trkpt lat="44.17704" lon="6.96989">
        <ele>2057.2918499783</ele>
        <time>2021-11-18T09:22:27Z</time>
      </trkpt>
      <trkpt lat="44.17703" lon="6.96988">
        <ele>2056.2918831706</ele>
        <time>2021-11-18T09:22:29Z</time>
      </trkpt>
      <trkpt lat="44.17702" lon="6.96987">
        <ele>2055.291910328</ele>
        <time>2021-11-18T09:22:30Z</time>
      </trkpt>
      <trkpt lat="44.17702" lon="6.96987">
        <ele>2057.2919341326</ele>
        <time>2021-11-18T09:22:37Z</time>
      </trkpt>
      <trkpt lat="44.177" lon="6.96984">
        <ele>2058.291998338</ele>
        <time>2021-11-18T09:22:38Z</time>
      </trkpt>
      <trkpt lat="44.17699" lon="6.96983">
        <ele>2060.2920244895</ele>
        <time>2021-11-18T09:22:40Z</time>
      </trkpt>
      <trkpt lat="44.17699" lon="6.96983">
        <ele>2061.2920467854</ele>
        <time>2021-11-18T09:22:43Z</time>
      </trkpt>
      <trkpt lat="44.17698" lon="6.96982">
        <ele>2062.2920952328</ele>
        <time>2021-11-18T09:22:44Z</time>
      </trkpt>
      <trkpt lat="44.17697" lon="6.96981">
        <ele>2063.2921200432</ele>
        <time>2021-11-18T09:22:45Z</time>
      </trkpt>
      <trkpt lat="44.17696" lon="6.96981">
        <ele>2062.2921466976</ele>
        <time>2021-11-18T09:22:49Z</time>
      </trkpt>
      <trkpt lat="44.17695" lon="6.9698">
        <ele>2063.2922137529</ele>
        <time>2021-11-18T09:22:50Z</time>
      </trkpt>
      <trkpt lat="44.17694" lon="6.9698">
        <ele>2063.2922274992</ele>
        <time>2021-11-18T09:22:51Z</time>
      </trkpt>
      <trkpt lat="44.17693" lon="6.96979">
        <ele>2063.2922761142</ele>
        <time>2021-11-18T09:22:53Z</time>
      </trkpt>
      <trkpt lat="44.17693" lon="6.96979">
        <ele>2063.2922761142</ele>
        <time>2021-11-18T09:22:55Z</time>
      </trkpt>
      <trkpt lat="44.17692" lon="6.96978">
        <ele>2062.2923245616</ele>
        <time>2021-11-18T09:22:56Z</time>
      </trkpt>
      <trkpt lat="44.17691" lon="6.96977">
        <ele>2063.2923574187</ele>
        <time>2021-11-18T09:22:57Z</time>
      </trkpt>
      <trkpt lat="44.1769" lon="6.96974">
        <ele>2064.2923939638</ele>
        <time>2021-11-18T09:22:59Z</time>
      </trkpt>
      <trkpt lat="44.1769" lon="6.96974">
        <ele>2064.2923939638</ele>
        <time>2021-11-18T09:23:01Z</time>
      </trkpt>
      <trkpt lat="44.17689" lon="6.96971">
        <ele>2064.2924284972</ele>
        <time>2021-11-18T09:23:02Z</time>
      </trkpt>
      <trkpt lat="44.17689" lon="6.96971">
        <ele>2065.2924471051</ele>
        <time>2021-11-18T09:23:30Z</time>
      </trkpt>
      <trkpt lat="44.17689" lon="6.96972">
        <ele>2065.2924496196</ele>
        <time>2021-11-18T09:23:31Z</time>
      </trkpt>
      <trkpt lat="44.17688" lon="6.96972">
        <ele>2066.2924694009</ele>
        <time>2021-11-18T09:23:57Z</time>
      </trkpt>
      <trkpt lat="44.17688" lon="6.96973">
        <ele>2069.2924774475</ele>
        <time>2021-11-18T09:24:10Z</time>
      </trkpt>
      <trkpt lat="44.17687" lon="6.96972">
        <ele>2069.2925158367</ele>
        <time>2021-11-18T09:24:11Z</time>
      </trkpt>
      <trkpt lat="44.17687" lon="6.96973">
        <ele>2069.2925339416</ele>
        <time>2021-11-18T09:24:16Z</time>
      </trkpt>
      <trkpt lat="44.17686" lon="6.96973">
        <ele>2069.2925557345</ele>
        <time>2021-11-18T09:24:20Z</time>
      </trkpt>
      <trkpt lat="44.17685" lon="6.96975">
        <ele>2068.2925894298</ele>
        <time>2021-11-18T09:24:22Z</time>
      </trkpt>
      <trkpt lat="44.17685" lon="6.96973">
        <ele>2069.2926025055</ele>
        <time>2021-11-18T09:24:32Z</time>
      </trkpt>
      <trkpt lat="44.17685" lon="6.96973">
        <ele>2070.2925874181</ele>
        <time>2021-11-18T09:24:36Z</time>
      </trkpt>
      <trkpt lat="44.17684" lon="6.96973">
        <ele>2071.2926440798</ele>
        <time>2021-11-18T09:24:38Z</time>
      </trkpt>
      <trkpt lat="44.17683" lon="6.96974">
        <ele>2071.2926675491</ele>
        <time>2021-11-18T09:24:39Z</time>
      </trkpt>
      <trkpt lat="44.17683" lon="6.96973">
        <ele>2071.2926973887</ele>
        <time>2021-11-18T09:25:10Z</time>
      </trkpt>
      <trkpt lat="44.17683" lon="6.96973">
        <ele>2070.2926988974</ele>
        <time>2021-11-18T09:25:12Z</time>
      </trkpt>
      <trkpt lat="44.17683" lon="6.96974">
        <ele>2071.2926727459</ele>
        <time>2021-11-18T09:25:14Z</time>
      </trkpt>
      <trkpt lat="44.17683" lon="6.96974">
        <ele>2071.2926727459</ele>
        <time>2021-11-18T09:25:16Z</time>
      </trkpt>
      <trkpt lat="44.17684" lon="6.96974">
        <ele>2073.292635195</ele>
        <time>2021-11-18T09:25:18Z</time>
      </trkpt>
      <trkpt lat="44.17684" lon="6.96975">
        <ele>2075.2926263101</ele>
        <time>2021-11-18T09:25:25Z</time>
      </trkpt>
      <trkpt lat="44.17685" lon="6.96975">
        <ele>2076.292605523</ele>
        <time>2021-11-18T09:25:26Z</time>
      </trkpt>
      <trkpt lat="44.17686" lon="6.96975">
        <ele>2077.2925706543</ele>
        <time>2021-11-18T09:25:36Z</time>
      </trkpt>
      <trkpt lat="44.17684" lon="6.96973">
        <ele>2077.2926226221</ele>
        <time>2021-11-18T09:25:37Z</time>
      </trkpt>
      <trkpt lat="44.17683" lon="6.96972">
        <ele>2077.292680122</ele>
        <time>2021-11-18T09:25:39Z</time>
      </trkpt>
      <trkpt lat="44.17682" lon="6.96971">
        <ele>2078.2927131467</ele>
        <time>2021-11-18T09:25:40Z</time>
      </trkpt>
      <trkpt lat="44.17681" lon="6.96971">
        <ele>2079.2927476801</ele>
        <time>2021-11-18T09:25:41Z</time>
      </trkpt>
      <trkpt lat="44.17681" lon="6.9697">
        <ele>2078.292777352</ele>
        <time>2021-11-18T09:25:42Z</time>
      </trkpt>
      <trkpt lat="44.1768" lon="6.96969">
        <ele>2078.2928063534</ele>
        <time>2021-11-18T09:25:44Z</time>
      </trkpt>
      <trkpt lat="44.1768" lon="6.96968">
        <ele>2078.2928110473</ele>
        <time>2021-11-18T09:25:46Z</time>
      </trkpt>
      <trkpt lat="44.17679" lon="6.96967">
        <ele>2077.2928234525</ele>
        <time>2021-11-18T09:25:47Z</time>
      </trkpt>
      <trkpt lat="44.17679" lon="6.96965">
        <ele>2076.2928511128</ele>
        <time>2021-11-18T09:25:49Z</time>
      </trkpt>
      <trkpt lat="44.17678" lon="6.96964">
        <ele>2076.2928765938</ele>
        <time>2021-11-18T09:25:51Z</time>
      </trkpt>
      <trkpt lat="44.17678" lon="6.96964">
        <ele>2075.2928893343</ele>
        <time>2021-11-18T09:25:54Z</time>
      </trkpt>
      <trkpt lat="44.17676" lon="6.96963">
        <ele>2075.2929644361</ele>
        <time>2021-11-18T09:25:55Z</time>
      </trkpt>
      <trkpt lat="44.17675" lon="6.96963">
        <ele>2076.2929823734</ele>
        <time>2021-11-18T09:25:56Z</time>
      </trkpt>
      <trkpt lat="44.17675" lon="6.96963">
        <ele>2076.293006178</ele>
        <time>2021-11-18T09:25:57Z</time>
      </trkpt>
      <trkpt lat="44.17675" lon="6.96962">
        <ele>2076.2930197567</ele>
        <time>2021-11-18T09:25:58Z</time>
      </trkpt>
      <trkpt lat="44.17674" lon="6.96962">
        <ele>2077.2930423878</ele>
        <time>2021-11-18T09:25:59Z</time>
      </trkpt>
      <trkpt lat="44.17673" lon="6.96961">
        <ele>2078.2930698805</ele>
        <time>2021-11-18T09:26:00Z</time>
      </trkpt>
      <trkpt lat="44.17672" lon="6.96961">
        <ele>2078.2931024022</ele>
        <time>2021-11-18T09:26:02Z</time>
      </trkpt>
      <trkpt lat="44.17671" lon="6.96961">
        <ele>2076.2931464911</ele>
        <time>2021-11-18T09:26:04Z</time>
      </trkpt>
      <trkpt lat="44.17671" lon="6.9696">
        <ele>2076.2931759953</ele>
        <time>2021-11-18T09:26:05Z</time>
      </trkpt>
      <trkpt lat="44.1767" lon="6.96959">
        <ele>2076.293215055</ele>
        <time>2021-11-18T09:26:07Z</time>
      </trkpt>
      <trkpt lat="44.17669" lon="6.96957">
        <ele>2077.2932438888</ele>
        <time>2021-11-18T09:26:09Z</time>
      </trkpt>
      <trkpt lat="44.17669" lon="6.96957">
        <ele>2077.2932480797</ele>
        <time>2021-11-18T09:26:10Z</time>
      </trkpt>
      <trkpt lat="44.17668" lon="6.96957">
        <ele>2077.2932661846</ele>
        <time>2021-11-18T09:26:11Z</time>
      </trkpt>
      <trkpt lat="44.17668" lon="6.96956">
        <ele>2077.293289654</ele>
        <time>2021-11-18T09:26:12Z</time>
      </trkpt>
      <trkpt lat="44.17667" lon="6.96955">
        <ele>2078.2933131233</ele>
        <time>2021-11-18T09:26:13Z</time>
      </trkpt>
      <trkpt lat="44.17667" lon="6.96955">
        <ele>2078.2933300547</ele>
        <time>2021-11-18T09:26:14Z</time>
      </trkpt>
      <trkpt lat="44.17666" lon="6.96954">
        <ele>2076.2933536917</ele>
        <time>2021-11-18T09:26:15Z</time>
      </trkpt>
      <trkpt lat="44.17665" lon="6.96952">
        <ele>2076.2933917455</ele>
        <time>2021-11-18T09:26:17Z</time>
      </trkpt>
      <trkpt lat="44.17665" lon="6.9695">
        <ele>2075.2933974452</ele>
        <time>2021-11-18T09:26:19Z</time>
      </trkpt>
      <trkpt lat="44.17665" lon="6.9695">
        <ele>2075.2933974452</ele>
        <time>2021-11-18T09:26:21Z</time>
      </trkpt>
      <trkpt lat="44.17664" lon="6.96949">
        <ele>2074.2934455574</ele>
        <time>2021-11-18T09:26:23Z</time>
      </trkpt>
      <trkpt lat="44.17663" lon="6.96949">
        <ele>2073.2934810966</ele>
        <time>2021-11-18T09:26:24Z</time>
      </trkpt>
      <trkpt lat="44.17663" lon="6.96948">
        <ele>2073.2934995368</ele>
        <time>2021-11-18T09:26:27Z</time>
      </trkpt>
      <trkpt lat="44.17662" lon="6.96945">
        <ele>2072.293533735</ele>
        <time>2021-11-18T09:26:29Z</time>
      </trkpt>
      <trkpt lat="44.17661" lon="6.96944">
        <ele>2072.2935536839</ele>
        <time>2021-11-18T09:26:30Z</time>
      </trkpt>
      <trkpt lat="44.17661" lon="6.96943">
        <ele>2073.2935655862</ele>
        <time>2021-11-18T09:26:31Z</time>
      </trkpt>
      <trkpt lat="44.17661" lon="6.96942">
        <ele>2072.2935783267</ele>
        <time>2021-11-18T09:26:33Z</time>
      </trkpt>
      <trkpt lat="44.1766" lon="6.96941">
        <ele>2072.2935888879</ele>
        <time>2021-11-18T09:26:34Z</time>
      </trkpt>
      <trkpt lat="44.1766" lon="6.9694">
        <ele>2072.2935922407</ele>
        <time>2021-11-18T09:26:35Z</time>
      </trkpt>
      <trkpt lat="44.1766" lon="6.96939">
        <ele>2072.2935912348</ele>
        <time>2021-11-18T09:26:37Z</time>
      </trkpt>
      <trkpt lat="44.1766" lon="6.96938">
        <ele>2073.293612022</ele>
        <time>2021-11-18T09:26:39Z</time>
      </trkpt>
      <trkpt lat="44.17659" lon="6.96938">
        <ele>2073.2936306298</ele>
        <time>2021-11-18T09:26:41Z</time>
      </trkpt>
      <trkpt lat="44.17658" lon="6.96938">
        <ele>2074.2936725393</ele>
        <time>2021-11-18T09:26:42Z</time>
      </trkpt>
      <trkpt lat="44.17657" lon="6.96937">
        <ele>2074.2937146164</ele>
        <time>2021-11-18T09:26:44Z</time>
      </trkpt>
      <trkpt lat="44.17657" lon="6.96937">
        <ele>2074.2937293686</ele>
        <time>2021-11-18T09:26:45Z</time>
      </trkpt>
      <trkpt lat="44.17656" lon="6.96936">
        <ele>2073.2937677577</ele>
        <time>2021-11-18T09:26:46Z</time>
      </trkpt>
      <trkpt lat="44.17655" lon="6.96936">
        <ele>2073.2937878743</ele>
        <time>2021-11-18T09:26:50Z</time>
      </trkpt>
      <trkpt lat="44.17655" lon="6.96935">
        <ele>2075.2938076556</ele>
        <time>2021-11-18T09:26:52Z</time>
      </trkpt>
      <trkpt lat="44.17654" lon="6.96933">
        <ele>2075.2938410155</ele>
        <time>2021-11-18T09:26:54Z</time>
      </trkpt>
      <trkpt lat="44.17654" lon="6.96933">
        <ele>2076.2938547619</ele>
        <time>2021-11-18T09:26:57Z</time>
      </trkpt>
      <trkpt lat="44.17655" lon="6.96931">
        <ele>2078.2938106731</ele>
        <time>2021-11-18T09:26:58Z</time>
      </trkpt>
      <trkpt lat="44.17655" lon="6.9693">
        <ele>2079.2938182168</ele>
        <time>2021-11-18T09:26:59Z</time>
      </trkpt>
      <trkpt lat="44.17655" lon="6.96929">
        <ele>2079.2938200608</ele>
        <time>2021-11-18T09:27:00Z</time>
      </trkpt>
      <trkpt lat="44.17654" lon="6.96929">
        <ele>2079.2938312925</ele>
        <time>2021-11-18T09:27:06Z</time>
      </trkpt>
      <trkpt lat="44.17653" lon="6.96927">
        <ele>2080.2938705198</ele>
        <time>2021-11-18T09:27:07Z</time>
      </trkpt>
      <trkpt lat="44.17653" lon="6.96926">
        <ele>2081.2938790694</ele>
        <time>2021-11-18T09:27:09Z</time>
      </trkpt>
      <trkpt lat="44.17653" lon="6.96925">
        <ele>2082.293898683</ele>
        <time>2021-11-18T09:27:12Z</time>
      </trkpt>
      <trkpt lat="44.17652" lon="6.96923">
        <ele>2082.2939246669</ele>
        <time>2021-11-18T09:27:14Z</time>
      </trkpt>
      <trkpt lat="44.17652" lon="6.96922">
        <ele>2082.2939182967</ele>
        <time>2021-11-18T09:27:15Z</time>
      </trkpt>
      <trkpt lat="44.17652" lon="6.96922">
        <ele>2083.2939122617</ele>
        <time>2021-11-18T09:27:16Z</time>
      </trkpt>
      <trkpt lat="44.17652" lon="6.96921">
        <ele>2083.2939032093</ele>
        <time>2021-11-18T09:27:17Z</time>
      </trkpt>
      <trkpt lat="44.17652" lon="6.96919">
        <ele>2084.293910753</ele>
        <time>2021-11-18T09:27:19Z</time>
      </trkpt>
      <trkpt lat="44.17653" lon="6.96919">
        <ele>2085.29390103</ele>
        <time>2021-11-18T09:27:23Z</time>
      </trkpt>
      <trkpt lat="44.17651" lon="6.96917">
        <ele>2086.2939570211</ele>
        <time>2021-11-18T09:27:24Z</time>
      </trkpt>
      <trkpt lat="44.1765" lon="6.96917">
        <ele>2085.2939903811</ele>
        <time>2021-11-18T09:27:25Z</time>
      </trkpt>
      <trkpt lat="44.17649" lon="6.96917">
        <ele>2085.2940411754</ele>
        <time>2021-11-18T09:27:27Z</time>
      </trkpt>
      <trkpt lat="44.17649" lon="6.96917">
        <ele>2085.2940411754</ele>
        <time>2021-11-18T09:27:30Z</time>
      </trkpt>
      <trkpt lat="44.17648" lon="6.96916">
        <ele>2084.2940896228</ele>
        <time>2021-11-18T09:27:31Z</time>
      </trkpt>
      <trkpt lat="44.17647" lon="6.96916">
        <ele>2084.2941199653</ele>
        <time>2021-11-18T09:27:33Z</time>
      </trkpt>
      <trkpt lat="44.17646" lon="6.96916">
        <ele>2084.2941476256</ele>
        <time>2021-11-18T09:27:37Z</time>
      </trkpt>
      <trkpt lat="44.17645" lon="6.96915">
        <ele>2084.2941947319</ele>
        <time>2021-11-18T09:27:38Z</time>
      </trkpt>
      <trkpt lat="44.17645" lon="6.96915">
        <ele>2084.2942099869</ele>
        <time>2021-11-18T09:27:39Z</time>
      </trkpt>
      <trkpt lat="44.17644" lon="6.96914">
        <ele>2083.2942275889</ele>
        <time>2021-11-18T09:27:40Z</time>
      </trkpt>
      <trkpt lat="44.17644" lon="6.96913">
        <ele>2083.294250723</ele>
        <time>2021-11-18T09:27:41Z</time>
      </trkpt>
      <trkpt lat="44.17643" lon="6.96912">
        <ele>2083.2942921296</ele>
        <time>2021-11-18T09:27:43Z</time>
      </trkpt>
      <trkpt lat="44.17643" lon="6.96912">
        <ele>2083.2942921296</ele>
        <time>2021-11-18T09:27:45Z</time>
      </trkpt>
      <trkpt lat="44.17642" lon="6.9691">
        <ele>2083.2943149284</ele>
        <time>2021-11-18T09:27:46Z</time>
      </trkpt>
      <trkpt lat="44.17642" lon="6.96909">
        <ele>2084.2943295129</ele>
        <time>2021-11-18T09:27:47Z</time>
      </trkpt>
      <trkpt lat="44.17642" lon="6.96909">
        <ele>2084.2943392359</ele>
        <time>2021-11-18T09:27:48Z</time>
      </trkpt>
      <trkpt lat="44.17642" lon="6.96908">
        <ele>2084.2943394035</ele>
        <time>2021-11-18T09:27:53Z</time>
      </trkpt>
      <trkpt lat="44.17641" lon="6.96907">
        <ele>2085.294379469</ele>
        <time>2021-11-18T09:27:54Z</time>
      </trkpt>
      <trkpt lat="44.1764" lon="6.96906">
        <ele>2084.294400759</ele>
        <time>2021-11-18T09:27:55Z</time>
      </trkpt>
      <trkpt lat="44.17639" lon="6.96907">
        <ele>2084.2944252342</ele>
        <time>2021-11-18T09:27:56Z</time>
      </trkpt>
      <trkpt lat="44.17639" lon="6.96907">
        <ele>2084.2944398187</ele>
        <time>2021-11-18T09:27:57Z</time>
      </trkpt>
      <trkpt lat="44.17638" lon="6.96904">
        <ele>2084.2944748551</ele>
        <time>2021-11-18T09:27:59Z</time>
      </trkpt>
      <trkpt lat="44.17638" lon="6.96903">
        <ele>2084.2944904454</ele>
        <time>2021-11-18T09:28:00Z</time>
      </trkpt>
      <trkpt lat="44.17637" lon="6.96902">
        <ele>2084.2945041917</ele>
        <time>2021-11-18T09:28:01Z</time>
      </trkpt>
      <trkpt lat="44.17637" lon="6.96901">
        <ele>2085.2945264876</ele>
        <time>2021-11-18T09:28:02Z</time>
      </trkpt>
      <trkpt lat="44.17636" lon="6.96901">
        <ele>2085.2945727557</ele>
        <time>2021-11-18T09:28:03Z</time>
      </trkpt>
      <trkpt lat="44.17634" lon="6.969">
        <ele>2085.2946282439</ele>
        <time>2021-11-18T09:28:04Z</time>
      </trkpt>
      <trkpt lat="44.17634" lon="6.96899">
        <ele>2086.2946607657</ele>
        <time>2021-11-18T09:28:05Z</time>
      </trkpt>
      <trkpt lat="44.17633" lon="6.96898">
        <ele>2086.2946775295</ele>
        <time>2021-11-18T09:28:07Z</time>
      </trkpt>
      <trkpt lat="44.17632" lon="6.96898">
        <ele>2088.2947021723</ele>
        <time>2021-11-18T09:28:08Z</time>
      </trkpt>
      <trkpt lat="44.17632" lon="6.96898">
        <ele>2088.2947187684</ele>
        <time>2021-11-18T09:28:09Z</time>
      </trkpt>
      <trkpt lat="44.17631" lon="6.96897">
        <ele>2088.29474492</ele>
        <time>2021-11-18T09:28:11Z</time>
      </trkpt>
      <trkpt lat="44.17631" lon="6.96897">
        <ele>2087.2947554812</ele>
        <time>2021-11-18T09:28:16Z</time>
      </trkpt>
      <trkpt lat="44.17629" lon="6.96895">
        <ele>2088.2948557287</ele>
        <time>2021-11-18T09:28:18Z</time>
      </trkpt>
      <trkpt lat="44.17629" lon="6.96894">
        <ele>2089.2948594168</ele>
        <time>2021-11-18T09:28:19Z</time>
      </trkpt>
      <trkpt lat="44.17628" lon="6.96893">
        <ele>2091.2948706485</ele>
        <time>2021-11-18T09:28:25Z</time>
      </trkpt>
      <trkpt lat="44.17629" lon="6.96893">
        <ele>2093.294830583</ele>
        <time>2021-11-18T09:28:26Z</time>
      </trkpt>
      <trkpt lat="44.1763" lon="6.96893">
        <ele>2095.2947962172</ele>
        <time>2021-11-18T09:28:28Z</time>
      </trkpt>
      <trkpt lat="44.17631" lon="6.96894">
        <ele>2095.2947739214</ele>
        <time>2021-11-18T09:28:36Z</time>
      </trkpt>
      <trkpt lat="44.1763" lon="6.96891">
        <ele>2098.2948051021</ele>
        <time>2021-11-18T09:28:37Z</time>
      </trkpt>
      <trkpt lat="44.1763" lon="6.9689">
        <ele>2099.2948087901</ele>
        <time>2021-11-18T09:28:39Z</time>
      </trkpt>
      <trkpt lat="44.17629" lon="6.9689">
        <ele>2099.2948220335</ele>
        <time>2021-11-18T09:28:41Z</time>
      </trkpt>
      <trkpt lat="44.17628" lon="6.96889">
        <ele>2099.2948770188</ele>
        <time>2021-11-18T09:28:43Z</time>
      </trkpt>
      <trkpt lat="44.17628" lon="6.96889">
        <ele>2100.2948869094</ele>
        <time>2021-11-18T09:28:44Z</time>
      </trkpt>
      <trkpt lat="44.17628" lon="6.96888">
        <ele>2100.2948790304</ele>
        <time>2021-11-18T09:28:45Z</time>
      </trkpt>
      <trkpt lat="44.17629" lon="6.96886">
        <ele>2099.2948501967</ele>
        <time>2021-11-18T09:28:47Z</time>
      </trkpt>
      <trkpt lat="44.17629" lon="6.96886">
        <ele>2100.2948589139</ele>
        <time>2021-11-18T09:28:50Z</time>
      </trkpt>
      <trkpt lat="44.17628" lon="6.96885">
        <ele>2100.2948626019</ele>
        <time>2021-11-18T09:28:51Z</time>
      </trkpt>
      <trkpt lat="44.17628" lon="6.96884">
        <ele>2101.2948721573</ele>
        <time>2021-11-18T09:28:52Z</time>
      </trkpt>
      <trkpt lat="44.17628" lon="6.96884">
        <ele>2101.2948803715</ele>
        <time>2021-11-18T09:28:55Z</time>
      </trkpt>
      <trkpt lat="44.17628" lon="6.96882">
        <ele>2102.2948885858</ele>
        <time>2021-11-18T09:28:56Z</time>
      </trkpt>
      <trkpt lat="44.17628" lon="6.96881">
        <ele>2102.2948822156</ele>
        <time>2021-11-18T09:28:58Z</time>
      </trkpt>
      <trkpt lat="44.17628" lon="6.96881">
        <ele>2102.2948981412</ele>
        <time>2021-11-18T09:29:00Z</time>
      </trkpt>
      <trkpt lat="44.17627" lon="6.9688">
        <ele>2103.294918593</ele>
        <time>2021-11-18T09:29:01Z</time>
      </trkpt>
      <trkpt lat="44.17626" lon="6.96879">
        <ele>2103.2949449122</ele>
        <time>2021-11-18T09:29:05Z</time>
      </trkpt>
      <trkpt lat="44.17625" lon="6.96878">
        <ele>2102.2949874923</ele>
        <time>2021-11-18T09:29:06Z</time>
      </trkpt>
      <trkpt lat="44.17625" lon="6.96878">
        <ele>2103.2950114645</ele>
        <time>2021-11-18T09:29:07Z</time>
      </trkpt>
      <trkpt lat="44.17624" lon="6.96877">
        <ele>2102.2950319164</ele>
        <time>2021-11-18T09:29:08Z</time>
      </trkpt>
      <trkpt lat="44.17624" lon="6.96876">
        <ele>2102.2950299047</ele>
        <time>2021-11-18T09:29:13Z</time>
      </trkpt>
      <trkpt lat="44.17624" lon="6.96875">
        <ele>2103.2950582355</ele>
        <time>2021-11-18T09:29:14Z</time>
      </trkpt>
      <trkpt lat="44.17623" lon="6.96874">
        <ele>2103.2950894162</ele>
        <time>2021-11-18T09:29:15Z</time>
      </trkpt>
      <trkpt lat="44.17622" lon="6.96874">
        <ele>2102.2951123826</ele>
        <time>2021-11-18T09:29:16Z</time>
      </trkpt>
      <trkpt lat="44.17622" lon="6.96873">
        <ele>2104.2951058447</ele>
        <time>2021-11-18T09:29:20Z</time>
      </trkpt>
      <trkpt lat="44.17623" lon="6.96872">
        <ele>2106.295082543</ele>
        <time>2021-11-18T09:29:22Z</time>
      </trkpt>
      <trkpt lat="44.17623" lon="6.96872">
        <ele>2106.2950657792</ele>
        <time>2021-11-18T09:29:25Z</time>
      </trkpt>
      <trkpt lat="44.17623" lon="6.96871">
        <ele>2107.2950932719</ele>
        <time>2021-11-18T09:29:26Z</time>
      </trkpt>
      <trkpt lat="44.17622" lon="6.9687">
        <ele>2108.2951097004</ele>
        <time>2021-11-18T09:29:28Z</time>
      </trkpt>
      <trkpt lat="44.17622" lon="6.96869">
        <ele>2108.2951179147</ele>
        <time>2021-11-18T09:29:31Z</time>
      </trkpt>
      <trkpt lat="44.17621" lon="6.96867">
        <ele>2107.295157142</ele>
        <time>2021-11-18T09:29:32Z</time>
      </trkpt>
      <trkpt lat="44.17622" lon="6.96866">
        <ele>2107.2951257937</ele>
        <time>2021-11-18T09:29:34Z</time>
      </trkpt>
      <trkpt lat="44.17623" lon="6.96866">
        <ele>2108.2951011509</ele>
        <time>2021-11-18T09:29:37Z</time>
      </trkpt>
      <trkpt lat="44.17624" lon="6.96866">
        <ele>2109.2950456627</ele>
        <time>2021-11-18T09:29:39Z</time>
      </trkpt>
      <trkpt lat="44.17624" lon="6.96866">
        <ele>2109.2950275578</ele>
        <time>2021-11-18T09:29:40Z</time>
      </trkpt>
      <trkpt lat="44.17625" lon="6.96866">
        <ele>2110.2950020768</ele>
        <time>2021-11-18T09:29:43Z</time>
      </trkpt>
      <trkpt lat="44.17625" lon="6.96864">
        <ele>2111.295012638</ele>
        <time>2021-11-18T09:29:45Z</time>
      </trkpt>
      <trkpt lat="44.17625" lon="6.96864">
        <ele>2112.2949843071</ele>
        <time>2021-11-18T09:29:46Z</time>
      </trkpt>
      <trkpt lat="44.17626" lon="6.96864">
        <ele>2111.2949581556</ele>
        <time>2021-11-18T09:29:49Z</time>
      </trkpt>
      <trkpt lat="44.17626" lon="6.96862">
        <ele>2111.2949429005</ele>
        <time>2021-11-18T09:29:50Z</time>
      </trkpt>
      <trkpt lat="44.17626" lon="6.96862">
        <ele>2112.2949583232</ele>
        <time>2021-11-18T09:29:55Z</time>
      </trkpt>
      <trkpt lat="44.17625" lon="6.96858">
        <ele>2112.295008447</ele>
        <time>2021-11-18T09:29:57Z</time>
      </trkpt>
      <trkpt lat="44.17624" lon="6.96858">
        <ele>2113.2950340956</ele>
        <time>2021-11-18T09:30:01Z</time>
      </trkpt>
      <trkpt lat="44.17623" lon="6.96857">
        <ele>2112.2950994745</ele>
        <time>2021-11-18T09:30:02Z</time>
      </trkpt>
      <trkpt lat="44.17622" lon="6.96856">
        <ele>2113.2951189205</ele>
        <time>2021-11-18T09:30:03Z</time>
      </trkpt>
      <trkpt lat="44.17622" lon="6.96856">
        <ele>2113.2951356843</ele>
        <time>2021-11-18T09:30:04Z</time>
      </trkpt>
      <trkpt lat="44.17621" lon="6.96855">
        <ele>2113.2951539569</ele>
        <time>2021-11-18T09:30:07Z</time>
      </trkpt>
      <trkpt lat="44.17619" lon="6.96854">
        <ele>2113.2952290587</ele>
        <time>2021-11-18T09:30:09Z</time>
      </trkpt>
      <trkpt lat="44.17619" lon="6.96853">
        <ele>2114.2952476665</ele>
        <time>2021-11-18T09:30:11Z</time>
      </trkpt>
      <trkpt lat="44.17618" lon="6.96853">
        <ele>2114.2952634245</ele>
        <time>2021-11-18T09:30:12Z</time>
      </trkpt>
      <trkpt lat="44.17618" lon="6.96852">
        <ele>2114.295280356</ele>
        <time>2021-11-18T09:30:13Z</time>
      </trkpt>
      <trkpt lat="44.17617" lon="6.96852">
        <ele>2114.2953066751</ele>
        <time>2021-11-18T09:30:14Z</time>
      </trkpt>
      <trkpt lat="44.17617" lon="6.96851">
        <ele>2115.2953380235</ele>
        <time>2021-11-18T09:30:15Z</time>
      </trkpt>
      <trkpt lat="44.17616" lon="6.9685">
        <ele>2116.2953536138</ele>
        <time>2021-11-18T09:30:16Z</time>
      </trkpt>
      <trkpt lat="44.17615" lon="6.9685">
        <ele>2117.2953847945</ele>
        <time>2021-11-18T09:30:17Z</time>
      </trkpt>
      <trkpt lat="44.17615" lon="6.9685">
        <ele>2117.2954023965</ele>
        <time>2021-11-18T09:30:18Z</time>
      </trkpt>
      <trkpt lat="44.17615" lon="6.96849">
        <ele>2117.2954181544</ele>
        <time>2021-11-18T09:30:21Z</time>
      </trkpt>
      <trkpt lat="44.17614" lon="6.96847">
        <ele>2116.2954374328</ele>
        <time>2021-11-18T09:30:22Z</time>
      </trkpt>
      <trkpt lat="44.17614" lon="6.96846">
        <ele>2116.2954585552</ele>
        <time>2021-11-18T09:30:24Z</time>
      </trkpt>
      <trkpt lat="44.17613" lon="6.96846">
        <ele>2118.2954880595</ele>
        <time>2021-11-18T09:30:28Z</time>
      </trkpt>
      <trkpt lat="44.17613" lon="6.96845">
        <ele>2119.2954964414</ele>
        <time>2021-11-18T09:30:30Z</time>
      </trkpt>
      <trkpt lat="44.17613" lon="6.96845">
        <ele>2121.2954837009</ele>
        <time>2021-11-18T09:30:34Z</time>
      </trkpt>
      <trkpt lat="44.17613" lon="6.96844">
        <ele>2120.2954719663</ele>
        <time>2021-11-18T09:30:42Z</time>
      </trkpt>
      <trkpt lat="44.17614" lon="6.96842">
        <ele>2119.2954305597</ele>
        <time>2021-11-18T09:30:44Z</time>
      </trkpt>
      <trkpt lat="44.17614" lon="6.96841">
        <ele>2119.2954349183</ele>
        <time>2021-11-18T09:30:45Z</time>
      </trkpt>
      <trkpt lat="44.17614" lon="6.9684">
        <ele>2118.2954283804</ele>
        <time>2021-11-18T09:30:47Z</time>
      </trkpt>
      <trkpt lat="44.17615" lon="6.96839">
        <ele>2119.2954208367</ele>
        <time>2021-11-18T09:30:49Z</time>
      </trkpt>
      <trkpt lat="44.17615" lon="6.96838">
        <ele>2119.2954042405</ele>
        <time>2021-11-18T09:30:50Z</time>
      </trkpt>
      <trkpt lat="44.17615" lon="6.96838">
        <ele>2120.2953866385</ele>
        <time>2021-11-18T09:30:51Z</time>
      </trkpt>
      <trkpt lat="44.17616" lon="6.96837">
        <ele>2121.295377586</ele>
        <time>2021-11-18T09:30:53Z</time>
      </trkpt>
      <trkpt lat="44.17616" lon="6.96836">
        <ele>2122.2953715511</ele>
        <time>2021-11-18T09:30:56Z</time>
      </trkpt>
      <trkpt lat="44.17615" lon="6.96836">
        <ele>2122.295409102</ele>
        <time>2021-11-18T09:30:58Z</time>
      </trkpt>
      <trkpt lat="44.17615" lon="6.96835">
        <ele>2123.2953852974</ele>
        <time>2021-11-18T09:31:00Z</time>
      </trkpt>
      <trkpt lat="44.17616" lon="6.96834">
        <ele>2124.2953712158</ele>
        <time>2021-11-18T09:31:02Z</time>
      </trkpt>
      <trkpt lat="44.17616" lon="6.96833">
        <ele>2125.2953480817</ele>
        <time>2021-11-18T09:31:04Z</time>
      </trkpt>
      <trkpt lat="44.17617" lon="6.96832">
        <ele>2125.2953313179</ele>
        <time>2021-11-18T09:31:07Z</time>
      </trkpt>
      <trkpt lat="44.17617" lon="6.96832">
        <ele>2125.2953038253</ele>
        <time>2021-11-18T09:31:09Z</time>
      </trkpt>
      <trkpt lat="44.17618" lon="6.96831">
        <ele>2125.2952967845</ele>
        <time>2021-11-18T09:31:10Z</time>
      </trkpt>
      <trkpt lat="44.17618" lon="6.96831">
        <ele>2125.2952729799</ele>
        <time>2021-11-18T09:31:11Z</time>
      </trkpt>
      <trkpt lat="44.17619" lon="6.9683">
        <ele>2125.2952568866</ele>
        <time>2021-11-18T09:31:19Z</time>
      </trkpt>
      <trkpt lat="44.17618" lon="6.96828">
        <ele>2126.2952964492</ele>
        <time>2021-11-18T09:31:20Z</time>
      </trkpt>
      <trkpt lat="44.17617" lon="6.96827">
        <ele>2127.2953091897</ele>
        <time>2021-11-18T09:31:28Z</time>
      </trkpt>
      <trkpt lat="44.17616" lon="6.96825">
        <ele>2127.2953552902</ele>
        <time>2021-11-18T09:31:29Z</time>
      </trkpt>
      <trkpt lat="44.17616" lon="6.96824">
        <ele>2127.2953573018</ele>
        <time>2021-11-18T09:31:30Z</time>
      </trkpt>
      <trkpt lat="44.17616" lon="6.96823">
        <ele>2127.2953593135</ele>
        <time>2021-11-18T09:31:37Z</time>
      </trkpt>
      <trkpt lat="44.17614" lon="6.96822">
        <ele>2128.2954342477</ele>
        <time>2021-11-18T09:31:38Z</time>
      </trkpt>
      <trkpt lat="44.17613" lon="6.96822">
        <ele>2128.2954696193</ele>
        <time>2021-11-18T09:31:39Z</time>
      </trkpt>
      <trkpt lat="44.17613" lon="6.96821">
        <ele>2128.2954820246</ele>
        <time>2021-11-18T09:31:41Z</time>
      </trkpt>
      <trkpt lat="44.17613" lon="6.96821">
        <ele>2128.2954979502</ele>
        <time>2021-11-18T09:31:42Z</time>
      </trkpt>
      <trkpt lat="44.17612" lon="6.9682">
        <ele>2128.2955133729</ele>
        <time>2021-11-18T09:31:43Z</time>
      </trkpt>
      <trkpt lat="44.17612" lon="6.96819">
        <ele>2128.2955249399</ele>
        <time>2021-11-18T09:31:45Z</time>
      </trkpt>
      <trkpt lat="44.17611" lon="6.96819">
        <ele>2129.2955460623</ele>
        <time>2021-11-18T09:31:49Z</time>
      </trkpt>
      <trkpt lat="44.17612" lon="6.96818">
        <ele>2130.2955353335</ele>
        <time>2021-11-18T09:31:50Z</time>
      </trkpt>
      <trkpt lat="44.17612" lon="6.96818">
        <ele>2131.2955329865</ele>
        <time>2021-11-18T09:31:58Z</time>
      </trkpt>
      <trkpt lat="44.17612" lon="6.96816">
        <ele>2132.2955088466</ele>
        <time>2021-11-18T09:31:59Z</time>
      </trkpt>
      <trkpt lat="44.17613" lon="6.96815">
        <ele>2133.2955011353</ele>
        <time>2021-11-18T09:32:00Z</time>
      </trkpt>
      <trkpt lat="44.17613" lon="6.96815">
        <ele>2133.2954736426</ele>
        <time>2021-11-18T09:32:05Z</time>
      </trkpt>
      <trkpt lat="44.17614" lon="6.96814">
        <ele>2133.2954427972</ele>
        <time>2021-11-18T09:32:06Z</time>
      </trkpt>
      <trkpt lat="44.17614" lon="6.96813">
        <ele>2134.2954357564</ele>
        <time>2021-11-18T09:32:20Z</time>
      </trkpt>
      <trkpt lat="44.17615" lon="6.96811">
        <ele>2135.2954174839</ele>
        <time>2021-11-18T09:32:21Z</time>
      </trkpt>
      <trkpt lat="44.17614" lon="6.9681">
        <ele>2135.2954365946</ele>
        <time>2021-11-18T09:32:22Z</time>
      </trkpt>
      <trkpt lat="44.17614" lon="6.96809">
        <ele>2135.2954392768</ele>
        <time>2021-11-18T09:32:24Z</time>
      </trkpt>
      <trkpt lat="44.17615" lon="6.96809">
        <ele>2136.2954186574</ele>
        <time>2021-11-18T09:32:27Z</time>
      </trkpt>
      <trkpt lat="44.17614" lon="6.96808">
        <ele>2136.2954240218</ele>
        <time>2021-11-18T09:32:30Z</time>
      </trkpt>
      <trkpt lat="44.17614" lon="6.96807">
        <ele>2136.2954422943</ele>
        <time>2021-11-18T09:32:31Z</time>
      </trkpt>
      <trkpt lat="44.17614" lon="6.96806">
        <ele>2136.2954427972</ele>
        <time>2021-11-18T09:32:34Z</time>
      </trkpt>
      <trkpt lat="44.17614" lon="6.96806">
        <ele>2136.2954233512</ele>
        <time>2021-11-18T09:32:40Z</time>
      </trkpt>
      <trkpt lat="44.17614" lon="6.96805">
        <ele>2138.2954478264</ele>
        <time>2021-11-18T09:32:41Z</time>
      </trkpt>
      <trkpt lat="44.17614" lon="6.96804">
        <ele>2138.2954426296</ele>
        <time>2021-11-18T09:32:43Z</time>
      </trkpt>
      <trkpt lat="44.17614" lon="6.96803">
        <ele>2139.295455873</ele>
        <time>2021-11-18T09:32:46Z</time>
      </trkpt>
      <trkpt lat="44.17612" lon="6.96803">
        <ele>2139.2955029793</ele>
        <time>2021-11-18T09:32:47Z</time>
      </trkpt>
      <trkpt lat="44.17612" lon="6.96803">
        <ele>2139.295526281</ele>
        <time>2021-11-18T09:32:49Z</time>
      </trkpt>
      <trkpt lat="44.17612" lon="6.96803">
        <ele>2139.2955410331</ele>
        <time>2021-11-18T09:32:51Z</time>
      </trkpt>
      <trkpt lat="44.17611" lon="6.96802">
        <ele>2141.2955448888</ele>
        <time>2021-11-18T09:32:54Z</time>
      </trkpt>
      <trkpt lat="44.17612" lon="6.96802">
        <ele>2141.2955271192</ele>
        <time>2021-11-18T09:33:01Z</time>
      </trkpt>
      <trkpt lat="44.17612" lon="6.968">
        <ele>2140.2955373451</ele>
        <time>2021-11-18T09:33:02Z</time>
      </trkpt>
      <trkpt lat="44.17611" lon="6.96799">
        <ele>2140.2955629937</ele>
        <time>2021-11-18T09:33:05Z</time>
      </trkpt>
      <trkpt lat="44.17611" lon="6.96799">
        <ele>2140.2955810986</ele>
        <time>2021-11-18T09:33:08Z</time>
      </trkpt>
      <trkpt lat="44.1761" lon="6.96798">
        <ele>2142.2955852896</ele>
        <time>2021-11-18T09:33:10Z</time>
      </trkpt>
      <trkpt lat="44.1761" lon="6.96798">
        <ele>2141.2955981977</ele>
        <time>2021-11-18T09:33:11Z</time>
      </trkpt>
      <trkpt lat="44.17609" lon="6.96797">
        <ele>2141.2956335694</ele>
        <time>2021-11-18T09:33:12Z</time>
      </trkpt>
      <trkpt lat="44.17609" lon="6.96797">
        <ele>2141.295653183</ele>
        <time>2021-11-18T09:33:14Z</time>
      </trkpt>
      <trkpt lat="44.17608" lon="6.96797">
        <ele>2140.2956679352</ele>
        <time>2021-11-18T09:33:15Z</time>
      </trkpt>
      <trkpt lat="44.17608" lon="6.96795">
        <ele>2141.295684699</ele>
        <time>2021-11-18T09:33:16Z</time>
      </trkpt>
      <trkpt lat="44.17608" lon="6.96795">
        <ele>2140.2956966013</ele>
        <time>2021-11-18T09:33:18Z</time>
      </trkpt>
      <trkpt lat="44.17607" lon="6.96794">
        <ele>2141.2957401872</ele>
        <time>2021-11-18T09:33:20Z</time>
      </trkpt>
      <trkpt lat="44.17606" lon="6.96793">
        <ele>2142.2957690209</ele>
        <time>2021-11-18T09:33:22Z</time>
      </trkpt>
      <trkpt lat="44.17606" lon="6.96792">
        <ele>2142.2957779057</ele>
        <time>2021-11-18T09:33:23Z</time>
      </trkpt>
      <trkpt lat="44.17605" lon="6.96791">
        <ele>2143.295799531</ele>
        <time>2021-11-18T09:33:34Z</time>
      </trkpt>
      <trkpt lat="44.17604" lon="6.9679">
        <ele>2145.2958300412</ele>
        <time>2021-11-18T09:33:35Z</time>
      </trkpt>
      <trkpt lat="44.17604" lon="6.96789">
        <ele>2146.2958582044</ele>
        <time>2021-11-18T09:33:37Z</time>
      </trkpt>
      <trkpt lat="44.17603" lon="6.96789">
        <ele>2147.2958731242</ele>
        <time>2021-11-18T09:33:39Z</time>
      </trkpt>
      <trkpt lat="44.17604" lon="6.96789">
        <ele>2147.2958499901</ele>
        <time>2021-11-18T09:33:41Z</time>
      </trkpt>
      <trkpt lat="44.17604" lon="6.96789">
        <ele>2147.2958235033</ele>
        <time>2021-11-18T09:33:42Z</time>
      </trkpt>
      <trkpt lat="44.17605" lon="6.96788">
        <ele>2147.2957822643</ele>
        <time>2021-11-18T09:33:44Z</time>
      </trkpt>
      <trkpt lat="44.17606" lon="6.96788">
        <ele>2147.2957735471</ele>
        <time>2021-11-18T09:33:50Z</time>
      </trkpt>
      <trkpt lat="44.17607" lon="6.96787">
        <ele>2148.2957269438</ele>
        <time>2021-11-18T09:33:51Z</time>
      </trkpt>
      <trkpt lat="44.17607" lon="6.96786">
        <ele>2148.2957152091</ele>
        <time>2021-11-18T09:33:52Z</time>
      </trkpt>
      <trkpt lat="44.17608" lon="6.96785">
        <ele>2147.2956991158</ele>
        <time>2021-11-18T09:33:53Z</time>
      </trkpt>
      <trkpt lat="44.17608" lon="6.96785">
        <ele>2147.2956888899</ele>
        <time>2021-11-18T09:33:58Z</time>
      </trkpt>
      <trkpt lat="44.17607" lon="6.96784">
        <ele>2148.2957103476</ele>
        <time>2021-11-18T09:33:59Z</time>
      </trkpt>
      <trkpt lat="44.17608" lon="6.96783">
        <ele>2149.2957009599</ele>
        <time>2021-11-18T09:34:01Z</time>
      </trkpt>
      <trkpt lat="44.17607" lon="6.96783">
        <ele>2149.2957069948</ele>
        <time>2021-11-18T09:34:02Z</time>
      </trkpt>
      <trkpt lat="44.17607" lon="6.96782">
        <ele>2149.2957302965</ele>
        <time>2021-11-18T09:34:04Z</time>
      </trkpt>
      <trkpt lat="44.17606" lon="6.96782">
        <ele>2149.2957500778</ele>
        <time>2021-11-18T09:34:23Z</time>
      </trkpt>
      <trkpt lat="44.17605" lon="6.96779">
        <ele>2151.2957866229</ele>
        <time>2021-11-18T09:34:24Z</time>
      </trkpt>
      <trkpt lat="44.17605" lon="6.96778">
        <ele>2151.295784276</ele>
        <time>2021-11-18T09:34:25Z</time>
      </trkpt>
      <trkpt lat="44.17605" lon="6.96778">
        <ele>2152.2957846113</ele>
        <time>2021-11-18T09:34:26Z</time>
      </trkpt>
      <trkpt lat="44.17606" lon="6.96777">
        <ele>2153.2957658358</ele>
        <time>2021-11-18T09:34:30Z</time>
      </trkpt>
      <trkpt lat="44.17606" lon="6.96776">
        <ele>2153.2957502455</ele>
        <time>2021-11-18T09:34:32Z</time>
      </trkpt>
      <trkpt lat="44.17606" lon="6.96775">
        <ele>2153.2957708649</ele>
        <time>2021-11-18T09:34:34Z</time>
      </trkpt>
      <trkpt lat="44.17606" lon="6.96774">
        <ele>2154.2957805879</ele>
        <time>2021-11-18T09:34:35Z</time>
      </trkpt>
      <trkpt lat="44.17605" lon="6.96774">
        <ele>2154.2957899757</ele>
        <time>2021-11-18T09:34:36Z</time>
      </trkpt>
      <trkpt lat="44.17605" lon="6.96772">
        <ele>2154.2958045602</ele>
        <time>2021-11-18T09:34:38Z</time>
      </trkpt>
      <trkpt lat="44.17605" lon="6.96771">
        <ele>2154.2958094217</ele>
        <time>2021-11-18T09:34:40Z</time>
      </trkpt>
      <trkpt lat="44.17605" lon="6.9677">
        <ele>2155.2957931608</ele>
        <time>2021-11-18T09:34:45Z</time>
      </trkpt>
      <trkpt lat="44.17606" lon="6.96769">
        <ele>2155.2957613096</ele>
        <time>2021-11-18T09:34:46Z</time>
      </trkpt>
      <trkpt lat="44.17607" lon="6.96767">
        <ele>2155.2957172208</ele>
        <time>2021-11-18T09:34:47Z</time>
      </trkpt>
      <trkpt lat="44.17607" lon="6.96767">
        <ele>2156.2957093418</ele>
        <time>2021-11-18T09:34:51Z</time>
      </trkpt>
      <trkpt lat="44.17607" lon="6.96766">
        <ele>2157.2957286201</ele>
        <time>2021-11-18T09:34:53Z</time>
      </trkpt>
      <trkpt lat="44.17606" lon="6.96765">
        <ele>2157.2957505807</ele>
        <time>2021-11-18T09:34:55Z</time>
      </trkpt>
      <trkpt lat="44.17606" lon="6.96766">
        <ele>2157.2957700267</ele>
        <time>2021-11-18T09:34:56Z</time>
      </trkpt>
      <trkpt lat="44.17605" lon="6.96766">
        <ele>2156.2957911491</ele>
        <time>2021-11-18T09:34:57Z</time>
      </trkpt>
      <trkpt lat="44.17605" lon="6.96765">
        <ele>2156.295813445</ele>
        <time>2021-11-18T09:34:58Z</time>
      </trkpt>
      <trkpt lat="44.17604" lon="6.96765">
        <ele>2157.2958380878</ele>
        <time>2021-11-18T09:35:02Z</time>
      </trkpt>
      <trkpt lat="44.17603" lon="6.96763">
        <ele>2156.295880165</ele>
        <time>2021-11-18T09:35:04Z</time>
      </trkpt>
      <trkpt lat="44.17602" lon="6.96763">
        <ele>2157.2959126867</ele>
        <time>2021-11-18T09:35:06Z</time>
      </trkpt>
      <trkpt lat="44.17602" lon="6.96762">
        <ele>2158.2959344797</ele>
        <time>2021-11-18T09:35:10Z</time>
      </trkpt>
      <trkpt lat="44.17601" lon="6.9676">
        <ele>2159.2959584519</ele>
        <time>2021-11-18T09:35:11Z</time>
      </trkpt>
      <trkpt lat="44.17601" lon="6.9676">
        <ele>2159.2959636487</ele>
        <time>2021-11-18T09:35:12Z</time>
      </trkpt>
      <trkpt lat="44.176" lon="6.96758">
        <ele>2160.2959988527</ele>
        <time>2021-11-18T09:35:14Z</time>
      </trkpt>
      <trkpt lat="44.176" lon="6.96759">
        <ele>2160.29600472</ele>
        <time>2021-11-18T09:35:16Z</time>
      </trkpt>
      <trkpt lat="44.176" lon="6.9676">
        <ele>2160.2960063964</ele>
        <time>2021-11-18T09:35:22Z</time>
      </trkpt>
      <trkpt lat="44.17599" lon="6.96761">
        <ele>2160.2960243337</ele>
        <time>2021-11-18T09:35:24Z</time>
      </trkpt>
      <trkpt lat="44.17599" lon="6.96761">
        <ele>2160.296047803</ele>
        <time>2021-11-18T09:38:11Z</time>
      </trkpt>
      <trkpt lat="44.17598" lon="6.9676">
        <ele>2160.2960757986</ele>
        <time>2021-11-18T09:38:12Z</time>
      </trkpt>
      <trkpt lat="44.17598" lon="6.9676">
        <ele>2159.2960974239</ele>
        <time>2021-11-18T09:38:13Z</time>
      </trkpt>
      <trkpt lat="44.17597" lon="6.96759">
        <ele>2159.2961116731</ele>
        <time>2021-11-18T09:38:14Z</time>
      </trkpt>
      <trkpt lat="44.17597" lon="6.96759">
        <ele>2159.2961411774</ele>
        <time>2021-11-18T09:38:15Z</time>
      </trkpt>
      <trkpt lat="44.17596" lon="6.96758">
        <ele>2159.2961690053</ele>
        <time>2021-11-18T09:38:16Z</time>
      </trkpt>
      <trkpt lat="44.17595" lon="6.96757">
        <ele>2160.2962028682</ele>
        <time>2021-11-18T09:38:17Z</time>
      </trkpt>
      <trkpt lat="44.17595" lon="6.96756">
        <ele>2160.2962209731</ele>
        <time>2021-11-18T09:38:18Z</time>
      </trkpt>
      <trkpt lat="44.17594" lon="6.96755">
        <ele>2160.2962333784</ele>
        <time>2021-11-18T09:38:19Z</time>
      </trkpt>
      <trkpt lat="44.17594" lon="6.96754">
        <ele>2160.2962355576</ele>
        <time>2021-11-18T09:38:20Z</time>
      </trkpt>
      <trkpt lat="44.17594" lon="6.96752">
        <ele>2160.2962320372</ele>
        <time>2021-11-18T09:38:21Z</time>
      </trkpt>
      <trkpt lat="44.17594" lon="6.96751">
        <ele>2160.2962251641</ele>
        <time>2021-11-18T09:38:22Z</time>
      </trkpt>
      <trkpt lat="44.17595" lon="6.9675">
        <ele>2160.2962156087</ele>
        <time>2021-11-18T09:38:24Z</time>
      </trkpt>
      <trkpt lat="44.17595" lon="6.96749">
        <ele>2160.296204377</ele>
        <time>2021-11-18T09:38:25Z</time>
      </trkpt>
      <trkpt lat="44.17595" lon="6.96748">
        <ele>2160.2962151058</ele>
        <time>2021-11-18T09:38:26Z</time>
      </trkpt>
      <trkpt lat="44.17595" lon="6.96747">
        <ele>2160.296188619</ele>
        <time>2021-11-18T09:38:27Z</time>
      </trkpt>
      <trkpt lat="44.17596" lon="6.96746">
        <ele>2160.2961753756</ele>
        <time>2021-11-18T09:38:28Z</time>
      </trkpt>
      <trkpt lat="44.17596" lon="6.96745">
        <ele>2160.2961644791</ele>
        <time>2021-11-18T09:38:29Z</time>
      </trkpt>
      <trkpt lat="44.17596" lon="6.96744">
        <ele>2161.2961550914</ele>
        <time>2021-11-18T09:38:30Z</time>
      </trkpt>
      <trkpt lat="44.17597" lon="6.96743">
        <ele>2160.2961411774</ele>
        <time>2021-11-18T09:38:31Z</time>
      </trkpt>
      <trkpt lat="44.17597" lon="6.96741">
        <ele>2161.2961309515</ele>
        <time>2021-11-18T09:38:32Z</time>
      </trkpt>
      <trkpt lat="44.17597" lon="6.96741">
        <ele>2161.2961291075</ele>
        <time>2021-11-18T09:38:33Z</time>
      </trkpt>
      <trkpt lat="44.17597" lon="6.96738">
        <ele>2161.2961384952</ele>
        <time>2021-11-18T09:38:35Z</time>
      </trkpt>
      <trkpt lat="44.17597" lon="6.96737">
        <ele>2162.2961398363</ele>
        <time>2021-11-18T09:38:36Z</time>
      </trkpt>
      <trkpt lat="44.17596" lon="6.96736">
        <ele>2162.2961507328</ele>
        <time>2021-11-18T09:38:37Z</time>
      </trkpt>
      <trkpt lat="44.17596" lon="6.96735">
        <ele>2161.2961475477</ele>
        <time>2021-11-18T09:38:38Z</time>
      </trkpt>
      <trkpt lat="44.17597" lon="6.96734">
        <ele>2161.2961411774</ele>
        <time>2021-11-18T09:38:39Z</time>
      </trkpt>
      <trkpt lat="44.17596" lon="6.96733">
        <ele>2161.2961468771</ele>
        <time>2021-11-18T09:38:40Z</time>
      </trkpt>
      <trkpt lat="44.17596" lon="6.96732">
        <ele>2161.2961639762</ele>
        <time>2021-11-18T09:38:41Z</time>
      </trkpt>
      <trkpt lat="44.17596" lon="6.96731">
        <ele>2161.2961805724</ele>
        <time>2021-11-18T09:38:42Z</time>
      </trkpt>
      <trkpt lat="44.17595" lon="6.9673">
        <ele>2161.2961897925</ele>
        <time>2021-11-18T09:38:43Z</time>
      </trkpt>
      <trkpt lat="44.17595" lon="6.96729">
        <ele>2161.2962166145</ele>
        <time>2021-11-18T09:38:45Z</time>
      </trkpt>
      <trkpt lat="44.17594" lon="6.96728">
        <ele>2161.2962300256</ele>
        <time>2021-11-18T09:38:46Z</time>
      </trkpt>
      <trkpt lat="44.17594" lon="6.96728">
        <ele>2161.2962494716</ele>
        <time>2021-11-18T09:38:47Z</time>
      </trkpt>
      <trkpt lat="44.17593" lon="6.96726">
        <ele>2162.2962632179</ele>
        <time>2021-11-18T09:38:48Z</time>
      </trkpt>
      <trkpt lat="44.17593" lon="6.96726">
        <ele>2162.2962722704</ele>
        <time>2021-11-18T09:38:49Z</time>
      </trkpt>
      <trkpt lat="44.17593" lon="6.96725">
        <ele>2163.2962764613</ele>
        <time>2021-11-18T09:38:50Z</time>
      </trkpt>
      <trkpt lat="44.17593" lon="6.96724">
        <ele>2163.2962799817</ele>
        <time>2021-11-18T09:38:51Z</time>
      </trkpt>
      <trkpt lat="44.17593" lon="6.96723">
        <ele>2164.296286352</ele>
        <time>2021-11-18T09:38:52Z</time>
      </trkpt>
      <trkpt lat="44.17593" lon="6.96722">
        <ele>2164.2962930575</ele>
        <time>2021-11-18T09:38:53Z</time>
      </trkpt>
      <trkpt lat="44.17593" lon="6.96721">
        <ele>2164.2962897047</ele>
        <time>2021-11-18T09:38:54Z</time>
      </trkpt>
      <trkpt lat="44.17593" lon="6.96719">
        <ele>2164.296284508</ele>
        <time>2021-11-18T09:38:55Z</time>
      </trkpt>
      <trkpt lat="44.17593" lon="6.96718">
        <ele>2164.2962967455</ele>
        <time>2021-11-18T09:38:57Z</time>
      </trkpt>
      <trkpt lat="44.17593" lon="6.96718">
        <ele>2164.2962824963</ele>
        <time>2021-11-18T09:38:58Z</time>
      </trkpt>
      <trkpt lat="44.17594" lon="6.96717">
        <ele>2166.2962504774</ele>
        <time>2021-11-18T09:39:01Z</time>
      </trkpt>
      <trkpt lat="44.17594" lon="6.96716">
        <ele>2167.2962459512</ele>
        <time>2021-11-18T09:39:05Z</time>
      </trkpt>
      <trkpt lat="44.17594" lon="6.96715">
        <ele>2167.2962228172</ele>
        <time>2021-11-18T09:39:06Z</time>
      </trkpt>
      <trkpt lat="44.17595" lon="6.96714">
        <ele>2167.2962090708</ele>
        <time>2021-11-18T09:39:07Z</time>
      </trkpt>
      <trkpt lat="44.17595" lon="6.96713">
        <ele>2168.2962194644</ele>
        <time>2021-11-18T09:39:09Z</time>
      </trkpt>
      <trkpt lat="44.17594" lon="6.96712">
        <ele>2168.2962296903</ele>
        <time>2021-11-18T09:39:11Z</time>
      </trkpt>
      <trkpt lat="44.17594" lon="6.96712">
        <ele>2167.2962348871</ele>
        <time>2021-11-18T09:39:12Z</time>
      </trkpt>
      <trkpt lat="44.17594" lon="6.9671">
        <ele>2168.2962491363</ele>
        <time>2021-11-18T09:39:14Z</time>
      </trkpt>
      <trkpt lat="44.17593" lon="6.9671">
        <ele>2168.2962712646</ele>
        <time>2021-11-18T09:39:15Z</time>
      </trkpt>
      <trkpt lat="44.17593" lon="6.96709">
        <ele>2168.2962789759</ele>
        <time>2021-11-18T09:39:16Z</time>
      </trkpt>
      <trkpt lat="44.17593" lon="6.96708">
        <ele>2169.2962984219</ele>
        <time>2021-11-18T09:39:19Z</time>
      </trkpt>
      <trkpt lat="44.17592" lon="6.96707">
        <ele>2170.2963079773</ele>
        <time>2021-11-18T09:39:20Z</time>
      </trkpt>
      <trkpt lat="44.17592" lon="6.96706">
        <ele>2170.2963183708</ele>
        <time>2021-11-18T09:39:21Z</time>
      </trkpt>
      <trkpt lat="44.17592" lon="6.96705">
        <ele>2170.2963188738</ele>
        <time>2021-11-18T09:39:36Z</time>
      </trkpt>
      <trkpt lat="44.17591" lon="6.96702">
        <ele>2169.2963599451</ele>
        <time>2021-11-18T09:39:37Z</time>
      </trkpt>
      <trkpt lat="44.17591" lon="6.96701">
        <ele>2169.2963524014</ele>
        <time>2021-11-18T09:39:38Z</time>
      </trkpt>
      <trkpt lat="44.17591" lon="6.967">
        <ele>2169.2963535748</ele>
        <time>2021-11-18T09:39:39Z</time>
      </trkpt>
      <trkpt lat="44.17591" lon="6.96699">
        <ele>2169.2963545807</ele>
        <time>2021-11-18T09:39:42Z</time>
      </trkpt>
      <trkpt lat="44.17591" lon="6.96697">
        <ele>2169.296358604</ele>
        <time>2021-11-18T09:39:43Z</time>
      </trkpt>
      <trkpt lat="44.17591" lon="6.96695">
        <ele>2169.2963700034</ele>
        <time>2021-11-18T09:39:45Z</time>
      </trkpt>
      <trkpt lat="44.1759" lon="6.96695">
        <ele>2170.2963825762</ele>
        <time>2021-11-18T09:39:47Z</time>
      </trkpt>
      <trkpt lat="44.1759" lon="6.96692">
        <ele>2170.296413254</ele>
        <time>2021-11-18T09:39:48Z</time>
      </trkpt>
      <trkpt lat="44.17589" lon="6.96691">
        <ele>2170.2964226417</ele>
        <time>2021-11-18T09:39:49Z</time>
      </trkpt>
      <trkpt lat="44.17589" lon="6.9669">
        <ele>2170.296436891</ele>
        <time>2021-11-18T09:39:51Z</time>
      </trkpt>
      <trkpt lat="44.17589" lon="6.96689">
        <ele>2171.2964605279</ele>
        <time>2021-11-18T09:39:53Z</time>
      </trkpt>
      <trkpt lat="44.17589" lon="6.96689">
        <ele>2171.2964605279</ele>
        <time>2021-11-18T09:39:57Z</time>
      </trkpt>
      <trkpt lat="44.17588" lon="6.96687">
        <ele>2172.2964829914</ele>
        <time>2021-11-18T09:39:58Z</time>
      </trkpt>
      <trkpt lat="44.17588" lon="6.96686">
        <ele>2173.2964979112</ele>
        <time>2021-11-18T09:40:08Z</time>
      </trkpt>
      <trkpt lat="44.17587" lon="6.96685">
        <ele>2171.2965264097</ele>
        <time>2021-11-18T09:40:09Z</time>
      </trkpt>
      <trkpt lat="44.17587" lon="6.96685">
        <ele>2172.2965232246</ele>
        <time>2021-11-18T09:40:10Z</time>
      </trkpt>
      <trkpt lat="44.17586" lon="6.96684">
        <ele>2172.296549879</ele>
        <time>2021-11-18T09:40:11Z</time>
      </trkpt>
      <trkpt lat="44.17586" lon="6.96683">
        <ele>2173.2965703309</ele>
        <time>2021-11-18T09:40:13Z</time>
      </trkpt>
      <trkpt lat="44.17585" lon="6.96683">
        <ele>2173.2965842448</ele>
        <time>2021-11-18T09:40:15Z</time>
      </trkpt>
      <trkpt lat="44.17585" lon="6.96682">
        <ele>2173.2965901121</ele>
        <time>2021-11-18T09:40:19Z</time>
      </trkpt>
      <trkpt lat="44.17584" lon="6.96682">
        <ele>2173.296623975</ele>
        <time>2021-11-18T09:40:21Z</time>
      </trkpt>
      <trkpt lat="44.17584" lon="6.96681">
        <ele>2172.2966459356</ele>
        <time>2021-11-18T09:40:26Z</time>
      </trkpt>
      <trkpt lat="44.17583" lon="6.9668">
        <ele>2171.2966665551</ele>
        <time>2021-11-18T09:40:29Z</time>
      </trkpt>
      <trkpt lat="44.17582" lon="6.96681">
        <ele>2171.2967087999</ele>
        <time>2021-11-18T09:40:30Z</time>
      </trkpt>
      <trkpt lat="44.17582" lon="6.96681">
        <ele>2171.2967087999</ele>
        <time>2021-11-18T09:40:32Z</time>
      </trkpt>
      <trkpt lat="44.17581" lon="6.9668">
        <ele>2172.2967488654</ele>
        <time>2021-11-18T09:40:33Z</time>
      </trkpt>
      <trkpt lat="44.17581" lon="6.96679">
        <ele>2172.2967733406</ele>
        <time>2021-11-18T09:40:34Z</time>
      </trkpt>
      <trkpt lat="44.1758" lon="6.96679">
        <ele>2172.2968006656</ele>
        <time>2021-11-18T09:40:35Z</time>
      </trkpt>
      <trkpt lat="44.1758" lon="6.96679">
        <ele>2172.2968140766</ele>
        <time>2021-11-18T09:40:38Z</time>
      </trkpt>
      <trkpt lat="44.17579" lon="6.96678">
        <ele>2174.2968494482</ele>
        <time>2021-11-18T09:40:39Z</time>
      </trkpt>
      <trkpt lat="44.17579" lon="6.96677">
        <ele>2175.2968484424</ele>
        <time>2021-11-18T09:40:43Z</time>
      </trkpt>
      <trkpt lat="44.17578" lon="6.96675">
        <ele>2176.2968724146</ele>
        <time>2021-11-18T09:40:45Z</time>
      </trkpt>
      <trkpt lat="44.17578" lon="6.96674">
        <ele>2176.2968812995</ele>
        <time>2021-11-18T09:40:47Z</time>
      </trkpt>
      <trkpt lat="44.17578" lon="6.96674">
        <ele>2177.2968864962</ele>
        <time>2021-11-18T09:40:51Z</time>
      </trkpt>
      <trkpt lat="44.17578" lon="6.96673">
        <ele>2178.2968903519</ele>
        <time>2021-11-18T09:40:52Z</time>
      </trkpt>
      <trkpt lat="44.17578" lon="6.96672">
        <ele>2179.2968828082</ele>
        <time>2021-11-18T09:40:54Z</time>
      </trkpt>
      <trkpt lat="44.17578" lon="6.96671">
        <ele>2179.2968881726</ele>
        <time>2021-11-18T09:40:58Z</time>
      </trkpt>
      <trkpt lat="44.17578" lon="6.96669">
        <ele>2179.2968818024</ele>
        <time>2021-11-18T09:41:00Z</time>
      </trkpt>
      <trkpt lat="44.17578" lon="6.96668">
        <ele>2180.2968702354</ele>
        <time>2021-11-18T09:41:06Z</time>
      </trkpt>
      <trkpt lat="44.17578" lon="6.96667">
        <ele>2180.2969007455</ele>
        <time>2021-11-18T09:41:08Z</time>
      </trkpt>
      <trkpt lat="44.17577" lon="6.96667">
        <ele>2181.2969200239</ele>
        <time>2021-11-18T09:41:09Z</time>
      </trkpt>
      <trkpt lat="44.17577" lon="6.96667">
        <ele>2181.2969418168</ele>
        <time>2021-11-18T09:41:10Z</time>
      </trkpt>
      <trkpt lat="44.17576" lon="6.96667">
        <ele>2180.2969622687</ele>
        <time>2021-11-18T09:41:12Z</time>
      </trkpt>
      <trkpt lat="44.17575" lon="6.96667">
        <ele>2179.2969952933</ele>
        <time>2021-11-18T09:41:14Z</time>
      </trkpt>
      <trkpt lat="44.17575" lon="6.96666">
        <ele>2180.2970169187</ele>
        <time>2021-11-18T09:41:15Z</time>
      </trkpt>
      <trkpt lat="44.17574" lon="6.96666">
        <ele>2180.2970380411</ele>
        <time>2021-11-18T09:41:16Z</time>
      </trkpt>
      <trkpt lat="44.17573" lon="6.96666">
        <ele>2180.2970680483</ele>
        <time>2021-11-18T09:41:18Z</time>
      </trkpt>
      <trkpt lat="44.17573" lon="6.96666">
        <ele>2180.2970998995</ele>
        <time>2021-11-18T09:41:19Z</time>
      </trkpt>
      <trkpt lat="44.17572" lon="6.96665">
        <ele>2179.2971158251</ele>
        <time>2021-11-18T09:41:21Z</time>
      </trkpt>
      <trkpt lat="44.17571" lon="6.96664">
        <ele>2180.2971426472</ele>
        <time>2021-11-18T09:41:26Z</time>
      </trkpt>
      <trkpt lat="44.17571" lon="6.96664">
        <ele>2181.2971681282</ele>
        <time>2021-11-18T09:41:31Z</time>
      </trkpt>
      <trkpt lat="44.17571" lon="6.96662">
        <ele>2181.2971744984</ele>
        <time>2021-11-18T09:41:32Z</time>
      </trkpt>
      <trkpt lat="44.17571" lon="6.96661">
        <ele>2181.2971734926</ele>
        <time>2021-11-18T09:41:33Z</time>
      </trkpt>
      <trkpt lat="44.1757" lon="6.96661">
        <ele>2181.2971910946</ele>
        <time>2021-11-18T09:41:34Z</time>
      </trkpt>
      <trkpt lat="44.1757" lon="6.9666">
        <ele>2181.2972143963</ele>
        <time>2021-11-18T09:41:37Z</time>
      </trkpt>
      <trkpt lat="44.17568" lon="6.96658">
        <ele>2182.2972693816</ele>
        <time>2021-11-18T09:41:38Z</time>
      </trkpt>
      <trkpt lat="44.17568" lon="6.96658">
        <ele>2183.2972894982</ele>
        <time>2021-11-18T09:41:39Z</time>
      </trkpt>
      <trkpt lat="44.17567" lon="6.96658">
        <ele>2183.2973231934</ele>
        <time>2021-11-18T09:41:43Z</time>
      </trkpt>
      <trkpt lat="44.17566" lon="6.96657">
        <ele>2183.2973637618</ele>
        <time>2021-11-18T09:41:44Z</time>
      </trkpt>
      <trkpt lat="44.17565" lon="6.96656">
        <ele>2183.2973835431</ele>
        <time>2021-11-18T09:41:45Z</time>
      </trkpt>
      <trkpt lat="44.17565" lon="6.96656">
        <ele>2184.2973972894</ele>
        <time>2021-11-18T09:41:46Z</time>
      </trkpt>
      <trkpt lat="44.17565" lon="6.96655">
        <ele>2185.2974046655</ele>
        <time>2021-11-18T09:41:49Z</time>
      </trkpt>
      <trkpt lat="44.17564" lon="6.96654">
        <ele>2186.2974485867</ele>
        <time>2021-11-18T09:41:50Z</time>
      </trkpt>
      <trkpt lat="44.17564" lon="6.96653">
        <ele>2186.2974549569</ele>
        <time>2021-11-18T09:41:51Z</time>
      </trkpt>
      <trkpt lat="44.17564" lon="6.96652">
        <ele>2187.2974527776</ele>
        <time>2021-11-18T09:41:55Z</time>
      </trkpt>
      <trkpt lat="44.17563" lon="6.96651">
        <ele>2187.297466021</ele>
        <time>2021-11-18T09:41:56Z</time>
      </trkpt>
      <trkpt lat="44.17563" lon="6.96651">
        <ele>2187.2974789292</ele>
        <time>2021-11-18T09:41:57Z</time>
      </trkpt>
      <trkpt lat="44.17563" lon="6.9665">
        <ele>2188.2974807732</ele>
        <time>2021-11-18T09:41:58Z</time>
      </trkpt>
      <trkpt lat="44.17563" lon="6.96648">
        <ele>2187.2974767499</ele>
        <time>2021-11-18T09:42:00Z</time>
      </trkpt>
      <trkpt lat="44.17563" lon="6.96648">
        <ele>2188.2974765822</ele>
        <time>2021-11-18T09:42:01Z</time>
      </trkpt>
      <trkpt lat="44.17564" lon="6.96647">
        <ele>2187.2974442281</ele>
        <time>2021-11-18T09:42:03Z</time>
      </trkpt>
      <trkpt lat="44.17564" lon="6.96647">
        <ele>2187.2974261232</ele>
        <time>2021-11-18T09:42:04Z</time>
      </trkpt>
      <trkpt lat="44.17565" lon="6.96646">
        <ele>2186.2974101976</ele>
        <time>2021-11-18T09:42:05Z</time>
      </trkpt>
      <trkpt lat="44.17565" lon="6.96645">
        <ele>2186.2973922603</ele>
        <time>2021-11-18T09:42:06Z</time>
      </trkpt>
      <trkpt lat="44.17566" lon="6.96645">
        <ele>2186.2973790169</ele>
        <time>2021-11-18T09:42:10Z</time>
      </trkpt>
      <trkpt lat="44.17566" lon="6.96643">
        <ele>2187.2973513566</ele>
        <time>2021-11-18T09:42:11Z</time>
      </trkpt>
      <trkpt lat="44.17566" lon="6.96643">
        <ele>2188.2973481715</ele>
        <time>2021-11-18T09:42:12Z</time>
      </trkpt>
      <trkpt lat="44.17567" lon="6.96642">
        <ele>2188.2973371074</ele>
        <time>2021-11-18T09:42:13Z</time>
      </trkpt>
      <trkpt lat="44.17567" lon="6.96642">
        <ele>2188.2973248698</ele>
        <time>2021-11-18T09:42:16Z</time>
      </trkpt>
      <trkpt lat="44.17568" lon="6.9664">
        <ele>2189.297280781</ele>
        <time>2021-11-18T09:42:17Z</time>
      </trkpt>
      <trkpt lat="44.17568" lon="6.9664">
        <ele>2190.2972646877</ele>
        <time>2021-11-18T09:42:19Z</time>
      </trkpt>
      <trkpt lat="44.17569" lon="6.96639">
        <ele>2190.2972566411</ele>
        <time>2021-11-18T09:42:24Z</time>
      </trkpt>
      <trkpt lat="44.17569" lon="6.96637">
        <ele>2191.2972618379</ele>
        <time>2021-11-18T09:42:25Z</time>
      </trkpt>
      <trkpt lat="44.17569" lon="6.96637">
        <ele>2191.2972609997</ele>
        <time>2021-11-18T09:42:26Z</time>
      </trkpt>
      <trkpt lat="44.17568" lon="6.96636">
        <ele>2192.2972656935</ele>
        <time>2021-11-18T09:42:27Z</time>
      </trkpt>
      <trkpt lat="44.17568" lon="6.96634">
        <ele>2192.2972670346</ele>
        <time>2021-11-18T09:42:28Z</time>
      </trkpt>
      <trkpt lat="44.17568" lon="6.96634">
        <ele>2191.297286313</ele>
        <time>2021-11-18T09:42:33Z</time>
      </trkpt>
      <trkpt lat="44.17567" lon="6.96633">
        <ele>2191.2973203436</ele>
        <time>2021-11-18T09:42:34Z</time>
      </trkpt>
      <trkpt lat="44.17567" lon="6.96632">
        <ele>2191.297333587</ele>
        <time>2021-11-18T09:42:36Z</time>
      </trkpt>
      <trkpt lat="44.17567" lon="6.96631">
        <ele>2191.2973216847</ele>
        <time>2021-11-18T09:42:39Z</time>
      </trkpt>
      <trkpt lat="44.17567" lon="6.9663">
        <ele>2192.2973310724</ele>
        <time>2021-11-18T09:42:41Z</time>
      </trkpt>
      <trkpt lat="44.17567" lon="6.9663">
        <ele>2194.2973052561</ele>
        <time>2021-11-18T09:42:45Z</time>
      </trkpt>
      <trkpt lat="44.17568" lon="6.96629">
        <ele>2193.2972900011</ele>
        <time>2021-11-18T09:42:47Z</time>
      </trkpt>
      <trkpt lat="44.17568" lon="6.96628">
        <ele>2196.2972995564</ele>
        <time>2021-11-18T09:42:49Z</time>
      </trkpt>
      <trkpt lat="44.17567" lon="6.96627">
        <ele>2196.2973106205</ele>
        <time>2021-11-18T09:42:50Z</time>
      </trkpt>
      <trkpt lat="44.17567" lon="6.96626">
        <ele>2196.297302071</ele>
        <time>2021-11-18T09:42:51Z</time>
      </trkpt>
      <trkpt lat="44.17567" lon="6.96625">
        <ele>2196.2973119617</ele>
        <time>2021-11-18T09:42:59Z</time>
      </trkpt>
      <trkpt lat="44.17567" lon="6.96624">
        <ele>2196.2973040827</ele>
        <time>2021-11-18T09:43:07Z</time>
      </trkpt>
      <trkpt lat="44.17567" lon="6.96623">
        <ele>2199.2973205112</ele>
        <time>2021-11-18T09:43:09Z</time>
      </trkpt>
      <trkpt lat="44.17567" lon="6.96622">
        <ele>2199.297329396</ele>
        <time>2021-11-18T09:43:10Z</time>
      </trkpt>
      <trkpt lat="44.17566" lon="6.96621">
        <ele>2199.2973443158</ele>
        <time>2021-11-18T09:43:11Z</time>
      </trkpt>
      <trkpt lat="44.17566" lon="6.96621">
        <ele>2199.2973768376</ele>
        <time>2021-11-18T09:43:12Z</time>
      </trkpt>
      <trkpt lat="44.17565" lon="6.96621">
        <ele>2200.2973982953</ele>
        <time>2021-11-18T09:43:16Z</time>
      </trkpt>
      <trkpt lat="44.17564" lon="6.9662">
        <ele>2200.2974247821</ele>
        <time>2021-11-18T09:43:18Z</time>
      </trkpt>
      <trkpt lat="44.17565" lon="6.96619">
        <ele>2200.2974207588</ele>
        <time>2021-11-18T09:43:19Z</time>
      </trkpt>
      <trkpt lat="44.17564" lon="6.96618">
        <ele>2199.2974360138</ele>
        <time>2021-11-18T09:43:30Z</time>
      </trkpt>
      <trkpt lat="44.17563" lon="6.96618">
        <ele>2198.2974972017</ele>
        <time>2021-11-18T09:43:31Z</time>
      </trkpt>
      <trkpt lat="44.17562" lon="6.96617">
        <ele>2198.2975104451</ele>
        <time>2021-11-18T09:43:33Z</time>
      </trkpt>
      <trkpt lat="44.17562" lon="6.96616">
        <ele>2200.297521174</ele>
        <time>2021-11-18T09:43:40Z</time>
      </trkpt>
      <trkpt lat="44.17561" lon="6.96614">
        <ele>2201.2975639217</ele>
        <time>2021-11-18T09:43:41Z</time>
      </trkpt>
      <trkpt lat="44.17561" lon="6.96613">
        <ele>2201.2975759916</ele>
        <time>2021-11-18T09:43:47Z</time>
      </trkpt>
      <trkpt lat="44.17561" lon="6.96613">
        <ele>2201.297577668</ele>
        <time>2021-11-18T09:43:50Z</time>
      </trkpt>
      <trkpt lat="44.17561" lon="6.96611">
        <ele>2201.2975712977</ele>
        <time>2021-11-18T09:43:51Z</time>
      </trkpt>
      <trkpt lat="44.17561" lon="6.9661">
        <ele>2202.2975805178</ele>
        <time>2021-11-18T09:43:52Z</time>
      </trkpt>
      <trkpt lat="44.1756" lon="6.96609">
        <ele>2201.2976170629</ele>
        <time>2021-11-18T09:43:54Z</time>
      </trkpt>
      <trkpt lat="44.1756" lon="6.96609">
        <ele>2201.2976170629</ele>
        <time>2021-11-18T09:43:56Z</time>
      </trkpt>
      <trkpt lat="44.17559" lon="6.96608">
        <ele>2202.2976390235</ele>
        <time>2021-11-18T09:43:57Z</time>
      </trkpt>
      <trkpt lat="44.17558" lon="6.96608">
        <ele>2203.2976685278</ele>
        <time>2021-11-18T09:43:58Z</time>
      </trkpt>
      <trkpt lat="44.17558" lon="6.96608">
        <ele>2203.2976821065</ele>
        <time>2021-11-18T09:44:02Z</time>
      </trkpt>
      <trkpt lat="44.17558" lon="6.96606">
        <ele>2205.2976878062</ele>
        <time>2021-11-18T09:44:03Z</time>
      </trkpt>
      <trkpt lat="44.17558" lon="6.96605">
        <ele>2205.2976685278</ele>
        <time>2021-11-18T09:44:04Z</time>
      </trkpt>
      <trkpt lat="44.17558" lon="6.96605">
        <ele>2204.2976822741</ele>
        <time>2021-11-18T09:44:09Z</time>
      </trkpt>
      <trkpt lat="44.17557" lon="6.96603">
        <ele>2206.2977137901</ele>
        <time>2021-11-18T09:44:10Z</time>
      </trkpt>
      <trkpt lat="44.17557" lon="6.96603">
        <ele>2206.2977374271</ele>
        <time>2021-11-18T09:44:16Z</time>
      </trkpt>
      <trkpt lat="44.17556" lon="6.96602">
        <ele>2204.2977748103</ele>
        <time>2021-11-18T09:44:18Z</time>
      </trkpt>
      <trkpt lat="44.17555" lon="6.96603">
        <ele>2203.2978063263</ele>
        <time>2021-11-18T09:44:23Z</time>
      </trkpt>
      <trkpt lat="44.17555" lon="6.96603">
        <ele>2202.2978219166</ele>
        <time>2021-11-18T09:44:24Z</time>
      </trkpt>
      <trkpt lat="44.17554" lon="6.96603">
        <ele>2203.2978447154</ele>
        <time>2021-11-18T09:44:25Z</time>
      </trkpt>
      <trkpt lat="44.17553" lon="6.96602">
        <ele>2203.2978785783</ele>
        <time>2021-11-18T09:44:27Z</time>
      </trkpt>
      <trkpt lat="44.17552" lon="6.96602">
        <ele>2202.2979043946</ele>
        <time>2021-11-18T09:44:29Z</time>
      </trkpt>
      <trkpt lat="44.17552" lon="6.96602">
        <ele>2201.2979283668</ele>
        <time>2021-11-18T09:44:30Z</time>
      </trkpt>
      <trkpt lat="44.17551" lon="6.96602">
        <ele>2202.2979613915</ele>
        <time>2021-11-18T09:44:32Z</time>
      </trkpt>
      <trkpt lat="44.17551" lon="6.96601">
        <ele>2204.2979696058</ele>
        <time>2021-11-18T09:44:35Z</time>
      </trkpt>
      <trkpt lat="44.1755" lon="6.966">
        <ele>2204.2979850285</ele>
        <time>2021-11-18T09:44:36Z</time>
      </trkpt>
      <trkpt lat="44.1755" lon="6.966">
        <ele>2204.2979992777</ele>
        <time>2021-11-18T09:44:41Z</time>
      </trkpt>
      <trkpt lat="44.17549" lon="6.96599">
        <ele>2206.2980354875</ele>
        <time>2021-11-18T09:44:43Z</time>
      </trkpt>
      <trkpt lat="44.17549" lon="6.96598">
        <ele>2206.2980572805</ele>
        <time>2021-11-18T09:44:45Z</time>
      </trkpt>
      <trkpt lat="44.17548" lon="6.96597">
        <ele>2206.2980701886</ele>
        <time>2021-11-18T09:44:46Z</time>
      </trkpt>
      <trkpt lat="44.17548" lon="6.96596">
        <ele>2207.2980846055</ele>
        <time>2021-11-18T09:44:48Z</time>
      </trkpt>
      <trkpt lat="44.17547" lon="6.96595">
        <ele>2207.2981172949</ele>
        <time>2021-11-18T09:44:50Z</time>
      </trkpt>
      <trkpt lat="44.17547" lon="6.96595">
        <ele>2208.2981245033</ele>
        <time>2021-11-18T09:44:53Z</time>
      </trkpt>
      <trkpt lat="44.17546" lon="6.96595">
        <ele>2208.2981724478</ele>
        <time>2021-11-18T09:44:55Z</time>
      </trkpt>
      <trkpt lat="44.17545" lon="6.96596">
        <ele>2208.2982054725</ele>
        <time>2021-11-18T09:44:57Z</time>
      </trkpt>
      <trkpt lat="44.17545" lon="6.96595">
        <ele>2208.2982111722</ele>
        <time>2021-11-18T09:45:12Z</time>
      </trkpt>
      <trkpt lat="44.17544" lon="6.96594">
        <ele>2208.2982557639</ele>
        <time>2021-11-18T09:45:13Z</time>
      </trkpt>
      <trkpt lat="44.17543" lon="6.96593">
        <ele>2208.2982656546</ele>
        <time>2021-11-18T09:45:15Z</time>
      </trkpt>
      <trkpt lat="44.17543" lon="6.96593">
        <ele>2209.2982835919</ele>
        <time>2021-11-18T09:45:17Z</time>
      </trkpt>
      <trkpt lat="44.17542" lon="6.96592">
        <ele>2208.2983137667</ele>
        <time>2021-11-18T09:45:18Z</time>
      </trkpt>
      <trkpt lat="44.17542" lon="6.96591">
        <ele>2209.2983407564</ele>
        <time>2021-11-18T09:45:19Z</time>
      </trkpt>
      <trkpt lat="44.17541" lon="6.96591">
        <ele>2211.298376631</ele>
        <time>2021-11-18T09:45:24Z</time>
      </trkpt>
      <trkpt lat="44.1754" lon="6.9659">
        <ele>2211.2983982563</ele>
        <time>2021-11-18T09:45:26Z</time>
      </trkpt>
      <trkpt lat="44.1754" lon="6.9659">
        <ele>2212.2984001003</ele>
        <time>2021-11-18T09:45:27Z</time>
      </trkpt>
      <trkpt lat="44.1754" lon="6.96589">
        <ele>2213.2984004356</ele>
        <time>2021-11-18T09:45:34Z</time>
      </trkpt>
      <trkpt lat="44.17539" lon="6.96587">
        <ele>2213.2984374836</ele>
        <time>2021-11-18T09:45:35Z</time>
      </trkpt>
      <trkpt lat="44.17539" lon="6.96587">
        <ele>2214.2984462008</ele>
        <time>2021-11-18T09:45:36Z</time>
      </trkpt>
      <trkpt lat="44.17539" lon="6.96586">
        <ele>2214.2984562591</ele>
        <time>2021-11-18T09:45:39Z</time>
      </trkpt>
      <trkpt lat="44.17538" lon="6.96585">
        <ele>2214.2984693348</ele>
        <time>2021-11-18T09:45:42Z</time>
      </trkpt>
      <trkpt lat="44.17538" lon="6.96585">
        <ele>2214.2984659821</ele>
        <time>2021-11-18T09:45:51Z</time>
      </trkpt>
      <trkpt lat="44.17537" lon="6.96585">
        <ele>2213.298509568</ele>
        <time>2021-11-18T09:45:53Z</time>
      </trkpt>
      <trkpt lat="44.17537" lon="6.96586">
        <ele>2213.2985295169</ele>
        <time>2021-11-18T09:45:57Z</time>
      </trkpt>
      <trkpt lat="44.17536" lon="6.96585">
        <ele>2212.2985509746</ele>
        <time>2021-11-18T09:45:59Z</time>
      </trkpt>
      <trkpt lat="44.17536" lon="6.96585">
        <ele>2212.2985789701</ele>
        <time>2021-11-18T09:46:03Z</time>
      </trkpt>
      <trkpt lat="44.17534" lon="6.96585">
        <ele>2212.298632782</ele>
        <time>2021-11-18T09:46:05Z</time>
      </trkpt>
      <trkpt lat="44.17534" lon="6.96584">
        <ele>2213.2986535691</ele>
        <time>2021-11-18T09:46:06Z</time>
      </trkpt>
      <trkpt lat="44.17533" lon="6.96584">
        <ele>2213.298677709</ele>
        <time>2021-11-18T09:46:07Z</time>
      </trkpt>
      <trkpt lat="44.17532" lon="6.96584">
        <ele>2213.2987135835</ele>
        <time>2021-11-18T09:46:09Z</time>
      </trkpt>
      <trkpt lat="44.17532" lon="6.96585">
        <ele>2212.2987320237</ele>
        <time>2021-11-18T09:46:20Z</time>
      </trkpt>
      <trkpt lat="44.17531" lon="6.96584">
        <ele>2214.2987564988</ele>
        <time>2021-11-18T09:46:22Z</time>
      </trkpt>
      <trkpt lat="44.1753" lon="6.96584">
        <ele>2214.298787009</ele>
        <time>2021-11-18T09:46:24Z</time>
      </trkpt>
      <trkpt lat="44.1753" lon="6.96584">
        <ele>2214.2988213748</ele>
        <time>2021-11-18T09:46:27Z</time>
      </trkpt>
      <trkpt lat="44.17529" lon="6.96584">
        <ele>2215.2988233864</ele>
        <time>2021-11-18T09:46:30Z</time>
      </trkpt>
      <trkpt lat="44.17528" lon="6.96584">
        <ele>2215.2988651283</ele>
        <time>2021-11-18T09:46:31Z</time>
      </trkpt>
      <trkpt lat="44.17528" lon="6.96584">
        <ele>2216.2988859154</ele>
        <time>2021-11-18T09:46:33Z</time>
      </trkpt>
      <trkpt lat="44.17527" lon="6.96584">
        <ele>2216.298929166</ele>
        <time>2021-11-18T09:46:35Z</time>
      </trkpt>
      <trkpt lat="44.17526" lon="6.96584">
        <ele>2216.2989536412</ele>
        <time>2021-11-18T09:46:40Z</time>
      </trkpt>
      <trkpt lat="44.17525" lon="6.96584">
        <ele>2215.2989848219</ele>
        <time>2021-11-18T09:46:42Z</time>
      </trkpt>
      <trkpt lat="44.17525" lon="6.96584">
        <ele>2216.2990061119</ele>
        <time>2021-11-18T09:46:45Z</time>
      </trkpt>
      <trkpt lat="44.17524" lon="6.96582">
        <ele>2216.299040813</ele>
        <time>2021-11-18T09:46:46Z</time>
      </trkpt>
      <trkpt lat="44.17523" lon="6.96582">
        <ele>2216.2990719937</ele>
        <time>2021-11-18T09:46:48Z</time>
      </trkpt>
      <trkpt lat="44.17523" lon="6.96582">
        <ele>2218.2990885898</ele>
        <time>2021-11-18T09:46:51Z</time>
      </trkpt>
      <trkpt lat="44.17522" lon="6.9658">
        <ele>2217.2991192676</ele>
        <time>2021-11-18T09:46:53Z</time>
      </trkpt>
      <trkpt lat="44.17522" lon="6.96579">
        <ele>2216.2991241291</ele>
        <time>2021-11-18T09:46:56Z</time>
      </trkpt>
      <trkpt lat="44.17521" lon="6.96579">
        <ele>2216.2991459221</ele>
        <time>2021-11-18T09:46:58Z</time>
      </trkpt>
      <trkpt lat="44.17521" lon="6.9658">
        <ele>2217.2991650328</ele>
        <time>2021-11-18T09:47:00Z</time>
      </trkpt>
      <trkpt lat="44.1752" lon="6.96581">
        <ele>2217.2991995662</ele>
        <time>2021-11-18T09:47:03Z</time>
      </trkpt>
      <trkpt lat="44.17519" lon="6.96582">
        <ele>2216.2992406376</ele>
        <time>2021-11-18T09:47:05Z</time>
      </trkpt>
      <trkpt lat="44.17519" lon="6.96581">
        <ele>2216.2992574014</ele>
        <time>2021-11-18T09:47:06Z</time>
      </trkpt>
      <trkpt lat="44.17518" lon="6.96581">
        <ele>2216.2992808707</ele>
        <time>2021-11-18T09:47:07Z</time>
      </trkpt>
      <trkpt lat="44.17517" lon="6.9658">
        <ele>2217.2993070222</ele>
        <time>2021-11-18T09:47:09Z</time>
      </trkpt>
      <trkpt lat="44.17517" lon="6.96579">
        <ele>2219.2993217744</ele>
        <time>2021-11-18T09:47:11Z</time>
      </trkpt>
      <trkpt lat="44.17516" lon="6.9658">
        <ele>2219.2993521169</ele>
        <time>2021-11-18T09:47:12Z</time>
      </trkpt>
      <trkpt lat="44.17516" lon="6.9658">
        <ele>2219.299372904</ele>
        <time>2021-11-18T09:47:14Z</time>
      </trkpt>
      <trkpt lat="44.17515" lon="6.9658">
        <ele>2219.2994012348</ele>
        <time>2021-11-18T09:47:15Z</time>
      </trkpt>
      <trkpt lat="44.17515" lon="6.9658">
        <ele>2220.2994111255</ele>
        <time>2021-11-18T09:47:17Z</time>
      </trkpt>
      <trkpt lat="44.17514" lon="6.9658">
        <ele>2220.2994349301</ele>
        <time>2021-11-18T09:47:18Z</time>
      </trkpt>
      <trkpt lat="44.17514" lon="6.96579">
        <ele>2220.2994578965</ele>
        <time>2021-11-18T09:47:19Z</time>
      </trkpt>
      <trkpt lat="44.17514" lon="6.96578">
        <ele>2220.2994570583</ele>
        <time>2021-11-18T09:47:21Z</time>
      </trkpt>
      <trkpt lat="44.17513" lon="6.96579">
        <ele>2222.29948036</ele>
        <time>2021-11-18T09:47:22Z</time>
      </trkpt>
      <trkpt lat="44.17513" lon="6.96577">
        <ele>2225.2994778454</ele>
        <time>2021-11-18T09:47:37Z</time>
      </trkpt>
      <trkpt lat="44.17513" lon="6.96577">
        <ele>2225.2994756661</ele>
        <time>2021-11-18T09:47:41Z</time>
      </trkpt>
      <trkpt lat="44.17513" lon="6.96576">
        <ele>2227.2994652726</ele>
        <time>2021-11-18T09:47:42Z</time>
      </trkpt>
      <trkpt lat="44.17513" lon="6.96575">
        <ele>2226.2994692959</ele>
        <time>2021-11-18T09:47:45Z</time>
      </trkpt>
      <trkpt lat="44.17513" lon="6.96574">
        <ele>2226.2994994707</ele>
        <time>2021-11-18T09:47:47Z</time>
      </trkpt>
      <trkpt lat="44.17512" lon="6.96574">
        <ele>2226.299511876</ele>
        <time>2021-11-18T09:47:48Z</time>
      </trkpt>
      <trkpt lat="44.17512" lon="6.96573">
        <ele>2226.299527131</ele>
        <time>2021-11-18T09:47:51Z</time>
      </trkpt>
      <trkpt lat="44.17512" lon="6.96572">
        <ele>2227.2995185815</ele>
        <time>2021-11-18T09:48:01Z</time>
      </trkpt>
      <trkpt lat="44.17511" lon="6.96571">
        <ele>2229.2995789312</ele>
        <time>2021-11-18T09:48:03Z</time>
      </trkpt>
      <trkpt lat="44.1751" lon="6.96571">
        <ele>2230.2995967008</ele>
        <time>2021-11-18T09:48:04Z</time>
      </trkpt>
      <trkpt lat="44.17509" lon="6.96571">
        <ele>2229.2996288873</ele>
        <time>2021-11-18T09:48:05Z</time>
      </trkpt>
      <trkpt lat="44.17509" lon="6.9657">
        <ele>2230.29964431</ele>
        <time>2021-11-18T09:48:07Z</time>
      </trkpt>
      <trkpt lat="44.17508" lon="6.96569">
        <ele>2230.2996852137</ele>
        <time>2021-11-18T09:48:09Z</time>
      </trkpt>
      <trkpt lat="44.17507" lon="6.96569">
        <ele>2230.2997070067</ele>
        <time>2021-11-18T09:48:10Z</time>
      </trkpt>
      <trkpt lat="44.17507" lon="6.96568">
        <ele>2230.2997348346</ele>
        <time>2021-11-18T09:48:14Z</time>
      </trkpt>
      <trkpt lat="44.17506" lon="6.96568">
        <ele>2231.2997467369</ele>
        <time>2021-11-18T09:48:16Z</time>
      </trkpt>
      <trkpt lat="44.17506" lon="6.96567">
        <ele>2230.2997598127</ele>
        <time>2021-11-18T09:48:18Z</time>
      </trkpt>
      <trkpt lat="44.17506" lon="6.96566">
        <ele>2230.299781438</ele>
        <time>2021-11-18T09:48:21Z</time>
      </trkpt>
      <trkpt lat="44.17505" lon="6.96566">
        <ele>2230.2997933403</ele>
        <time>2021-11-18T09:48:27Z</time>
      </trkpt>
      <trkpt lat="44.17505" lon="6.96567">
        <ele>2232.2998141274</ele>
        <time>2021-11-18T09:48:28Z</time>
      </trkpt>
      <trkpt lat="44.17505" lon="6.96568">
        <ele>2234.2997891493</ele>
        <time>2021-11-18T09:48:34Z</time>
      </trkpt>
      <trkpt lat="44.17506" lon="6.96568">
        <ele>2236.2997448929</ele>
        <time>2021-11-18T09:48:35Z</time>
      </trkpt>
      <trkpt lat="44.17507" lon="6.96567">
        <ele>2237.2997351699</ele>
        <time>2021-11-18T09:48:39Z</time>
      </trkpt>
      <trkpt lat="44.17507" lon="6.96566">
        <ele>2236.2997204177</ele>
        <time>2021-11-18T09:48:52Z</time>
      </trkpt>
      <trkpt lat="44.17507" lon="6.96567">
        <ele>2236.2997138798</ele>
        <time>2021-11-18T09:48:54Z</time>
      </trkpt>
      <trkpt lat="44.17507" lon="6.96568">
        <ele>2234.2997026481</ele>
        <time>2021-11-18T09:53:00Z</time>
      </trkpt>
      <trkpt lat="44.17507" lon="6.96569">
        <ele>2235.2997118682</ele>
        <time>2021-11-18T09:53:01Z</time>
      </trkpt>
      <trkpt lat="44.17507" lon="6.96569">
        <ele>2235.2997329906</ele>
        <time>2021-11-18T09:53:02Z</time>
      </trkpt>
      <trkpt lat="44.17507" lon="6.96569">
        <ele>2233.2997113653</ele>
        <time>2021-11-18T09:53:08Z</time>
      </trkpt>
      <trkpt lat="44.17508" lon="6.96568">
        <ele>2232.2996967807</ele>
        <time>2021-11-18T09:53:10Z</time>
      </trkpt>
      <trkpt lat="44.17508" lon="6.96567">
        <ele>2232.2996806875</ele>
        <time>2021-11-18T09:53:11Z</time>
      </trkpt>
      <trkpt lat="44.17508" lon="6.96567">
        <ele>2233.2996625826</ele>
        <time>2021-11-18T09:53:16Z</time>
      </trkpt>
      <trkpt lat="44.17509" lon="6.96566">
        <ele>2232.2996404544</ele>
        <time>2021-11-18T09:53:27Z</time>
      </trkpt>
      <trkpt lat="44.17509" lon="6.96565">
        <ele>2229.299629055</ele>
        <time>2021-11-18T09:53:36Z</time>
      </trkpt>
      <trkpt lat="44.17509" lon="6.96565">
        <ele>2229.299638778</ele>
        <time>2021-11-18T09:53:37Z</time>
      </trkpt>
      <trkpt lat="44.17509" lon="6.96564">
        <ele>2229.2996438071</ele>
        <time>2021-11-18T09:53:38Z</time>
      </trkpt>
      <trkpt lat="44.17509" lon="6.96563">
        <ele>2229.2996577211</ele>
        <time>2021-11-18T09:53:39Z</time>
      </trkpt>
      <trkpt lat="44.17509" lon="6.96562">
        <ele>2229.2996525243</ele>
        <time>2021-11-18T09:53:42Z</time>
      </trkpt>
      <trkpt lat="44.17509" lon="6.96562">
        <ele>2230.2996371016</ele>
        <time>2021-11-18T09:54:03Z</time>
      </trkpt>
      <trkpt lat="44.17508" lon="6.96563">
        <ele>2229.2996664383</ele>
        <time>2021-11-18T09:54:05Z</time>
      </trkpt>
      <trkpt lat="44.17508" lon="6.96563">
        <ele>2229.2996629179</ele>
        <time>2021-11-18T09:54:11Z</time>
      </trkpt>
      <trkpt lat="44.17508" lon="6.96563">
        <ele>2229.2997006364</ele>
        <time>2021-11-18T09:54:12Z</time>
      </trkpt>
      <trkpt lat="44.17507" lon="6.96563">
        <ele>2229.2997054979</ele>
        <time>2021-11-18T09:54:14Z</time>
      </trkpt>
      <trkpt lat="44.17508" lon="6.96562">
        <ele>2229.2996962778</ele>
        <time>2021-11-18T09:54:15Z</time>
      </trkpt>
      <trkpt lat="44.17508" lon="6.96562">
        <ele>2229.2996887341</ele>
        <time>2021-11-18T09:54:16Z</time>
      </trkpt>
      <trkpt lat="44.17507" lon="6.96561">
        <ele>2229.2997046597</ele>
        <time>2021-11-18T09:54:17Z</time>
      </trkpt>
      <trkpt lat="44.17507" lon="6.9656">
        <ele>2229.299703151</ele>
        <time>2021-11-18T09:54:19Z</time>
      </trkpt>
      <trkpt lat="44.17507" lon="6.96559">
        <ele>2229.2997204177</ele>
        <time>2021-11-18T09:54:20Z</time>
      </trkpt>
      <trkpt lat="44.17506" lon="6.96559">
        <ele>2230.2997490838</ele>
        <time>2021-11-18T09:54:22Z</time>
      </trkpt>
      <trkpt lat="44.17506" lon="6.96558">
        <ele>2230.299781438</ele>
        <time>2021-11-18T09:54:24Z</time>
      </trkpt>
      <trkpt lat="44.17506" lon="6.96558">
        <ele>2230.299781438</ele>
        <time>2021-11-18T09:54:28Z</time>
      </trkpt>
      <trkpt lat="44.17505" lon="6.96557">
        <ele>2232.2997987047</ele>
        <time>2021-11-18T09:54:30Z</time>
      </trkpt>
      <trkpt lat="44.17505" lon="6.96556">
        <ele>2233.2998005487</ele>
        <time>2021-11-18T09:54:31Z</time>
      </trkpt>
      <trkpt lat="44.17504" lon="6.96556">
        <ele>2234.2998355851</ele>
        <time>2021-11-18T09:54:33Z</time>
      </trkpt>
      <trkpt lat="44.17503" lon="6.96556">
        <ele>2235.2998639159</ele>
        <time>2021-11-18T09:54:36Z</time>
      </trkpt>
      <trkpt lat="44.17503" lon="6.96555">
        <ele>2235.2998878881</ele>
        <time>2021-11-18T09:54:37Z</time>
      </trkpt>
      <trkpt lat="44.17502" lon="6.96555">
        <ele>2236.299910184</ele>
        <time>2021-11-18T09:54:39Z</time>
      </trkpt>
      <trkpt lat="44.17503" lon="6.96553">
        <ele>2236.2998898998</ele>
        <time>2021-11-18T09:54:40Z</time>
      </trkpt>
      <trkpt lat="44.17503" lon="6.96552">
        <ele>2237.29989627</ele>
        <time>2021-11-18T09:54:43Z</time>
      </trkpt>
      <trkpt lat="44.17502" lon="6.96552">
        <ele>2237.2999133691</ele>
        <time>2021-11-18T09:54:44Z</time>
      </trkpt>
      <trkpt lat="44.17501" lon="6.96551">
        <ele>2237.2999447174</ele>
        <time>2021-11-18T09:54:45Z</time>
      </trkpt>
      <trkpt lat="44.17502" lon="6.9655">
        <ele>2238.2999323122</ele>
        <time>2021-11-18T09:54:53Z</time>
      </trkpt>
      <trkpt lat="44.17503" lon="6.96548">
        <ele>2239.2998987846</ele>
        <time>2021-11-18T09:54:54Z</time>
      </trkpt>
      <trkpt lat="44.17503" lon="6.96547">
        <ele>2239.2998885587</ele>
        <time>2021-11-18T09:54:56Z</time>
      </trkpt>
      <trkpt lat="44.17504" lon="6.96547">
        <ele>2240.2998602279</ele>
        <time>2021-11-18T09:54:57Z</time>
      </trkpt>
      <trkpt lat="44.17504" lon="6.96546">
        <ele>2241.2998520136</ele>
        <time>2021-11-18T09:55:06Z</time>
      </trkpt>
      <trkpt lat="44.17503" lon="6.96545">
        <ele>2242.2998815179</ele>
        <time>2021-11-18T09:55:08Z</time>
      </trkpt>
      <trkpt lat="44.17503" lon="6.96545">
        <ele>2241.2998966053</ele>
        <time>2021-11-18T09:55:10Z</time>
      </trkpt>
      <trkpt lat="44.17503" lon="6.96544">
        <ele>2242.299890738</ele>
        <time>2021-11-18T09:55:11Z</time>
      </trkpt>
      <trkpt lat="44.17503" lon="6.96543">
        <ele>2243.2998860441</ele>
        <time>2021-11-18T09:55:13Z</time>
      </trkpt>
      <trkpt lat="44.17502" lon="6.96542">
        <ele>2243.2999024726</ele>
        <time>2021-11-18T09:55:15Z</time>
      </trkpt>
      <trkpt lat="44.17502" lon="6.96542">
        <ele>2243.2999388501</ele>
        <time>2021-11-18T09:55:16Z</time>
      </trkpt>
      <trkpt lat="44.17502" lon="6.96541">
        <ele>2243.2999274507</ele>
        <time>2021-11-18T09:55:22Z</time>
      </trkpt>
      <trkpt lat="44.17501" lon="6.9654">
        <ele>2243.2999700308</ele>
        <time>2021-11-18T09:55:23Z</time>
      </trkpt>
      <trkpt lat="44.175" lon="6.96539">
        <ele>2244.2999844477</ele>
        <time>2021-11-18T09:55:30Z</time>
      </trkpt>
      <trkpt lat="44.175" lon="6.96539">
        <ele>2244.3000124432</ele>
        <time>2021-11-18T09:55:36Z</time>
      </trkpt>
      <trkpt lat="44.17499" lon="6.96537">
        <ele>2245.3000406064</ele>
        <time>2021-11-18T09:55:37Z</time>
      </trkpt>
      <trkpt lat="44.17498" lon="6.96537">
        <ele>2244.3000682667</ele>
        <time>2021-11-18T09:55:38Z</time>
      </trkpt>
      <trkpt lat="44.17498" lon="6.96537">
        <ele>2245.3001007885</ele>
        <time>2021-11-18T09:55:39Z</time>
      </trkpt>
      <trkpt lat="44.17497" lon="6.96537">
        <ele>2245.3001297899</ele>
        <time>2021-11-18T09:55:40Z</time>
      </trkpt>
      <trkpt lat="44.17496" lon="6.96536">
        <ele>2245.3001525886</ele>
        <time>2021-11-18T09:55:41Z</time>
      </trkpt>
      <trkpt lat="44.17496" lon="6.96535">
        <ele>2245.300152421</ele>
        <time>2021-11-18T09:55:43Z</time>
      </trkpt>
      <trkpt lat="44.17497" lon="6.96535">
        <ele>2245.3001413569</ele>
        <time>2021-11-18T09:55:44Z</time>
      </trkpt>
      <trkpt lat="44.17496" lon="6.96534">
        <ele>2246.3001519181</ele>
        <time>2021-11-18T09:55:48Z</time>
      </trkpt>
      <trkpt lat="44.17495" lon="6.96533">
        <ele>2247.3002037182</ele>
        <time>2021-11-18T09:55:50Z</time>
      </trkpt>
      <trkpt lat="44.17494" lon="6.96533">
        <ele>2247.3002240025</ele>
        <time>2021-11-18T09:55:51Z</time>
      </trkpt>
      <trkpt lat="44.17494" lon="6.96533">
        <ele>2248.3002478071</ele>
        <time>2021-11-18T09:55:52Z</time>
      </trkpt>
      <trkpt lat="44.17493" lon="6.96534">
        <ele>2247.3002820052</ele>
        <time>2021-11-18T09:55:54Z</time>
      </trkpt>
      <trkpt lat="44.17493" lon="6.96534">
        <ele>2247.3002820052</ele>
        <time>2021-11-18T09:55:58Z</time>
      </trkpt>
      <trkpt lat="44.17492" lon="6.96533">
        <ele>2246.3003351465</ele>
        <time>2021-11-18T09:56:00Z</time>
      </trkpt>
      <trkpt lat="44.17491" lon="6.96533">
        <ele>2244.3003452048</ele>
        <time>2021-11-18T09:56:08Z</time>
      </trkpt>
      <trkpt lat="44.1749" lon="6.96531">
        <ele>2244.3004030399</ele>
        <time>2021-11-18T09:56:09Z</time>
      </trkpt>
      <trkpt lat="44.17489" lon="6.9653">
        <ele>2245.3004278503</ele>
        <time>2021-11-18T09:56:11Z</time>
      </trkpt>
      <trkpt lat="44.17489" lon="6.9653">
        <ele>2245.3004390821</ele>
        <time>2021-11-18T09:56:14Z</time>
      </trkpt>
      <trkpt lat="44.17488" lon="6.96529">
        <ele>2244.3004722744</ele>
        <time>2021-11-18T09:56:15Z</time>
      </trkpt>
      <trkpt lat="44.17488" lon="6.96529">
        <ele>2245.3004883677</ele>
        <time>2021-11-18T09:56:17Z</time>
      </trkpt>
      <trkpt lat="44.17487" lon="6.96529">
        <ele>2245.3005108312</ele>
        <time>2021-11-18T09:56:19Z</time>
      </trkpt>
      <trkpt lat="44.17487" lon="6.96528">
        <ele>2247.3005304448</ele>
        <time>2021-11-18T09:56:22Z</time>
      </trkpt>
      <trkpt lat="44.17486" lon="6.96528">
        <ele>2247.3005534112</ele>
        <time>2021-11-18T09:56:24Z</time>
      </trkpt>
      <trkpt lat="44.17485" lon="6.96528">
        <ele>2248.3005871065</ele>
        <time>2021-11-18T09:56:26Z</time>
      </trkpt>
      <trkpt lat="44.17485" lon="6.96528">
        <ele>2248.3006166108</ele>
        <time>2021-11-18T09:56:32Z</time>
      </trkpt>
      <trkpt lat="44.17483" lon="6.96526">
        <ele>2248.3006667346</ele>
        <time>2021-11-18T09:56:33Z</time>
      </trkpt>
      <trkpt lat="44.17482" lon="6.96526">
        <ele>2249.3007111587</ele>
        <time>2021-11-18T09:56:35Z</time>
      </trkpt>
      <trkpt lat="44.17482" lon="6.96527">
        <ele>2249.3007349633</ele>
        <time>2021-11-18T09:56:37Z</time>
      </trkpt>
      <trkpt lat="44.17481" lon="6.96527">
        <ele>2248.3007674851</ele>
        <time>2021-11-18T09:56:41Z</time>
      </trkpt>
      <trkpt lat="44.1748" lon="6.96526">
        <ele>2249.3007912897</ele>
        <time>2021-11-18T09:56:42Z</time>
      </trkpt>
      <trkpt lat="44.1748" lon="6.96526">
        <ele>2249.3008043654</ele>
        <time>2021-11-18T09:56:43Z</time>
      </trkpt>
      <trkpt lat="44.17479" lon="6.96526">
        <ele>2248.3008249849</ele>
        <time>2021-11-18T09:56:45Z</time>
      </trkpt>
      <trkpt lat="44.17479" lon="6.96526">
        <ele>2248.3008528128</ele>
        <time>2021-11-18T09:56:46Z</time>
      </trkpt>
      <trkpt lat="44.17478" lon="6.96525">
        <ele>2248.3008803055</ele>
        <time>2021-11-18T09:56:47Z</time>
      </trkpt>
      <trkpt lat="44.17477" lon="6.96525">
        <ele>2247.3009036072</ele>
        <time>2021-11-18T09:56:48Z</time>
      </trkpt>
      <trkpt lat="44.17477" lon="6.96525">
        <ele>2248.3009262383</ele>
        <time>2021-11-18T09:56:50Z</time>
      </trkpt>
      <trkpt lat="44.17476" lon="6.96525">
        <ele>2248.3009473607</ele>
        <time>2021-11-18T09:56:51Z</time>
      </trkpt>
      <trkpt lat="44.17476" lon="6.96525">
        <ele>2248.3009622805</ele>
        <time>2021-11-18T09:56:52Z</time>
      </trkpt>
      <trkpt lat="44.17475" lon="6.96524">
        <ele>2248.3009880967</ele>
        <time>2021-11-18T09:56:54Z</time>
      </trkpt>
      <trkpt lat="44.17475" lon="6.96524">
        <ele>2248.3010207862</ele>
        <time>2021-11-18T09:56:57Z</time>
      </trkpt>
      <trkpt lat="44.17474" lon="6.96523">
        <ele>2249.301056996</ele>
        <time>2021-11-18T09:56:58Z</time>
      </trkpt>
      <trkpt lat="44.17473" lon="6.96523">
        <ele>2249.3010932058</ele>
        <time>2021-11-18T09:57:00Z</time>
      </trkpt>
      <trkpt lat="44.17472" lon="6.96523">
        <ele>2251.3011247218</ele>
        <time>2021-11-18T09:57:05Z</time>
      </trkpt>
      <trkpt lat="44.17472" lon="6.96522">
        <ele>2251.30113478</ele>
        <time>2021-11-18T09:57:06Z</time>
      </trkpt>
      <trkpt lat="44.17471" lon="6.96522">
        <ele>2252.3011552319</ele>
        <time>2021-11-18T09:57:10Z</time>
      </trkpt>
      <trkpt lat="44.1747" lon="6.96521">
        <ele>2253.3011907712</ele>
        <time>2021-11-18T09:57:11Z</time>
      </trkpt>
      <trkpt lat="44.1747" lon="6.96521">
        <ele>2253.3012160845</ele>
        <time>2021-11-18T09:57:12Z</time>
      </trkpt>
      <trkpt lat="44.17469" lon="6.96521">
        <ele>2254.3012407273</ele>
        <time>2021-11-18T09:57:16Z</time>
      </trkpt>
      <trkpt lat="44.17468" lon="6.96521">
        <ele>2254.301283475</ele>
        <time>2021-11-18T09:57:17Z</time>
      </trkpt>
      <trkpt lat="44.17467" lon="6.9652">
        <ele>2255.3013037592</ele>
        <time>2021-11-18T09:57:19Z</time>
      </trkpt>
      <trkpt lat="44.17467" lon="6.9652">
        <ele>2255.30132287</ele>
        <time>2021-11-18T09:57:21Z</time>
      </trkpt>
      <trkpt lat="44.17466" lon="6.96519">
        <ele>2257.3013488539</ele>
        <time>2021-11-18T09:57:23Z</time>
      </trkpt>
      <trkpt lat="44.17466" lon="6.96518">
        <ele>2257.3013542183</ele>
        <time>2021-11-18T09:57:24Z</time>
      </trkpt>
      <trkpt lat="44.17465" lon="6.96518">
        <ele>2257.3013865724</ele>
        <time>2021-11-18T09:57:26Z</time>
      </trkpt>
      <trkpt lat="44.17465" lon="6.96518">
        <ele>2257.3014112152</ele>
        <time>2021-11-18T09:57:28Z</time>
      </trkpt>
      <trkpt lat="44.17464" lon="6.96517">
        <ele>2258.3014246263</ele>
        <time>2021-11-18T09:57:30Z</time>
      </trkpt>
      <trkpt lat="44.17464" lon="6.96518">
        <ele>2258.3014583215</ele>
        <time>2021-11-18T09:57:32Z</time>
      </trkpt>
      <trkpt lat="44.17463" lon="6.96518">
        <ele>2258.301469218</ele>
        <time>2021-11-18T09:57:36Z</time>
      </trkpt>
      <trkpt lat="44.17462" lon="6.96517">
        <ele>2258.3015109599</ele>
        <time>2021-11-18T09:57:37Z</time>
      </trkpt>
      <trkpt lat="44.17462" lon="6.96516">
        <ele>2258.3015265502</ele>
        <time>2021-11-18T09:57:39Z</time>
      </trkpt>
      <trkpt lat="44.17462" lon="6.96515">
        <ele>2257.3015327528</ele>
        <time>2021-11-18T09:57:43Z</time>
      </trkpt>
      <trkpt lat="44.1746" lon="6.96515">
        <ele>2258.301590085</ele>
        <time>2021-11-18T09:57:45Z</time>
      </trkpt>
      <trkpt lat="44.1746" lon="6.96515">
        <ele>2258.3016070165</ele>
        <time>2021-11-18T09:57:46Z</time>
      </trkpt>
      <trkpt lat="44.17459" lon="6.96515">
        <ele>2258.3016375266</ele>
        <time>2021-11-18T09:57:47Z</time>
      </trkpt>
      <trkpt lat="44.17459" lon="6.96515">
        <ele>2258.3016454056</ele>
        <time>2021-11-18T09:57:50Z</time>
      </trkpt>
      <trkpt lat="44.17458" lon="6.96515">
        <ele>2257.30168413</ele>
        <time>2021-11-18T09:57:51Z</time>
      </trkpt>
      <trkpt lat="44.17458" lon="6.96515">
        <ele>2257.3016915061</ele>
        <time>2021-11-18T09:57:52Z</time>
      </trkpt>
      <trkpt lat="44.17457" lon="6.96514">
        <ele>2258.3017349243</ele>
        <time>2021-11-18T09:57:54Z</time>
      </trkpt>
      <trkpt lat="44.17456" lon="6.96514">
        <ele>2259.3017550409</ele>
        <time>2021-11-18T09:57:57Z</time>
      </trkpt>
      <trkpt lat="44.17456" lon="6.96514">
        <ele>2259.3017714694</ele>
        <time>2021-11-18T09:57:59Z</time>
      </trkpt>
      <trkpt lat="44.17455" lon="6.96514">
        <ele>2259.3017932624</ele>
        <time>2021-11-18T09:58:02Z</time>
      </trkpt>
      <trkpt lat="44.17455" lon="6.96512">
        <ele>2259.3018120378</ele>
        <time>2021-11-18T09:58:03Z</time>
      </trkpt>
      <trkpt lat="44.17454" lon="6.96511">
        <ele>2259.3018514328</ele>
        <time>2021-11-18T09:58:05Z</time>
      </trkpt>
      <trkpt lat="44.17453" lon="6.96511">
        <ele>2258.3018757403</ele>
        <time>2021-11-18T09:58:06Z</time>
      </trkpt>
      <trkpt lat="44.17453" lon="6.96511">
        <ele>2258.3018950187</ele>
        <time>2021-11-18T09:58:07Z</time>
      </trkpt>
      <trkpt lat="44.17452" lon="6.96511">
        <ele>2259.3019179851</ele>
        <time>2021-11-18T09:58:09Z</time>
      </trkpt>
      <trkpt lat="44.17451" lon="6.9651">
        <ele>2259.3019424602</ele>
        <time>2021-11-18T09:58:11Z</time>
      </trkpt>
      <trkpt lat="44.17451" lon="6.9651">
        <ele>2260.3019674383</ele>
        <time>2021-11-18T09:58:12Z</time>
      </trkpt>
      <trkpt lat="44.1745" lon="6.9651">
        <ele>2260.3019991219</ele>
        <time>2021-11-18T09:58:14Z</time>
      </trkpt>
      <trkpt lat="44.17449" lon="6.9651">
        <ele>2262.3020297997</ele>
        <time>2021-11-18T09:58:26Z</time>
      </trkpt>
      <trkpt lat="44.1745" lon="6.96507">
        <ele>2263.3019914106</ele>
        <time>2021-11-18T09:58:27Z</time>
      </trkpt>
      <trkpt lat="44.1745" lon="6.96506">
        <ele>2263.301988896</ele>
        <time>2021-11-18T09:58:28Z</time>
      </trkpt>
      <trkpt lat="44.17451" lon="6.96505">
        <ele>2263.3019630797</ele>
        <time>2021-11-18T09:58:30Z</time>
      </trkpt>
      <trkpt lat="44.17451" lon="6.96505">
        <ele>2263.3019630797</ele>
        <time>2021-11-18T09:58:33Z</time>
      </trkpt>
      <trkpt lat="44.17452" lon="6.96504">
        <ele>2264.3019210026</ele>
        <time>2021-11-18T09:58:34Z</time>
      </trkpt>
      <trkpt lat="44.17452" lon="6.96503">
        <ele>2263.3019201644</ele>
        <time>2021-11-18T09:58:35Z</time>
      </trkpt>
      <trkpt lat="44.17452" lon="6.96502">
        <ele>2264.3019240201</ele>
        <time>2021-11-18T09:58:36Z</time>
      </trkpt>
      <trkpt lat="44.17452" lon="6.96501">
        <ele>2265.3019218408</ele>
        <time>2021-11-18T09:58:37Z</time>
      </trkpt>
      <trkpt lat="44.17452" lon="6.965">
        <ele>2265.3019211702</ele>
        <time>2021-11-18T09:58:41Z</time>
      </trkpt>
      <trkpt lat="44.17452" lon="6.96499">
        <ele>2264.3019391075</ele>
        <time>2021-11-18T09:58:51Z</time>
      </trkpt>
      <trkpt lat="44.17451" lon="6.96496">
        <ele>2265.3019761555</ele>
        <time>2021-11-18T09:58:52Z</time>
      </trkpt>
      <trkpt lat="44.1745" lon="6.96495">
        <ele>2265.3019991219</ele>
        <time>2021-11-18T09:58:54Z</time>
      </trkpt>
      <trkpt lat="44.1745" lon="6.96495">
        <ele>2265.3020200767</ele>
        <time>2021-11-18T09:58:55Z</time>
      </trkpt>
      <trkpt lat="44.17449" lon="6.96495">
        <ele>2266.3020376787</ele>
        <time>2021-11-18T09:58:56Z</time>
      </trkpt>
      <trkpt lat="44.17449" lon="6.96494">
        <ele>2266.3020510897</ele>
        <time>2021-11-18T09:58:57Z</time>
      </trkpt>
      <trkpt lat="44.17448" lon="6.96494">
        <ele>2267.3020794205</ele>
        <time>2021-11-18T09:59:00Z</time>
      </trkpt>
      <trkpt lat="44.17448" lon="6.96492">
        <ele>2268.3020676859</ele>
        <time>2021-11-18T09:59:04Z</time>
      </trkpt>
      <trkpt lat="44.17448" lon="6.96492">
        <ele>2267.3020955138</ele>
        <time>2021-11-18T09:59:06Z</time>
      </trkpt>
      <trkpt lat="44.17448" lon="6.96491">
        <ele>2267.3020958491</ele>
        <time>2021-11-18T09:59:07Z</time>
      </trkpt>
      <trkpt lat="44.17446" lon="6.9649">
        <ele>2267.3021483198</ele>
        <time>2021-11-18T09:59:09Z</time>
      </trkpt>
      <trkpt lat="44.17446" lon="6.9649">
        <ele>2267.3021744713</ele>
        <time>2021-11-18T09:59:12Z</time>
      </trkpt>
      <trkpt lat="44.17445" lon="6.9649">
        <ele>2268.3021932468</ele>
        <time>2021-11-18T09:59:15Z</time>
      </trkpt>
      <trkpt lat="44.17444" lon="6.9649">
        <ele>2268.302254267</ele>
        <time>2021-11-18T09:59:16Z</time>
      </trkpt>
      <trkpt lat="44.17443" lon="6.96491">
        <ele>2269.302266337</ele>
        <time>2021-11-18T09:59:20Z</time>
      </trkpt>
      <trkpt lat="44.17443" lon="6.96492">
        <ele>2270.3022904769</ele>
        <time>2021-11-18T09:59:21Z</time>
      </trkpt>
      <trkpt lat="44.17442" lon="6.96492">
        <ele>2269.3023218252</ele>
        <time>2021-11-18T09:59:23Z</time>
      </trkpt>
      <trkpt lat="44.17442" lon="6.96491">
        <ele>2269.3023375832</ele>
        <time>2021-11-18T09:59:26Z</time>
      </trkpt>
      <trkpt lat="44.1744" lon="6.96491">
        <ele>2271.3023965918</ele>
        <time>2021-11-18T09:59:27Z</time>
      </trkpt>
      <trkpt lat="44.17439" lon="6.96491">
        <ele>2271.3024272695</ele>
        <time>2021-11-18T09:59:28Z</time>
      </trkpt>
      <trkpt lat="44.17439" lon="6.96491">
        <ele>2272.3024431951</ele>
        <time>2021-11-18T09:59:29Z</time>
      </trkpt>
      <trkpt lat="44.17438" lon="6.96491">
        <ele>2272.3024663292</ele>
        <time>2021-11-18T09:59:34Z</time>
      </trkpt>
      <trkpt lat="44.17437" lon="6.9649">
        <ele>2273.3025263436</ele>
        <time>2021-11-18T09:59:35Z</time>
      </trkpt>
      <trkpt lat="44.17436" lon="6.96489">
        <ele>2274.3025454544</ele>
        <time>2021-11-18T09:59:37Z</time>
      </trkpt>
      <trkpt lat="44.17436" lon="6.96489">
        <ele>2274.3025784791</ele>
        <time>2021-11-18T09:59:41Z</time>
      </trkpt>
      <trkpt lat="44.17435" lon="6.96489">
        <ele>2275.3026108332</ele>
        <time>2021-11-18T09:59:42Z</time>
      </trkpt>
      <trkpt lat="44.17434" lon="6.96489">
        <ele>2275.3026250824</ele>
        <time>2021-11-18T09:59:43Z</time>
      </trkpt>
      <trkpt lat="44.17434" lon="6.96488">
        <ele>2275.3026557602</ele>
        <time>2021-11-18T09:59:46Z</time>
      </trkpt>
      <trkpt lat="44.17433" lon="6.96489">
        <ele>2275.302698005</ele>
        <time>2021-11-18T09:59:47Z</time>
      </trkpt>
      <trkpt lat="44.17432" lon="6.96488">
        <ele>2275.3027132601</ele>
        <time>2021-11-18T09:59:48Z</time>
      </trkpt>
      <trkpt lat="44.17432" lon="6.96488">
        <ele>2274.3027298562</ele>
        <time>2021-11-18T09:59:49Z</time>
      </trkpt>
      <trkpt lat="44.17431" lon="6.96488">
        <ele>2274.3027565107</ele>
        <time>2021-11-18T09:59:51Z</time>
      </trkpt>
      <trkpt lat="44.17431" lon="6.96488">
        <ele>2274.302770257</ele>
        <time>2021-11-18T09:59:54Z</time>
      </trkpt>
      <trkpt lat="44.17429" lon="6.96489">
        <ele>2275.3028254099</ele>
        <time>2021-11-18T09:59:56Z</time>
      </trkpt>
      <trkpt lat="44.17429" lon="6.96488">
        <ele>2275.3028508909</ele>
        <time>2021-11-18T09:59:59Z</time>
      </trkpt>
      <trkpt lat="44.17428" lon="6.96487">
        <ele>2275.3028626256</ele>
        <time>2021-11-18T10:00:00Z</time>
      </trkpt>
      <trkpt lat="44.17428" lon="6.96487">
        <ele>2276.3028629608</ele>
        <time>2021-11-18T10:00:03Z</time>
      </trkpt>
      <trkpt lat="44.17427" lon="6.96486">
        <ele>2277.3029407449</ele>
        <time>2021-11-18T10:00:05Z</time>
      </trkpt>
      <trkpt lat="44.17426" lon="6.96486">
        <ele>2277.3029680699</ele>
        <time>2021-11-18T10:00:06Z</time>
      </trkpt>
      <trkpt lat="44.17425" lon="6.96486">
        <ele>2277.3029999211</ele>
        <time>2021-11-18T10:00:13Z</time>
      </trkpt>
      <trkpt lat="44.17423" lon="6.96485">
        <ele>2277.3030773699</ele>
        <time>2021-11-18T10:00:15Z</time>
      </trkpt>
      <trkpt lat="44.17422" lon="6.96485">
        <ele>2278.3031082153</ele>
        <time>2021-11-18T10:00:21Z</time>
      </trkpt>
      <trkpt lat="44.17421" lon="6.96485">
        <ele>2278.3031605184</ele>
        <time>2021-11-18T10:00:22Z</time>
      </trkpt>
      <trkpt lat="44.17422" lon="6.96484">
        <ele>2278.3031410724</ele>
        <time>2021-11-18T10:00:24Z</time>
      </trkpt>
      <trkpt lat="44.17422" lon="6.96484">
        <ele>2278.3031197824</ele>
        <time>2021-11-18T10:00:26Z</time>
      </trkpt>
      <trkpt lat="44.17422" lon="6.96483">
        <ele>2278.30311995</ele>
        <time>2021-11-18T10:00:31Z</time>
      </trkpt>
      <trkpt lat="44.17422" lon="6.96481">
        <ele>2278.3031107299</ele>
        <time>2021-11-18T10:00:32Z</time>
      </trkpt>
      <trkpt lat="44.17422" lon="6.9648">
        <ele>2278.3031107299</ele>
        <time>2021-11-18T10:00:33Z</time>
      </trkpt>
      <trkpt lat="44.17423" lon="6.96479">
        <ele>2279.3030934632</ele>
        <time>2021-11-18T10:00:42Z</time>
      </trkpt>
      <trkpt lat="44.17423" lon="6.96478">
        <ele>2280.3030830696</ele>
        <time>2021-11-18T10:00:43Z</time>
      </trkpt>
      <trkpt lat="44.17423" lon="6.96477">
        <ele>2281.3030934632</ele>
        <time>2021-11-18T10:00:48Z</time>
      </trkpt>
      <trkpt lat="44.17423" lon="6.96476">
        <ele>2281.3030904457</ele>
        <time>2021-11-18T10:00:49Z</time>
      </trkpt>
      <trkpt lat="44.17423" lon="6.96475">
        <ele>2282.3030691557</ele>
        <time>2021-11-18T10:00:53Z</time>
      </trkpt>
      <trkpt lat="44.17424" lon="6.96475">
        <ele>2283.3030569181</ele>
        <time>2021-11-18T10:00:55Z</time>
      </trkpt>
      <trkpt lat="44.17424" lon="6.96474">
        <ele>2282.3030596003</ele>
        <time>2021-11-18T10:00:56Z</time>
      </trkpt>
      <trkpt lat="44.17424" lon="6.96473">
        <ele>2283.3030305989</ele>
        <time>2021-11-18T10:01:00Z</time>
      </trkpt>
      <trkpt lat="44.17424" lon="6.96472">
        <ele>2284.3030456863</ele>
        <time>2021-11-18T10:01:05Z</time>
      </trkpt>
      <trkpt lat="44.17424" lon="6.96472">
        <ele>2284.3030493744</ele>
        <time>2021-11-18T10:01:07Z</time>
      </trkpt>
      <trkpt lat="44.17423" lon="6.96471">
        <ele>2284.3030761965</ele>
        <time>2021-11-18T10:01:09Z</time>
      </trkpt>
      <trkpt lat="44.17423" lon="6.9647">
        <ele>2285.3030834049</ele>
        <time>2021-11-18T10:01:16Z</time>
      </trkpt>
      <trkpt lat="44.17422" lon="6.9647">
        <ele>2285.303115759</ele>
        <time>2021-11-18T10:01:17Z</time>
      </trkpt>
      <trkpt lat="44.17422" lon="6.96469">
        <ele>2285.3031321876</ele>
        <time>2021-11-18T10:01:18Z</time>
      </trkpt>
      <trkpt lat="44.17421" lon="6.96468">
        <ele>2285.3031516336</ele>
        <time>2021-11-18T10:01:19Z</time>
      </trkpt>
      <trkpt lat="44.17421" lon="6.96468">
        <ele>2286.3031668887</ele>
        <time>2021-11-18T10:01:24Z</time>
      </trkpt>
      <trkpt lat="44.1742" lon="6.96467">
        <ele>2286.3032103069</ele>
        <time>2021-11-18T10:01:26Z</time>
      </trkpt>
      <trkpt lat="44.17419" lon="6.96467">
        <ele>2287.3032267354</ele>
        <time>2021-11-18T10:01:27Z</time>
      </trkpt>
      <trkpt lat="44.17419" lon="6.96466">
        <ele>2287.3032443374</ele>
        <time>2021-11-18T10:01:28Z</time>
      </trkpt>
      <trkpt lat="44.17419" lon="6.96467">
        <ele>2287.3032594249</ele>
        <time>2021-11-18T10:01:30Z</time>
      </trkpt>
      <trkpt lat="44.17418" lon="6.96465">
        <ele>2287.3032835647</ele>
        <time>2021-11-18T10:01:31Z</time>
      </trkpt>
      <trkpt lat="44.17418" lon="6.96465">
        <ele>2287.3032864146</ele>
        <time>2021-11-18T10:01:32Z</time>
      </trkpt>
      <trkpt lat="44.17418" lon="6.96464">
        <ele>2287.3032952994</ele>
        <time>2021-11-18T10:01:33Z</time>
      </trkpt>
      <trkpt lat="44.17418" lon="6.96462">
        <ele>2287.3032740094</ele>
        <time>2021-11-18T10:01:34Z</time>
      </trkpt>
      <trkpt lat="44.17418" lon="6.96462">
        <ele>2287.3032885939</ele>
        <time>2021-11-18T10:01:36Z</time>
      </trkpt>
      <trkpt lat="44.17418" lon="6.96461">
        <ele>2287.3033011667</ele>
        <time>2021-11-18T10:01:47Z</time>
      </trkpt>
      <trkpt lat="44.17417" lon="6.9646">
        <ele>2289.303311225</ele>
        <time>2021-11-18T10:01:48Z</time>
      </trkpt>
      <trkpt lat="44.17417" lon="6.9646">
        <ele>2288.3033395559</ele>
        <time>2021-11-18T10:01:51Z</time>
      </trkpt>
      <trkpt lat="44.17416" lon="6.9646">
        <ele>2289.3033546433</ele>
        <time>2021-11-18T10:01:52Z</time>
      </trkpt>
      <trkpt lat="44.17416" lon="6.96459">
        <ele>2289.3033663779</ele>
        <time>2021-11-18T10:01:54Z</time>
      </trkpt>
      <trkpt lat="44.17416" lon="6.96458">
        <ele>2288.3033437468</ele>
        <time>2021-11-18T10:01:56Z</time>
      </trkpt>
      <trkpt lat="44.17416" lon="6.96457">
        <ele>2288.3033667132</ele>
        <time>2021-11-18T10:01:58Z</time>
      </trkpt>
      <trkpt lat="44.17415" lon="6.96456">
        <ele>2288.3033823036</ele>
        <time>2021-11-18T10:02:00Z</time>
      </trkpt>
      <trkpt lat="44.17416" lon="6.96455">
        <ele>2289.3033796214</ele>
        <time>2021-11-18T10:02:02Z</time>
      </trkpt>
      <trkpt lat="44.17416" lon="6.96454">
        <ele>2288.3033794537</ele>
        <time>2021-11-18T10:02:03Z</time>
      </trkpt>
      <trkpt lat="44.17415" lon="6.96453">
        <ele>2288.3033923618</ele>
        <time>2021-11-18T10:02:05Z</time>
      </trkpt>
      <trkpt lat="44.17415" lon="6.96454">
        <ele>2289.3033826388</ele>
        <time>2021-11-18T10:02:11Z</time>
      </trkpt>
      <trkpt lat="44.17415" lon="6.96454">
        <ele>2290.3034148254</ele>
        <time>2021-11-18T10:02:13Z</time>
      </trkpt>
      <trkpt lat="44.17414" lon="6.96453">
        <ele>2290.3034287393</ele>
        <time>2021-11-18T10:02:15Z</time>
      </trkpt>
      <trkpt lat="44.17414" lon="6.96453">
        <ele>2290.3034287393</ele>
        <time>2021-11-18T10:02:18Z</time>
      </trkpt>
      <trkpt lat="44.17413" lon="6.96452">
        <ele>2289.3034795336</ele>
        <time>2021-11-18T10:02:20Z</time>
      </trkpt>
      <trkpt lat="44.17413" lon="6.96451">
        <ele>2289.3034780249</ele>
        <time>2021-11-18T10:02:23Z</time>
      </trkpt>
      <trkpt lat="44.17413" lon="6.9645">
        <ele>2289.3034803718</ele>
        <time>2021-11-18T10:02:24Z</time>
      </trkpt>
      <trkpt lat="44.17413" lon="6.96449">
        <ele>2290.3034857363</ele>
        <time>2021-11-18T10:02:26Z</time>
      </trkpt>
      <trkpt lat="44.17413" lon="6.96448">
        <ele>2290.3034902625</ele>
        <time>2021-11-18T10:02:27Z</time>
      </trkpt>
      <trkpt lat="44.17413" lon="6.96447">
        <ele>2290.3034986444</ele>
        <time>2021-11-18T10:02:28Z</time>
      </trkpt>
      <trkpt lat="44.17412" lon="6.96447">
        <ele>2291.3035152406</ele>
        <time>2021-11-18T10:02:34Z</time>
      </trkpt>
      <trkpt lat="44.17412" lon="6.96446">
        <ele>2291.3035070263</ele>
        <time>2021-11-18T10:02:35Z</time>
      </trkpt>
      <trkpt lat="44.17412" lon="6.96446">
        <ele>2290.3035256341</ele>
        <time>2021-11-18T10:02:37Z</time>
      </trkpt>
      <trkpt lat="44.17411" lon="6.96445">
        <ele>2294.3035494387</ele>
        <time>2021-11-18T10:02:47Z</time>
      </trkpt>
      <trkpt lat="44.1741" lon="6.96445">
        <ele>2295.3035838045</ele>
        <time>2021-11-18T10:02:52Z</time>
      </trkpt>
      <trkpt lat="44.1741" lon="6.96444">
        <ele>2296.3036169969</ele>
        <time>2021-11-18T10:02:53Z</time>
      </trkpt>
      <trkpt lat="44.17409" lon="6.96443">
        <ele>2297.3036320843</ele>
        <time>2021-11-18T10:02:58Z</time>
      </trkpt>
      <trkpt lat="44.17409" lon="6.96442">
        <ele>2297.3036421426</ele>
        <time>2021-11-18T10:03:00Z</time>
      </trkpt>
      <trkpt lat="44.1741" lon="6.96442">
        <ele>2297.303618338</ele>
        <time>2021-11-18T10:03:05Z</time>
      </trkpt>
      <trkpt lat="44.17409" lon="6.96442">
        <ele>2299.3036361076</ele>
        <time>2021-11-18T10:03:12Z</time>
      </trkpt>
      <trkpt lat="44.17409" lon="6.96443">
        <ele>2299.303645663</ele>
        <time>2021-11-18T10:03:18Z</time>
      </trkpt>
      <trkpt lat="44.17409" lon="6.96442">
        <ele>2298.3036595769</ele>
        <time>2021-11-18T10:03:22Z</time>
      </trkpt>
      <trkpt lat="44.17408" lon="6.96442">
        <ele>2297.3036915958</ele>
        <time>2021-11-18T10:04:17Z</time>
      </trkpt>
      <trkpt lat="44.17407" lon="6.96442">
        <ele>2297.3037212677</ele>
        <time>2021-11-18T10:04:23Z</time>
      </trkpt>
      <trkpt lat="44.17407" lon="6.96442">
        <ele>2296.3037336729</ele>
        <time>2021-11-18T10:04:31Z</time>
      </trkpt>
      <trkpt lat="44.17408" lon="6.96443">
        <ele>2297.303700313</ele>
        <time>2021-11-18T10:04:32Z</time>
      </trkpt>
      <trkpt lat="44.17408" lon="6.96442">
        <ele>2297.30367852</ele>
        <time>2021-11-18T10:04:34Z</time>
      </trkpt>
      <trkpt lat="44.17408" lon="6.96442">
        <ele>2298.3036676235</ele>
        <time>2021-11-18T10:04:43Z</time>
      </trkpt>
      <trkpt lat="44.17406" lon="6.96443">
        <ele>2295.3037454076</ele>
        <time>2021-11-18T10:04:45Z</time>
      </trkpt>
      <trkpt lat="44.17406" lon="6.96442">
        <ele>2295.3037566394</ele>
        <time>2021-11-18T10:05:24Z</time>
      </trkpt>
      <trkpt lat="44.17407" lon="6.96439">
        <ele>2295.3037370257</ele>
        <time>2021-11-18T10:05:26Z</time>
      </trkpt>
      <trkpt lat="44.17407" lon="6.96439">
        <ele>2298.3037053421</ele>
        <time>2021-11-18T10:05:29Z</time>
      </trkpt>
      <trkpt lat="44.17408" lon="6.96439">
        <ele>2298.3036818728</ele>
        <time>2021-11-18T10:05:31Z</time>
      </trkpt>
      <trkpt lat="44.17409" lon="6.9644">
        <ele>2298.3036563918</ele>
        <time>2021-11-18T10:05:32Z</time>
      </trkpt>
      <trkpt lat="44.17409" lon="6.9644">
        <ele>2298.3036387898</ele>
        <time>2021-11-18T10:05:53Z</time>
      </trkpt>
      <trkpt lat="44.17408" lon="6.9644">
        <ele>2297.3036842197</ele>
        <time>2021-11-18T10:05:54Z</time>
      </trkpt>
      <trkpt lat="44.17408" lon="6.96441">
        <ele>2297.3036770113</ele>
        <time>2021-11-18T10:06:33Z</time>
      </trkpt>
      <trkpt lat="44.17408" lon="6.96442">
        <ele>2299.3036783524</ele>
        <time>2021-11-18T10:06:34Z</time>
      </trkpt>
      <trkpt lat="44.17407" lon="6.96443">
        <ele>2300.3037041686</ele>
        <time>2021-11-18T10:06:41Z</time>
      </trkpt>
      <trkpt lat="44.17407" lon="6.96443">
        <ele>2300.3037348464</ele>
        <time>2021-11-18T10:06:42Z</time>
      </trkpt>
      <trkpt lat="44.17407" lon="6.96442">
        <ele>2301.3037393726</ele>
        <time>2021-11-18T10:06:43Z</time>
      </trkpt>
      <trkpt lat="44.17405" lon="6.96442">
        <ele>2301.3037997223</ele>
        <time>2021-11-18T10:06:45Z</time>
      </trkpt>
      <trkpt lat="44.17405" lon="6.96441">
        <ele>2302.3038062602</ele>
        <time>2021-11-18T10:06:46Z</time>
      </trkpt>
      <trkpt lat="44.17405" lon="6.9644">
        <ele>2302.3038143069</ele>
        <time>2021-11-18T10:06:47Z</time>
      </trkpt>
      <trkpt lat="44.17404" lon="6.96439">
        <ele>2304.3038381115</ele>
        <time>2021-11-18T10:06:51Z</time>
      </trkpt>
      <trkpt lat="44.17403" lon="6.9644">
        <ele>2305.3038686216</ele>
        <time>2021-11-18T10:06:52Z</time>
      </trkpt>
      <trkpt lat="44.17403" lon="6.9644">
        <ele>2306.3038904145</ele>
        <time>2021-11-18T10:06:55Z</time>
      </trkpt>
      <trkpt lat="44.17402" lon="6.9644">
        <ele>2306.3039081842</ele>
        <time>2021-11-18T10:06:57Z</time>
      </trkpt>
      <trkpt lat="44.17402" lon="6.9644">
        <ele>2306.3039294742</ele>
        <time>2021-11-18T10:06:58Z</time>
      </trkpt>
      <trkpt lat="44.17401" lon="6.9644">
        <ele>2306.3039554581</ele>
        <time>2021-11-18T10:07:00Z</time>
      </trkpt>
      <trkpt lat="44.174" lon="6.96439">
        <ele>2307.303995356</ele>
        <time>2021-11-18T10:07:01Z</time>
      </trkpt>
      <trkpt lat="44.174" lon="6.96439">
        <ele>2307.3040107787</ele>
        <time>2021-11-18T10:07:02Z</time>
      </trkpt>
      <trkpt lat="44.17399" lon="6.96439">
        <ele>2307.3040302247</ele>
        <time>2021-11-18T10:07:03Z</time>
      </trkpt>
      <trkpt lat="44.17399" lon="6.96439">
        <ele>2308.3040570468</ele>
        <time>2021-11-18T10:07:10Z</time>
      </trkpt>
      <trkpt lat="44.17398" lon="6.96438">
        <ele>2310.304069452</ele>
        <time>2021-11-18T10:07:13Z</time>
      </trkpt>
      <trkpt lat="44.17398" lon="6.96437">
        <ele>2310.3040751517</ele>
        <time>2021-11-18T10:07:14Z</time>
      </trkpt>
      <trkpt lat="44.17398" lon="6.96436">
        <ele>2310.3040989563</ele>
        <time>2021-11-18T10:07:16Z</time>
      </trkpt>
      <trkpt lat="44.17397" lon="6.96436">
        <ele>2310.3041157201</ele>
        <time>2021-11-18T10:07:17Z</time>
      </trkpt>
      <trkpt lat="44.17397" lon="6.96436">
        <ele>2310.3041366749</ele>
        <time>2021-11-18T10:07:19Z</time>
      </trkpt>
      <trkpt lat="44.17397" lon="6.96435">
        <ele>2310.3041371778</ele>
        <time>2021-11-18T10:07:27Z</time>
      </trkpt>
      <trkpt lat="44.17396" lon="6.96434">
        <ele>2311.3041599765</ele>
        <time>2021-11-18T10:07:29Z</time>
      </trkpt>
      <trkpt lat="44.17395" lon="6.96433">
        <ele>2311.3041837811</ele>
        <time>2021-11-18T10:07:36Z</time>
      </trkpt>
      <trkpt lat="44.17395" lon="6.96432">
        <ele>2310.3042054065</ele>
        <time>2021-11-18T10:07:37Z</time>
      </trkpt>
      <trkpt lat="44.17395" lon="6.96431">
        <ele>2310.3042075858</ele>
        <time>2021-11-18T10:07:38Z</time>
      </trkpt>
      <trkpt lat="44.17394" lon="6.96431">
        <ele>2311.3042230085</ele>
        <time>2021-11-18T10:07:46Z</time>
      </trkpt>
      <trkpt lat="44.17394" lon="6.96431">
        <ele>2311.3042484894</ele>
        <time>2021-11-18T10:07:47Z</time>
      </trkpt>
      <trkpt lat="44.17394" lon="6.96431">
        <ele>2311.3042563684</ele>
        <time>2021-11-18T10:07:49Z</time>
      </trkpt>
      <trkpt lat="44.17393" lon="6.96432">
        <ele>2312.3042620681</ele>
        <time>2021-11-18T10:07:51Z</time>
      </trkpt>
      <trkpt lat="44.17394" lon="6.96431">
        <ele>2313.3042538539</ele>
        <time>2021-11-18T10:07:56Z</time>
      </trkpt>
      <trkpt lat="44.17394" lon="6.9643">
        <ele>2313.304241281</ele>
        <time>2021-11-18T10:07:57Z</time>
      </trkpt>
      <trkpt lat="44.17393" lon="6.9643">
        <ele>2315.3042691089</ele>
        <time>2021-11-18T10:08:03Z</time>
      </trkpt>
      <trkpt lat="44.17393" lon="6.96429">
        <ele>2317.3042925783</ele>
        <time>2021-11-18T10:08:10Z</time>
      </trkpt>
      <trkpt lat="44.17392" lon="6.96429">
        <ele>2317.3043247648</ele>
        <time>2021-11-18T10:08:15Z</time>
      </trkpt>
      <trkpt lat="44.17392" lon="6.96429">
        <ele>2317.3043344878</ele>
        <time>2021-11-18T10:08:16Z</time>
      </trkpt>
      <trkpt lat="44.17392" lon="6.96427">
        <ele>2317.3043331467</ele>
        <time>2021-11-18T10:08:17Z</time>
      </trkpt>
      <trkpt lat="44.17391" lon="6.96426">
        <ele>2318.3043484017</ele>
        <time>2021-11-18T10:08:18Z</time>
      </trkpt>
      <trkpt lat="44.17391" lon="6.96426">
        <ele>2318.3043484017</ele>
        <time>2021-11-18T10:08:20Z</time>
      </trkpt>
      <trkpt lat="44.17391" lon="6.96424">
        <ele>2316.3043685183</ele>
        <time>2021-11-18T10:08:21Z</time>
      </trkpt>
      <trkpt lat="44.1739" lon="6.96425">
        <ele>2318.3043909818</ele>
        <time>2021-11-18T10:08:49Z</time>
      </trkpt>
      <trkpt lat="44.1739" lon="6.96424">
        <ele>2317.3044079132</ele>
        <time>2021-11-18T10:08:50Z</time>
      </trkpt>
      <trkpt lat="44.17389" lon="6.96424">
        <ele>2317.3044283651</ele>
        <time>2021-11-18T10:08:51Z</time>
      </trkpt>
      <trkpt lat="44.17389" lon="6.96423">
        <ele>2317.3044568636</ele>
        <time>2021-11-18T10:08:54Z</time>
      </trkpt>
      <trkpt lat="44.17389" lon="6.96422">
        <ele>2317.3044548519</ele>
        <time>2021-11-18T10:08:56Z</time>
      </trkpt>
      <trkpt lat="44.17389" lon="6.96421">
        <ele>2318.3044454642</ele>
        <time>2021-11-18T10:08:58Z</time>
      </trkpt>
      <trkpt lat="44.17388" lon="6.96421">
        <ele>2317.3044779859</ele>
        <time>2021-11-18T10:09:03Z</time>
      </trkpt>
      <trkpt lat="44.17388" lon="6.9642">
        <ele>2320.3045002818</ele>
        <time>2021-11-18T10:09:11Z</time>
      </trkpt>
      <trkpt lat="44.17387" lon="6.96419">
        <ele>2321.3045267686</ele>
        <time>2021-11-18T10:09:13Z</time>
      </trkpt>
      <trkpt lat="44.17387" lon="6.96419">
        <ele>2321.304536324</ele>
        <time>2021-11-18T10:09:14Z</time>
      </trkpt>
      <trkpt lat="44.17387" lon="6.96418">
        <ele>2321.3045371622</ele>
        <time>2021-11-18T10:09:15Z</time>
      </trkpt>
      <trkpt lat="44.17386" lon="6.96418">
        <ele>2322.3045638166</ele>
        <time>2021-11-18T10:09:17Z</time>
      </trkpt>
      <trkpt lat="44.17386" lon="6.96417">
        <ele>2322.3045495674</ele>
        <time>2021-11-18T10:09:18Z</time>
      </trkpt>
      <trkpt lat="44.17387" lon="6.96416">
        <ele>2322.3045376651</ele>
        <time>2021-11-18T10:09:21Z</time>
      </trkpt>
      <trkpt lat="44.17386" lon="6.96415">
        <ele>2323.3045420237</ele>
        <time>2021-11-18T10:09:23Z</time>
      </trkpt>
      <trkpt lat="44.17386" lon="6.96414">
        <ele>2323.3045495674</ele>
        <time>2021-11-18T10:09:26Z</time>
      </trkpt>
      <trkpt lat="44.17386" lon="6.96413">
        <ele>2323.3045611344</ele>
        <time>2021-11-18T10:09:45Z</time>
      </trkpt>
      <trkpt lat="44.17384" lon="6.96412">
        <ele>2322.3046268485</ele>
        <time>2021-11-18T10:09:46Z</time>
      </trkpt>
      <trkpt lat="44.17384" lon="6.96412">
        <ele>2324.3046457916</ele>
        <time>2021-11-18T10:09:54Z</time>
      </trkpt>
      <trkpt lat="44.17384" lon="6.96412">
        <ele>2324.304661382</ele>
        <time>2021-11-18T10:09:55Z</time>
      </trkpt>
      <trkpt lat="44.17383" lon="6.96413">
        <ele>2324.3046893775</ele>
        <time>2021-11-18T10:09:56Z</time>
      </trkpt>
      <trkpt lat="44.17383" lon="6.96414">
        <ele>2325.3046908863</ele>
        <time>2021-11-18T10:10:25Z</time>
      </trkpt>
      <trkpt lat="44.17382" lon="6.96414">
        <ele>2324.3047022857</ele>
        <time>2021-11-18T10:12:27Z</time>
      </trkpt>
      <trkpt lat="44.17382" lon="6.96413">
        <ele>2326.3047267608</ele>
        <time>2021-11-18T10:12:28Z</time>
      </trkpt>
      <trkpt lat="44.17381" lon="6.96412">
        <ele>2326.3047423512</ele>
        <time>2021-11-18T10:12:29Z</time>
      </trkpt>
      <trkpt lat="44.17381" lon="6.96411">
        <ele>2327.3047631383</ele>
        <time>2021-11-18T10:12:31Z</time>
      </trkpt>
      <trkpt lat="44.17381" lon="6.96411">
        <ele>2327.3047777228</ele>
        <time>2021-11-18T10:12:32Z</time>
      </trkpt>
      <trkpt lat="44.1738" lon="6.9641">
        <ele>2327.3047907986</ele>
        <time>2021-11-18T10:12:33Z</time>
      </trkpt>
      <trkpt lat="44.1738" lon="6.9641">
        <ele>2328.3048072271</ele>
        <time>2021-11-18T10:12:36Z</time>
      </trkpt>
      <trkpt lat="44.17379" lon="6.96409">
        <ele>2328.3048288524</ele>
        <time>2021-11-18T10:12:37Z</time>
      </trkpt>
      <trkpt lat="44.17379" lon="6.96409">
        <ele>2328.3048548363</ele>
        <time>2021-11-18T10:12:38Z</time>
      </trkpt>
      <trkpt lat="44.17379" lon="6.96408">
        <ele>2327.3048581891</ele>
        <time>2021-11-18T10:12:40Z</time>
      </trkpt>
      <trkpt lat="44.17379" lon="6.96408">
        <ele>2328.3048412576</ele>
        <time>2021-11-18T10:12:41Z</time>
      </trkpt>
      <trkpt lat="44.17379" lon="6.96407">
        <ele>2328.3048595302</ele>
        <time>2021-11-18T10:12:42Z</time>
      </trkpt>
      <trkpt lat="44.17378" lon="6.96406">
        <ele>2328.3048742823</ele>
        <time>2021-11-18T10:12:51Z</time>
      </trkpt>
      <trkpt lat="44.17379" lon="6.96405">
        <ele>2328.304856848</ele>
        <time>2021-11-18T10:12:53Z</time>
      </trkpt>
      <trkpt lat="44.17379" lon="6.96405">
        <ele>2329.3048362285</ele>
        <time>2021-11-18T10:12:57Z</time>
      </trkpt>
      <trkpt lat="44.1738" lon="6.96403">
        <ele>2329.3048130944</ele>
        <time>2021-11-18T10:12:58Z</time>
      </trkpt>
      <trkpt lat="44.1738" lon="6.96403">
        <ele>2328.3047891222</ele>
        <time>2021-11-18T10:13:02Z</time>
      </trkpt>
      <trkpt lat="44.1738" lon="6.96403">
        <ele>2329.304782249</ele>
        <time>2021-11-18T10:13:07Z</time>
      </trkpt>
      <trkpt lat="44.1738" lon="6.96401">
        <ele>2328.3048023656</ele>
        <time>2021-11-18T10:13:08Z</time>
      </trkpt>
      <trkpt lat="44.17379" lon="6.96401">
        <ele>2331.3048236556</ele>
        <time>2021-11-18T10:13:15Z</time>
      </trkpt>
      <trkpt lat="44.17379" lon="6.964">
        <ele>2332.3048441075</ele>
        <time>2021-11-18T10:13:16Z</time>
      </trkpt>
      <trkpt lat="44.17379" lon="6.96399">
        <ele>2332.304839246</ele>
        <time>2021-11-18T10:13:17Z</time>
      </trkpt>
      <trkpt lat="44.17379" lon="6.96398">
        <ele>2331.3048320375</ele>
        <time>2021-11-18T10:13:21Z</time>
      </trkpt>
      <trkpt lat="44.1738" lon="6.96397">
        <ele>2332.3048206381</ele>
        <time>2021-11-18T10:13:22Z</time>
      </trkpt>
      <trkpt lat="44.17379" lon="6.96396">
        <ele>2333.3048419282</ele>
        <time>2021-11-18T10:13:24Z</time>
      </trkpt>
      <trkpt lat="44.17379" lon="6.96395">
        <ele>2333.3048484661</ele>
        <time>2021-11-18T10:13:31Z</time>
      </trkpt>
      <trkpt lat="44.17378" lon="6.96394">
        <ele>2334.3048930578</ele>
        <time>2021-11-18T10:13:32Z</time>
      </trkpt>
      <trkpt lat="44.17377" lon="6.96394">
        <ele>2334.3049287647</ele>
        <time>2021-11-18T10:13:34Z</time>
      </trkpt>
      <trkpt lat="44.17376" lon="6.96393">
        <ele>2334.3049451932</ele>
        <time>2021-11-18T10:13:38Z</time>
      </trkpt>
      <trkpt lat="44.17375" lon="6.96391">
        <ele>2333.3049854264</ele>
        <time>2021-11-18T10:13:39Z</time>
      </trkpt>
      <trkpt lat="44.17375" lon="6.96391">
        <ele>2334.3049914613</ele>
        <time>2021-11-18T10:13:40Z</time>
      </trkpt>
      <trkpt lat="44.17375" lon="6.9639">
        <ele>2334.3049985021</ele>
        <time>2021-11-18T10:13:41Z</time>
      </trkpt>
      <trkpt lat="44.17375" lon="6.96389">
        <ele>2334.3050213009</ele>
        <time>2021-11-18T10:13:42Z</time>
      </trkpt>
      <trkpt lat="44.17374" lon="6.96389">
        <ele>2333.3050419204</ele>
        <time>2021-11-18T10:13:45Z</time>
      </trkpt>
      <trkpt lat="44.17373" lon="6.96388">
        <ele>2334.3050682396</ele>
        <time>2021-11-18T10:13:46Z</time>
      </trkpt>
      <trkpt lat="44.17373" lon="6.96387">
        <ele>2334.3050994202</ele>
        <time>2021-11-18T10:13:48Z</time>
      </trkpt>
      <trkpt lat="44.17372" lon="6.96387">
        <ele>2335.3051099814</ele>
        <time>2021-11-18T10:13:51Z</time>
      </trkpt>
      <trkpt lat="44.17371" lon="6.96386">
        <ele>2334.3051617816</ele>
        <time>2021-11-18T10:13:52Z</time>
      </trkpt>
      <trkpt lat="44.17371" lon="6.96385">
        <ele>2335.3051770367</ele>
        <time>2021-11-18T10:13:53Z</time>
      </trkpt>
      <trkpt lat="44.1737" lon="6.96384">
        <ele>2335.3051969856</ele>
        <time>2021-11-18T10:13:54Z</time>
      </trkpt>
      <trkpt lat="44.1737" lon="6.96384">
        <ele>2335.3052152582</ele>
        <time>2021-11-18T10:13:57Z</time>
      </trkpt>
      <trkpt lat="44.17368" lon="6.96382">
        <ele>2335.3052643761</ele>
        <time>2021-11-18T10:13:58Z</time>
      </trkpt>
      <trkpt lat="44.17368" lon="6.96382">
        <ele>2336.3052658848</ele>
        <time>2021-11-18T10:13:59Z</time>
      </trkpt>
      <trkpt lat="44.17368" lon="6.96381">
        <ele>2336.3052734286</ele>
        <time>2021-11-18T10:14:00Z</time>
      </trkpt>
      <trkpt lat="44.17368" lon="6.96381">
        <ele>2336.3052870072</ele>
        <time>2021-11-18T10:14:01Z</time>
      </trkpt>
      <trkpt lat="44.17368" lon="6.9638">
        <ele>2335.3053007536</ele>
        <time>2021-11-18T10:14:02Z</time>
      </trkpt>
      <trkpt lat="44.17367" lon="6.9638">
        <ele>2335.3053183556</ele>
        <time>2021-11-18T10:14:03Z</time>
      </trkpt>
      <trkpt lat="44.17366" lon="6.9638">
        <ele>2335.3053446747</ele>
        <time>2021-11-18T10:14:04Z</time>
      </trkpt>
      <trkpt lat="44.17366" lon="6.96379">
        <ele>2335.3053714968</ele>
        <time>2021-11-18T10:14:08Z</time>
      </trkpt>
      <trkpt lat="44.17365" lon="6.96378">
        <ele>2334.3054134063</ele>
        <time>2021-11-18T10:14:09Z</time>
      </trkpt>
      <trkpt lat="44.17364" lon="6.96378">
        <ele>2334.3054429106</ele>
        <time>2021-11-18T10:14:10Z</time>
      </trkpt>
      <trkpt lat="44.17364" lon="6.96378">
        <ele>2334.3054590039</ele>
        <time>2021-11-18T10:14:11Z</time>
      </trkpt>
      <trkpt lat="44.17363" lon="6.96377">
        <ele>2335.3054802939</ele>
        <time>2021-11-18T10:14:16Z</time>
      </trkpt>
      <trkpt lat="44.17362" lon="6.96376">
        <ele>2335.3055322617</ele>
        <time>2021-11-18T10:14:17Z</time>
      </trkpt>
      <trkpt lat="44.17361" lon="6.96376">
        <ele>2336.3055508696</ele>
        <time>2021-11-18T10:14:19Z</time>
      </trkpt>
      <trkpt lat="44.17361" lon="6.96375">
        <ele>2336.3055667952</ele>
        <time>2021-11-18T10:14:23Z</time>
      </trkpt>
      <trkpt lat="44.1736" lon="6.96375">
        <ele>2336.3056095429</ele>
        <time>2021-11-18T10:14:24Z</time>
      </trkpt>
      <trkpt lat="44.17359" lon="6.96374">
        <ele>2336.3056333475</ele>
        <time>2021-11-18T10:14:26Z</time>
      </trkpt>
      <trkpt lat="44.17359" lon="6.96373">
        <ele>2336.3056551404</ele>
        <time>2021-11-18T10:14:30Z</time>
      </trkpt>
      <trkpt lat="44.17357" lon="6.96373">
        <ele>2336.3057143167</ele>
        <time>2021-11-18T10:14:31Z</time>
      </trkpt>
      <trkpt lat="44.17356" lon="6.96372">
        <ele>2336.305743821</ele>
        <time>2021-11-18T10:14:33Z</time>
      </trkpt>
      <trkpt lat="44.17356" lon="6.96371">
        <ele>2336.3057647757</ele>
        <time>2021-11-18T10:14:36Z</time>
      </trkpt>
      <trkpt lat="44.17355" lon="6.96371">
        <ele>2337.3057956211</ele>
        <time>2021-11-18T10:14:42Z</time>
      </trkpt>
      <trkpt lat="44.17354" lon="6.96371">
        <ele>2336.3058221079</ele>
        <time>2021-11-18T10:14:44Z</time>
      </trkpt>
      <trkpt lat="44.17354" lon="6.96371">
        <ele>2337.3058556356</ele>
        <time>2021-11-18T10:14:52Z</time>
      </trkpt>
      <trkpt lat="44.17354" lon="6.96369">
        <ele>2336.3058402129</ele>
        <time>2021-11-18T10:14:53Z</time>
      </trkpt>
      <trkpt lat="44.17354" lon="6.96368">
        <ele>2337.3058296517</ele>
        <time>2021-11-18T10:15:10Z</time>
      </trkpt>
      <trkpt lat="44.17355" lon="6.96367">
        <ele>2337.3058185875</ele>
        <time>2021-11-18T10:15:12Z</time>
      </trkpt>
      <trkpt lat="44.17355" lon="6.96366">
        <ele>2337.3058068529</ele>
        <time>2021-11-18T10:15:13Z</time>
      </trkpt>
      <trkpt lat="44.17355" lon="6.96365">
        <ele>2337.3058008179</ele>
        <time>2021-11-18T10:15:19Z</time>
      </trkpt>
      <trkpt lat="44.17354" lon="6.96364">
        <ele>2338.3058382012</ele>
        <time>2021-11-18T10:15:20Z</time>
      </trkpt>
      <trkpt lat="44.17354" lon="6.96364">
        <ele>2339.3058554679</ele>
        <time>2021-11-18T10:15:27Z</time>
      </trkpt>
      <trkpt lat="44.17354" lon="6.96362">
        <ele>2338.3058482595</ele>
        <time>2021-11-18T10:15:29Z</time>
      </trkpt>
      <trkpt lat="44.17354" lon="6.96362">
        <ele>2340.3058328368</ele>
        <time>2021-11-18T10:15:35Z</time>
      </trkpt>
      <trkpt lat="44.17354" lon="6.96361">
        <ele>2340.3058385365</ele>
        <time>2021-11-18T10:15:36Z</time>
      </trkpt>
      <trkpt lat="44.17354" lon="6.9636">
        <ele>2340.3058227785</ele>
        <time>2021-11-18T10:15:39Z</time>
      </trkpt>
      <trkpt lat="44.17355" lon="6.9636">
        <ele>2339.3057991415</ele>
        <time>2021-11-18T10:15:41Z</time>
      </trkpt>
      <trkpt lat="44.17355" lon="6.96359">
        <ele>2340.3057910949</ele>
        <time>2021-11-18T10:15:43Z</time>
      </trkpt>
      <trkpt lat="44.17356" lon="6.96358">
        <ele>2339.3057800308</ele>
        <time>2021-11-18T10:15:48Z</time>
      </trkpt>
      <trkpt lat="44.17357" lon="6.96359">
        <ele>2340.3057418093</ele>
        <time>2021-11-18T10:15:50Z</time>
      </trkpt>
      <trkpt lat="44.17357" lon="6.96358">
        <ele>2339.3057419769</ele>
        <time>2021-11-18T10:15:51Z</time>
      </trkpt>
      <trkpt lat="44.17356" lon="6.96357">
        <ele>2339.3057495207</ele>
        <time>2021-11-18T10:15:52Z</time>
      </trkpt>
      <trkpt lat="44.17356" lon="6.96357">
        <ele>2340.3057716489</ele>
        <time>2021-11-18T10:15:56Z</time>
      </trkpt>
      <trkpt lat="44.17356" lon="6.96356">
        <ele>2341.3057573996</ele>
        <time>2021-11-18T10:16:01Z</time>
      </trkpt>
      <trkpt lat="44.17357" lon="6.96356">
        <ele>2342.3057149872</ele>
        <time>2021-11-18T10:16:02Z</time>
      </trkpt>
      <trkpt lat="44.17357" lon="6.96355">
        <ele>2342.305715993</ele>
        <time>2021-11-18T10:16:03Z</time>
      </trkpt>
      <trkpt lat="44.17358" lon="6.96355">
        <ele>2342.3056846447</ele>
        <time>2021-11-18T10:16:05Z</time>
      </trkpt>
      <trkpt lat="44.17358" lon="6.96354">
        <ele>2341.3056638576</ele>
        <time>2021-11-18T10:16:07Z</time>
      </trkpt>
      <trkpt lat="44.17359" lon="6.96354">
        <ele>2342.3056410588</ele>
        <time>2021-11-18T10:16:11Z</time>
      </trkpt>
      <trkpt lat="44.17359" lon="6.96352">
        <ele>2342.3056470938</ele>
        <time>2021-11-18T10:16:13Z</time>
      </trkpt>
      <trkpt lat="44.17359" lon="6.96352">
        <ele>2342.3056259714</ele>
        <time>2021-11-18T10:16:16Z</time>
      </trkpt>
      <trkpt lat="44.17359" lon="6.96351">
        <ele>2343.3056351915</ele>
        <time>2021-11-18T10:16:22Z</time>
      </trkpt>
      <trkpt lat="44.17359" lon="6.9635">
        <ele>2342.3056299947</ele>
        <time>2021-11-18T10:16:28Z</time>
      </trkpt>
      <trkpt lat="44.1736" lon="6.96348">
        <ele>2344.3056041785</ele>
        <time>2021-11-18T10:16:29Z</time>
      </trkpt>
      <trkpt lat="44.1736" lon="6.96347">
        <ele>2344.3055916056</ele>
        <time>2021-11-18T10:16:31Z</time>
      </trkpt>
      <trkpt lat="44.1736" lon="6.96346">
        <ele>2344.305595126</ele>
        <time>2021-11-18T10:16:34Z</time>
      </trkpt>
      <trkpt lat="44.17361" lon="6.96346">
        <ele>2345.305564113</ele>
        <time>2021-11-18T10:16:35Z</time>
      </trkpt>
      <trkpt lat="44.17362" lon="6.96346">
        <ele>2345.3055300824</ele>
        <time>2021-11-18T10:16:42Z</time>
      </trkpt>
      <trkpt lat="44.17362" lon="6.96345">
        <ele>2345.3055096306</ele>
        <time>2021-11-18T10:16:46Z</time>
      </trkpt>
      <trkpt lat="44.17363" lon="6.96345">
        <ele>2347.3054804616</ele>
        <time>2021-11-18T10:16:53Z</time>
      </trkpt>
      <trkpt lat="44.17363" lon="6.96345">
        <ele>2348.3054749295</ele>
        <time>2021-11-18T10:16:54Z</time>
      </trkpt>
      <trkpt lat="44.17363" lon="6.96343">
        <ele>2346.3054772764</ele>
        <time>2021-11-18T10:16:58Z</time>
      </trkpt>
      <trkpt lat="44.17362" lon="6.96344">
        <ele>2347.3055027574</ele>
        <time>2021-11-18T10:17:01Z</time>
      </trkpt>
      <trkpt lat="44.17362" lon="6.96344">
        <ele>2347.3055263944</ele>
        <time>2021-11-18T10:17:02Z</time>
      </trkpt>
      <trkpt lat="44.17362" lon="6.96344">
        <ele>2348.3055277355</ele>
        <time>2021-11-18T10:17:04Z</time>
      </trkpt>
      <trkpt lat="44.17361" lon="6.96343">
        <ele>2349.3055433258</ele>
        <time>2021-11-18T10:17:06Z</time>
      </trkpt>
      <trkpt lat="44.17361" lon="6.96343">
        <ele>2350.3055496961</ele>
        <time>2021-11-18T10:17:09Z</time>
      </trkpt>
      <trkpt lat="44.17361" lon="6.96341">
        <ele>2351.3055652864</ele>
        <time>2021-11-18T10:17:11Z</time>
      </trkpt>
      <trkpt lat="44.17361" lon="6.96341">
        <ele>2352.305573836</ele>
        <time>2021-11-18T10:17:12Z</time>
      </trkpt>
      <trkpt lat="44.1736" lon="6.9634">
        <ele>2352.3055954613</ele>
        <time>2021-11-18T10:17:13Z</time>
      </trkpt>
      <trkpt lat="44.1736" lon="6.96339">
        <ele>2353.3055936173</ele>
        <time>2021-11-18T10:17:22Z</time>
      </trkpt>
      <trkpt lat="44.1736" lon="6.96338">
        <ele>2354.3055922762</ele>
        <time>2021-11-18T10:17:28Z</time>
      </trkpt>
      <trkpt lat="44.1736" lon="6.96337">
        <ele>2356.3055956289</ele>
        <time>2021-11-18T10:17:33Z</time>
      </trkpt>
      <trkpt lat="44.17361" lon="6.96337">
        <ele>2356.3055672981</ele>
        <time>2021-11-18T10:17:34Z</time>
      </trkpt>
      <trkpt lat="44.17361" lon="6.96336">
        <ele>2357.3055426553</ele>
        <time>2021-11-18T10:17:36Z</time>
      </trkpt>
      <trkpt lat="44.17361" lon="6.96335">
        <ele>2357.3055456728</ele>
        <time>2021-11-18T10:17:37Z</time>
      </trkpt>
      <trkpt lat="44.17362" lon="6.96335">
        <ele>2357.305540476</ele>
        <time>2021-11-18T10:17:40Z</time>
      </trkpt>
      <trkpt lat="44.17362" lon="6.96333">
        <ele>2356.3055356145</ele>
        <time>2021-11-18T10:17:41Z</time>
      </trkpt>
      <trkpt lat="44.17361" lon="6.96333">
        <ele>2356.3055470139</ele>
        <time>2021-11-18T10:17:49Z</time>
      </trkpt>
      <trkpt lat="44.17361" lon="6.96332">
        <ele>2356.3055729978</ele>
        <time>2021-11-18T10:17:51Z</time>
      </trkpt>
      <trkpt lat="44.1736" lon="6.96332">
        <ele>2356.3055860735</ele>
        <time>2021-11-18T10:17:52Z</time>
      </trkpt>
      <trkpt lat="44.1736" lon="6.96331">
        <ele>2356.3055842295</ele>
        <time>2021-11-18T10:17:53Z</time>
      </trkpt>
      <trkpt lat="44.17361" lon="6.9633">
        <ele>2357.3055792004</ele>
        <time>2021-11-18T10:17:54Z</time>
      </trkpt>
      <trkpt lat="44.17361" lon="6.9633">
        <ele>2356.3055735007</ele>
        <time>2021-11-18T10:17:57Z</time>
      </trkpt>
      <trkpt lat="44.17361" lon="6.96328">
        <ele>2355.3055815473</ele>
        <time>2021-11-18T10:17:58Z</time>
      </trkpt>
      <trkpt lat="44.1736" lon="6.96327">
        <ele>2357.3056162484</ele>
        <time>2021-11-18T10:18:01Z</time>
      </trkpt>
      <trkpt lat="44.17359" lon="6.96327">
        <ele>2356.305634018</ele>
        <time>2021-11-18T10:18:06Z</time>
      </trkpt>
      <trkpt lat="44.17359" lon="6.96326">
        <ele>2355.3056566492</ele>
        <time>2021-11-18T10:18:07Z</time>
      </trkpt>
      <trkpt lat="44.17359" lon="6.96325">
        <ele>2356.3056529611</ele>
        <time>2021-11-18T10:18:23Z</time>
      </trkpt>
      <trkpt lat="44.17359" lon="6.96326">
        <ele>2356.3056589961</ele>
        <time>2021-11-18T10:21:40Z</time>
      </trkpt>
      <trkpt lat="44.17358" lon="6.96326">
        <ele>2356.3056978881</ele>
        <time>2021-11-18T10:21:41Z</time>
      </trkpt>
      <trkpt lat="44.17357" lon="6.96327">
        <ele>2356.3057228662</ele>
        <time>2021-11-18T10:21:49Z</time>
      </trkpt>
      <trkpt lat="44.17357" lon="6.96326">
        <ele>2355.3057404682</ele>
        <time>2021-11-18T10:22:30Z</time>
      </trkpt>
      <trkpt lat="44.17357" lon="6.96328">
        <ele>2353.3057149872</ele>
        <time>2021-11-18T10:22:32Z</time>
      </trkpt>
      <trkpt lat="44.17357" lon="6.96328">
        <ele>2354.3057275601</ele>
        <time>2021-11-18T10:22:37Z</time>
      </trkpt>
      <trkpt lat="44.17356" lon="6.9633">
        <ele>2354.3057434857</ele>
        <time>2021-11-18T10:22:38Z</time>
      </trkpt>
      <trkpt lat="44.17356" lon="6.9633">
        <ele>2354.3057646081</ele>
        <time>2021-11-18T10:22:39Z</time>
      </trkpt>
      <trkpt lat="44.17355" lon="6.9633">
        <ele>2354.3057974651</ele>
        <time>2021-11-18T10:22:42Z</time>
      </trkpt>
      <trkpt lat="44.17355" lon="6.9633">
        <ele>2354.3058105409</ele>
        <time>2021-11-18T10:22:43Z</time>
      </trkpt>
      <trkpt lat="44.17354" lon="6.96329">
        <ele>2355.3058328368</ele>
        <time>2021-11-18T10:22:45Z</time>
      </trkpt>
      <trkpt lat="44.17354" lon="6.96327">
        <ele>2355.3058604971</ele>
        <time>2021-11-18T10:22:47Z</time>
      </trkpt>
      <trkpt lat="44.17354" lon="6.96327">
        <ele>2356.3058387041</ele>
        <time>2021-11-18T10:23:12Z</time>
      </trkpt>
      <trkpt lat="44.17355" lon="6.96327">
        <ele>2355.3057998121</ele>
        <time>2021-11-18T10:23:13Z</time>
      </trkpt>
      <trkpt lat="44.17354" lon="6.96326">
        <ele>2355.3058343455</ele>
        <time>2021-11-18T10:23:15Z</time>
      </trkpt>
      <trkpt lat="44.17354" lon="6.96327">
        <ele>2355.305853121</ele>
        <time>2021-11-18T10:23:17Z</time>
      </trkpt>
      <trkpt lat="44.17353" lon="6.96326">
        <ele>2355.3058732376</ele>
        <time>2021-11-18T10:23:18Z</time>
      </trkpt>
      <trkpt lat="44.17352" lon="6.96326">
        <ele>2355.3059221879</ele>
        <time>2021-11-18T10:23:20Z</time>
      </trkpt>
      <trkpt lat="44.17351" lon="6.96326">
        <ele>2354.3059505187</ele>
        <time>2021-11-18T10:23:21Z</time>
      </trkpt>
      <trkpt lat="44.17351" lon="6.96325">
        <ele>2354.3059795201</ele>
        <time>2021-11-18T10:23:22Z</time>
      </trkpt>
      <trkpt lat="44.1735" lon="6.96326">
        <ele>2353.3060038276</ele>
        <time>2021-11-18T10:23:24Z</time>
      </trkpt>
      <trkpt lat="44.17349" lon="6.96325">
        <ele>2353.3060517721</ele>
        <time>2021-11-18T10:23:26Z</time>
      </trkpt>
      <trkpt lat="44.17348" lon="6.96325">
        <ele>2353.3060727268</ele>
        <time>2021-11-18T10:23:27Z</time>
      </trkpt>
      <trkpt lat="44.17347" lon="6.96325">
        <ele>2353.3061029017</ele>
        <time>2021-11-18T10:23:28Z</time>
      </trkpt>
      <trkpt lat="44.17347" lon="6.96325">
        <ele>2353.3061122894</ele>
        <time>2021-11-18T10:23:30Z</time>
      </trkpt>
      <trkpt lat="44.17347" lon="6.96325">
        <ele>2353.3061406203</ele>
        <time>2021-11-18T10:23:31Z</time>
      </trkpt>
      <trkpt lat="44.17346" lon="6.96325">
        <ele>2354.3061607368</ele>
        <time>2021-11-18T10:23:32Z</time>
      </trkpt>
      <trkpt lat="44.17345" lon="6.96324">
        <ele>2354.3061843738</ele>
        <time>2021-11-18T10:23:33Z</time>
      </trkpt>
      <trkpt lat="44.17345" lon="6.96323">
        <ele>2354.3062123694</ele>
        <time>2021-11-18T10:23:34Z</time>
      </trkpt>
      <trkpt lat="44.17344" lon="6.96323">
        <ele>2353.3062469028</ele>
        <time>2021-11-18T10:23:36Z</time>
      </trkpt>
      <trkpt lat="44.17343" lon="6.96323">
        <ele>2354.3062839508</ele>
        <time>2021-11-18T10:23:37Z</time>
      </trkpt>
      <trkpt lat="44.17342" lon="6.96322">
        <ele>2353.3063077554</ele>
        <time>2021-11-18T10:23:38Z</time>
      </trkpt>
      <trkpt lat="44.17342" lon="6.96322">
        <ele>2353.3063268661</ele>
        <time>2021-11-18T10:23:39Z</time>
      </trkpt>
      <trkpt lat="44.1734" lon="6.9632">
        <ele>2353.3064011298</ele>
        <time>2021-11-18T10:23:41Z</time>
      </trkpt>
      <trkpt lat="44.17339" lon="6.9632">
        <ele>2353.3064423688</ele>
        <time>2021-11-18T10:23:42Z</time>
      </trkpt>
      <trkpt lat="44.17338" lon="6.96319">
        <ele>2353.3064755611</ele>
        <time>2021-11-18T10:23:43Z</time>
      </trkpt>
      <trkpt lat="44.17338" lon="6.96318">
        <ele>2352.3064976893</ele>
        <time>2021-11-18T10:23:45Z</time>
      </trkpt>
      <trkpt lat="44.17337" lon="6.96318">
        <ele>2352.3065318875</ele>
        <time>2021-11-18T10:23:46Z</time>
      </trkpt>
      <trkpt lat="44.17336" lon="6.96318">
        <ele>2351.3065796643</ele>
        <time>2021-11-18T10:23:47Z</time>
      </trkpt>
      <trkpt lat="44.17335" lon="6.96318">
        <ele>2351.3066076599</ele>
        <time>2021-11-18T10:23:48Z</time>
      </trkpt>
      <trkpt lat="44.17334" lon="6.96317">
        <ele>2351.3066259325</ele>
        <time>2021-11-18T10:23:49Z</time>
      </trkpt>
      <trkpt lat="44.17333" lon="6.96316">
        <ele>2351.3066981845</ele>
        <time>2021-11-18T10:23:51Z</time>
      </trkpt>
      <trkpt lat="44.17331" lon="6.96316">
        <ele>2351.3067447878</ele>
        <time>2021-11-18T10:23:52Z</time>
      </trkpt>
      <trkpt lat="44.17331" lon="6.96315">
        <ele>2351.3067786507</ele>
        <time>2021-11-18T10:23:53Z</time>
      </trkpt>
      <trkpt lat="44.1733" lon="6.96316">
        <ele>2352.3068121783</ele>
        <time>2021-11-18T10:23:54Z</time>
      </trkpt>
      <trkpt lat="44.17329" lon="6.96316">
        <ele>2352.3068376593</ele>
        <time>2021-11-18T10:23:55Z</time>
      </trkpt>
      <trkpt lat="44.17328" lon="6.96316">
        <ele>2353.3068936504</ele>
        <time>2021-11-18T10:23:57Z</time>
      </trkpt>
      <trkpt lat="44.17327" lon="6.96315">
        <ele>2353.3069244958</ele>
        <time>2021-11-18T10:24:00Z</time>
      </trkpt>
      <trkpt lat="44.17326" lon="6.96315">
        <ele>2353.3069585264</ele>
        <time>2021-11-18T10:24:01Z</time>
      </trkpt>
      <trkpt lat="44.17325" lon="6.96315">
        <ele>2353.3069846779</ele>
        <time>2021-11-18T10:24:02Z</time>
      </trkpt>
      <trkpt lat="44.17325" lon="6.96314">
        <ele>2354.3070047945</ele>
        <time>2021-11-18T10:24:03Z</time>
      </trkpt>
      <trkpt lat="44.17324" lon="6.96315">
        <ele>2354.3070312813</ele>
        <time>2021-11-18T10:24:06Z</time>
      </trkpt>
      <trkpt lat="44.17323" lon="6.96315">
        <ele>2354.3071016893</ele>
        <time>2021-11-18T10:24:07Z</time>
      </trkpt>
      <trkpt lat="44.17322" lon="6.96315">
        <ele>2354.307132367</ele>
        <time>2021-11-18T10:24:08Z</time>
      </trkpt>
      <trkpt lat="44.17321" lon="6.96315">
        <ele>2354.3071625419</ele>
        <time>2021-11-18T10:24:09Z</time>
      </trkpt>
      <trkpt lat="44.1732" lon="6.96315">
        <ele>2354.307195399</ele>
        <time>2021-11-18T10:24:10Z</time>
      </trkpt>
      <trkpt lat="44.17319" lon="6.96316">
        <ele>2355.3072228916</ele>
        <time>2021-11-18T10:24:11Z</time>
      </trkpt>
      <trkpt lat="44.17319" lon="6.96316">
        <ele>2355.3072503842</ele>
        <time>2021-11-18T10:24:12Z</time>
      </trkpt>
      <trkpt lat="44.17318" lon="6.96316">
        <ele>2355.3072780445</ele>
        <time>2021-11-18T10:24:13Z</time>
      </trkpt>
      <trkpt lat="44.17317" lon="6.96316">
        <ele>2355.3073182777</ele>
        <time>2021-11-18T10:24:14Z</time>
      </trkpt>
      <trkpt lat="44.17316" lon="6.96316">
        <ele>2355.3073494583</ele>
        <time>2021-11-18T10:24:15Z</time>
      </trkpt>
      <trkpt lat="44.17316" lon="6.96316">
        <ele>2355.3073732629</ele>
        <time>2021-11-18T10:24:16Z</time>
      </trkpt>
      <trkpt lat="44.17315" lon="6.96316">
        <ele>2355.3074039407</ele>
        <time>2021-11-18T10:24:17Z</time>
      </trkpt>
      <trkpt lat="44.17314" lon="6.96315">
        <ele>2355.3074361272</ele>
        <time>2021-11-18T10:24:18Z</time>
      </trkpt>
      <trkpt lat="44.17314" lon="6.96315">
        <ele>2356.3074590936</ele>
        <time>2021-11-18T10:24:19Z</time>
      </trkpt>
      <trkpt lat="44.17313" lon="6.96315">
        <ele>2356.3074766956</ele>
        <time>2021-11-18T10:24:20Z</time>
      </trkpt>
      <trkpt lat="44.17312" lon="6.96315">
        <ele>2356.3075083792</ele>
        <time>2021-11-18T10:24:21Z</time>
      </trkpt>
      <trkpt lat="44.17312" lon="6.96315">
        <ele>2356.3075170964</ele>
        <time>2021-11-18T10:24:22Z</time>
      </trkpt>
      <trkpt lat="44.17311" lon="6.96315">
        <ele>2356.3075440861</ele>
        <time>2021-11-18T10:24:23Z</time>
      </trkpt>
      <trkpt lat="44.17311" lon="6.96315">
        <ele>2357.3075796254</ele>
        <time>2021-11-18T10:24:24Z</time>
      </trkpt>
      <trkpt lat="44.17311" lon="6.96315">
        <ele>2357.3075796254</ele>
        <time>2021-11-18T10:24:26Z</time>
      </trkpt>
      <trkpt lat="44.17309" lon="6.96315">
        <ele>2357.3076433279</ele>
        <time>2021-11-18T10:24:27Z</time>
      </trkpt>
      <trkpt lat="44.17308" lon="6.96316">
        <ele>2357.3076880872</ele>
        <time>2021-11-18T10:24:29Z</time>
      </trkpt>
      <trkpt lat="44.17307" lon="6.96316">
        <ele>2357.307720609</ele>
        <time>2021-11-18T10:24:31Z</time>
      </trkpt>
      <trkpt lat="44.17307" lon="6.96316">
        <ele>2358.3077328466</ele>
        <time>2021-11-18T10:24:32Z</time>
      </trkpt>
      <trkpt lat="44.17306" lon="6.96316">
        <ele>2358.3077583276</ele>
        <time>2021-11-18T10:24:33Z</time>
      </trkpt>
      <trkpt lat="44.17305" lon="6.96316">
        <ele>2358.3077923581</ele>
        <time>2021-11-18T10:24:35Z</time>
      </trkpt>
      <trkpt lat="44.17305" lon="6.96315">
        <ele>2359.307820186</ele>
        <time>2021-11-18T10:24:36Z</time>
      </trkpt>
      <trkpt lat="44.17304" lon="6.96315">
        <ele>2358.3078408055</ele>
        <time>2021-11-18T10:24:37Z</time>
      </trkpt>
      <trkpt lat="44.17303" lon="6.96316">
        <ele>2359.3078629337</ele>
        <time>2021-11-18T10:24:38Z</time>
      </trkpt>
      <trkpt lat="44.17303" lon="6.96317">
        <ele>2359.3078843914</ele>
        <time>2021-11-18T10:24:40Z</time>
      </trkpt>
      <trkpt lat="44.17302" lon="6.96318">
        <ele>2360.307927642</ele>
        <time>2021-11-18T10:24:42Z</time>
      </trkpt>
      <trkpt lat="44.17301" lon="6.96318">
        <ele>2360.3079554699</ele>
        <time>2021-11-18T10:24:43Z</time>
      </trkpt>
      <trkpt lat="44.17301" lon="6.96317">
        <ele>2361.3079760894</ele>
        <time>2021-11-18T10:24:44Z</time>
      </trkpt>
      <trkpt lat="44.173" lon="6.96317">
        <ele>2361.308001738</ele>
        <time>2021-11-18T10:24:45Z</time>
      </trkpt>
      <trkpt lat="44.17299" lon="6.96318">
        <ele>2361.3080515265</ele>
        <time>2021-11-18T10:24:47Z</time>
      </trkpt>
      <trkpt lat="44.17298" lon="6.96319">
        <ele>2360.3080951124</ele>
        <time>2021-11-18T10:24:48Z</time>
      </trkpt>
      <trkpt lat="44.17297" lon="6.96319">
        <ele>2360.308129143</ele>
        <time>2021-11-18T10:24:50Z</time>
      </trkpt>
      <trkpt lat="44.17297" lon="6.96319">
        <ele>2361.3081408776</ele>
        <time>2021-11-18T10:24:51Z</time>
      </trkpt>
      <trkpt lat="44.17296" lon="6.9632">
        <ele>2361.3081705496</ele>
        <time>2021-11-18T10:24:52Z</time>
      </trkpt>
      <trkpt lat="44.17295" lon="6.9632">
        <ele>2361.3081920072</ele>
        <time>2021-11-18T10:24:53Z</time>
      </trkpt>
      <trkpt lat="44.17295" lon="6.9632">
        <ele>2361.3082154766</ele>
        <time>2021-11-18T10:24:54Z</time>
      </trkpt>
      <trkpt lat="44.17294" lon="6.9632">
        <ele>2361.3082469925</ele>
        <time>2021-11-18T10:24:56Z</time>
      </trkpt>
      <trkpt lat="44.17293" lon="6.9632">
        <ele>2360.3082701266</ele>
        <time>2021-11-18T10:24:57Z</time>
      </trkpt>
      <trkpt lat="44.17293" lon="6.9632">
        <ele>2360.3082914166</ele>
        <time>2021-11-18T10:24:58Z</time>
      </trkpt>
      <trkpt lat="44.17292" lon="6.9632">
        <ele>2360.3083170652</ele>
        <time>2021-11-18T10:25:00Z</time>
      </trkpt>
      <trkpt lat="44.1729" lon="6.9632">
        <ele>2360.3083903231</ele>
        <time>2021-11-18T10:25:02Z</time>
      </trkpt>
      <trkpt lat="44.1729" lon="6.9632">
        <ele>2360.3084164746</ele>
        <time>2021-11-18T10:25:03Z</time>
      </trkpt>
      <trkpt lat="44.17289" lon="6.9632">
        <ele>2361.3084404469</ele>
        <time>2021-11-18T10:25:04Z</time>
      </trkpt>
      <trkpt lat="44.17288" lon="6.9632">
        <ele>2361.3084677719</ele>
        <time>2021-11-18T10:25:05Z</time>
      </trkpt>
      <trkpt lat="44.17288" lon="6.9632">
        <ele>2361.3084949292</ele>
        <time>2021-11-18T10:25:06Z</time>
      </trkpt>
      <trkpt lat="44.17287" lon="6.9632">
        <ele>2361.3085187338</ele>
        <time>2021-11-18T10:25:07Z</time>
      </trkpt>
      <trkpt lat="44.17286" lon="6.9632">
        <ele>2361.3085442148</ele>
        <time>2021-11-18T10:25:08Z</time>
      </trkpt>
      <trkpt lat="44.17286" lon="6.9632">
        <ele>2362.3085790835</ele>
        <time>2021-11-18T10:25:09Z</time>
      </trkpt>
      <trkpt lat="44.17284" lon="6.9632">
        <ele>2362.3086221665</ele>
        <time>2021-11-18T10:25:10Z</time>
      </trkpt>
      <trkpt lat="44.17284" lon="6.96319">
        <ele>2362.3086568676</ele>
        <time>2021-11-18T10:25:11Z</time>
      </trkpt>
      <trkpt lat="44.17283" lon="6.96319">
        <ele>2363.3086878806</ele>
        <time>2021-11-18T10:25:12Z</time>
      </trkpt>
      <trkpt lat="44.17282" lon="6.96319">
        <ele>2363.3087115176</ele>
        <time>2021-11-18T10:25:13Z</time>
      </trkpt>
      <trkpt lat="44.17282" lon="6.96319">
        <ele>2364.3087237552</ele>
        <time>2021-11-18T10:25:16Z</time>
      </trkpt>
      <trkpt lat="44.1728" lon="6.96319">
        <ele>2364.3087896369</ele>
        <time>2021-11-18T10:25:17Z</time>
      </trkpt>
      <trkpt lat="44.1728" lon="6.96319">
        <ele>2364.3088193089</ele>
        <time>2021-11-18T10:25:18Z</time>
      </trkpt>
      <trkpt lat="44.17278" lon="6.96319">
        <ele>2364.3088798262</ele>
        <time>2021-11-18T10:25:20Z</time>
      </trkpt>
      <trkpt lat="44.17277" lon="6.96319">
        <ele>2365.3089031279</ele>
        <time>2021-11-18T10:25:21Z</time>
      </trkpt>
      <trkpt lat="44.17277" lon="6.96319">
        <ele>2365.308925759</ele>
        <time>2021-11-18T10:25:22Z</time>
      </trkpt>
      <trkpt lat="44.17276" lon="6.96319">
        <ele>2365.3089505695</ele>
        <time>2021-11-18T10:25:23Z</time>
      </trkpt>
      <trkpt lat="44.17276" lon="6.96319">
        <ele>2365.3089738712</ele>
        <time>2021-11-18T10:25:24Z</time>
      </trkpt>
      <trkpt lat="44.17275" lon="6.9632">
        <ele>2365.3090169542</ele>
        <time>2021-11-18T10:25:26Z</time>
      </trkpt>
      <trkpt lat="44.17274" lon="6.9632">
        <ele>2366.3090447821</ele>
        <time>2021-11-18T10:25:28Z</time>
      </trkpt>
      <trkpt lat="44.17273" lon="6.96319">
        <ele>2367.3090731129</ele>
        <time>2021-11-18T10:25:30Z</time>
      </trkpt>
      <trkpt lat="44.17273" lon="6.96319">
        <ele>2367.3090944029</ele>
        <time>2021-11-18T10:25:31Z</time>
      </trkpt>
      <trkpt lat="44.17272" lon="6.9632">
        <ele>2367.3091220632</ele>
        <time>2021-11-18T10:25:32Z</time>
      </trkpt>
      <trkpt lat="44.17271" lon="6.9632">
        <ele>2368.3091423474</ele>
        <time>2021-11-18T10:25:33Z</time>
      </trkpt>
      <trkpt lat="44.17271" lon="6.9632">
        <ele>2368.3091592789</ele>
        <time>2021-11-18T10:25:34Z</time>
      </trkpt>
      <trkpt lat="44.1727" lon="6.9632">
        <ele>2368.3091845922</ele>
        <time>2021-11-18T10:25:36Z</time>
      </trkpt>
      <trkpt lat="44.1727" lon="6.96319">
        <ele>2368.3091964945</ele>
        <time>2021-11-18T10:25:37Z</time>
      </trkpt>
      <trkpt lat="44.1727" lon="6.96319">
        <ele>2368.3092147671</ele>
        <time>2021-11-18T10:25:38Z</time>
      </trkpt>
      <trkpt lat="44.17269" lon="6.96318">
        <ele>2368.3092409186</ele>
        <time>2021-11-18T10:25:40Z</time>
      </trkpt>
      <trkpt lat="44.17268" lon="6.96318">
        <ele>2368.3092955686</ele>
        <time>2021-11-18T10:25:42Z</time>
      </trkpt>
      <trkpt lat="44.17267" lon="6.96319">
        <ele>2368.3093215525</ele>
        <time>2021-11-18T10:25:43Z</time>
      </trkpt>
      <trkpt lat="44.17266" lon="6.96319">
        <ele>2368.3093425073</ele>
        <time>2021-11-18T10:25:44Z</time>
      </trkpt>
      <trkpt lat="44.17266" lon="6.96318">
        <ele>2368.3093612827</ele>
        <time>2021-11-18T10:25:45Z</time>
      </trkpt>
      <trkpt lat="44.17265" lon="6.96319">
        <ele>2368.3094130829</ele>
        <time>2021-11-18T10:25:47Z</time>
      </trkpt>
      <trkpt lat="44.17264" lon="6.9632">
        <ele>2369.3094486222</ele>
        <time>2021-11-18T10:25:48Z</time>
      </trkpt>
      <trkpt lat="44.17263" lon="6.96319">
        <ele>2369.3094876818</ele>
        <time>2021-11-18T10:25:49Z</time>
      </trkpt>
      <trkpt lat="44.17262" lon="6.96319">
        <ele>2369.309526071</ele>
        <time>2021-11-18T10:25:51Z</time>
      </trkpt>
      <trkpt lat="44.17261" lon="6.96318">
        <ele>2370.3095659688</ele>
        <time>2021-11-18T10:25:52Z</time>
      </trkpt>
      <trkpt lat="44.1726" lon="6.96317">
        <ele>2370.3095929585</ele>
        <time>2021-11-18T10:25:53Z</time>
      </trkpt>
      <trkpt lat="44.1726" lon="6.96317">
        <ele>2370.3096139133</ele>
        <time>2021-11-18T10:25:54Z</time>
      </trkpt>
      <trkpt lat="44.17259" lon="6.96317">
        <ele>2370.30964325</ele>
        <time>2021-11-18T10:25:55Z</time>
      </trkpt>
      <trkpt lat="44.17257" lon="6.96316">
        <ele>2370.3097161725</ele>
        <time>2021-11-18T10:25:57Z</time>
      </trkpt>
      <trkpt lat="44.17256" lon="6.96315">
        <ele>2370.3097512089</ele>
        <time>2021-11-18T10:25:58Z</time>
      </trkpt>
      <trkpt lat="44.17255" lon="6.96315">
        <ele>2370.3097849041</ele>
        <time>2021-11-18T10:25:59Z</time>
      </trkpt>
      <trkpt lat="44.17255" lon="6.96315">
        <ele>2370.309801165</ele>
        <time>2021-11-18T10:26:00Z</time>
      </trkpt>
      <trkpt lat="44.17254" lon="6.96315">
        <ele>2370.309822958</ele>
        <time>2021-11-18T10:26:01Z</time>
      </trkpt>
      <trkpt lat="44.17254" lon="6.96315">
        <ele>2371.3098440804</ele>
        <time>2021-11-18T10:26:02Z</time>
      </trkpt>
      <trkpt lat="44.17253" lon="6.96315">
        <ele>2371.309875764</ele>
        <time>2021-11-18T10:26:03Z</time>
      </trkpt>
      <trkpt lat="44.17252" lon="6.96314">
        <ele>2371.3099227026</ele>
        <time>2021-11-18T10:26:05Z</time>
      </trkpt>
      <trkpt lat="44.17251" lon="6.96314">
        <ele>2371.3099522069</ele>
        <time>2021-11-18T10:26:06Z</time>
      </trkpt>
      <trkpt lat="44.17251" lon="6.96314">
        <ele>2371.3099788614</ele>
        <time>2021-11-18T10:26:07Z</time>
      </trkpt>
      <trkpt lat="44.1725" lon="6.96313">
        <ele>2371.3100060187</ele>
        <time>2021-11-18T10:26:08Z</time>
      </trkpt>
      <trkpt lat="44.1725" lon="6.96312">
        <ele>2372.3100214414</ele>
        <time>2021-11-18T10:26:09Z</time>
      </trkpt>
      <trkpt lat="44.17249" lon="6.96312">
        <ele>2372.3100507781</ele>
        <time>2021-11-18T10:26:10Z</time>
      </trkpt>
      <trkpt lat="44.17247" lon="6.96312">
        <ele>2372.3101044223</ele>
        <time>2021-11-18T10:26:12Z</time>
      </trkpt>
      <trkpt lat="44.17247" lon="6.96312">
        <ele>2372.3101255447</ele>
        <time>2021-11-18T10:26:13Z</time>
      </trkpt>
      <trkpt lat="44.17246" lon="6.96311">
        <ele>2373.310149014</ele>
        <time>2021-11-18T10:26:14Z</time>
      </trkpt>
      <trkpt lat="44.17246" lon="6.96311">
        <ele>2373.3101795241</ele>
        <time>2021-11-18T10:26:16Z</time>
      </trkpt>
      <trkpt lat="44.17245" lon="6.96311">
        <ele>2373.3102103695</ele>
        <time>2021-11-18T10:26:17Z</time>
      </trkpt>
      <trkpt lat="44.17243" lon="6.96311">
        <ele>2373.3102760836</ele>
        <time>2021-11-18T10:26:18Z</time>
      </trkpt>
      <trkpt lat="44.17242" lon="6.9631">
        <ele>2373.3103263751</ele>
        <time>2021-11-18T10:26:19Z</time>
      </trkpt>
      <trkpt lat="44.17241" lon="6.9631">
        <ele>2372.3103637584</ele>
        <time>2021-11-18T10:26:20Z</time>
      </trkpt>
      <trkpt lat="44.1724" lon="6.96309">
        <ele>2372.3104118705</ele>
        <time>2021-11-18T10:26:21Z</time>
      </trkpt>
      <trkpt lat="44.17239" lon="6.96308">
        <ele>2371.3104499243</ele>
        <time>2021-11-18T10:26:22Z</time>
      </trkpt>
      <trkpt lat="44.17238" lon="6.96307">
        <ele>2372.3104673587</ele>
        <time>2021-11-18T10:26:23Z</time>
      </trkpt>
      <trkpt lat="44.17238" lon="6.96307">
        <ele>2373.3104876429</ele>
        <time>2021-11-18T10:26:24Z</time>
      </trkpt>
      <trkpt lat="44.17237" lon="6.96307">
        <ele>2374.3105034009</ele>
        <time>2021-11-18T10:26:25Z</time>
      </trkpt>
      <trkpt lat="44.17237" lon="6.96307">
        <ele>2375.3105324022</ele>
        <time>2021-11-18T10:26:26Z</time>
      </trkpt>
      <trkpt lat="44.17236" lon="6.96307">
        <ele>2376.3105491661</ele>
        <time>2021-11-18T10:26:27Z</time>
      </trkpt>
      <trkpt lat="44.17235" lon="6.96306">
        <ele>2376.3105828613</ele>
        <time>2021-11-18T10:26:28Z</time>
      </trkpt>
      <trkpt lat="44.17235" lon="6.96306">
        <ele>2376.3105942607</ele>
        <time>2021-11-18T10:26:29Z</time>
      </trkpt>
      <trkpt lat="44.17235" lon="6.96305">
        <ele>2377.3106029779</ele>
        <time>2021-11-18T10:26:30Z</time>
      </trkpt>
      <trkpt lat="44.17234" lon="6.96304">
        <ele>2377.3106234297</ele>
        <time>2021-11-18T10:26:31Z</time>
      </trkpt>
      <trkpt lat="44.17234" lon="6.96303">
        <ele>2377.3106396906</ele>
        <time>2021-11-18T10:26:32Z</time>
      </trkpt>
      <trkpt lat="44.17233" lon="6.96304">
        <ele>2378.3106730506</ele>
        <time>2021-11-18T10:26:33Z</time>
      </trkpt>
      <trkpt lat="44.17233" lon="6.96303">
        <ele>2378.3106842823</ele>
        <time>2021-11-18T10:26:34Z</time>
      </trkpt>
      <trkpt lat="44.17232" lon="6.96303">
        <ele>2377.3107085899</ele>
        <time>2021-11-18T10:26:36Z</time>
      </trkpt>
      <trkpt lat="44.17231" lon="6.96303">
        <ele>2377.3107489906</ele>
        <time>2021-11-18T10:26:37Z</time>
      </trkpt>
      <trkpt lat="44.1723" lon="6.96303">
        <ele>2377.3107893914</ele>
        <time>2021-11-18T10:26:38Z</time>
      </trkpt>
      <trkpt lat="44.17229" lon="6.96303">
        <ele>2377.3108224161</ele>
        <time>2021-11-18T10:26:39Z</time>
      </trkpt>
      <trkpt lat="44.17228" lon="6.96303">
        <ele>2378.3108894713</ele>
        <time>2021-11-18T10:26:41Z</time>
      </trkpt>
      <trkpt lat="44.17227" lon="6.96303">
        <ele>2379.3109211549</ele>
        <time>2021-11-18T10:26:42Z</time>
      </trkpt>
      <trkpt lat="44.17226" lon="6.96303">
        <ele>2379.3109513298</ele>
        <time>2021-11-18T10:26:43Z</time>
      </trkpt>
      <trkpt lat="44.17226" lon="6.96302">
        <ele>2379.310965579</ele>
        <time>2021-11-18T10:26:47Z</time>
      </trkpt>
      <trkpt lat="44.17225" lon="6.96301">
        <ele>2379.3109838516</ele>
        <time>2021-11-18T10:26:48Z</time>
      </trkpt>
      <trkpt lat="44.17225" lon="6.963">
        <ele>2380.3110012859</ele>
        <time>2021-11-18T10:26:53Z</time>
      </trkpt>
      <trkpt lat="44.17225" lon="6.96299">
        <ele>2382.3110172115</ele>
        <time>2021-11-18T10:26:54Z</time>
      </trkpt>
      <trkpt lat="44.17225" lon="6.96298">
        <ele>2382.3110058121</ele>
        <time>2021-11-18T10:26:55Z</time>
      </trkpt>
      <trkpt lat="44.17224" lon="6.96297">
        <ele>2382.3110222407</ele>
        <time>2021-11-18T10:26:56Z</time>
      </trkpt>
      <trkpt lat="44.17224" lon="6.96296">
        <ele>2382.3110483922</ele>
        <time>2021-11-18T10:26:57Z</time>
      </trkpt>
      <trkpt lat="44.17223" lon="6.96296">
        <ele>2382.3110696822</ele>
        <time>2021-11-18T10:26:59Z</time>
      </trkpt>
      <trkpt lat="44.17223" lon="6.96295">
        <ele>2383.3110973425</ele>
        <time>2021-11-18T10:27:00Z</time>
      </trkpt>
      <trkpt lat="44.17221" lon="6.96294">
        <ele>2382.3111561835</ele>
        <time>2021-11-18T10:27:02Z</time>
      </trkpt>
      <trkpt lat="44.1722" lon="6.96294">
        <ele>2382.3111885376</ele>
        <time>2021-11-18T10:27:03Z</time>
      </trkpt>
      <trkpt lat="44.1722" lon="6.96293">
        <ele>2382.3112103306</ele>
        <time>2021-11-18T10:27:04Z</time>
      </trkpt>
      <trkpt lat="44.17219" lon="6.96293">
        <ele>2383.3112230711</ele>
        <time>2021-11-18T10:27:05Z</time>
      </trkpt>
      <trkpt lat="44.17219" lon="6.96293">
        <ele>2383.3112482168</ele>
        <time>2021-11-18T10:27:06Z</time>
      </trkpt>
      <trkpt lat="44.17218" lon="6.96293">
        <ele>2383.3112797327</ele>
        <time>2021-11-18T10:27:07Z</time>
      </trkpt>
      <trkpt lat="44.17217" lon="6.96292">
        <ele>2383.3113033697</ele>
        <time>2021-11-18T10:27:08Z</time>
      </trkpt>
      <trkpt lat="44.17217" lon="6.96292">
        <ele>2384.3113199659</ele>
        <time>2021-11-18T10:27:09Z</time>
      </trkpt>
      <trkpt lat="44.17215" lon="6.96292">
        <ele>2384.3114041202</ele>
        <time>2021-11-18T10:27:11Z</time>
      </trkpt>
      <trkpt lat="44.17214" lon="6.96291">
        <ele>2384.3114425093</ele>
        <time>2021-11-18T10:27:12Z</time>
      </trkpt>
      <trkpt lat="44.17213" lon="6.96291">
        <ele>2385.3114735223</ele>
        <time>2021-11-18T10:27:13Z</time>
      </trkpt>
      <trkpt lat="44.17212" lon="6.9629">
        <ele>2385.3115177788</ele>
        <time>2021-11-18T10:27:15Z</time>
      </trkpt>
      <trkpt lat="44.17211" lon="6.9629">
        <ele>2385.3115570061</ele>
        <time>2021-11-18T10:27:16Z</time>
      </trkpt>
      <trkpt lat="44.17211" lon="6.9629">
        <ele>2385.3115752786</ele>
        <time>2021-11-18T10:27:17Z</time>
      </trkpt>
      <trkpt lat="44.1721" lon="6.96289">
        <ele>2385.3115984127</ele>
        <time>2021-11-18T10:27:21Z</time>
      </trkpt>
      <trkpt lat="44.17209" lon="6.96289">
        <ele>2385.3116550744</ele>
        <time>2021-11-18T10:27:22Z</time>
      </trkpt>
      <trkpt lat="44.17208" lon="6.96288">
        <ele>2384.3116694912</ele>
        <time>2021-11-18T10:27:23Z</time>
      </trkpt>
      <trkpt lat="44.17208" lon="6.96288">
        <ele>2384.3116943017</ele>
        <time>2021-11-18T10:27:24Z</time>
      </trkpt>
      <trkpt lat="44.17207" lon="6.96288">
        <ele>2384.3117248118</ele>
        <time>2021-11-18T10:27:25Z</time>
      </trkpt>
      <trkpt lat="44.17206" lon="6.96287">
        <ele>2384.3117479458</ele>
        <time>2021-11-18T10:27:26Z</time>
      </trkpt>
      <trkpt lat="44.17206" lon="6.96287">
        <ele>2384.3117782883</ele>
        <time>2021-11-18T10:27:27Z</time>
      </trkpt>
      <trkpt lat="44.17205" lon="6.96286">
        <ele>2385.3118062839</ele>
        <time>2021-11-18T10:27:28Z</time>
      </trkpt>
      <trkpt lat="44.17204" lon="6.96286">
        <ele>2385.3118324354</ele>
        <time>2021-11-18T10:27:29Z</time>
      </trkpt>
      <trkpt lat="44.17204" lon="6.96285">
        <ele>2386.3118481934</ele>
        <time>2021-11-18T10:27:32Z</time>
      </trkpt>
      <trkpt lat="44.17203" lon="6.96284">
        <ele>2387.3118939586</ele>
        <time>2021-11-18T10:27:33Z</time>
      </trkpt>
      <trkpt lat="44.17202" lon="6.96284">
        <ele>2387.3119202778</ele>
        <time>2021-11-18T10:27:38Z</time>
      </trkpt>
      <trkpt lat="44.17201" lon="6.96283">
        <ele>2387.3119732514</ele>
        <time>2021-11-18T10:27:39Z</time>
      </trkpt>
      <trkpt lat="44.172" lon="6.96283">
        <ele>2387.3119997382</ele>
        <time>2021-11-18T10:27:40Z</time>
      </trkpt>
      <trkpt lat="44.17199" lon="6.96282">
        <ele>2387.3120523766</ele>
        <time>2021-11-18T10:27:42Z</time>
      </trkpt>
      <trkpt lat="44.17198" lon="6.96281">
        <ele>2387.3120797016</ele>
        <time>2021-11-18T10:27:43Z</time>
      </trkpt>
      <trkpt lat="44.17197" lon="6.96281">
        <ele>2386.3121030033</ele>
        <time>2021-11-18T10:27:44Z</time>
      </trkpt>
      <trkpt lat="44.17197" lon="6.96281">
        <ele>2386.3121306635</ele>
        <time>2021-11-18T10:27:45Z</time>
      </trkpt>
      <trkpt lat="44.17195" lon="6.96281">
        <ele>2386.3121893369</ele>
        <time>2021-11-18T10:27:47Z</time>
      </trkpt>
      <trkpt lat="44.17195" lon="6.9628">
        <ele>2386.3122149855</ele>
        <time>2021-11-18T10:27:49Z</time>
      </trkpt>
      <trkpt lat="44.17193" lon="6.96281">
        <ele>2386.3122652769</ele>
        <time>2021-11-18T10:27:51Z</time>
      </trkpt>
      <trkpt lat="44.17193" lon="6.96281">
        <ele>2386.3122966252</ele>
        <time>2021-11-18T10:27:52Z</time>
      </trkpt>
      <trkpt lat="44.17192" lon="6.96281">
        <ele>2387.3123211004</ele>
        <time>2021-11-18T10:27:53Z</time>
      </trkpt>
      <trkpt lat="44.17191" lon="6.9628">
        <ele>2387.3123539574</ele>
        <time>2021-11-18T10:27:55Z</time>
      </trkpt>
      <trkpt lat="44.1719" lon="6.96279">
        <ele>2387.3123993874</ele>
        <time>2021-11-18T10:27:57Z</time>
      </trkpt>
      <trkpt lat="44.17189" lon="6.96279">
        <ele>2388.3124312386</ele>
        <time>2021-11-18T10:27:58Z</time>
      </trkpt>
      <trkpt lat="44.17189" lon="6.96279">
        <ele>2387.3124557137</ele>
        <time>2021-11-18T10:27:59Z</time>
      </trkpt>
      <trkpt lat="44.17188" lon="6.96279">
        <ele>2387.312475495</ele>
        <time>2021-11-18T10:28:00Z</time>
      </trkpt>
      <trkpt lat="44.17187" lon="6.96279">
        <ele>2388.3125262894</ele>
        <time>2021-11-18T10:28:02Z</time>
      </trkpt>
      <trkpt lat="44.17186" lon="6.96278">
        <ele>2388.312544059</ele>
        <time>2021-11-18T10:28:03Z</time>
      </trkpt>
      <trkpt lat="44.17186" lon="6.96277">
        <ele>2388.3125606552</ele>
        <time>2021-11-18T10:28:04Z</time>
      </trkpt>
      <trkpt lat="44.17185" lon="6.96277">
        <ele>2388.3125893213</ele>
        <time>2021-11-18T10:28:05Z</time>
      </trkpt>
      <trkpt lat="44.17185" lon="6.96277">
        <ele>2389.3126097731</ele>
        <time>2021-11-18T10:28:06Z</time>
      </trkpt>
      <trkpt lat="44.17184" lon="6.96276">
        <ele>2389.3126310632</ele>
        <time>2021-11-18T10:28:07Z</time>
      </trkpt>
      <trkpt lat="44.17184" lon="6.96276">
        <ele>2389.3126565441</ele>
        <time>2021-11-18T10:28:08Z</time>
      </trkpt>
      <trkpt lat="44.17183" lon="6.96275">
        <ele>2389.3126863837</ele>
        <time>2021-11-18T10:28:10Z</time>
      </trkpt>
      <trkpt lat="44.17182" lon="6.96276">
        <ele>2389.3127130382</ele>
        <time>2021-11-18T10:28:12Z</time>
      </trkpt>
      <trkpt lat="44.17181" lon="6.96276">
        <ele>2388.3127638325</ele>
        <time>2021-11-18T10:28:13Z</time>
      </trkpt>
      <trkpt lat="44.1718" lon="6.96275">
        <ele>2388.3127911575</ele>
        <time>2021-11-18T10:28:14Z</time>
      </trkpt>
      <trkpt lat="44.1718" lon="6.96275">
        <ele>2388.3128121123</ele>
        <time>2021-11-18T10:28:15Z</time>
      </trkpt>
      <trkpt lat="44.17178" lon="6.96276">
        <ele>2389.3128647506</ele>
        <time>2021-11-18T10:28:17Z</time>
      </trkpt>
      <trkpt lat="44.17178" lon="6.96275">
        <ele>2390.3128887229</ele>
        <time>2021-11-18T10:28:18Z</time>
      </trkpt>
      <trkpt lat="44.17177" lon="6.96276">
        <ele>2390.3129061572</ele>
        <time>2021-11-18T10:28:19Z</time>
      </trkpt>
      <trkpt lat="44.17177" lon="6.96276">
        <ele>2390.3129361644</ele>
        <time>2021-11-18T10:28:23Z</time>
      </trkpt>
      <trkpt lat="44.17175" lon="6.96275">
        <ele>2390.3129943348</ele>
        <time>2021-11-18T10:28:24Z</time>
      </trkpt>
      <trkpt lat="44.17174" lon="6.96275">
        <ele>2390.3130312152</ele>
        <time>2021-11-18T10:28:25Z</time>
      </trkpt>
      <trkpt lat="44.17174" lon="6.96275">
        <ele>2391.3130550198</ele>
        <time>2021-11-18T10:28:26Z</time>
      </trkpt>
      <trkpt lat="44.17173" lon="6.96275">
        <ele>2391.3130758069</ele>
        <time>2021-11-18T10:28:27Z</time>
      </trkpt>
      <trkpt lat="44.17173" lon="6.96274">
        <ele>2392.3130903915</ele>
        <time>2021-11-18T10:28:28Z</time>
      </trkpt>
      <trkpt lat="44.17172" lon="6.96274">
        <ele>2392.3131083287</ele>
        <time>2021-11-18T10:28:29Z</time>
      </trkpt>
      <trkpt lat="44.17172" lon="6.96273">
        <ele>2392.3131334744</ele>
        <time>2021-11-18T10:28:30Z</time>
      </trkpt>
      <trkpt lat="44.17171" lon="6.96273">
        <ele>2392.3131634817</ele>
        <time>2021-11-18T10:28:31Z</time>
      </trkpt>
      <trkpt lat="44.17171" lon="6.96273">
        <ele>2392.3131777309</ele>
        <time>2021-11-18T10:28:32Z</time>
      </trkpt>
      <trkpt lat="44.1717" lon="6.96273">
        <ele>2392.313202709</ele>
        <time>2021-11-18T10:28:33Z</time>
      </trkpt>
      <trkpt lat="44.17169" lon="6.96272">
        <ele>2392.313229531</ele>
        <time>2021-11-18T10:28:34Z</time>
      </trkpt>
      <trkpt lat="44.17169" lon="6.96272">
        <ele>2392.3132486418</ele>
        <time>2021-11-18T10:28:35Z</time>
      </trkpt>
      <trkpt lat="44.17168" lon="6.96273">
        <ele>2392.3132727817</ele>
        <time>2021-11-18T10:28:36Z</time>
      </trkpt>
      <trkpt lat="44.17167" lon="6.96273">
        <ele>2392.3133058064</ele>
        <time>2021-11-18T10:28:37Z</time>
      </trkpt>
      <trkpt lat="44.17166" lon="6.96273">
        <ele>2392.3133554272</ele>
        <time>2021-11-18T10:28:38Z</time>
      </trkpt>
      <trkpt lat="44.17165" lon="6.96273">
        <ele>2392.3133941516</ele>
        <time>2021-11-18T10:28:39Z</time>
      </trkpt>
      <trkpt lat="44.17164" lon="6.96273">
        <ele>2393.3134229854</ele>
        <time>2021-11-18T10:28:40Z</time>
      </trkpt>
      <trkpt lat="44.17163" lon="6.96272">
        <ele>2392.3134955727</ele>
        <time>2021-11-18T10:28:42Z</time>
      </trkpt>
      <trkpt lat="44.17162" lon="6.96272">
        <ele>2392.3135255799</ele>
        <time>2021-11-18T10:28:44Z</time>
      </trkpt>
      <trkpt lat="44.17161" lon="6.96271">
        <ele>2391.313542176</ele>
        <time>2021-11-18T10:28:45Z</time>
      </trkpt>
      <trkpt lat="44.17161" lon="6.96271">
        <ele>2392.3135698363</ele>
        <time>2021-11-18T10:28:46Z</time>
      </trkpt>
      <trkpt lat="44.1716" lon="6.96271">
        <ele>2393.3135922998</ele>
        <time>2021-11-18T10:28:48Z</time>
      </trkpt>
      <trkpt lat="44.1716" lon="6.96271">
        <ele>2394.3136152662</ele>
        <time>2021-11-18T10:28:51Z</time>
      </trkpt>
      <trkpt lat="44.17159" lon="6.9627">
        <ele>2394.3136318624</ele>
        <time>2021-11-18T10:28:52Z</time>
      </trkpt>
      <trkpt lat="44.17158" lon="6.9627">
        <ele>2394.3136670664</ele>
        <time>2021-11-18T10:28:53Z</time>
      </trkpt>
      <trkpt lat="44.17158" lon="6.96271">
        <ele>2395.3136853389</ele>
        <time>2021-11-18T10:28:54Z</time>
      </trkpt>
      <trkpt lat="44.17157" lon="6.9627">
        <ele>2394.3137235604</ele>
        <time>2021-11-18T10:28:55Z</time>
      </trkpt>
      <trkpt lat="44.17155" lon="6.96269">
        <ele>2394.3137949742</ele>
        <time>2021-11-18T10:28:57Z</time>
      </trkpt>
      <trkpt lat="44.17154" lon="6.96269">
        <ele>2394.3138279989</ele>
        <time>2021-11-18T10:28:59Z</time>
      </trkpt>
      <trkpt lat="44.17154" lon="6.96268">
        <ele>2394.3138576709</ele>
        <time>2021-11-18T10:29:00Z</time>
      </trkpt>
      <trkpt lat="44.17153" lon="6.96268">
        <ele>2394.3139017597</ele>
        <time>2021-11-18T10:29:01Z</time>
      </trkpt>
      <trkpt lat="44.17152" lon="6.96268">
        <ele>2394.3139274083</ele>
        <time>2021-11-18T10:29:02Z</time>
      </trkpt>
      <trkpt lat="44.17151" lon="6.96267">
        <ele>2395.3139639534</ele>
        <time>2021-11-18T10:29:03Z</time>
      </trkpt>
      <trkpt lat="44.17151" lon="6.96267">
        <ele>2395.3139813878</ele>
        <time>2021-11-18T10:29:05Z</time>
      </trkpt>
      <trkpt lat="44.17149" lon="6.96266">
        <ele>2395.3140274882</ele>
        <time>2021-11-18T10:29:06Z</time>
      </trkpt>
      <trkpt lat="44.17149" lon="6.96266">
        <ele>2395.3140568249</ele>
        <time>2021-11-18T10:29:07Z</time>
      </trkpt>
      <trkpt lat="44.17148" lon="6.96266">
        <ele>2395.3140819706</ele>
        <time>2021-11-18T10:29:08Z</time>
      </trkpt>
      <trkpt lat="44.17148" lon="6.96266">
        <ele>2396.3140962198</ele>
        <time>2021-11-18T10:29:09Z</time>
      </trkpt>
      <trkpt lat="44.17147" lon="6.96265">
        <ele>2396.3141144924</ele>
        <time>2021-11-18T10:29:10Z</time>
      </trkpt>
      <trkpt lat="44.17146" lon="6.96265">
        <ele>2396.3141550608</ele>
        <time>2021-11-18T10:29:12Z</time>
      </trkpt>
      <trkpt lat="44.17146" lon="6.96265">
        <ele>2397.3141807094</ele>
        <time>2021-11-18T10:29:14Z</time>
      </trkpt>
      <trkpt lat="44.17145" lon="6.96266">
        <ele>2396.3142110519</ele>
        <time>2021-11-18T10:29:15Z</time>
      </trkpt>
      <trkpt lat="44.17144" lon="6.96266">
        <ele>2397.3142504469</ele>
        <time>2021-11-18T10:29:17Z</time>
      </trkpt>
      <trkpt lat="44.17143" lon="6.96267">
        <ele>2397.3142646961</ele>
        <time>2021-11-18T10:29:18Z</time>
      </trkpt>
      <trkpt lat="44.17143" lon="6.96266">
        <ele>2397.314292524</ele>
        <time>2021-11-18T10:29:19Z</time>
      </trkpt>
      <trkpt lat="44.17142" lon="6.96266">
        <ele>2397.3143250458</ele>
        <time>2021-11-18T10:29:20Z</time>
      </trkpt>
      <trkpt lat="44.17141" lon="6.96265">
        <ele>2397.314355053</ele>
        <time>2021-11-18T10:29:21Z</time>
      </trkpt>
      <trkpt lat="44.1714" lon="6.96265">
        <ele>2396.3143946156</ele>
        <time>2021-11-18T10:29:22Z</time>
      </trkpt>
      <trkpt lat="44.17139" lon="6.96266">
        <ele>2395.314437028</ele>
        <time>2021-11-18T10:29:23Z</time>
      </trkpt>
      <trkpt lat="44.17138" lon="6.96265">
        <ele>2395.3144739084</ele>
        <time>2021-11-18T10:29:24Z</time>
      </trkpt>
      <trkpt lat="44.17137" lon="6.96266">
        <ele>2395.3145024069</ele>
        <time>2021-11-18T10:29:25Z</time>
      </trkpt>
      <trkpt lat="44.17136" lon="6.96266">
        <ele>2395.3145530336</ele>
        <time>2021-11-18T10:29:27Z</time>
      </trkpt>
      <trkpt lat="44.17135" lon="6.96267">
        <ele>2395.314583879</ele>
        <time>2021-11-18T10:29:28Z</time>
      </trkpt>
      <trkpt lat="44.17135" lon="6.96267">
        <ele>2396.3146140538</ele>
        <time>2021-11-18T10:29:29Z</time>
      </trkpt>
      <trkpt lat="44.17134" lon="6.96267">
        <ele>2395.3146415465</ele>
        <time>2021-11-18T10:29:30Z</time>
      </trkpt>
      <trkpt lat="44.17133" lon="6.96267">
        <ele>2395.3146790974</ele>
        <time>2021-11-18T10:29:31Z</time>
      </trkpt>
      <trkpt lat="44.17132" lon="6.96267">
        <ele>2395.3147191629</ele>
        <time>2021-11-18T10:29:32Z</time>
      </trkpt>
      <trkpt lat="44.17131" lon="6.96266">
        <ele>2395.3147669397</ele>
        <time>2021-11-18T10:29:33Z</time>
      </trkpt>
      <trkpt lat="44.17131" lon="6.96266">
        <ele>2395.3147818595</ele>
        <time>2021-11-18T10:29:34Z</time>
      </trkpt>
      <trkpt lat="44.1713" lon="6.96266">
        <ele>2395.3148004673</ele>
        <time>2021-11-18T10:29:35Z</time>
      </trkpt>
      <trkpt lat="44.17129" lon="6.96266">
        <ele>2396.3148277923</ele>
        <time>2021-11-18T10:29:36Z</time>
      </trkpt>
      <trkpt lat="44.17128" lon="6.96266">
        <ele>2396.3148655109</ele>
        <time>2021-11-18T10:29:37Z</time>
      </trkpt>
      <trkpt lat="44.17128" lon="6.96266">
        <ele>2396.3148935065</ele>
        <time>2021-11-18T10:29:38Z</time>
      </trkpt>
      <trkpt lat="44.17127" lon="6.96266">
        <ele>2397.3149204962</ele>
        <time>2021-11-18T10:29:39Z</time>
      </trkpt>
      <trkpt lat="44.17126" lon="6.96266">
        <ele>2397.3149489947</ele>
        <time>2021-11-18T10:29:40Z</time>
      </trkpt>
      <trkpt lat="44.17125" lon="6.96267">
        <ele>2397.3150135353</ele>
        <time>2021-11-18T10:29:42Z</time>
      </trkpt>
      <trkpt lat="44.17124" lon="6.96267">
        <ele>2398.3150499128</ele>
        <time>2021-11-18T10:29:43Z</time>
      </trkpt>
      <trkpt lat="44.17123" lon="6.96267">
        <ele>2398.3150916547</ele>
        <time>2021-11-18T10:29:44Z</time>
      </trkpt>
      <trkpt lat="44.17122" lon="6.96267">
        <ele>2398.3151332289</ele>
        <time>2021-11-18T10:29:45Z</time>
      </trkpt>
      <trkpt lat="44.17121" lon="6.96268">
        <ele>2398.3151634037</ele>
        <time>2021-11-18T10:29:46Z</time>
      </trkpt>
      <trkpt lat="44.1712" lon="6.96268">
        <ele>2398.315197099</ele>
        <time>2021-11-18T10:29:47Z</time>
      </trkpt>
      <trkpt lat="44.17119" lon="6.96268">
        <ele>2398.3152374998</ele>
        <time>2021-11-18T10:29:48Z</time>
      </trkpt>
      <trkpt lat="44.17118" lon="6.96269">
        <ele>2398.3152782358</ele>
        <time>2021-11-18T10:29:49Z</time>
      </trkpt>
      <trkpt lat="44.17116" lon="6.9627">
        <ele>2399.3153645694</ele>
        <time>2021-11-18T10:29:51Z</time>
      </trkpt>
      <trkpt lat="44.17115" lon="6.9627">
        <ele>2399.3154032938</ele>
        <time>2021-11-18T10:29:52Z</time>
      </trkpt>
      <trkpt lat="44.17114" lon="6.9627">
        <ele>2399.3154395036</ele>
        <time>2021-11-18T10:29:53Z</time>
      </trkpt>
      <trkpt lat="44.17113" lon="6.9627">
        <ele>2398.3154733665</ele>
        <time>2021-11-18T10:29:54Z</time>
      </trkpt>
      <trkpt lat="44.17112" lon="6.9627">
        <ele>2398.3155161142</ele>
        <time>2021-11-18T10:29:55Z</time>
      </trkpt>
      <trkpt lat="44.17111" lon="6.9627">
        <ele>2398.3155714348</ele>
        <time>2021-11-18T10:29:57Z</time>
      </trkpt>
      <trkpt lat="44.1711" lon="6.9627">
        <ele>2398.3155876957</ele>
        <time>2021-11-18T10:29:58Z</time>
      </trkpt>
      <trkpt lat="44.1711" lon="6.9627">
        <ele>2398.3156178705</ele>
        <time>2021-11-18T10:29:59Z</time>
      </trkpt>
      <trkpt lat="44.17109" lon="6.9627">
        <ele>2398.3156517334</ele>
        <time>2021-11-18T10:30:00Z</time>
      </trkpt>
      <trkpt lat="44.17107" lon="6.96271">
        <ele>2398.3157156035</ele>
        <time>2021-11-18T10:30:02Z</time>
      </trkpt>
      <trkpt lat="44.17106" lon="6.96272">
        <ele>2399.3157452755</ele>
        <time>2021-11-18T10:30:03Z</time>
      </trkpt>
      <trkpt lat="44.17106" lon="6.96272">
        <ele>2399.3157734387</ele>
        <time>2021-11-18T10:30:04Z</time>
      </trkpt>
      <trkpt lat="44.17105" lon="6.96271">
        <ele>2399.3158022724</ele>
        <time>2021-11-18T10:30:05Z</time>
      </trkpt>
      <trkpt lat="44.17104" lon="6.96271">
        <ele>2399.3158270828</ele>
        <time>2021-11-18T10:30:06Z</time>
      </trkpt>
      <trkpt lat="44.17104" lon="6.96272">
        <ele>2398.3158569224</ele>
        <time>2021-11-18T10:30:07Z</time>
      </trkpt>
      <trkpt lat="44.17103" lon="6.96273">
        <ele>2399.3158902824</ele>
        <time>2021-11-18T10:30:08Z</time>
      </trkpt>
      <trkpt lat="44.17102" lon="6.96273">
        <ele>2398.3159281686</ele>
        <time>2021-11-18T10:30:09Z</time>
      </trkpt>
      <trkpt lat="44.17101" lon="6.96273">
        <ele>2398.3159813099</ele>
        <time>2021-11-18T10:30:11Z</time>
      </trkpt>
      <trkpt lat="44.171" lon="6.96273">
        <ele>2398.3159933798</ele>
        <time>2021-11-18T10:30:12Z</time>
      </trkpt>
      <trkpt lat="44.17099" lon="6.96273">
        <ele>2399.316023387</ele>
        <time>2021-11-18T10:30:13Z</time>
      </trkpt>
      <trkpt lat="44.17098" lon="6.96272">
        <ele>2399.3160663024</ele>
        <time>2021-11-18T10:30:15Z</time>
      </trkpt>
      <trkpt lat="44.17098" lon="6.96271">
        <ele>2399.3160973154</ele>
        <time>2021-11-18T10:30:16Z</time>
      </trkpt>
      <trkpt lat="44.17097" lon="6.96271">
        <ele>2399.3161331899</ele>
        <time>2021-11-18T10:30:17Z</time>
      </trkpt>
      <trkpt lat="44.17096" lon="6.96271">
        <ele>2399.3161517978</ele>
        <time>2021-11-18T10:30:18Z</time>
      </trkpt>
      <trkpt lat="44.17095" lon="6.9627">
        <ele>2400.3162101358</ele>
        <time>2021-11-18T10:30:20Z</time>
      </trkpt>
      <trkpt lat="44.17094" lon="6.9627">
        <ele>2400.3162337728</ele>
        <time>2021-11-18T10:30:21Z</time>
      </trkpt>
      <trkpt lat="44.17093" lon="6.9627">
        <ele>2400.3162738383</ele>
        <time>2021-11-18T10:30:22Z</time>
      </trkpt>
      <trkpt lat="44.17092" lon="6.96269">
        <ele>2400.3163155802</ele>
        <time>2021-11-18T10:30:23Z</time>
      </trkpt>
      <trkpt lat="44.17091" lon="6.96269">
        <ele>2399.3163430728</ele>
        <time>2021-11-18T10:30:24Z</time>
      </trkpt>
      <trkpt lat="44.17091" lon="6.9627">
        <ele>2399.3163625188</ele>
        <time>2021-11-18T10:30:25Z</time>
      </trkpt>
      <trkpt lat="44.1709" lon="6.96271">
        <ele>2399.316414319</ele>
        <time>2021-11-18T10:30:27Z</time>
      </trkpt>
      <trkpt lat="44.17089" lon="6.96271">
        <ele>2400.3164406382</ele>
        <time>2021-11-18T10:30:28Z</time>
      </trkpt>
      <trkpt lat="44.17088" lon="6.96271">
        <ele>2399.3164698072</ele>
        <time>2021-11-18T10:30:29Z</time>
      </trkpt>
      <trkpt lat="44.17087" lon="6.96272">
        <ele>2399.3165093698</ele>
        <time>2021-11-18T10:30:30Z</time>
      </trkpt>
      <trkpt lat="44.17087" lon="6.96271">
        <ele>2399.3165373653</ele>
        <time>2021-11-18T10:30:31Z</time>
      </trkpt>
      <trkpt lat="44.17086" lon="6.96271">
        <ele>2399.3165752515</ele>
        <time>2021-11-18T10:30:32Z</time>
      </trkpt>
      <trkpt lat="44.17085" lon="6.96271">
        <ele>2399.3166082762</ele>
        <time>2021-11-18T10:30:33Z</time>
      </trkpt>
      <trkpt lat="44.17084" lon="6.96271">
        <ele>2399.3166424744</ele>
        <time>2021-11-18T10:30:34Z</time>
      </trkpt>
      <trkpt lat="44.17083" lon="6.96271">
        <ele>2399.3166676201</ele>
        <time>2021-11-18T10:30:35Z</time>
      </trkpt>
      <trkpt lat="44.17083" lon="6.96271">
        <ele>2399.3166855574</ele>
        <time>2021-11-18T10:30:36Z</time>
      </trkpt>
      <trkpt lat="44.17082" lon="6.96271">
        <ele>2399.3167169057</ele>
        <time>2021-11-18T10:30:37Z</time>
      </trkpt>
      <trkpt lat="44.17082" lon="6.96271">
        <ele>2399.3167383634</ele>
        <time>2021-11-18T10:30:38Z</time>
      </trkpt>
      <trkpt lat="44.17081" lon="6.96271">
        <ele>2400.3167671971</ele>
        <time>2021-11-18T10:30:39Z</time>
      </trkpt>
      <trkpt lat="44.1708" lon="6.96271">
        <ele>2400.3168132976</ele>
        <time>2021-11-18T10:30:40Z</time>
      </trkpt>
      <trkpt lat="44.17079" lon="6.96271">
        <ele>2399.3168503456</ele>
        <time>2021-11-18T10:30:41Z</time>
      </trkpt>
      <trkpt lat="44.17078" lon="6.96271">
        <ele>2400.3168895729</ele>
        <time>2021-11-18T10:30:42Z</time>
      </trkpt>
      <trkpt lat="44.17077" lon="6.96272">
        <ele>2399.316912204</ele>
        <time>2021-11-18T10:30:43Z</time>
      </trkpt>
      <trkpt lat="44.17077" lon="6.96272">
        <ele>2399.3169276267</ele>
        <time>2021-11-18T10:30:44Z</time>
      </trkpt>
      <trkpt lat="44.17076" lon="6.96272">
        <ele>2400.3169616573</ele>
        <time>2021-11-18T10:30:45Z</time>
      </trkpt>
      <trkpt lat="44.17075" lon="6.96272">
        <ele>2400.317000214</ele>
        <time>2021-11-18T10:30:46Z</time>
      </trkpt>
      <trkpt lat="44.17074" lon="6.96272">
        <ele>2399.3170531876</ele>
        <time>2021-11-18T10:30:47Z</time>
      </trkpt>
      <trkpt lat="44.17073" lon="6.96272">
        <ele>2400.3170930855</ele>
        <time>2021-11-18T10:30:48Z</time>
      </trkpt>
      <trkpt lat="44.17072" lon="6.96272">
        <ele>2400.3171244338</ele>
        <time>2021-11-18T10:30:49Z</time>
      </trkpt>
      <trkpt lat="44.1707" lon="6.96271">
        <ele>2400.3171894774</ele>
        <time>2021-11-18T10:30:51Z</time>
      </trkpt>
      <trkpt lat="44.1707" lon="6.96271">
        <ele>2400.3172141202</ele>
        <time>2021-11-18T10:30:52Z</time>
      </trkpt>
      <trkpt lat="44.17069" lon="6.96271">
        <ele>2400.3172528446</ele>
        <time>2021-11-18T10:30:53Z</time>
      </trkpt>
      <trkpt lat="44.17068" lon="6.96271">
        <ele>2400.3172888868</ele>
        <time>2021-11-18T10:30:54Z</time>
      </trkpt>
      <trkpt lat="44.17066" lon="6.96271">
        <ele>2400.317361977</ele>
        <time>2021-11-18T10:30:56Z</time>
      </trkpt>
      <trkpt lat="44.17065" lon="6.96271">
        <ele>2399.3174060658</ele>
        <time>2021-11-18T10:30:57Z</time>
      </trkpt>
      <trkpt lat="44.17064" lon="6.96271">
        <ele>2399.3174491487</ele>
        <time>2021-11-18T10:30:58Z</time>
      </trkpt>
      <trkpt lat="44.17063" lon="6.9627">
        <ele>2399.3174776472</ele>
        <time>2021-11-18T10:30:59Z</time>
      </trkpt>
      <trkpt lat="44.17063" lon="6.9627">
        <ele>2399.3174942434</ele>
        <time>2021-11-18T10:31:00Z</time>
      </trkpt>
      <trkpt lat="44.17061" lon="6.96268">
        <ele>2399.3175473846</ele>
        <time>2021-11-18T10:31:02Z</time>
      </trkpt>
      <trkpt lat="44.1706" lon="6.96268">
        <ele>2399.3175976761</ele>
        <time>2021-11-18T10:31:03Z</time>
      </trkpt>
      <trkpt lat="44.17059" lon="6.96268">
        <ele>2399.3176508173</ele>
        <time>2021-11-18T10:31:04Z</time>
      </trkpt>
      <trkpt lat="44.17058" lon="6.96268">
        <ele>2399.3176897094</ele>
        <time>2021-11-18T10:31:05Z</time>
      </trkpt>
      <trkpt lat="44.17057" lon="6.96268">
        <ele>2398.3177198842</ele>
        <time>2021-11-18T10:31:06Z</time>
      </trkpt>
      <trkpt lat="44.17056" lon="6.96268">
        <ele>2398.317756597</ele>
        <time>2021-11-18T10:31:07Z</time>
      </trkpt>
      <trkpt lat="44.17055" lon="6.96268">
        <ele>2398.3177844249</ele>
        <time>2021-11-18T10:31:08Z</time>
      </trkpt>
      <trkpt lat="44.17055" lon="6.96268">
        <ele>2398.3178182878</ele>
        <time>2021-11-18T10:31:09Z</time>
      </trkpt>
      <trkpt lat="44.17053" lon="6.96268">
        <ele>2399.3178784698</ele>
        <time>2021-11-18T10:31:11Z</time>
      </trkpt>
      <trkpt lat="44.17053" lon="6.96268">
        <ele>2399.3178979158</ele>
        <time>2021-11-18T10:31:12Z</time>
      </trkpt>
      <trkpt lat="44.17052" lon="6.96268">
        <ele>2399.3179290965</ele>
        <time>2021-11-18T10:31:13Z</time>
      </trkpt>
      <trkpt lat="44.1705" lon="6.96268">
        <ele>2398.3179976605</ele>
        <time>2021-11-18T10:31:15Z</time>
      </trkpt>
      <trkpt lat="44.17049" lon="6.96268">
        <ele>2398.318043761</ele>
        <time>2021-11-18T10:31:16Z</time>
      </trkpt>
      <trkpt lat="44.17048" lon="6.96268">
        <ele>2398.318096064</ele>
        <time>2021-11-18T10:31:17Z</time>
      </trkpt>
      <trkpt lat="44.17046" lon="6.96268">
        <ele>2398.3181487024</ele>
        <time>2021-11-18T10:31:18Z</time>
      </trkpt>
      <trkpt lat="44.17045" lon="6.96268">
        <ele>2399.3182011731</ele>
        <time>2021-11-18T10:31:20Z</time>
      </trkpt>
      <trkpt lat="44.17044" lon="6.96268">
        <ele>2399.3182291687</ele>
        <time>2021-11-18T10:31:21Z</time>
      </trkpt>
      <trkpt lat="44.17044" lon="6.96269">
        <ele>2399.318260517</ele>
        <time>2021-11-18T10:31:22Z</time>
      </trkpt>
      <trkpt lat="44.17043" lon="6.9627">
        <ele>2399.3182791248</ele>
        <time>2021-11-18T10:31:23Z</time>
      </trkpt>
      <trkpt lat="44.17043" lon="6.96269">
        <ele>2399.3182958886</ele>
        <time>2021-11-18T10:31:24Z</time>
      </trkpt>
      <trkpt lat="44.17042" lon="6.96269">
        <ele>2398.3183284104</ele>
        <time>2021-11-18T10:31:27Z</time>
      </trkpt>
      <trkpt lat="44.17041" lon="6.9627">
        <ele>2398.3183567412</ele>
        <time>2021-11-18T10:31:28Z</time>
      </trkpt>
      <trkpt lat="44.17041" lon="6.96271">
        <ele>2398.318371661</ele>
        <time>2021-11-18T10:31:30Z</time>
      </trkpt>
      <trkpt lat="44.1704" lon="6.96269">
        <ele>2399.3184209466</ele>
        <time>2021-11-18T10:31:32Z</time>
      </trkpt>
      <trkpt lat="44.17039" lon="6.96267">
        <ele>2400.3184546418</ele>
        <time>2021-11-18T10:31:33Z</time>
      </trkpt>
      <trkpt lat="44.17038" lon="6.96266">
        <ele>2400.3184670471</ele>
        <time>2021-11-18T10:31:34Z</time>
      </trkpt>
      <trkpt lat="44.17038" lon="6.96264">
        <ele>2399.3184792846</ele>
        <time>2021-11-18T10:31:36Z</time>
      </trkpt>
      <trkpt lat="44.17037" lon="6.96263">
        <ele>2400.3185109682</ele>
        <time>2021-11-18T10:31:37Z</time>
      </trkpt>
      <trkpt lat="44.17037" lon="6.96262">
        <ele>2399.3185377903</ele>
        <time>2021-11-18T10:31:38Z</time>
      </trkpt>
      <trkpt lat="44.17036" lon="6.96261">
        <ele>2399.3185661212</ele>
        <time>2021-11-18T10:31:39Z</time>
      </trkpt>
      <trkpt lat="44.17035" lon="6.96261">
        <ele>2400.3185852319</ele>
        <time>2021-11-18T10:31:58Z</time>
      </trkpt>
      <trkpt lat="44.17035" lon="6.96259">
        <ele>2401.318612054</ele>
        <time>2021-11-18T10:32:00Z</time>
      </trkpt>
      <trkpt lat="44.17035" lon="6.96258">
        <ele>2401.3186140656</ele>
        <time>2021-11-18T10:32:14Z</time>
      </trkpt>
      <trkpt lat="44.17034" lon="6.96257">
        <ele>2401.3186439052</ele>
        <time>2021-11-18T10:32:16Z</time>
      </trkpt>
      <trkpt lat="44.17034" lon="6.96258">
        <ele>2402.318633344</ele>
        <time>2021-11-18T10:32:24Z</time>
      </trkpt>
      <trkpt lat="44.17033" lon="6.96259">
        <ele>2402.3186656982</ele>
        <time>2021-11-18T10:32:26Z</time>
      </trkpt>
      <trkpt lat="44.17033" lon="6.96259">
        <ele>2402.3186980523</ele>
        <time>2021-11-18T10:32:31Z</time>
      </trkpt>
      <trkpt lat="44.17032" lon="6.96259">
        <ele>2402.3187221922</ele>
        <time>2021-11-18T10:32:32Z</time>
      </trkpt>
      <trkpt lat="44.17031" lon="6.96259">
        <ele>2401.3187495172</ele>
        <time>2021-11-18T10:32:35Z</time>
      </trkpt>
      <trkpt lat="44.1703" lon="6.9626">
        <ele>2401.3187910914</ele>
        <time>2021-11-18T10:32:37Z</time>
      </trkpt>
      <trkpt lat="44.1703" lon="6.9626">
        <ele>2401.3188204281</ele>
        <time>2021-11-18T10:32:38Z</time>
      </trkpt>
      <trkpt lat="44.17029" lon="6.9626">
        <ele>2401.3188501</ele>
        <time>2021-11-18T10:32:39Z</time>
      </trkpt>
      <trkpt lat="44.17028" lon="6.9626">
        <ele>2401.3188722283</ele>
        <time>2021-11-18T10:32:40Z</time>
      </trkpt>
      <trkpt lat="44.17027" lon="6.96261">
        <ele>2401.318902906</ele>
        <time>2021-11-18T10:32:41Z</time>
      </trkpt>
      <trkpt lat="44.17027" lon="6.96261">
        <ele>2402.3189235255</ele>
        <time>2021-11-18T10:32:42Z</time>
      </trkpt>
      <trkpt lat="44.17026" lon="6.9626">
        <ele>2402.3189471625</ele>
        <time>2021-11-18T10:32:43Z</time>
      </trkpt>
      <trkpt lat="44.17026" lon="6.9626">
        <ele>2401.3189786784</ele>
        <time>2021-11-18T10:32:44Z</time>
      </trkpt>
      <trkpt lat="44.17024" lon="6.96259">
        <ele>2401.3190546185</ele>
        <time>2021-11-18T10:32:46Z</time>
      </trkpt>
      <trkpt lat="44.17023" lon="6.96259">
        <ele>2401.3190871403</ele>
        <time>2021-11-18T10:32:47Z</time>
      </trkpt>
      <trkpt lat="44.17022" lon="6.96259">
        <ele>2400.3191391081</ele>
        <time>2021-11-18T10:32:48Z</time>
      </trkpt>
      <trkpt lat="44.17021" lon="6.96259">
        <ele>2400.3191624098</ele>
        <time>2021-11-18T10:32:49Z</time>
      </trkpt>
      <trkpt lat="44.1702" lon="6.96259">
        <ele>2400.3191842027</ele>
        <time>2021-11-18T10:32:50Z</time>
      </trkpt>
      <trkpt lat="44.1702" lon="6.96259">
        <ele>2400.3192195743</ele>
        <time>2021-11-18T10:32:51Z</time>
      </trkpt>
      <trkpt lat="44.17019" lon="6.96259">
        <ele>2400.3192398585</ele>
        <time>2021-11-18T10:32:52Z</time>
      </trkpt>
      <trkpt lat="44.17018" lon="6.9626">
        <ele>2400.3192735538</ele>
        <time>2021-11-18T10:32:53Z</time>
      </trkpt>
      <trkpt lat="44.17017" lon="6.96259">
        <ele>2400.3193060756</ele>
        <time>2021-11-18T10:32:54Z</time>
      </trkpt>
      <trkpt lat="44.17017" lon="6.96259">
        <ele>2400.3193365857</ele>
        <time>2021-11-18T10:32:55Z</time>
      </trkpt>
      <trkpt lat="44.17016" lon="6.96259">
        <ele>2400.3193706162</ele>
        <time>2021-11-18T10:32:56Z</time>
      </trkpt>
      <trkpt lat="44.17015" lon="6.96259">
        <ele>2400.3194051497</ele>
        <time>2021-11-18T10:32:57Z</time>
      </trkpt>
      <trkpt lat="44.17014" lon="6.96259">
        <ele>2400.3194321394</ele>
        <time>2021-11-18T10:32:58Z</time>
      </trkpt>
      <trkpt lat="44.17014" lon="6.9626">
        <ele>2400.3194614761</ele>
        <time>2021-11-18T10:32:59Z</time>
      </trkpt>
      <trkpt lat="44.17013" lon="6.9626">
        <ele>2399.3195007034</ele>
        <time>2021-11-18T10:33:00Z</time>
      </trkpt>
      <trkpt lat="44.17012" lon="6.96261">
        <ele>2400.3195305429</ele>
        <time>2021-11-18T10:33:01Z</time>
      </trkpt>
      <trkpt lat="44.17011" lon="6.96262">
        <ele>2400.3195623942</ele>
        <time>2021-11-18T10:33:02Z</time>
      </trkpt>
      <trkpt lat="44.1701" lon="6.96262">
        <ele>2400.3195952512</ele>
        <time>2021-11-18T10:33:03Z</time>
      </trkpt>
      <trkpt lat="44.17008" lon="6.96263">
        <ele>2400.3196654916</ele>
        <time>2021-11-18T10:33:05Z</time>
      </trkpt>
      <trkpt lat="44.17008" lon="6.96263">
        <ele>2400.3196867816</ele>
        <time>2021-11-18T10:33:06Z</time>
      </trkpt>
      <trkpt lat="44.17007" lon="6.96264">
        <ele>2400.3197095804</ele>
        <time>2021-11-18T10:33:07Z</time>
      </trkpt>
      <trkpt lat="44.17006" lon="6.96265">
        <ele>2400.3197494783</ele>
        <time>2021-11-18T10:33:08Z</time>
      </trkpt>
      <trkpt lat="44.17005" lon="6.96265">
        <ele>2401.3197892085</ele>
        <time>2021-11-18T10:33:09Z</time>
      </trkpt>
      <trkpt lat="44.17005" lon="6.96266">
        <ele>2401.3198188804</ele>
        <time>2021-11-18T10:33:10Z</time>
      </trkpt>
      <trkpt lat="44.17004" lon="6.96266">
        <ele>2401.3198571019</ele>
        <time>2021-11-18T10:33:11Z</time>
      </trkpt>
      <trkpt lat="44.17003" lon="6.96266">
        <ele>2401.3198861033</ele>
        <time>2021-11-18T10:33:12Z</time>
      </trkpt>
      <trkpt lat="44.17002" lon="6.96266">
        <ele>2401.3199104108</ele>
        <time>2021-11-18T10:33:13Z</time>
      </trkpt>
      <trkpt lat="44.17001" lon="6.96264">
        <ele>2401.3199670725</ele>
        <time>2021-11-18T10:33:15Z</time>
      </trkpt>
      <trkpt lat="44.17" lon="6.96264">
        <ele>2401.3199989237</ele>
        <time>2021-11-18T10:33:16Z</time>
      </trkpt>
      <trkpt lat="44.16999" lon="6.96265">
        <ele>2401.3200438507</ele>
        <time>2021-11-18T10:33:17Z</time>
      </trkpt>
      <trkpt lat="44.16998" lon="6.96265">
        <ele>2401.3200820722</ele>
        <time>2021-11-18T10:33:18Z</time>
      </trkpt>
      <trkpt lat="44.16996" lon="6.96265">
        <ele>2402.3201556653</ele>
        <time>2021-11-18T10:33:20Z</time>
      </trkpt>
      <trkpt lat="44.16995" lon="6.96265">
        <ele>2402.3201870136</ele>
        <time>2021-11-18T10:33:21Z</time>
      </trkpt>
      <trkpt lat="44.16995" lon="6.96265">
        <ele>2402.320221547</ele>
        <time>2021-11-18T10:33:22Z</time>
      </trkpt>
      <trkpt lat="44.16994" lon="6.96265">
        <ele>2402.3202497102</ele>
        <time>2021-11-18T10:33:23Z</time>
      </trkpt>
      <trkpt lat="44.16993" lon="6.96266">
        <ele>2402.3202877641</ele>
        <time>2021-11-18T10:33:24Z</time>
      </trkpt>
      <trkpt lat="44.16992" lon="6.96266">
        <ele>2401.3203266561</ele>
        <time>2021-11-18T10:33:25Z</time>
      </trkpt>
      <trkpt lat="44.1699" lon="6.96266">
        <ele>2401.3204022609</ele>
        <time>2021-11-18T10:33:27Z</time>
      </trkpt>
      <trkpt lat="44.16989" lon="6.96266">
        <ele>2401.320436459</ele>
        <time>2021-11-18T10:33:28Z</time>
      </trkpt>
      <trkpt lat="44.16988" lon="6.96266">
        <ele>2401.3204753511</ele>
        <time>2021-11-18T10:33:29Z</time>
      </trkpt>
      <trkpt lat="44.16987" lon="6.96266">
        <ele>2401.3205023408</ele>
        <time>2021-11-18T10:33:30Z</time>
      </trkpt>
      <trkpt lat="44.16986" lon="6.96267">
        <ele>2401.3205457591</ele>
        <time>2021-11-18T10:33:32Z</time>
      </trkpt>
      <trkpt lat="44.16986" lon="6.96267">
        <ele>2401.3205799572</ele>
        <time>2021-11-18T10:33:35Z</time>
      </trkpt>
      <trkpt lat="44.16984" lon="6.96267">
        <ele>2400.3206470124</ele>
        <time>2021-11-18T10:33:36Z</time>
      </trkpt>
      <trkpt lat="44.16983" lon="6.96267">
        <ele>2400.3206812106</ele>
        <time>2021-11-18T10:33:37Z</time>
      </trkpt>
      <trkpt lat="44.16982" lon="6.96266">
        <ele>2400.3207144029</ele>
        <time>2021-11-18T10:33:38Z</time>
      </trkpt>
      <trkpt lat="44.16982" lon="6.96266">
        <ele>2400.3207348548</ele>
        <time>2021-11-18T10:33:39Z</time>
      </trkpt>
      <trkpt lat="44.16981" lon="6.96265">
        <ele>2401.3207688853</ele>
        <time>2021-11-18T10:33:41Z</time>
      </trkpt>
      <trkpt lat="44.16981" lon="6.96265">
        <ele>2401.3207688853</ele>
        <time>2021-11-18T10:33:42Z</time>
      </trkpt>
      <trkpt lat="44.1698" lon="6.96264">
        <ele>2401.3208126388</ele>
        <time>2021-11-18T10:33:43Z</time>
      </trkpt>
      <trkpt lat="44.16979" lon="6.96264">
        <ele>2401.3208463341</ele>
        <time>2021-11-18T10:33:44Z</time>
      </trkpt>
      <trkpt lat="44.16978" lon="6.96263">
        <ele>2401.3208791912</ele>
        <time>2021-11-18T10:33:45Z</time>
      </trkpt>
      <trkpt lat="44.16977" lon="6.96264">
        <ele>2401.3209110424</ele>
        <time>2021-11-18T10:33:46Z</time>
      </trkpt>
      <trkpt lat="44.16977" lon="6.96264">
        <ele>2401.3209363557</ele>
        <time>2021-11-18T10:33:47Z</time>
      </trkpt>
      <trkpt lat="44.16976" lon="6.96264">
        <ele>2401.3209574781</ele>
        <time>2021-11-18T10:33:48Z</time>
      </trkpt>
      <trkpt lat="44.16976" lon="6.96264">
        <ele>2401.3209804446</ele>
        <time>2021-11-18T10:33:49Z</time>
      </trkpt>
      <trkpt lat="44.16975" lon="6.96264">
        <ele>2402.32099922</ele>
        <time>2021-11-18T10:33:50Z</time>
      </trkpt>
      <trkpt lat="44.16974" lon="6.96264">
        <ele>2402.3210377768</ele>
        <time>2021-11-18T10:33:51Z</time>
      </trkpt>
      <trkpt lat="44.16973" lon="6.96264">
        <ele>2402.3210627548</ele>
        <time>2021-11-18T10:33:52Z</time>
      </trkpt>
      <trkpt lat="44.16973" lon="6.96264">
        <ele>2402.3210949413</ele>
        <time>2021-11-18T10:33:53Z</time>
      </trkpt>
      <trkpt lat="44.16972" lon="6.96264">
        <ele>2402.3211229369</ele>
        <time>2021-11-18T10:33:54Z</time>
      </trkpt>
      <trkpt lat="44.16971" lon="6.96265">
        <ele>2401.3211512677</ele>
        <time>2021-11-18T10:33:55Z</time>
      </trkpt>
      <trkpt lat="44.16971" lon="6.96265">
        <ele>2402.3211780898</ele>
        <time>2021-11-18T10:33:56Z</time>
      </trkpt>
      <trkpt lat="44.1697" lon="6.96265">
        <ele>2402.3212070912</ele>
        <time>2021-11-18T10:33:57Z</time>
      </trkpt>
      <trkpt lat="44.16969" lon="6.96265">
        <ele>2402.3212397806</ele>
        <time>2021-11-18T10:33:58Z</time>
      </trkpt>
      <trkpt lat="44.16968" lon="6.96265">
        <ele>2402.321268782</ele>
        <time>2021-11-18T10:33:59Z</time>
      </trkpt>
      <trkpt lat="44.16968" lon="6.96266">
        <ele>2402.3212964423</ele>
        <time>2021-11-18T10:34:00Z</time>
      </trkpt>
      <trkpt lat="44.16967" lon="6.96266">
        <ele>2402.3213235997</ele>
        <time>2021-11-18T10:34:01Z</time>
      </trkpt>
      <trkpt lat="44.16966" lon="6.96266">
        <ele>2402.3213460632</ele>
        <time>2021-11-18T10:34:02Z</time>
      </trkpt>
      <trkpt lat="44.16966" lon="6.96266">
        <ele>2402.3213784173</ele>
        <time>2021-11-18T10:34:03Z</time>
      </trkpt>
      <trkpt lat="44.16965" lon="6.96267">
        <ele>2403.32141513</ele>
        <time>2021-11-18T10:34:04Z</time>
      </trkpt>
      <trkpt lat="44.16964" lon="6.96267">
        <ele>2403.3214394376</ele>
        <time>2021-11-18T10:34:05Z</time>
      </trkpt>
      <trkpt lat="44.16963" lon="6.96267">
        <ele>2403.3214696124</ele>
        <time>2021-11-18T10:34:06Z</time>
      </trkpt>
      <trkpt lat="44.16962" lon="6.96268">
        <ele>2403.3215046488</ele>
        <time>2021-11-18T10:34:07Z</time>
      </trkpt>
      <trkpt lat="44.16962" lon="6.96268">
        <ele>2403.3215333149</ele>
        <time>2021-11-18T10:34:08Z</time>
      </trkpt>
      <trkpt lat="44.16961" lon="6.96268">
        <ele>2403.3215544373</ele>
        <time>2021-11-18T10:34:09Z</time>
      </trkpt>
      <trkpt lat="44.16961" lon="6.96269">
        <ele>2403.3215618134</ele>
        <time>2021-11-18T10:34:12Z</time>
      </trkpt>
      <trkpt lat="44.16959" lon="6.9627">
        <ele>2403.3216461353</ele>
        <time>2021-11-18T10:34:13Z</time>
      </trkpt>
      <trkpt lat="44.16958" lon="6.9627">
        <ele>2404.3216734603</ele>
        <time>2021-11-18T10:34:14Z</time>
      </trkpt>
      <trkpt lat="44.16957" lon="6.96271">
        <ele>2403.3217021264</ele>
        <time>2021-11-18T10:34:23Z</time>
      </trkpt>
      <trkpt lat="44.16955" lon="6.96272">
        <ele>2403.3217894658</ele>
        <time>2021-11-18T10:34:24Z</time>
      </trkpt>
      <trkpt lat="44.16955" lon="6.96272">
        <ele>2404.321807906</ele>
        <time>2021-11-18T10:34:25Z</time>
      </trkpt>
      <trkpt lat="44.16953" lon="6.96272">
        <ele>2404.3218644001</ele>
        <time>2021-11-18T10:34:27Z</time>
      </trkpt>
      <trkpt lat="44.16953" lon="6.96272">
        <ele>2404.3218644001</ele>
        <time>2021-11-18T10:34:29Z</time>
      </trkpt>
      <trkpt lat="44.16952" lon="6.96273">
        <ele>2404.3219203912</ele>
        <time>2021-11-18T10:34:30Z</time>
      </trkpt>
      <trkpt lat="44.16951" lon="6.96274">
        <ele>2406.3219592832</ele>
        <time>2021-11-18T10:34:32Z</time>
      </trkpt>
      <trkpt lat="44.16951" lon="6.96275">
        <ele>2406.3219740354</ele>
        <time>2021-11-18T10:34:36Z</time>
      </trkpt>
      <trkpt lat="44.1695" lon="6.96276">
        <ele>2406.3220100775</ele>
        <time>2021-11-18T10:34:37Z</time>
      </trkpt>
      <trkpt lat="44.16949" lon="6.96277">
        <ele>2407.3220305294</ele>
        <time>2021-11-18T10:34:39Z</time>
      </trkpt>
      <trkpt lat="44.16949" lon="6.96278">
        <ele>2407.322033044</ele>
        <time>2021-11-18T10:34:42Z</time>
      </trkpt>
      <trkpt lat="44.16949" lon="6.9628">
        <ele>2407.3220479637</ele>
        <time>2021-11-18T10:34:43Z</time>
      </trkpt>
      <trkpt lat="44.16949" lon="6.96281">
        <ele>2407.3220570162</ele>
        <time>2021-11-18T10:34:45Z</time>
      </trkpt>
      <trkpt lat="44.16948" lon="6.96281">
        <ele>2407.3220739476</ele>
        <time>2021-11-18T10:34:46Z</time>
      </trkpt>
      <trkpt lat="44.16948" lon="6.96282">
        <ele>2407.3220925555</ele>
        <time>2021-11-18T10:34:50Z</time>
      </trkpt>
      <trkpt lat="44.16946" lon="6.96284">
        <ele>2407.322146032</ele>
        <time>2021-11-18T10:34:51Z</time>
      </trkpt>
      <trkpt lat="44.16946" lon="6.96284">
        <ele>2407.3221627958</ele>
        <time>2021-11-18T10:34:52Z</time>
      </trkpt>
      <trkpt lat="44.16945" lon="6.96286">
        <ele>2408.3221844211</ele>
        <time>2021-11-18T10:34:53Z</time>
      </trkpt>
      <trkpt lat="44.16945" lon="6.96287">
        <ele>2407.322212249</ele>
        <time>2021-11-18T10:34:54Z</time>
      </trkpt>
      <trkpt lat="44.16944" lon="6.96289">
        <ele>2407.3222422563</ele>
        <time>2021-11-18T10:34:56Z</time>
      </trkpt>
      <trkpt lat="44.16944" lon="6.96291">
        <ele>2407.3222380653</ele>
        <time>2021-11-18T10:34:57Z</time>
      </trkpt>
      <trkpt lat="44.16944" lon="6.96292">
        <ele>2407.3222472854</ele>
        <time>2021-11-18T10:34:58Z</time>
      </trkpt>
      <trkpt lat="44.16944" lon="6.96293">
        <ele>2407.3222523145</ele>
        <time>2021-11-18T10:34:59Z</time>
      </trkpt>
      <trkpt lat="44.16944" lon="6.96294">
        <ele>2408.3222548291</ele>
        <time>2021-11-18T10:35:00Z</time>
      </trkpt>
      <trkpt lat="44.16944" lon="6.96295">
        <ele>2408.3222539909</ele>
        <time>2021-11-18T10:35:03Z</time>
      </trkpt>
      <trkpt lat="44.16943" lon="6.96297">
        <ele>2408.3222741075</ele>
        <time>2021-11-18T10:35:04Z</time>
      </trkpt>
      <trkpt lat="44.16942" lon="6.96297">
        <ele>2408.322302103</ele>
        <time>2021-11-18T10:35:05Z</time>
      </trkpt>
      <trkpt lat="44.16942" lon="6.96297">
        <ele>2408.3223379776</ele>
        <time>2021-11-18T10:35:06Z</time>
      </trkpt>
      <trkpt lat="44.16941" lon="6.96297">
        <ele>2408.3223684877</ele>
        <time>2021-11-18T10:35:07Z</time>
      </trkpt>
      <trkpt lat="44.1694" lon="6.96297">
        <ele>2409.3224023506</ele>
        <time>2021-11-18T10:35:08Z</time>
      </trkpt>
      <trkpt lat="44.16939" lon="6.96297">
        <ele>2409.3224318549</ele>
        <time>2021-11-18T10:35:09Z</time>
      </trkpt>
      <trkpt lat="44.16939" lon="6.96297">
        <ele>2409.3224601857</ele>
        <time>2021-11-18T10:35:10Z</time>
      </trkpt>
      <trkpt lat="44.16938" lon="6.96297">
        <ele>2409.3224742673</ele>
        <time>2021-11-18T10:35:11Z</time>
      </trkpt>
      <trkpt lat="44.16937" lon="6.96297">
        <ele>2409.3225031011</ele>
        <time>2021-11-18T10:35:12Z</time>
      </trkpt>
      <trkpt lat="44.16937" lon="6.96297">
        <ele>2409.3225264028</ele>
        <time>2021-11-18T10:35:13Z</time>
      </trkpt>
      <trkpt lat="44.16936" lon="6.96297">
        <ele>2409.322561942</ele>
        <time>2021-11-18T10:35:14Z</time>
      </trkpt>
      <trkpt lat="44.16935" lon="6.96296">
        <ele>2409.3226001635</ele>
        <time>2021-11-18T10:35:15Z</time>
      </trkpt>
      <trkpt lat="44.16934" lon="6.96296">
        <ele>2408.3226422407</ele>
        <time>2021-11-18T10:35:16Z</time>
      </trkpt>
      <trkpt lat="44.16933" lon="6.96295">
        <ele>2408.3226881735</ele>
        <time>2021-11-18T10:35:17Z</time>
      </trkpt>
      <trkpt lat="44.16932" lon="6.96296">
        <ele>2408.3227161691</ele>
        <time>2021-11-18T10:35:18Z</time>
      </trkpt>
      <trkpt lat="44.16931" lon="6.96296">
        <ele>2407.3227626048</ele>
        <time>2021-11-18T10:35:20Z</time>
      </trkpt>
      <trkpt lat="44.1693" lon="6.96296">
        <ele>2407.3228003234</ele>
        <time>2021-11-18T10:35:21Z</time>
      </trkpt>
      <trkpt lat="44.16929" lon="6.96295">
        <ele>2407.3228365332</ele>
        <time>2021-11-18T10:35:22Z</time>
      </trkpt>
      <trkpt lat="44.16928" lon="6.96296">
        <ele>2406.3228670433</ele>
        <time>2021-11-18T10:35:23Z</time>
      </trkpt>
      <trkpt lat="44.16928" lon="6.96296">
        <ele>2407.3228841424</ele>
        <time>2021-11-18T10:35:24Z</time>
      </trkpt>
      <trkpt lat="44.16927" lon="6.96295">
        <ele>2407.3229205199</ele>
        <time>2021-11-18T10:35:26Z</time>
      </trkpt>
      <trkpt lat="44.16926" lon="6.96295">
        <ele>2407.3229453303</ele>
        <time>2021-11-18T10:35:27Z</time>
      </trkpt>
      <trkpt lat="44.16926" lon="6.96295">
        <ele>2407.322976511</ele>
        <time>2021-11-18T10:35:28Z</time>
      </trkpt>
      <trkpt lat="44.16924" lon="6.96294">
        <ele>2407.3230291493</ele>
        <time>2021-11-18T10:35:29Z</time>
      </trkpt>
      <trkpt lat="44.16924" lon="6.96293">
        <ele>2407.3230558038</ele>
        <time>2021-11-18T10:35:30Z</time>
      </trkpt>
      <trkpt lat="44.16923" lon="6.96293">
        <ele>2407.3230873197</ele>
        <time>2021-11-18T10:35:31Z</time>
      </trkpt>
      <trkpt lat="44.16922" lon="6.96293">
        <ele>2407.3231258765</ele>
        <time>2021-11-18T10:35:32Z</time>
      </trkpt>
      <trkpt lat="44.16921" lon="6.96293">
        <ele>2407.3231669478</ele>
        <time>2021-11-18T10:35:33Z</time>
      </trkpt>
      <trkpt lat="44.16919" lon="6.96293">
        <ele>2407.3232604899</ele>
        <time>2021-11-18T10:35:35Z</time>
      </trkpt>
      <trkpt lat="44.16917" lon="6.96292">
        <ele>2406.3233049139</ele>
        <time>2021-11-18T10:35:36Z</time>
      </trkpt>
      <trkpt lat="44.16917" lon="6.96292">
        <ele>2407.3233325742</ele>
        <time>2021-11-18T10:35:37Z</time>
      </trkpt>
      <trkpt lat="44.16916" lon="6.96292">
        <ele>2407.3233585581</ele>
        <time>2021-11-18T10:35:38Z</time>
      </trkpt>
      <trkpt lat="44.16916" lon="6.96291">
        <ele>2407.3233816922</ele>
        <time>2021-11-18T10:35:39Z</time>
      </trkpt>
      <trkpt lat="44.16915" lon="6.96291">
        <ele>2407.3234103583</ele>
        <time>2021-11-18T10:35:40Z</time>
      </trkpt>
      <trkpt lat="44.16913" lon="6.96291">
        <ele>2407.3234811015</ele>
        <time>2021-11-18T10:35:42Z</time>
      </trkpt>
      <trkpt lat="44.16912" lon="6.96291">
        <ele>2407.323513791</ele>
        <time>2021-11-18T10:35:43Z</time>
      </trkpt>
      <trkpt lat="44.16911" lon="6.96291">
        <ele>2407.3235427924</ele>
        <time>2021-11-18T10:35:44Z</time>
      </trkpt>
      <trkpt lat="44.16911" lon="6.96291">
        <ele>2407.3235806786</ele>
        <time>2021-11-18T10:35:45Z</time>
      </trkpt>
      <trkpt lat="44.16909" lon="6.9629">
        <ele>2407.3236587979</ele>
        <time>2021-11-18T10:35:47Z</time>
      </trkpt>
      <trkpt lat="44.16908" lon="6.9629">
        <ele>2407.3236976899</ele>
        <time>2021-11-18T10:35:48Z</time>
      </trkpt>
      <trkpt lat="44.16907" lon="6.9629">
        <ele>2407.3237282</ele>
        <time>2021-11-18T10:35:49Z</time>
      </trkpt>
      <trkpt lat="44.16905" lon="6.96289">
        <ele>2407.3237905614</ele>
        <time>2021-11-18T10:35:51Z</time>
      </trkpt>
      <trkpt lat="44.16904" lon="6.96288">
        <ele>2407.3238348179</ele>
        <time>2021-11-18T10:35:52Z</time>
      </trkpt>
      <trkpt lat="44.16903" lon="6.96287">
        <ele>2407.3238730393</ele>
        <time>2021-11-18T10:35:53Z</time>
      </trkpt>
      <trkpt lat="44.16902" lon="6.96287">
        <ele>2407.3239094168</ele>
        <time>2021-11-18T10:35:54Z</time>
      </trkpt>
      <trkpt lat="44.16902" lon="6.96286">
        <ele>2408.3239291981</ele>
        <time>2021-11-18T10:35:55Z</time>
      </trkpt>
      <trkpt lat="44.16901" lon="6.96286">
        <ele>2409.323953338</ele>
        <time>2021-11-18T10:35:57Z</time>
      </trkpt>
      <trkpt lat="44.169" lon="6.96286">
        <ele>2409.3239826746</ele>
        <time>2021-11-18T10:35:58Z</time>
      </trkpt>
      <trkpt lat="44.169" lon="6.96285">
        <ele>2410.3240004443</ele>
        <time>2021-11-18T10:35:59Z</time>
      </trkpt>
      <trkpt lat="44.169" lon="6.96285">
        <ele>2410.324003797</ele>
        <time>2021-11-18T10:36:00Z</time>
      </trkpt>
      <trkpt lat="44.16898" lon="6.96284">
        <ele>2409.3240653202</ele>
        <time>2021-11-18T10:36:02Z</time>
      </trkpt>
      <trkpt lat="44.16898" lon="6.96284">
        <ele>2408.3240849338</ele>
        <time>2021-11-18T10:36:03Z</time>
      </trkpt>
      <trkpt lat="44.16897" lon="6.96283">
        <ele>2408.3241189644</ele>
        <time>2021-11-18T10:36:04Z</time>
      </trkpt>
      <trkpt lat="44.16896" lon="6.96282">
        <ele>2408.324165903</ele>
        <time>2021-11-18T10:36:06Z</time>
      </trkpt>
      <trkpt lat="44.16895" lon="6.96282">
        <ele>2408.3241830021</ele>
        <time>2021-11-18T10:36:07Z</time>
      </trkpt>
      <trkpt lat="44.16895" lon="6.96282">
        <ele>2408.3242098242</ele>
        <time>2021-11-18T10:36:08Z</time>
      </trkpt>
      <trkpt lat="44.16894" lon="6.96282">
        <ele>2409.3242438547</ele>
        <time>2021-11-18T10:36:09Z</time>
      </trkpt>
      <trkpt lat="44.16893" lon="6.96281">
        <ele>2409.3242745325</ele>
        <time>2021-11-18T10:36:10Z</time>
      </trkpt>
      <trkpt lat="44.16893" lon="6.96281">
        <ele>2409.3242948167</ele>
        <time>2021-11-18T10:36:11Z</time>
      </trkpt>
      <trkpt lat="44.16892" lon="6.96282">
        <ele>2409.3243296854</ele>
        <time>2021-11-18T10:36:12Z</time>
      </trkpt>
      <trkpt lat="44.16891" lon="6.96282">
        <ele>2409.3243570104</ele>
        <time>2021-11-18T10:36:14Z</time>
      </trkpt>
      <trkpt lat="44.1689" lon="6.96283">
        <ele>2409.3243945614</ele>
        <time>2021-11-18T10:36:15Z</time>
      </trkpt>
      <trkpt lat="44.16889" lon="6.96283">
        <ele>2409.3244306035</ele>
        <time>2021-11-18T10:36:16Z</time>
      </trkpt>
      <trkpt lat="44.16888" lon="6.96283">
        <ele>2409.3244624548</ele>
        <time>2021-11-18T10:36:17Z</time>
      </trkpt>
      <trkpt lat="44.16888" lon="6.96283">
        <ele>2408.3244933002</ele>
        <time>2021-11-18T10:36:18Z</time>
      </trkpt>
      <trkpt lat="44.16887" lon="6.96283">
        <ele>2409.3245217986</ele>
        <time>2021-11-18T10:36:21Z</time>
      </trkpt>
      <trkpt lat="44.16886" lon="6.96281">
        <ele>2410.3245735988</ele>
        <time>2021-11-18T10:36:22Z</time>
      </trkpt>
      <trkpt lat="44.16885" lon="6.96281">
        <ele>2410.3245935477</ele>
        <time>2021-11-18T10:36:24Z</time>
      </trkpt>
      <trkpt lat="44.16885" lon="6.96281">
        <ele>2410.3246168494</ele>
        <time>2021-11-18T10:36:25Z</time>
      </trkpt>
      <trkpt lat="44.16883" lon="6.96281">
        <ele>2411.3246639557</ele>
        <time>2021-11-18T10:36:27Z</time>
      </trkpt>
      <trkpt lat="44.16883" lon="6.96281">
        <ele>2411.3246939629</ele>
        <time>2021-11-18T10:36:28Z</time>
      </trkpt>
      <trkpt lat="44.16882" lon="6.9628">
        <ele>2411.3247197792</ele>
        <time>2021-11-18T10:36:30Z</time>
      </trkpt>
      <trkpt lat="44.16881" lon="6.9628">
        <ele>2410.3247551508</ele>
        <time>2021-11-18T10:36:31Z</time>
      </trkpt>
      <trkpt lat="44.1688" lon="6.96281">
        <ele>2410.3247886784</ele>
        <time>2021-11-18T10:36:32Z</time>
      </trkpt>
      <trkpt lat="44.1688" lon="6.96281">
        <ele>2411.3248205297</ele>
        <time>2021-11-18T10:36:33Z</time>
      </trkpt>
      <trkpt lat="44.16878" lon="6.96281">
        <ele>2412.3248760179</ele>
        <time>2021-11-18T10:36:35Z</time>
      </trkpt>
      <trkpt lat="44.16878" lon="6.96281">
        <ele>2412.3248996548</ele>
        <time>2021-11-18T10:36:36Z</time>
      </trkpt>
      <trkpt lat="44.16877" lon="6.96281">
        <ele>2412.324919939</ele>
        <time>2021-11-18T10:36:37Z</time>
      </trkpt>
      <trkpt lat="44.16876" lon="6.96281">
        <ele>2412.3249529637</ele>
        <time>2021-11-18T10:36:38Z</time>
      </trkpt>
      <trkpt lat="44.16876" lon="6.96281">
        <ele>2413.3249764331</ele>
        <time>2021-11-18T10:36:39Z</time>
      </trkpt>
      <trkpt lat="44.16875" lon="6.96281">
        <ele>2413.3249957114</ele>
        <time>2021-11-18T10:36:40Z</time>
      </trkpt>
      <trkpt lat="44.16874" lon="6.9628">
        <ele>2413.3250426501</ele>
        <time>2021-11-18T10:36:42Z</time>
      </trkpt>
      <trkpt lat="44.16873" lon="6.9628">
        <ele>2413.3250629343</ele>
        <time>2021-11-18T10:36:43Z</time>
      </trkpt>
      <trkpt lat="44.16873" lon="6.9628">
        <ele>2414.3250969648</ele>
        <time>2021-11-18T10:36:44Z</time>
      </trkpt>
      <trkpt lat="44.16872" lon="6.9628">
        <ele>2413.3251202665</ele>
        <time>2021-11-18T10:36:45Z</time>
      </trkpt>
      <trkpt lat="44.16872" lon="6.9628">
        <ele>2413.3251402155</ele>
        <time>2021-11-18T10:36:48Z</time>
      </trkpt>
      <trkpt lat="44.1687" lon="6.96281">
        <ele>2412.3252133057</ele>
        <time>2021-11-18T10:36:50Z</time>
      </trkpt>
      <trkpt lat="44.16869" lon="6.96282">
        <ele>2412.3252537064</ele>
        <time>2021-11-18T10:36:51Z</time>
      </trkpt>
      <trkpt lat="44.16868" lon="6.96282">
        <ele>2412.3252820373</ele>
        <time>2021-11-18T10:36:53Z</time>
      </trkpt>
      <trkpt lat="44.16867" lon="6.96282">
        <ele>2412.3253073506</ele>
        <time>2021-11-18T10:36:54Z</time>
      </trkpt>
      <trkpt lat="44.16867" lon="6.96282">
        <ele>2412.3253244497</ele>
        <time>2021-11-18T10:36:55Z</time>
      </trkpt>
      <trkpt lat="44.16865" lon="6.96281">
        <ele>2413.325389158</ele>
        <time>2021-11-18T10:36:57Z</time>
      </trkpt>
      <trkpt lat="44.16864" lon="6.96281">
        <ele>2413.3254252002</ele>
        <time>2021-11-18T10:36:58Z</time>
      </trkpt>
      <trkpt lat="44.16864" lon="6.96281">
        <ele>2413.3254560456</ele>
        <time>2021-11-18T10:36:59Z</time>
      </trkpt>
      <trkpt lat="44.16863" lon="6.96281">
        <ele>2413.3254915848</ele>
        <time>2021-11-18T10:37:00Z</time>
      </trkpt>
      <trkpt lat="44.16862" lon="6.96282">
        <ele>2413.3255096897</ele>
        <time>2021-11-18T10:37:01Z</time>
      </trkpt>
      <trkpt lat="44.16862" lon="6.96282">
        <ele>2413.325529471</ele>
        <time>2021-11-18T10:37:02Z</time>
      </trkpt>
      <trkpt lat="44.16861" lon="6.96282">
        <ele>2414.325557299</ele>
        <time>2021-11-18T10:37:03Z</time>
      </trkpt>
      <trkpt lat="44.1686" lon="6.96282">
        <ele>2414.3255914971</ele>
        <time>2021-11-18T10:37:04Z</time>
      </trkpt>
      <trkpt lat="44.16859" lon="6.96281">
        <ele>2414.3256344125</ele>
        <time>2021-11-18T10:37:06Z</time>
      </trkpt>
      <trkpt lat="44.16858" lon="6.96282">
        <ele>2413.3256677724</ele>
        <time>2021-11-18T10:37:07Z</time>
      </trkpt>
      <trkpt lat="44.16858" lon="6.96282">
        <ele>2413.3256969415</ele>
        <time>2021-11-18T10:37:08Z</time>
      </trkpt>
      <trkpt lat="44.16857" lon="6.96282">
        <ele>2414.325727284</ele>
        <time>2021-11-18T10:37:09Z</time>
      </trkpt>
      <trkpt lat="44.16856" lon="6.96282">
        <ele>2413.3257529326</ele>
        <time>2021-11-18T10:37:12Z</time>
      </trkpt>
      <trkpt lat="44.16854" lon="6.96281">
        <ele>2413.32582267</ele>
        <time>2021-11-18T10:37:13Z</time>
      </trkpt>
      <trkpt lat="44.16854" lon="6.96282">
        <ele>2414.3258551918</ele>
        <time>2021-11-18T10:37:15Z</time>
      </trkpt>
      <trkpt lat="44.16853" lon="6.96281">
        <ele>2414.3258753084</ele>
        <time>2021-11-18T10:37:17Z</time>
      </trkpt>
      <trkpt lat="44.16852" lon="6.96281">
        <ele>2414.3259257674</ele>
        <time>2021-11-18T10:37:18Z</time>
      </trkpt>
      <trkpt lat="44.16851" lon="6.9628">
        <ele>2414.3259497397</ele>
        <time>2021-11-18T10:37:19Z</time>
      </trkpt>
      <trkpt lat="44.16851" lon="6.9628">
        <ele>2414.3259599656</ele>
        <time>2021-11-18T10:37:20Z</time>
      </trkpt>
      <trkpt lat="44.16851" lon="6.9628">
        <ele>2415.3259794116</ele>
        <time>2021-11-18T10:37:21Z</time>
      </trkpt>
      <trkpt lat="44.1685" lon="6.96279">
        <ele>2416.3260089159</ele>
        <time>2021-11-18T10:37:25Z</time>
      </trkpt>
      <trkpt lat="44.16848" lon="6.96278">
        <ele>2416.3260655776</ele>
        <time>2021-11-18T10:37:27Z</time>
      </trkpt>
      <trkpt lat="44.16848" lon="6.96278">
        <ele>2416.3260887116</ele>
        <time>2021-11-18T10:37:28Z</time>
      </trkpt>
      <trkpt lat="44.16847" lon="6.96278">
        <ele>2415.3261146955</ele>
        <time>2021-11-18T10:37:30Z</time>
      </trkpt>
      <trkpt lat="44.16846" lon="6.96278">
        <ele>2415.3261685073</ele>
        <time>2021-11-18T10:37:32Z</time>
      </trkpt>
      <trkpt lat="44.16845" lon="6.96277">
        <ele>2415.3261879534</ele>
        <time>2021-11-18T10:37:33Z</time>
      </trkpt>
      <trkpt lat="44.16845" lon="6.96277">
        <ele>2414.3262048848</ele>
        <time>2021-11-18T10:37:34Z</time>
      </trkpt>
      <trkpt lat="44.16844" lon="6.96277">
        <ele>2414.3262229897</ele>
        <time>2021-11-18T10:37:36Z</time>
      </trkpt>
      <trkpt lat="44.16844" lon="6.96276">
        <ele>2415.3262541704</ele>
        <time>2021-11-18T10:37:38Z</time>
      </trkpt>
      <trkpt lat="44.16843" lon="6.96276">
        <ele>2414.3262814954</ele>
        <time>2021-11-18T10:37:40Z</time>
      </trkpt>
      <trkpt lat="44.16842" lon="6.96277">
        <ele>2415.3263182081</ele>
        <time>2021-11-18T10:37:42Z</time>
      </trkpt>
      <trkpt lat="44.16842" lon="6.96277">
        <ele>2415.3263411745</ele>
        <time>2021-11-18T10:37:43Z</time>
      </trkpt>
      <trkpt lat="44.16841" lon="6.96278">
        <ele>2415.3263586089</ele>
        <time>2021-11-18T10:37:44Z</time>
      </trkpt>
      <trkpt lat="44.16841" lon="6.96278">
        <ele>2415.3263804018</ele>
        <time>2021-11-18T10:37:45Z</time>
      </trkpt>
      <trkpt lat="44.16839" lon="6.96277">
        <ele>2415.326444272</ele>
        <time>2021-11-18T10:37:47Z</time>
      </trkpt>
      <trkpt lat="44.16838" lon="6.96277">
        <ele>2415.3264823258</ele>
        <time>2021-11-18T10:37:48Z</time>
      </trkpt>
      <trkpt lat="44.16838" lon="6.96278">
        <ele>2416.3264870197</ele>
        <time>2021-11-18T10:37:49Z</time>
      </trkpt>
      <trkpt lat="44.16837" lon="6.96276">
        <ele>2416.3265156858</ele>
        <time>2021-11-18T10:37:51Z</time>
      </trkpt>
      <trkpt lat="44.16837" lon="6.96277">
        <ele>2416.3265379816</ele>
        <time>2021-11-18T10:37:52Z</time>
      </trkpt>
      <trkpt lat="44.16836" lon="6.96277">
        <ele>2417.326566983</ele>
        <time>2021-11-18T10:37:53Z</time>
      </trkpt>
      <trkpt lat="44.16835" lon="6.96277">
        <ele>2416.3266085573</ele>
        <time>2021-11-18T10:37:54Z</time>
      </trkpt>
      <trkpt lat="44.16834" lon="6.96277">
        <ele>2416.3266573399</ele>
        <time>2021-11-18T10:37:56Z</time>
      </trkpt>
      <trkpt lat="44.16833" lon="6.96278">
        <ele>2416.3266974054</ele>
        <time>2021-11-18T10:37:57Z</time>
      </trkpt>
      <trkpt lat="44.16832" lon="6.96278">
        <ele>2416.3267324418</ele>
        <time>2021-11-18T10:37:58Z</time>
      </trkpt>
      <trkpt lat="44.16831" lon="6.96278">
        <ele>2416.3267637901</ele>
        <time>2021-11-18T10:37:59Z</time>
      </trkpt>
      <trkpt lat="44.1683" lon="6.96277">
        <ele>2416.3267954737</ele>
        <time>2021-11-18T10:38:00Z</time>
      </trkpt>
      <trkpt lat="44.16829" lon="6.96277">
        <ele>2416.3268276602</ele>
        <time>2021-11-18T10:38:01Z</time>
      </trkpt>
      <trkpt lat="44.16829" lon="6.96276">
        <ele>2417.3268516324</ele>
        <time>2021-11-18T10:38:02Z</time>
      </trkpt>
      <trkpt lat="44.16828" lon="6.96277">
        <ele>2417.326868061</ele>
        <time>2021-11-18T10:38:03Z</time>
      </trkpt>
      <trkpt lat="44.16827" lon="6.96277">
        <ele>2417.3269042708</ele>
        <time>2021-11-18T10:38:04Z</time>
      </trkpt>
      <trkpt lat="44.16827" lon="6.96277">
        <ele>2418.326936122</ele>
        <time>2021-11-18T10:38:06Z</time>
      </trkpt>
      <trkpt lat="44.16826" lon="6.96277">
        <ele>2417.3269667998</ele>
        <time>2021-11-18T10:38:07Z</time>
      </trkpt>
      <trkpt lat="44.16825" lon="6.96277">
        <ele>2417.3269984834</ele>
        <time>2021-11-18T10:38:09Z</time>
      </trkpt>
      <trkpt lat="44.16824" lon="6.96276">
        <ele>2417.3270422369</ele>
        <time>2021-11-18T10:38:11Z</time>
      </trkpt>
      <trkpt lat="44.16823" lon="6.96276">
        <ele>2417.3270767704</ele>
        <time>2021-11-18T10:38:13Z</time>
      </trkpt>
      <trkpt lat="44.16823" lon="6.96276">
        <ele>2418.3271009102</ele>
        <time>2021-11-18T10:38:14Z</time>
      </trkpt>
      <trkpt lat="44.16822" lon="6.96276">
        <ele>2417.3271203563</ele>
        <time>2021-11-18T10:38:15Z</time>
      </trkpt>
      <trkpt lat="44.16821" lon="6.96276">
        <ele>2418.3271522075</ele>
        <time>2021-11-18T10:38:16Z</time>
      </trkpt>
      <trkpt lat="44.1682" lon="6.96277">
        <ele>2418.3271864057</ele>
        <time>2021-11-18T10:38:17Z</time>
      </trkpt>
      <trkpt lat="44.1682" lon="6.96277">
        <ele>2419.3272157423</ele>
        <time>2021-11-18T10:38:19Z</time>
      </trkpt>
      <trkpt lat="44.16818" lon="6.96277">
        <ele>2419.3272630163</ele>
        <time>2021-11-18T10:38:20Z</time>
      </trkpt>
      <trkpt lat="44.16818" lon="6.96277">
        <ele>2419.3272965439</ele>
        <time>2021-11-18T10:38:21Z</time>
      </trkpt>
      <trkpt lat="44.16817" lon="6.96278">
        <ele>2419.3273397945</ele>
        <time>2021-11-18T10:38:22Z</time>
      </trkpt>
      <trkpt lat="44.16816" lon="6.96278">
        <ele>2419.3273686282</ele>
        <time>2021-11-18T10:38:23Z</time>
      </trkpt>
      <trkpt lat="44.16815" lon="6.96278">
        <ele>2419.3274001442</ele>
        <time>2021-11-18T10:38:24Z</time>
      </trkpt>
      <trkpt lat="44.16814" lon="6.96278">
        <ele>2419.3274293132</ele>
        <time>2021-11-18T10:38:26Z</time>
      </trkpt>
      <trkpt lat="44.16814" lon="6.96278">
        <ele>2420.3274573088</ele>
        <time>2021-11-18T10:38:27Z</time>
      </trkpt>
      <trkpt lat="44.16813" lon="6.96278">
        <ele>2419.3274896629</ele>
        <time>2021-11-18T10:38:28Z</time>
      </trkpt>
      <trkpt lat="44.16812" lon="6.96278">
        <ele>2419.3275081031</ele>
        <time>2021-11-18T10:38:29Z</time>
      </trkpt>
      <trkpt lat="44.16812" lon="6.96278">
        <ele>2419.3275258727</ele>
        <time>2021-11-18T10:38:30Z</time>
      </trkpt>
      <trkpt lat="44.16811" lon="6.96279">
        <ele>2419.3275441453</ele>
        <time>2021-11-18T10:38:33Z</time>
      </trkpt>
      <trkpt lat="44.16811" lon="6.9628">
        <ele>2418.3275528625</ele>
        <time>2021-11-18T10:38:34Z</time>
      </trkpt>
      <trkpt lat="44.16811" lon="6.9628">
        <ele>2418.3275537007</ele>
        <time>2021-11-18T10:38:36Z</time>
      </trkpt>
      <trkpt lat="44.1681" lon="6.96281">
        <ele>2418.3276028186</ele>
        <time>2021-11-18T10:38:37Z</time>
      </trkpt>
      <trkpt lat="44.16809" lon="6.9628">
        <ele>2418.3276616596</ele>
        <time>2021-11-18T10:38:38Z</time>
      </trkpt>
      <trkpt lat="44.16808" lon="6.9628">
        <ele>2418.327692505</ele>
        <time>2021-11-18T10:38:39Z</time>
      </trkpt>
      <trkpt lat="44.16807" lon="6.9628">
        <ele>2419.327708263</ele>
        <time>2021-11-18T10:38:41Z</time>
      </trkpt>
      <trkpt lat="44.16807" lon="6.96281">
        <ele>2419.3277399465</ele>
        <time>2021-11-18T10:38:42Z</time>
      </trkpt>
      <trkpt lat="44.16806" lon="6.96282">
        <ele>2420.327776324</ele>
        <time>2021-11-18T10:38:43Z</time>
      </trkpt>
      <trkpt lat="44.16804" lon="6.96282">
        <ele>2420.3278453909</ele>
        <time>2021-11-18T10:38:45Z</time>
      </trkpt>
      <trkpt lat="44.16803" lon="6.96282">
        <ele>2420.3278787509</ele>
        <time>2021-11-18T10:38:46Z</time>
      </trkpt>
      <trkpt lat="44.16801" lon="6.96281">
        <ele>2419.3279510029</ele>
        <time>2021-11-18T10:38:48Z</time>
      </trkpt>
      <trkpt lat="44.168" lon="6.96281">
        <ele>2419.3279872127</ele>
        <time>2021-11-18T10:38:49Z</time>
      </trkpt>
      <trkpt lat="44.168" lon="6.96282">
        <ele>2419.3280205727</ele>
        <time>2021-11-18T10:38:50Z</time>
      </trkpt>
      <trkpt lat="44.16799" lon="6.96281">
        <ele>2419.3280502446</ele>
        <time>2021-11-18T10:38:51Z</time>
      </trkpt>
      <trkpt lat="44.16798" lon="6.96281">
        <ele>2419.3280849457</ele>
        <time>2021-11-18T10:38:52Z</time>
      </trkpt>
      <trkpt lat="44.16797" lon="6.96281">
        <ele>2419.3281374164</ele>
        <time>2021-11-18T10:38:53Z</time>
      </trkpt>
      <trkpt lat="44.16796" lon="6.96281">
        <ele>2420.3281644061</ele>
        <time>2021-11-18T10:38:54Z</time>
      </trkpt>
      <trkpt lat="44.16795" lon="6.96281">
        <ele>2420.3282051422</ele>
        <time>2021-11-18T10:38:55Z</time>
      </trkpt>
      <trkpt lat="44.16793" lon="6.9628">
        <ele>2420.3282785676</ele>
        <time>2021-11-18T10:38:57Z</time>
      </trkpt>
      <trkpt lat="44.16792" lon="6.9628">
        <ele>2420.3283084072</ele>
        <time>2021-11-18T10:38:58Z</time>
      </trkpt>
      <trkpt lat="44.16792" lon="6.9628">
        <ele>2420.3283370733</ele>
        <time>2021-11-18T10:38:59Z</time>
      </trkpt>
      <trkpt lat="44.16791" lon="6.9628">
        <ele>2420.3283690922</ele>
        <time>2021-11-18T10:39:00Z</time>
      </trkpt>
      <trkpt lat="44.16789" lon="6.9628">
        <ele>2419.3284408413</ele>
        <time>2021-11-18T10:39:02Z</time>
      </trkpt>
      <trkpt lat="44.16788" lon="6.96281">
        <ele>2418.3284740336</ele>
        <time>2021-11-18T10:39:03Z</time>
      </trkpt>
      <trkpt lat="44.16787" lon="6.9628">
        <ele>2418.3285042085</ele>
        <time>2021-11-18T10:39:04Z</time>
      </trkpt>
      <trkpt lat="44.16786" lon="6.9628">
        <ele>2419.328553997</ele>
        <time>2021-11-18T10:39:05Z</time>
      </trkpt>
      <trkpt lat="44.16784" lon="6.96279">
        <ele>2419.3286314458</ele>
        <time>2021-11-18T10:39:07Z</time>
      </trkpt>
      <trkpt lat="44.16783" lon="6.96279">
        <ele>2418.3286664821</ele>
        <time>2021-11-18T10:39:08Z</time>
      </trkpt>
      <trkpt lat="44.16783" lon="6.96279">
        <ele>2418.3286807314</ele>
        <time>2021-11-18T10:39:09Z</time>
      </trkpt>
      <trkpt lat="44.16783" lon="6.96278">
        <ele>2417.3287000097</ele>
        <time>2021-11-18T10:39:10Z</time>
      </trkpt>
      <trkpt lat="44.16781" lon="6.96278">
        <ele>2417.3287611976</ele>
        <time>2021-11-18T10:39:12Z</time>
      </trkpt>
      <trkpt lat="44.1678" lon="6.96277">
        <ele>2417.3287910372</ele>
        <time>2021-11-18T10:39:13Z</time>
      </trkpt>
      <trkpt lat="44.16779" lon="6.96277">
        <ele>2417.328833282</ele>
        <time>2021-11-18T10:39:14Z</time>
      </trkpt>
      <trkpt lat="44.16778" lon="6.96277">
        <ele>2417.3288765326</ele>
        <time>2021-11-18T10:39:15Z</time>
      </trkpt>
      <trkpt lat="44.16776" lon="6.96279">
        <ele>2417.3289482817</ele>
        <time>2021-11-18T10:39:17Z</time>
      </trkpt>
      <trkpt lat="44.16776" lon="6.96279">
        <ele>2418.3289690688</ele>
        <time>2021-11-18T10:39:18Z</time>
      </trkpt>
      <trkpt lat="44.16775" lon="6.96279">
        <ele>2419.3289975673</ele>
        <time>2021-11-18T10:39:19Z</time>
      </trkpt>
      <trkpt lat="44.16774" lon="6.96279">
        <ele>2419.329044506</ele>
        <time>2021-11-18T10:39:21Z</time>
      </trkpt>
      <trkpt lat="44.16773" lon="6.9628">
        <ele>2419.329062108</ele>
        <time>2021-11-18T10:39:22Z</time>
      </trkpt>
      <trkpt lat="44.16773" lon="6.96281">
        <ele>2419.3291008323</ele>
        <time>2021-11-18T10:39:23Z</time>
      </trkpt>
      <trkpt lat="44.16771" lon="6.96281">
        <ele>2419.3291442506</ele>
        <time>2021-11-18T10:39:24Z</time>
      </trkpt>
      <trkpt lat="44.1677" lon="6.96282">
        <ele>2419.3292216994</ele>
        <time>2021-11-18T10:39:26Z</time>
      </trkpt>
      <trkpt lat="44.16768" lon="6.96283">
        <ele>2419.3292669617</ele>
        <time>2021-11-18T10:39:27Z</time>
      </trkpt>
      <trkpt lat="44.16767" lon="6.96283">
        <ele>2419.3293092065</ele>
        <time>2021-11-18T10:39:28Z</time>
      </trkpt>
      <trkpt lat="44.16767" lon="6.96284">
        <ele>2419.3293323405</ele>
        <time>2021-11-18T10:39:29Z</time>
      </trkpt>
      <trkpt lat="44.16766" lon="6.96284">
        <ele>2419.3293757588</ele>
        <time>2021-11-18T10:39:30Z</time>
      </trkpt>
      <trkpt lat="44.16765" lon="6.96285">
        <ele>2419.329417333</ele>
        <time>2021-11-18T10:39:31Z</time>
      </trkpt>
      <trkpt lat="44.16764" lon="6.96284">
        <ele>2419.3294515312</ele>
        <time>2021-11-18T10:39:32Z</time>
      </trkpt>
      <trkpt lat="44.16763" lon="6.96285">
        <ele>2419.3294827119</ele>
        <time>2021-11-18T10:39:33Z</time>
      </trkpt>
      <trkpt lat="44.16762" lon="6.96285">
        <ele>2419.3295091987</ele>
        <time>2021-11-18T10:39:34Z</time>
      </trkpt>
      <trkpt lat="44.16761" lon="6.96285">
        <ele>2419.3295492642</ele>
        <time>2021-11-18T10:39:35Z</time>
      </trkpt>
      <trkpt lat="44.16761" lon="6.96285">
        <ele>2419.3295722306</ele>
        <time>2021-11-18T10:39:36Z</time>
      </trkpt>
      <trkpt lat="44.1676" lon="6.96285">
        <ele>2419.3296087757</ele>
        <time>2021-11-18T10:39:37Z</time>
      </trkpt>
      <trkpt lat="44.16759" lon="6.96285">
        <ele>2419.3296404593</ele>
        <time>2021-11-18T10:39:38Z</time>
      </trkpt>
      <trkpt lat="44.16758" lon="6.96286">
        <ele>2419.3296684548</ele>
        <time>2021-11-18T10:39:39Z</time>
      </trkpt>
      <trkpt lat="44.16758" lon="6.96286">
        <ele>2418.3296880685</ele>
        <time>2021-11-18T10:39:40Z</time>
      </trkpt>
      <trkpt lat="44.16757" lon="6.96287">
        <ele>2417.3297100291</ele>
        <time>2021-11-18T10:39:41Z</time>
      </trkpt>
      <trkpt lat="44.16757" lon="6.96287">
        <ele>2417.3297391981</ele>
        <time>2021-11-18T10:39:42Z</time>
      </trkpt>
      <trkpt lat="44.16756" lon="6.96288">
        <ele>2417.3297745697</ele>
        <time>2021-11-18T10:39:43Z</time>
      </trkpt>
      <trkpt lat="44.16755" lon="6.96289">
        <ele>2416.3298206702</ele>
        <time>2021-11-18T10:39:44Z</time>
      </trkpt>
      <trkpt lat="44.16753" lon="6.9629">
        <ele>2416.3298820257</ele>
        <time>2021-11-18T10:39:45Z</time>
      </trkpt>
      <trkpt lat="44.16752" lon="6.9629">
        <ele>2416.3299390227</ele>
        <time>2021-11-18T10:39:46Z</time>
      </trkpt>
      <trkpt lat="44.16751" lon="6.96291">
        <ele>2416.3299673535</ele>
        <time>2021-11-18T10:39:47Z</time>
      </trkpt>
      <trkpt lat="44.1675" lon="6.96292">
        <ele>2416.3299961872</ele>
        <time>2021-11-18T10:39:48Z</time>
      </trkpt>
      <trkpt lat="44.16748" lon="6.96292">
        <ele>2415.3300739713</ele>
        <time>2021-11-18T10:39:50Z</time>
      </trkpt>
      <trkpt lat="44.16747" lon="6.96293">
        <ele>2415.3301309682</ele>
        <time>2021-11-18T10:39:51Z</time>
      </trkpt>
      <trkpt lat="44.16746" lon="6.96293">
        <ele>2415.3301673457</ele>
        <time>2021-11-18T10:39:52Z</time>
      </trkpt>
      <trkpt lat="44.16745" lon="6.96294">
        <ele>2415.330210764</ele>
        <time>2021-11-18T10:39:53Z</time>
      </trkpt>
      <trkpt lat="44.16743" lon="6.96295">
        <ele>2415.3302634023</ele>
        <time>2021-11-18T10:39:54Z</time>
      </trkpt>
      <trkpt lat="44.16742" lon="6.96295">
        <ele>2415.3303059824</ele>
        <time>2021-11-18T10:39:55Z</time>
      </trkpt>
      <trkpt lat="44.16742" lon="6.96296">
        <ele>2415.3303410187</ele>
        <time>2021-11-18T10:39:56Z</time>
      </trkpt>
      <trkpt lat="44.1674" lon="6.96296">
        <ele>2415.3303869516</ele>
        <time>2021-11-18T10:39:57Z</time>
      </trkpt>
      <trkpt lat="44.16739" lon="6.96296">
        <ele>2415.3304305375</ele>
        <time>2021-11-18T10:39:58Z</time>
      </trkpt>
      <trkpt lat="44.16738" lon="6.96297">
        <ele>2415.3304764703</ele>
        <time>2021-11-18T10:39:59Z</time>
      </trkpt>
      <trkpt lat="44.16737" lon="6.96297">
        <ele>2415.3305081539</ele>
        <time>2021-11-18T10:40:00Z</time>
      </trkpt>
      <trkpt lat="44.16736" lon="6.96297">
        <ele>2415.3305473812</ele>
        <time>2021-11-18T10:40:01Z</time>
      </trkpt>
      <trkpt lat="44.16735" lon="6.96298">
        <ele>2415.3305847645</ele>
        <time>2021-11-18T10:40:02Z</time>
      </trkpt>
      <trkpt lat="44.16734" lon="6.96299">
        <ele>2415.3306258358</ele>
        <time>2021-11-18T10:40:03Z</time>
      </trkpt>
      <trkpt lat="44.16734" lon="6.963">
        <ele>2415.3306613751</ele>
        <time>2021-11-18T10:40:04Z</time>
      </trkpt>
      <trkpt lat="44.16733" lon="6.963">
        <ele>2415.3306932263</ele>
        <time>2021-11-18T10:40:05Z</time>
      </trkpt>
      <trkpt lat="44.16732" lon="6.96301">
        <ele>2415.3307249099</ele>
        <time>2021-11-18T10:40:06Z</time>
      </trkpt>
      <trkpt lat="44.16731" lon="6.96302">
        <ele>2415.3307629637</ele>
        <time>2021-11-18T10:40:07Z</time>
      </trkpt>
      <trkpt lat="44.1673" lon="6.96303">
        <ele>2415.3308085613</ele>
        <time>2021-11-18T10:40:08Z</time>
      </trkpt>
      <trkpt lat="44.16729" lon="6.96303">
        <ele>2415.3308412507</ele>
        <time>2021-11-18T10:40:09Z</time>
      </trkpt>
      <trkpt lat="44.16728" lon="6.96304">
        <ele>2416.3308965713</ele>
        <time>2021-11-18T10:40:10Z</time>
      </trkpt>
      <trkpt lat="44.16726" lon="6.96304">
        <ele>2415.3309621178</ele>
        <time>2021-11-18T10:40:12Z</time>
      </trkpt>
      <trkpt lat="44.16725" lon="6.96305">
        <ele>2415.3310085535</ele>
        <time>2021-11-18T10:40:13Z</time>
      </trkpt>
      <trkpt lat="44.16724" lon="6.96306">
        <ele>2415.3310531452</ele>
        <time>2021-11-18T10:40:14Z</time>
      </trkpt>
      <trkpt lat="44.16723" lon="6.96307">
        <ele>2415.3310816437</ele>
        <time>2021-11-18T10:40:15Z</time>
      </trkpt>
      <trkpt lat="44.16722" lon="6.96308">
        <ele>2415.3311351202</ele>
        <time>2021-11-18T10:40:17Z</time>
      </trkpt>
      <trkpt lat="44.16721" lon="6.96309">
        <ele>2415.3311666362</ele>
        <time>2021-11-18T10:40:18Z</time>
      </trkpt>
      <trkpt lat="44.1672" lon="6.9631">
        <ele>2415.331202846</ele>
        <time>2021-11-18T10:40:19Z</time>
      </trkpt>
      <trkpt lat="44.16718" lon="6.96311">
        <ele>2414.33127141</ele>
        <time>2021-11-18T10:40:21Z</time>
      </trkpt>
      <trkpt lat="44.16717" lon="6.96311">
        <ele>2414.3313034289</ele>
        <time>2021-11-18T10:40:22Z</time>
      </trkpt>
      <trkpt lat="44.16717" lon="6.96312">
        <ele>2414.3313310891</ele>
        <time>2021-11-18T10:40:23Z</time>
      </trkpt>
      <trkpt lat="44.16716" lon="6.96312">
        <ele>2414.3313542232</ele>
        <time>2021-11-18T10:40:24Z</time>
      </trkpt>
      <trkpt lat="44.16715" lon="6.96314">
        <ele>2414.3313857391</ele>
        <time>2021-11-18T10:40:26Z</time>
      </trkpt>
      <trkpt lat="44.16715" lon="6.96314">
        <ele>2414.3314092085</ele>
        <time>2021-11-18T10:40:27Z</time>
      </trkpt>
      <trkpt lat="44.16714" lon="6.96315">
        <ele>2414.3314452507</ele>
        <time>2021-11-18T10:40:28Z</time>
      </trkpt>
      <trkpt lat="44.16713" lon="6.96315">
        <ele>2415.331488166</ele>
        <time>2021-11-18T10:40:29Z</time>
      </trkpt>
      <trkpt lat="44.16712" lon="6.96316">
        <ele>2415.3315216936</ele>
        <time>2021-11-18T10:40:30Z</time>
      </trkpt>
      <trkpt lat="44.1671" lon="6.96317">
        <ele>2414.3315845579</ele>
        <time>2021-11-18T10:40:32Z</time>
      </trkpt>
      <trkpt lat="44.1671" lon="6.96317">
        <ele>2414.331615068</ele>
        <time>2021-11-18T10:40:33Z</time>
      </trkpt>
      <trkpt lat="44.16709" lon="6.96318">
        <ele>2414.3316296525</ele>
        <time>2021-11-18T10:40:34Z</time>
      </trkpt>
      <trkpt lat="44.16709" lon="6.96318">
        <ele>2415.3316573128</ele>
        <time>2021-11-18T10:40:35Z</time>
      </trkpt>
      <trkpt lat="44.16708" lon="6.96319">
        <ele>2415.3316784352</ele>
        <time>2021-11-18T10:40:36Z</time>
      </trkpt>
      <trkpt lat="44.16708" lon="6.96319">
        <ele>2415.3317017369</ele>
        <time>2021-11-18T10:40:37Z</time>
      </trkpt>
      <trkpt lat="44.16707" lon="6.96319">
        <ele>2415.3317372762</ele>
        <time>2021-11-18T10:40:38Z</time>
      </trkpt>
      <trkpt lat="44.16706" lon="6.9632">
        <ele>2415.3317659423</ele>
        <time>2021-11-18T10:40:39Z</time>
      </trkpt>
      <trkpt lat="44.16705" lon="6.9632">
        <ele>2415.3317930996</ele>
        <time>2021-11-18T10:40:40Z</time>
      </trkpt>
      <trkpt lat="44.16705" lon="6.9632">
        <ele>2416.3318209276</ele>
        <time>2021-11-18T10:40:41Z</time>
      </trkpt>
      <trkpt lat="44.16704" lon="6.9632">
        <ele>2416.3318495937</ele>
        <time>2021-11-18T10:40:42Z</time>
      </trkpt>
      <trkpt lat="44.16703" lon="6.96321">
        <ele>2416.3318732306</ele>
        <time>2021-11-18T10:40:43Z</time>
      </trkpt>
      <trkpt lat="44.16702" lon="6.96321">
        <ele>2415.3319149725</ele>
        <time>2021-11-18T10:40:44Z</time>
      </trkpt>
      <trkpt lat="44.16701" lon="6.96321">
        <ele>2415.3319481649</ele>
        <time>2021-11-18T10:40:45Z</time>
      </trkpt>
      <trkpt lat="44.16699" lon="6.96321">
        <ele>2414.3320308104</ele>
        <time>2021-11-18T10:40:47Z</time>
      </trkpt>
      <trkpt lat="44.16698" lon="6.96321">
        <ele>2415.3320723847</ele>
        <time>2021-11-18T10:40:48Z</time>
      </trkpt>
      <trkpt lat="44.16697" lon="6.96322">
        <ele>2415.3321027271</ele>
        <time>2021-11-18T10:40:49Z</time>
      </trkpt>
      <trkpt lat="44.16697" lon="6.96323">
        <ele>2415.3321303874</ele>
        <time>2021-11-18T10:40:51Z</time>
      </trkpt>
      <trkpt lat="44.16696" lon="6.96323">
        <ele>2415.3321555331</ele>
        <time>2021-11-18T10:40:52Z</time>
      </trkpt>
      <trkpt lat="44.16695" lon="6.96324">
        <ele>2415.3321858756</ele>
        <time>2021-11-18T10:40:54Z</time>
      </trkpt>
      <trkpt lat="44.16693" lon="6.96324">
        <ele>2416.3322638273</ele>
        <time>2021-11-18T10:40:56Z</time>
      </trkpt>
      <trkpt lat="44.16692" lon="6.96323">
        <ele>2415.3323022164</ele>
        <time>2021-11-18T10:40:57Z</time>
      </trkpt>
      <trkpt lat="44.16691" lon="6.96323">
        <ele>2415.3323422819</ele>
        <time>2021-11-18T10:40:58Z</time>
      </trkpt>
      <trkpt lat="44.16691" lon="6.96323">
        <ele>2416.3323727921</ele>
        <time>2021-11-18T10:41:00Z</time>
      </trkpt>
      <trkpt lat="44.16689" lon="6.96322">
        <ele>2415.3324418589</ele>
        <time>2021-11-18T10:41:02Z</time>
      </trkpt>
      <trkpt lat="44.16688" lon="6.96321">
        <ele>2415.3324772306</ele>
        <time>2021-11-18T10:41:03Z</time>
      </trkpt>
      <trkpt lat="44.16688" lon="6.96322">
        <ele>2416.3324894682</ele>
        <time>2021-11-18T10:41:06Z</time>
      </trkpt>
      <trkpt lat="44.16687" lon="6.96322">
        <ele>2417.3325156197</ele>
        <time>2021-11-18T10:41:08Z</time>
      </trkpt>
      <trkpt lat="44.16686" lon="6.96322">
        <ele>2416.3325466327</ele>
        <time>2021-11-18T10:41:12Z</time>
      </trkpt>
      <trkpt lat="44.16686" lon="6.96323">
        <ele>2416.3325538412</ele>
        <time>2021-11-18T10:41:13Z</time>
      </trkpt>
      <trkpt lat="44.16686" lon="6.96324">
        <ele>2416.3325555176</ele>
        <time>2021-11-18T10:41:15Z</time>
      </trkpt>
      <trkpt lat="44.16685" lon="6.96324">
        <ele>2416.3326096646</ele>
        <time>2021-11-18T10:41:17Z</time>
      </trkpt>
      <trkpt lat="44.16684" lon="6.96325">
        <ele>2414.3326341398</ele>
        <time>2021-11-18T10:41:19Z</time>
      </trkpt>
      <trkpt lat="44.16683" lon="6.96324">
        <ele>2414.3326849341</ele>
        <time>2021-11-18T10:41:21Z</time>
      </trkpt>
      <trkpt lat="44.16682" lon="6.96324">
        <ele>2414.3327063918</ele>
        <time>2021-11-18T10:41:22Z</time>
      </trkpt>
      <trkpt lat="44.16682" lon="6.96324">
        <ele>2414.3327241614</ele>
        <time>2021-11-18T10:41:23Z</time>
      </trkpt>
      <trkpt lat="44.16681" lon="6.96324">
        <ele>2414.3327483013</ele>
        <time>2021-11-18T10:41:24Z</time>
      </trkpt>
      <trkpt lat="44.16681" lon="6.96324">
        <ele>2414.3327674121</ele>
        <time>2021-11-18T10:41:25Z</time>
      </trkpt>
      <trkpt lat="44.1668" lon="6.96324">
        <ele>2414.3327846788</ele>
        <time>2021-11-18T10:41:26Z</time>
      </trkpt>
      <trkpt lat="44.16679" lon="6.96324">
        <ele>2414.3328237385</ele>
        <time>2021-11-18T10:41:27Z</time>
      </trkpt>
      <trkpt lat="44.16679" lon="6.96324">
        <ele>2414.332861457</ele>
        <time>2021-11-18T10:41:28Z</time>
      </trkpt>
      <trkpt lat="44.16678" lon="6.96324">
        <ele>2414.3328968287</ele>
        <time>2021-11-18T10:41:29Z</time>
      </trkpt>
      <trkpt lat="44.16677" lon="6.96324">
        <ele>2415.3329280093</ele>
        <time>2021-11-18T10:41:31Z</time>
      </trkpt>
      <trkpt lat="44.16677" lon="6.96323">
        <ele>2415.3329387382</ele>
        <time>2021-11-18T10:41:36Z</time>
      </trkpt>
      <trkpt lat="44.16676" lon="6.96321">
        <ele>2416.3329617046</ele>
        <time>2021-11-18T10:41:37Z</time>
      </trkpt>
      <trkpt lat="44.16675" lon="6.96322">
        <ele>2417.332986515</ele>
        <time>2021-11-18T10:41:38Z</time>
      </trkpt>
      <trkpt lat="44.16675" lon="6.96322">
        <ele>2417.3330130018</ele>
        <time>2021-11-18T10:41:40Z</time>
      </trkpt>
      <trkpt lat="44.16674" lon="6.96322">
        <ele>2417.3330297656</ele>
        <time>2021-11-18T10:41:41Z</time>
      </trkpt>
      <trkpt lat="44.16674" lon="6.96322">
        <ele>2417.3330565877</ele>
        <time>2021-11-18T10:41:42Z</time>
      </trkpt>
      <trkpt lat="44.16673" lon="6.96322">
        <ele>2417.3330839127</ele>
        <time>2021-11-18T10:41:43Z</time>
      </trkpt>
      <trkpt lat="44.16673" lon="6.96322">
        <ele>2417.3330995031</ele>
        <time>2021-11-18T10:41:47Z</time>
      </trkpt>
      <trkpt lat="44.16671" lon="6.96322">
        <ele>2417.3331506327</ele>
        <time>2021-11-18T10:41:48Z</time>
      </trkpt>
      <trkpt lat="44.16671" lon="6.96323">
        <ele>2418.3331816457</ele>
        <time>2021-11-18T10:41:50Z</time>
      </trkpt>
      <trkpt lat="44.1667" lon="6.96323">
        <ele>2417.3331975713</ele>
        <time>2021-11-18T10:41:52Z</time>
      </trkpt>
      <trkpt lat="44.16669" lon="6.96322">
        <ele>2418.3332294226</ele>
        <time>2021-11-18T10:41:53Z</time>
      </trkpt>
      <trkpt lat="44.16669" lon="6.96322">
        <ele>2419.3332461864</ele>
        <time>2021-11-18T10:41:54Z</time>
      </trkpt>
      <trkpt lat="44.16668" lon="6.96323">
        <ele>2419.3332686499</ele>
        <time>2021-11-18T10:41:58Z</time>
      </trkpt>
      <trkpt lat="44.16667" lon="6.96322">
        <ele>2419.3333383873</ele>
        <time>2021-11-18T10:41:59Z</time>
      </trkpt>
      <trkpt lat="44.16666" lon="6.96321">
        <ele>2420.3333590068</ele>
        <time>2021-11-18T10:42:04Z</time>
      </trkpt>
      <trkpt lat="44.16665" lon="6.96319">
        <ele>2420.3334134892</ele>
        <time>2021-11-18T10:42:06Z</time>
      </trkpt>
      <trkpt lat="44.16664" lon="6.9632">
        <ele>2420.3334398083</ele>
        <time>2021-11-18T10:42:10Z</time>
      </trkpt>
      <trkpt lat="44.16663" lon="6.9632">
        <ele>2421.3334877528</ele>
        <time>2021-11-18T10:42:11Z</time>
      </trkpt>
      <trkpt lat="44.16662" lon="6.96319">
        <ele>2421.3335179277</ele>
        <time>2021-11-18T10:42:15Z</time>
      </trkpt>
      <trkpt lat="44.16661" lon="6.9632">
        <ele>2422.3335496113</ele>
        <time>2021-11-18T10:42:18Z</time>
      </trkpt>
      <trkpt lat="44.16661" lon="6.96319">
        <ele>2421.3335730806</ele>
        <time>2021-11-18T10:42:20Z</time>
      </trkpt>
      <trkpt lat="44.1666" lon="6.96319">
        <ele>2421.3335906826</ele>
        <time>2021-11-18T10:42:21Z</time>
      </trkpt>
      <trkpt lat="44.1666" lon="6.96319">
        <ele>2422.3336134814</ele>
        <time>2021-11-18T10:42:22Z</time>
      </trkpt>
      <trkpt lat="44.16659" lon="6.96319">
        <ele>2422.3336446621</ele>
        <time>2021-11-18T10:42:23Z</time>
      </trkpt>
      <trkpt lat="44.16659" lon="6.96318">
        <ele>2422.3336579055</ele>
        <time>2021-11-18T10:42:24Z</time>
      </trkpt>
      <trkpt lat="44.16658" lon="6.96317">
        <ele>2423.3336843923</ele>
        <time>2021-11-18T10:42:26Z</time>
      </trkpt>
      <trkpt lat="44.16657" lon="6.96316">
        <ele>2424.333717417</ele>
        <time>2021-11-18T10:42:27Z</time>
      </trkpt>
      <trkpt lat="44.16656" lon="6.96316">
        <ele>2424.3337442391</ele>
        <time>2021-11-18T10:42:30Z</time>
      </trkpt>
      <trkpt lat="44.16656" lon="6.96315">
        <ele>2424.333750274</ele>
        <time>2021-11-18T10:42:31Z</time>
      </trkpt>
      <trkpt lat="44.16656" lon="6.96315">
        <ele>2424.3337760903</ele>
        <time>2021-11-18T10:42:32Z</time>
      </trkpt>
      <trkpt lat="44.16655" lon="6.96314">
        <ele>2424.3337879926</ele>
        <time>2021-11-18T10:42:33Z</time>
      </trkpt>
      <trkpt lat="44.16655" lon="6.96314">
        <ele>2424.3337957039</ele>
        <time>2021-11-18T10:42:36Z</time>
      </trkpt>
      <trkpt lat="44.16655" lon="6.96311">
        <ele>2425.3338216878</ele>
        <time>2021-11-18T10:42:37Z</time>
      </trkpt>
      <trkpt lat="44.16654" lon="6.96311">
        <ele>2424.3338439837</ele>
        <time>2021-11-18T10:42:39Z</time>
      </trkpt>
      <trkpt lat="44.16654" lon="6.9631">
        <ele>2425.3338563889</ele>
        <time>2021-11-18T10:42:40Z</time>
      </trkpt>
      <trkpt lat="44.16652" lon="6.96311">
        <ele>2424.3339103684</ele>
        <time>2021-11-18T10:42:42Z</time>
      </trkpt>
      <trkpt lat="44.16652" lon="6.96311">
        <ele>2425.3339335024</ele>
        <time>2021-11-18T10:42:44Z</time>
      </trkpt>
      <trkpt lat="44.16651" lon="6.96311">
        <ele>2425.3339636773</ele>
        <time>2021-11-18T10:42:48Z</time>
      </trkpt>
      <trkpt lat="44.16649" lon="6.9631">
        <ele>2424.3340302296</ele>
        <time>2021-11-18T10:42:49Z</time>
      </trkpt>
      <trkpt lat="44.16648" lon="6.9631">
        <ele>2423.3340640925</ele>
        <time>2021-11-18T10:42:51Z</time>
      </trkpt>
      <trkpt lat="44.16648" lon="6.96309">
        <ele>2423.3340827003</ele>
        <time>2021-11-18T10:42:55Z</time>
      </trkpt>
      <trkpt lat="44.16647" lon="6.96309">
        <ele>2425.3341308124</ele>
        <time>2021-11-18T10:42:56Z</time>
      </trkpt>
      <trkpt lat="44.16646" lon="6.96309">
        <ele>2425.3341646753</ele>
        <time>2021-11-18T10:42:59Z</time>
      </trkpt>
      <trkpt lat="44.16646" lon="6.96309">
        <ele>2425.3341760747</ele>
        <time>2021-11-18T10:43:00Z</time>
      </trkpt>
      <trkpt lat="44.16645" lon="6.96309">
        <ele>2424.3342044055</ele>
        <time>2021-11-18T10:43:03Z</time>
      </trkpt>
      <trkpt lat="44.16645" lon="6.96309">
        <ele>2424.3342193253</ele>
        <time>2021-11-18T10:43:04Z</time>
      </trkpt>
      <trkpt lat="44.16643" lon="6.96308">
        <ele>2424.334266264</ele>
        <time>2021-11-18T10:43:06Z</time>
      </trkpt>
      <trkpt lat="44.16643" lon="6.96308">
        <ele>2424.3342915773</ele>
        <time>2021-11-18T10:43:08Z</time>
      </trkpt>
      <trkpt lat="44.16642" lon="6.96308">
        <ele>2424.334303312</ele>
        <time>2021-11-18T10:43:09Z</time>
      </trkpt>
      <trkpt lat="44.16642" lon="6.96306">
        <ele>2425.3343294635</ele>
        <time>2021-11-18T10:43:11Z</time>
      </trkpt>
      <trkpt lat="44.16642" lon="6.96306">
        <ele>2425.3343398571</ele>
        <time>2021-11-18T10:43:12Z</time>
      </trkpt>
      <trkpt lat="44.16641" lon="6.96306">
        <ele>2425.3343665116</ele>
        <time>2021-11-18T10:43:13Z</time>
      </trkpt>
      <trkpt lat="44.1664" lon="6.96305">
        <ele>2426.3343903162</ele>
        <time>2021-11-18T10:43:15Z</time>
      </trkpt>
      <trkpt lat="44.1664" lon="6.96304">
        <ele>2425.3344008774</ele>
        <time>2021-11-18T10:43:17Z</time>
      </trkpt>
      <trkpt lat="44.1664" lon="6.96303">
        <ele>2426.3344152942</ele>
        <time>2021-11-18T10:43:19Z</time>
      </trkpt>
      <trkpt lat="44.16639" lon="6.96302">
        <ele>2427.3344292082</ele>
        <time>2021-11-18T10:43:21Z</time>
      </trkpt>
      <trkpt lat="44.16639" lon="6.96302">
        <ele>2427.3344439603</ele>
        <time>2021-11-18T10:43:22Z</time>
      </trkpt>
      <trkpt lat="44.16638" lon="6.96303">
        <ele>2427.334471453</ele>
        <time>2021-11-18T10:43:23Z</time>
      </trkpt>
      <trkpt lat="44.16637" lon="6.96304">
        <ele>2427.3345029689</ele>
        <time>2021-11-18T10:43:25Z</time>
      </trkpt>
      <trkpt lat="44.16637" lon="6.96303">
        <ele>2428.3345131949</ele>
        <time>2021-11-18T10:43:27Z</time>
      </trkpt>
      <trkpt lat="44.16637" lon="6.96305">
        <ele>2429.3345289528</ele>
        <time>2021-11-18T10:43:28Z</time>
      </trkpt>
      <trkpt lat="44.16636" lon="6.96305">
        <ele>2430.3345480636</ele>
        <time>2021-11-18T10:43:29Z</time>
      </trkpt>
      <trkpt lat="44.16636" lon="6.96304">
        <ele>2429.3345735446</ele>
        <time>2021-11-18T10:43:30Z</time>
      </trkpt>
      <trkpt lat="44.16635" lon="6.96303">
        <ele>2429.3346218243</ele>
        <time>2021-11-18T10:43:32Z</time>
      </trkpt>
      <trkpt lat="44.16634" lon="6.96304">
        <ele>2430.3346471377</ele>
        <time>2021-11-18T10:43:34Z</time>
      </trkpt>
      <trkpt lat="44.16633" lon="6.96303">
        <ele>2429.3346920647</ele>
        <time>2021-11-18T10:43:36Z</time>
      </trkpt>
      <trkpt lat="44.16634" lon="6.96303">
        <ele>2429.3346617222</ele>
        <time>2021-11-18T10:43:38Z</time>
      </trkpt>
      <trkpt lat="44.16633" lon="6.96303">
        <ele>2429.3346628956</ele>
        <time>2021-11-18T10:43:40Z</time>
      </trkpt>
      <trkpt lat="44.16633" lon="6.96302">
        <ele>2430.3347014524</ele>
        <time>2021-11-18T10:43:42Z</time>
      </trkpt>
      <trkpt lat="44.16632" lon="6.96303">
        <ele>2430.3347254246</ele>
        <time>2021-11-18T10:43:43Z</time>
      </trkpt>
      <trkpt lat="44.16631" lon="6.96302">
        <ele>2430.3347524144</ele>
        <time>2021-11-18T10:43:44Z</time>
      </trkpt>
      <trkpt lat="44.16631" lon="6.96301">
        <ele>2430.3347716928</ele>
        <time>2021-11-18T10:43:49Z</time>
      </trkpt>
      <trkpt lat="44.1663" lon="6.96301">
        <ele>2430.3347953297</ele>
        <time>2021-11-18T10:43:50Z</time>
      </trkpt>
      <trkpt lat="44.1663" lon="6.96301">
        <ele>2431.3348134346</ele>
        <time>2021-11-18T10:43:51Z</time>
      </trkpt>
      <trkpt lat="44.16629" lon="6.963">
        <ele>2430.3348382451</ele>
        <time>2021-11-18T10:43:52Z</time>
      </trkpt>
      <trkpt lat="44.16629" lon="6.963">
        <ele>2431.334848471</ele>
        <time>2021-11-18T10:43:54Z</time>
      </trkpt>
      <trkpt lat="44.16628" lon="6.963">
        <ele>2431.3348674141</ele>
        <time>2021-11-18T10:43:55Z</time>
      </trkpt>
    </trkseg>
  </trk>
</gpx>